﻿<?xml version="1.0" encoding="utf-8"?><gpx creator="Garmin Desktop App" version="1.1" xsi:schemaLocation="http://www.topografix.com/GPX/1/1 http://www.topografix.com/GPX/1/1/gpx.xsd http://www.garmin.com/xmlschemas/WaypointExtension/v1 http://www8.garmin.com/xmlschemas/WaypointExtensionv1.xsd http://www.garmin.com/xmlschemas/TrackPointExtension/v1 http://www.garmin.com/xmlschemas/TrackPointExtensionv1.xsd http://www.garmin.com/xmlschemas/GpxExtensions/v3 http://www8.garmin.com/xmlschemas/GpxExtensionsv3.xsd http://www.garmin.com/xmlschemas/ActivityExtension/v1 http://www8.garmin.com/xmlschemas/ActivityExtensionv1.xsd http://www.garmin.com/xmlschemas/AdventuresExtensions/v1 http://www8.garmin.com/xmlschemas/AdventuresExtensionv1.xsd http://www.garmin.com/xmlschemas/PressureExtension/v1 http://www.garmin.com/xmlschemas/PressureExtensionv1.xsd http://www.garmin.com/xmlschemas/TripExtensions/v1 http://www.garmin.com/xmlschemas/TripExtensionsv1.xsd http://www.garmin.com/xmlschemas/TripMetaDataExtensions/v1 http://www.garmin.com/xmlschemas/TripMetaDataExtensionsv1.xsd http://www.garmin.com/xmlschemas/ViaPointTransportationModeExtensions/v1 http://www.garmin.com/xmlschemas/ViaPointTransportationModeExtensionsv1.xsd http://www.garmin.com/xmlschemas/CreationTimeExtension/v1 http://www.garmin.com/xmlschemas/CreationTimeExtensionsv1.xsd http://www.garmin.com/xmlschemas/AccelerationExtension/v1 http://www.garmin.com/xmlschemas/AccelerationExtensionv1.xsd http://www.garmin.com/xmlschemas/PowerExtension/v1 http://www.garmin.com/xmlschemas/PowerExtensionv1.xsd http://www.garmin.com/xmlschemas/VideoExtension/v1 http://www.garmin.com/xmlschemas/VideoExtensionv1.xsd" xmlns="http://www.topografix.com/GPX/1/1" xmlns:xsi="http://www.w3.org/2001/XMLSchema-instance" xmlns:wptx1="http://www.garmin.com/xmlschemas/WaypointExtension/v1" xmlns:gpxtrx="http://www.garmin.com/xmlschemas/GpxExtensions/v3" xmlns:gpxtpx="http://www.garmin.com/xmlschemas/TrackPointExtension/v1" xmlns:gpxx="http://www.garmin.com/xmlschemas/GpxExtensions/v3" xmlns:trp="http://www.garmin.com/xmlschemas/TripExtensions/v1" xmlns:adv="http://www.garmin.com/xmlschemas/AdventuresExtensions/v1" xmlns:prs="http://www.garmin.com/xmlschemas/PressureExtension/v1" xmlns:tmd="http://www.garmin.com/xmlschemas/TripMetaDataExtensions/v1" xmlns:vptm="http://www.garmin.com/xmlschemas/ViaPointTransportationModeExtensions/v1" xmlns:ctx="http://www.garmin.com/xmlschemas/CreationTimeExtension/v1" xmlns:gpxacc="http://www.garmin.com/xmlschemas/AccelerationExtension/v1" xmlns:gpxpx="http://www.garmin.com/xmlschemas/PowerExtension/v1" xmlns:vidx1="http://www.garmin.com/xmlschemas/VideoExtension/v1">

  <metadata>
    <link href="http://www.garmin.com">
      <text>Garmin International</text>
    </link>
    <time>2026-06-23T21:16:11Z</time>
    <bounds maxlat="50.42563701979816" maxlon="-4.143249001353979" minlat="49.960807012394071" minlon="-5.712589966133237" />
  </metadata>

  <trk>
    <name>260623_Plymouth_StIves_Track</name>
    <extensions>
      <gpxx:TrackExtension>
        <gpxx:DisplayColor>DarkGray</gpxx:DisplayColor>
      </gpxx:TrackExtension>
    </extensions>
    <trkseg>
      <trkpt lat="50.366976018995047" lon="-4.147782018408179">
        <ele>39.07</ele>
        <time>2026-06-23T07:14:01Z</time>
      </trkpt>
      <trkpt lat="50.366970989853144" lon="-4.147786963731051">
        <ele>39.07</ele>
        <time>2026-06-23T07:14:59Z</time>
      </trkpt>
      <trkpt lat="50.366976018995047" lon="-4.147782018408179">
        <ele>39.549999999999997</ele>
        <time>2026-06-23T07:15:54Z</time>
      </trkpt>
      <trkpt lat="50.366978030651808" lon="-4.147782018408179">
        <ele>39.07</ele>
        <time>2026-06-23T07:16:55Z</time>
      </trkpt>
      <trkpt lat="50.366982975974679" lon="-4.147776989266276">
        <ele>39.07</ele>
        <time>2026-06-23T07:18:00Z</time>
      </trkpt>
      <trkpt lat="50.366989010944963" lon="-4.147776989266276">
        <ele>39.07</ele>
        <time>2026-06-23T07:19:07Z</time>
      </trkpt>
      <trkpt lat="50.366992028430104" lon="-4.147775983437896">
        <ele>39.07</ele>
        <time>2026-06-23T07:19:27Z</time>
      </trkpt>
      <trkpt lat="50.366964032873511" lon="-4.147844966500998">
        <ele>46.280000000000001</ele>
        <time>2026-06-23T07:24:29Z</time>
      </trkpt>
      <trkpt lat="50.366991022601724" lon="-4.147788975387812">
        <ele>47.719999999999999</ele>
        <time>2026-06-23T07:25:11Z</time>
      </trkpt>
      <trkpt lat="50.366967972368002" lon="-4.147795010358095">
        <ele>49.159999999999997</ele>
        <time>2026-06-23T07:25:36Z</time>
      </trkpt>
      <trkpt lat="50.366971995681524" lon="-4.147557970136404">
        <ele>50.609999999999999</ele>
        <time>2026-06-23T07:25:44Z</time>
      </trkpt>
      <trkpt lat="50.366971995681524" lon="-4.147388990968466">
        <ele>50.130000000000003</ele>
        <time>2026-06-23T07:25:50Z</time>
      </trkpt>
      <trkpt lat="50.366949029266834" lon="-4.146199012175202">
        <ele>46.759999999999998</ele>
        <time>2026-06-23T07:26:01Z</time>
      </trkpt>
      <trkpt lat="50.366935031488538" lon="-4.145867004990578">
        <ele>44.840000000000003</ele>
        <time>2026-06-23T07:26:06Z</time>
      </trkpt>
      <trkpt lat="50.366936037316918" lon="-4.145729038864374">
        <ele>44.359999999999999</ele>
        <time>2026-06-23T07:26:07Z</time>
      </trkpt>
      <trkpt lat="50.366970989853144" lon="-4.145728033035994">
        <ele>43.880000000000003</ele>
        <time>2026-06-23T07:26:08Z</time>
      </trkpt>
      <trkpt lat="50.367019018158317" lon="-4.145725015550852">
        <ele>42.920000000000002</ele>
        <time>2026-06-23T07:26:09Z</time>
      </trkpt>
      <trkpt lat="50.367074003443122" lon="-4.145723003894091">
        <ele>42.439999999999998</ele>
        <time>2026-06-23T07:26:10Z</time>
      </trkpt>
      <trkpt lat="50.36713401786983" lon="-4.145719986408949">
        <ele>41.950000000000003</ele>
        <time>2026-06-23T07:26:11Z</time>
      </trkpt>
      <trkpt lat="50.367195038124919" lon="-4.145716968923807">
        <ele>41.950000000000003</ele>
        <time>2026-06-23T07:26:12Z</time>
      </trkpt>
      <trkpt lat="50.367257986217737" lon="-4.145714035257697">
        <ele>41.469999999999999</ele>
        <time>2026-06-23T07:26:13Z</time>
      </trkpt>
      <trkpt lat="50.367512963712215" lon="-4.145714035257697">
        <ele>39.07</ele>
        <time>2026-06-23T07:26:18Z</time>
      </trkpt>
      <trkpt lat="50.367829967290163" lon="-4.145729960873723">
        <ele>36.670000000000002</ele>
        <time>2026-06-23T07:26:25Z</time>
      </trkpt>
      <trkpt lat="50.36788696423173" lon="-4.145738007500768">
        <ele>36.189999999999998</ele>
        <time>2026-06-23T07:26:26Z</time>
      </trkpt>
      <trkpt lat="50.367946978658438" lon="-4.145747981965542">
        <ele>35.710000000000001</ele>
        <time>2026-06-23T07:26:27Z</time>
      </trkpt>
      <trkpt lat="50.368063990026712" lon="-4.14576499722898">
        <ele>34.259999999999998</ele>
        <time>2026-06-23T07:26:29Z</time>
      </trkpt>
      <trkpt lat="50.368274040520191" lon="-4.14578402414918">
        <ele>32.340000000000003</ele>
        <time>2026-06-23T07:26:33Z</time>
      </trkpt>
      <trkpt lat="50.368319973349571" lon="-4.14578796364367">
        <ele>31.859999999999999</ele>
        <time>2026-06-23T07:26:34Z</time>
      </trkpt>
      <trkpt lat="50.368404965847731" lon="-4.145793998613954">
        <ele>31.859999999999999</ele>
        <time>2026-06-23T07:26:42Z</time>
      </trkpt>
      <trkpt lat="50.368409994989634" lon="-4.145835991948843">
        <ele>31.859999999999999</ele>
        <time>2026-06-23T07:26:44Z</time>
      </trkpt>
      <trkpt lat="50.368409994989634" lon="-4.145899023860693">
        <ele>31.859999999999999</ele>
        <time>2026-06-23T07:26:45Z</time>
      </trkpt>
      <trkpt lat="50.368409994989634" lon="-4.146008994430304">
        <ele>31.379999999999999</ele>
        <time>2026-06-23T07:26:46Z</time>
      </trkpt>
      <trkpt lat="50.368409994989634" lon="-4.147144993767142">
        <ele>28.5</ele>
        <time>2026-06-23T07:26:54Z</time>
      </trkpt>
      <trkpt lat="50.368424998596311" lon="-4.14726996794343">
        <ele>28.02</ele>
        <time>2026-06-23T07:26:55Z</time>
      </trkpt>
      <trkpt lat="50.368441008031368" lon="-4.147397037595511">
        <ele>28.02</ele>
        <time>2026-06-23T07:26:56Z</time>
      </trkpt>
      <trkpt lat="50.36848702467978" lon="-4.147609015926719">
        <ele>27.050000000000001</ele>
        <time>2026-06-23T07:26:58Z</time>
      </trkpt>
      <trkpt lat="50.368559025228024" lon="-4.147885031998158">
        <ele>24.170000000000002</ele>
        <time>2026-06-23T07:27:05Z</time>
      </trkpt>
      <trkpt lat="50.368581991642714" lon="-4.147941023111343">
        <ele>24.170000000000002</ele>
        <time>2026-06-23T07:27:40Z</time>
      </trkpt>
      <trkpt lat="50.368623984977603" lon="-4.148046970367432">
        <ele>24.170000000000002</ele>
        <time>2026-06-23T07:27:41Z</time>
      </trkpt>
      <trkpt lat="50.368662038818002" lon="-4.148112013936043">
        <ele>24.170000000000002</ele>
        <time>2026-06-23T07:27:42Z</time>
      </trkpt>
      <trkpt lat="50.368720041587949" lon="-4.148208992555738">
        <ele>23.690000000000001</ele>
        <time>2026-06-23T07:27:43Z</time>
      </trkpt>
      <trkpt lat="50.368872005492449" lon="-4.148371014744043">
        <ele>23.210000000000001</ele>
        <time>2026-06-23T07:27:45Z</time>
      </trkpt>
      <trkpt lat="50.368946017697453" lon="-4.148433040827513">
        <ele>23.210000000000001</ele>
        <time>2026-06-23T07:27:46Z</time>
      </trkpt>
      <trkpt lat="50.36904601380229" lon="-4.148458018898964">
        <ele>22.25</ele>
        <time>2026-06-23T07:27:47Z</time>
      </trkpt>
      <trkpt lat="50.36913201212883" lon="-4.148479979485273">
        <ele>22.25</ele>
        <time>2026-06-23T07:27:48Z</time>
      </trkpt>
      <trkpt lat="50.369209041818976" lon="-4.148499006405473">
        <ele>21.289999999999999</ele>
        <time>2026-06-23T07:27:49Z</time>
      </trkpt>
      <trkpt lat="50.369281964376569" lon="-4.148517027497292">
        <ele>21.289999999999999</ele>
        <time>2026-06-23T07:27:50Z</time>
      </trkpt>
      <trkpt lat="50.369335021823645" lon="-4.148588022217155">
        <ele>20.32</ele>
        <time>2026-06-23T07:27:51Z</time>
      </trkpt>
      <trkpt lat="50.369380032643676" lon="-4.148654993623495">
        <ele>20.32</ele>
        <time>2026-06-23T07:27:52Z</time>
      </trkpt>
      <trkpt lat="50.369422025978565" lon="-4.148717019706965">
        <ele>19.359999999999999</ele>
        <time>2026-06-23T07:27:53Z</time>
      </trkpt>
      <trkpt lat="50.369461001828313" lon="-4.148777034133673">
        <ele>18.879999999999999</ele>
        <time>2026-06-23T07:27:54Z</time>
      </trkpt>
      <trkpt lat="50.369461001828313" lon="-4.148777034133673">
        <ele>18.399999999999999</ele>
        <time>2026-06-23T07:27:55Z</time>
      </trkpt>
      <trkpt lat="50.369512969627976" lon="-4.14896696805954">
        <ele>17.920000000000002</ele>
        <time>2026-06-23T07:27:56Z</time>
      </trkpt>
      <trkpt lat="50.369547000154853" lon="-4.149012984707952">
        <ele>17.920000000000002</ele>
        <time>2026-06-23T07:27:57Z</time>
      </trkpt>
      <trkpt lat="50.36962604150176" lon="-4.148983983322978">
        <ele>17.440000000000001</ele>
        <time>2026-06-23T07:27:58Z</time>
      </trkpt>
      <trkpt lat="50.369687983766198" lon="-4.148961016908288">
        <ele>16.960000000000001</ele>
        <time>2026-06-23T07:27:59Z</time>
      </trkpt>
      <trkpt lat="50.36975503899157" lon="-4.148936960846186">
        <ele>16.960000000000001</ele>
        <time>2026-06-23T07:28:00Z</time>
      </trkpt>
      <trkpt lat="50.369818992912769" lon="-4.148899996653199">
        <ele>16.48</ele>
        <time>2026-06-23T07:28:01Z</time>
      </trkpt>
      <trkpt lat="50.370201040059328" lon="-4.148634960874915">
        <ele>15.039999999999999</ele>
        <time>2026-06-23T07:28:06Z</time>
      </trkpt>
      <trkpt lat="50.370284020900726" lon="-4.148602019995451">
        <ele>15.039999999999999</ele>
        <time>2026-06-23T07:28:07Z</time>
      </trkpt>
      <trkpt lat="50.371099999174476" lon="-4.148562038317323">
        <ele>15.52</ele>
        <time>2026-06-23T07:28:17Z</time>
      </trkpt>
      <trkpt lat="50.37136503495276" lon="-4.148574024438858">
        <ele>17.920000000000002</ele>
        <time>2026-06-23T07:28:26Z</time>
      </trkpt>
      <trkpt lat="50.37136503495276" lon="-4.148574024438858">
        <ele>18.399999999999999</ele>
        <time>2026-06-23T07:29:15Z</time>
      </trkpt>
      <trkpt lat="50.37138800136745" lon="-4.148576958104968">
        <ele>18.399999999999999</ele>
        <time>2026-06-23T07:29:24Z</time>
      </trkpt>
      <trkpt lat="50.371404010802507" lon="-4.148577963933349">
        <ele>18.879999999999999</ele>
        <time>2026-06-23T07:29:25Z</time>
      </trkpt>
      <trkpt lat="50.371437035501003" lon="-4.148581987246871">
        <ele>18.879999999999999</ele>
        <time>2026-06-23T07:29:26Z</time>
      </trkpt>
      <trkpt lat="50.371490009129047" lon="-4.148588022217155">
        <ele>18.879999999999999</ele>
        <time>2026-06-23T07:29:27Z</time>
      </trkpt>
      <trkpt lat="50.371557986363769" lon="-4.148597996681929">
        <ele>18.879999999999999</ele>
        <time>2026-06-23T07:29:28Z</time>
      </trkpt>
      <trkpt lat="50.371638033539057" lon="-4.148608976975083">
        <ele>18.879999999999999</ele>
        <time>2026-06-23T07:29:29Z</time>
      </trkpt>
      <trkpt lat="50.37181799300015" lon="-4.148625992238522">
        <ele>18.399999999999999</ele>
        <time>2026-06-23T07:29:31Z</time>
      </trkpt>
      <trkpt lat="50.371921006590128" lon="-4.148605037480593">
        <ele>17.920000000000002</ele>
        <time>2026-06-23T07:29:32Z</time>
      </trkpt>
      <trkpt lat="50.372025026008487" lon="-4.148576958104968">
        <ele>17.920000000000002</ele>
        <time>2026-06-23T07:29:33Z</time>
      </trkpt>
      <trkpt lat="50.372125022113323" lon="-4.148533958941698">
        <ele>17.920000000000002</ele>
        <time>2026-06-23T07:29:34Z</time>
      </trkpt>
      <trkpt lat="50.372223006561399" lon="-4.148476039990783">
        <ele>18.399999999999999</ele>
        <time>2026-06-23T07:29:35Z</time>
      </trkpt>
      <trkpt lat="50.372318979352713" lon="-4.148412002250552">
        <ele>18.399999999999999</ele>
        <time>2026-06-23T07:29:36Z</time>
      </trkpt>
      <trkpt lat="50.372414030134678" lon="-4.148332960903645">
        <ele>18.879999999999999</ele>
        <time>2026-06-23T07:29:37Z</time>
      </trkpt>
      <trkpt lat="50.372501034289598" lon="-4.148246962577105">
        <ele>19.359999999999999</ele>
        <time>2026-06-23T07:29:38Z</time>
      </trkpt>
      <trkpt lat="50.372590972110629" lon="-4.148157024756074">
        <ele>19.359999999999999</ele>
        <time>2026-06-23T07:29:39Z</time>
      </trkpt>
      <trkpt lat="50.372701026499271" lon="-4.148046970367432">
        <ele>19.84</ele>
        <time>2026-06-23T07:29:40Z</time>
      </trkpt>
      <trkpt lat="50.372761962935328" lon="-4.14795602671802">
        <ele>20.32</ele>
        <time>2026-06-23T07:29:41Z</time>
      </trkpt>
      <trkpt lat="50.372973019257188" lon="-4.147580014541745">
        <ele>21.289999999999999</ele>
        <time>2026-06-23T07:29:44Z</time>
      </trkpt>
      <trkpt lat="50.373360011726618" lon="-4.146221978589892">
        <ele>26.57</ele>
        <time>2026-06-23T07:29:53Z</time>
      </trkpt>
      <trkpt lat="50.37398898974061" lon="-4.144918005913496">
        <ele>33.780000000000001</ele>
        <time>2026-06-23T07:30:03Z</time>
      </trkpt>
      <trkpt lat="50.374747971072793" lon="-4.143856018781662">
        <ele>39.549999999999997</ele>
        <time>2026-06-23T07:30:13Z</time>
      </trkpt>
      <trkpt lat="50.374803962185979" lon="-4.143774965777993">
        <ele>40.030000000000001</ele>
        <time>2026-06-23T07:30:14Z</time>
      </trkpt>
      <trkpt lat="50.375088024884462" lon="-4.143417980521917">
        <ele>41.950000000000003</ele>
        <time>2026-06-23T07:30:20Z</time>
      </trkpt>
      <trkpt lat="50.375146027654409" lon="-4.143346985802054">
        <ele>41.950000000000003</ele>
        <time>2026-06-23T07:30:21Z</time>
      </trkpt>
      <trkpt lat="50.375271001830697" lon="-4.143249001353979">
        <ele>42.439999999999998</ele>
        <time>2026-06-23T07:30:22Z</time>
      </trkpt>
      <trkpt lat="50.375359011813998" lon="-4.143268028274179">
        <ele>42.920000000000002</ele>
        <time>2026-06-23T07:30:23Z</time>
      </trkpt>
      <trkpt lat="50.375451967120171" lon="-4.143290994688869">
        <ele>42.920000000000002</ele>
        <time>2026-06-23T07:30:24Z</time>
      </trkpt>
      <trkpt lat="50.375793026760221" lon="-4.143432984128594">
        <ele>44.359999999999999</ele>
        <time>2026-06-23T07:30:28Z</time>
      </trkpt>
      <trkpt lat="50.375875001773238" lon="-4.143494004383683">
        <ele>44.359999999999999</ele>
        <time>2026-06-23T07:30:29Z</time>
      </trkpt>
      <trkpt lat="50.375957982614636" lon="-4.143554018810391">
        <ele>44.840000000000003</ele>
        <time>2026-06-23T07:30:30Z</time>
      </trkpt>
      <trkpt lat="50.376700032502413" lon="-4.144605025649071">
        <ele>39.549999999999997</ele>
        <time>2026-06-23T07:30:40Z</time>
      </trkpt>
      <trkpt lat="50.377035979181528" lon="-4.145394014194608">
        <ele>32.82</ele>
        <time>2026-06-23T07:30:46Z</time>
      </trkpt>
      <trkpt lat="50.377088030800223" lon="-4.145661983639002">
        <ele>30.899999999999999</ele>
        <time>2026-06-23T07:30:48Z</time>
      </trkpt>
      <trkpt lat="50.377276036888361" lon="-4.146742997691035">
        <ele>25.129999999999999</ele>
        <time>2026-06-23T07:30:56Z</time>
      </trkpt>
      <trkpt lat="50.377395981922746" lon="-4.147283965721726">
        <ele>22.73</ele>
        <time>2026-06-23T07:31:01Z</time>
      </trkpt>
      <trkpt lat="50.377422971650958" lon="-4.147397959604859">
        <ele>22.25</ele>
        <time>2026-06-23T07:31:02Z</time>
      </trkpt>
      <trkpt lat="50.377433029934764" lon="-4.147518994286656">
        <ele>21.77</ele>
        <time>2026-06-23T07:31:03Z</time>
      </trkpt>
      <trkpt lat="50.377443004399538" lon="-4.147639023140073">
        <ele>22.25</ele>
        <time>2026-06-23T07:31:04Z</time>
      </trkpt>
      <trkpt lat="50.377464964985847" lon="-4.147736001759768">
        <ele>21.77</ele>
        <time>2026-06-23T07:31:05Z</time>
      </trkpt>
      <trkpt lat="50.377486003562808" lon="-4.147831974551082">
        <ele>21.289999999999999</ele>
        <time>2026-06-23T07:31:06Z</time>
      </trkpt>
      <trkpt lat="50.377534031867981" lon="-4.147880002856255">
        <ele>21.289999999999999</ele>
        <time>2026-06-23T07:31:07Z</time>
      </trkpt>
      <trkpt lat="50.377593962475657" lon="-4.147940017282963">
        <ele>20.809999999999999</ele>
        <time>2026-06-23T07:31:08Z</time>
      </trkpt>
      <trkpt lat="50.377664035186172" lon="-4.147961977869272">
        <ele>20.809999999999999</ele>
        <time>2026-06-23T07:31:09Z</time>
      </trkpt>
      <trkpt lat="50.377740981057286" lon="-4.147996008396149">
        <ele>20.809999999999999</ele>
        <time>2026-06-23T07:31:10Z</time>
      </trkpt>
      <trkpt lat="50.377823039889336" lon="-4.148040013387799">
        <ele>21.289999999999999</ele>
        <time>2026-06-23T07:31:11Z</time>
      </trkpt>
      <trkpt lat="50.377883976325393" lon="-4.148101033642888">
        <ele>21.77</ele>
        <time>2026-06-23T07:31:12Z</time>
      </trkpt>
      <trkpt lat="50.378023032099009" lon="-4.148346958681941">
        <ele>24.170000000000002</ele>
        <time>2026-06-23T07:31:16Z</time>
      </trkpt>
      <trkpt lat="50.378499962389469" lon="-4.149006027728319">
        <ele>28.02</ele>
        <time>2026-06-23T07:31:24Z</time>
      </trkpt>
      <trkpt lat="50.379534037783742" lon="-4.150518039241433">
        <ele>41.469999999999999</ele>
        <time>2026-06-23T07:31:38Z</time>
      </trkpt>
      <trkpt lat="50.380464009940624" lon="-4.151882026344538">
        <ele>48.200000000000003</ele>
        <time>2026-06-23T07:31:50Z</time>
      </trkpt>
      <trkpt lat="50.38107899017632" lon="-4.152426011860371">
        <ele>47.719999999999999</ele>
        <time>2026-06-23T07:31:58Z</time>
      </trkpt>
      <trkpt lat="50.38215396925807" lon="-4.153095977380872">
        <ele>49.649999999999999</ele>
        <time>2026-06-23T07:32:09Z</time>
      </trkpt>
      <trkpt lat="50.382971037179232" lon="-4.153815982863307">
        <ele>52.049999999999997</ele>
        <time>2026-06-23T07:32:19Z</time>
      </trkpt>
      <trkpt lat="50.383468000218272" lon="-4.154364997521043">
        <ele>49.159999999999997</ele>
        <time>2026-06-23T07:32:30Z</time>
      </trkpt>
      <trkpt lat="50.383609989657998" lon="-4.154532970860601">
        <ele>48.200000000000003</ele>
        <time>2026-06-23T07:32:33Z</time>
      </trkpt>
      <trkpt lat="50.383647037670016" lon="-4.154576975852251">
        <ele>47.719999999999999</ele>
        <time>2026-06-23T07:32:34Z</time>
      </trkpt>
      <trkpt lat="50.383668998256326" lon="-4.154602037742734">
        <ele>47.719999999999999</ele>
        <time>2026-06-23T07:32:35Z</time>
      </trkpt>
      <trkpt lat="50.383668998256326" lon="-4.154602037742734">
        <ele>46.759999999999998</ele>
        <time>2026-06-23T07:32:50Z</time>
      </trkpt>
      <trkpt lat="50.383866978809237" lon="-4.15483103133738">
        <ele>46.759999999999998</ele>
        <time>2026-06-23T07:33:05Z</time>
      </trkpt>
      <trkpt lat="50.384597964584827" lon="-4.155651032924652">
        <ele>48.200000000000003</ele>
        <time>2026-06-23T07:33:13Z</time>
      </trkpt>
      <trkpt lat="50.384839028120041" lon="-4.156079012900591">
        <ele>49.159999999999997</ele>
        <time>2026-06-23T07:33:17Z</time>
      </trkpt>
      <trkpt lat="50.385326016694307" lon="-4.157092971727252">
        <ele>53.009999999999998</ele>
        <time>2026-06-23T07:33:28Z</time>
      </trkpt>
      <trkpt lat="50.385381001979113" lon="-4.157250970602036">
        <ele>53.009999999999998</ele>
        <time>2026-06-23T07:33:30Z</time>
      </trkpt>
      <trkpt lat="50.385436993092299" lon="-4.157374016940594">
        <ele>53.490000000000002</ele>
        <time>2026-06-23T07:33:37Z</time>
      </trkpt>
      <trkpt lat="50.385604966431856" lon="-4.157640980556607">
        <ele>53.490000000000002</ele>
        <time>2026-06-23T07:33:44Z</time>
      </trkpt>
      <trkpt lat="50.386283984407783" lon="-4.158411026000977">
        <ele>52.049999999999997</ele>
        <time>2026-06-23T07:33:53Z</time>
      </trkpt>
      <trkpt lat="50.386357996612787" lon="-4.158533988520503">
        <ele>50.609999999999999</ele>
        <time>2026-06-23T07:33:54Z</time>
      </trkpt>
      <trkpt lat="50.386421028524637" lon="-4.158659968525171">
        <ele>49.159999999999997</ele>
        <time>2026-06-23T07:33:55Z</time>
      </trkpt>
      <trkpt lat="50.386460004374385" lon="-4.158814027905464">
        <ele>48.200000000000003</ele>
        <time>2026-06-23T07:33:56Z</time>
      </trkpt>
      <trkpt lat="50.386498980224133" lon="-4.158971020951867">
        <ele>47.240000000000002</ele>
        <time>2026-06-23T07:33:57Z</time>
      </trkpt>
      <trkpt lat="50.386525969952345" lon="-4.159130025655031">
        <ele>45.799999999999997</ele>
        <time>2026-06-23T07:33:58Z</time>
      </trkpt>
      <trkpt lat="50.386682962998748" lon="-4.160133004188538">
        <ele>39.07</ele>
        <time>2026-06-23T07:34:05Z</time>
      </trkpt>
      <trkpt lat="50.386702995747328" lon="-4.160255966708064">
        <ele>38.109999999999999</ele>
        <time>2026-06-23T07:34:06Z</time>
      </trkpt>
      <trkpt lat="50.386654967442155" lon="-4.160660980269313">
        <ele>34.740000000000002</ele>
        <time>2026-06-23T07:34:09Z</time>
      </trkpt>
      <trkpt lat="50.386691009625793" lon="-4.160771034657955">
        <ele>33.780000000000001</ele>
        <time>2026-06-23T07:34:10Z</time>
      </trkpt>
      <trkpt lat="50.386712970212102" lon="-4.160835994407535">
        <ele>33.299999999999997</ele>
        <time>2026-06-23T07:34:11Z</time>
      </trkpt>
      <trkpt lat="50.386802991852164" lon="-4.160861978307366">
        <ele>33.299999999999997</ele>
        <time>2026-06-23T07:34:12Z</time>
      </trkpt>
      <trkpt lat="50.386898964643478" lon="-4.161007991060615">
        <ele>33.780000000000001</ele>
        <time>2026-06-23T07:34:13Z</time>
      </trkpt>
      <trkpt lat="50.386930983513594" lon="-4.16112600825727">
        <ele>33.780000000000001</ele>
        <time>2026-06-23T07:34:14Z</time>
      </trkpt>
      <trkpt lat="50.386967025697231" lon="-4.16125601157546">
        <ele>34.259999999999998</ele>
        <time>2026-06-23T07:34:15Z</time>
      </trkpt>
      <trkpt lat="50.387006001546979" lon="-4.161396995186806">
        <ele>34.740000000000002</ele>
        <time>2026-06-23T07:34:16Z</time>
      </trkpt>
      <trkpt lat="50.387045983225107" lon="-4.161542002111673">
        <ele>35.229999999999997</ele>
        <time>2026-06-23T07:34:17Z</time>
      </trkpt>
      <trkpt lat="50.387211022898555" lon="-4.162503993138671">
        <ele>36.670000000000002</ele>
        <time>2026-06-23T07:34:23Z</time>
      </trkpt>
      <trkpt lat="50.38722200319171" lon="-4.162668026983738">
        <ele>36.670000000000002</ele>
        <time>2026-06-23T07:34:24Z</time>
      </trkpt>
      <trkpt lat="50.387386959046125" lon="-4.163784999400377">
        <ele>38.109999999999999</ele>
        <time>2026-06-23T07:34:31Z</time>
      </trkpt>
      <trkpt lat="50.387615030631423" lon="-4.164440967142582">
        <ele>39.549999999999997</ele>
        <time>2026-06-23T07:34:36Z</time>
      </trkpt>
      <trkpt lat="50.387947037816048" lon="-4.164939019829035">
        <ele>42.920000000000002</ele>
        <time>2026-06-23T07:34:44Z</time>
      </trkpt>
      <trkpt lat="50.388064971193671" lon="-4.165116967633367">
        <ele>45.32</ele>
        <time>2026-06-23T07:35:04Z</time>
      </trkpt>
      <trkpt lat="50.388771984726191" lon="-4.166161017492414">
        <ele>50.130000000000003</ele>
        <time>2026-06-23T07:35:14Z</time>
      </trkpt>
      <trkpt lat="50.390056008473039" lon="-4.168081982061267">
        <ele>42.439999999999998</ele>
        <time>2026-06-23T07:35:29Z</time>
      </trkpt>
      <trkpt lat="50.390694038942456" lon="-4.169433983042836">
        <ele>35.710000000000001</ele>
        <time>2026-06-23T07:35:38Z</time>
      </trkpt>
      <trkpt lat="50.391428964212537" lon="-4.171562986448407">
        <ele>29.460000000000001</ele>
        <time>2026-06-23T07:35:51Z</time>
      </trkpt>
      <trkpt lat="50.391908995807171" lon="-4.173528039827943">
        <ele>26.57</ele>
        <time>2026-06-23T07:36:03Z</time>
      </trkpt>
      <trkpt lat="50.392105970531702" lon="-4.174114018678665">
        <ele>25.609999999999999</ele>
        <time>2026-06-23T07:36:07Z</time>
      </trkpt>
      <trkpt lat="50.392543002963066" lon="-4.174831006675959">
        <ele>24.170000000000002</ele>
        <time>2026-06-23T07:36:13Z</time>
      </trkpt>
      <trkpt lat="50.392631012946367" lon="-4.174905018880963">
        <ele>24.170000000000002</ele>
        <time>2026-06-23T07:36:14Z</time>
      </trkpt>
      <trkpt lat="50.392733020707965" lon="-4.174965033307672">
        <ele>24.170000000000002</ele>
        <time>2026-06-23T07:36:15Z</time>
      </trkpt>
      <trkpt lat="50.393102997913957" lon="-4.175184974446893">
        <ele>23.210000000000001</ele>
        <time>2026-06-23T07:36:21Z</time>
      </trkpt>
      <trkpt lat="50.393126970157027" lon="-4.175198972225189">
        <ele>22.73</ele>
        <time>2026-06-23T07:36:30Z</time>
      </trkpt>
      <trkpt lat="50.393225038424134" lon="-4.175257980823517">
        <ele>22.25</ele>
        <time>2026-06-23T07:36:40Z</time>
      </trkpt>
      <trkpt lat="50.393289998173714" lon="-4.175296034663916">
        <ele>21.77</ele>
        <time>2026-06-23T07:37:04Z</time>
      </trkpt>
      <trkpt lat="50.393705992028117" lon="-4.175773970782757">
        <ele>20.809999999999999</ele>
        <time>2026-06-23T07:37:12Z</time>
      </trkpt>
      <trkpt lat="50.394509984180331" lon="-4.176910975947976">
        <ele>19.359999999999999</ele>
        <time>2026-06-23T07:37:24Z</time>
      </trkpt>
      <trkpt lat="50.394997978582978" lon="-4.177598962560296">
        <ele>17.440000000000001</ele>
        <time>2026-06-23T07:37:34Z</time>
      </trkpt>
      <trkpt lat="50.395084982737899" lon="-4.177721003070474">
        <ele>17.440000000000001</ele>
        <time>2026-06-23T07:37:42Z</time>
      </trkpt>
      <trkpt lat="50.395084982737899" lon="-4.177721003070474">
        <ele>17.440000000000001</ele>
        <time>2026-06-23T07:38:02Z</time>
      </trkpt>
      <trkpt lat="50.395101998001337" lon="-4.177744975313544">
        <ele>17.440000000000001</ele>
        <time>2026-06-23T07:38:21Z</time>
      </trkpt>
      <trkpt lat="50.395139968022704" lon="-4.17779803276062">
        <ele>18.399999999999999</ele>
        <time>2026-06-23T07:38:22Z</time>
      </trkpt>
      <trkpt lat="50.395469963550568" lon="-4.178268006071448">
        <ele>18.399999999999999</ele>
        <time>2026-06-23T07:38:30Z</time>
      </trkpt>
      <trkpt lat="50.395553028210998" lon="-4.178387029096484">
        <ele>18.879999999999999</ele>
        <time>2026-06-23T07:38:38Z</time>
      </trkpt>
      <trkpt lat="50.395553028210998" lon="-4.178387029096484">
        <ele>18.879999999999999</ele>
        <time>2026-06-23T07:39:19Z</time>
      </trkpt>
      <trkpt lat="50.395670961588621" lon="-4.178538993000984">
        <ele>19.359999999999999</ele>
        <time>2026-06-23T07:39:55Z</time>
      </trkpt>
      <trkpt lat="50.395721001550555" lon="-4.178603030741215">
        <ele>18.879999999999999</ele>
        <time>2026-06-23T07:39:56Z</time>
      </trkpt>
      <trkpt lat="50.395761989057064" lon="-4.178656004369259">
        <ele>19.359999999999999</ele>
        <time>2026-06-23T07:39:57Z</time>
      </trkpt>
      <trkpt lat="50.395854022353888" lon="-4.178774021565914">
        <ele>19.84</ele>
        <time>2026-06-23T07:40:05Z</time>
      </trkpt>
      <trkpt lat="50.395975979045033" lon="-4.178796987980604">
        <ele>20.32</ele>
        <time>2026-06-23T07:40:08Z</time>
      </trkpt>
      <trkpt lat="50.395994000136852" lon="-4.178764969110489">
        <ele>20.32</ele>
        <time>2026-06-23T07:40:09Z</time>
      </trkpt>
      <trkpt lat="50.396015038713813" lon="-4.178728004917502">
        <ele>20.809999999999999</ele>
        <time>2026-06-23T07:40:10Z</time>
      </trkpt>
      <trkpt lat="50.396038005128503" lon="-4.178685005754232">
        <ele>21.289999999999999</ele>
        <time>2026-06-23T07:40:11Z</time>
      </trkpt>
      <trkpt lat="50.396063989028335" lon="-4.178633959963918">
        <ele>21.289999999999999</ele>
        <time>2026-06-23T07:40:12Z</time>
      </trkpt>
      <trkpt lat="50.396101037040353" lon="-4.178560031577945">
        <ele>21.289999999999999</ele>
        <time>2026-06-23T07:40:13Z</time>
      </trkpt>
      <trkpt lat="50.396605962887406" lon="-4.177859975025058">
        <ele>20.809999999999999</ele>
        <time>2026-06-23T07:40:21Z</time>
      </trkpt>
      <trkpt lat="50.39667603559792" lon="-4.177786968648434">
        <ele>20.32</ele>
        <time>2026-06-23T07:40:27Z</time>
      </trkpt>
      <trkpt lat="50.39667603559792" lon="-4.177786968648434">
        <ele>20.32</ele>
        <time>2026-06-23T07:41:02Z</time>
      </trkpt>
      <trkpt lat="50.396829005330801" lon="-4.17762796394527">
        <ele>20.32</ele>
        <time>2026-06-23T07:41:33Z</time>
      </trkpt>
      <trkpt lat="50.397054981440306" lon="-4.177401987835765">
        <ele>20.32</ele>
        <time>2026-06-23T07:41:36Z</time>
      </trkpt>
      <trkpt lat="50.397818991914392" lon="-4.176287027075887">
        <ele>19.359999999999999</ele>
        <time>2026-06-23T07:41:45Z</time>
      </trkpt>
      <trkpt lat="50.398359037935734" lon="-4.175235014408827">
        <ele>19.84</ele>
        <time>2026-06-23T07:41:51Z</time>
      </trkpt>
      <trkpt lat="50.399139979854226" lon="-4.173616971820593">
        <ele>22.25</ele>
        <time>2026-06-23T07:42:00Z</time>
      </trkpt>
      <trkpt lat="50.400183023884892" lon="-4.172380976378918">
        <ele>20.32</ele>
        <time>2026-06-23T07:42:10Z</time>
      </trkpt>
      <trkpt lat="50.401432011276484" lon="-4.171598022803664">
        <ele>16.960000000000001</ele>
        <time>2026-06-23T07:42:20Z</time>
      </trkpt>
      <trkpt lat="50.401566037908196" lon="-4.171512024477124">
        <ele>16.48</ele>
        <time>2026-06-23T07:42:21Z</time>
      </trkpt>
      <trkpt lat="50.401697969064116" lon="-4.171427031978965">
        <ele>16</ele>
        <time>2026-06-23T07:42:22Z</time>
      </trkpt>
      <trkpt lat="50.401834007352591" lon="-4.171338016167283">
        <ele>16</ele>
        <time>2026-06-23T07:42:23Z</time>
      </trkpt>
      <trkpt lat="50.401970967650414" lon="-4.171247994527221">
        <ele>16</ele>
        <time>2026-06-23T07:42:24Z</time>
      </trkpt>
      <trkpt lat="50.402107005938888" lon="-4.17115998454392">
        <ele>15.52</ele>
        <time>2026-06-23T07:42:25Z</time>
      </trkpt>
      <trkpt lat="50.403562020510435" lon="-4.170093974098563">
        <ele>22.73</ele>
        <time>2026-06-23T07:42:36Z</time>
      </trkpt>
      <trkpt lat="50.404771026223898" lon="-4.168895026668906">
        <ele>31.859999999999999</ele>
        <time>2026-06-23T07:42:45Z</time>
      </trkpt>
      <trkpt lat="50.405510980635881" lon="-4.167297016829252">
        <ele>39.549999999999997</ele>
        <time>2026-06-23T07:42:53Z</time>
      </trkpt>
      <trkpt lat="50.406503984704614" lon="-4.164439961314201">
        <ele>48.200000000000003</ele>
        <time>2026-06-23T07:43:06Z</time>
      </trkpt>
      <trkpt lat="50.406715963035822" lon="-4.164106026291847">
        <ele>49.649999999999999</ele>
        <time>2026-06-23T07:43:08Z</time>
      </trkpt>
      <trkpt lat="50.40683900937438" lon="-4.164037965238094">
        <ele>50.130000000000003</ele>
        <time>2026-06-23T07:43:09Z</time>
      </trkpt>
      <trkpt lat="50.406948979943991" lon="-4.164016004651785">
        <ele>50.609999999999999</ele>
        <time>2026-06-23T07:43:10Z</time>
      </trkpt>
      <trkpt lat="50.40707596577704" lon="-4.163990020751953">
        <ele>51.090000000000003</ele>
        <time>2026-06-23T07:43:11Z</time>
      </trkpt>
      <trkpt lat="50.40716196410358" lon="-4.164033019915223">
        <ele>51.57</ele>
        <time>2026-06-23T07:43:12Z</time>
      </trkpt>
      <trkpt lat="50.407219966873527" lon="-4.164124969393015">
        <ele>52.049999999999997</ele>
        <time>2026-06-23T07:43:13Z</time>
      </trkpt>
      <trkpt lat="50.407303031533957" lon="-4.164257990196347">
        <ele>52.530000000000001</ele>
        <time>2026-06-23T07:43:14Z</time>
      </trkpt>
      <trkpt lat="50.407391041517258" lon="-4.164405008777976">
        <ele>53.009999999999998</ele>
        <time>2026-06-23T07:43:15Z</time>
      </trkpt>
      <trkpt lat="50.408133007586002" lon="-4.165883995592594">
        <ele>59.259999999999998</ele>
        <time>2026-06-23T07:43:23Z</time>
      </trkpt>
      <trkpt lat="50.409150989726186" lon="-4.168177032843232">
        <ele>63.579999999999998</ele>
        <time>2026-06-23T07:43:33Z</time>
      </trkpt>
      <trkpt lat="50.410307021811604" lon="-4.171616965904832">
        <ele>68.870000000000005</ele>
        <time>2026-06-23T07:43:46Z</time>
      </trkpt>
      <trkpt lat="50.411391975358129" lon="-4.175648996606469">
        <ele>80.890000000000001</ele>
        <time>2026-06-23T07:44:00Z</time>
      </trkpt>
      <trkpt lat="50.411550980061293" lon="-4.177900040522218">
        <ele>87.140000000000001</ele>
        <time>2026-06-23T07:44:07Z</time>
      </trkpt>
      <trkpt lat="50.411277981474996" lon="-4.180214032530785">
        <ele>93.390000000000001</ele>
        <time>2026-06-23T07:44:14Z</time>
      </trkpt>
      <trkpt lat="50.41044800542295" lon="-4.18271703645587">
        <ele>94.829999999999998</ele>
        <time>2026-06-23T07:44:22Z</time>
      </trkpt>
      <trkpt lat="50.409394986927509" lon="-4.18478099629283">
        <ele>92.420000000000002</ele>
        <time>2026-06-23T07:44:30Z</time>
      </trkpt>
      <trkpt lat="50.408306010067463" lon="-4.187085013836622">
        <ele>87.140000000000001</ele>
        <time>2026-06-23T07:44:40Z</time>
      </trkpt>
      <trkpt lat="50.407735034823418" lon="-4.189075967296958">
        <ele>81.370000000000005</ele>
        <time>2026-06-23T07:44:48Z</time>
      </trkpt>
      <trkpt lat="50.407417025417089" lon="-4.191288035362959">
        <ele>72.719999999999999</ele>
        <time>2026-06-23T07:44:58Z</time>
      </trkpt>
      <trkpt lat="50.407380983233452" lon="-4.193676039576531">
        <ele>64.549999999999997</ele>
        <time>2026-06-23T07:45:11Z</time>
      </trkpt>
      <trkpt lat="50.407462958246469" lon="-4.19582599774003">
        <ele>61.18</ele>
        <time>2026-06-23T07:45:24Z</time>
      </trkpt>
      <trkpt lat="50.407479973509908" lon="-4.196880022063851">
        <ele>59.740000000000002</ele>
        <time>2026-06-23T07:45:31Z</time>
      </trkpt>
      <trkpt lat="50.407451977953315" lon="-4.196970965713263">
        <ele>59.259999999999998</ele>
        <time>2026-06-23T07:45:32Z</time>
      </trkpt>
      <trkpt lat="50.407423982396722" lon="-4.197058975696564">
        <ele>58.780000000000001</ele>
        <time>2026-06-23T07:45:33Z</time>
      </trkpt>
      <trkpt lat="50.407390035688877" lon="-4.197153020650148">
        <ele>58.299999999999997</ele>
        <time>2026-06-23T07:45:34Z</time>
      </trkpt>
      <trkpt lat="50.407335972413421" lon="-4.197225021198392">
        <ele>57.82</ele>
        <time>2026-06-23T07:45:35Z</time>
      </trkpt>
      <trkpt lat="50.407310994341969" lon="-4.197321999818087">
        <ele>57.340000000000003</ele>
        <time>2026-06-23T07:45:36Z</time>
      </trkpt>
      <trkpt lat="50.407288027927279" lon="-4.197412021458149">
        <ele>57.340000000000003</ele>
        <time>2026-06-23T07:45:37Z</time>
      </trkpt>
      <trkpt lat="50.407272018492222" lon="-4.19750296510756">
        <ele>56.859999999999999</ele>
        <time>2026-06-23T07:45:38Z</time>
      </trkpt>
      <trkpt lat="50.407281992956996" lon="-4.197593992576003">
        <ele>56.369999999999997</ele>
        <time>2026-06-23T07:45:39Z</time>
      </trkpt>
      <trkpt lat="50.40735499933362" lon="-4.197743022814393">
        <ele>56.369999999999997</ele>
        <time>2026-06-23T07:45:40Z</time>
      </trkpt>
      <trkpt lat="50.407371008768678" lon="-4.197784010320902">
        <ele>56.369999999999997</ele>
        <time>2026-06-23T07:45:41Z</time>
      </trkpt>
      <trkpt lat="50.407781973481178" lon="-4.199049007147551">
        <ele>53.009999999999998</ele>
        <time>2026-06-23T07:45:50Z</time>
      </trkpt>
      <trkpt lat="50.407798988744617" lon="-4.199214968830347">
        <ele>53.009999999999998</ele>
        <time>2026-06-23T07:45:51Z</time>
      </trkpt>
      <trkpt lat="50.408004010096192" lon="-4.201400969177485">
        <ele>54.450000000000003</ele>
        <time>2026-06-23T07:46:02Z</time>
      </trkpt>
      <trkpt lat="50.408202996477485" lon="-4.203633992001414">
        <ele>56.369999999999997</ele>
        <time>2026-06-23T07:46:14Z</time>
      </trkpt>
      <trkpt lat="50.408430984243751" lon="-4.206141019240022">
        <ele>56.369999999999997</ele>
        <time>2026-06-23T07:46:29Z</time>
      </trkpt>
      <trkpt lat="50.408623013645411" lon="-4.208305981010199">
        <ele>53.969999999999999</ele>
        <time>2026-06-23T07:46:42Z</time>
      </trkpt>
      <trkpt lat="50.409011011943221" lon="-4.210188975557685">
        <ele>53.490000000000002</ele>
        <time>2026-06-23T07:46:52Z</time>
      </trkpt>
      <trkpt lat="50.409530019387603" lon="-4.211664022877812">
        <ele>51.57</ele>
        <time>2026-06-23T07:47:00Z</time>
      </trkpt>
      <trkpt lat="50.410181963816285" lon="-4.212976964190602">
        <ele>48.200000000000003</ele>
        <time>2026-06-23T07:47:09Z</time>
      </trkpt>
      <trkpt lat="50.413626004010439" lon="-4.216847978532314">
        <ele>28.02</ele>
        <time>2026-06-23T07:47:45Z</time>
      </trkpt>
      <trkpt lat="50.414901981130242" lon="-4.218268040567637">
        <ele>27.050000000000001</ele>
        <time>2026-06-23T07:47:58Z</time>
      </trkpt>
      <trkpt lat="50.415815021842718" lon="-4.219653988257051">
        <ele>26.57</ele>
        <time>2026-06-23T07:48:06Z</time>
      </trkpt>
      <trkpt lat="50.416956972330809" lon="-4.222036963328719">
        <ele>36.670000000000002</ele>
        <time>2026-06-23T07:48:16Z</time>
      </trkpt>
      <trkpt lat="50.417788960039616" lon="-4.224811038002372">
        <ele>50.609999999999999</ele>
        <time>2026-06-23T07:48:27Z</time>
      </trkpt>
      <trkpt lat="50.418372005224228" lon="-4.22700198367238">
        <ele>60.700000000000003</ele>
        <time>2026-06-23T07:48:37Z</time>
      </trkpt>
      <trkpt lat="50.418580966070294" lon="-4.227801030501723">
        <ele>65.510000000000005</ele>
        <time>2026-06-23T07:48:43Z</time>
      </trkpt>
      <trkpt lat="50.418635029345751" lon="-4.228037986904383">
        <ele>68.870000000000005</ele>
        <time>2026-06-23T07:48:51Z</time>
      </trkpt>
      <trkpt lat="50.418635029345751" lon="-4.228037986904383">
        <ele>66.950000000000003</ele>
        <time>2026-06-23T07:49:35Z</time>
      </trkpt>
      <trkpt lat="50.418635029345751" lon="-4.228037986904383">
        <ele>67.430000000000007</ele>
        <time>2026-06-23T07:50:19Z</time>
      </trkpt>
      <trkpt lat="50.418635029345751" lon="-4.228037986904383">
        <ele>67.909999999999997</ele>
        <time>2026-06-23T07:51:04Z</time>
      </trkpt>
      <trkpt lat="50.418635029345751" lon="-4.228037986904383">
        <ele>67.909999999999997</ele>
        <time>2026-06-23T07:51:50Z</time>
      </trkpt>
      <trkpt lat="50.418635029345751" lon="-4.228037986904383">
        <ele>67.909999999999997</ele>
        <time>2026-06-23T07:52:36Z</time>
      </trkpt>
      <trkpt lat="50.41869898326695" lon="-4.228333029896021">
        <ele>68.390000000000001</ele>
        <time>2026-06-23T07:53:00Z</time>
      </trkpt>
      <trkpt lat="50.419005006551743" lon="-4.229832971468568">
        <ele>71.760000000000005</ele>
        <time>2026-06-23T07:53:08Z</time>
      </trkpt>
      <trkpt lat="50.419125035405159" lon="-4.231570037081838">
        <ele>78.969999999999999</ele>
        <time>2026-06-23T07:53:16Z</time>
      </trkpt>
      <trkpt lat="50.419039959087968" lon="-4.232877027243376">
        <ele>85.689999999999998</ele>
        <time>2026-06-23T07:53:24Z</time>
      </trkpt>
      <trkpt lat="50.418969970196486" lon="-4.233479015529156">
        <ele>88.579999999999998</ele>
        <time>2026-06-23T07:53:31Z</time>
      </trkpt>
      <trkpt lat="50.418962007388473" lon="-4.233520003035665">
        <ele>89.060000000000002</ele>
        <time>2026-06-23T07:53:32Z</time>
      </trkpt>
      <trkpt lat="50.418943986296654" lon="-4.233566019684076">
        <ele>89.540000000000006</ele>
        <time>2026-06-23T07:53:35Z</time>
      </trkpt>
      <trkpt lat="50.418897969648242" lon="-4.233693005517125">
        <ele>90.019999999999996</ele>
        <time>2026-06-23T07:53:37Z</time>
      </trkpt>
      <trkpt lat="50.418862011283636" lon="-4.2337909899652">
        <ele>90.019999999999996</ele>
        <time>2026-06-23T07:53:38Z</time>
      </trkpt>
      <trkpt lat="50.418727984651923" lon="-4.23404898494482">
        <ele>90.980000000000004</ele>
        <time>2026-06-23T07:53:41Z</time>
      </trkpt>
      <trkpt lat="50.41872002184391" lon="-4.234157027676702">
        <ele>90.5</ele>
        <time>2026-06-23T07:53:42Z</time>
      </trkpt>
      <trkpt lat="50.418713986873627" lon="-4.234233973547816">
        <ele>90.5</ele>
        <time>2026-06-23T07:53:43Z</time>
      </trkpt>
      <trkpt lat="50.418792022392154" lon="-4.23473596572876">
        <ele>90.5</ele>
        <time>2026-06-23T07:53:51Z</time>
      </trkpt>
      <trkpt lat="50.418781964108348" lon="-4.234820958226919">
        <ele>90.5</ele>
        <time>2026-06-23T07:53:52Z</time>
      </trkpt>
      <trkpt lat="50.418766038492322" lon="-4.234948027879">
        <ele>90.019999999999996</ele>
        <time>2026-06-23T07:53:53Z</time>
      </trkpt>
      <trkpt lat="50.418749023228884" lon="-4.235084988176823">
        <ele>89.540000000000006</ele>
        <time>2026-06-23T07:53:54Z</time>
      </trkpt>
      <trkpt lat="50.418729996308684" lon="-4.235237035900354">
        <ele>89.060000000000002</ele>
        <time>2026-06-23T07:53:55Z</time>
      </trkpt>
      <trkpt lat="50.418575014919043" lon="-4.237006036564708">
        <ele>81.370000000000005</ele>
        <time>2026-06-23T07:54:04Z</time>
      </trkpt>
      <trkpt lat="50.418107975274324" lon="-4.239467969164252">
        <ele>69.349999999999994</ele>
        <time>2026-06-23T07:54:16Z</time>
      </trkpt>
      <trkpt lat="50.417471034452319" lon="-4.241206040605903">
        <ele>61.659999999999997</ele>
        <time>2026-06-23T07:54:24Z</time>
      </trkpt>
      <trkpt lat="50.416382979601622" lon="-4.243400003761053">
        <ele>58.299999999999997</ele>
        <time>2026-06-23T07:54:34Z</time>
      </trkpt>
      <trkpt lat="50.415410008281469" lon="-4.245788007974625">
        <ele>57.82</ele>
        <time>2026-06-23T07:54:45Z</time>
      </trkpt>
      <trkpt lat="50.415036007761955" lon="-4.247964033856988">
        <ele>60.219999999999999</ele>
        <time>2026-06-23T07:54:54Z</time>
      </trkpt>
      <trkpt lat="50.415139021351933" lon="-4.25028900615871">
        <ele>70.790000000000006</ele>
        <time>2026-06-23T07:55:03Z</time>
      </trkpt>
      <trkpt lat="50.415596002712846" lon="-4.253468010574579">
        <ele>86.180000000000007</ele>
        <time>2026-06-23T07:55:16Z</time>
      </trkpt>
      <trkpt lat="50.416039992123842" lon="-4.254892012104392">
        <ele>87.140000000000001</ele>
        <time>2026-06-23T07:55:24Z</time>
      </trkpt>
      <trkpt lat="50.416897041723132" lon="-4.25639002583921">
        <ele>87.140000000000001</ele>
        <time>2026-06-23T07:55:35Z</time>
      </trkpt>
      <trkpt lat="50.417634984478354" lon="-4.257623003795743">
        <ele>91.939999999999998</ele>
        <time>2026-06-23T07:55:45Z</time>
      </trkpt>
      <trkpt lat="50.418562022969127" lon="-4.259190000593662">
        <ele>89.060000000000002</ele>
        <time>2026-06-23T07:55:58Z</time>
      </trkpt>
      <trkpt lat="50.419368026778102" lon="-4.260546024888754">
        <ele>83.290000000000006</ele>
        <time>2026-06-23T07:56:09Z</time>
      </trkpt>
      <trkpt lat="50.420454991981387" lon="-4.262198014184833">
        <ele>87.140000000000001</ele>
        <time>2026-06-23T07:56:23Z</time>
      </trkpt>
      <trkpt lat="50.421351017430425" lon="-4.263322027400136">
        <ele>90.5</ele>
        <time>2026-06-23T07:56:34Z</time>
      </trkpt>
      <trkpt lat="50.422203959897161" lon="-4.264129037037492">
        <ele>88.579999999999998</ele>
        <time>2026-06-23T07:56:42Z</time>
      </trkpt>
      <trkpt lat="50.423288997262716" lon="-4.265110976994038">
        <ele>81.370000000000005</ele>
        <time>2026-06-23T07:56:52Z</time>
      </trkpt>
      <trkpt lat="50.424217041581869" lon="-4.266293998807669">
        <ele>69.829999999999998</ele>
        <time>2026-06-23T07:56:59Z</time>
      </trkpt>
      <trkpt lat="50.42430798523128" lon="-4.266494996845722">
        <ele>68.390000000000001</ele>
        <time>2026-06-23T07:57:00Z</time>
      </trkpt>
      <trkpt lat="50.424401024356484" lon="-4.266701024025679">
        <ele>66.469999999999999</ele>
        <time>2026-06-23T07:57:01Z</time>
      </trkpt>
      <trkpt lat="50.42475800961256" lon="-4.268555017188191">
        <ele>54.450000000000003</ele>
        <time>2026-06-23T07:57:09Z</time>
      </trkpt>
      <trkpt lat="50.42488600127399" lon="-4.271262036636472">
        <ele>45.799999999999997</ele>
        <time>2026-06-23T07:57:20Z</time>
      </trkpt>
      <trkpt lat="50.424773013219237" lon="-4.274423019960523">
        <ele>24.649999999999999</ele>
        <time>2026-06-23T07:57:32Z</time>
      </trkpt>
      <trkpt lat="50.424399012699723" lon="-4.276944966986775">
        <ele>16.960000000000001</ele>
        <time>2026-06-23T07:57:41Z</time>
      </trkpt>
      <trkpt lat="50.424289964139462" lon="-4.277995973825455">
        <ele>17.440000000000001</ele>
        <time>2026-06-23T07:57:45Z</time>
      </trkpt>
      <trkpt lat="50.424303961917758" lon="-4.278260003775358">
        <ele>17.920000000000002</ele>
        <time>2026-06-23T07:57:46Z</time>
      </trkpt>
      <trkpt lat="50.424340004101396" lon="-4.278531996533275">
        <ele>18.399999999999999</ele>
        <time>2026-06-23T07:57:47Z</time>
      </trkpt>
      <trkpt lat="50.424375962466002" lon="-4.278803989291191">
        <ele>18.879999999999999</ele>
        <time>2026-06-23T07:57:48Z</time>
      </trkpt>
      <trkpt lat="50.424412004649639" lon="-4.279069025069475">
        <ele>19.84</ele>
        <time>2026-06-23T07:57:49Z</time>
      </trkpt>
      <trkpt lat="50.424498002976179" lon="-4.279292989522219">
        <ele>20.32</ele>
        <time>2026-06-23T07:57:50Z</time>
      </trkpt>
      <trkpt lat="50.424588024616241" lon="-4.279513014480472">
        <ele>21.289999999999999</ele>
        <time>2026-06-23T07:57:51Z</time>
      </trkpt>
      <trkpt lat="50.424673017114401" lon="-4.279719041660428">
        <ele>21.77</ele>
        <time>2026-06-23T07:57:52Z</time>
      </trkpt>
      <trkpt lat="50.425438033416867" lon="-4.28152902983129">
        <ele>32.340000000000003</ele>
        <time>2026-06-23T07:58:01Z</time>
      </trkpt>
      <trkpt lat="50.425562001764774" lon="-4.281967990100384">
        <ele>36.189999999999998</ele>
        <time>2026-06-23T07:58:03Z</time>
      </trkpt>
      <trkpt lat="50.425587985664606" lon="-4.282204024493694">
        <ele>38.109999999999999</ele>
        <time>2026-06-23T07:58:04Z</time>
      </trkpt>
      <trkpt lat="50.425613969564438" lon="-4.282437963411212">
        <ele>40.030000000000001</ele>
        <time>2026-06-23T07:58:05Z</time>
      </trkpt>
      <trkpt lat="50.42563701979816" lon="-4.282651031389833">
        <ele>41.950000000000003</ele>
        <time>2026-06-23T07:58:06Z</time>
      </trkpt>
      <trkpt lat="50.425614975392818" lon="-4.282897040247917">
        <ele>43.399999999999999</ele>
        <time>2026-06-23T07:58:07Z</time>
      </trkpt>
      <trkpt lat="50.42559402063489" lon="-4.283123016357422">
        <ele>45.32</ele>
        <time>2026-06-23T07:58:08Z</time>
      </trkpt>
      <trkpt lat="50.42557398788631" lon="-4.283344969153404">
        <ele>46.759999999999998</ele>
        <time>2026-06-23T07:58:09Z</time>
      </trkpt>
      <trkpt lat="50.425525037571788" lon="-4.283540016040206">
        <ele>48.68</ele>
        <time>2026-06-23T07:58:10Z</time>
      </trkpt>
      <trkpt lat="50.425025979056954" lon="-4.285126961767674">
        <ele>62.619999999999997</ele>
        <time>2026-06-23T07:58:19Z</time>
      </trkpt>
      <trkpt lat="50.424346039071679" lon="-4.28709302097559">
        <ele>78.969999999999999</ele>
        <time>2026-06-23T07:58:30Z</time>
      </trkpt>
      <trkpt lat="50.424065999686718" lon="-4.28788703866303">
        <ele>85.689999999999998</ele>
        <time>2026-06-23T07:58:37Z</time>
      </trkpt>
      <trkpt lat="50.423694010823965" lon="-4.288939973339438">
        <ele>92.420000000000002</ele>
        <time>2026-06-23T07:58:44Z</time>
      </trkpt>
      <trkpt lat="50.42321297340095" lon="-4.29074602201581">
        <ele>103.95999999999999</ele>
        <time>2026-06-23T07:58:56Z</time>
      </trkpt>
      <trkpt lat="50.422519035637379" lon="-4.292017975822091">
        <ele>104.44</ele>
        <time>2026-06-23T07:59:05Z</time>
      </trkpt>
      <trkpt lat="50.421889973804355" lon="-4.293042998760939">
        <ele>99.150000000000006</ele>
        <time>2026-06-23T07:59:13Z</time>
      </trkpt>
      <trkpt lat="50.421012975275517" lon="-4.294505976140499">
        <ele>90.019999999999996</ele>
        <time>2026-06-23T07:59:24Z</time>
      </trkpt>
      <trkpt lat="50.420291963964701" lon="-4.296227032318711">
        <ele>81.849999999999994</ele>
        <time>2026-06-23T07:59:32Z</time>
      </trkpt>
      <trkpt lat="50.419224025681615" lon="-4.300110032781959">
        <ele>63.100000000000001</ele>
        <time>2026-06-23T07:59:47Z</time>
      </trkpt>
      <trkpt lat="50.418489016592503" lon="-4.302326962351799">
        <ele>50.609999999999999</ele>
        <time>2026-06-23T07:59:56Z</time>
      </trkpt>
      <trkpt lat="50.418476024642587" lon="-4.302594009786844">
        <ele>49.159999999999997</ele>
        <time>2026-06-23T07:59:57Z</time>
      </trkpt>
      <trkpt lat="50.4184839874506" lon="-4.30286499671638">
        <ele>47.719999999999999</ele>
        <time>2026-06-23T07:59:58Z</time>
      </trkpt>
      <trkpt lat="50.418492034077644" lon="-4.30312198586762">
        <ele>46.759999999999998</ele>
        <time>2026-06-23T07:59:59Z</time>
      </trkpt>
      <trkpt lat="50.418534027412534" lon="-4.303385009989142">
        <ele>45.799999999999997</ele>
        <time>2026-06-23T08:00:00Z</time>
      </trkpt>
      <trkpt lat="50.418585995212197" lon="-4.303628001362085">
        <ele>44.840000000000003</ele>
        <time>2026-06-23T08:00:01Z</time>
      </trkpt>
      <trkpt lat="50.418659001588821" lon="-4.303864035755396">
        <ele>44.840000000000003</ele>
        <time>2026-06-23T08:00:02Z</time>
      </trkpt>
      <trkpt lat="50.419096034020185" lon="-4.305710988119245">
        <ele>55.890000000000001</ele>
        <time>2026-06-23T08:00:10Z</time>
      </trkpt>
      <trkpt lat="50.419065020978451" lon="-4.308293033391237">
        <ele>66.469999999999999</ele>
        <time>2026-06-23T08:00:20Z</time>
      </trkpt>
      <trkpt lat="50.418936023488641" lon="-4.30937203578651">
        <ele>65.030000000000001</ele>
        <time>2026-06-23T08:00:24Z</time>
      </trkpt>
      <trkpt lat="50.418854970484972" lon="-4.309619972482324">
        <ele>64.549999999999997</ele>
        <time>2026-06-23T08:00:25Z</time>
      </trkpt>
      <trkpt lat="50.418770983815193" lon="-4.309880984947085">
        <ele>64.549999999999997</ele>
        <time>2026-06-23T08:00:26Z</time>
      </trkpt>
      <trkpt lat="50.41865598410368" lon="-4.310077959671617">
        <ele>64.069999999999993</ele>
        <time>2026-06-23T08:00:27Z</time>
      </trkpt>
      <trkpt lat="50.418536961078644" lon="-4.310283986851573">
        <ele>63.579999999999998</ele>
        <time>2026-06-23T08:00:28Z</time>
      </trkpt>
      <trkpt lat="50.417271964251995" lon="-4.31246998719871">
        <ele>59.259999999999998</ele>
        <time>2026-06-23T08:00:39Z</time>
      </trkpt>
      <trkpt lat="50.416675005108118" lon="-4.314174028113484">
        <ele>53.009999999999998</ele>
        <time>2026-06-23T08:00:47Z</time>
      </trkpt>
      <trkpt lat="50.415937984362245" lon="-4.315910004079342">
        <ele>39.07</ele>
        <time>2026-06-23T08:00:55Z</time>
      </trkpt>
      <trkpt lat="50.415877969935536" lon="-4.3162040412426">
        <ele>37.149999999999999</ele>
        <time>2026-06-23T08:00:56Z</time>
      </trkpt>
      <trkpt lat="50.415822984650731" lon="-4.316476034000516">
        <ele>35.229999999999997</ele>
        <time>2026-06-23T08:00:57Z</time>
      </trkpt>
      <trkpt lat="50.415767999365926" lon="-4.316746015101671">
        <ele>32.82</ele>
        <time>2026-06-23T08:00:58Z</time>
      </trkpt>
      <trkpt lat="50.41575601324439" lon="-4.317017002031207">
        <ele>29.940000000000001</ele>
        <time>2026-06-23T08:00:59Z</time>
      </trkpt>
      <trkpt lat="50.41577504016459" lon="-4.317297041416168">
        <ele>28.02</ele>
        <time>2026-06-23T08:01:00Z</time>
      </trkpt>
      <trkpt lat="50.415793983265758" lon="-4.317571967840195">
        <ele>25.609999999999999</ele>
        <time>2026-06-23T08:01:01Z</time>
      </trkpt>
      <trkpt lat="50.415919041261077" lon="-4.318342013284564">
        <ele>20.809999999999999</ele>
        <time>2026-06-23T08:01:04Z</time>
      </trkpt>
      <trkpt lat="50.416217017918825" lon="-4.320191983133555">
        <ele>16.960000000000001</ele>
        <time>2026-06-23T08:01:11Z</time>
      </trkpt>
      <trkpt lat="50.416217017918825" lon="-4.320460958406329">
        <ele>16.48</ele>
        <time>2026-06-23T08:01:12Z</time>
      </trkpt>
      <trkpt lat="50.416217017918825" lon="-4.320731023326516">
        <ele>15.52</ele>
        <time>2026-06-23T08:01:13Z</time>
      </trkpt>
      <trkpt lat="50.416197990998626" lon="-4.32099899277091">
        <ele>15.039999999999999</ele>
        <time>2026-06-23T08:01:14Z</time>
      </trkpt>
      <trkpt lat="50.416151974350214" lon="-4.321253970265389">
        <ele>14.08</ele>
        <time>2026-06-23T08:01:15Z</time>
      </trkpt>
      <trkpt lat="50.416109981015325" lon="-4.321488998830319">
        <ele>13.6</ele>
        <time>2026-06-23T08:01:16Z</time>
      </trkpt>
      <trkpt lat="50.416000010445714" lon="-4.321721009910107">
        <ele>13.119999999999999</ele>
        <time>2026-06-23T08:01:17Z</time>
      </trkpt>
      <trkpt lat="50.4159040376544" lon="-4.32192100211978">
        <ele>12.630000000000001</ele>
        <time>2026-06-23T08:01:18Z</time>
      </trkpt>
      <trkpt lat="50.415813010185957" lon="-4.32211303152144">
        <ele>12.630000000000001</ele>
        <time>2026-06-23T08:01:19Z</time>
      </trkpt>
      <trkpt lat="50.415726006031036" lon="-4.322293996810913">
        <ele>12.15</ele>
        <time>2026-06-23T08:01:20Z</time>
      </trkpt>
      <trkpt lat="50.415154024958611" lon="-4.323402000591159">
        <ele>13.6</ele>
        <time>2026-06-23T08:01:28Z</time>
      </trkpt>
      <trkpt lat="50.414739958941936" lon="-4.324252009391785">
        <ele>16</ele>
        <time>2026-06-23T08:01:36Z</time>
      </trkpt>
      <trkpt lat="50.414708023890853" lon="-4.324352005496621">
        <ele>16</ele>
        <time>2026-06-23T08:01:37Z</time>
      </trkpt>
      <trkpt lat="50.414382973685861" lon="-4.325380967929959">
        <ele>19.359999999999999</ele>
        <time>2026-06-23T08:01:47Z</time>
      </trkpt>
      <trkpt lat="50.414090026170015" lon="-4.326329967007041">
        <ele>23.690000000000001</ele>
        <time>2026-06-23T08:01:57Z</time>
      </trkpt>
      <trkpt lat="50.413827002048492" lon="-4.327515000477433">
        <ele>28.02</ele>
        <time>2026-06-23T08:02:06Z</time>
      </trkpt>
      <trkpt lat="50.413602031767368" lon="-4.329171013087034">
        <ele>23.690000000000001</ele>
        <time>2026-06-23T08:02:15Z</time>
      </trkpt>
      <trkpt lat="50.413297014310956" lon="-4.331351984292269">
        <ele>17.920000000000002</ele>
        <time>2026-06-23T08:02:24Z</time>
      </trkpt>
      <trkpt lat="50.412779012694955" lon="-4.332814961671829">
        <ele>18.399999999999999</ele>
        <time>2026-06-23T08:02:31Z</time>
      </trkpt>
      <trkpt lat="50.412044003605843" lon="-4.334784960374236">
        <ele>28.98</ele>
        <time>2026-06-23T08:02:40Z</time>
      </trkpt>
      <trkpt lat="50.411925986409187" lon="-4.335293993353844">
        <ele>32.340000000000003</ele>
        <time>2026-06-23T08:02:42Z</time>
      </trkpt>
      <trkpt lat="50.411599008366466" lon="-4.337723990902305">
        <ele>49.159999999999997</ele>
        <time>2026-06-23T08:02:51Z</time>
      </trkpt>
      <trkpt lat="50.410992996767163" lon="-4.339530039578676">
        <ele>55.890000000000001</ele>
        <time>2026-06-23T08:02:58Z</time>
      </trkpt>
      <trkpt lat="50.410462003201246" lon="-4.341375986114144">
        <ele>61.18</ele>
        <time>2026-06-23T08:03:05Z</time>
      </trkpt>
      <trkpt lat="50.409705033525825" lon="-4.344400009140372">
        <ele>69.349999999999994</ele>
        <time>2026-06-23T08:03:18Z</time>
      </trkpt>
      <trkpt lat="50.40892300195992" lon="-4.346820032224059">
        <ele>71.269999999999996</ele>
        <time>2026-06-23T08:03:29Z</time>
      </trkpt>
      <trkpt lat="50.408061007037759" lon="-4.34903796762228">
        <ele>76.560000000000002</ele>
        <time>2026-06-23T08:03:40Z</time>
      </trkpt>
      <trkpt lat="50.407505035400391" lon="-4.350195005536079">
        <ele>87.140000000000001</ele>
        <time>2026-06-23T08:03:48Z</time>
      </trkpt>
      <trkpt lat="50.407066997140646" lon="-4.350962033495307">
        <ele>95.790000000000006</ele>
        <time>2026-06-23T08:03:55Z</time>
      </trkpt>
      <trkpt lat="50.407012011855841" lon="-4.351058006286621">
        <ele>96.269999999999996</ele>
        <time>2026-06-23T08:03:56Z</time>
      </trkpt>
      <trkpt lat="50.406961971893907" lon="-4.351058006286621">
        <ele>96.269999999999996</ele>
        <time>2026-06-23T08:03:57Z</time>
      </trkpt>
      <trkpt lat="50.406887037679553" lon="-4.351030010730028">
        <ele>96.269999999999996</ele>
        <time>2026-06-23T08:03:58Z</time>
      </trkpt>
      <trkpt lat="50.406801961362362" lon="-4.3509900290519">
        <ele>96.75</ele>
        <time>2026-06-23T08:03:59Z</time>
      </trkpt>
      <trkpt lat="50.406708000227809" lon="-4.350946024060249">
        <ele>96.75</ele>
        <time>2026-06-23T08:04:00Z</time>
      </trkpt>
      <trkpt lat="50.406605992466211" lon="-4.350874023512006">
        <ele>96.269999999999996</ele>
        <time>2026-06-23T08:04:01Z</time>
      </trkpt>
      <trkpt lat="50.406528962776065" lon="-4.350747037678957">
        <ele>96.269999999999996</ele>
        <time>2026-06-23T08:04:02Z</time>
      </trkpt>
      <trkpt lat="50.406453022733331" lon="-4.350598007440567">
        <ele>95.790000000000006</ele>
        <time>2026-06-23T08:04:03Z</time>
      </trkpt>
      <trkpt lat="50.405607037246227" lon="-4.348966972902417">
        <ele>91.459999999999994</ele>
        <time>2026-06-23T08:04:12Z</time>
      </trkpt>
      <trkpt lat="50.404345979914069" lon="-4.347429983317852">
        <ele>83.769999999999996</ele>
        <time>2026-06-23T08:04:22Z</time>
      </trkpt>
      <trkpt lat="50.403869971632957" lon="-4.347166959196329">
        <ele>80.890000000000001</ele>
        <time>2026-06-23T08:04:25Z</time>
      </trkpt>
      <trkpt lat="50.403704009950161" lon="-4.34712496586144">
        <ele>80.409999999999997</ele>
        <time>2026-06-23T08:04:26Z</time>
      </trkpt>
      <trkpt lat="50.403538970276713" lon="-4.347083978354931">
        <ele>79.450000000000003</ele>
        <time>2026-06-23T08:04:27Z</time>
      </trkpt>
      <trkpt lat="50.403367979452014" lon="-4.347084984183312">
        <ele>78</ele>
        <time>2026-06-23T08:04:28Z</time>
      </trkpt>
      <trkpt lat="50.403191959485412" lon="-4.347114991396666">
        <ele>77.040000000000006</ele>
        <time>2026-06-23T08:04:29Z</time>
      </trkpt>
      <trkpt lat="50.403005965054035" lon="-4.347147010266781">
        <ele>76.079999999999998</ele>
        <time>2026-06-23T08:04:30Z</time>
      </trkpt>
      <trkpt lat="50.402818964794278" lon="-4.347184980288148">
        <ele>74.640000000000001</ele>
        <time>2026-06-23T08:04:31Z</time>
      </trkpt>
      <trkpt lat="50.401369985193014" lon="-4.347687978297472">
        <ele>67.430000000000007</ele>
        <time>2026-06-23T08:04:39Z</time>
      </trkpt>
      <trkpt lat="50.40017799474299" lon="-4.348507979884744">
        <ele>61.18</ele>
        <time>2026-06-23T08:04:46Z</time>
      </trkpt>
      <trkpt lat="50.398684004321694" lon="-4.349309960380197">
        <ele>56.369999999999997</ele>
        <time>2026-06-23T08:04:55Z</time>
      </trkpt>
      <trkpt lat="50.398519970476627" lon="-4.349338039755821">
        <ele>55.409999999999997</ele>
        <time>2026-06-23T08:04:56Z</time>
      </trkpt>
      <trkpt lat="50.398359959945083" lon="-4.349324963986874">
        <ele>54.450000000000003</ele>
        <time>2026-06-23T08:04:57Z</time>
      </trkpt>
      <trkpt lat="50.398209001868963" lon="-4.349265033379197">
        <ele>53.969999999999999</ele>
        <time>2026-06-23T08:04:58Z</time>
      </trkpt>
      <trkpt lat="50.398063994944096" lon="-4.349160008132458">
        <ele>53.009999999999998</ele>
        <time>2026-06-23T08:04:59Z</time>
      </trkpt>
      <trkpt lat="50.397946983575821" lon="-4.348993040621281">
        <ele>52.530000000000001</ele>
        <time>2026-06-23T08:05:00Z</time>
      </trkpt>
      <trkpt lat="50.397853022441268" lon="-4.348788019269705">
        <ele>52.530000000000001</ele>
        <time>2026-06-23T08:05:01Z</time>
      </trkpt>
      <trkpt lat="50.397755037993193" lon="-4.34856497682631">
        <ele>52.530000000000001</ele>
        <time>2026-06-23T08:05:02Z</time>
      </trkpt>
      <trkpt lat="50.397653030231595" lon="-4.348332965746522">
        <ele>52.530000000000001</ele>
        <time>2026-06-23T08:05:03Z</time>
      </trkpt>
      <trkpt lat="50.396973006427288" lon="-4.347132006660104">
        <ele>52.530000000000001</ele>
        <time>2026-06-23T08:05:09Z</time>
      </trkpt>
      <trkpt lat="50.396849038079381" lon="-4.346994962543249">
        <ele>52.049999999999997</ele>
        <time>2026-06-23T08:05:10Z</time>
      </trkpt>
      <trkpt lat="50.396726997569203" lon="-4.346908964216709">
        <ele>51.57</ele>
        <time>2026-06-23T08:05:11Z</time>
      </trkpt>
      <trkpt lat="50.396615015342832" lon="-4.346863031387329">
        <ele>50.609999999999999</ele>
        <time>2026-06-23T08:05:12Z</time>
      </trkpt>
      <trkpt lat="50.396517030894756" lon="-4.346821960061789">
        <ele>49.649999999999999</ele>
        <time>2026-06-23T08:05:13Z</time>
      </trkpt>
      <trkpt lat="50.396414017304778" lon="-4.346788013353944">
        <ele>48.68</ele>
        <time>2026-06-23T08:05:14Z</time>
      </trkpt>
      <trkpt lat="50.396285019814968" lon="-4.346788013353944">
        <ele>47.240000000000002</ele>
        <time>2026-06-23T08:05:15Z</time>
      </trkpt>
      <trkpt lat="50.3961400128901" lon="-4.346788013353944">
        <ele>46.280000000000001</ele>
        <time>2026-06-23T08:05:16Z</time>
      </trkpt>
      <trkpt lat="50.395983019843698" lon="-4.346812991425395">
        <ele>44.840000000000003</ele>
        <time>2026-06-23T08:05:17Z</time>
      </trkpt>
      <trkpt lat="50.395366027951241" lon="-4.346917010843754">
        <ele>38.109999999999999</ele>
        <time>2026-06-23T08:05:21Z</time>
      </trkpt>
      <trkpt lat="50.395224960520864" lon="-4.346880968660116">
        <ele>36.670000000000002</ele>
        <time>2026-06-23T08:05:22Z</time>
      </trkpt>
      <trkpt lat="50.395079031586647" lon="-4.346841992810369">
        <ele>34.740000000000002</ele>
        <time>2026-06-23T08:05:23Z</time>
      </trkpt>
      <trkpt lat="50.394927989691496" lon="-4.34678097255528">
        <ele>33.299999999999997</ele>
        <time>2026-06-23T08:05:24Z</time>
      </trkpt>
      <trkpt lat="50.394804021343589" lon="-4.346640994772315">
        <ele>32.340000000000003</ele>
        <time>2026-06-23T08:05:25Z</time>
      </trkpt>
      <trkpt lat="50.394676029682159" lon="-4.346494982019067">
        <ele>31.379999999999999</ele>
        <time>2026-06-23T08:05:26Z</time>
      </trkpt>
      <trkpt lat="50.394547032192349" lon="-4.346347963437438">
        <ele>30.420000000000002</ele>
        <time>2026-06-23T08:05:27Z</time>
      </trkpt>
      <trkpt lat="50.394422980025411" lon="-4.346182001754642">
        <ele>29.460000000000001</ele>
        <time>2026-06-23T08:05:28Z</time>
      </trkpt>
      <trkpt lat="50.394304962828755" lon="-4.345995001494885">
        <ele>28.5</ele>
        <time>2026-06-23T08:05:29Z</time>
      </trkpt>
      <trkpt lat="50.394179988652468" lon="-4.345799032598734">
        <ele>27.530000000000001</ele>
        <time>2026-06-23T08:05:30Z</time>
      </trkpt>
      <trkpt lat="50.394059037789702" lon="-4.345609014853835">
        <ele>27.050000000000001</ele>
        <time>2026-06-23T08:05:31Z</time>
      </trkpt>
      <trkpt lat="50.393824009224772" lon="-4.345272984355688">
        <ele>25.609999999999999</ele>
        <time>2026-06-23T08:05:33Z</time>
      </trkpt>
      <trkpt lat="50.392714999616146" lon="-4.344376958906651">
        <ele>17.440000000000001</ele>
        <time>2026-06-23T08:05:41Z</time>
      </trkpt>
      <trkpt lat="50.39186398498714" lon="-4.343618983402848">
        <ele>14.08</ele>
        <time>2026-06-23T08:05:48Z</time>
      </trkpt>
      <trkpt lat="50.391775975003839" lon="-4.343491997569799">
        <ele>13.6</ele>
        <time>2026-06-23T08:05:49Z</time>
      </trkpt>
      <trkpt lat="50.391709003597498" lon="-4.343359982594848">
        <ele>13.119999999999999</ele>
        <time>2026-06-23T08:05:50Z</time>
      </trkpt>
      <trkpt lat="50.391658963635564" lon="-4.343252023681998">
        <ele>12.630000000000001</ele>
        <time>2026-06-23T08:05:51Z</time>
      </trkpt>
      <trkpt lat="50.391617976129055" lon="-4.343162002041936">
        <ele>12.15</ele>
        <time>2026-06-23T08:05:52Z</time>
      </trkpt>
      <trkpt lat="50.391591992229223" lon="-4.343103999271989">
        <ele>10.710000000000001</ele>
        <time>2026-06-23T08:05:58Z</time>
      </trkpt>
      <trkpt lat="50.391552010551095" lon="-4.343016995117068">
        <ele>11.19</ele>
        <time>2026-06-23T08:06:05Z</time>
      </trkpt>
      <trkpt lat="50.391528038308024" lon="-4.342965027317405">
        <ele>11.19</ele>
        <time>2026-06-23T08:06:06Z</time>
      </trkpt>
      <trkpt lat="50.391483027487993" lon="-4.342995034530759">
        <ele>12.15</ele>
        <time>2026-06-23T08:06:07Z</time>
      </trkpt>
      <trkpt lat="50.391437010839581" lon="-4.343054965138435">
        <ele>12.630000000000001</ele>
        <time>2026-06-23T08:06:08Z</time>
      </trkpt>
      <trkpt lat="50.391379008069634" lon="-4.343130989000201">
        <ele>13.119999999999999</ele>
        <time>2026-06-23T08:06:09Z</time>
      </trkpt>
      <trkpt lat="50.391313964501023" lon="-4.343215981498361">
        <ele>13.6</ele>
        <time>2026-06-23T08:06:10Z</time>
      </trkpt>
      <trkpt lat="50.391028979793191" lon="-4.343763990327716">
        <ele>15.52</ele>
        <time>2026-06-23T08:06:14Z</time>
      </trkpt>
      <trkpt lat="50.390421962365508" lon="-4.344681976363063">
        <ele>17.920000000000002</ele>
        <time>2026-06-23T08:06:20Z</time>
      </trkpt>
      <trkpt lat="50.390022983774543" lon="-4.34523300267756">
        <ele>21.289999999999999</ele>
        <time>2026-06-23T08:06:24Z</time>
      </trkpt>
      <trkpt lat="50.389653006568551" lon="-4.345771037042141">
        <ele>21.289999999999999</ele>
        <time>2026-06-23T08:06:28Z</time>
      </trkpt>
      <trkpt lat="50.389572037383914" lon="-4.345948984846473">
        <ele>21.77</ele>
        <time>2026-06-23T08:06:29Z</time>
      </trkpt>
      <trkpt lat="50.389502970501781" lon="-4.346101032570005">
        <ele>22.25</ele>
        <time>2026-06-23T08:06:30Z</time>
      </trkpt>
      <trkpt lat="50.389459971338511" lon="-4.346341006457806">
        <ele>22.73</ele>
        <time>2026-06-23T08:06:31Z</time>
      </trkpt>
      <trkpt lat="50.389430969953537" lon="-4.346554996445775">
        <ele>23.690000000000001</ele>
        <time>2026-06-23T08:06:32Z</time>
      </trkpt>
      <trkpt lat="50.389411021023989" lon="-4.34678097255528">
        <ele>24.170000000000002</ele>
        <time>2026-06-23T08:06:33Z</time>
      </trkpt>
      <trkpt lat="50.389398029074073" lon="-4.3474689591676">
        <ele>27.050000000000001</ele>
        <time>2026-06-23T08:06:36Z</time>
      </trkpt>
      <trkpt lat="50.389420995488763" lon="-4.347710022702813">
        <ele>28.02</ele>
        <time>2026-06-23T08:06:37Z</time>
      </trkpt>
      <trkpt lat="50.389830032363534" lon="-4.350342024117708">
        <ele>40.509999999999998</ele>
        <time>2026-06-23T08:06:47Z</time>
      </trkpt>
      <trkpt lat="50.389878982678056" lon="-4.350880980491638">
        <ele>43.399999999999999</ele>
        <time>2026-06-23T08:06:49Z</time>
      </trkpt>
      <trkpt lat="50.389891974627972" lon="-4.353630999103189">
        <ele>59.740000000000002</ele>
        <time>2026-06-23T08:06:59Z</time>
      </trkpt>
      <trkpt lat="50.389927010983229" lon="-4.353899974375963">
        <ele>61.659999999999997</ele>
        <time>2026-06-23T08:07:00Z</time>
      </trkpt>
      <trkpt lat="50.390001023188233" lon="-4.354141037911177">
        <ele>63.100000000000001</ele>
        <time>2026-06-23T08:07:01Z</time>
      </trkpt>
      <trkpt lat="50.390084004029632" lon="-4.354388974606991">
        <ele>64.549999999999997</ele>
        <time>2026-06-23T08:07:02Z</time>
      </trkpt>
      <trkpt lat="50.390172014012933" lon="-4.35462299734354">
        <ele>65.510000000000005</ele>
        <time>2026-06-23T08:07:03Z</time>
      </trkpt>
      <trkpt lat="50.390281984582543" lon="-4.354816032573581">
        <ele>67.430000000000007</ele>
        <time>2026-06-23T08:07:04Z</time>
      </trkpt>
      <trkpt lat="50.390378041192889" lon="-4.35498702339828">
        <ele>68.870000000000005</ele>
        <time>2026-06-23T08:07:05Z</time>
      </trkpt>
      <trkpt lat="50.390469990670681" lon="-4.355106968432665">
        <ele>70.310000000000002</ele>
        <time>2026-06-23T08:07:06Z</time>
      </trkpt>
      <trkpt lat="50.390581972897053" lon="-4.355199001729488">
        <ele>72.239999999999995</ele>
        <time>2026-06-23T08:07:07Z</time>
      </trkpt>
      <trkpt lat="50.390698984265327" lon="-4.355283994227648">
        <ele>73.680000000000007</ele>
        <time>2026-06-23T08:07:08Z</time>
      </trkpt>
      <trkpt lat="50.390839967876673" lon="-4.355357000604272">
        <ele>75.120000000000005</ele>
        <time>2026-06-23T08:07:09Z</time>
      </trkpt>
      <trkpt lat="50.391289992257953" lon="-4.355559004470706">
        <ele>79.450000000000003</ele>
        <time>2026-06-23T08:07:12Z</time>
      </trkpt>
      <trkpt lat="50.392129020765424" lon="-4.355925964191556">
        <ele>88.579999999999998</ele>
        <time>2026-06-23T08:07:18Z</time>
      </trkpt>
      <trkpt lat="50.392221976071596" lon="-4.356026966124773">
        <ele>90.019999999999996</ele>
        <time>2026-06-23T08:07:19Z</time>
      </trkpt>
      <trkpt lat="50.392296994104981" lon="-4.356166021898389">
        <ele>90.980000000000004</ele>
        <time>2026-06-23T08:07:20Z</time>
      </trkpt>
      <trkpt lat="50.392352985218167" lon="-4.356353022158146">
        <ele>91.939999999999998</ele>
        <time>2026-06-23T08:07:21Z</time>
      </trkpt>
      <trkpt lat="50.392399001866579" lon="-4.356508003547788">
        <ele>92.420000000000002</ele>
        <time>2026-06-23T08:07:22Z</time>
      </trkpt>
      <trkpt lat="50.392406964674592" lon="-4.356736997142434">
        <ele>92.900000000000006</ele>
        <time>2026-06-23T08:07:23Z</time>
      </trkpt>
      <trkpt lat="50.392416017130017" lon="-4.356975965201855">
        <ele>93.390000000000001</ele>
        <time>2026-06-23T08:07:24Z</time>
      </trkpt>
      <trkpt lat="50.392383998259902" lon="-4.359174035489559">
        <ele>103.48</ele>
        <time>2026-06-23T08:07:33Z</time>
      </trkpt>
      <trkpt lat="50.392350973561406" lon="-4.359388025477529">
        <ele>104.44</ele>
        <time>2026-06-23T08:07:34Z</time>
      </trkpt>
      <trkpt lat="50.392305040732026" lon="-4.359594974666834">
        <ele>104.92</ele>
        <time>2026-06-23T08:07:35Z</time>
      </trkpt>
      <trkpt lat="50.391615964472294" lon="-4.361695982515812">
        <ele>112.13</ele>
        <time>2026-06-23T08:07:45Z</time>
      </trkpt>
      <trkpt lat="50.391446985304356" lon="-4.362260000780225">
        <ele>114.53</ele>
        <time>2026-06-23T08:07:50Z</time>
      </trkpt>
      <trkpt lat="50.391429970040917" lon="-4.362342981621623">
        <ele>115.01000000000001</ele>
        <time>2026-06-23T08:07:52Z</time>
      </trkpt>
      <trkpt lat="50.391409015282989" lon="-4.362449012696743">
        <ele>115.5</ele>
        <time>2026-06-23T08:07:54Z</time>
      </trkpt>
      <trkpt lat="50.39139099419117" lon="-4.362538028508425">
        <ele>115.98</ele>
        <time>2026-06-23T08:07:55Z</time>
      </trkpt>
      <trkpt lat="50.391413038596511" lon="-4.362663002684712">
        <ele>115.98</ele>
        <time>2026-06-23T08:07:56Z</time>
      </trkpt>
      <trkpt lat="50.391440028324723" lon="-4.362815972417593">
        <ele>115.98</ele>
        <time>2026-06-23T08:07:57Z</time>
      </trkpt>
      <trkpt lat="50.391485039144754" lon="-4.362987969070673">
        <ele>115.5</ele>
        <time>2026-06-23T08:07:58Z</time>
      </trkpt>
      <trkpt lat="50.391551004722714" lon="-4.363173963502049">
        <ele>115.01000000000001</ele>
        <time>2026-06-23T08:07:59Z</time>
      </trkpt>
      <trkpt lat="50.391621999442577" lon="-4.363374961540103">
        <ele>114.05</ele>
        <time>2026-06-23T08:08:00Z</time>
      </trkpt>
      <trkpt lat="50.392333036288619" lon="-4.365461971610785">
        <ele>101.56</ele>
        <time>2026-06-23T08:08:09Z</time>
      </trkpt>
      <trkpt lat="50.393095035105944" lon="-4.367894986644387">
        <ele>89.540000000000006</ele>
        <time>2026-06-23T08:08:19Z</time>
      </trkpt>
      <trkpt lat="50.393339032307267" lon="-4.369185967370868">
        <ele>83.769999999999996</ele>
        <time>2026-06-23T08:08:24Z</time>
      </trkpt>
      <trkpt lat="50.393320005387068" lon="-4.36942501924932">
        <ele>82.329999999999998</ele>
        <time>2026-06-23T08:08:25Z</time>
      </trkpt>
      <trkpt lat="50.393292009830475" lon="-4.369656024500728">
        <ele>80.890000000000001</ele>
        <time>2026-06-23T08:08:26Z</time>
      </trkpt>
      <trkpt lat="50.392919015139341" lon="-4.371409015730023">
        <ele>71.760000000000005</ele>
        <time>2026-06-23T08:08:33Z</time>
      </trkpt>
      <trkpt lat="50.39231400936842" lon="-4.373716972768307">
        <ele>60.219999999999999</ele>
        <time>2026-06-23T08:08:42Z</time>
      </trkpt>
      <trkpt lat="50.391974039375782" lon="-4.375718990340829">
        <ele>53.969999999999999</ele>
        <time>2026-06-23T08:08:50Z</time>
      </trkpt>
      <trkpt lat="50.391905978322029" lon="-4.376120986416936">
        <ele>52.530000000000001</ele>
        <time>2026-06-23T08:08:52Z</time>
      </trkpt>
      <trkpt lat="50.391902960836887" lon="-4.376358026638627">
        <ele>52.049999999999997</ele>
        <time>2026-06-23T08:08:53Z</time>
      </trkpt>
      <trkpt lat="50.391901032999158" lon="-4.376555001363158">
        <ele>51.57</ele>
        <time>2026-06-23T08:08:54Z</time>
      </trkpt>
      <trkpt lat="50.391899021342397" lon="-4.376760022714734">
        <ele>51.57</ele>
        <time>2026-06-23T08:08:55Z</time>
      </trkpt>
      <trkpt lat="50.391897009685636" lon="-4.376981975510716">
        <ele>51.090000000000003</ele>
        <time>2026-06-23T08:08:56Z</time>
      </trkpt>
      <trkpt lat="50.391912013292313" lon="-4.378650980070233">
        <ele>46.280000000000001</ele>
        <time>2026-06-23T08:09:03Z</time>
      </trkpt>
      <trkpt lat="50.391923999413848" lon="-4.378850972279906">
        <ele>45.799999999999997</ele>
        <time>2026-06-23T08:09:04Z</time>
      </trkpt>
      <trkpt lat="50.391955012455583" lon="-4.379027998074889">
        <ele>44.840000000000003</ele>
        <time>2026-06-23T08:09:05Z</time>
      </trkpt>
      <trkpt lat="50.392126003280282" lon="-4.379798965528607">
        <ele>40.509999999999998</ele>
        <time>2026-06-23T08:09:10Z</time>
      </trkpt>
      <trkpt lat="50.392156010493636" lon="-4.380244966596365">
        <ele>37.149999999999999</ele>
        <time>2026-06-23T08:09:13Z</time>
      </trkpt>
      <trkpt lat="50.392138995230198" lon="-4.38040598295629">
        <ele>36.189999999999998</ele>
        <time>2026-06-23T08:09:14Z</time>
      </trkpt>
      <trkpt lat="50.39212197996676" lon="-4.38057404011488">
        <ele>35.229999999999997</ele>
        <time>2026-06-23T08:09:15Z</time>
      </trkpt>
      <trkpt lat="50.392103958874941" lon="-4.380743019282818">
        <ele>33.780000000000001</ele>
        <time>2026-06-23T08:09:16Z</time>
      </trkpt>
      <trkpt lat="50.392086021602154" lon="-4.380910992622376">
        <ele>32.340000000000003</ele>
        <time>2026-06-23T08:09:17Z</time>
      </trkpt>
      <trkpt lat="50.392001029103994" lon="-4.381578024476767">
        <ele>26.57</ele>
        <time>2026-06-23T08:09:21Z</time>
      </trkpt>
      <trkpt lat="50.39190798997879" lon="-4.382934970781207">
        <ele>24.170000000000002</ele>
        <time>2026-06-23T08:09:29Z</time>
      </trkpt>
      <trkpt lat="50.391896003857255" lon="-4.383109984919429">
        <ele>24.170000000000002</ele>
        <time>2026-06-23T08:09:30Z</time>
      </trkpt>
      <trkpt lat="50.39188401773572" lon="-4.383265972137451">
        <ele>24.649999999999999</ele>
        <time>2026-06-23T08:09:31Z</time>
      </trkpt>
      <trkpt lat="50.39188401773572" lon="-4.383470993489027">
        <ele>25.129999999999999</ele>
        <time>2026-06-23T08:09:32Z</time>
      </trkpt>
      <trkpt lat="50.391894998028874" lon="-4.383661011233926">
        <ele>25.609999999999999</ele>
        <time>2026-06-23T08:09:33Z</time>
      </trkpt>
      <trkpt lat="50.391931040212512" lon="-4.383841976523399">
        <ele>26.09</ele>
        <time>2026-06-23T08:09:34Z</time>
      </trkpt>
      <trkpt lat="50.391965992748737" lon="-4.384016990661621">
        <ele>26.57</ele>
        <time>2026-06-23T08:09:35Z</time>
      </trkpt>
      <trkpt lat="50.391991976648569" lon="-4.384193010628223">
        <ele>27.530000000000001</ele>
        <time>2026-06-23T08:09:36Z</time>
      </trkpt>
      <trkpt lat="50.391991976648569" lon="-4.384362995624542">
        <ele>28.5</ele>
        <time>2026-06-23T08:09:37Z</time>
      </trkpt>
      <trkpt lat="50.391985019668937" lon="-4.384537003934383">
        <ele>28.98</ele>
        <time>2026-06-23T08:09:38Z</time>
      </trkpt>
      <trkpt lat="50.391929028555751" lon="-4.385314006358385">
        <ele>33.299999999999997</ele>
        <time>2026-06-23T08:09:42Z</time>
      </trkpt>
      <trkpt lat="50.391942020505667" lon="-4.385509975254536">
        <ele>35.229999999999997</ele>
        <time>2026-06-23T08:09:43Z</time>
      </trkpt>
      <trkpt lat="50.391955012455583" lon="-4.385681971907616">
        <ele>36.670000000000002</ele>
        <time>2026-06-23T08:09:44Z</time>
      </trkpt>
      <trkpt lat="50.391966998577118" lon="-4.385829996317625">
        <ele>38.109999999999999</ele>
        <time>2026-06-23T08:09:45Z</time>
      </trkpt>
      <trkpt lat="50.391977978870273" lon="-4.385962011292577">
        <ele>40.030000000000001</ele>
        <time>2026-06-23T08:09:46Z</time>
      </trkpt>
      <trkpt lat="50.391987031325698" lon="-4.386073993518949">
        <ele>41.469999999999999</ele>
        <time>2026-06-23T08:09:47Z</time>
      </trkpt>
      <trkpt lat="50.39199398830533" lon="-4.386164015159011">
        <ele>42.920000000000002</ele>
        <time>2026-06-23T08:09:48Z</time>
      </trkpt>
      <trkpt lat="50.392009997740388" lon="-4.386361995711923">
        <ele>46.280000000000001</ele>
        <time>2026-06-23T08:09:50Z</time>
      </trkpt>
      <trkpt lat="50.392019972205162" lon="-4.386484958231449">
        <ele>47.719999999999999</ele>
        <time>2026-06-23T08:09:51Z</time>
      </trkpt>
      <trkpt lat="50.392031036317348" lon="-4.386619990691543">
        <ele>49.649999999999999</ele>
        <time>2026-06-23T08:09:52Z</time>
      </trkpt>
      <trkpt lat="50.392054002732038" lon="-4.386898018419743">
        <ele>53.009999999999998</ele>
        <time>2026-06-23T08:09:54Z</time>
      </trkpt>
      <trkpt lat="50.392064983025193" lon="-4.387044031172991">
        <ele>54.93</ele>
        <time>2026-06-23T08:09:55Z</time>
      </trkpt>
      <trkpt lat="50.392066994681954" lon="-4.387309988960624">
        <ele>58.299999999999997</ele>
        <time>2026-06-23T08:09:57Z</time>
      </trkpt>
      <trkpt lat="50.392054002732038" lon="-4.387444015592337">
        <ele>59.740000000000002</ele>
        <time>2026-06-23T08:09:58Z</time>
      </trkpt>
      <trkpt lat="50.392012009397149" lon="-4.38790300861001">
        <ele>64.069999999999993</ele>
        <time>2026-06-23T08:10:01Z</time>
      </trkpt>
      <trkpt lat="50.391997005790472" lon="-4.388067964464426">
        <ele>65.989999999999995</ele>
        <time>2026-06-23T08:10:02Z</time>
      </trkpt>
      <trkpt lat="50.391979990527034" lon="-4.388248007744551">
        <ele>66.950000000000003</ele>
        <time>2026-06-23T08:10:03Z</time>
      </trkpt>
      <trkpt lat="50.391960041597486" lon="-4.38867699354887">
        <ele>67.909999999999997</ele>
        <time>2026-06-23T08:10:05Z</time>
      </trkpt>
      <trkpt lat="50.391988037154078" lon="-4.388901963829994">
        <ele>67.909999999999997</ele>
        <time>2026-06-23T08:10:06Z</time>
      </trkpt>
      <trkpt lat="50.392081998288631" lon="-4.389715008437634">
        <ele>69.349999999999994</ele>
        <time>2026-06-23T08:10:09Z</time>
      </trkpt>
      <trkpt lat="50.392097001895308" lon="-4.390004016458988">
        <ele>70.310000000000002</ele>
        <time>2026-06-23T08:10:10Z</time>
      </trkpt>
      <trkpt lat="50.392109993845224" lon="-4.390277015045285">
        <ele>71.760000000000005</ele>
        <time>2026-06-23T08:10:11Z</time>
      </trkpt>
      <trkpt lat="50.392103958874941" lon="-4.390727961435914">
        <ele>73.680000000000007</ele>
        <time>2026-06-23T08:10:13Z</time>
      </trkpt>
      <trkpt lat="50.392069006338716" lon="-4.390873974189162">
        <ele>74.640000000000001</ele>
        <time>2026-06-23T08:10:14Z</time>
      </trkpt>
      <trkpt lat="50.392011003568769" lon="-4.391017975285649">
        <ele>75.120000000000005</ele>
        <time>2026-06-23T08:10:15Z</time>
      </trkpt>
      <trkpt lat="50.391875971108675" lon="-4.39136398024857">
        <ele>75.599999999999994</ele>
        <time>2026-06-23T08:10:17Z</time>
      </trkpt>
      <trkpt lat="50.391817968338728" lon="-4.391574030742049">
        <ele>76.079999999999998</ele>
        <time>2026-06-23T08:10:18Z</time>
      </trkpt>
      <trkpt lat="50.391769018024206" lon="-4.391808975487948">
        <ele>76.560000000000002</ele>
        <time>2026-06-23T08:10:19Z</time>
      </trkpt>
      <trkpt lat="50.391718978062272" lon="-4.392318008467555">
        <ele>77.040000000000006</ele>
        <time>2026-06-23T08:10:21Z</time>
      </trkpt>
      <trkpt lat="50.391690982505679" lon="-4.392599975690246">
        <ele>78</ele>
        <time>2026-06-23T08:10:22Z</time>
      </trkpt>
      <trkpt lat="50.391663992777467" lon="-4.393393993377686">
        <ele>79.930000000000007</ele>
        <time>2026-06-23T08:10:25Z</time>
      </trkpt>
      <trkpt lat="50.391655024141073" lon="-4.393654000014067">
        <ele>81.370000000000005</ele>
        <time>2026-06-23T08:10:26Z</time>
      </trkpt>
      <trkpt lat="50.391525020822883" lon="-4.395110020413995">
        <ele>90.980000000000004</ele>
        <time>2026-06-23T08:10:33Z</time>
      </trkpt>
      <trkpt lat="50.391514040529728" lon="-4.395223008468747">
        <ele>91.939999999999998</ele>
        <time>2026-06-23T08:10:34Z</time>
      </trkpt>
      <trkpt lat="50.39149702526629" lon="-4.395397016778588">
        <ele>94.349999999999994</ele>
        <time>2026-06-23T08:10:36Z</time>
      </trkpt>
      <trkpt lat="50.391490990296006" lon="-4.395455019548535">
        <ele>95.310000000000002</ele>
        <time>2026-06-23T08:10:37Z</time>
      </trkpt>
      <trkpt lat="50.391487972810864" lon="-4.395489972084761">
        <ele>96.269999999999996</ele>
        <time>2026-06-23T08:10:38Z</time>
      </trkpt>
      <trkpt lat="50.391485961154103" lon="-4.395511010661721">
        <ele>97.230000000000004</ele>
        <time>2026-06-23T08:10:39Z</time>
      </trkpt>
      <trkpt lat="50.391484033316374" lon="-4.39552802592516">
        <ele>98.189999999999998</ele>
        <time>2026-06-23T08:10:40Z</time>
      </trkpt>
      <trkpt lat="50.391482021659613" lon="-4.395547974854708">
        <ele>98.670000000000002</ele>
        <time>2026-06-23T08:10:41Z</time>
      </trkpt>
      <trkpt lat="50.391480010002851" lon="-4.395568007603288">
        <ele>99.150000000000006</ele>
        <time>2026-06-23T08:10:42Z</time>
      </trkpt>
      <trkpt lat="50.391480010002851" lon="-4.395568007603288">
        <ele>100.59999999999999</ele>
        <time>2026-06-23T08:10:53Z</time>
      </trkpt>
      <trkpt lat="50.39147699251771" lon="-4.395603965967894">
        <ele>101.56</ele>
        <time>2026-06-23T08:11:05Z</time>
      </trkpt>
      <trkpt lat="50.391496019437909" lon="-4.395403973758221">
        <ele>101.56</ele>
        <time>2026-06-23T08:11:08Z</time>
      </trkpt>
      <trkpt lat="50.391509011387825" lon="-4.395271958783269">
        <ele>101.08</ele>
        <time>2026-06-23T08:11:09Z</time>
      </trkpt>
      <trkpt lat="50.391525020822883" lon="-4.395113037899137">
        <ele>100.59999999999999</ele>
        <time>2026-06-23T08:11:10Z</time>
      </trkpt>
      <trkpt lat="50.39154295809567" lon="-4.394926959648728">
        <ele>100.59999999999999</ele>
        <time>2026-06-23T08:11:11Z</time>
      </trkpt>
      <trkpt lat="50.391666004434228" lon="-4.393340013921261">
        <ele>93.870000000000005</ele>
        <time>2026-06-23T08:11:17Z</time>
      </trkpt>
      <trkpt lat="50.391744039952755" lon="-4.392054984346032">
        <ele>86.180000000000007</ele>
        <time>2026-06-23T08:11:22Z</time>
      </trkpt>
      <trkpt lat="50.391803970560431" lon="-4.391624992713332">
        <ele>82.810000000000002</ele>
        <time>2026-06-23T08:11:24Z</time>
      </trkpt>
      <trkpt lat="50.391857028007507" lon="-4.391432963311672">
        <ele>81.370000000000005</ele>
        <time>2026-06-23T08:11:25Z</time>
      </trkpt>
      <trkpt lat="50.391916036605835" lon="-4.39125501550734">
        <ele>79.930000000000007</ele>
        <time>2026-06-23T08:11:26Z</time>
      </trkpt>
      <trkpt lat="50.392042016610503" lon="-4.390940023586154">
        <ele>77.040000000000006</ele>
        <time>2026-06-23T08:11:28Z</time>
      </trkpt>
      <trkpt lat="50.39210001938045" lon="-4.390784036368132">
        <ele>76.560000000000002</ele>
        <time>2026-06-23T08:11:29Z</time>
      </trkpt>
      <trkpt lat="50.392110999673605" lon="-4.390623020008206">
        <ele>75.599999999999994</ele>
        <time>2026-06-23T08:11:30Z</time>
      </trkpt>
      <trkpt lat="50.392119968309999" lon="-4.39045999199152">
        <ele>75.120000000000005</ele>
        <time>2026-06-23T08:11:31Z</time>
      </trkpt>
      <trkpt lat="50.392112005501986" lon="-4.390304004773498">
        <ele>74.640000000000001</ele>
        <time>2026-06-23T08:11:32Z</time>
      </trkpt>
      <trkpt lat="50.392103958874941" lon="-4.390140976756811">
        <ele>74.159999999999997</ele>
        <time>2026-06-23T08:11:33Z</time>
      </trkpt>
      <trkpt lat="50.392060037702322" lon="-4.389480985701084">
        <ele>73.680000000000007</ele>
        <time>2026-06-23T08:11:37Z</time>
      </trkpt>
      <trkpt lat="50.39199398830533" lon="-4.388953009620309">
        <ele>73.200000000000003</ele>
        <time>2026-06-23T08:11:40Z</time>
      </trkpt>
      <trkpt lat="50.391964986920357" lon="-4.388410029932857">
        <ele>71.269999999999996</ele>
        <time>2026-06-23T08:11:43Z</time>
      </trkpt>
      <trkpt lat="50.392029024660587" lon="-4.387715002521873">
        <ele>68.390000000000001</ele>
        <time>2026-06-23T08:11:46Z</time>
      </trkpt>
      <trkpt lat="50.392050985246897" lon="-4.387476034462452">
        <ele>68.390000000000001</ele>
        <time>2026-06-23T08:11:47Z</time>
      </trkpt>
      <trkpt lat="50.392077974975109" lon="-4.387192977592349">
        <ele>67.909999999999997</ele>
        <time>2026-06-23T08:11:48Z</time>
      </trkpt>
      <trkpt lat="50.392060037702322" lon="-4.38697999343276">
        <ele>67.909999999999997</ele>
        <time>2026-06-23T08:11:49Z</time>
      </trkpt>
      <trkpt lat="50.392041010782123" lon="-4.386734990403056">
        <ele>67.430000000000007</ele>
        <time>2026-06-23T08:11:50Z</time>
      </trkpt>
      <trkpt lat="50.392019972205162" lon="-4.3864840362221">
        <ele>66.950000000000003</ele>
        <time>2026-06-23T08:11:51Z</time>
      </trkpt>
      <trkpt lat="50.391978984698653" lon="-4.385972991585732">
        <ele>65.989999999999995</ele>
        <time>2026-06-23T08:11:53Z</time>
      </trkpt>
      <trkpt lat="50.391958029940724" lon="-4.38571197912097">
        <ele>65.030000000000001</ele>
        <time>2026-06-23T08:11:54Z</time>
      </trkpt>
      <trkpt lat="50.391948977485299" lon="-4.384994991123676">
        <ele>61.18</ele>
        <time>2026-06-23T08:11:57Z</time>
      </trkpt>
      <trkpt lat="50.391991976648569" lon="-4.384264005348086">
        <ele>53.490000000000002</ele>
        <time>2026-06-23T08:12:01Z</time>
      </trkpt>
      <trkpt lat="50.391989964991808" lon="-4.384138025343418">
        <ele>51.090000000000003</ele>
        <time>2026-06-23T08:12:02Z</time>
      </trkpt>
      <trkpt lat="50.391969010233879" lon="-4.384029982611537">
        <ele>49.649999999999999</ele>
        <time>2026-06-23T08:12:03Z</time>
      </trkpt>
      <trkpt lat="50.391946965828538" lon="-4.383922023698688">
        <ele>48.200000000000003</ele>
        <time>2026-06-23T08:12:04Z</time>
      </trkpt>
      <trkpt lat="50.391926011070609" lon="-4.383816998451948">
        <ele>46.759999999999998</ele>
        <time>2026-06-23T08:12:05Z</time>
      </trkpt>
      <trkpt lat="50.391905978322029" lon="-4.383715996518731">
        <ele>45.32</ele>
        <time>2026-06-23T08:12:06Z</time>
      </trkpt>
      <trkpt lat="50.391887035220861" lon="-4.383624969050288">
        <ele>43.880000000000003</ele>
        <time>2026-06-23T08:12:07Z</time>
      </trkpt>
      <trkpt lat="50.39188401773572" lon="-4.38354198820889">
        <ele>42.439999999999998</ele>
        <time>2026-06-23T08:12:08Z</time>
      </trkpt>
      <trkpt lat="50.39188401773572" lon="-4.383470993489027">
        <ele>40.990000000000002</ele>
        <time>2026-06-23T08:12:09Z</time>
      </trkpt>
      <trkpt lat="50.39188401773572" lon="-4.383406033739448">
        <ele>40.030000000000001</ele>
        <time>2026-06-23T08:12:10Z</time>
      </trkpt>
      <trkpt lat="50.39188401773572" lon="-4.383348030969501">
        <ele>38.590000000000003</ele>
        <time>2026-06-23T08:12:11Z</time>
      </trkpt>
      <trkpt lat="50.391808999702334" lon="-4.383259015157819">
        <ele>37.630000000000003</ele>
        <time>2026-06-23T08:12:12Z</time>
      </trkpt>
      <trkpt lat="50.391749991104007" lon="-4.383253986015916">
        <ele>36.189999999999998</ele>
        <time>2026-06-23T08:12:13Z</time>
      </trkpt>
      <trkpt lat="50.391686959192157" lon="-4.383248034864664">
        <ele>34.740000000000002</ele>
        <time>2026-06-23T08:12:14Z</time>
      </trkpt>
      <trkpt lat="50.391624011099339" lon="-4.383241999894381">
        <ele>33.780000000000001</ele>
        <time>2026-06-23T08:12:15Z</time>
      </trkpt>
      <trkpt lat="50.391557961702347" lon="-4.383235964924097">
        <ele>32.340000000000003</ele>
        <time>2026-06-23T08:12:16Z</time>
      </trkpt>
      <trkpt lat="50.391485961154103" lon="-4.383229007944465">
        <ele>31.379999999999999</ele>
        <time>2026-06-23T08:12:17Z</time>
      </trkpt>
      <trkpt lat="50.391409015282989" lon="-4.383221967145801">
        <ele>30.420000000000002</ele>
        <time>2026-06-23T08:12:18Z</time>
      </trkpt>
      <trkpt lat="50.391258979216218" lon="-4.383207969367504">
        <ele>29.460000000000001</ele>
        <time>2026-06-23T08:12:20Z</time>
      </trkpt>
      <trkpt lat="50.391182033345103" lon="-4.383215010166168">
        <ele>28.5</ele>
        <time>2026-06-23T08:12:21Z</time>
      </trkpt>
      <trkpt lat="50.391108021140099" lon="-4.383279969915748">
        <ele>28.02</ele>
        <time>2026-06-23T08:12:22Z</time>
      </trkpt>
      <trkpt lat="50.391019005328417" lon="-4.383368985727429">
        <ele>28.02</ele>
        <time>2026-06-23T08:12:23Z</time>
      </trkpt>
      <trkpt lat="50.390965025871992" lon="-4.383499994874001">
        <ele>27.530000000000001</ele>
        <time>2026-06-23T08:12:24Z</time>
      </trkpt>
      <trkpt lat="50.390906017273664" lon="-4.383646007627249">
        <ele>27.050000000000001</ele>
        <time>2026-06-23T08:12:25Z</time>
      </trkpt>
      <trkpt lat="50.390684986487031" lon="-4.384073987603188">
        <ele>26.09</ele>
        <time>2026-06-23T08:12:28Z</time>
      </trkpt>
      <trkpt lat="50.390466973185539" lon="-4.384289989247918">
        <ele>26.09</ele>
        <time>2026-06-23T08:12:30Z</time>
      </trkpt>
      <trkpt lat="50.389988031238317" lon="-4.38465803861618">
        <ele>28.5</ele>
        <time>2026-06-23T08:12:34Z</time>
      </trkpt>
      <trkpt lat="50.389846041798592" lon="-4.384768009185791">
        <ele>28.98</ele>
        <time>2026-06-23T08:12:35Z</time>
      </trkpt>
      <trkpt lat="50.389226032420993" lon="-4.384798016399145">
        <ele>31.379999999999999</ele>
        <time>2026-06-23T08:12:41Z</time>
      </trkpt>
      <trkpt lat="50.38913500495255" lon="-4.384802961722016">
        <ele>31.379999999999999</ele>
        <time>2026-06-23T08:12:42Z</time>
      </trkpt>
      <trkpt lat="50.389041965827346" lon="-4.384806985035539">
        <ele>30.420000000000002</ele>
        <time>2026-06-23T08:12:43Z</time>
      </trkpt>
      <trkpt lat="50.388953033834696" lon="-4.384817965328693">
        <ele>29.460000000000001</ele>
        <time>2026-06-23T08:12:44Z</time>
      </trkpt>
      <trkpt lat="50.388854965567589" lon="-4.38487202860415">
        <ele>28.5</ele>
        <time>2026-06-23T08:12:45Z</time>
      </trkpt>
      <trkpt lat="50.388753963634372" lon="-4.384926008060575">
        <ele>27.530000000000001</ele>
        <time>2026-06-23T08:12:46Z</time>
      </trkpt>
      <trkpt lat="50.388661008328199" lon="-4.384999014437199">
        <ele>27.050000000000001</ele>
        <time>2026-06-23T08:12:47Z</time>
      </trkpt>
      <trkpt lat="50.388564029708505" lon="-4.385084006935358">
        <ele>26.57</ele>
        <time>2026-06-23T08:12:48Z</time>
      </trkpt>
      <trkpt lat="50.388463027775288" lon="-4.385171011090279">
        <ele>26.09</ele>
        <time>2026-06-23T08:12:49Z</time>
      </trkpt>
      <trkpt lat="50.388008980080485" lon="-4.386027976870537">
        <ele>25.609999999999999</ele>
        <time>2026-06-23T08:12:55Z</time>
      </trkpt>
      <trkpt lat="50.387947959825397" lon="-4.386176001280546">
        <ele>25.609999999999999</ele>
        <time>2026-06-23T08:12:56Z</time>
      </trkpt>
      <trkpt lat="50.387715026736259" lon="-4.386745970696211">
        <ele>25.129999999999999</ele>
        <time>2026-06-23T08:13:00Z</time>
      </trkpt>
      <trkpt lat="50.387657023966312" lon="-4.386887038126588">
        <ele>25.609999999999999</ele>
        <time>2026-06-23T08:13:01Z</time>
      </trkpt>
      <trkpt lat="50.387592986226082" lon="-4.38704302534461">
        <ele>26.09</ele>
        <time>2026-06-23T08:13:02Z</time>
      </trkpt>
      <trkpt lat="50.387404980137944" lon="-4.387434963136911">
        <ele>26.57</ele>
        <time>2026-06-23T08:13:05Z</time>
      </trkpt>
      <trkpt lat="50.387337002903223" lon="-4.387577036395669">
        <ele>26.57</ele>
        <time>2026-06-23T08:13:06Z</time>
      </trkpt>
      <trkpt lat="50.387267014011741" lon="-4.387722965329886">
        <ele>27.050000000000001</ele>
        <time>2026-06-23T08:13:07Z</time>
      </trkpt>
      <trkpt lat="50.386840039864182" lon="-4.388612033799291">
        <ele>26.57</ele>
        <time>2026-06-23T08:13:13Z</time>
      </trkpt>
      <trkpt lat="50.386763010174036" lon="-4.388757040724158">
        <ele>27.050000000000001</ele>
        <time>2026-06-23T08:13:14Z</time>
      </trkpt>
      <trkpt lat="50.38668698631227" lon="-4.388899030163884">
        <ele>27.530000000000001</ele>
        <time>2026-06-23T08:13:15Z</time>
      </trkpt>
      <trkpt lat="50.38660098798573" lon="-4.389025010168552">
        <ele>27.530000000000001</ele>
        <time>2026-06-23T08:13:16Z</time>
      </trkpt>
      <trkpt lat="50.386511972174048" lon="-4.389145961031318">
        <ele>28.02</ele>
        <time>2026-06-23T08:13:17Z</time>
      </trkpt>
      <trkpt lat="50.385726001113653" lon="-4.390067970380187">
        <ele>28.02</ele>
        <time>2026-06-23T08:13:26Z</time>
      </trkpt>
      <trkpt lat="50.385608989745378" lon="-4.390104012563825">
        <ele>28.02</ele>
        <time>2026-06-23T08:13:27Z</time>
      </trkpt>
      <trkpt lat="50.385497007519007" lon="-4.390139970928431">
        <ele>28.02</ele>
        <time>2026-06-23T08:13:28Z</time>
      </trkpt>
      <trkpt lat="50.385379996150732" lon="-4.390175007283688">
        <ele>28.02</ele>
        <time>2026-06-23T08:13:29Z</time>
      </trkpt>
      <trkpt lat="50.385260973125696" lon="-4.390132008120418">
        <ele>28.02</ele>
        <time>2026-06-23T08:13:30Z</time>
      </trkpt>
      <trkpt lat="50.385124012827873" lon="-4.390083979815245">
        <ele>27.530000000000001</ele>
        <time>2026-06-23T08:13:31Z</time>
      </trkpt>
      <trkpt lat="50.384483970701694" lon="-4.389822967350483">
        <ele>28.98</ele>
        <time>2026-06-23T08:13:36Z</time>
      </trkpt>
      <trkpt lat="50.384378023445606" lon="-4.389769993722439">
        <ele>29.460000000000001</ele>
        <time>2026-06-23T08:13:37Z</time>
      </trkpt>
      <trkpt lat="50.38415003567934" lon="-4.389646025374532">
        <ele>30.420000000000002</ele>
        <time>2026-06-23T08:13:39Z</time>
      </trkpt>
      <trkpt lat="50.384068982675672" lon="-4.389529014006257">
        <ele>30.420000000000002</ele>
        <time>2026-06-23T08:13:40Z</time>
      </trkpt>
      <trkpt lat="50.383661035448313" lon="-4.388943035155535">
        <ele>32.340000000000003</ele>
        <time>2026-06-23T08:13:45Z</time>
      </trkpt>
      <trkpt lat="50.383574031293392" lon="-4.388851001858711">
        <ele>32.82</ele>
        <time>2026-06-23T08:13:46Z</time>
      </trkpt>
      <trkpt lat="50.383451990783215" lon="-4.388758968561888">
        <ele>32.82</ele>
        <time>2026-06-23T08:13:47Z</time>
      </trkpt>
      <trkpt lat="50.383374039083719" lon="-4.388749999925494">
        <ele>32.82</ele>
        <time>2026-06-23T08:13:48Z</time>
      </trkpt>
      <trkpt lat="50.383267002180219" lon="-4.388744970783591">
        <ele>32.82</ele>
        <time>2026-06-23T08:13:49Z</time>
      </trkpt>
      <trkpt lat="50.383170023560524" lon="-4.388806996867061">
        <ele>32.82</ele>
        <time>2026-06-23T08:13:50Z</time>
      </trkpt>
      <trkpt lat="50.383072961121798" lon="-4.388885032385588">
        <ele>32.340000000000003</ele>
        <time>2026-06-23T08:13:51Z</time>
      </trkpt>
      <trkpt lat="50.382986962795258" lon="-4.388983016833663">
        <ele>32.340000000000003</ele>
        <time>2026-06-23T08:13:52Z</time>
      </trkpt>
      <trkpt lat="50.38290498778224" lon="-4.389076977968216">
        <ele>31.859999999999999</ele>
        <time>2026-06-23T08:13:53Z</time>
      </trkpt>
      <trkpt lat="50.382829969748855" lon="-4.389162976294756">
        <ele>31.379999999999999</ele>
        <time>2026-06-23T08:13:54Z</time>
      </trkpt>
      <trkpt lat="50.382655039429665" lon="-4.38936498016119">
        <ele>28.98</ele>
        <time>2026-06-23T08:13:56Z</time>
      </trkpt>
      <trkpt lat="50.382210966199636" lon="-4.390272991731763">
        <ele>23.690000000000001</ele>
        <time>2026-06-23T08:14:04Z</time>
      </trkpt>
      <trkpt lat="50.382161010056734" lon="-4.390345998108387">
        <ele>22.73</ele>
        <time>2026-06-23T08:14:05Z</time>
      </trkpt>
      <trkpt lat="50.382032012566924" lon="-4.390440965071321">
        <ele>21.77</ele>
        <time>2026-06-23T08:14:07Z</time>
      </trkpt>
      <trkpt lat="50.381939979270101" lon="-4.390471978113055">
        <ele>21.289999999999999</ele>
        <time>2026-06-23T08:14:08Z</time>
      </trkpt>
      <trkpt lat="50.381844006478786" lon="-4.390498967841268">
        <ele>20.809999999999999</ele>
        <time>2026-06-23T08:14:09Z</time>
      </trkpt>
      <trkpt lat="50.381743004545569" lon="-4.390511959791184">
        <ele>20.32</ele>
        <time>2026-06-23T08:14:10Z</time>
      </trkpt>
      <trkpt lat="50.381639990955591" lon="-4.390524029731751">
        <ele>19.84</ele>
        <time>2026-06-23T08:14:11Z</time>
      </trkpt>
      <trkpt lat="50.381527002900839" lon="-4.390538027510047">
        <ele>18.879999999999999</ele>
        <time>2026-06-23T08:14:12Z</time>
      </trkpt>
      <trkpt lat="50.381413009017706" lon="-4.390551019459963">
        <ele>17.920000000000002</ele>
        <time>2026-06-23T08:14:13Z</time>
      </trkpt>
      <trkpt lat="50.381303038448095" lon="-4.390564011409879">
        <ele>16.960000000000001</ele>
        <time>2026-06-23T08:14:14Z</time>
      </trkpt>
      <trkpt lat="50.381199019029737" lon="-4.390577003359795">
        <ele>16</ele>
        <time>2026-06-23T08:14:15Z</time>
      </trkpt>
      <trkpt lat="50.381094999611378" lon="-4.39058898948133">
        <ele>14.56</ele>
        <time>2026-06-23T08:14:16Z</time>
      </trkpt>
      <trkpt lat="50.380983017385006" lon="-4.390602987259626">
        <ele>13.6</ele>
        <time>2026-06-23T08:14:17Z</time>
      </trkpt>
      <trkpt lat="50.380872040987015" lon="-4.390615979209542">
        <ele>12.630000000000001</ele>
        <time>2026-06-23T08:14:18Z</time>
      </trkpt>
      <trkpt lat="50.380752012133598" lon="-4.390608016401529">
        <ele>12.15</ele>
        <time>2026-06-23T08:14:19Z</time>
      </trkpt>
      <trkpt lat="50.380427967756987" lon="-4.390441970899701">
        <ele>11.19</ele>
        <time>2026-06-23T08:14:22Z</time>
      </trkpt>
      <trkpt lat="50.380331994965672" lon="-4.390363013371825">
        <ele>11.19</ele>
        <time>2026-06-23T08:14:23Z</time>
      </trkpt>
      <trkpt lat="50.380153963342309" lon="-4.390215994790196">
        <ele>11.19</ele>
        <time>2026-06-23T08:14:25Z</time>
      </trkpt>
      <trkpt lat="50.380064025521278" lon="-4.390141982585192">
        <ele>11.19</ele>
        <time>2026-06-23T08:14:26Z</time>
      </trkpt>
      <trkpt lat="50.379975009709597" lon="-4.390067970380187">
        <ele>11.19</ele>
        <time>2026-06-23T08:14:27Z</time>
      </trkpt>
      <trkpt lat="50.379861015826464" lon="-4.390035029500723">
        <ele>11.19</ele>
        <time>2026-06-23T08:14:28Z</time>
      </trkpt>
      <trkpt lat="50.37974601611495" lon="-4.390000998973846">
        <ele>11.19</ele>
        <time>2026-06-23T08:14:29Z</time>
      </trkpt>
      <trkpt lat="50.379403028637171" lon="-4.389908965677023">
        <ele>11.67</ele>
        <time>2026-06-23T08:14:32Z</time>
      </trkpt>
      <trkpt lat="50.379091976210475" lon="-4.389860015362501">
        <ele>13.119999999999999</ele>
        <time>2026-06-23T08:14:35Z</time>
      </trkpt>
      <trkpt lat="50.379006983712316" lon="-4.389846017584205">
        <ele>13.6</ele>
        <time>2026-06-23T08:14:36Z</time>
      </trkpt>
      <trkpt lat="50.378901958465576" lon="-4.389830008149147">
        <ele>13.6</ele>
        <time>2026-06-23T08:14:37Z</time>
      </trkpt>
      <trkpt lat="50.378792993724346" lon="-4.389812992885709">
        <ele>14.08</ele>
        <time>2026-06-23T08:14:38Z</time>
      </trkpt>
      <trkpt lat="50.378684028983116" lon="-4.38979497179389">
        <ele>14.08</ele>
        <time>2026-06-23T08:14:39Z</time>
      </trkpt>
      <trkpt lat="50.378590989857912" lon="-4.389804024249315">
        <ele>14.56</ele>
        <time>2026-06-23T08:14:40Z</time>
      </trkpt>
      <trkpt lat="50.378490993753076" lon="-4.389832019805908">
        <ele>14.56</ele>
        <time>2026-06-23T08:14:41Z</time>
      </trkpt>
      <trkpt lat="50.378394015133381" lon="-4.389859009534121">
        <ele>14.56</ele>
        <time>2026-06-23T08:14:42Z</time>
      </trkpt>
      <trkpt lat="50.378303993493319" lon="-4.389883987605572">
        <ele>14.56</ele>
        <time>2026-06-23T08:14:43Z</time>
      </trkpt>
      <trkpt lat="50.378226041793823" lon="-4.389912988990545">
        <ele>14.56</ele>
        <time>2026-06-23T08:14:44Z</time>
      </trkpt>
      <trkpt lat="50.378143982961774" lon="-4.389953976497054">
        <ele>15.039999999999999</ele>
        <time>2026-06-23T08:14:45Z</time>
      </trkpt>
      <trkpt lat="50.378043986856937" lon="-4.390004016458988">
        <ele>15.52</ele>
        <time>2026-06-23T08:14:46Z</time>
      </trkpt>
      <trkpt lat="50.377638973295689" lon="-4.390537021681666">
        <ele>15.52</ele>
        <time>2026-06-23T08:14:51Z</time>
      </trkpt>
      <trkpt lat="50.377568984404206" lon="-4.390663001686335">
        <ele>15.52</ele>
        <time>2026-06-23T08:14:52Z</time>
      </trkpt>
      <trkpt lat="50.377104040235281" lon="-4.391519967466593">
        <ele>17.440000000000001</ele>
        <time>2026-06-23T08:14:59Z</time>
      </trkpt>
      <trkpt lat="50.376691985875368" lon="-4.392140982672572">
        <ele>18.879999999999999</ele>
        <time>2026-06-23T08:15:04Z</time>
      </trkpt>
      <trkpt lat="50.376594001427293" lon="-4.39226402901113">
        <ele>19.359999999999999</ele>
        <time>2026-06-23T08:15:05Z</time>
      </trkpt>
      <trkpt lat="50.376382023096085" lon="-4.392384979873896">
        <ele>19.359999999999999</ele>
        <time>2026-06-23T08:15:07Z</time>
      </trkpt>
      <trkpt lat="50.376155963167548" lon="-4.392513977363706">
        <ele>19.84</ele>
        <time>2026-06-23T08:15:09Z</time>
      </trkpt>
      <trkpt lat="50.375726977363229" lon="-4.392579020932317">
        <ele>21.289999999999999</ele>
        <time>2026-06-23T08:15:13Z</time>
      </trkpt>
      <trkpt lat="50.375422965735197" lon="-4.392494028434157">
        <ele>23.690000000000001</ele>
        <time>2026-06-23T08:15:16Z</time>
      </trkpt>
      <trkpt lat="50.375310983508825" lon="-4.392446000128985">
        <ele>24.649999999999999</ele>
        <time>2026-06-23T08:15:17Z</time>
      </trkpt>
      <trkpt lat="50.375205958262086" lon="-4.392357990145683">
        <ele>25.129999999999999</ele>
        <time>2026-06-23T08:15:18Z</time>
      </trkpt>
      <trkpt lat="50.375103028491139" lon="-4.392269980162382">
        <ele>26.09</ele>
        <time>2026-06-23T08:15:19Z</time>
      </trkpt>
      <trkpt lat="50.37502096965909" lon="-4.392170989885926">
        <ele>26.57</ele>
        <time>2026-06-23T08:15:20Z</time>
      </trkpt>
      <trkpt lat="50.374956009909511" lon="-4.392065964639187">
        <ele>27.050000000000001</ele>
        <time>2026-06-23T08:15:21Z</time>
      </trkpt>
      <trkpt lat="50.37489197216928" lon="-4.39196496270597">
        <ele>27.530000000000001</ele>
        <time>2026-06-23T08:15:22Z</time>
      </trkpt>
      <trkpt lat="50.374846961349249" lon="-4.391892040148377">
        <ele>28.02</ele>
        <time>2026-06-23T08:15:23Z</time>
      </trkpt>
      <trkpt lat="50.374806979671121" lon="-4.391734963282943">
        <ele>28.98</ele>
        <time>2026-06-23T08:15:24Z</time>
      </trkpt>
      <trkpt lat="50.374771021306515" lon="-4.391595991328359">
        <ele>28.98</ele>
        <time>2026-06-23T08:15:25Z</time>
      </trkpt>
      <trkpt lat="50.374734979122877" lon="-4.391454001888633">
        <ele>29.940000000000001</ele>
        <time>2026-06-23T08:15:26Z</time>
      </trkpt>
      <trkpt lat="50.37469700910151" lon="-4.391306983307004">
        <ele>30.420000000000002</ele>
        <time>2026-06-23T08:15:27Z</time>
      </trkpt>
      <trkpt lat="50.37448201328516" lon="-4.390641963109374">
        <ele>33.299999999999997</ele>
        <time>2026-06-23T08:15:32Z</time>
      </trkpt>
      <trkpt lat="50.374429961666465" lon="-4.390531992539764">
        <ele>33.780000000000001</ele>
        <time>2026-06-23T08:15:33Z</time>
      </trkpt>
      <trkpt lat="50.374145982787013" lon="-4.390036035329104">
        <ele>35.710000000000001</ele>
        <time>2026-06-23T08:15:38Z</time>
      </trkpt>
      <trkpt lat="50.374081023037434" lon="-4.38994400203228">
        <ele>35.710000000000001</ele>
        <time>2026-06-23T08:15:39Z</time>
      </trkpt>
      <trkpt lat="50.373635021969676" lon="-4.38932097516954">
        <ele>36.189999999999998</ele>
        <time>2026-06-23T08:15:47Z</time>
      </trkpt>
      <trkpt lat="50.373608032241464" lon="-4.389285016804934">
        <ele>36.189999999999998</ele>
        <time>2026-06-23T08:15:48Z</time>
      </trkpt>
      <trkpt lat="50.373561009764671" lon="-4.389225002378225">
        <ele>36.670000000000002</ele>
        <time>2026-06-23T08:15:50Z</time>
      </trkpt>
      <trkpt lat="50.373529996722937" lon="-4.389185020700097">
        <ele>36.670000000000002</ele>
        <time>2026-06-23T08:15:51Z</time>
      </trkpt>
      <trkpt lat="50.37349202670157" lon="-4.389134980738163">
        <ele>37.149999999999999</ele>
        <time>2026-06-23T08:15:52Z</time>
      </trkpt>
      <trkpt lat="50.373341990634799" lon="-4.388940017670393">
        <ele>38.590000000000003</ele>
        <time>2026-06-23T08:15:55Z</time>
      </trkpt>
      <trkpt lat="50.373288011178374" lon="-4.388870028778911">
        <ele>39.549999999999997</ele>
        <time>2026-06-23T08:15:56Z</time>
      </trkpt>
      <trkpt lat="50.373233025893569" lon="-4.388798028230667">
        <ele>40.030000000000001</ele>
        <time>2026-06-23T08:15:57Z</time>
      </trkpt>
      <trkpt lat="50.373186003416777" lon="-4.388737007975578">
        <ele>40.990000000000002</ele>
        <time>2026-06-23T08:15:58Z</time>
      </trkpt>
      <trkpt lat="50.373141998425126" lon="-4.388680011034012">
        <ele>41.950000000000003</ele>
        <time>2026-06-23T08:15:59Z</time>
      </trkpt>
      <trkpt lat="50.373096987605095" lon="-4.388622008264065">
        <ele>42.439999999999998</ele>
        <time>2026-06-23T08:16:00Z</time>
      </trkpt>
      <trkpt lat="50.3730000089854" lon="-4.388495022431016">
        <ele>44.359999999999999</ele>
        <time>2026-06-23T08:16:02Z</time>
      </trkpt>
      <trkpt lat="50.372945023700595" lon="-4.388424027711153">
        <ele>44.359999999999999</ele>
        <time>2026-06-23T08:16:03Z</time>
      </trkpt>
      <trkpt lat="50.372896995395422" lon="-4.388362001627684">
        <ele>44.359999999999999</ele>
        <time>2026-06-23T08:16:04Z</time>
      </trkpt>
      <trkpt lat="50.372873023152351" lon="-4.388329982757568">
        <ele>43.880000000000003</ele>
        <time>2026-06-23T08:16:05Z</time>
      </trkpt>
      <trkpt lat="50.372793981805444" lon="-4.388276003301144">
        <ele>43.880000000000003</ele>
        <time>2026-06-23T08:16:06Z</time>
      </trkpt>
      <trkpt lat="50.372731033712626" lon="-4.388233004137874">
        <ele>43.880000000000003</ele>
        <time>2026-06-23T08:16:07Z</time>
      </trkpt>
      <trkpt lat="50.372673030942678" lon="-4.388193022459745">
        <ele>43.399999999999999</ele>
        <time>2026-06-23T08:16:08Z</time>
      </trkpt>
      <trkpt lat="50.372605975717306" lon="-4.388145999982953">
        <ele>43.399999999999999</ele>
        <time>2026-06-23T08:16:09Z</time>
      </trkpt>
      <trkpt lat="50.372524000704288" lon="-4.388086991384625">
        <ele>43.399999999999999</ele>
        <time>2026-06-23T08:16:10Z</time>
      </trkpt>
      <trkpt lat="50.372459962964058" lon="-4.388000993058085">
        <ele>42.920000000000002</ele>
        <time>2026-06-23T08:16:11Z</time>
      </trkpt>
      <trkpt lat="50.372389974072576" lon="-4.387878030538559">
        <ele>41.950000000000003</ele>
        <time>2026-06-23T08:16:12Z</time>
      </trkpt>
      <trkpt lat="50.372359966859221" lon="-4.387760013341904">
        <ele>40.990000000000002</ele>
        <time>2026-06-23T08:16:13Z</time>
      </trkpt>
      <trkpt lat="50.372338006272912" lon="-4.387668985873461">
        <ele>40.990000000000002</ele>
        <time>2026-06-23T08:16:14Z</time>
      </trkpt>
      <trkpt lat="50.372314034029841" lon="-4.387614000588656">
        <ele>40.990000000000002</ele>
        <time>2026-06-23T08:16:15Z</time>
      </trkpt>
      <trkpt lat="50.372282015159726" lon="-4.387543005868793">
        <ele>40.990000000000002</ele>
        <time>2026-06-23T08:16:16Z</time>
      </trkpt>
      <trkpt lat="50.372251002117991" lon="-4.38747201114893">
        <ele>40.990000000000002</ele>
        <time>2026-06-23T08:16:17Z</time>
      </trkpt>
      <trkpt lat="50.372211020439863" lon="-4.387433035299182">
        <ele>41.469999999999999</ele>
        <time>2026-06-23T08:16:18Z</time>
      </trkpt>
      <trkpt lat="50.37214295938611" lon="-4.387363968417049">
        <ele>41.469999999999999</ele>
        <time>2026-06-23T08:16:19Z</time>
      </trkpt>
      <trkpt lat="50.372036006301641" lon="-4.387334967032075">
        <ele>40.509999999999998</ele>
        <time>2026-06-23T08:16:20Z</time>
      </trkpt>
      <trkpt lat="50.371914971619844" lon="-4.387302026152611">
        <ele>39.549999999999997</ele>
        <time>2026-06-23T08:16:21Z</time>
      </trkpt>
      <trkpt lat="50.371799971908331" lon="-4.387319963425398">
        <ele>38.590000000000003</ele>
        <time>2026-06-23T08:16:22Z</time>
      </trkpt>
      <trkpt lat="50.371695030480623" lon="-4.387338990345597">
        <ele>37.630000000000003</ele>
        <time>2026-06-23T08:16:23Z</time>
      </trkpt>
      <trkpt lat="50.3716029971838" lon="-4.387390958145261">
        <ele>36.670000000000002</ele>
        <time>2026-06-23T08:16:24Z</time>
      </trkpt>
      <trkpt lat="50.371505012735724" lon="-4.387461030855775">
        <ele>35.710000000000001</ele>
        <time>2026-06-23T08:16:25Z</time>
      </trkpt>
      <trkpt lat="50.371407028287649" lon="-4.387530013918877">
        <ele>34.740000000000002</ele>
        <time>2026-06-23T08:16:26Z</time>
      </trkpt>
      <trkpt lat="50.371308960020542" lon="-4.387598996981978">
        <ele>33.780000000000001</ele>
        <time>2026-06-23T08:16:27Z</time>
      </trkpt>
      <trkpt lat="50.371212987229228" lon="-4.3876669742167">
        <ele>33.299999999999997</ele>
        <time>2026-06-23T08:16:28Z</time>
      </trkpt>
      <trkpt lat="50.371115002781153" lon="-4.387736963108182">
        <ele>32.340000000000003</ele>
        <time>2026-06-23T08:16:29Z</time>
      </trkpt>
      <trkpt lat="50.370241021737456" lon="-4.38835303299129">
        <ele>27.530000000000001</ele>
        <time>2026-06-23T08:16:38Z</time>
      </trkpt>
      <trkpt lat="50.369252040982246" lon="-4.388902969658375">
        <ele>25.609999999999999</ele>
        <time>2026-06-23T08:16:48Z</time>
      </trkpt>
      <trkpt lat="50.36896001547575" lon="-4.388972958549857">
        <ele>24.170000000000002</ele>
        <time>2026-06-23T08:16:51Z</time>
      </trkpt>
      <trkpt lat="50.368199022486806" lon="-4.388958038762212">
        <ele>23.210000000000001</ele>
        <time>2026-06-23T08:16:58Z</time>
      </trkpt>
      <trkpt lat="50.367860980331898" lon="-4.388973964378238">
        <ele>23.210000000000001</ele>
        <time>2026-06-23T08:17:02Z</time>
      </trkpt>
      <trkpt lat="50.367453033104539" lon="-4.38891101628542">
        <ele>23.210000000000001</ele>
        <time>2026-06-23T08:17:11Z</time>
      </trkpt>
      <trkpt lat="50.367126977071166" lon="-4.388819988816977">
        <ele>22.25</ele>
        <time>2026-06-23T08:17:15Z</time>
      </trkpt>
      <trkpt lat="50.366623979061842" lon="-4.38856702297926">
        <ele>20.32</ele>
        <time>2026-06-23T08:17:21Z</time>
      </trkpt>
      <trkpt lat="50.36599500104785" lon="-4.388043992221355">
        <ele>18.879999999999999</ele>
        <time>2026-06-23T08:17:29Z</time>
      </trkpt>
      <trkpt lat="50.365927023813128" lon="-4.387971991673112">
        <ele>18.879999999999999</ele>
        <time>2026-06-23T08:17:30Z</time>
      </trkpt>
      <trkpt lat="50.365891987457871" lon="-4.387876018881798">
        <ele>19.359999999999999</ele>
        <time>2026-06-23T08:17:31Z</time>
      </trkpt>
      <trkpt lat="50.365849994122982" lon="-4.387742998078466">
        <ele>19.359999999999999</ele>
        <time>2026-06-23T08:17:32Z</time>
      </trkpt>
      <trkpt lat="50.365805989131331" lon="-4.387604026123881">
        <ele>19.359999999999999</ele>
        <time>2026-06-23T08:17:33Z</time>
      </trkpt>
      <trkpt lat="50.365786962211132" lon="-4.387478968128562">
        <ele>19.84</ele>
        <time>2026-06-23T08:17:34Z</time>
      </trkpt>
      <trkpt lat="50.36565100774169" lon="-4.38661596737802">
        <ele>19.359999999999999</ele>
        <time>2026-06-23T08:17:40Z</time>
      </trkpt>
      <trkpt lat="50.365600967779756" lon="-4.386499039828777">
        <ele>19.359999999999999</ele>
        <time>2026-06-23T08:17:41Z</time>
      </trkpt>
      <trkpt lat="50.365556040778756" lon="-4.386418992653489">
        <ele>18.879999999999999</ele>
        <time>2026-06-23T08:17:42Z</time>
      </trkpt>
      <trkpt lat="50.365512035787106" lon="-4.386341040953994">
        <ele>18.879999999999999</ele>
        <time>2026-06-23T08:17:43Z</time>
      </trkpt>
      <trkpt lat="50.365468030795455" lon="-4.386261999607086">
        <ele>18.879999999999999</ele>
        <time>2026-06-23T08:17:44Z</time>
      </trkpt>
      <trkpt lat="50.365220010280609" lon="-4.385825973004103">
        <ele>18.399999999999999</ele>
        <time>2026-06-23T08:17:49Z</time>
      </trkpt>
      <trkpt lat="50.365193020552397" lon="-4.385780040174723">
        <ele>18.399999999999999</ele>
        <time>2026-06-23T08:17:50Z</time>
      </trkpt>
      <trkpt lat="50.365191008895636" lon="-4.385722959414125">
        <ele>18.399999999999999</ele>
        <time>2026-06-23T08:17:52Z</time>
      </trkpt>
      <trkpt lat="50.365191008895636" lon="-4.385694963857532">
        <ele>18.399999999999999</ele>
        <time>2026-06-23T08:17:53Z</time>
      </trkpt>
      <trkpt lat="50.365191008895636" lon="-4.385671997442842">
        <ele>18.399999999999999</ele>
        <time>2026-06-23T08:17:54Z</time>
      </trkpt>
      <trkpt lat="50.365254962816834" lon="-4.385699992999435">
        <ele>17.440000000000001</ele>
        <time>2026-06-23T08:17:56Z</time>
      </trkpt>
      <trkpt lat="50.365254962816834" lon="-4.385722037404776">
        <ele>17.440000000000001</ele>
        <time>2026-06-23T08:17:57Z</time>
      </trkpt>
      <trkpt lat="50.365254962816834" lon="-4.385746009647846">
        <ele>17.440000000000001</ele>
        <time>2026-06-23T08:17:58Z</time>
      </trkpt>
      <trkpt lat="50.365255968645215" lon="-4.38588498160243">
        <ele>17.920000000000002</ele>
        <time>2026-06-23T08:18:08Z</time>
      </trkpt>
      <trkpt lat="50.365299973636866" lon="-4.385963017120957">
        <ele>17.920000000000002</ele>
        <time>2026-06-23T08:18:09Z</time>
      </trkpt>
      <trkpt lat="50.365354958921671" lon="-4.386061001569033">
        <ele>17.920000000000002</ele>
        <time>2026-06-23T08:18:10Z</time>
      </trkpt>
      <trkpt lat="50.365665005519986" lon="-4.386687967926264">
        <ele>18.879999999999999</ele>
        <time>2026-06-23T08:18:15Z</time>
      </trkpt>
      <trkpt lat="50.365689983591437" lon="-4.386813025921583">
        <ele>18.879999999999999</ele>
        <time>2026-06-23T08:18:16Z</time>
      </trkpt>
      <trkpt lat="50.365712027996778" lon="-4.386921990662813">
        <ele>19.359999999999999</ele>
        <time>2026-06-23T08:18:17Z</time>
      </trkpt>
      <trkpt lat="50.365728959441185" lon="-4.387007988989353">
        <ele>19.359999999999999</ele>
        <time>2026-06-23T08:18:18Z</time>
      </trkpt>
      <trkpt lat="50.36573801189661" lon="-4.387059034779668">
        <ele>19.359999999999999</ele>
        <time>2026-06-23T08:18:19Z</time>
      </trkpt>
      <trkpt lat="50.365640027448535" lon="-4.387157019227743">
        <ele>19.359999999999999</ele>
        <time>2026-06-23T08:18:20Z</time>
      </trkpt>
      <trkpt lat="50.365594010800123" lon="-4.387130029499531">
        <ele>19.359999999999999</ele>
        <time>2026-06-23T08:18:21Z</time>
      </trkpt>
      <trkpt lat="50.365535002201796" lon="-4.387094993144274">
        <ele>19.359999999999999</ele>
        <time>2026-06-23T08:18:22Z</time>
      </trkpt>
      <trkpt lat="50.365449003875256" lon="-4.38704302534461">
        <ele>19.359999999999999</ele>
        <time>2026-06-23T08:18:23Z</time>
      </trkpt>
      <trkpt lat="50.365374991670251" lon="-4.387074038386345">
        <ele>19.359999999999999</ele>
        <time>2026-06-23T08:18:24Z</time>
      </trkpt>
      <trkpt lat="50.365297961980104" lon="-4.387106979265809">
        <ele>18.879999999999999</ele>
        <time>2026-06-23T08:18:25Z</time>
      </trkpt>
      <trkpt lat="50.365240965038538" lon="-4.387180991470814">
        <ele>19.359999999999999</ele>
        <time>2026-06-23T08:18:26Z</time>
      </trkpt>
      <trkpt lat="50.365182040259242" lon="-4.387256009504199">
        <ele>19.359999999999999</ele>
        <time>2026-06-23T08:18:27Z</time>
      </trkpt>
      <trkpt lat="50.365138035267591" lon="-4.387342007830739">
        <ele>20.32</ele>
        <time>2026-06-23T08:18:28Z</time>
      </trkpt>
      <trkpt lat="50.365110961720347" lon="-4.387458013370633">
        <ele>21.289999999999999</ele>
        <time>2026-06-23T08:18:29Z</time>
      </trkpt>
      <trkpt lat="50.365082966163754" lon="-4.387579970061779">
        <ele>22.73</ele>
        <time>2026-06-23T08:18:30Z</time>
      </trkpt>
      <trkpt lat="50.365051031112671" lon="-4.387712990865111">
        <ele>23.690000000000001</ele>
        <time>2026-06-23T08:18:31Z</time>
      </trkpt>
      <trkpt lat="50.364694967865944" lon="-4.389075972139835">
        <ele>33.780000000000001</ele>
        <time>2026-06-23T08:18:41Z</time>
      </trkpt>
      <trkpt lat="50.364482989534736" lon="-4.389724982902408">
        <ele>40.030000000000001</ele>
        <time>2026-06-23T08:18:47Z</time>
      </trkpt>
      <trkpt lat="50.364482989534736" lon="-4.38990100286901">
        <ele>40.509999999999998</ele>
        <time>2026-06-23T08:18:48Z</time>
      </trkpt>
      <trkpt lat="50.364482989534736" lon="-4.390019020065665">
        <ele>40.509999999999998</ele>
        <time>2026-06-23T08:18:49Z</time>
      </trkpt>
      <trkpt lat="50.364482989534736" lon="-4.390258993953466">
        <ele>40.990000000000002</ele>
        <time>2026-06-23T08:18:51Z</time>
      </trkpt>
      <trkpt lat="50.364487012848258" lon="-4.390541967004538">
        <ele>42.439999999999998</ele>
        <time>2026-06-23T08:18:53Z</time>
      </trkpt>
      <trkpt lat="50.364623973146081" lon="-4.391323998570442">
        <ele>48.68</ele>
        <time>2026-06-23T08:18:59Z</time>
      </trkpt>
      <trkpt lat="50.364647023379803" lon="-4.391431035473943">
        <ele>49.649999999999999</ele>
        <time>2026-06-23T08:19:00Z</time>
      </trkpt>
      <trkpt lat="50.364670995622873" lon="-4.391541006043553">
        <ele>50.609999999999999</ele>
        <time>2026-06-23T08:19:01Z</time>
      </trkpt>
      <trkpt lat="50.364722041413188" lon="-4.391778968274593">
        <ele>52.530000000000001</ele>
        <time>2026-06-23T08:19:03Z</time>
      </trkpt>
      <trkpt lat="50.364750036969781" lon="-4.391905032098293">
        <ele>53.009999999999998</ele>
        <time>2026-06-23T08:19:04Z</time>
      </trkpt>
      <trkpt lat="50.364870987832546" lon="-4.392745988443494">
        <ele>56.859999999999999</ele>
        <time>2026-06-23T08:19:10Z</time>
      </trkpt>
      <trkpt lat="50.364881968125701" lon="-4.392867023125291">
        <ele>57.82</ele>
        <time>2026-06-23T08:19:11Z</time>
      </trkpt>
      <trkpt lat="50.365010965615511" lon="-4.393556015565991">
        <ele>60.700000000000003</ele>
        <time>2026-06-23T08:19:17Z</time>
      </trkpt>
      <trkpt lat="50.365054970607162" lon="-4.393631033599377">
        <ele>61.659999999999997</ele>
        <time>2026-06-23T08:19:18Z</time>
      </trkpt>
      <trkpt lat="50.365551011636853" lon="-4.394524963572621">
        <ele>68.390000000000001</ele>
        <time>2026-06-23T08:19:27Z</time>
      </trkpt>
      <trkpt lat="50.365586970001459" lon="-4.394645998254418">
        <ele>69.349999999999994</ele>
        <time>2026-06-23T08:19:28Z</time>
      </trkpt>
      <trkpt lat="50.365624018013477" lon="-4.394771978259087">
        <ele>71.269999999999996</ele>
        <time>2026-06-23T08:19:29Z</time>
      </trkpt>
      <trkpt lat="50.365662993863225" lon="-4.394900975748897">
        <ele>72.719999999999999</ele>
        <time>2026-06-23T08:19:30Z</time>
      </trkpt>
      <trkpt lat="50.365700963884592" lon="-4.395029973238707">
        <ele>74.640000000000001</ele>
        <time>2026-06-23T08:19:31Z</time>
      </trkpt>
      <trkpt lat="50.365748992189765" lon="-4.395191995427012">
        <ele>76.560000000000002</ele>
        <time>2026-06-23T08:19:32Z</time>
      </trkpt>
      <trkpt lat="50.365801965817809" lon="-4.395370027050376">
        <ele>78.480000000000004</ele>
        <time>2026-06-23T08:19:33Z</time>
      </trkpt>
      <trkpt lat="50.36584303714335" lon="-4.39550899900496">
        <ele>79.930000000000007</ele>
        <time>2026-06-23T08:19:34Z</time>
      </trkpt>
      <trkpt lat="50.365877989679575" lon="-4.395626010373235">
        <ele>81.849999999999994</ele>
        <time>2026-06-23T08:19:35Z</time>
      </trkpt>
      <trkpt lat="50.365907996892929" lon="-4.395772023126483">
        <ele>83.769999999999996</ele>
        <time>2026-06-23T08:19:36Z</time>
      </trkpt>
      <trkpt lat="50.365938004106283" lon="-4.395913006737828">
        <ele>85.689999999999998</ele>
        <time>2026-06-23T08:19:37Z</time>
      </trkpt>
      <trkpt lat="50.365967005491257" lon="-4.396054996177554">
        <ele>87.140000000000001</ele>
        <time>2026-06-23T08:19:38Z</time>
      </trkpt>
      <trkpt lat="50.365988966077566" lon="-4.396192040294409">
        <ele>89.060000000000002</ele>
        <time>2026-06-23T08:19:39Z</time>
      </trkpt>
      <trkpt lat="50.365999024361372" lon="-4.396337969228625">
        <ele>90.980000000000004</ele>
        <time>2026-06-23T08:19:40Z</time>
      </trkpt>
      <trkpt lat="50.366008998826146" lon="-4.396490016952157">
        <ele>92.420000000000002</ele>
        <time>2026-06-23T08:19:41Z</time>
      </trkpt>
      <trkpt lat="50.366019979119301" lon="-4.396655978634954">
        <ele>93.870000000000005</ele>
        <time>2026-06-23T08:19:42Z</time>
      </trkpt>
      <trkpt lat="50.366027019917965" lon="-4.396813977509737">
        <ele>95.310000000000002</ele>
        <time>2026-06-23T08:19:43Z</time>
      </trkpt>
      <trkpt lat="50.366024002432823" lon="-4.396974993869662">
        <ele>96.75</ele>
        <time>2026-06-23T08:19:44Z</time>
      </trkpt>
      <trkpt lat="50.366019979119301" lon="-4.397125029936433">
        <ele>98.189999999999998</ele>
        <time>2026-06-23T08:19:45Z</time>
      </trkpt>
      <trkpt lat="50.36601796746254" lon="-4.397261990234256">
        <ele>99.150000000000006</ele>
        <time>2026-06-23T08:19:46Z</time>
      </trkpt>
      <trkpt lat="50.366006987169385" lon="-4.397753002122045">
        <ele>102.04000000000001</ele>
        <time>2026-06-23T08:19:50Z</time>
      </trkpt>
      <trkpt lat="50.366027019917965" lon="-4.397899014875293">
        <ele>103</ele>
        <time>2026-06-23T08:19:51Z</time>
      </trkpt>
      <trkpt lat="50.36623002961278" lon="-4.398901993408799">
        <ele>105.40000000000001</ele>
        <time>2026-06-23T08:19:58Z</time>
      </trkpt>
      <trkpt lat="50.366267999634147" lon="-4.39905303530395">
        <ele>106.36</ele>
        <time>2026-06-23T08:19:59Z</time>
      </trkpt>
      <trkpt lat="50.366308987140656" lon="-4.399220002815127">
        <ele>107.31999999999999</ele>
        <time>2026-06-23T08:20:00Z</time>
      </trkpt>
      <trkpt lat="50.366350980475545" lon="-4.399384036660194">
        <ele>107.81</ele>
        <time>2026-06-23T08:20:01Z</time>
      </trkpt>
      <trkpt lat="50.366390040144324" lon="-4.399542035534978">
        <ele>108.77</ele>
        <time>2026-06-23T08:20:02Z</time>
      </trkpt>
      <trkpt lat="50.3664880245924" lon="-4.399845041334629">
        <ele>109.73</ele>
        <time>2026-06-23T08:20:04Z</time>
      </trkpt>
      <trkpt lat="50.366609981283545" lon="-4.400129020214081">
        <ele>110.20999999999999</ele>
        <time>2026-06-23T08:20:06Z</time>
      </trkpt>
      <trkpt lat="50.366673013195395" lon="-4.40027603879571">
        <ele>111.17</ele>
        <time>2026-06-23T08:20:07Z</time>
      </trkpt>
      <trkpt lat="50.367310037836432" lon="-4.401757959276438">
        <ele>120.78</ele>
        <time>2026-06-23T08:20:17Z</time>
      </trkpt>
      <trkpt lat="50.367502989247441" lon="-4.402155010029674">
        <ele>123.67</ele>
        <time>2026-06-23T08:20:20Z</time>
      </trkpt>
      <trkpt lat="50.367637015879154" lon="-4.402380986139178">
        <ele>126.06999999999999</ele>
        <time>2026-06-23T08:20:22Z</time>
      </trkpt>
      <trkpt lat="50.36769300699234" lon="-4.402476036921144">
        <ele>127.03</ele>
        <time>2026-06-23T08:20:23Z</time>
      </trkpt>
      <trkpt lat="50.367745980620384" lon="-4.402564968913794">
        <ele>127.98999999999999</ele>
        <time>2026-06-23T08:20:24Z</time>
      </trkpt>
      <trkpt lat="50.367802977561951" lon="-4.402660019695759">
        <ele>128.94999999999999</ele>
        <time>2026-06-23T08:20:25Z</time>
      </trkpt>
      <trkpt lat="50.367848994210362" lon="-4.402806032449007">
        <ele>130.40000000000001</ele>
        <time>2026-06-23T08:20:26Z</time>
      </trkpt>
      <trkpt lat="50.367870032787323" lon="-4.402914997190237">
        <ele>131.36000000000001</ele>
        <time>2026-06-23T08:20:27Z</time>
      </trkpt>
      <trkpt lat="50.367939015850425" lon="-4.403279023244977">
        <ele>135.68000000000001</ele>
        <time>2026-06-23T08:20:30Z</time>
      </trkpt>
      <trkpt lat="50.368031971156597" lon="-4.403771962970495">
        <ele>140.97</ele>
        <time>2026-06-23T08:20:34Z</time>
      </trkpt>
      <trkpt lat="50.368055021390319" lon="-4.40388897433877">
        <ele>141.93000000000001</ele>
        <time>2026-06-23T08:20:35Z</time>
      </trkpt>
      <trkpt lat="50.368064995855093" lon="-4.404024006798863">
        <ele>142.88999999999999</ele>
        <time>2026-06-23T08:20:36Z</time>
      </trkpt>
      <trkpt lat="50.368061978369951" lon="-4.40414696931839">
        <ele>144.34</ele>
        <time>2026-06-23T08:20:37Z</time>
      </trkpt>
      <trkpt lat="50.368058038875461" lon="-4.404277978464961">
        <ele>145.30000000000001</ele>
        <time>2026-06-23T08:20:38Z</time>
      </trkpt>
      <trkpt lat="50.368055021390319" lon="-4.404421979561448">
        <ele>146.25999999999999</ele>
        <time>2026-06-23T08:20:39Z</time>
      </trkpt>
      <trkpt lat="50.368050998076797" lon="-4.404568998143077">
        <ele>147.22</ele>
        <time>2026-06-23T08:20:40Z</time>
      </trkpt>
      <trkpt lat="50.368046974763274" lon="-4.404716016724706">
        <ele>147.69999999999999</ele>
        <time>2026-06-23T08:20:41Z</time>
      </trkpt>
      <trkpt lat="50.368054015561938" lon="-4.404873009771109">
        <ele>148.66</ele>
        <time>2026-06-23T08:20:42Z</time>
      </trkpt>
      <trkpt lat="50.368118975311518" lon="-4.405309958383441">
        <ele>151.53999999999999</ele>
        <time>2026-06-23T08:20:45Z</time>
      </trkpt>
      <trkpt lat="50.368138002231717" lon="-4.405419006943703">
        <ele>152.50999999999999</ele>
        <time>2026-06-23T08:20:46Z</time>
      </trkpt>
      <trkpt lat="50.368161974474788" lon="-4.405511962249875">
        <ele>153.47</ele>
        <time>2026-06-23T08:20:47Z</time>
      </trkpt>
      <trkpt lat="50.368179995566607" lon="-4.405587986111641">
        <ele>153.94999999999999</ele>
        <time>2026-06-23T08:20:48Z</time>
      </trkpt>
      <trkpt lat="50.368290971964598" lon="-4.40565001219511">
        <ele>154.43000000000001</ele>
        <time>2026-06-23T08:20:49Z</time>
      </trkpt>
      <trkpt lat="50.368359033018351" lon="-4.405652023851872">
        <ele>154.91</ele>
        <time>2026-06-23T08:20:50Z</time>
      </trkpt>
      <trkpt lat="50.368446037173271" lon="-4.405655041337013">
        <ele>154.91</ele>
        <time>2026-06-23T08:20:51Z</time>
      </trkpt>
      <trkpt lat="50.368541004136205" lon="-4.405657975003123">
        <ele>155.38999999999999</ele>
        <time>2026-06-23T08:20:52Z</time>
      </trkpt>
      <trkpt lat="50.368742002174258" lon="-4.405665015801787">
        <ele>154.91</ele>
        <time>2026-06-23T08:20:54Z</time>
      </trkpt>
      <trkpt lat="50.368852978572249" lon="-4.40566903911531">
        <ele>155.38999999999999</ele>
        <time>2026-06-23T08:20:55Z</time>
      </trkpt>
      <trkpt lat="50.368965966627002" lon="-4.4056729786098">
        <ele>155.87</ele>
        <time>2026-06-23T08:20:56Z</time>
      </trkpt>
      <trkpt lat="50.36949897184968" lon="-4.405739028006792">
        <ele>157.78999999999999</ele>
        <time>2026-06-23T08:21:01Z</time>
      </trkpt>
      <trkpt lat="50.369597040116787" lon="-4.405798958614469">
        <ele>158.75</ele>
        <time>2026-06-23T08:21:02Z</time>
      </trkpt>
      <trkpt lat="50.369698964059353" lon="-4.405861990526319">
        <ele>159.72</ele>
        <time>2026-06-23T08:21:03Z</time>
      </trkpt>
      <trkpt lat="50.369975985959172" lon="-4.406032981351018">
        <ele>162.12</ele>
        <time>2026-06-23T08:21:06Z</time>
      </trkpt>
      <trkpt lat="50.37005796097219" lon="-4.405999034643173">
        <ele>162.59999999999999</ele>
        <time>2026-06-23T08:21:07Z</time>
      </trkpt>
      <trkpt lat="50.370135996490717" lon="-4.405967015773058">
        <ele>162.59999999999999</ele>
        <time>2026-06-23T08:21:08Z</time>
      </trkpt>
      <trkpt lat="50.370215959846973" lon="-4.405933991074562">
        <ele>163.08000000000001</ele>
        <time>2026-06-23T08:21:09Z</time>
      </trkpt>
      <trkpt lat="50.370300030335784" lon="-4.405899960547686">
        <ele>163.08000000000001</ele>
        <time>2026-06-23T08:21:10Z</time>
      </trkpt>
      <trkpt lat="50.370341017842293" lon="-4.405882023274899">
        <ele>163.08000000000001</ele>
        <time>2026-06-23T08:21:11Z</time>
      </trkpt>
      <trkpt lat="50.370456017553806" lon="-4.405924016609788">
        <ele>162.59999999999999</ele>
        <time>2026-06-23T08:21:12Z</time>
      </trkpt>
      <trkpt lat="50.370527012273669" lon="-4.405948994681239">
        <ele>162.59999999999999</ele>
        <time>2026-06-23T08:21:13Z</time>
      </trkpt>
      <trkpt lat="50.370687022805214" lon="-4.40597103908658">
        <ele>161.63999999999999</ele>
        <time>2026-06-23T08:21:15Z</time>
      </trkpt>
      <trkpt lat="50.370764974504709" lon="-4.405939020216465">
        <ele>161.16</ele>
        <time>2026-06-23T08:21:16Z</time>
      </trkpt>
      <trkpt lat="50.370846027508378" lon="-4.405905995517969">
        <ele>160.68000000000001</ele>
        <time>2026-06-23T08:21:17Z</time>
      </trkpt>
      <trkpt lat="50.371541976928711" lon="-4.405751014128327">
        <ele>153.94999999999999</ele>
        <time>2026-06-23T08:21:26Z</time>
      </trkpt>
      <trkpt lat="50.371594028547406" lon="-4.405770963057876">
        <ele>153.47</ele>
        <time>2026-06-23T08:21:27Z</time>
      </trkpt>
      <trkpt lat="50.37162596359849" lon="-4.405803987756372">
        <ele>152.50999999999999</ele>
        <time>2026-06-23T08:21:28Z</time>
      </trkpt>
      <trkpt lat="50.371650019660592" lon="-4.405839024111629">
        <ele>151.53999999999999</ele>
        <time>2026-06-23T08:21:29Z</time>
      </trkpt>
      <trkpt lat="50.371644990518689" lon="-4.405893003568053">
        <ele>151.06</ele>
        <time>2026-06-23T08:21:30Z</time>
      </trkpt>
      <trkpt lat="50.371637027710676" lon="-4.405986964702606">
        <ele>150.58000000000001</ele>
        <time>2026-06-23T08:21:31Z</time>
      </trkpt>
      <trkpt lat="50.37162696942687" lon="-4.40609903074801">
        <ele>149.62</ele>
        <time>2026-06-23T08:21:32Z</time>
      </trkpt>
      <trkpt lat="50.371615989133716" lon="-4.40622802823782">
        <ele>149.62</ele>
        <time>2026-06-23T08:21:33Z</time>
      </trkpt>
      <trkpt lat="50.371607020497322" lon="-4.406332969665527">
        <ele>149.13999999999999</ele>
        <time>2026-06-23T08:21:34Z</time>
      </trkpt>
      <trkpt lat="50.371394958347082" lon="-4.407392023131251">
        <ele>148.18000000000001</ele>
        <time>2026-06-23T08:21:42Z</time>
      </trkpt>
      <trkpt lat="50.371366962790489" lon="-4.407534012570977">
        <ele>148.18000000000001</ele>
        <time>2026-06-23T08:21:43Z</time>
      </trkpt>
      <trkpt lat="50.371339973062277" lon="-4.407668961212039">
        <ele>148.18000000000001</ele>
        <time>2026-06-23T08:21:44Z</time>
      </trkpt>
      <trkpt lat="50.371313989162445" lon="-4.407797958701849">
        <ele>148.18000000000001</ele>
        <time>2026-06-23T08:21:45Z</time>
      </trkpt>
      <trkpt lat="50.371285993605852" lon="-4.407935002818704">
        <ele>148.18000000000001</ele>
        <time>2026-06-23T08:21:46Z</time>
      </trkpt>
      <trkpt lat="50.371181974187493" lon="-4.408561969175935">
        <ele>148.18000000000001</ele>
        <time>2026-06-23T08:21:51Z</time>
      </trkpt>
      <trkpt lat="50.371176023036242" lon="-4.408803032711148">
        <ele>148.66</ele>
        <time>2026-06-23T08:21:53Z</time>
      </trkpt>
      <trkpt lat="50.371219022199512" lon="-4.408900011330843">
        <ele>149.13999999999999</ele>
        <time>2026-06-23T08:21:54Z</time>
      </trkpt>
      <trkpt lat="50.371265038847923" lon="-4.409004030749202">
        <ele>149.13999999999999</ele>
        <time>2026-06-23T08:21:55Z</time>
      </trkpt>
      <trkpt lat="50.371312983334064" lon="-4.409111989662051">
        <ele>150.09999999999999</ele>
        <time>2026-06-23T08:21:56Z</time>
      </trkpt>
      <trkpt lat="50.371360005810857" lon="-4.409219026565552">
        <ele>150.58000000000001</ele>
        <time>2026-06-23T08:21:57Z</time>
      </trkpt>
      <trkpt lat="50.371406022459269" lon="-4.409322962164879">
        <ele>151.06</ele>
        <time>2026-06-23T08:21:58Z</time>
      </trkpt>
      <trkpt lat="50.37153803743422" lon="-4.40962303429842">
        <ele>153.47</ele>
        <time>2026-06-23T08:22:01Z</time>
      </trkpt>
      <trkpt lat="50.37158103659749" lon="-4.409739039838314">
        <ele>153.94999999999999</ele>
        <time>2026-06-23T08:22:02Z</time>
      </trkpt>
      <trkpt lat="50.371885970234871" lon="-4.410816030576825">
        <ele>156.83000000000001</ele>
        <time>2026-06-23T08:22:10Z</time>
      </trkpt>
      <trkpt lat="50.371944978833199" lon="-4.411074025556445">
        <ele>156.83000000000001</ele>
        <time>2026-06-23T08:22:12Z</time>
      </trkpt>
      <trkpt lat="50.372158968821168" lon="-4.412433989346027">
        <ele>153.94999999999999</ele>
        <time>2026-06-23T08:22:22Z</time>
      </trkpt>
      <trkpt lat="50.37218595854938" lon="-4.41256801597774">
        <ele>153.47</ele>
        <time>2026-06-23T08:22:23Z</time>
      </trkpt>
      <trkpt lat="50.372215965762734" lon="-4.412703970447183">
        <ele>153.47</ele>
        <time>2026-06-23T08:22:24Z</time>
      </trkpt>
      <trkpt lat="50.372243961319327" lon="-4.412833973765373">
        <ele>152.99000000000001</ele>
        <time>2026-06-23T08:22:25Z</time>
      </trkpt>
      <trkpt lat="50.372272040694952" lon="-4.412960037589073">
        <ele>152.50999999999999</ele>
        <time>2026-06-23T08:22:26Z</time>
      </trkpt>
      <trkpt lat="50.372300036251545" lon="-4.413089035078883">
        <ele>152.50999999999999</ele>
        <time>2026-06-23T08:22:27Z</time>
      </trkpt>
      <trkpt lat="50.372337000444531" lon="-4.413217026740313">
        <ele>152.50999999999999</ele>
        <time>2026-06-23T08:22:28Z</time>
      </trkpt>
      <trkpt lat="50.37237798795104" lon="-4.413331020623446">
        <ele>152.50999999999999</ele>
        <time>2026-06-23T08:22:29Z</time>
      </trkpt>
      <trkpt lat="50.372429033741355" lon="-4.413431016728282">
        <ele>152.03</ele>
        <time>2026-06-23T08:22:30Z</time>
      </trkpt>
      <trkpt lat="50.372491981834173" lon="-4.413517015054822">
        <ele>152.50999999999999</ele>
        <time>2026-06-23T08:22:31Z</time>
      </trkpt>
      <trkpt lat="50.372560964897275" lon="-4.413611982017756">
        <ele>152.50999999999999</ele>
        <time>2026-06-23T08:22:32Z</time>
      </trkpt>
      <trkpt lat="50.372706977650523" lon="-4.413810968399048">
        <ele>152.50999999999999</ele>
        <time>2026-06-23T08:22:34Z</time>
      </trkpt>
      <trkpt lat="50.373440980911255" lon="-4.41480397246778">
        <ele>151.53999999999999</ele>
        <time>2026-06-23T08:22:43Z</time>
      </trkpt>
      <trkpt lat="50.374323008581996" lon="-4.415787002071738">
        <ele>148.66</ele>
        <time>2026-06-23T08:22:53Z</time>
      </trkpt>
      <trkpt lat="50.374683011323214" lon="-4.416187992319465">
        <ele>149.13999999999999</ele>
        <time>2026-06-23T08:22:57Z</time>
      </trkpt>
      <trkpt lat="50.374793987721205" lon="-4.416243983432651">
        <ele>149.62</ele>
        <time>2026-06-23T08:22:58Z</time>
      </trkpt>
      <trkpt lat="50.374904964119196" lon="-4.416290000081062">
        <ele>149.62</ele>
        <time>2026-06-23T08:22:59Z</time>
      </trkpt>
      <trkpt lat="50.375952031463385" lon="-4.416826022788882">
        <ele>151.06</ele>
        <time>2026-06-23T08:23:09Z</time>
      </trkpt>
      <trkpt lat="50.376155963167548" lon="-4.416990978643298">
        <ele>151.06</ele>
        <time>2026-06-23T08:23:11Z</time>
      </trkpt>
      <trkpt lat="50.376260988414288" lon="-4.417073959484696">
        <ele>150.58000000000001</ele>
        <time>2026-06-23T08:23:12Z</time>
      </trkpt>
      <trkpt lat="50.377054000273347" lon="-4.417711989954114">
        <ele>151.53999999999999</ele>
        <time>2026-06-23T08:23:20Z</time>
      </trkpt>
      <trkpt lat="50.377155002206564" lon="-4.417773010209203">
        <ele>152.03</ele>
        <time>2026-06-23T08:23:21Z</time>
      </trkpt>
      <trkpt lat="50.37725399248302" lon="-4.417818021029234">
        <ele>152.50999999999999</ele>
        <time>2026-06-23T08:23:22Z</time>
      </trkpt>
      <trkpt lat="50.377335967496037" lon="-4.417855991050601">
        <ele>152.50999999999999</ele>
        <time>2026-06-23T08:23:23Z</time>
      </trkpt>
      <trkpt lat="50.377437975257635" lon="-4.417882980778813">
        <ele>152.99000000000001</ele>
        <time>2026-06-23T08:23:24Z</time>
      </trkpt>
      <trkpt lat="50.378013979643583" lon="-4.418034022673965">
        <ele>155.38999999999999</ele>
        <time>2026-06-23T08:23:32Z</time>
      </trkpt>
      <trkpt lat="50.37804901599884" lon="-4.418042991310358">
        <ele>155.38999999999999</ele>
        <time>2026-06-23T08:23:39Z</time>
      </trkpt>
      <trkpt lat="50.378076005727053" lon="-4.418050032109022">
        <ele>155.38999999999999</ele>
        <time>2026-06-23T08:23:44Z</time>
      </trkpt>
      <trkpt lat="50.378096960484982" lon="-4.418055983260274">
        <ele>155.38999999999999</ele>
        <time>2026-06-23T08:23:45Z</time>
      </trkpt>
      <trkpt lat="50.378124034032226" lon="-4.418063024058938">
        <ele>154.91</ele>
        <time>2026-06-23T08:23:46Z</time>
      </trkpt>
      <trkpt lat="50.378184970468283" lon="-4.418079033493996">
        <ele>154.91</ele>
        <time>2026-06-23T08:23:48Z</time>
      </trkpt>
      <trkpt lat="50.378231992945075" lon="-4.418091019615531">
        <ele>154.43000000000001</ele>
        <time>2026-06-23T08:23:49Z</time>
      </trkpt>
      <trkpt lat="50.378363002091646" lon="-4.418123038485646">
        <ele>153.94999999999999</ele>
        <time>2026-06-23T08:23:51Z</time>
      </trkpt>
      <trkpt lat="50.378817971795797" lon="-4.418237032368779">
        <ele>151.53999999999999</ele>
        <time>2026-06-23T08:23:57Z</time>
      </trkpt>
      <trkpt lat="50.378897013142705" lon="-4.418256981298327">
        <ele>151.53999999999999</ele>
        <time>2026-06-23T08:23:58Z</time>
      </trkpt>
      <trkpt lat="50.378976976498961" lon="-4.418277014046907">
        <ele>151.06</ele>
        <time>2026-06-23T08:23:59Z</time>
      </trkpt>
      <trkpt lat="50.379207981750369" lon="-4.418334010988474">
        <ele>149.62</ele>
        <time>2026-06-23T08:24:02Z</time>
      </trkpt>
      <trkpt lat="50.379285011440516" lon="-4.41836703568697">
        <ele>149.13999999999999</ele>
        <time>2026-06-23T08:24:03Z</time>
      </trkpt>
      <trkpt lat="50.37935801781714" lon="-4.418442975729704">
        <ele>148.66</ele>
        <time>2026-06-23T08:24:04Z</time>
      </trkpt>
      <trkpt lat="50.379434041678905" lon="-4.418523022904992">
        <ele>148.66</ele>
        <time>2026-06-23T08:24:05Z</time>
      </trkpt>
      <trkpt lat="50.379508975893259" lon="-4.418600974604487">
        <ele>148.66</ele>
        <time>2026-06-23T08:24:06Z</time>
      </trkpt>
      <trkpt lat="50.380335012450814" lon="-4.419702021405101">
        <ele>152.50999999999999</ele>
        <time>2026-06-23T08:24:19Z</time>
      </trkpt>
      <trkpt lat="50.380972037091851" lon="-4.420971041545272">
        <ele>152.50999999999999</ele>
        <time>2026-06-23T08:24:31Z</time>
      </trkpt>
      <trkpt lat="50.381562961265445" lon="-4.422514988109469">
        <ele>153.47</ele>
        <time>2026-06-23T08:24:43Z</time>
      </trkpt>
      <trkpt lat="50.381788015365601" lon="-4.423105996102095">
        <ele>153.47</ele>
        <time>2026-06-23T08:24:48Z</time>
      </trkpt>
      <trkpt lat="50.382332000881433" lon="-4.425015980377793">
        <ele>152.99000000000001</ele>
        <time>2026-06-23T08:25:01Z</time>
      </trkpt>
      <trkpt lat="50.382664008066058" lon="-4.426544001325965">
        <ele>153.47</ele>
        <time>2026-06-23T08:25:12Z</time>
      </trkpt>
      <trkpt lat="50.382805997505784" lon="-4.427451007068157">
        <ele>150.09999999999999</ele>
        <time>2026-06-23T08:25:20Z</time>
      </trkpt>
      <trkpt lat="50.382790993899107" lon="-4.427551003172994">
        <ele>149.62</ele>
        <time>2026-06-23T08:25:21Z</time>
      </trkpt>
      <trkpt lat="50.382772972807288" lon="-4.427643036469817">
        <ele>149.13999999999999</ele>
        <time>2026-06-23T08:25:22Z</time>
      </trkpt>
      <trkpt lat="50.382743971422315" lon="-4.427731968462467">
        <ele>148.66</ele>
        <time>2026-06-23T08:25:23Z</time>
      </trkpt>
      <trkpt lat="50.382708013057709" lon="-4.427817966789007">
        <ele>148.66</ele>
        <time>2026-06-23T08:25:24Z</time>
      </trkpt>
      <trkpt lat="50.38266995921731" lon="-4.427906982600689">
        <ele>148.18000000000001</ele>
        <time>2026-06-23T08:25:25Z</time>
      </trkpt>
      <trkpt lat="50.382545990869403" lon="-4.428200013935566">
        <ele>146.74000000000001</ele>
        <time>2026-06-23T08:25:28Z</time>
      </trkpt>
      <trkpt lat="50.38249796256423" lon="-4.428296992555261">
        <ele>146.74000000000001</ele>
        <time>2026-06-23T08:25:29Z</time>
      </trkpt>
      <trkpt lat="50.381992030888796" lon="-4.429227970540524">
        <ele>142.41</ele>
        <time>2026-06-23T08:25:40Z</time>
      </trkpt>
      <trkpt lat="50.3819590061903" lon="-4.429410025477409">
        <ele>137.61000000000001</ele>
        <time>2026-06-23T08:25:48Z</time>
      </trkpt>
      <trkpt lat="50.381905026733875" lon="-4.429608006030321">
        <ele>136.16</ele>
        <time>2026-06-23T08:25:57Z</time>
      </trkpt>
      <trkpt lat="50.381659017875791" lon="-4.430025005713105">
        <ele>134.72</ele>
        <time>2026-06-23T08:26:01Z</time>
      </trkpt>
      <trkpt lat="50.380933983251452" lon="-4.431950999423862">
        <ele>125.59</ele>
        <time>2026-06-23T08:26:12Z</time>
      </trkpt>
      <trkpt lat="50.380685962736607" lon="-4.43267997354269">
        <ele>121.73999999999999</ele>
        <time>2026-06-23T08:26:16Z</time>
      </trkpt>
      <trkpt lat="50.380636006593704" lon="-4.432869991287589">
        <ele>121.26000000000001</ele>
        <time>2026-06-23T08:26:17Z</time>
      </trkpt>
      <trkpt lat="50.380417993292212" lon="-4.433635007590056">
        <ele>117.90000000000001</ele>
        <time>2026-06-23T08:26:21Z</time>
      </trkpt>
      <trkpt lat="50.380230993032455" lon="-4.433954022824764">
        <ele>115.01000000000001</ele>
        <time>2026-06-23T08:26:23Z</time>
      </trkpt>
      <trkpt lat="50.379336979240179" lon="-4.435481037944555">
        <ele>99.629999999999995</ele>
        <time>2026-06-23T08:26:31Z</time>
      </trkpt>
      <trkpt lat="50.378418993204832" lon="-4.437435027211905">
        <ele>90.5</ele>
        <time>2026-06-23T08:26:40Z</time>
      </trkpt>
      <trkpt lat="50.37779001519084" lon="-4.438936980441213">
        <ele>98.670000000000002</ele>
        <time>2026-06-23T08:26:47Z</time>
      </trkpt>
      <trkpt lat="50.377688007429242" lon="-4.439120963215828">
        <ele>100.11</ele>
        <time>2026-06-23T08:26:48Z</time>
      </trkpt>
      <trkpt lat="50.37757501937449" lon="-4.43929698318243">
        <ele>101.56</ele>
        <time>2026-06-23T08:26:49Z</time>
      </trkpt>
      <trkpt lat="50.377461025491357" lon="-4.439475014805794">
        <ele>103.48</ele>
        <time>2026-06-23T08:26:50Z</time>
      </trkpt>
      <trkpt lat="50.376897007226944" lon="-4.440227039158344">
        <ele>114.05</ele>
        <time>2026-06-23T08:26:55Z</time>
      </trkpt>
      <trkpt lat="50.376126039773226" lon="-4.441200010478497">
        <ele>117.42</ele>
        <time>2026-06-23T08:27:03Z</time>
      </trkpt>
      <trkpt lat="50.375091964378953" lon="-4.442500965669751">
        <ele>109.25</ele>
        <time>2026-06-23T08:27:13Z</time>
      </trkpt>
      <trkpt lat="50.37405101582408" lon="-4.44348500110209">
        <ele>102.52</ele>
        <time>2026-06-23T08:27:23Z</time>
      </trkpt>
      <trkpt lat="50.373102016746998" lon="-4.444182040169835">
        <ele>98.670000000000002</ele>
        <time>2026-06-23T08:27:32Z</time>
      </trkpt>
      <trkpt lat="50.371656976640224" lon="-4.445169009268284">
        <ele>100.59999999999999</ele>
        <time>2026-06-23T08:27:43Z</time>
      </trkpt>
      <trkpt lat="50.370576968416572" lon="-4.445849033072591">
        <ele>96.269999999999996</ele>
        <time>2026-06-23T08:27:52Z</time>
      </trkpt>
      <trkpt lat="50.370471021160483" lon="-4.445916004478931">
        <ele>95.310000000000002</ele>
        <time>2026-06-23T08:27:53Z</time>
      </trkpt>
      <trkpt lat="50.3700159676373" lon="-4.446061011403799">
        <ele>92.900000000000006</ele>
        <time>2026-06-23T08:27:58Z</time>
      </trkpt>
      <trkpt lat="50.369942039251328" lon="-4.446081966161728">
        <ele>92.420000000000002</ele>
        <time>2026-06-23T08:27:59Z</time>
      </trkpt>
      <trkpt lat="50.369559992104769" lon="-4.446205012500286">
        <ele>90.019999999999996</ele>
        <time>2026-06-23T08:28:04Z</time>
      </trkpt>
      <trkpt lat="50.369471982121468" lon="-4.446239965036511">
        <ele>89.540000000000006</ele>
        <time>2026-06-23T08:28:05Z</time>
      </trkpt>
      <trkpt lat="50.369395958259702" lon="-4.446309031918645">
        <ele>89.060000000000002</ele>
        <time>2026-06-23T08:28:06Z</time>
      </trkpt>
      <trkpt lat="50.36930400878191" lon="-4.446401987224817">
        <ele>88.579999999999998</ele>
        <time>2026-06-23T08:28:07Z</time>
      </trkpt>
      <trkpt lat="50.369236031547189" lon="-4.446512963622809">
        <ele>88.099999999999994</ele>
        <time>2026-06-23T08:28:08Z</time>
      </trkpt>
      <trkpt lat="50.369169982150197" lon="-4.446666017174721">
        <ele>88.099999999999994</ele>
        <time>2026-06-23T08:28:09Z</time>
      </trkpt>
      <trkpt lat="50.369107034057379" lon="-4.44681303575635">
        <ele>87.620000000000005</ele>
        <time>2026-06-23T08:28:10Z</time>
      </trkpt>
      <trkpt lat="50.369066968560219" lon="-4.446955025196075">
        <ele>87.620000000000005</ele>
        <time>2026-06-23T08:28:11Z</time>
      </trkpt>
      <trkpt lat="50.369045007973909" lon="-4.447140013799071">
        <ele>87.620000000000005</ele>
        <time>2026-06-23T08:28:12Z</time>
      </trkpt>
      <trkpt lat="50.369022041559219" lon="-4.447335982695222">
        <ele>88.099999999999994</ele>
        <time>2026-06-23T08:28:13Z</time>
      </trkpt>
      <trkpt lat="50.368946017697453" lon="-4.447968984022737">
        <ele>88.579999999999998</ele>
        <time>2026-06-23T08:28:16Z</time>
      </trkpt>
      <trkpt lat="50.368919027969241" lon="-4.448188003152609">
        <ele>88.579999999999998</ele>
        <time>2026-06-23T08:28:17Z</time>
      </trkpt>
      <trkpt lat="50.368520971387625" lon="-4.449980976060033">
        <ele>91.939999999999998</ele>
        <time>2026-06-23T08:28:26Z</time>
      </trkpt>
      <trkpt lat="50.367841031402349" lon="-4.451515031978488">
        <ele>95.790000000000006</ele>
        <time>2026-06-23T08:28:35Z</time>
      </trkpt>
      <trkpt lat="50.367170982062817" lon="-4.452777011319995">
        <ele>90.019999999999996</ele>
        <time>2026-06-23T08:28:43Z</time>
      </trkpt>
      <trkpt lat="50.367125971242785" lon="-4.452935010194778">
        <ele>89.060000000000002</ele>
        <time>2026-06-23T08:28:44Z</time>
      </trkpt>
      <trkpt lat="50.367079032585025" lon="-4.453111030161381">
        <ele>87.620000000000005</ele>
        <time>2026-06-23T08:28:45Z</time>
      </trkpt>
      <trkpt lat="50.367065034806728" lon="-4.453251007944346">
        <ele>86.659999999999997</ele>
        <time>2026-06-23T08:28:46Z</time>
      </trkpt>
      <trkpt lat="50.367050031200051" lon="-4.453406995162368">
        <ele>85.689999999999998</ele>
        <time>2026-06-23T08:28:47Z</time>
      </trkpt>
      <trkpt lat="50.367034021764994" lon="-4.453559964895248">
        <ele>84.730000000000004</ele>
        <time>2026-06-23T08:28:48Z</time>
      </trkpt>
      <trkpt lat="50.36700502038002" lon="-4.453858025372028">
        <ele>83.290000000000006</ele>
        <time>2026-06-23T08:28:50Z</time>
      </trkpt>
      <trkpt lat="50.366979958489537" lon="-4.454004038125277">
        <ele>82.329999999999998</ele>
        <time>2026-06-23T08:28:51Z</time>
      </trkpt>
      <trkpt lat="50.366928996518254" lon="-4.454134963452816">
        <ele>81.370000000000005</ele>
        <time>2026-06-23T08:28:52Z</time>
      </trkpt>
      <trkpt lat="50.366871999576688" lon="-4.454280976206064">
        <ele>79.930000000000007</ele>
        <time>2026-06-23T08:28:53Z</time>
      </trkpt>
      <trkpt lat="50.36681198514998" lon="-4.454433023929596">
        <ele>78.969999999999999</ele>
        <time>2026-06-23T08:28:54Z</time>
      </trkpt>
      <trkpt lat="50.366751970723271" lon="-4.454589011147618">
        <ele>77.519999999999996</ele>
        <time>2026-06-23T08:28:55Z</time>
      </trkpt>
      <trkpt lat="50.366692040115595" lon="-4.45474298670888">
        <ele>76.560000000000002</ele>
        <time>2026-06-23T08:28:56Z</time>
      </trkpt>
      <trkpt lat="50.366457011550665" lon="-4.455385040491819">
        <ele>71.269999999999996</ele>
        <time>2026-06-23T08:29:02Z</time>
      </trkpt>
      <trkpt lat="50.366374030709267" lon="-4.455468021333218">
        <ele>70.790000000000006</ele>
        <time>2026-06-23T08:29:03Z</time>
      </trkpt>
      <trkpt lat="50.366303035989404" lon="-4.455539016053081">
        <ele>70.310000000000002</ele>
        <time>2026-06-23T08:29:04Z</time>
      </trkpt>
      <trkpt lat="50.36623396910727" lon="-4.455602969974279">
        <ele>69.349999999999994</ele>
        <time>2026-06-23T08:29:05Z</time>
      </trkpt>
      <trkpt lat="50.36612399853766" lon="-4.455639012157917">
        <ele>68.390000000000001</ele>
        <time>2026-06-23T08:29:06Z</time>
      </trkpt>
      <trkpt lat="50.366010004654527" lon="-4.455676982179284">
        <ele>66.950000000000003</ele>
        <time>2026-06-23T08:29:07Z</time>
      </trkpt>
      <trkpt lat="50.36588896997273" lon="-4.455706989392638">
        <ele>65.989999999999995</ele>
        <time>2026-06-23T08:29:08Z</time>
      </trkpt>
      <trkpt lat="50.365775981917977" lon="-4.455703971907497">
        <ele>64.549999999999997</ele>
        <time>2026-06-23T08:29:09Z</time>
      </trkpt>
      <trkpt lat="50.365660982206464" lon="-4.455701038241386">
        <ele>63.579999999999998</ele>
        <time>2026-06-23T08:29:10Z</time>
      </trkpt>
      <trkpt lat="50.365535002201796" lon="-4.455698020756245">
        <ele>62.619999999999997</ele>
        <time>2026-06-23T08:29:11Z</time>
      </trkpt>
      <trkpt lat="50.365406004711986" lon="-4.455695003271103">
        <ele>61.659999999999997</ele>
        <time>2026-06-23T08:29:12Z</time>
      </trkpt>
      <trkpt lat="50.364564964547753" lon="-4.45573003962636">
        <ele>53.969999999999999</ele>
        <time>2026-06-23T08:29:19Z</time>
      </trkpt>
      <trkpt lat="50.364443007856607" lon="-4.455742025747895">
        <ele>52.530000000000001</ele>
        <time>2026-06-23T08:29:20Z</time>
      </trkpt>
      <trkpt lat="50.363602973520756" lon="-4.455514037981629">
        <ele>42.920000000000002</ele>
        <time>2026-06-23T08:29:27Z</time>
      </trkpt>
      <trkpt lat="50.363514963537455" lon="-4.455500962212682">
        <ele>41.950000000000003</ele>
        <time>2026-06-23T08:29:28Z</time>
      </trkpt>
      <trkpt lat="50.363424019888043" lon="-4.455485958606005">
        <ele>41.469999999999999</ele>
        <time>2026-06-23T08:29:29Z</time>
      </trkpt>
      <trkpt lat="50.363324023783207" lon="-4.455471038818359">
        <ele>40.990000000000002</ele>
        <time>2026-06-23T08:29:30Z</time>
      </trkpt>
      <trkpt lat="50.363229978829622" lon="-4.455512026324868">
        <ele>40.509999999999998</ele>
        <time>2026-06-23T08:29:31Z</time>
      </trkpt>
      <trkpt lat="50.363135011866689" lon="-4.455554019659758">
        <ele>40.030000000000001</ele>
        <time>2026-06-23T08:29:32Z</time>
      </trkpt>
      <trkpt lat="50.363039039075375" lon="-4.455596012994647">
        <ele>39.07</ele>
        <time>2026-06-23T08:29:33Z</time>
      </trkpt>
      <trkpt lat="50.362938037142158" lon="-4.455625014379621">
        <ele>38.590000000000003</ele>
        <time>2026-06-23T08:29:34Z</time>
      </trkpt>
      <trkpt lat="50.362066989764571" lon="-4.455663990229368">
        <ele>32.82</ele>
        <time>2026-06-23T08:29:43Z</time>
      </trkpt>
      <trkpt lat="50.362004963681102" lon="-4.455677988007665">
        <ele>32.340000000000003</ele>
        <time>2026-06-23T08:29:44Z</time>
      </trkpt>
      <trkpt lat="50.361904967576265" lon="-4.455703971907497">
        <ele>31.379999999999999</ele>
        <time>2026-06-23T08:29:46Z</time>
      </trkpt>
      <trkpt lat="50.361856017261744" lon="-4.455716963857412">
        <ele>30.899999999999999</ele>
        <time>2026-06-23T08:29:47Z</time>
      </trkpt>
      <trkpt lat="50.361802959814668" lon="-4.455730961635709">
        <ele>29.940000000000001</ele>
        <time>2026-06-23T08:29:48Z</time>
      </trkpt>
      <trkpt lat="50.361742023378611" lon="-4.455746971070766">
        <ele>29.460000000000001</ele>
        <time>2026-06-23T08:29:49Z</time>
      </trkpt>
      <trkpt lat="50.361650995910168" lon="-4.455771027132869">
        <ele>28.5</ele>
        <time>2026-06-23T08:29:50Z</time>
      </trkpt>
      <trkpt lat="50.361598022282124" lon="-4.455802962183952">
        <ele>28.02</ele>
        <time>2026-06-23T08:29:51Z</time>
      </trkpt>
      <trkpt lat="50.361530967056751" lon="-4.455843027681112">
        <ele>27.050000000000001</ele>
        <time>2026-06-23T08:29:52Z</time>
      </trkpt>
      <trkpt lat="50.361469024792314" lon="-4.455880997702479">
        <ele>25.609999999999999</ele>
        <time>2026-06-23T08:29:53Z</time>
      </trkpt>
      <trkpt lat="50.361366011202335" lon="-4.455942017957568">
        <ele>23.210000000000001</ele>
        <time>2026-06-23T08:29:55Z</time>
      </trkpt>
      <trkpt lat="50.361318988725543" lon="-4.455971019342542">
        <ele>21.77</ele>
        <time>2026-06-23T08:29:56Z</time>
      </trkpt>
      <trkpt lat="50.361273977905512" lon="-4.455997003242374">
        <ele>20.809999999999999</ele>
        <time>2026-06-23T08:29:57Z</time>
      </trkpt>
      <trkpt lat="50.361223015934229" lon="-4.456028016284108">
        <ele>19.359999999999999</ele>
        <time>2026-06-23T08:29:58Z</time>
      </trkpt>
      <trkpt lat="50.361221004277468" lon="-4.456029022112489">
        <ele>17.920000000000002</ele>
        <time>2026-06-23T08:29:59Z</time>
      </trkpt>
      <trkpt lat="50.361221004277468" lon="-4.456029022112489">
        <ele>16.960000000000001</ele>
        <time>2026-06-23T08:30:00Z</time>
      </trkpt>
      <trkpt lat="50.361109022051096" lon="-4.456151984632015">
        <ele>10.710000000000001</ele>
        <time>2026-06-23T08:30:04Z</time>
      </trkpt>
      <trkpt lat="50.3610759973526" lon="-4.456188026815653">
        <ele>9.75</ele>
        <time>2026-06-23T08:30:05Z</time>
      </trkpt>
      <trkpt lat="50.361022017896175" lon="-4.456247035413981">
        <ele>8.310000000000001</ele>
        <time>2026-06-23T08:30:06Z</time>
      </trkpt>
      <trkpt lat="50.360915986821055" lon="-4.456319035962224">
        <ele>7.83</ele>
        <time>2026-06-23T08:30:07Z</time>
      </trkpt>
      <trkpt lat="50.360843986272812" lon="-4.456351976841688">
        <ele>7.35</ele>
        <time>2026-06-23T08:30:08Z</time>
      </trkpt>
      <trkpt lat="50.360763017088175" lon="-4.456389024853706">
        <ele>7.35</ele>
        <time>2026-06-23T08:30:09Z</time>
      </trkpt>
      <trkpt lat="50.360263958573341" lon="-4.456415008753538">
        <ele>2.54</ele>
        <time>2026-06-23T08:30:16Z</time>
      </trkpt>
      <trkpt lat="50.360159017145634" lon="-4.456415008753538">
        <ele>2.06</ele>
        <time>2026-06-23T08:30:18Z</time>
      </trkpt>
      <trkpt lat="50.360099002718925" lon="-4.456415008753538">
        <ele>1.1</ele>
        <time>2026-06-23T08:30:19Z</time>
      </trkpt>
      <trkpt lat="50.360038988292217" lon="-4.456414002925158">
        <ele>1.1</ele>
        <time>2026-06-23T08:30:20Z</time>
      </trkpt>
      <trkpt lat="50.359976040199399" lon="-4.456387013196945">
        <ele>0.14</ele>
        <time>2026-06-23T08:30:21Z</time>
      </trkpt>
      <trkpt lat="50.359890963882208" lon="-4.456350971013308">
        <ele>-0.34</ele>
        <time>2026-06-23T08:30:22Z</time>
      </trkpt>
      <trkpt lat="50.359831033274531" lon="-4.456266984343529">
        <ele>-1.3</ele>
        <time>2026-06-23T08:30:23Z</time>
      </trkpt>
      <trkpt lat="50.359771018847823" lon="-4.45618299767375">
        <ele>-2.27</ele>
        <time>2026-06-23T08:30:24Z</time>
      </trkpt>
      <trkpt lat="50.359711004421115" lon="-4.456099011003971">
        <ele>-2.75</ele>
        <time>2026-06-23T08:30:25Z</time>
      </trkpt>
      <trkpt lat="50.359653001651168" lon="-4.456018041819334">
        <ele>-3.23</ele>
        <time>2026-06-23T08:30:26Z</time>
      </trkpt>
      <trkpt lat="50.359569014981389" lon="-4.455900024622679">
        <ele>-3.23</ele>
        <time>2026-06-23T08:30:27Z</time>
      </trkpt>
      <trkpt lat="50.359520986676216" lon="-4.455886026844382">
        <ele>-2.75</ele>
        <time>2026-06-23T08:30:28Z</time>
      </trkpt>
      <trkpt lat="50.359428031370044" lon="-4.45585903711617">
        <ele>-2.27</ele>
        <time>2026-06-23T08:30:29Z</time>
      </trkpt>
      <trkpt lat="50.359337003901601" lon="-4.455831963568926">
        <ele>-1.3</ele>
        <time>2026-06-23T08:30:30Z</time>
      </trkpt>
      <trkpt lat="50.359257040545344" lon="-4.455807991325855">
        <ele>-0.34</ele>
        <time>2026-06-23T08:30:31Z</time>
      </trkpt>
      <trkpt lat="50.359182022511959" lon="-4.455787036567926">
        <ele>0.14</ele>
        <time>2026-06-23T08:30:32Z</time>
      </trkpt>
      <trkpt lat="50.359103986993432" lon="-4.455763986334205">
        <ele>0.62</ele>
        <time>2026-06-23T08:30:33Z</time>
      </trkpt>
      <trkpt lat="50.359031986445189" lon="-4.455742025747895">
        <ele>0.62</ele>
        <time>2026-06-23T08:30:34Z</time>
      </trkpt>
      <trkpt lat="50.358967026695609" lon="-4.455722998827696">
        <ele>1.1</ele>
        <time>2026-06-23T08:30:35Z</time>
      </trkpt>
      <trkpt lat="50.358907012268901" lon="-4.455705983564258">
        <ele>1.58</ele>
        <time>2026-06-23T08:30:36Z</time>
      </trkpt>
      <trkpt lat="50.35884004086256" lon="-4.455686034634709">
        <ele>1.58</ele>
        <time>2026-06-23T08:30:37Z</time>
      </trkpt>
      <trkpt lat="50.358467968180776" lon="-4.455424016341567">
        <ele>2.54</ele>
        <time>2026-06-23T08:30:44Z</time>
      </trkpt>
      <trkpt lat="50.35832597874105" lon="-4.455324020236731">
        <ele>3.02</ele>
        <time>2026-06-23T08:30:48Z</time>
      </trkpt>
      <trkpt lat="50.35832597874105" lon="-4.455324020236731">
        <ele>3.02</ele>
        <time>2026-06-23T08:30:58Z</time>
      </trkpt>
      <trkpt lat="50.35832597874105" lon="-4.455324020236731">
        <ele>3.5</ele>
        <time>2026-06-23T08:31:40Z</time>
      </trkpt>
      <trkpt lat="50.35832597874105" lon="-4.455324020236731">
        <ele>4.46</ele>
        <time>2026-06-23T08:32:31Z</time>
      </trkpt>
      <trkpt lat="50.35832597874105" lon="-4.455324020236731">
        <ele>4.94</ele>
        <time>2026-06-23T08:33:12Z</time>
      </trkpt>
      <trkpt lat="50.358311980962753" lon="-4.455314967781305">
        <ele>5.91</ele>
        <time>2026-06-23T08:33:16Z</time>
      </trkpt>
      <trkpt lat="50.35826001316309" lon="-4.455278003588319">
        <ele>6.39</ele>
        <time>2026-06-23T08:33:17Z</time>
      </trkpt>
      <trkpt lat="50.357816023752093" lon="-4.455127967521548">
        <ele>7.35</ele>
        <time>2026-06-23T08:33:23Z</time>
      </trkpt>
      <trkpt lat="50.356852021068335" lon="-4.455114975571632">
        <ele>9.27</ele>
        <time>2026-06-23T08:33:33Z</time>
      </trkpt>
      <trkpt lat="50.356428986415267" lon="-4.455144982784987">
        <ele>8.789999999999999</ele>
        <time>2026-06-23T08:33:38Z</time>
      </trkpt>
      <trkpt lat="50.356352040544152" lon="-4.455169960856438">
        <ele>9.27</ele>
        <time>2026-06-23T08:33:39Z</time>
      </trkpt>
      <trkpt lat="50.356312980875373" lon="-4.455208014696837">
        <ele>9.75</ele>
        <time>2026-06-23T08:33:40Z</time>
      </trkpt>
      <trkpt lat="50.356294037774205" lon="-4.455227041617036">
        <ele>10.23</ele>
        <time>2026-06-23T08:33:41Z</time>
      </trkpt>
      <trkpt lat="50.356294037774205" lon="-4.455227041617036">
        <ele>10.23</ele>
        <time>2026-06-23T08:33:52Z</time>
      </trkpt>
      <trkpt lat="50.356255983933806" lon="-4.455336006358266">
        <ele>10.710000000000001</ele>
        <time>2026-06-23T08:33:56Z</time>
      </trkpt>
      <trkpt lat="50.356228994205594" lon="-4.455426027998328">
        <ele>10.710000000000001</ele>
        <time>2026-06-23T08:33:57Z</time>
      </trkpt>
      <trkpt lat="50.356222037225962" lon="-4.455548990517855">
        <ele>11.19</ele>
        <time>2026-06-23T08:33:58Z</time>
      </trkpt>
      <trkpt lat="50.356220025569201" lon="-4.455676982179284">
        <ele>11.67</ele>
        <time>2026-06-23T08:33:59Z</time>
      </trkpt>
      <trkpt lat="50.356214996427298" lon="-4.455819977447391">
        <ele>11.67</ele>
        <time>2026-06-23T08:34:00Z</time>
      </trkpt>
      <trkpt lat="50.356184989213943" lon="-4.456548029556871">
        <ele>13.6</ele>
        <time>2026-06-23T08:34:06Z</time>
      </trkpt>
      <trkpt lat="50.356181971728802" lon="-4.456621035933495">
        <ele>13.6</ele>
        <time>2026-06-23T08:34:07Z</time>
      </trkpt>
      <trkpt lat="50.356179960072041" lon="-4.456675015389919">
        <ele>13.6</ele>
        <time>2026-06-23T08:34:08Z</time>
      </trkpt>
      <trkpt lat="50.356103014200926" lon="-4.456687001511455">
        <ele>14.08</ele>
        <time>2026-06-23T08:34:09Z</time>
      </trkpt>
      <trkpt lat="50.356061020866036" lon="-4.456682978197932">
        <ele>14.08</ele>
        <time>2026-06-23T08:34:10Z</time>
      </trkpt>
      <trkpt lat="50.356013998389244" lon="-4.456678032875061">
        <ele>14.08</ele>
        <time>2026-06-23T08:34:11Z</time>
      </trkpt>
      <trkpt lat="50.355970999225974" lon="-4.456674009561539">
        <ele>14.08</ele>
        <time>2026-06-23T08:34:12Z</time>
      </trkpt>
      <trkpt lat="50.355653995648026" lon="-4.456644002348185">
        <ele>15.039999999999999</ele>
        <time>2026-06-23T08:34:17Z</time>
      </trkpt>
      <trkpt lat="50.354944970458746" lon="-4.456548029556871">
        <ele>15.039999999999999</ele>
        <time>2026-06-23T08:34:27Z</time>
      </trkpt>
      <trkpt lat="50.354741960763931" lon="-4.456479968503118">
        <ele>15.52</ele>
        <time>2026-06-23T08:34:30Z</time>
      </trkpt>
      <trkpt lat="50.354552026838064" lon="-4.456378966569901">
        <ele>15.52</ele>
        <time>2026-06-23T08:34:33Z</time>
      </trkpt>
      <trkpt lat="50.354491006582975" lon="-4.456339990720153">
        <ele>16</ele>
        <time>2026-06-23T08:34:34Z</time>
      </trkpt>
      <trkpt lat="50.354416994377971" lon="-4.456306966021657">
        <ele>16</ele>
        <time>2026-06-23T08:34:35Z</time>
      </trkpt>
      <trkpt lat="50.353720961138606" lon="-4.456249969080091">
        <ele>16.48</ele>
        <time>2026-06-23T08:34:45Z</time>
      </trkpt>
      <trkpt lat="50.35348903387785" lon="-4.456178974360228">
        <ele>16.48</ele>
        <time>2026-06-23T08:34:49Z</time>
      </trkpt>
      <trkpt lat="50.353436982259154" lon="-4.45616296492517">
        <ele>16.960000000000001</ele>
        <time>2026-06-23T08:34:50Z</time>
      </trkpt>
      <trkpt lat="50.353400018066168" lon="-4.456150978803635">
        <ele>16.960000000000001</ele>
        <time>2026-06-23T08:34:51Z</time>
      </trkpt>
      <trkpt lat="50.353204971179366" lon="-4.456078978255391">
        <ele>15.52</ele>
        <time>2026-06-23T08:35:00Z</time>
      </trkpt>
      <trkpt lat="50.353187033906579" lon="-4.456071015447378">
        <ele>15.039999999999999</ele>
        <time>2026-06-23T08:35:03Z</time>
      </trkpt>
      <trkpt lat="50.353176975622773" lon="-4.456065986305475">
        <ele>15.039999999999999</ele>
        <time>2026-06-23T08:35:04Z</time>
      </trkpt>
      <trkpt lat="50.353163983672857" lon="-4.456061040982604">
        <ele>15.52</ele>
        <time>2026-06-23T08:35:06Z</time>
      </trkpt>
      <trkpt lat="50.353163983672857" lon="-4.456061040982604">
        <ele>15.52</ele>
        <time>2026-06-23T08:35:20Z</time>
      </trkpt>
      <trkpt lat="50.353163983672857" lon="-4.456061040982604">
        <ele>15.039999999999999</ele>
        <time>2026-06-23T08:36:08Z</time>
      </trkpt>
      <trkpt lat="50.353163983672857" lon="-4.456061040982604">
        <ele>14.08</ele>
        <time>2026-06-23T08:37:00Z</time>
      </trkpt>
      <trkpt lat="50.353137999773026" lon="-4.455984011292458">
        <ele>26.09</ele>
        <time>2026-06-23T09:20:27Z</time>
      </trkpt>
      <trkpt lat="50.353130958974361" lon="-4.455992979928851">
        <ele>11.19</ele>
        <time>2026-06-23T09:21:15Z</time>
      </trkpt>
      <trkpt lat="50.353130036965013" lon="-4.456003038212657">
        <ele>14.56</ele>
        <time>2026-06-23T09:22:05Z</time>
      </trkpt>
      <trkpt lat="50.353130958974361" lon="-4.455994991585612">
        <ele>14.56</ele>
        <time>2026-06-23T09:22:48Z</time>
      </trkpt>
      <trkpt lat="50.353129031136632" lon="-4.455989962443709">
        <ele>15.52</ele>
        <time>2026-06-23T09:23:35Z</time>
      </trkpt>
      <trkpt lat="50.353131964802742" lon="-4.455984011292458">
        <ele>16</ele>
        <time>2026-06-23T09:24:23Z</time>
      </trkpt>
      <trkpt lat="50.353132970631123" lon="-4.455986022949219">
        <ele>16.48</ele>
        <time>2026-06-23T09:24:58Z</time>
      </trkpt>
      <trkpt lat="50.353132970631123" lon="-4.455986022949219">
        <ele>16.48</ele>
        <time>2026-06-23T09:25:05Z</time>
      </trkpt>
      <trkpt lat="50.35316901281476" lon="-4.456061962991953">
        <ele>15.039999999999999</ele>
        <time>2026-06-23T09:25:07Z</time>
      </trkpt>
      <trkpt lat="50.353282000869513" lon="-4.456115020439029">
        <ele>14.56</ele>
        <time>2026-06-23T09:25:08Z</time>
      </trkpt>
      <trkpt lat="50.353282000869513" lon="-4.456115020439029">
        <ele>14.56</ele>
        <time>2026-06-23T09:25:09Z</time>
      </trkpt>
      <trkpt lat="50.353282000869513" lon="-4.456115020439029">
        <ele>14.56</ele>
        <time>2026-06-23T09:25:10Z</time>
      </trkpt>
      <trkpt lat="50.353282000869513" lon="-4.456115020439029">
        <ele>14.56</ele>
        <time>2026-06-23T09:25:11Z</time>
      </trkpt>
      <trkpt lat="50.353282000869513" lon="-4.456115020439029">
        <ele>13.6</ele>
        <time>2026-06-23T09:25:24Z</time>
      </trkpt>
      <trkpt lat="50.353282000869513" lon="-4.456115020439029">
        <ele>14.08</ele>
        <time>2026-06-23T09:26:13Z</time>
      </trkpt>
      <trkpt lat="50.353351989760995" lon="-4.456135975196958">
        <ele>14.08</ele>
        <time>2026-06-23T09:26:33Z</time>
      </trkpt>
      <trkpt lat="50.35340404137969" lon="-4.456151984632015">
        <ele>14.56</ele>
        <time>2026-06-23T09:26:34Z</time>
      </trkpt>
      <trkpt lat="50.353467995300889" lon="-4.456172017380595">
        <ele>14.56</ele>
        <time>2026-06-23T09:26:35Z</time>
      </trkpt>
      <trkpt lat="50.35353597253561" lon="-4.456192972138524">
        <ele>14.56</ele>
        <time>2026-06-23T09:26:36Z</time>
      </trkpt>
      <trkpt lat="50.353600010275841" lon="-4.456211999058723">
        <ele>14.56</ele>
        <time>2026-06-23T09:26:37Z</time>
      </trkpt>
      <trkpt lat="50.35366396419704" lon="-4.456232031807303">
        <ele>14.56</ele>
        <time>2026-06-23T09:26:38Z</time>
      </trkpt>
      <trkpt lat="50.35372800193727" lon="-4.456251980736852">
        <ele>14.08</ele>
        <time>2026-06-23T09:26:39Z</time>
      </trkpt>
      <trkpt lat="50.354034025222063" lon="-4.456292968243361">
        <ele>13.119999999999999</ele>
        <time>2026-06-23T09:26:44Z</time>
      </trkpt>
      <trkpt lat="50.354147013276815" lon="-4.456296991556883">
        <ele>12.630000000000001</ele>
        <time>2026-06-23T09:26:46Z</time>
      </trkpt>
      <trkpt lat="50.354783032089472" lon="-4.456493966281414">
        <ele>12.15</ele>
        <time>2026-06-23T09:26:57Z</time>
      </trkpt>
      <trkpt lat="50.354832988232374" lon="-4.456509975716472">
        <ele>12.15</ele>
        <time>2026-06-23T09:26:58Z</time>
      </trkpt>
      <trkpt lat="50.35503800958395" lon="-4.456578958779573">
        <ele>12.630000000000001</ele>
        <time>2026-06-23T09:27:07Z</time>
      </trkpt>
      <trkpt lat="50.355201959609985" lon="-4.456599997356534">
        <ele>12.15</ele>
        <time>2026-06-23T09:27:20Z</time>
      </trkpt>
      <trkpt lat="50.355815012007952" lon="-4.456659005954862">
        <ele>12.630000000000001</ele>
        <time>2026-06-23T09:27:29Z</time>
      </trkpt>
      <trkpt lat="50.356220025569201" lon="-4.456777023151517">
        <ele>14.08</ele>
        <time>2026-06-23T09:27:37Z</time>
      </trkpt>
      <trkpt lat="50.356220025569201" lon="-4.456777023151517">
        <ele>14.56</ele>
        <time>2026-06-23T09:27:45Z</time>
      </trkpt>
      <trkpt lat="50.356250032782555" lon="-4.456836031749845">
        <ele>15.52</ele>
        <time>2026-06-23T09:27:58Z</time>
      </trkpt>
      <trkpt lat="50.356285991147161" lon="-4.456909038126469">
        <ele>16.48</ele>
        <time>2026-06-23T09:27:59Z</time>
      </trkpt>
      <trkpt lat="50.356397973373532" lon="-4.456980032846332">
        <ele>17.920000000000002</ele>
        <time>2026-06-23T09:28:01Z</time>
      </trkpt>
      <trkpt lat="50.35660601221025" lon="-4.457156974822283">
        <ele>19.359999999999999</ele>
        <time>2026-06-23T09:28:04Z</time>
      </trkpt>
      <trkpt lat="50.356667032465339" lon="-4.457254959270358">
        <ele>19.359999999999999</ele>
        <time>2026-06-23T09:28:05Z</time>
      </trkpt>
      <trkpt lat="50.356711037456989" lon="-4.457379011437297">
        <ele>20.32</ele>
        <time>2026-06-23T09:28:06Z</time>
      </trkpt>
      <trkpt lat="50.35675898194313" lon="-4.457514965906739">
        <ele>20.809999999999999</ele>
        <time>2026-06-23T09:28:07Z</time>
      </trkpt>
      <trkpt lat="50.356808016076684" lon="-4.457655027508736">
        <ele>21.289999999999999</ele>
        <time>2026-06-23T09:28:08Z</time>
      </trkpt>
      <trkpt lat="50.357026029378176" lon="-4.458555998280644">
        <ele>27.530000000000001</ele>
        <time>2026-06-23T09:28:14Z</time>
      </trkpt>
      <trkpt lat="50.357032986357808" lon="-4.45869698189199">
        <ele>28.98</ele>
        <time>2026-06-23T09:28:15Z</time>
      </trkpt>
      <trkpt lat="50.357019994407892" lon="-4.458845006301999">
        <ele>30.899999999999999</ele>
        <time>2026-06-23T09:28:16Z</time>
      </trkpt>
      <trkpt lat="50.357007002457976" lon="-4.458996970206499">
        <ele>32.340000000000003</ele>
        <time>2026-06-23T09:28:17Z</time>
      </trkpt>
      <trkpt lat="50.35699401050806" lon="-4.459159998223186">
        <ele>33.780000000000001</ele>
        <time>2026-06-23T09:28:18Z</time>
      </trkpt>
      <trkpt lat="50.356979006901383" lon="-4.459326965734363">
        <ele>35.710000000000001</ele>
        <time>2026-06-23T09:28:19Z</time>
      </trkpt>
      <trkpt lat="50.356965009123087" lon="-4.459498962387443">
        <ele>37.149999999999999</ele>
        <time>2026-06-23T09:28:20Z</time>
      </trkpt>
      <trkpt lat="50.356946988031268" lon="-4.459677999839187">
        <ele>38.590000000000003</ele>
        <time>2026-06-23T09:28:21Z</time>
      </trkpt>
      <trkpt lat="50.356694022193551" lon="-4.460921036079526">
        <ele>48.200000000000003</ele>
        <time>2026-06-23T09:28:28Z</time>
      </trkpt>
      <trkpt lat="50.356636019423604" lon="-4.46103603579104">
        <ele>49.159999999999997</ele>
        <time>2026-06-23T09:28:29Z</time>
      </trkpt>
      <trkpt lat="50.356565024703741" lon="-4.461154974997044">
        <ele>50.130000000000003</ele>
        <time>2026-06-23T09:28:30Z</time>
      </trkpt>
      <trkpt lat="50.356366038322449" lon="-4.46133996360004">
        <ele>51.57</ele>
        <time>2026-06-23T09:28:32Z</time>
      </trkpt>
      <trkpt lat="50.356290014460683" lon="-4.461477007716894">
        <ele>52.049999999999997</ele>
        <time>2026-06-23T09:28:33Z</time>
      </trkpt>
      <trkpt lat="50.356246009469032" lon="-4.461655039340258">
        <ele>52.049999999999997</ele>
        <time>2026-06-23T09:28:34Z</time>
      </trkpt>
      <trkpt lat="50.356220025569201" lon="-4.461836004629731">
        <ele>52.530000000000001</ele>
        <time>2026-06-23T09:28:35Z</time>
      </trkpt>
      <trkpt lat="50.356193035840988" lon="-4.462027028203011">
        <ele>53.490000000000002</ele>
        <time>2026-06-23T09:28:36Z</time>
      </trkpt>
      <trkpt lat="50.356166968122125" lon="-4.462226014584303">
        <ele>54.450000000000003</ele>
        <time>2026-06-23T09:28:37Z</time>
      </trkpt>
      <trkpt lat="50.356123968958855" lon="-4.462594985961914">
        <ele>55.890000000000001</ele>
        <time>2026-06-23T09:28:39Z</time>
      </trkpt>
      <trkpt lat="50.356031013652682" lon="-4.463314991444349">
        <ele>62.140000000000001</ele>
        <time>2026-06-23T09:28:45Z</time>
      </trkpt>
      <trkpt lat="50.355776958167553" lon="-4.464312018826604">
        <ele>65.510000000000005</ele>
        <time>2026-06-23T09:28:52Z</time>
      </trkpt>
      <trkpt lat="50.355500020086765" lon="-4.465633006766439">
        <ele>71.269999999999996</ele>
        <time>2026-06-23T09:28:59Z</time>
      </trkpt>
      <trkpt lat="50.355460038408637" lon="-4.465825958177447">
        <ele>72.239999999999995</ele>
        <time>2026-06-23T09:29:00Z</time>
      </trkpt>
      <trkpt lat="50.355420978739858" lon="-4.466016981750727">
        <ele>73.680000000000007</ele>
        <time>2026-06-23T09:29:01Z</time>
      </trkpt>
      <trkpt lat="50.355306984856725" lon="-4.466572031378746">
        <ele>77.519999999999996</ele>
        <time>2026-06-23T09:29:04Z</time>
      </trkpt>
      <trkpt lat="50.355271026492119" lon="-4.466745033860207">
        <ele>79.450000000000003</ele>
        <time>2026-06-23T09:29:05Z</time>
      </trkpt>
      <trkpt lat="50.355236995965242" lon="-4.466913007199764">
        <ele>81.370000000000005</ele>
        <time>2026-06-23T09:29:06Z</time>
      </trkpt>
      <trkpt lat="50.355111015960574" lon="-4.467491023242474">
        <ele>86.180000000000007</ele>
        <time>2026-06-23T09:29:10Z</time>
      </trkpt>
      <trkpt lat="50.355074973776937" lon="-4.467592025175691">
        <ele>86.659999999999997</ele>
        <time>2026-06-23T09:29:11Z</time>
      </trkpt>
      <trkpt lat="50.355044966563582" lon="-4.467678023502231">
        <ele>88.099999999999994</ele>
        <time>2026-06-23T09:29:12Z</time>
      </trkpt>
      <trkpt lat="50.355018982663751" lon="-4.467753041535616">
        <ele>89.060000000000002</ele>
        <time>2026-06-23T09:29:13Z</time>
      </trkpt>
      <trkpt lat="50.354989981278777" lon="-4.467833004891872">
        <ele>90.019999999999996</ele>
        <time>2026-06-23T09:29:14Z</time>
      </trkpt>
      <trkpt lat="50.354955028742552" lon="-4.467931995168328">
        <ele>90.980000000000004</ele>
        <time>2026-06-23T09:29:15Z</time>
      </trkpt>
      <trkpt lat="50.354870036244392" lon="-4.468173980712891">
        <ele>92.420000000000002</ele>
        <time>2026-06-23T09:29:17Z</time>
      </trkpt>
      <trkpt lat="50.354827959090471" lon="-4.468354023993015">
        <ele>93.390000000000001</ele>
        <time>2026-06-23T09:29:18Z</time>
      </trkpt>
      <trkpt lat="50.354790994897485" lon="-4.468517974019051">
        <ele>94.349999999999994</ele>
        <time>2026-06-23T09:29:19Z</time>
      </trkpt>
      <trkpt lat="50.354752019047737" lon="-4.468687037006021">
        <ele>95.310000000000002</ele>
        <time>2026-06-23T09:29:20Z</time>
      </trkpt>
      <trkpt lat="50.354712959378958" lon="-4.46886096149683">
        <ele>96.269999999999996</ele>
        <time>2026-06-23T09:29:21Z</time>
      </trkpt>
      <trkpt lat="50.354636013507843" lon="-4.469207972288132">
        <ele>99.150000000000006</ele>
        <time>2026-06-23T09:29:23Z</time>
      </trkpt>
      <trkpt lat="50.354100996628404" lon="-4.47109499014914">
        <ele>113.09</ele>
        <time>2026-06-23T09:29:32Z</time>
      </trkpt>
      <trkpt lat="50.353412004187703" lon="-4.472949989140034">
        <ele>119.34</ele>
        <time>2026-06-23T09:29:41Z</time>
      </trkpt>
      <trkpt lat="50.352452024817467" lon="-4.474210040643811">
        <ele>123.19</ele>
        <time>2026-06-23T09:29:49Z</time>
      </trkpt>
      <trkpt lat="50.351442005485296" lon="-4.47554100304842">
        <ele>129.43000000000001</ele>
        <time>2026-06-23T09:29:57Z</time>
      </trkpt>
      <trkpt lat="50.350001994520426" lon="-4.47702401317656">
        <ele>132.80000000000001</ele>
        <time>2026-06-23T09:30:07Z</time>
      </trkpt>
      <trkpt lat="50.349291041493416" lon="-4.477526005357504">
        <ele>132.31999999999999</ele>
        <time>2026-06-23T09:30:12Z</time>
      </trkpt>
      <trkpt lat="50.349155003204942" lon="-4.477614015340805">
        <ele>132.31999999999999</ele>
        <time>2026-06-23T09:30:13Z</time>
      </trkpt>
      <trkpt lat="50.349038997665048" lon="-4.477763967588544">
        <ele>131.84</ele>
        <time>2026-06-23T09:30:14Z</time>
      </trkpt>
      <trkpt lat="50.348943024873734" lon="-4.477950967848301">
        <ele>131.84</ele>
        <time>2026-06-23T09:30:15Z</time>
      </trkpt>
      <trkpt lat="50.348872030153871" lon="-4.478163029998541">
        <ele>132.31999999999999</ele>
        <time>2026-06-23T09:30:16Z</time>
      </trkpt>
      <trkpt lat="50.348802041262388" lon="-4.478372996672988">
        <ele>132.80000000000001</ele>
        <time>2026-06-23T09:30:17Z</time>
      </trkpt>
      <trkpt lat="50.348783014342189" lon="-4.478599978610873">
        <ele>133.75999999999999</ele>
        <time>2026-06-23T09:30:18Z</time>
      </trkpt>
      <trkpt lat="50.348767004907131" lon="-4.478840958327055">
        <ele>134.72</ele>
        <time>2026-06-23T09:30:19Z</time>
      </trkpt>
      <trkpt lat="50.348761975765228" lon="-4.479085961356759">
        <ele>135.19999999999999</ele>
        <time>2026-06-23T09:30:20Z</time>
      </trkpt>
      <trkpt lat="50.348800029605627" lon="-4.47934303432703">
        <ele>135.68000000000001</ele>
        <time>2026-06-23T09:30:21Z</time>
      </trkpt>
      <trkpt lat="50.348837999626994" lon="-4.47960396297276">
        <ele>136.63999999999999</ele>
        <time>2026-06-23T09:30:22Z</time>
      </trkpt>
      <trkpt lat="50.349841983988881" lon="-4.484263965860009">
        <ele>143.84999999999999</ele>
        <time>2026-06-23T09:30:40Z</time>
      </trkpt>
      <trkpt lat="50.350411031395197" lon="-4.486886998638511">
        <ele>143.37</ele>
        <time>2026-06-23T09:30:50Z</time>
      </trkpt>
      <trkpt lat="50.350945964455605" lon="-4.488989012315869">
        <ele>144.34</ele>
        <time>2026-06-23T09:30:58Z</time>
      </trkpt>
      <trkpt lat="50.351457009091973" lon="-4.491213988512754">
        <ele>146.25999999999999</ele>
        <time>2026-06-23T09:31:06Z</time>
      </trkpt>
      <trkpt lat="50.351559016853571" lon="-4.491465026512742">
        <ele>146.25999999999999</ele>
        <time>2026-06-23T09:31:07Z</time>
      </trkpt>
      <trkpt lat="50.351670999079943" lon="-4.491707012057304">
        <ele>146.25999999999999</ele>
        <time>2026-06-23T09:31:08Z</time>
      </trkpt>
      <trkpt lat="50.352358985692263" lon="-4.493064964190126">
        <ele>143.84999999999999</ele>
        <time>2026-06-23T09:31:14Z</time>
      </trkpt>
      <trkpt lat="50.353187033906579" lon="-4.494937984272838">
        <ele>145.30000000000001</ele>
        <time>2026-06-23T09:31:23Z</time>
      </trkpt>
      <trkpt lat="50.35325400531292" lon="-4.495161026716232">
        <ele>144.81999999999999</ele>
        <time>2026-06-23T09:31:24Z</time>
      </trkpt>
      <trkpt lat="50.353307984769344" lon="-4.495404018089175">
        <ele>144.34</ele>
        <time>2026-06-23T09:31:25Z</time>
      </trkpt>
      <trkpt lat="50.353346038609743" lon="-4.495649021118879">
        <ele>144.34</ele>
        <time>2026-06-23T09:31:26Z</time>
      </trkpt>
      <trkpt lat="50.353346038609743" lon="-4.49590802192688">
        <ele>144.34</ele>
        <time>2026-06-23T09:31:27Z</time>
      </trkpt>
      <trkpt lat="50.353338997811079" lon="-4.496168028563261">
        <ele>144.34</ele>
        <time>2026-06-23T09:31:28Z</time>
      </trkpt>
      <trkpt lat="50.353226009756327" lon="-4.498884016647935">
        <ele>148.66</ele>
        <time>2026-06-23T09:31:39Z</time>
      </trkpt>
      <trkpt lat="50.353361964225769" lon="-4.500386975705624">
        <ele>149.62</ele>
        <time>2026-06-23T09:31:47Z</time>
      </trkpt>
      <trkpt lat="50.353367999196053" lon="-4.500815039500594">
        <ele>149.62</ele>
        <time>2026-06-23T09:31:51Z</time>
      </trkpt>
      <trkpt lat="50.353367999196053" lon="-4.500898020341992">
        <ele>149.62</ele>
        <time>2026-06-23T09:31:52Z</time>
      </trkpt>
      <trkpt lat="50.353453997522593" lon="-4.501003967598081">
        <ele>149.62</ele>
        <time>2026-06-23T09:31:53Z</time>
      </trkpt>
      <trkpt lat="50.353565979748964" lon="-4.501188034191728">
        <ele>150.09999999999999</ele>
        <time>2026-06-23T09:31:55Z</time>
      </trkpt>
      <trkpt lat="50.353622976690531" lon="-4.501317031681538">
        <ele>150.09999999999999</ele>
        <time>2026-06-23T09:31:56Z</time>
      </trkpt>
      <trkpt lat="50.353883989155293" lon="-4.501914996653795">
        <ele>151.53999999999999</ele>
        <time>2026-06-23T09:32:00Z</time>
      </trkpt>
      <trkpt lat="50.35463098436594" lon="-4.503172030672431">
        <ele>151.06</ele>
        <time>2026-06-23T09:32:09Z</time>
      </trkpt>
      <trkpt lat="50.354874981567264" lon="-4.503585007041693">
        <ele>149.13999999999999</ele>
        <time>2026-06-23T09:32:12Z</time>
      </trkpt>
      <trkpt lat="50.354960979893804" lon="-4.503736970946193">
        <ele>148.18000000000001</ele>
        <time>2026-06-23T09:32:13Z</time>
      </trkpt>
      <trkpt lat="50.355243030935526" lon="-4.504469968378544">
        <ele>144.81999999999999</ele>
        <time>2026-06-23T09:32:17Z</time>
      </trkpt>
      <trkpt lat="50.355311008170247" lon="-4.504670966416597">
        <ele>143.84999999999999</ele>
        <time>2026-06-23T09:32:18Z</time>
      </trkpt>
      <trkpt lat="50.355782993137836" lon="-4.506609030067921">
        <ele>137.13</ele>
        <time>2026-06-23T09:32:26Z</time>
      </trkpt>
      <trkpt lat="50.356544991955161" lon="-4.510380970314145">
        <ele>133.75999999999999</ele>
        <time>2026-06-23T09:32:40Z</time>
      </trkpt>
      <trkpt lat="50.356610035523772" lon="-4.513114979490638">
        <ele>138.09</ele>
        <time>2026-06-23T09:32:49Z</time>
      </trkpt>
      <trkpt lat="50.356669966131449" lon="-4.514574017375708">
        <ele>140.97</ele>
        <time>2026-06-23T09:32:54Z</time>
      </trkpt>
      <trkpt lat="50.356644988059998" lon="-4.514851961284876">
        <ele>141.93000000000001</ele>
        <time>2026-06-23T09:32:55Z</time>
      </trkpt>
      <trkpt lat="50.356538034975529" lon="-4.516476960852742">
        <ele>142.41</ele>
        <time>2026-06-23T09:33:01Z</time>
      </trkpt>
      <trkpt lat="50.356554966419935" lon="-4.516723975539208">
        <ele>142.41</ele>
        <time>2026-06-23T09:33:02Z</time>
      </trkpt>
      <trkpt lat="50.356600983068347" lon="-4.516967972740531">
        <ele>142.41</ele>
        <time>2026-06-23T09:33:03Z</time>
      </trkpt>
      <trkpt lat="50.356676001101732" lon="-4.517194032669067">
        <ele>142.88999999999999</ele>
        <time>2026-06-23T09:33:04Z</time>
      </trkpt>
      <trkpt lat="50.356769962236285" lon="-4.517392013221979">
        <ele>143.37</ele>
        <time>2026-06-23T09:33:05Z</time>
      </trkpt>
      <trkpt lat="50.356888985261321" lon="-4.51756602153182">
        <ele>143.37</ele>
        <time>2026-06-23T09:33:06Z</time>
      </trkpt>
      <trkpt lat="50.357013959437609" lon="-4.517743969336152">
        <ele>143.84999999999999</ele>
        <time>2026-06-23T09:33:07Z</time>
      </trkpt>
      <trkpt lat="50.358425974845886" lon="-4.519215999171138">
        <ele>147.22</ele>
        <time>2026-06-23T09:33:16Z</time>
      </trkpt>
      <trkpt lat="50.359947960823774" lon="-4.520127028226852">
        <ele>142.41</ele>
        <time>2026-06-23T09:33:25Z</time>
      </trkpt>
      <trkpt lat="50.361322006210685" lon="-4.521097987890244">
        <ele>139.53</ele>
        <time>2026-06-23T09:33:35Z</time>
      </trkpt>
      <trkpt lat="50.362166985869408" lon="-4.521768037229776">
        <ele>142.41</ele>
        <time>2026-06-23T09:33:41Z</time>
      </trkpt>
      <trkpt lat="50.362319033592939" lon="-4.521834002807736">
        <ele>142.41</ele>
        <time>2026-06-23T09:33:42Z</time>
      </trkpt>
      <trkpt lat="50.363853005692363" lon="-4.522631959989667">
        <ele>140.49000000000001</ele>
        <time>2026-06-23T09:33:52Z</time>
      </trkpt>
      <trkpt lat="50.364011004567146" lon="-4.522741008549929">
        <ele>140.00999999999999</ele>
        <time>2026-06-23T09:33:53Z</time>
      </trkpt>
      <trkpt lat="50.364912981167436" lon="-4.523595962673426">
        <ele>140.00999999999999</ele>
        <time>2026-06-23T09:34:00Z</time>
      </trkpt>
      <trkpt lat="50.365013983100653" lon="-4.523686990141869">
        <ele>140.49000000000001</ele>
        <time>2026-06-23T09:34:01Z</time>
      </trkpt>
      <trkpt lat="50.365844964981079" lon="-4.524820977821946">
        <ele>141.93000000000001</ele>
        <time>2026-06-23T09:34:12Z</time>
      </trkpt>
      <trkpt lat="50.366649040952325" lon="-4.525900986045599">
        <ele>134.72</ele>
        <time>2026-06-23T09:34:23Z</time>
      </trkpt>
      <trkpt lat="50.366799999028444" lon="-4.526087986305356">
        <ele>132.80000000000001</ele>
        <time>2026-06-23T09:34:25Z</time>
      </trkpt>
      <trkpt lat="50.367474993690848" lon="-4.527180986478925">
        <ele>130.40000000000001</ele>
        <time>2026-06-23T09:34:35Z</time>
      </trkpt>
      <trkpt lat="50.367555040866137" lon="-4.527282994240522">
        <ele>130.88</ele>
        <time>2026-06-23T09:34:36Z</time>
      </trkpt>
      <trkpt lat="50.367635004222393" lon="-4.52736396342516">
        <ele>131.84</ele>
        <time>2026-06-23T09:34:37Z</time>
      </trkpt>
      <trkpt lat="50.367725025862455" lon="-4.527432024478912">
        <ele>132.80000000000001</ele>
        <time>2026-06-23T09:34:38Z</time>
      </trkpt>
      <trkpt lat="50.367813035845757" lon="-4.527500001713634">
        <ele>133.75999999999999</ele>
        <time>2026-06-23T09:34:39Z</time>
      </trkpt>
      <trkpt lat="50.36818603053689" lon="-4.5277089625597">
        <ele>136.63999999999999</ele>
        <time>2026-06-23T09:34:43Z</time>
      </trkpt>
      <trkpt lat="50.368292983621359" lon="-4.527737963944674">
        <ele>137.13</ele>
        <time>2026-06-23T09:34:44Z</time>
      </trkpt>
      <trkpt lat="50.369251035153866" lon="-4.527770988643169">
        <ele>139.05000000000001</ele>
        <time>2026-06-23T09:34:53Z</time>
      </trkpt>
      <trkpt lat="50.369511041790247" lon="-4.527823040261865">
        <ele>140.00999999999999</ele>
        <time>2026-06-23T09:34:57Z</time>
      </trkpt>
      <trkpt lat="50.369695024564862" lon="-4.527860004454851">
        <ele>140.49000000000001</ele>
        <time>2026-06-23T09:34:59Z</time>
      </trkpt>
      <trkpt lat="50.369918989017606" lon="-4.527882970869541">
        <ele>141.93000000000001</ele>
        <time>2026-06-23T09:35:01Z</time>
      </trkpt>
      <trkpt lat="50.370033988729119" lon="-4.527892023324966">
        <ele>142.88999999999999</ele>
        <time>2026-06-23T09:35:02Z</time>
      </trkpt>
      <trkpt lat="50.370145970955491" lon="-4.52790099196136">
        <ele>144.34</ele>
        <time>2026-06-23T09:35:03Z</time>
      </trkpt>
      <trkpt lat="50.370261976495385" lon="-4.527910966426134">
        <ele>144.81999999999999</ele>
        <time>2026-06-23T09:35:04Z</time>
      </trkpt>
      <trkpt lat="50.37037898786366" lon="-4.527920018881559">
        <ele>145.78</ele>
        <time>2026-06-23T09:35:05Z</time>
      </trkpt>
      <trkpt lat="50.372101971879601" lon="-4.528082041069865">
        <ele>157.31</ele>
        <time>2026-06-23T09:35:20Z</time>
      </trkpt>
      <trkpt lat="50.372324008494616" lon="-4.528143983334303">
        <ele>156.83000000000001</ele>
        <time>2026-06-23T09:35:22Z</time>
      </trkpt>
      <trkpt lat="50.372430961579084" lon="-4.528203997761011">
        <ele>157.31</ele>
        <time>2026-06-23T09:35:23Z</time>
      </trkpt>
      <trkpt lat="50.372516037896276" lon="-4.528303993865848">
        <ele>157.31</ele>
        <time>2026-06-23T09:35:24Z</time>
      </trkpt>
      <trkpt lat="50.372585020959377" lon="-4.528438020497561">
        <ele>157.31</ele>
        <time>2026-06-23T09:35:25Z</time>
      </trkpt>
      <trkpt lat="50.372649980708957" lon="-4.528577998280525">
        <ele>157.31</ele>
        <time>2026-06-23T09:35:26Z</time>
      </trkpt>
      <trkpt lat="50.372697003185749" lon="-4.528756029903889">
        <ele>157.31</ele>
        <time>2026-06-23T09:35:27Z</time>
      </trkpt>
      <trkpt lat="50.37272097542882" lon="-4.528918974101543">
        <ele>157.31</ele>
        <time>2026-06-23T09:35:28Z</time>
      </trkpt>
      <trkpt lat="50.372743019834161" lon="-4.529066998511553">
        <ele>157.31</ele>
        <time>2026-06-23T09:35:29Z</time>
      </trkpt>
      <trkpt lat="50.372765986248851" lon="-4.529220974072814">
        <ele>157.78999999999999</ele>
        <time>2026-06-23T09:35:30Z</time>
      </trkpt>
      <trkpt lat="50.372823989018798" lon="-4.529572008177638">
        <ele>157.31</ele>
        <time>2026-06-23T09:35:32Z</time>
      </trkpt>
      <trkpt lat="50.372861959040165" lon="-4.529751967638731">
        <ele>156.83000000000001</ele>
        <time>2026-06-23T09:35:33Z</time>
      </trkpt>
      <trkpt lat="50.37295600399375" lon="-4.529900997877121">
        <ele>156.83000000000001</ele>
        <time>2026-06-23T09:35:34Z</time>
      </trkpt>
      <trkpt lat="50.373049965128303" lon="-4.530051033943892">
        <ele>156.34999999999999</ele>
        <time>2026-06-23T09:35:35Z</time>
      </trkpt>
      <trkpt lat="50.37315096706152" lon="-4.530189000070095">
        <ele>156.34999999999999</ele>
        <time>2026-06-23T09:35:36Z</time>
      </trkpt>
      <trkpt lat="50.373261021450162" lon="-4.530309028923512">
        <ele>156.34999999999999</ele>
        <time>2026-06-23T09:35:37Z</time>
      </trkpt>
      <trkpt lat="50.373463025316596" lon="-4.530557971447706">
        <ele>155.87</ele>
        <time>2026-06-23T09:35:39Z</time>
      </trkpt>
      <trkpt lat="50.373562015593052" lon="-4.530696021392942">
        <ele>155.87</ele>
        <time>2026-06-23T09:35:40Z</time>
      </trkpt>
      <trkpt lat="50.374348992481828" lon="-4.532375000417233">
        <ele>152.50999999999999</ele>
        <time>2026-06-23T09:35:48Z</time>
      </trkpt>
      <trkpt lat="50.375696970149875" lon="-4.53483902849257">
        <ele>149.62</ele>
        <time>2026-06-23T09:35:59Z</time>
      </trkpt>
      <trkpt lat="50.375851029530168" lon="-4.535001972690225">
        <ele>149.13999999999999</ele>
        <time>2026-06-23T09:36:00Z</time>
      </trkpt>
      <trkpt lat="50.376012967899442" lon="-4.535160977393389">
        <ele>149.13999999999999</ele>
        <time>2026-06-23T09:36:01Z</time>
      </trkpt>
      <trkpt lat="50.376188987866044" lon="-4.535266002640128">
        <ele>149.13999999999999</ele>
        <time>2026-06-23T09:36:02Z</time>
      </trkpt>
      <trkpt lat="50.376366013661027" lon="-4.535372033715248">
        <ele>149.13999999999999</ele>
        <time>2026-06-23T09:36:03Z</time>
      </trkpt>
      <trkpt lat="50.376837998628616" lon="-4.53572197817266">
        <ele>149.13999999999999</ele>
        <time>2026-06-23T09:36:06Z</time>
      </trkpt>
      <trkpt lat="50.376964984461665" lon="-4.535880982875824">
        <ele>149.13999999999999</ele>
        <time>2026-06-23T09:36:07Z</time>
      </trkpt>
      <trkpt lat="50.377092976123095" lon="-4.536040993407369">
        <ele>149.62</ele>
        <time>2026-06-23T09:36:08Z</time>
      </trkpt>
      <trkpt lat="50.378044992685318" lon="-4.537791972979903">
        <ele>150.58000000000001</ele>
        <time>2026-06-23T09:36:17Z</time>
      </trkpt>
      <trkpt lat="50.3781149815768" lon="-4.538005962967873">
        <ele>150.09999999999999</ele>
        <time>2026-06-23T09:36:18Z</time>
      </trkpt>
      <trkpt lat="50.378185976296663" lon="-4.538222970440984">
        <ele>149.62</ele>
        <time>2026-06-23T09:36:19Z</time>
      </trkpt>
      <trkpt lat="50.378425028175116" lon="-4.53890198841691">
        <ele>149.13999999999999</ele>
        <time>2026-06-23T09:36:22Z</time>
      </trkpt>
      <trkpt lat="50.378519995138049" lon="-4.53913701698184">
        <ele>149.62</ele>
        <time>2026-06-23T09:36:23Z</time>
      </trkpt>
      <trkpt lat="50.380024965852499" lon="-4.542108988389373">
        <ele>158.75</ele>
        <time>2026-06-23T09:36:36Z</time>
      </trkpt>
      <trkpt lat="50.381605960428715" lon="-4.54532696865499">
        <ele>156.34999999999999</ele>
        <time>2026-06-23T09:36:49Z</time>
      </trkpt>
      <trkpt lat="50.383027028292418" lon="-4.547523027285934">
        <ele>157.31</ele>
        <time>2026-06-23T09:36:59Z</time>
      </trkpt>
      <trkpt lat="50.384206026792526" lon="-4.549346007406712">
        <ele>151.06</ele>
        <time>2026-06-23T09:37:08Z</time>
      </trkpt>
      <trkpt lat="50.385489966720343" lon="-4.551078965887427">
        <ele>148.66</ele>
        <time>2026-06-23T09:37:18Z</time>
      </trkpt>
      <trkpt lat="50.386668965220451" lon="-4.552234997972846">
        <ele>149.62</ele>
        <time>2026-06-23T09:37:26Z</time>
      </trkpt>
      <trkpt lat="50.386806009337306" lon="-4.55241302959621">
        <ele>150.09999999999999</ele>
        <time>2026-06-23T09:37:27Z</time>
      </trkpt>
      <trkpt lat="50.386930983513594" lon="-4.552615033462644">
        <ele>151.06</ele>
        <time>2026-06-23T09:37:28Z</time>
      </trkpt>
      <trkpt lat="50.387698011472821" lon="-4.553872989490628">
        <ele>156.83000000000001</ele>
        <time>2026-06-23T09:37:35Z</time>
      </trkpt>
      <trkpt lat="50.388723034411669" lon="-4.555158019065857">
        <ele>162.59999999999999</ele>
        <time>2026-06-23T09:37:45Z</time>
      </trkpt>
      <trkpt lat="50.388806015253067" lon="-4.555344013497233">
        <ele>162.59999999999999</ele>
        <time>2026-06-23T09:37:47Z</time>
      </trkpt>
      <trkpt lat="50.388820013031363" lon="-4.555460019037128">
        <ele>162.12</ele>
        <time>2026-06-23T09:37:48Z</time>
      </trkpt>
      <trkpt lat="50.388836022466421" lon="-4.555591028183699">
        <ele>162.12</ele>
        <time>2026-06-23T09:37:49Z</time>
      </trkpt>
      <trkpt lat="50.388730997219682" lon="-4.557047970592976">
        <ele>158.27000000000001</ele>
        <time>2026-06-23T09:37:56Z</time>
      </trkpt>
      <trkpt lat="50.388596970587969" lon="-4.557797983288765">
        <ele>155.87</ele>
        <time>2026-06-23T09:37:59Z</time>
      </trkpt>
      <trkpt lat="50.388521030545235" lon="-4.558038040995598">
        <ele>155.38999999999999</ele>
        <time>2026-06-23T09:38:00Z</time>
      </trkpt>
      <trkpt lat="50.387779986485839" lon="-4.560376005247235">
        <ele>152.50999999999999</ele>
        <time>2026-06-23T09:38:09Z</time>
      </trkpt>
      <trkpt lat="50.387196019291878" lon="-4.562450023368001">
        <ele>147.22</ele>
        <time>2026-06-23T09:38:17Z</time>
      </trkpt>
      <trkpt lat="50.387044977396727" lon="-4.56324202939868">
        <ele>143.37</ele>
        <time>2026-06-23T09:38:20Z</time>
      </trkpt>
      <trkpt lat="50.386722022667527" lon="-4.565818961709738">
        <ele>137.13</ele>
        <time>2026-06-23T09:38:30Z</time>
      </trkpt>
      <trkpt lat="50.386498980224133" lon="-4.56816203892231">
        <ele>135.19999999999999</ele>
        <time>2026-06-23T09:38:39Z</time>
      </trkpt>
      <trkpt lat="50.386455981060863" lon="-4.568424979224801">
        <ele>135.19999999999999</ele>
        <time>2026-06-23T09:38:40Z</time>
      </trkpt>
      <trkpt lat="50.386398984119296" lon="-4.568690015003085">
        <ele>134.72</ele>
        <time>2026-06-23T09:38:41Z</time>
      </trkpt>
      <trkpt lat="50.385499019175768" lon="-4.571915036067367">
        <ele>130.40000000000001</ele>
        <time>2026-06-23T09:38:54Z</time>
      </trkpt>
      <trkpt lat="50.385147985070944" lon="-4.572828998789191">
        <ele>127.03</ele>
        <time>2026-06-23T09:38:58Z</time>
      </trkpt>
      <trkpt lat="50.385029967874289" lon="-4.573029996827245">
        <ele>126.06999999999999</ele>
        <time>2026-06-23T09:38:59Z</time>
      </trkpt>
      <trkpt lat="50.384905999526381" lon="-4.573236024007201">
        <ele>125.59</ele>
        <time>2026-06-23T09:39:00Z</time>
      </trkpt>
      <trkpt lat="50.383555004373193" lon="-4.574664970859885">
        <ele>124.15000000000001</ele>
        <time>2026-06-23T09:39:09Z</time>
      </trkpt>
      <trkpt lat="50.382392015308142" lon="-4.576501026749611">
        <ele>126.06999999999999</ele>
        <time>2026-06-23T09:39:18Z</time>
      </trkpt>
      <trkpt lat="50.381573019549251" lon="-4.577984036877751">
        <ele>125.11</ele>
        <time>2026-06-23T09:39:25Z</time>
      </trkpt>
      <trkpt lat="50.381492972373962" lon="-4.578204983845353">
        <ele>125.11</ele>
        <time>2026-06-23T09:39:26Z</time>
      </trkpt>
      <trkpt lat="50.381413009017706" lon="-4.578424002975225">
        <ele>125.11</ele>
        <time>2026-06-23T09:39:27Z</time>
      </trkpt>
      <trkpt lat="50.381358023732901" lon="-4.578650984913111">
        <ele>125.11</ele>
        <time>2026-06-23T09:39:28Z</time>
      </trkpt>
      <trkpt lat="50.381304966285825" lon="-4.578874027356505">
        <ele>124.63</ele>
        <time>2026-06-23T09:39:29Z</time>
      </trkpt>
      <trkpt lat="50.380785036832094" lon="-4.580684015527368">
        <ele>121.26000000000001</ele>
        <time>2026-06-23T09:39:38Z</time>
      </trkpt>
      <trkpt lat="50.379665968939662" lon="-4.58307595923543">
        <ele>118.86</ele>
        <time>2026-06-23T09:39:50Z</time>
      </trkpt>
      <trkpt lat="50.379137992858887" lon="-4.58404297940433">
        <ele>118.86</ele>
        <time>2026-06-23T09:39:55Z</time>
      </trkpt>
      <trkpt lat="50.379022993147373" lon="-4.584179017692804">
        <ele>117.90000000000001</ele>
        <time>2026-06-23T09:39:56Z</time>
      </trkpt>
      <trkpt lat="50.378911010921001" lon="-4.584311032667756">
        <ele>117.42</ele>
        <time>2026-06-23T09:39:57Z</time>
      </trkpt>
      <trkpt lat="50.378772038966417" lon="-4.584379009902477">
        <ele>116.94</ele>
        <time>2026-06-23T09:39:58Z</time>
      </trkpt>
      <trkpt lat="50.378624014556408" lon="-4.584425026550889">
        <ele>115.98</ele>
        <time>2026-06-23T09:39:59Z</time>
      </trkpt>
      <trkpt lat="50.378473978489637" lon="-4.584412034600973">
        <ele>115.5</ele>
        <time>2026-06-23T09:40:00Z</time>
      </trkpt>
      <trkpt lat="50.378323020413518" lon="-4.584388984367251">
        <ele>115.01000000000001</ele>
        <time>2026-06-23T09:40:01Z</time>
      </trkpt>
      <trkpt lat="50.37817700766027" lon="-4.584318995475769">
        <ele>114.53</ele>
        <time>2026-06-23T09:40:02Z</time>
      </trkpt>
      <trkpt lat="50.378024959936738" lon="-4.584246994927526">
        <ele>114.05</ele>
        <time>2026-06-23T09:40:03Z</time>
      </trkpt>
      <trkpt lat="50.376454023644328" lon="-4.583441996946931">
        <ele>109.25</ele>
        <time>2026-06-23T09:40:12Z</time>
      </trkpt>
      <trkpt lat="50.373920006677508" lon="-4.582354025915265">
        <ele>102.52</ele>
        <time>2026-06-23T09:40:25Z</time>
      </trkpt>
      <trkpt lat="50.372064001858234" lon="-4.581883968785405">
        <ele>109.73</ele>
        <time>2026-06-23T09:40:35Z</time>
      </trkpt>
      <trkpt lat="50.37175202742219" lon="-4.581960998475552">
        <ele>109.73</ele>
        <time>2026-06-23T09:40:37Z</time>
      </trkpt>
      <trkpt lat="50.371588999405503" lon="-4.582017995417118">
        <ele>108.77</ele>
        <time>2026-06-23T09:40:38Z</time>
      </trkpt>
      <trkpt lat="50.369975985959172" lon="-4.582930030301213">
        <ele>94.829999999999998</ele>
        <time>2026-06-23T09:40:47Z</time>
      </trkpt>
      <trkpt lat="50.368345035240054" lon="-4.583663027733564">
        <ele>90.019999999999996</ele>
        <time>2026-06-23T09:40:56Z</time>
      </trkpt>
      <trkpt lat="50.367074003443122" lon="-4.583856984972954">
        <ele>90.980000000000004</ele>
        <time>2026-06-23T09:41:03Z</time>
      </trkpt>
      <trkpt lat="50.36633899435401" lon="-4.583850027993321">
        <ele>90.980000000000004</ele>
        <time>2026-06-23T09:41:07Z</time>
      </trkpt>
      <trkpt lat="50.366151994094253" lon="-4.583909958600998">
        <ele>90.980000000000004</ele>
        <time>2026-06-23T09:41:08Z</time>
      </trkpt>
      <trkpt lat="50.365959964692593" lon="-4.583993023261428">
        <ele>90.980000000000004</ele>
        <time>2026-06-23T09:41:09Z</time>
      </trkpt>
      <trkpt lat="50.364990010857582" lon="-4.58453600294888">
        <ele>91.939999999999998</ele>
        <time>2026-06-23T09:41:14Z</time>
      </trkpt>
      <trkpt lat="50.363867003470659" lon="-4.585520960390568">
        <ele>93.390000000000001</ele>
        <time>2026-06-23T09:41:21Z</time>
      </trkpt>
      <trkpt lat="50.363713027909398" lon="-4.585632020607591">
        <ele>92.900000000000006</ele>
        <time>2026-06-23T09:41:22Z</time>
      </trkpt>
      <trkpt lat="50.363541031256318" lon="-4.58567401394248">
        <ele>91.939999999999998</ele>
        <time>2026-06-23T09:41:23Z</time>
      </trkpt>
      <trkpt lat="50.361825004220009" lon="-4.586014989763498">
        <ele>83.290000000000006</ele>
        <time>2026-06-23T09:41:32Z</time>
      </trkpt>
      <trkpt lat="50.361150009557605" lon="-4.586138036102057">
        <ele>84.25</ele>
        <time>2026-06-23T09:41:36Z</time>
      </trkpt>
      <trkpt lat="50.361026963219047" lon="-4.586219005286694">
        <ele>84.730000000000004</ele>
        <time>2026-06-23T09:41:37Z</time>
      </trkpt>
      <trkpt lat="50.36092596128583" lon="-4.586330987513065">
        <ele>84.730000000000004</ele>
        <time>2026-06-23T09:41:38Z</time>
      </trkpt>
      <trkpt lat="50.360857984051108" lon="-4.586451016366482">
        <ele>85.209999999999994</ele>
        <time>2026-06-23T09:41:39Z</time>
      </trkpt>
      <trkpt lat="50.360804004594684" lon="-4.586629969999194">
        <ele>85.689999999999998</ele>
        <time>2026-06-23T09:41:40Z</time>
      </trkpt>
      <trkpt lat="50.360742984339595" lon="-4.586828034371138">
        <ele>85.689999999999998</ele>
        <time>2026-06-23T09:41:41Z</time>
      </trkpt>
      <trkpt lat="50.360696967691183" lon="-4.587053004652262">
        <ele>86.180000000000007</ele>
        <time>2026-06-23T09:41:42Z</time>
      </trkpt>
      <trkpt lat="50.360373007133603" lon="-4.589488031342626">
        <ele>81.370000000000005</ele>
        <time>2026-06-23T09:41:51Z</time>
      </trkpt>
      <trkpt lat="50.360104031860828" lon="-4.591353004798293">
        <ele>72.719999999999999</ele>
        <time>2026-06-23T09:41:58Z</time>
      </trkpt>
      <trkpt lat="50.359959024935961" lon="-4.591833958402276">
        <ele>72.719999999999999</ele>
        <time>2026-06-23T09:42:00Z</time>
      </trkpt>
      <trkpt lat="50.359884006902575" lon="-4.59207896143198">
        <ele>73.200000000000003</ele>
        <time>2026-06-23T09:42:01Z</time>
      </trkpt>
      <trkpt lat="50.358916986733675" lon="-4.594424972310662">
        <ele>81.849999999999994</ele>
        <time>2026-06-23T09:42:11Z</time>
      </trkpt>
      <trkpt lat="50.358018027618527" lon="-4.596146028488874">
        <ele>78</ele>
        <time>2026-06-23T09:42:19Z</time>
      </trkpt>
      <trkpt lat="50.356941958889365" lon="-4.599022027105093">
        <ele>73.200000000000003</ele>
        <time>2026-06-23T09:42:31Z</time>
      </trkpt>
      <trkpt lat="50.355713004246354" lon="-4.60247696377337">
        <ele>83.290000000000006</ele>
        <time>2026-06-23T09:42:45Z</time>
      </trkpt>
      <trkpt lat="50.355086037889123" lon="-4.603864001110196">
        <ele>93.390000000000001</ele>
        <time>2026-06-23T09:42:52Z</time>
      </trkpt>
      <trkpt lat="50.354988975450397" lon="-4.603998027741909">
        <ele>94.349999999999994</ele>
        <time>2026-06-23T09:42:53Z</time>
      </trkpt>
      <trkpt lat="50.354886967688799" lon="-4.604113027453423">
        <ele>94.829999999999998</ele>
        <time>2026-06-23T09:42:54Z</time>
      </trkpt>
      <trkpt lat="50.353992031887174" lon="-4.604976028203964">
        <ele>95.790000000000006</ele>
        <time>2026-06-23T09:43:04Z</time>
      </trkpt>
      <trkpt lat="50.353107992559671" lon="-4.606219986453652">
        <ele>100.11</ele>
        <time>2026-06-23T09:43:15Z</time>
      </trkpt>
      <trkpt lat="50.352448001503944" lon="-4.607370989397168">
        <ele>104.44</ele>
        <time>2026-06-23T09:43:23Z</time>
      </trkpt>
      <trkpt lat="50.352367032319307" lon="-4.607561007142067">
        <ele>104.92</ele>
        <time>2026-06-23T09:43:24Z</time>
      </trkpt>
      <trkpt lat="50.351495984941721" lon="-4.610098041594029">
        <ele>110.20999999999999</ele>
        <time>2026-06-23T09:43:36Z</time>
      </trkpt>
      <trkpt lat="50.350643964484334" lon="-4.612373979762197">
        <ele>113.09</ele>
        <time>2026-06-23T09:43:47Z</time>
      </trkpt>
      <trkpt lat="50.349572002887726" lon="-4.613835029304028">
        <ele>111.17</ele>
        <time>2026-06-23T09:43:56Z</time>
      </trkpt>
      <trkpt lat="50.348361991345882" lon="-4.615229023620486">
        <ele>102.04000000000001</ele>
        <time>2026-06-23T09:44:05Z</time>
      </trkpt>
      <trkpt lat="50.346963973715901" lon="-4.616608014330268">
        <ele>91.459999999999994</ele>
        <time>2026-06-23T09:44:15Z</time>
      </trkpt>
      <trkpt lat="50.345951020717621" lon="-4.61796697229147">
        <ele>83.290000000000006</ele>
        <time>2026-06-23T09:44:23Z</time>
      </trkpt>
      <trkpt lat="50.344991041347384" lon="-4.619589038193226">
        <ele>82.329999999999998</ele>
        <time>2026-06-23T09:44:32Z</time>
      </trkpt>
      <trkpt lat="50.344114964827895" lon="-4.621498016640544">
        <ele>78.969999999999999</ele>
        <time>2026-06-23T09:44:42Z</time>
      </trkpt>
      <trkpt lat="50.343754040077329" lon="-4.622384989634156">
        <ele>77.040000000000006</ele>
        <time>2026-06-23T09:44:47Z</time>
      </trkpt>
      <trkpt lat="50.343700982630253" lon="-4.622599985450506">
        <ele>77.040000000000006</ele>
        <time>2026-06-23T09:44:48Z</time>
      </trkpt>
      <trkpt lat="50.343666030094028" lon="-4.62282202206552">
        <ele>76.560000000000002</ele>
        <time>2026-06-23T09:44:49Z</time>
      </trkpt>
      <trkpt lat="50.343656977638602" lon="-4.623064007610083">
        <ele>76.079999999999998</ele>
        <time>2026-06-23T09:44:50Z</time>
      </trkpt>
      <trkpt lat="50.343648009002209" lon="-4.623305993154645">
        <ele>75.599999999999994</ele>
        <time>2026-06-23T09:44:51Z</time>
      </trkpt>
      <trkpt lat="50.343593023717403" lon="-4.624331016093493">
        <ele>71.760000000000005</ele>
        <time>2026-06-23T09:44:56Z</time>
      </trkpt>
      <trkpt lat="50.343547007068992" lon="-4.624494966119528">
        <ele>70.790000000000006</ele>
        <time>2026-06-23T09:44:57Z</time>
      </trkpt>
      <trkpt lat="50.343495039269328" lon="-4.624680038541555">
        <ele>69.349999999999994</ele>
        <time>2026-06-23T09:44:58Z</time>
      </trkpt>
      <trkpt lat="50.343438964337111" lon="-4.624877013266087">
        <ele>68.390000000000001</ele>
        <time>2026-06-23T09:44:59Z</time>
      </trkpt>
      <trkpt lat="50.343390014022589" lon="-4.625051021575928">
        <ele>67.909999999999997</ele>
        <time>2026-06-23T09:45:00Z</time>
      </trkpt>
      <trkpt lat="50.34334902651608" lon="-4.625278003513813">
        <ele>66.469999999999999</ele>
        <time>2026-06-23T09:45:01Z</time>
      </trkpt>
      <trkpt lat="50.34309396520257" lon="-4.626864027231932">
        <ele>58.299999999999997</ele>
        <time>2026-06-23T09:45:10Z</time>
      </trkpt>
      <trkpt lat="50.343062030151486" lon="-4.627130990847945">
        <ele>57.340000000000003</ele>
        <time>2026-06-23T09:45:12Z</time>
      </trkpt>
      <trkpt lat="50.343001009896398" lon="-4.627644969150424">
        <ele>53.490000000000002</ele>
        <time>2026-06-23T09:45:16Z</time>
      </trkpt>
      <trkpt lat="50.342931021004915" lon="-4.62795602157712">
        <ele>51.090000000000003</ele>
        <time>2026-06-23T09:45:19Z</time>
      </trkpt>
      <trkpt lat="50.342902019619942" lon="-4.62804595939815">
        <ele>50.130000000000003</ele>
        <time>2026-06-23T09:45:20Z</time>
      </trkpt>
      <trkpt lat="50.342872012406588" lon="-4.628138998523355">
        <ele>49.159999999999997</ele>
        <time>2026-06-23T09:45:21Z</time>
      </trkpt>
      <trkpt lat="50.342838987708092" lon="-4.628238994628191">
        <ele>48.68</ele>
        <time>2026-06-23T09:45:22Z</time>
      </trkpt>
      <trkpt lat="50.342805963009596" lon="-4.628342008218169">
        <ele>47.719999999999999</ele>
        <time>2026-06-23T09:45:23Z</time>
      </trkpt>
      <trkpt lat="50.342772016301751" lon="-4.628448039293289">
        <ele>46.759999999999998</ele>
        <time>2026-06-23T09:45:24Z</time>
      </trkpt>
      <trkpt lat="50.342724993824959" lon="-4.628592040389776">
        <ele>45.799999999999997</ele>
        <time>2026-06-23T09:45:25Z</time>
      </trkpt>
      <trkpt lat="50.342685012146831" lon="-4.628670997917652">
        <ele>44.840000000000003</ele>
        <time>2026-06-23T09:45:26Z</time>
      </trkpt>
      <trkpt lat="50.342571018263698" lon="-4.628899991512299">
        <ele>43.399999999999999</ele>
        <time>2026-06-23T09:45:28Z</time>
      </trkpt>
      <trkpt lat="50.342514021322131" lon="-4.629012979567051">
        <ele>42.920000000000002</ele>
        <time>2026-06-23T09:45:29Z</time>
      </trkpt>
      <trkpt lat="50.342439003288746" lon="-4.629104007035494">
        <ele>42.920000000000002</ele>
        <time>2026-06-23T09:45:30Z</time>
      </trkpt>
      <trkpt lat="50.342081012204289" lon="-4.629527041688561">
        <ele>41.950000000000003</ele>
        <time>2026-06-23T09:45:35Z</time>
      </trkpt>
      <trkpt lat="50.342028038576245" lon="-4.62958998978138">
        <ele>41.950000000000003</ele>
        <time>2026-06-23T09:45:36Z</time>
      </trkpt>
      <trkpt lat="50.341971963644028" lon="-4.629656039178371">
        <ele>41.469999999999999</ele>
        <time>2026-06-23T09:45:37Z</time>
      </trkpt>
      <trkpt lat="50.341868028044701" lon="-4.629777995869517">
        <ele>40.990000000000002</ele>
        <time>2026-06-23T09:45:39Z</time>
      </trkpt>
      <trkpt lat="50.341822011396289" lon="-4.629831975325942">
        <ele>40.509999999999998</ele>
        <time>2026-06-23T09:45:40Z</time>
      </trkpt>
      <trkpt lat="50.341767026111484" lon="-4.629897018894553">
        <ele>40.030000000000001</ele>
        <time>2026-06-23T09:45:41Z</time>
      </trkpt>
      <trkpt lat="50.341710029169917" lon="-4.629964996129274">
        <ele>39.549999999999997</ele>
        <time>2026-06-23T09:45:42Z</time>
      </trkpt>
      <trkpt lat="50.341648003086448" lon="-4.630061974748969">
        <ele>39.07</ele>
        <time>2026-06-23T09:45:43Z</time>
      </trkpt>
      <trkpt lat="50.34143703058362" lon="-4.630501018837094">
        <ele>36.189999999999998</ele>
        <time>2026-06-23T09:45:47Z</time>
      </trkpt>
      <trkpt lat="50.341239972040057" lon="-4.630721965804696">
        <ele>32.82</ele>
        <time>2026-06-23T09:45:50Z</time>
      </trkpt>
      <trkpt lat="50.341180041432381" lon="-4.630789021030068">
        <ele>31.379999999999999</ele>
        <time>2026-06-23T09:45:51Z</time>
      </trkpt>
      <trkpt lat="50.341132013127208" lon="-4.630843000486493">
        <ele>29.940000000000001</ele>
        <time>2026-06-23T09:45:52Z</time>
      </trkpt>
      <trkpt lat="50.34107300452888" lon="-4.630908966064453">
        <ele>27.530000000000001</ele>
        <time>2026-06-23T09:45:54Z</time>
      </trkpt>
      <trkpt lat="50.340993041172624" lon="-4.630908966064453">
        <ele>25.609999999999999</ele>
        <time>2026-06-23T09:45:55Z</time>
      </trkpt>
      <trkpt lat="50.340962028130889" lon="-4.630908966064453">
        <ele>24.170000000000002</ele>
        <time>2026-06-23T09:45:56Z</time>
      </trkpt>
      <trkpt lat="50.340930009260774" lon="-4.630908966064453">
        <ele>22.25</ele>
        <time>2026-06-23T09:45:57Z</time>
      </trkpt>
      <trkpt lat="50.340898996219039" lon="-4.630908966064453">
        <ele>20.809999999999999</ele>
        <time>2026-06-23T09:45:58Z</time>
      </trkpt>
      <trkpt lat="50.340871000662446" lon="-4.630908966064453">
        <ele>19.359999999999999</ele>
        <time>2026-06-23T09:45:59Z</time>
      </trkpt>
      <trkpt lat="50.340838981792331" lon="-4.630908966064453">
        <ele>18.399999999999999</ele>
        <time>2026-06-23T09:46:00Z</time>
      </trkpt>
      <trkpt lat="50.340806962922215" lon="-4.630908966064453">
        <ele>16.960000000000001</ele>
        <time>2026-06-23T09:46:01Z</time>
      </trkpt>
      <trkpt lat="50.340777961537242" lon="-4.630908966064453">
        <ele>16</ele>
        <time>2026-06-23T09:46:02Z</time>
      </trkpt>
      <trkpt lat="50.34074803814292" lon="-4.630908966064453">
        <ele>15.039999999999999</ele>
        <time>2026-06-23T09:46:03Z</time>
      </trkpt>
      <trkpt lat="50.340717025101185" lon="-4.630908966064453">
        <ele>14.08</ele>
        <time>2026-06-23T09:46:04Z</time>
      </trkpt>
      <trkpt lat="50.340609988197684" lon="-4.630897985771298">
        <ele>12.15</ele>
        <time>2026-06-23T09:46:07Z</time>
      </trkpt>
      <trkpt lat="50.340217966586351" lon="-4.630689024925232">
        <ele>8.310000000000001</ele>
        <time>2026-06-23T09:46:18Z</time>
      </trkpt>
      <trkpt lat="50.340129034593701" lon="-4.630574025213718">
        <ele>7.35</ele>
        <time>2026-06-23T09:46:28Z</time>
      </trkpt>
      <trkpt lat="50.340039012953639" lon="-4.630413008853793">
        <ele>12.15</ele>
        <time>2026-06-23T09:46:51Z</time>
      </trkpt>
      <trkpt lat="50.340039012953639" lon="-4.630413008853793">
        <ele>14.08</ele>
        <time>2026-06-23T09:47:13Z</time>
      </trkpt>
      <trkpt lat="50.340039012953639" lon="-4.630413008853793">
        <ele>14.56</ele>
        <time>2026-06-23T09:48:00Z</time>
      </trkpt>
      <trkpt lat="50.340039012953639" lon="-4.630413008853793">
        <ele>14.56</ele>
        <time>2026-06-23T09:48:45Z</time>
      </trkpt>
      <trkpt lat="50.340039012953639" lon="-4.630413008853793">
        <ele>15.039999999999999</ele>
        <time>2026-06-23T09:49:30Z</time>
      </trkpt>
      <trkpt lat="50.340039012953639" lon="-4.630413008853793">
        <ele>14.56</ele>
        <time>2026-06-23T09:50:20Z</time>
      </trkpt>
      <trkpt lat="50.340039012953639" lon="-4.630413008853793">
        <ele>14.56</ele>
        <time>2026-06-23T09:51:04Z</time>
      </trkpt>
      <trkpt lat="50.340039012953639" lon="-4.630413008853793">
        <ele>15.039999999999999</ele>
        <time>2026-06-23T09:51:55Z</time>
      </trkpt>
      <trkpt lat="50.340039012953639" lon="-4.630413008853793">
        <ele>15.039999999999999</ele>
        <time>2026-06-23T09:52:52Z</time>
      </trkpt>
      <trkpt lat="50.340039012953639" lon="-4.630413008853793">
        <ele>15.039999999999999</ele>
        <time>2026-06-23T09:53:43Z</time>
      </trkpt>
      <trkpt lat="50.340039012953639" lon="-4.630413008853793">
        <ele>15.52</ele>
        <time>2026-06-23T09:54:38Z</time>
      </trkpt>
      <trkpt lat="50.340039012953639" lon="-4.630413008853793">
        <ele>15.039999999999999</ele>
        <time>2026-06-23T09:55:18Z</time>
      </trkpt>
      <trkpt lat="50.339900040999055" lon="-4.630162976682186">
        <ele>14.08</ele>
        <time>2026-06-23T09:55:45Z</time>
      </trkpt>
      <trkpt lat="50.339827034622431" lon="-4.630054011940956">
        <ele>12.630000000000001</ele>
        <time>2026-06-23T09:55:56Z</time>
      </trkpt>
      <trkpt lat="50.339827034622431" lon="-4.630054011940956">
        <ele>12.630000000000001</ele>
        <time>2026-06-23T09:55:57Z</time>
      </trkpt>
      <trkpt lat="50.339726032689214" lon="-4.630025010555983">
        <ele>12.630000000000001</ele>
        <time>2026-06-23T09:55:58Z</time>
      </trkpt>
      <trkpt lat="50.339721003547311" lon="-4.630035990849137">
        <ele>12.15</ele>
        <time>2026-06-23T09:55:59Z</time>
      </trkpt>
      <trkpt lat="50.339713040739298" lon="-4.630054011940956">
        <ele>12.15</ele>
        <time>2026-06-23T09:56:00Z</time>
      </trkpt>
      <trkpt lat="50.339707005769014" lon="-4.630068009719253">
        <ele>11.67</ele>
        <time>2026-06-23T09:56:01Z</time>
      </trkpt>
      <trkpt lat="50.33969895914197" lon="-4.630330028012395">
        <ele>10.23</ele>
        <time>2026-06-23T09:56:16Z</time>
      </trkpt>
      <trkpt lat="50.339775988832116" lon="-4.630597997456789">
        <ele>9.75</ele>
        <time>2026-06-23T09:56:20Z</time>
      </trkpt>
      <trkpt lat="50.339790992438793" lon="-4.630649965256453">
        <ele>9.75</ele>
        <time>2026-06-23T09:56:21Z</time>
      </trkpt>
      <trkpt lat="50.339799961075187" lon="-4.630680978298187">
        <ele>9.27</ele>
        <time>2026-06-23T09:56:29Z</time>
      </trkpt>
      <trkpt lat="50.339799961075187" lon="-4.630680978298187">
        <ele>9.27</ele>
        <time>2026-06-23T09:56:50Z</time>
      </trkpt>
      <trkpt lat="50.339799961075187" lon="-4.630680978298187">
        <ele>9.27</ele>
        <time>2026-06-23T09:57:09Z</time>
      </trkpt>
      <trkpt lat="50.339799961075187" lon="-4.630680978298187">
        <ele>9.27</ele>
        <time>2026-06-23T09:57:45Z</time>
      </trkpt>
      <trkpt lat="50.339799961075187" lon="-4.630680978298187">
        <ele>8.789999999999999</ele>
        <time>2026-06-23T09:58:05Z</time>
      </trkpt>
      <trkpt lat="50.340014034882188" lon="-4.631427973508835">
        <ele>8.789999999999999</ele>
        <time>2026-06-23T09:58:33Z</time>
      </trkpt>
      <trkpt lat="50.340290972962976" lon="-4.632391976192594">
        <ele>8.310000000000001</ele>
        <time>2026-06-23T09:59:07Z</time>
      </trkpt>
      <trkpt lat="50.340484008193016" lon="-4.633064037188888">
        <ele>6.87</ele>
        <time>2026-06-23T09:59:31Z</time>
      </trkpt>
      <trkpt lat="50.34049297682941" lon="-4.633097983896732">
        <ele>6.87</ele>
        <time>2026-06-23T09:59:50Z</time>
      </trkpt>
      <trkpt lat="50.34049297682941" lon="-4.633097983896732">
        <ele>7.35</ele>
        <time>2026-06-23T09:59:58Z</time>
      </trkpt>
      <trkpt lat="50.340503035113215" lon="-4.63337198831141">
        <ele>6.87</ele>
        <time>2026-06-23T09:59:59Z</time>
      </trkpt>
      <trkpt lat="50.340504962950945" lon="-4.633416999131441">
        <ele>6.39</ele>
        <time>2026-06-23T10:00:00Z</time>
      </trkpt>
      <trkpt lat="50.340507980436087" lon="-4.633485982194543">
        <ele>5.91</ele>
        <time>2026-06-23T10:00:01Z</time>
      </trkpt>
      <trkpt lat="50.340510997921228" lon="-4.633576003834605">
        <ele>5.91</ele>
        <time>2026-06-23T10:00:02Z</time>
      </trkpt>
      <trkpt lat="50.340515021234751" lon="-4.633677005767822">
        <ele>5.42</ele>
        <time>2026-06-23T10:00:03Z</time>
      </trkpt>
      <trkpt lat="50.340500017628074" lon="-4.633755963295698">
        <ele>5.42</ele>
        <time>2026-06-23T10:00:04Z</time>
      </trkpt>
      <trkpt lat="50.340484008193016" lon="-4.633849002420902">
        <ele>5.42</ele>
        <time>2026-06-23T10:00:05Z</time>
      </trkpt>
      <trkpt lat="50.340300025418401" lon="-4.634449984878302">
        <ele>4.94</ele>
        <time>2026-06-23T10:00:11Z</time>
      </trkpt>
      <trkpt lat="50.340244034305215" lon="-4.634499019011855">
        <ele>4.46</ele>
        <time>2026-06-23T10:00:12Z</time>
      </trkpt>
      <trkpt lat="50.340190976858139" lon="-4.634545035660267">
        <ele>4.46</ele>
        <time>2026-06-23T10:00:13Z</time>
      </trkpt>
      <trkpt lat="50.340129034593701" lon="-4.634600020945072">
        <ele>4.46</ele>
        <time>2026-06-23T10:00:14Z</time>
      </trkpt>
      <trkpt lat="50.340078994631767" lon="-4.634583005681634">
        <ele>3.98</ele>
        <time>2026-06-23T10:00:15Z</time>
      </trkpt>
      <trkpt lat="50.340012023225427" lon="-4.634560961276293">
        <ele>3.98</ele>
        <time>2026-06-23T10:00:16Z</time>
      </trkpt>
      <trkpt lat="50.339949997141957" lon="-4.634540006518364">
        <ele>3.98</ele>
        <time>2026-06-23T10:00:17Z</time>
      </trkpt>
      <trkpt lat="50.339830974116921" lon="-4.634501030668616">
        <ele>3.98</ele>
        <time>2026-06-23T10:00:24Z</time>
      </trkpt>
      <trkpt lat="50.33980599604547" lon="-4.634491978213191">
        <ele>3.98</ele>
        <time>2026-06-23T10:00:25Z</time>
      </trkpt>
      <trkpt lat="50.33973902463913" lon="-4.634496001526713">
        <ele>3.98</ele>
        <time>2026-06-23T10:00:26Z</time>
      </trkpt>
      <trkpt lat="50.339714968577027" lon="-4.63466003537178">
        <ele>3.98</ele>
        <time>2026-06-23T10:00:28Z</time>
      </trkpt>
      <trkpt lat="50.33969996497035" lon="-4.634764976799488">
        <ele>4.46</ele>
        <time>2026-06-23T10:00:29Z</time>
      </trkpt>
      <trkpt lat="50.339667024090886" lon="-4.634997993707657">
        <ele>4.46</ele>
        <time>2026-06-23T10:00:31Z</time>
      </trkpt>
      <trkpt lat="50.339650008827448" lon="-4.635120034217835">
        <ele>4.94</ele>
        <time>2026-06-23T10:00:32Z</time>
      </trkpt>
      <trkpt lat="50.339631987735629" lon="-4.635242996737361">
        <ele>4.94</ele>
        <time>2026-06-23T10:00:33Z</time>
      </trkpt>
      <trkpt lat="50.33961396664381" lon="-4.635374005883932">
        <ele>4.94</ele>
        <time>2026-06-23T10:00:34Z</time>
      </trkpt>
      <trkpt lat="50.339625030755997" lon="-4.635506020858884">
        <ele>4.94</ele>
        <time>2026-06-23T10:00:35Z</time>
      </trkpt>
      <trkpt lat="50.339635005220771" lon="-4.635629989206791">
        <ele>4.94</ele>
        <time>2026-06-23T10:00:36Z</time>
      </trkpt>
      <trkpt lat="50.339674986898899" lon="-4.635755969211459">
        <ele>4.94</ele>
        <time>2026-06-23T10:00:37Z</time>
      </trkpt>
      <trkpt lat="50.339713962748647" lon="-4.635877003893256">
        <ele>5.42</ele>
        <time>2026-06-23T10:00:38Z</time>
      </trkpt>
      <trkpt lat="50.339756961911917" lon="-4.636008013039827">
        <ele>5.42</ele>
        <time>2026-06-23T10:00:39Z</time>
      </trkpt>
      <trkpt lat="50.339800966903567" lon="-4.636145979166031">
        <ele>5.91</ele>
        <time>2026-06-23T10:00:40Z</time>
      </trkpt>
      <trkpt lat="50.339999031275511" lon="-4.636761965230107">
        <ele>8.310000000000001</ele>
        <time>2026-06-23T10:00:45Z</time>
      </trkpt>
      <trkpt lat="50.340035995468497" lon="-4.636864978820086">
        <ele>9.27</ele>
        <time>2026-06-23T10:00:46Z</time>
      </trkpt>
      <trkpt lat="50.340260965749621" lon="-4.637413993477821">
        <ele>12.630000000000001</ele>
        <time>2026-06-23T10:00:51Z</time>
      </trkpt>
      <trkpt lat="50.34032198600471" lon="-4.637581966817379">
        <ele>13.119999999999999</ele>
        <time>2026-06-23T10:00:52Z</time>
      </trkpt>
      <trkpt lat="50.340356016531587" lon="-4.637773996219039">
        <ele>14.08</ele>
        <time>2026-06-23T10:00:54Z</time>
      </trkpt>
      <trkpt lat="50.340512003749609" lon="-4.6386359911412">
        <ele>19.359999999999999</ele>
        <time>2026-06-23T10:00:59Z</time>
      </trkpt>
      <trkpt lat="50.340563971549273" lon="-4.638988031074405">
        <ele>21.289999999999999</ele>
        <time>2026-06-23T10:01:01Z</time>
      </trkpt>
      <trkpt lat="50.340574029833078" lon="-4.639164973050356">
        <ele>22.25</ele>
        <time>2026-06-23T10:01:02Z</time>
      </trkpt>
      <trkpt lat="50.340585010126233" lon="-4.639343004673719">
        <ele>23.210000000000001</ele>
        <time>2026-06-23T10:01:03Z</time>
      </trkpt>
      <trkpt lat="50.340591967105865" lon="-4.639745000749826">
        <ele>24.649999999999999</ele>
        <time>2026-06-23T10:01:05Z</time>
      </trkpt>
      <trkpt lat="50.340412007644773" lon="-4.641372011974454">
        <ele>26.57</ele>
        <time>2026-06-23T10:01:13Z</time>
      </trkpt>
      <trkpt lat="50.340336989611387" lon="-4.641760010272265">
        <ele>27.050000000000001</ele>
        <time>2026-06-23T10:01:15Z</time>
      </trkpt>
      <trkpt lat="50.340245962142944" lon="-4.642310030758381">
        <ele>27.530000000000001</ele>
        <time>2026-06-23T10:01:18Z</time>
      </trkpt>
      <trkpt lat="50.340245962142944" lon="-4.642519997432828">
        <ele>27.530000000000001</ele>
        <time>2026-06-23T10:01:19Z</time>
      </trkpt>
      <trkpt lat="50.340476967394352" lon="-4.644064027816057">
        <ele>26.57</ele>
        <time>2026-06-23T10:01:26Z</time>
      </trkpt>
      <trkpt lat="50.340509992092848" lon="-4.644254967570305">
        <ele>26.57</ele>
        <time>2026-06-23T10:01:27Z</time>
      </trkpt>
      <trkpt lat="50.340558020398021" lon="-4.644444985315204">
        <ele>26.57</ele>
        <time>2026-06-23T10:01:28Z</time>
      </trkpt>
      <trkpt lat="50.340632032603025" lon="-4.644579011946917">
        <ele>27.050000000000001</ele>
        <time>2026-06-23T10:01:29Z</time>
      </trkpt>
      <trkpt lat="50.340736974030733" lon="-4.644692000001669">
        <ele>27.050000000000001</ele>
        <time>2026-06-23T10:01:30Z</time>
      </trkpt>
      <trkpt lat="50.340847028419375" lon="-4.64480297639966">
        <ele>27.050000000000001</ele>
        <time>2026-06-23T10:01:31Z</time>
      </trkpt>
      <trkpt lat="50.340960016474128" lon="-4.644921999424696">
        <ele>27.530000000000001</ele>
        <time>2026-06-23T10:01:32Z</time>
      </trkpt>
      <trkpt lat="50.3410719987005" lon="-4.645041022449732">
        <ele>28.02</ele>
        <time>2026-06-23T10:01:33Z</time>
      </trkpt>
      <trkpt lat="50.341180041432381" lon="-4.645157027989626">
        <ele>28.98</ele>
        <time>2026-06-23T10:01:34Z</time>
      </trkpt>
      <trkpt lat="50.341253969818354" lon="-4.645288037136197">
        <ele>29.940000000000001</ele>
        <time>2026-06-23T10:01:35Z</time>
      </trkpt>
      <trkpt lat="50.341333011165261" lon="-4.645429020747542">
        <ele>30.420000000000002</ele>
        <time>2026-06-23T10:01:36Z</time>
      </trkpt>
      <trkpt lat="50.341405011713505" lon="-4.645580984652042">
        <ele>30.899999999999999</ele>
        <time>2026-06-23T10:01:37Z</time>
      </trkpt>
      <trkpt lat="50.341467959806323" lon="-4.64574602432549">
        <ele>30.899999999999999</ele>
        <time>2026-06-23T10:01:38Z</time>
      </trkpt>
      <trkpt lat="50.341528980061412" lon="-4.645909974351525">
        <ele>31.379999999999999</ele>
        <time>2026-06-23T10:01:39Z</time>
      </trkpt>
      <trkpt lat="50.34156896173954" lon="-4.646091023460031">
        <ele>31.859999999999999</ele>
        <time>2026-06-23T10:01:40Z</time>
      </trkpt>
      <trkpt lat="50.3416090272367" lon="-4.646264025941491">
        <ele>32.340000000000003</ele>
        <time>2026-06-23T10:01:41Z</time>
      </trkpt>
      <trkpt lat="50.341646997258067" lon="-4.646433005109429">
        <ele>33.780000000000001</ele>
        <time>2026-06-23T10:01:42Z</time>
      </trkpt>
      <trkpt lat="50.341685973107815" lon="-4.646596033126116">
        <ele>35.229999999999997</ele>
        <time>2026-06-23T10:01:43Z</time>
      </trkpt>
      <trkpt lat="50.341729978099465" lon="-4.646743973717094">
        <ele>36.189999999999998</ele>
        <time>2026-06-23T10:01:44Z</time>
      </trkpt>
      <trkpt lat="50.341769959777594" lon="-4.646881017833948">
        <ele>37.149999999999999</ele>
        <time>2026-06-23T10:01:45Z</time>
      </trkpt>
      <trkpt lat="50.341792004182935" lon="-4.647033987566829">
        <ele>38.109999999999999</ele>
        <time>2026-06-23T10:01:46Z</time>
      </trkpt>
      <trkpt lat="50.341794015839696" lon="-4.647197015583515">
        <ele>39.07</ele>
        <time>2026-06-23T10:01:47Z</time>
      </trkpt>
      <trkpt lat="50.341768031939864" lon="-4.647328024730086">
        <ele>40.030000000000001</ele>
        <time>2026-06-23T10:01:48Z</time>
      </trkpt>
      <trkpt lat="50.34174095839262" lon="-4.647470014169812">
        <ele>40.990000000000002</ele>
        <time>2026-06-23T10:01:49Z</time>
      </trkpt>
      <trkpt lat="50.341712962836027" lon="-4.647612003609538">
        <ele>41.950000000000003</ele>
        <time>2026-06-23T10:01:50Z</time>
      </trkpt>
      <trkpt lat="50.341653032228351" lon="-4.64787402190268">
        <ele>43.880000000000003</ele>
        <time>2026-06-23T10:01:52Z</time>
      </trkpt>
      <trkpt lat="50.341617995873094" lon="-4.647971000522375">
        <ele>44.840000000000003</ele>
        <time>2026-06-23T10:01:53Z</time>
      </trkpt>
      <trkpt lat="50.341538032516837" lon="-4.648078959435225">
        <ele>45.32</ele>
        <time>2026-06-23T10:01:54Z</time>
      </trkpt>
      <trkpt lat="50.341461002826691" lon="-4.648117013275623">
        <ele>45.799999999999997</ele>
        <time>2026-06-23T10:01:55Z</time>
      </trkpt>
      <trkpt lat="50.341367963701487" lon="-4.648164035752416">
        <ele>46.280000000000001</ele>
        <time>2026-06-23T10:01:56Z</time>
      </trkpt>
      <trkpt lat="50.34126796759665" lon="-4.648212986066937">
        <ele>46.759999999999998</ele>
        <time>2026-06-23T10:01:57Z</time>
      </trkpt>
      <trkpt lat="50.341180041432381" lon="-4.648281969130039">
        <ele>46.759999999999998</ele>
        <time>2026-06-23T10:01:58Z</time>
      </trkpt>
      <trkpt lat="50.341093959286809" lon="-4.648356987163425">
        <ele>47.240000000000002</ele>
        <time>2026-06-23T10:01:59Z</time>
      </trkpt>
      <trkpt lat="50.3410529717803" lon="-4.648463018238545">
        <ele>47.240000000000002</ele>
        <time>2026-06-23T10:02:00Z</time>
      </trkpt>
      <trkpt lat="50.341017013415694" lon="-4.648616993799806">
        <ele>47.240000000000002</ele>
        <time>2026-06-23T10:02:01Z</time>
      </trkpt>
      <trkpt lat="50.341004021465778" lon="-4.648807011544704">
        <ele>47.719999999999999</ele>
        <time>2026-06-23T10:02:02Z</time>
      </trkpt>
      <trkpt lat="50.340996980667114" lon="-4.649028964340687">
        <ele>48.200000000000003</ele>
        <time>2026-06-23T10:02:03Z</time>
      </trkpt>
      <trkpt lat="50.34102899953723" lon="-4.650145014747977">
        <ele>51.57</ele>
        <time>2026-06-23T10:02:08Z</time>
      </trkpt>
      <trkpt lat="50.341066969558597" lon="-4.650330003350973">
        <ele>52.530000000000001</ele>
        <time>2026-06-23T10:02:09Z</time>
      </trkpt>
      <trkpt lat="50.341106029227376" lon="-4.650512980297208">
        <ele>53.009999999999998</ele>
        <time>2026-06-23T10:02:10Z</time>
      </trkpt>
      <trkpt lat="50.34122203476727" lon="-4.651072975248098">
        <ele>53.490000000000002</ele>
        <time>2026-06-23T10:02:13Z</time>
      </trkpt>
      <trkpt lat="50.341209964826703" lon="-4.651279002428055">
        <ele>53.969999999999999</ele>
        <time>2026-06-23T10:02:14Z</time>
      </trkpt>
      <trkpt lat="50.341197978705168" lon="-4.65148301795125">
        <ele>54.93</ele>
        <time>2026-06-23T10:02:15Z</time>
      </trkpt>
      <trkpt lat="50.341185992583632" lon="-4.651689967140555">
        <ele>55.890000000000001</ele>
        <time>2026-06-23T10:02:16Z</time>
      </trkpt>
      <trkpt lat="50.341170988976955" lon="-4.651905968785286">
        <ele>56.859999999999999</ele>
        <time>2026-06-23T10:02:17Z</time>
      </trkpt>
      <trkpt lat="50.341081973165274" lon="-4.653319995850325">
        <ele>65.030000000000001</ele>
        <time>2026-06-23T10:02:23Z</time>
      </trkpt>
      <trkpt lat="50.34124399535358" lon="-4.65580003336072">
        <ele>79.930000000000007</ele>
        <time>2026-06-23T10:02:33Z</time>
      </trkpt>
      <trkpt lat="50.341277020052075" lon="-4.65689797885716">
        <ele>85.689999999999998</ele>
        <time>2026-06-23T10:02:38Z</time>
      </trkpt>
      <trkpt lat="50.34128699451685" lon="-4.657488986849785">
        <ele>89.540000000000006</ele>
        <time>2026-06-23T10:02:42Z</time>
      </trkpt>
      <trkpt lat="50.34128699451685" lon="-4.657570961862803">
        <ele>90.019999999999996</ele>
        <time>2026-06-23T10:02:43Z</time>
      </trkpt>
      <trkpt lat="50.34120099619031" lon="-4.657644974067807">
        <ele>90.5</ele>
        <time>2026-06-23T10:02:44Z</time>
      </trkpt>
      <trkpt lat="50.34120099619031" lon="-4.657644974067807">
        <ele>90.980000000000004</ele>
        <time>2026-06-23T10:02:45Z</time>
      </trkpt>
      <trkpt lat="50.34120099619031" lon="-4.657644974067807">
        <ele>91.459999999999994</ele>
        <time>2026-06-23T10:02:46Z</time>
      </trkpt>
      <trkpt lat="50.341133018955588" lon="-4.657726027071476">
        <ele>93.390000000000001</ele>
        <time>2026-06-23T10:02:56Z</time>
      </trkpt>
      <trkpt lat="50.341110974550247" lon="-4.657819988206029">
        <ele>93.870000000000005</ele>
        <time>2026-06-23T10:02:57Z</time>
      </trkpt>
      <trkpt lat="50.34109303727746" lon="-4.657932976260781">
        <ele>93.870000000000005</ele>
        <time>2026-06-23T10:02:58Z</time>
      </trkpt>
      <trkpt lat="50.34107300452888" lon="-4.65807999484241">
        <ele>93.870000000000005</ele>
        <time>2026-06-23T10:02:59Z</time>
      </trkpt>
      <trkpt lat="50.34107300452888" lon="-4.65823195874691">
        <ele>93.870000000000005</ele>
        <time>2026-06-23T10:03:00Z</time>
      </trkpt>
      <trkpt lat="50.34107300452888" lon="-4.658395992591977">
        <ele>93.390000000000001</ele>
        <time>2026-06-23T10:03:01Z</time>
      </trkpt>
      <trkpt lat="50.341107035055757" lon="-4.658570000901818">
        <ele>93.390000000000001</ele>
        <time>2026-06-23T10:03:02Z</time>
      </trkpt>
      <trkpt lat="50.341141987591982" lon="-4.65872498229146">
        <ele>93.390000000000001</ele>
        <time>2026-06-23T10:03:03Z</time>
      </trkpt>
      <trkpt lat="50.34130996093154" lon="-4.659355971962214">
        <ele>93.390000000000001</ele>
        <time>2026-06-23T10:03:07Z</time>
      </trkpt>
      <trkpt lat="50.341366035863757" lon="-4.659531991928816">
        <ele>92.900000000000006</ele>
        <time>2026-06-23T10:03:08Z</time>
      </trkpt>
      <trkpt lat="50.341423032805324" lon="-4.659703988581896">
        <ele>92.420000000000002</ele>
        <time>2026-06-23T10:03:09Z</time>
      </trkpt>
      <trkpt lat="50.341477012261748" lon="-4.659868022426963">
        <ele>92.420000000000002</ele>
        <time>2026-06-23T10:03:10Z</time>
      </trkpt>
      <trkpt lat="50.341530991718173" lon="-4.660029038786888">
        <ele>92.420000000000002</ele>
        <time>2026-06-23T10:03:11Z</time>
      </trkpt>
      <trkpt lat="50.342242028564215" lon="-4.661815976724029">
        <ele>100.11</ele>
        <time>2026-06-23T10:03:21Z</time>
      </trkpt>
      <trkpt lat="50.342696998268366" lon="-4.663053983822465">
        <ele>105.88</ele>
        <time>2026-06-23T10:03:27Z</time>
      </trkpt>
      <trkpt lat="50.34279003739357" lon="-4.663482969626784">
        <ele>108.29000000000001</ele>
        <time>2026-06-23T10:03:29Z</time>
      </trkpt>
      <trkpt lat="50.343079967424273" lon="-4.665184998884797">
        <ele>112.13</ele>
        <time>2026-06-23T10:03:36Z</time>
      </trkpt>
      <trkpt lat="50.343096982687712" lon="-4.665425978600979">
        <ele>112.61</ele>
        <time>2026-06-23T10:03:37Z</time>
      </trkpt>
      <trkpt lat="50.343107040971518" lon="-4.665673999115825">
        <ele>113.09</ele>
        <time>2026-06-23T10:03:38Z</time>
      </trkpt>
      <trkpt lat="50.34319999627769" lon="-4.667656989768148">
        <ele>107.31999999999999</ele>
        <time>2026-06-23T10:03:47Z</time>
      </trkpt>
      <trkpt lat="50.343536026775837" lon="-4.669683985412121">
        <ele>101.08</ele>
        <time>2026-06-23T10:03:55Z</time>
      </trkpt>
      <trkpt lat="50.344270030036569" lon="-4.672219008207321">
        <ele>91.939999999999998</ele>
        <time>2026-06-23T10:04:05Z</time>
      </trkpt>
      <trkpt lat="50.344280004501343" lon="-4.672482032328844">
        <ele>91.459999999999994</ele>
        <time>2026-06-23T10:04:06Z</time>
      </trkpt>
      <trkpt lat="50.344288973137736" lon="-4.672742960974574">
        <ele>91.459999999999994</ele>
        <time>2026-06-23T10:04:07Z</time>
      </trkpt>
      <trkpt lat="50.344251003116369" lon="-4.675119984894991">
        <ele>97.709999999999994</ele>
        <time>2026-06-23T10:04:16Z</time>
      </trkpt>
      <trkpt lat="50.344333983957767" lon="-4.677214035764337">
        <ele>102.04000000000001</ele>
        <time>2026-06-23T10:04:25Z</time>
      </trkpt>
      <trkpt lat="50.344324009492993" lon="-4.679052019491792">
        <ele>97.709999999999994</ele>
        <time>2026-06-23T10:04:34Z</time>
      </trkpt>
      <trkpt lat="50.344363991171122" lon="-4.680593032389879">
        <ele>90.980000000000004</ele>
        <time>2026-06-23T10:04:41Z</time>
      </trkpt>
      <trkpt lat="50.344430962577462" lon="-4.680762011557818">
        <ele>89.540000000000006</ele>
        <time>2026-06-23T10:04:42Z</time>
      </trkpt>
      <trkpt lat="50.344502041116357" lon="-4.68093803152442">
        <ele>88.099999999999994</ele>
        <time>2026-06-23T10:04:43Z</time>
      </trkpt>
      <trkpt lat="50.344612011685967" lon="-4.681054037064314">
        <ele>87.140000000000001</ele>
        <time>2026-06-23T10:04:44Z</time>
      </trkpt>
      <trkpt lat="50.344735980033875" lon="-4.681178005412221">
        <ele>85.689999999999998</ele>
        <time>2026-06-23T10:04:45Z</time>
      </trkpt>
      <trkpt lat="50.344866989180446" lon="-4.681309014558792">
        <ele>84.25</ele>
        <time>2026-06-23T10:04:46Z</time>
      </trkpt>
      <trkpt lat="50.344999004155397" lon="-4.681442035362124">
        <ele>83.290000000000006</ele>
        <time>2026-06-23T10:04:47Z</time>
      </trkpt>
      <trkpt lat="50.345642985776067" lon="-4.68205701559782">
        <ele>80.890000000000001</ele>
        <time>2026-06-23T10:04:52Z</time>
      </trkpt>
      <trkpt lat="50.345787992700934" lon="-4.682152988389134">
        <ele>79.930000000000007</ele>
        <time>2026-06-23T10:04:53Z</time>
      </trkpt>
      <trkpt lat="50.347294975072145" lon="-4.682933008298278">
        <ele>69.349999999999994</ele>
        <time>2026-06-23T10:05:03Z</time>
      </trkpt>
      <trkpt lat="50.348732974380255" lon="-4.683681009337306">
        <ele>63.579999999999998</ele>
        <time>2026-06-23T10:05:13Z</time>
      </trkpt>
      <trkpt lat="50.348994992673397" lon="-4.683907991275191">
        <ele>61.18</ele>
        <time>2026-06-23T10:05:15Z</time>
      </trkpt>
      <trkpt lat="50.349124995991588" lon="-4.684058027341962">
        <ele>59.259999999999998</ele>
        <time>2026-06-23T10:05:16Z</time>
      </trkpt>
      <trkpt lat="50.350206010043621" lon="-4.685332998633385">
        <ele>41.950000000000003</ele>
        <time>2026-06-23T10:05:24Z</time>
      </trkpt>
      <trkpt lat="50.35031002946198" lon="-4.685517987236381">
        <ele>39.549999999999997</ele>
        <time>2026-06-23T10:05:25Z</time>
      </trkpt>
      <trkpt lat="50.350408013910055" lon="-4.685714039951563">
        <ele>37.149999999999999</ele>
        <time>2026-06-23T10:05:26Z</time>
      </trkpt>
      <trkpt lat="50.350484037771821" lon="-4.685913026332855">
        <ele>34.740000000000002</ele>
        <time>2026-06-23T10:05:27Z</time>
      </trkpt>
      <trkpt lat="50.350523013621569" lon="-4.686141014099121">
        <ele>32.340000000000003</ele>
        <time>2026-06-23T10:05:28Z</time>
      </trkpt>
      <trkpt lat="50.350556038320065" lon="-4.686359027400613">
        <ele>29.940000000000001</ele>
        <time>2026-06-23T10:05:29Z</time>
      </trkpt>
      <trkpt lat="50.35054799169302" lon="-4.686591038480401">
        <ele>28.02</ele>
        <time>2026-06-23T10:05:30Z</time>
      </trkpt>
      <trkpt lat="50.350540028885007" lon="-4.686807962134481">
        <ele>26.09</ele>
        <time>2026-06-23T10:05:31Z</time>
      </trkpt>
      <trkpt lat="50.350523013621569" lon="-4.687007032334805">
        <ele>24.170000000000002</ele>
        <time>2026-06-23T10:05:32Z</time>
      </trkpt>
      <trkpt lat="50.350173991173506" lon="-4.688361966982484">
        <ele>12.630000000000001</ele>
        <time>2026-06-23T10:05:40Z</time>
      </trkpt>
      <trkpt lat="50.3501380328089" lon="-4.688513008877635">
        <ele>12.15</ele>
        <time>2026-06-23T10:05:41Z</time>
      </trkpt>
      <trkpt lat="50.350106013938785" lon="-4.688651980832219">
        <ele>11.67</ele>
        <time>2026-06-23T10:05:42Z</time>
      </trkpt>
      <trkpt lat="50.350128980353475" lon="-4.688794976100326">
        <ele>11.19</ele>
        <time>2026-06-23T10:05:43Z</time>
      </trkpt>
      <trkpt lat="50.350151024758816" lon="-4.688935037702322">
        <ele>11.19</ele>
        <time>2026-06-23T10:05:44Z</time>
      </trkpt>
      <trkpt lat="50.350172985345125" lon="-4.689064035192132">
        <ele>10.710000000000001</ele>
        <time>2026-06-23T10:05:45Z</time>
      </trkpt>
      <trkpt lat="50.350225958973169" lon="-4.689183980226517">
        <ele>10.710000000000001</ele>
        <time>2026-06-23T10:05:46Z</time>
      </trkpt>
      <trkpt lat="50.350282033905387" lon="-4.689296968281269">
        <ele>10.23</ele>
        <time>2026-06-23T10:05:47Z</time>
      </trkpt>
      <trkpt lat="50.350345987826586" lon="-4.689412973821163">
        <ele>9.75</ele>
        <time>2026-06-23T10:05:48Z</time>
      </trkpt>
      <trkpt lat="50.350465010851622" lon="-4.689649008214474">
        <ele>9.27</ele>
        <time>2026-06-23T10:05:50Z</time>
      </trkpt>
      <trkpt lat="50.350503986701369" lon="-4.689793009310961">
        <ele>8.789999999999999</ele>
        <time>2026-06-23T10:05:51Z</time>
      </trkpt>
      <trkpt lat="50.350531982257962" lon="-4.689937010407448">
        <ele>8.789999999999999</ele>
        <time>2026-06-23T10:05:52Z</time>
      </trkpt>
      <trkpt lat="50.350553020834923" lon="-4.690065002068877">
        <ele>8.789999999999999</ele>
        <time>2026-06-23T10:05:53Z</time>
      </trkpt>
      <trkpt lat="50.35056903026998" lon="-4.690161980688572">
        <ele>9.27</ele>
        <time>2026-06-23T10:05:54Z</time>
      </trkpt>
      <trkpt lat="50.350588979199529" lon="-4.690302964299917">
        <ele>9.27</ele>
        <time>2026-06-23T10:06:00Z</time>
      </trkpt>
      <trkpt lat="50.350589985027909" lon="-4.690317967906594">
        <ele>9.27</ele>
        <time>2026-06-23T10:06:14Z</time>
      </trkpt>
      <trkpt lat="50.350597025826573" lon="-4.690373037010431">
        <ele>9.27</ele>
        <time>2026-06-23T10:06:15Z</time>
      </trkpt>
      <trkpt lat="50.350608006119728" lon="-4.690460963174701">
        <ele>9.75</ele>
        <time>2026-06-23T10:06:16Z</time>
      </trkpt>
      <trkpt lat="50.350620998069644" lon="-4.690566994249821">
        <ele>9.75</ele>
        <time>2026-06-23T10:06:17Z</time>
      </trkpt>
      <trkpt lat="50.35063499584794" lon="-4.690686017274857">
        <ele>10.23</ele>
        <time>2026-06-23T10:06:18Z</time>
      </trkpt>
      <trkpt lat="50.350653016939759" lon="-4.690829012542963">
        <ele>10.23</ele>
        <time>2026-06-23T10:06:19Z</time>
      </trkpt>
      <trkpt lat="50.350860971957445" lon="-4.692559037357569">
        <ele>14.56</ele>
        <time>2026-06-23T10:06:28Z</time>
      </trkpt>
      <trkpt lat="50.351111004129052" lon="-4.694751994684339">
        <ele>16.48</ele>
        <time>2026-06-23T10:06:38Z</time>
      </trkpt>
      <trkpt lat="50.351277971640229" lon="-4.695847006514669">
        <ele>16.48</ele>
        <time>2026-06-23T10:06:44Z</time>
      </trkpt>
      <trkpt lat="50.351298004388809" lon="-4.696031995117664">
        <ele>16.48</ele>
        <time>2026-06-23T10:06:45Z</time>
      </trkpt>
      <trkpt lat="50.351261040195823" lon="-4.697734024375677">
        <ele>11.67</ele>
        <time>2026-06-23T10:06:55Z</time>
      </trkpt>
      <trkpt lat="50.351271014660597" lon="-4.697880959138274">
        <ele>11.19</ele>
        <time>2026-06-23T10:06:56Z</time>
      </trkpt>
      <trkpt lat="50.351281994953752" lon="-4.698024038225412">
        <ele>10.710000000000001</ele>
        <time>2026-06-23T10:06:57Z</time>
      </trkpt>
      <trkpt lat="50.351305967196822" lon="-4.698164016008377">
        <ele>10.23</ele>
        <time>2026-06-23T10:06:58Z</time>
      </trkpt>
      <trkpt lat="50.351590029895306" lon="-4.699259027838707">
        <ele>9.27</ele>
        <time>2026-06-23T10:07:06Z</time>
      </trkpt>
      <trkpt lat="50.35162003710866" lon="-4.699393976479769">
        <ele>9.27</ele>
        <time>2026-06-23T10:07:07Z</time>
      </trkpt>
      <trkpt lat="50.351649960502982" lon="-4.69952498562634">
        <ele>9.27</ele>
        <time>2026-06-23T10:07:08Z</time>
      </trkpt>
      <trkpt lat="50.351646021008492" lon="-4.699659012258053">
        <ele>9.75</ele>
        <time>2026-06-23T10:07:09Z</time>
      </trkpt>
      <trkpt lat="50.351640991866589" lon="-4.699791027233005">
        <ele>9.27</ele>
        <time>2026-06-23T10:07:10Z</time>
      </trkpt>
      <trkpt lat="50.351635962724686" lon="-4.699920024722815">
        <ele>9.27</ele>
        <time>2026-06-23T10:07:11Z</time>
      </trkpt>
      <trkpt lat="50.351630011573434" lon="-4.700089003890753">
        <ele>9.27</ele>
        <time>2026-06-23T10:07:12Z</time>
      </trkpt>
      <trkpt lat="50.351610984653234" lon="-4.700184976682067">
        <ele>9.27</ele>
        <time>2026-06-23T10:07:13Z</time>
      </trkpt>
      <trkpt lat="50.351264979690313" lon="-4.701965041458607">
        <ele>9.27</ele>
        <time>2026-06-23T10:07:26Z</time>
      </trkpt>
      <trkpt lat="50.351059958338737" lon="-4.702967014163733">
        <ele>9.75</ele>
        <time>2026-06-23T10:07:36Z</time>
      </trkpt>
      <trkpt lat="50.351016037166119" lon="-4.703215034678578">
        <ele>9.27</ele>
        <time>2026-06-23T10:07:46Z</time>
      </trkpt>
      <trkpt lat="50.350949987769127" lon="-4.703590041026473">
        <ele>9.27</ele>
        <time>2026-06-23T10:08:11Z</time>
      </trkpt>
      <trkpt lat="50.35086901858449" lon="-4.704045010730624">
        <ele>8.789999999999999</ele>
        <time>2026-06-23T10:08:16Z</time>
      </trkpt>
      <trkpt lat="50.35084999166429" lon="-4.704151041805744">
        <ele>8.789999999999999</ele>
        <time>2026-06-23T10:08:17Z</time>
      </trkpt>
      <trkpt lat="50.35065402276814" lon="-4.7052619792521">
        <ele>7.83</ele>
        <time>2026-06-23T10:08:27Z</time>
      </trkpt>
      <trkpt lat="50.350495018064976" lon="-4.706454975530505">
        <ele>7.35</ele>
        <time>2026-06-23T10:08:35Z</time>
      </trkpt>
      <trkpt lat="50.35009603947401" lon="-4.707468012347817">
        <ele>7.83</ele>
        <time>2026-06-23T10:08:43Z</time>
      </trkpt>
      <trkpt lat="50.349992020055652" lon="-4.707605978474021">
        <ele>6.39</ele>
        <time>2026-06-23T10:08:48Z</time>
      </trkpt>
      <trkpt lat="50.349941980093718" lon="-4.707678984850645">
        <ele>6.39</ele>
        <time>2026-06-23T10:08:49Z</time>
      </trkpt>
      <trkpt lat="50.349958995357156" lon="-4.707716032862663">
        <ele>6.39</ele>
        <time>2026-06-23T10:08:55Z</time>
      </trkpt>
      <trkpt lat="50.349985985085368" lon="-4.70777596347034">
        <ele>5.91</ele>
        <time>2026-06-23T10:08:56Z</time>
      </trkpt>
      <trkpt lat="50.350021021440625" lon="-4.707853998988867">
        <ele>5.91</ele>
        <time>2026-06-23T10:08:57Z</time>
      </trkpt>
      <trkpt lat="50.350061003118753" lon="-4.707939997315407">
        <ele>5.91</ele>
        <time>2026-06-23T10:08:58Z</time>
      </trkpt>
      <trkpt lat="50.350099978968501" lon="-4.708025995641947">
        <ele>5.91</ele>
        <time>2026-06-23T10:08:59Z</time>
      </trkpt>
      <trkpt lat="50.350149013102055" lon="-4.708134960383177">
        <ele>5.91</ele>
        <time>2026-06-23T10:09:00Z</time>
      </trkpt>
      <trkpt lat="50.35018497146666" lon="-4.708189023658633">
        <ele>5.91</ele>
        <time>2026-06-23T10:09:01Z</time>
      </trkpt>
      <trkpt lat="50.350351016968489" lon="-4.708447018638253">
        <ele>5.91</ele>
        <time>2026-06-23T10:09:04Z</time>
      </trkpt>
      <trkpt lat="50.35039996728301" lon="-4.708553971722722">
        <ele>5.91</ele>
        <time>2026-06-23T10:09:05Z</time>
      </trkpt>
      <trkpt lat="50.350429974496365" lon="-4.708665031939745">
        <ele>6.39</ele>
        <time>2026-06-23T10:09:06Z</time>
      </trkpt>
      <trkpt lat="50.350460987538099" lon="-4.708779025822878">
        <ele>6.39</ele>
        <time>2026-06-23T10:09:07Z</time>
      </trkpt>
      <trkpt lat="50.350494012236595" lon="-4.708899976685643">
        <ele>6.87</ele>
        <time>2026-06-23T10:09:08Z</time>
      </trkpt>
      <trkpt lat="50.350517984479666" lon="-4.709035009145737">
        <ele>7.35</ele>
        <time>2026-06-23T10:09:09Z</time>
      </trkpt>
      <trkpt lat="50.35052795894444" lon="-4.70917297527194">
        <ele>7.35</ele>
        <time>2026-06-23T10:09:10Z</time>
      </trkpt>
      <trkpt lat="50.350620998069644" lon="-4.71074097789824">
        <ele>8.310000000000001</ele>
        <time>2026-06-23T10:09:21Z</time>
      </trkpt>
      <trkpt lat="50.350620998069644" lon="-4.710903000086546">
        <ele>8.310000000000001</ele>
        <time>2026-06-23T10:09:23Z</time>
      </trkpt>
      <trkpt lat="50.350620998069644" lon="-4.711096035316587">
        <ele>8.789999999999999</ele>
        <time>2026-06-23T10:09:24Z</time>
      </trkpt>
      <trkpt lat="50.350620998069644" lon="-4.711268031969667">
        <ele>9.27</ele>
        <time>2026-06-23T10:09:26Z</time>
      </trkpt>
      <trkpt lat="50.350603982806206" lon="-4.712089039385319">
        <ele>10.23</ele>
        <time>2026-06-23T10:09:32Z</time>
      </trkpt>
      <trkpt lat="50.350599959492683" lon="-4.712232034653425">
        <ele>11.19</ele>
        <time>2026-06-23T10:09:33Z</time>
      </trkpt>
      <trkpt lat="50.350604988634586" lon="-4.712373018264771">
        <ele>11.67</ele>
        <time>2026-06-23T10:09:34Z</time>
      </trkpt>
      <trkpt lat="50.35061202943325" lon="-4.712516013532877">
        <ele>12.15</ele>
        <time>2026-06-23T10:09:35Z</time>
      </trkpt>
      <trkpt lat="50.350617980584502" lon="-4.712662026286125">
        <ele>12.630000000000001</ele>
        <time>2026-06-23T10:09:36Z</time>
      </trkpt>
      <trkpt lat="50.350610017776489" lon="-4.712805021554232">
        <ele>13.119999999999999</ele>
        <time>2026-06-23T10:09:37Z</time>
      </trkpt>
      <trkpt lat="50.350589985027909" lon="-4.712947010993958">
        <ele>13.6</ele>
        <time>2026-06-23T10:09:38Z</time>
      </trkpt>
      <trkpt lat="50.350372977554798" lon="-4.714616015553474">
        <ele>14.08</ele>
        <time>2026-06-23T10:09:49Z</time>
      </trkpt>
      <trkpt lat="50.350302988663316" lon="-4.715225966647267">
        <ele>15.039999999999999</ele>
        <time>2026-06-23T10:09:53Z</time>
      </trkpt>
      <trkpt lat="50.350318998098373" lon="-4.715377008542419">
        <ele>15.039999999999999</ele>
        <time>2026-06-23T10:09:54Z</time>
      </trkpt>
      <trkpt lat="50.350336013361812" lon="-4.71553198993206">
        <ele>15.039999999999999</ele>
        <time>2026-06-23T10:09:55Z</time>
      </trkpt>
      <trkpt lat="50.350468028336763" lon="-4.716805033385754">
        <ele>14.56</ele>
        <time>2026-06-23T10:10:03Z</time>
      </trkpt>
      <trkpt lat="50.350456964224577" lon="-4.716975018382072">
        <ele>15.039999999999999</ele>
        <time>2026-06-23T10:10:04Z</time>
      </trkpt>
      <trkpt lat="50.350445983931422" lon="-4.717146009206772">
        <ele>16</ele>
        <time>2026-06-23T10:10:05Z</time>
      </trkpt>
      <trkpt lat="50.350435003638268" lon="-4.717318005859852">
        <ele>16.48</ele>
        <time>2026-06-23T10:10:06Z</time>
      </trkpt>
      <trkpt lat="50.350415976718068" lon="-4.717488996684551">
        <ele>17.440000000000001</ele>
        <time>2026-06-23T10:10:07Z</time>
      </trkpt>
      <trkpt lat="50.350384041666985" lon="-4.717655964195728">
        <ele>18.399999999999999</ele>
        <time>2026-06-23T10:10:08Z</time>
      </trkpt>
      <trkpt lat="50.350023033097386" lon="-4.719658987596631">
        <ele>26.09</ele>
        <time>2026-06-23T10:10:19Z</time>
      </trkpt>
      <trkpt lat="50.349937034770846" lon="-4.720242032781243">
        <ele>29.460000000000001</ele>
        <time>2026-06-23T10:10:22Z</time>
      </trkpt>
      <trkpt lat="50.349957989528775" lon="-4.720424003899097">
        <ele>30.420000000000002</ele>
        <time>2026-06-23T10:10:23Z</time>
      </trkpt>
      <trkpt lat="50.350012974813581" lon="-4.720806973055005">
        <ele>32.82</ele>
        <time>2026-06-23T10:10:25Z</time>
      </trkpt>
      <trkpt lat="50.350212967023253" lon="-4.722418980672956">
        <ele>42.920000000000002</ele>
        <time>2026-06-23T10:10:34Z</time>
      </trkpt>
      <trkpt lat="50.350696016103029" lon="-4.724312033504248">
        <ele>52.049999999999997</ele>
        <time>2026-06-23T10:10:46Z</time>
      </trkpt>
      <trkpt lat="50.350802969187498" lon="-4.724739007651806">
        <ele>54.93</ele>
        <time>2026-06-23T10:10:49Z</time>
      </trkpt>
      <trkpt lat="50.351131958886981" lon="-4.726055972278118">
        <ele>62.619999999999997</ele>
        <time>2026-06-23T10:11:00Z</time>
      </trkpt>
      <trkpt lat="50.351250981912017" lon="-4.726398959755898">
        <ele>65.989999999999995</ele>
        <time>2026-06-23T10:11:08Z</time>
      </trkpt>
      <trkpt lat="50.351304039359093" lon="-4.726536003872752">
        <ele>66.950000000000003</ele>
        <time>2026-06-23T10:11:11Z</time>
      </trkpt>
      <trkpt lat="50.351273026317358" lon="-4.726688973605633">
        <ele>67.909999999999997</ele>
        <time>2026-06-23T10:11:12Z</time>
      </trkpt>
      <trkpt lat="50.351250981912017" lon="-4.726781006902456">
        <ele>67.909999999999997</ele>
        <time>2026-06-23T10:11:13Z</time>
      </trkpt>
      <trkpt lat="50.351131958886981" lon="-4.727267995476723">
        <ele>69.829999999999998</ele>
        <time>2026-06-23T10:11:18Z</time>
      </trkpt>
      <trkpt lat="50.351117039099336" lon="-4.72732599824667">
        <ele>70.310000000000002</ele>
        <time>2026-06-23T10:11:19Z</time>
      </trkpt>
      <trkpt lat="50.351109998300672" lon="-4.727358017116785">
        <ele>70.790000000000006</ele>
        <time>2026-06-23T10:11:20Z</time>
      </trkpt>
      <trkpt lat="50.350967003032565" lon="-4.727328009903431">
        <ele>71.269999999999996</ele>
        <time>2026-06-23T10:11:28Z</time>
      </trkpt>
      <trkpt lat="50.350967003032565" lon="-4.727328009903431">
        <ele>71.269999999999996</ele>
        <time>2026-06-23T10:11:47Z</time>
      </trkpt>
      <trkpt lat="50.350882010534406" lon="-4.727294985204935">
        <ele>73.200000000000003</ele>
        <time>2026-06-23T10:12:00Z</time>
      </trkpt>
      <trkpt lat="50.350879998877645" lon="-4.72730403766036">
        <ele>74.159999999999997</ele>
        <time>2026-06-23T10:12:44Z</time>
      </trkpt>
      <trkpt lat="50.350941019132733" lon="-4.727396992966533">
        <ele>74.159999999999997</ele>
        <time>2026-06-23T10:12:50Z</time>
      </trkpt>
      <trkpt lat="50.351050989702344" lon="-4.727597991004586">
        <ele>71.269999999999996</ele>
        <time>2026-06-23T10:12:55Z</time>
      </trkpt>
      <trkpt lat="50.351040009409189" lon="-4.727644007652998">
        <ele>71.269999999999996</ele>
        <time>2026-06-23T10:12:57Z</time>
      </trkpt>
      <trkpt lat="50.351033974438906" lon="-4.727666974067688">
        <ele>71.760000000000005</ele>
        <time>2026-06-23T10:13:01Z</time>
      </trkpt>
      <trkpt lat="50.35102198831737" lon="-4.727715002372861">
        <ele>71.760000000000005</ele>
        <time>2026-06-23T10:13:02Z</time>
      </trkpt>
      <trkpt lat="50.351005978882313" lon="-4.727782979607582">
        <ele>72.239999999999995</ele>
        <time>2026-06-23T10:13:03Z</time>
      </trkpt>
      <trkpt lat="50.350868012756109" lon="-4.728348003700376">
        <ele>71.760000000000005</ele>
        <time>2026-06-23T10:13:11Z</time>
      </trkpt>
      <trkpt lat="50.350858960300684" lon="-4.728383040055633">
        <ele>71.269999999999996</ele>
        <time>2026-06-23T10:13:14Z</time>
      </trkpt>
      <trkpt lat="50.350878993049264" lon="-4.728394020348787">
        <ele>71.269999999999996</ele>
        <time>2026-06-23T10:13:15Z</time>
      </trkpt>
      <trkpt lat="50.350907994434237" lon="-4.728397959843278">
        <ele>71.269999999999996</ele>
        <time>2026-06-23T10:13:16Z</time>
      </trkpt>
      <trkpt lat="50.350959962233901" lon="-4.728406006470323">
        <ele>71.269999999999996</ele>
        <time>2026-06-23T10:13:17Z</time>
      </trkpt>
      <trkpt lat="50.351016037166119" lon="-4.728409023955464">
        <ele>71.269999999999996</ele>
        <time>2026-06-23T10:13:18Z</time>
      </trkpt>
      <trkpt lat="50.351086026057601" lon="-4.72837801091373">
        <ele>71.269999999999996</ele>
        <time>2026-06-23T10:13:19Z</time>
      </trkpt>
      <trkpt lat="50.351165989413857" lon="-4.728341968730092">
        <ele>71.269999999999996</ele>
        <time>2026-06-23T10:13:20Z</time>
      </trkpt>
      <trkpt lat="50.351634034886956" lon="-4.728112975135446">
        <ele>72.239999999999995</ele>
        <time>2026-06-23T10:13:25Z</time>
      </trkpt>
      <trkpt lat="50.351718021556735" lon="-4.728127978742123">
        <ele>72.719999999999999</ele>
        <time>2026-06-23T10:13:26Z</time>
      </trkpt>
      <trkpt lat="50.351805025711656" lon="-4.7281429823488">
        <ele>72.719999999999999</ele>
        <time>2026-06-23T10:13:27Z</time>
      </trkpt>
      <trkpt lat="50.351896975189447" lon="-4.728159997612238">
        <ele>72.719999999999999</ele>
        <time>2026-06-23T10:13:28Z</time>
      </trkpt>
      <trkpt lat="50.351999988779426" lon="-4.728179024532437">
        <ele>73.200000000000003</ele>
        <time>2026-06-23T10:13:29Z</time>
      </trkpt>
      <trkpt lat="50.353098018094897" lon="-4.728728039190173">
        <ele>81.849999999999994</ele>
        <time>2026-06-23T10:13:38Z</time>
      </trkpt>
      <trkpt lat="50.353603027760983" lon="-4.728918978944421">
        <ele>85.209999999999994</ele>
        <time>2026-06-23T10:13:42Z</time>
      </trkpt>
      <trkpt lat="50.353711992502213" lon="-4.729017969220877">
        <ele>86.180000000000007</ele>
        <time>2026-06-23T10:13:43Z</time>
      </trkpt>
      <trkpt lat="50.353817017748952" lon="-4.729128023609519">
        <ele>87.140000000000001</ele>
        <time>2026-06-23T10:13:44Z</time>
      </trkpt>
      <trkpt lat="50.353924976661801" lon="-4.729241011664271">
        <ele>88.099999999999994</ele>
        <time>2026-06-23T10:13:45Z</time>
      </trkpt>
      <trkpt lat="50.354036958888173" lon="-4.729357017204166">
        <ele>89.060000000000002</ele>
        <time>2026-06-23T10:13:46Z</time>
      </trkpt>
      <trkpt lat="50.354155981913209" lon="-4.729458019137383">
        <ele>90.5</ele>
        <time>2026-06-23T10:13:47Z</time>
      </trkpt>
      <trkpt lat="50.354294031858444" lon="-4.729544017463923">
        <ele>91.459999999999994</ele>
        <time>2026-06-23T10:13:48Z</time>
      </trkpt>
      <trkpt lat="50.355846025049686" lon="-4.730517994612455">
        <ele>104.92</ele>
        <time>2026-06-23T10:13:59Z</time>
      </trkpt>
      <trkpt lat="50.356899965554476" lon="-4.731699004769325">
        <ele>113.09</ele>
        <time>2026-06-23T10:14:08Z</time>
      </trkpt>
      <trkpt lat="50.357997994869947" lon="-4.733389969915152">
        <ele>109.73</ele>
        <time>2026-06-23T10:14:18Z</time>
      </trkpt>
      <trkpt lat="50.358115006238222" lon="-4.733520979061723">
        <ele>109.25</ele>
        <time>2026-06-23T10:14:19Z</time>
      </trkpt>
      <trkpt lat="50.358224976807833" lon="-4.733644025400281">
        <ele>108.29000000000001</ele>
        <time>2026-06-23T10:14:20Z</time>
      </trkpt>
      <trkpt lat="50.35832698456943" lon="-4.733760030940175">
        <ele>107.31999999999999</ele>
        <time>2026-06-23T10:14:21Z</time>
      </trkpt>
      <trkpt lat="50.358399990946054" lon="-4.733920963481069">
        <ele>106.36</ele>
        <time>2026-06-23T10:14:22Z</time>
      </trkpt>
      <trkpt lat="50.358472997322679" lon="-4.734081979840994">
        <ele>105.40000000000001</ele>
        <time>2026-06-23T10:14:23Z</time>
      </trkpt>
      <trkpt lat="50.358601994812489" lon="-4.734407030045986">
        <ele>103</ele>
        <time>2026-06-23T10:14:25Z</time>
      </trkpt>
      <trkpt lat="50.35905403085053" lon="-4.735919963568449">
        <ele>95.790000000000006</ele>
        <time>2026-06-23T10:14:33Z</time>
      </trkpt>
      <trkpt lat="50.359314037486911" lon="-4.736640974879265">
        <ele>93.870000000000005</ele>
        <time>2026-06-23T10:14:37Z</time>
      </trkpt>
      <trkpt lat="50.359404981136322" lon="-4.73675899207592">
        <ele>93.390000000000001</ele>
        <time>2026-06-23T10:14:38Z</time>
      </trkpt>
      <trkpt lat="50.3595079947263" lon="-4.73684398457408">
        <ele>92.900000000000006</ele>
        <time>2026-06-23T10:14:39Z</time>
      </trkpt>
      <trkpt lat="50.359617965295911" lon="-4.736936017870903">
        <ele>92.900000000000006</ele>
        <time>2026-06-23T10:14:40Z</time>
      </trkpt>
      <trkpt lat="50.359733970835805" lon="-4.737032996490598">
        <ele>92.900000000000006</ele>
        <time>2026-06-23T10:14:41Z</time>
      </trkpt>
      <trkpt lat="50.359852993860841" lon="-4.737131986767054">
        <ele>92.900000000000006</ele>
        <time>2026-06-23T10:14:42Z</time>
      </trkpt>
      <trkpt lat="50.359970005229115" lon="-4.737229971215129">
        <ele>93.390000000000001</ele>
        <time>2026-06-23T10:14:43Z</time>
      </trkpt>
      <trkpt lat="50.360163040459156" lon="-4.73748897202313">
        <ele>93.870000000000005</ele>
        <time>2026-06-23T10:14:45Z</time>
      </trkpt>
      <trkpt lat="50.360512984916568" lon="-4.737990964204073">
        <ele>97.709999999999994</ele>
        <time>2026-06-23T10:14:51Z</time>
      </trkpt>
      <trkpt lat="50.360600994899869" lon="-4.73811199888587">
        <ele>98.670000000000002</ele>
        <time>2026-06-23T10:14:53Z</time>
      </trkpt>
      <trkpt lat="50.360652962699533" lon="-4.738182993605733">
        <ele>98.670000000000002</ele>
        <time>2026-06-23T10:14:54Z</time>
      </trkpt>
      <trkpt lat="50.36071096546948" lon="-4.73826396279037">
        <ele>99.629999999999995</ele>
        <time>2026-06-23T10:14:55Z</time>
      </trkpt>
      <trkpt lat="50.360944988206029" lon="-4.738587001338601">
        <ele>101.08</ele>
        <time>2026-06-23T10:14:59Z</time>
      </trkpt>
      <trkpt lat="50.361000979319215" lon="-4.738664031028748">
        <ele>102.04000000000001</ele>
        <time>2026-06-23T10:15:00Z</time>
      </trkpt>
      <trkpt lat="50.36105596460402" lon="-4.738738965243101">
        <ele>102.52</ele>
        <time>2026-06-23T10:15:01Z</time>
      </trkpt>
      <trkpt lat="50.361381014809012" lon="-4.739354029297829">
        <ele>104.44</ele>
        <time>2026-06-23T10:15:08Z</time>
      </trkpt>
      <trkpt lat="50.361632974818349" lon="-4.740017037838697">
        <ele>103.48</ele>
        <time>2026-06-23T10:15:14Z</time>
      </trkpt>
      <trkpt lat="50.361686032265425" lon="-4.74013002589345">
        <ele>103.48</ele>
        <time>2026-06-23T10:15:15Z</time>
      </trkpt>
      <trkpt lat="50.361887030303478" lon="-4.740436971187592">
        <ele>103.48</ele>
        <time>2026-06-23T10:15:18Z</time>
      </trkpt>
      <trkpt lat="50.362058021128178" lon="-4.740664958953857">
        <ele>103.95999999999999</ele>
        <time>2026-06-23T10:15:20Z</time>
      </trkpt>
      <trkpt lat="50.362133039161563" lon="-4.740736959502101">
        <ele>103.95999999999999</ele>
        <time>2026-06-23T10:15:21Z</time>
      </trkpt>
      <trkpt lat="50.362498993054032" lon="-4.741087993606925">
        <ele>104.92</ele>
        <time>2026-06-23T10:15:25Z</time>
      </trkpt>
      <trkpt lat="50.363494008779526" lon="-4.741903971880674">
        <ele>107.81</ele>
        <time>2026-06-23T10:15:35Z</time>
      </trkpt>
      <trkpt lat="50.364300012588501" lon="-4.742607967928052">
        <ele>107.31999999999999</ele>
        <time>2026-06-23T10:15:45Z</time>
      </trkpt>
      <trkpt lat="50.364403026178479" lon="-4.742697989568114">
        <ele>107.31999999999999</ele>
        <time>2026-06-23T10:15:47Z</time>
      </trkpt>
      <trkpt lat="50.364482989534736" lon="-4.742767978459597">
        <ele>107.31999999999999</ele>
        <time>2026-06-23T10:15:48Z</time>
      </trkpt>
      <trkpt lat="50.364482989534736" lon="-4.742767978459597">
        <ele>107.31999999999999</ele>
        <time>2026-06-23T10:15:49Z</time>
      </trkpt>
      <trkpt lat="50.364435967057943" lon="-4.742877027019858">
        <ele>107.31999999999999</ele>
        <time>2026-06-23T10:15:50Z</time>
      </trkpt>
      <trkpt lat="50.364424986764789" lon="-4.74290200509131">
        <ele>107.31999999999999</ele>
        <time>2026-06-23T10:15:51Z</time>
      </trkpt>
      <trkpt lat="50.364393973723054" lon="-4.742975011467934">
        <ele>107.31999999999999</ele>
        <time>2026-06-23T10:15:53Z</time>
      </trkpt>
      <trkpt lat="50.364353992044926" lon="-4.743067966774106">
        <ele>106.84</ele>
        <time>2026-06-23T10:15:55Z</time>
      </trkpt>
      <trkpt lat="50.364282997325063" lon="-4.743126975372434">
        <ele>106.84</ele>
        <time>2026-06-23T10:15:56Z</time>
      </trkpt>
      <trkpt lat="50.364250978454947" lon="-4.74320400506258">
        <ele>106.84</ele>
        <time>2026-06-23T10:15:57Z</time>
      </trkpt>
      <trkpt lat="50.364217031747103" lon="-4.743283968418837">
        <ele>106.84</ele>
        <time>2026-06-23T10:15:58Z</time>
      </trkpt>
      <trkpt lat="50.364184007048607" lon="-4.743364015594125">
        <ele>106.84</ele>
        <time>2026-06-23T10:15:59Z</time>
      </trkpt>
      <trkpt lat="50.364150982350111" lon="-4.74344096146524">
        <ele>106.84</ele>
        <time>2026-06-23T10:16:00Z</time>
      </trkpt>
      <trkpt lat="50.363902961835265" lon="-4.744040016084909">
        <ele>107.81</ele>
        <time>2026-06-23T10:16:07Z</time>
      </trkpt>
      <trkpt lat="50.363807994872332" lon="-4.744287030771375">
        <ele>109.25</ele>
        <time>2026-06-23T10:16:10Z</time>
      </trkpt>
      <trkpt lat="50.363775976002216" lon="-4.744369005784392">
        <ele>109.73</ele>
        <time>2026-06-23T10:16:11Z</time>
      </trkpt>
      <trkpt lat="50.363745968788862" lon="-4.744448969140649">
        <ele>110.20999999999999</ele>
        <time>2026-06-23T10:16:12Z</time>
      </trkpt>
      <trkpt lat="50.363730965182185" lon="-4.744553994387388">
        <ele>110.69</ele>
        <time>2026-06-23T10:16:13Z</time>
      </trkpt>
      <trkpt lat="50.363729037344456" lon="-4.744656002148986">
        <ele>111.17</ele>
        <time>2026-06-23T10:16:14Z</time>
      </trkpt>
      <trkpt lat="50.363715039566159" lon="-4.745622016489506">
        <ele>113.09</ele>
        <time>2026-06-23T10:16:25Z</time>
      </trkpt>
      <trkpt lat="50.363713027909398" lon="-4.745771968737245">
        <ele>113.56999999999999</ele>
        <time>2026-06-23T10:16:29Z</time>
      </trkpt>
      <trkpt lat="50.363662987947464" lon="-4.745900966227055">
        <ele>113.56999999999999</ele>
        <time>2026-06-23T10:16:30Z</time>
      </trkpt>
      <trkpt lat="50.363616971299052" lon="-4.745900966227055">
        <ele>113.56999999999999</ele>
        <time>2026-06-23T10:16:31Z</time>
      </trkpt>
      <trkpt lat="50.363520998507738" lon="-4.745922004804015">
        <ele>113.56999999999999</ele>
        <time>2026-06-23T10:16:33Z</time>
      </trkpt>
      <trkpt lat="50.36346098408103" lon="-4.745994005352259">
        <ele>113.09</ele>
        <time>2026-06-23T10:16:34Z</time>
      </trkpt>
      <trkpt lat="50.363410022109747" lon="-4.74608302116394">
        <ele>112.61</ele>
        <time>2026-06-23T10:16:35Z</time>
      </trkpt>
      <trkpt lat="50.363358976319432" lon="-4.746210006996989">
        <ele>112.61</ele>
        <time>2026-06-23T10:16:36Z</time>
      </trkpt>
      <trkpt lat="50.36330902017653" lon="-4.746335987001658">
        <ele>111.65000000000001</ele>
        <time>2026-06-23T10:16:37Z</time>
      </trkpt>
      <trkpt lat="50.363260991871357" lon="-4.746456015855074">
        <ele>111.17</ele>
        <time>2026-06-23T10:16:38Z</time>
      </trkpt>
      <trkpt lat="50.363163007423282" lon="-4.74653497338295">
        <ele>110.69</ele>
        <time>2026-06-23T10:16:39Z</time>
      </trkpt>
      <trkpt lat="50.363081032410264" lon="-4.74659901112318">
        <ele>110.20999999999999</ele>
        <time>2026-06-23T10:16:40Z</time>
      </trkpt>
      <trkpt lat="50.363004002720118" lon="-4.746659025549889">
        <ele>110.20999999999999</ele>
        <time>2026-06-23T10:16:41Z</time>
      </trkpt>
      <trkpt lat="50.362932002171874" lon="-4.746715016663075">
        <ele>110.69</ele>
        <time>2026-06-23T10:16:42Z</time>
      </trkpt>
      <trkpt lat="50.36285899579525" lon="-4.746772013604641">
        <ele>110.69</ele>
        <time>2026-06-23T10:16:43Z</time>
      </trkpt>
      <trkpt lat="50.362766040489078" lon="-4.746845019981265">
        <ele>111.17</ele>
        <time>2026-06-23T10:16:44Z</time>
      </trkpt>
      <trkpt lat="50.362695967778563" lon="-4.746866980567575">
        <ele>110.69</ele>
        <time>2026-06-23T10:16:45Z</time>
      </trkpt>
      <trkpt lat="50.362604018300772" lon="-4.746896987780929">
        <ele>110.20999999999999</ele>
        <time>2026-06-23T10:16:46Z</time>
      </trkpt>
      <trkpt lat="50.362507039681077" lon="-4.746928000822663">
        <ele>110.20999999999999</ele>
        <time>2026-06-23T10:16:47Z</time>
      </trkpt>
      <trkpt lat="50.362409977242351" lon="-4.746959013864398">
        <ele>109.73</ele>
        <time>2026-06-23T10:16:48Z</time>
      </trkpt>
      <trkpt lat="50.361549993976951" lon="-4.747236035764217">
        <ele>105.40000000000001</ele>
        <time>2026-06-23T10:16:57Z</time>
      </trkpt>
      <trkpt lat="50.361458966508508" lon="-4.747272999957204">
        <ele>104.92</ele>
        <time>2026-06-23T10:16:58Z</time>
      </trkpt>
      <trkpt lat="50.361044984310865" lon="-4.747635014355183">
        <ele>104.44</ele>
        <time>2026-06-23T10:17:03Z</time>
      </trkpt>
      <trkpt lat="50.36098899319768" lon="-4.747764011844993">
        <ele>104.44</ele>
        <time>2026-06-23T10:17:04Z</time>
      </trkpt>
      <trkpt lat="50.360938031226397" lon="-4.747898038476706">
        <ele>104.44</ele>
        <time>2026-06-23T10:17:05Z</time>
      </trkpt>
      <trkpt lat="50.360885979607701" lon="-4.748033992946148">
        <ele>104.44</ele>
        <time>2026-06-23T10:17:06Z</time>
      </trkpt>
      <trkpt lat="50.360812973231077" lon="-4.748163996264339">
        <ele>103.95999999999999</ele>
        <time>2026-06-23T10:17:07Z</time>
      </trkpt>
      <trkpt lat="50.360735021531582" lon="-4.748259969055653">
        <ele>103.48</ele>
        <time>2026-06-23T10:17:08Z</time>
      </trkpt>
      <trkpt lat="50.360664026811719" lon="-4.748346973210573">
        <ele>102.52</ele>
        <time>2026-06-23T10:17:09Z</time>
      </trkpt>
      <trkpt lat="50.360549027100205" lon="-4.748315960168839">
        <ele>102.04000000000001</ele>
        <time>2026-06-23T10:17:10Z</time>
      </trkpt>
      <trkpt lat="50.36045397631824" lon="-4.748289976269007">
        <ele>101.08</ele>
        <time>2026-06-23T10:17:11Z</time>
      </trkpt>
      <trkpt lat="50.360360015183687" lon="-4.748264998197556">
        <ele>100.59999999999999</ele>
        <time>2026-06-23T10:17:12Z</time>
      </trkpt>
      <trkpt lat="50.359994983300567" lon="-4.7481660079211">
        <ele>100.11</ele>
        <time>2026-06-23T10:17:16Z</time>
      </trkpt>
      <trkpt lat="50.359617965295911" lon="-4.748055031523109">
        <ele>100.11</ele>
        <time>2026-06-23T10:17:24Z</time>
      </trkpt>
      <trkpt lat="50.359530039131641" lon="-4.747976996004582">
        <ele>100.59999999999999</ele>
        <time>2026-06-23T10:17:26Z</time>
      </trkpt>
      <trkpt lat="50.359489973634481" lon="-4.747942965477705">
        <ele>101.08</ele>
        <time>2026-06-23T10:17:27Z</time>
      </trkpt>
      <trkpt lat="50.359461978077888" lon="-4.747917987406254">
        <ele>101.08</ele>
        <time>2026-06-23T10:17:28Z</time>
      </trkpt>
      <trkpt lat="50.359437000006437" lon="-4.747846992686391">
        <ele>101.56</ele>
        <time>2026-06-23T10:17:29Z</time>
      </trkpt>
      <trkpt lat="50.359414033591747" lon="-4.747782032936811">
        <ele>101.56</ele>
        <time>2026-06-23T10:17:30Z</time>
      </trkpt>
      <trkpt lat="50.359390983358026" lon="-4.747714977711439">
        <ele>102.04000000000001</ele>
        <time>2026-06-23T10:17:31Z</time>
      </trkpt>
      <trkpt lat="50.359363993629813" lon="-4.747637026011944">
        <ele>102.04000000000001</ele>
        <time>2026-06-23T10:17:32Z</time>
      </trkpt>
      <trkpt lat="50.359132988378406" lon="-4.746580990031362">
        <ele>104.44</ele>
        <time>2026-06-23T10:17:42Z</time>
      </trkpt>
      <trkpt lat="50.358899971470237" lon="-4.745376007631421">
        <ele>101.56</ele>
        <time>2026-06-23T10:17:55Z</time>
      </trkpt>
      <trkpt lat="50.358860995620489" lon="-4.745170986279845">
        <ele>99.150000000000006</ele>
        <time>2026-06-23T10:18:04Z</time>
      </trkpt>
      <trkpt lat="50.358813973143697" lon="-4.744995972141624">
        <ele>99.629999999999995</ele>
        <time>2026-06-23T10:18:42Z</time>
      </trkpt>
      <trkpt lat="50.358764017000794" lon="-4.744824981316924">
        <ele>99.150000000000006</ele>
        <time>2026-06-23T10:18:44Z</time>
      </trkpt>
      <trkpt lat="50.358725041151047" lon="-4.744738982990384">
        <ele>99.150000000000006</ele>
        <time>2026-06-23T10:18:45Z</time>
      </trkpt>
      <trkpt lat="50.358685981482267" lon="-4.744651978835464">
        <ele>98.670000000000002</ele>
        <time>2026-06-23T10:18:46Z</time>
      </trkpt>
      <trkpt lat="50.358632002025843" lon="-4.744584001600742">
        <ele>98.670000000000002</ele>
        <time>2026-06-23T10:18:47Z</time>
      </trkpt>
      <trkpt lat="50.358571987599134" lon="-4.744534967467189">
        <ele>98.189999999999998</ele>
        <time>2026-06-23T10:18:48Z</time>
      </trkpt>
      <trkpt lat="50.358515996485949" lon="-4.744489034637809">
        <ele>97.709999999999994</ele>
        <time>2026-06-23T10:18:49Z</time>
      </trkpt>
      <trkpt lat="50.358462017029524" lon="-4.744445029646158">
        <ele>97.230000000000004</ele>
        <time>2026-06-23T10:18:50Z</time>
      </trkpt>
      <trkpt lat="50.358330002054572" lon="-4.744302034378052">
        <ele>96.269999999999996</ele>
        <time>2026-06-23T10:18:53Z</time>
      </trkpt>
      <trkpt lat="50.358284991234541" lon="-4.744249982759357">
        <ele>95.790000000000006</ele>
        <time>2026-06-23T10:18:54Z</time>
      </trkpt>
      <trkpt lat="50.357949966564775" lon="-4.743808005005121">
        <ele>95.790000000000006</ele>
        <time>2026-06-23T10:19:01Z</time>
      </trkpt>
      <trkpt lat="50.357907973229885" lon="-4.743728041648865">
        <ele>95.790000000000006</ele>
        <time>2026-06-23T10:19:02Z</time>
      </trkpt>
      <trkpt lat="50.357864974066615" lon="-4.743646988645196">
        <ele>96.269999999999996</ele>
        <time>2026-06-23T10:19:03Z</time>
      </trkpt>
      <trkpt lat="50.35783102735877" lon="-4.743583034723997">
        <ele>96.269999999999996</ele>
        <time>2026-06-23T10:19:04Z</time>
      </trkpt>
      <trkpt lat="50.35783102735877" lon="-4.743464011698961">
        <ele>96.269999999999996</ele>
        <time>2026-06-23T10:19:05Z</time>
      </trkpt>
      <trkpt lat="50.35783102735877" lon="-4.743356974795461">
        <ele>95.790000000000006</ele>
        <time>2026-06-23T10:19:06Z</time>
      </trkpt>
      <trkpt lat="50.35783102735877" lon="-4.74324700422585">
        <ele>95.790000000000006</ele>
        <time>2026-06-23T10:19:07Z</time>
      </trkpt>
      <trkpt lat="50.35783102735877" lon="-4.74313703365624">
        <ele>95.790000000000006</ele>
        <time>2026-06-23T10:19:08Z</time>
      </trkpt>
      <trkpt lat="50.35783102735877" lon="-4.743090011179447">
        <ele>95.310000000000002</ele>
        <time>2026-06-23T10:19:09Z</time>
      </trkpt>
      <trkpt lat="50.357865979894996" lon="-4.742963025346398">
        <ele>94.349999999999994</ele>
        <time>2026-06-23T10:19:10Z</time>
      </trkpt>
      <trkpt lat="50.357890035957098" lon="-4.742875015363097">
        <ele>93.870000000000005</ele>
        <time>2026-06-23T10:19:11Z</time>
      </trkpt>
      <trkpt lat="50.357909984886646" lon="-4.742802008986473">
        <ele>93.390000000000001</ele>
        <time>2026-06-23T10:19:12Z</time>
      </trkpt>
      <trkpt lat="50.357928005978465" lon="-4.742733025923371">
        <ele>92.420000000000002</ele>
        <time>2026-06-23T10:19:13Z</time>
      </trkpt>
      <trkpt lat="50.358012998476624" lon="-4.742459021508694">
        <ele>90.5</ele>
        <time>2026-06-23T10:19:17Z</time>
      </trkpt>
      <trkpt lat="50.358041999861598" lon="-4.742413004860282">
        <ele>90.5</ele>
        <time>2026-06-23T10:19:18Z</time>
      </trkpt>
      <trkpt lat="50.358101008459926" lon="-4.742318959906697">
        <ele>90.019999999999996</ele>
        <time>2026-06-23T10:19:20Z</time>
      </trkpt>
      <trkpt lat="50.358127998188138" lon="-4.742275960743427">
        <ele>89.540000000000006</ele>
        <time>2026-06-23T10:19:21Z</time>
      </trkpt>
      <trkpt lat="50.358187006786466" lon="-4.742180993780494">
        <ele>89.060000000000002</ele>
        <time>2026-06-23T10:19:23Z</time>
      </trkpt>
      <trkpt lat="50.358782038092613" lon="-4.742530016228557">
        <ele>84.25</ele>
        <time>2026-06-23T10:19:35Z</time>
      </trkpt>
      <trkpt lat="50.358810033649206" lon="-4.742635041475296">
        <ele>82.329999999999998</ele>
        <time>2026-06-23T10:19:44Z</time>
      </trkpt>
      <trkpt lat="50.358790000900626" lon="-4.742535967379808">
        <ele>70.310000000000002</ele>
        <time>2026-06-23T10:43:05Z</time>
      </trkpt>
      <trkpt lat="50.358803998678923" lon="-4.742697989568114">
        <ele>83.769999999999996</ele>
        <time>2026-06-23T10:43:32Z</time>
      </trkpt>
      <trkpt lat="50.358800981193781" lon="-4.74270997568965">
        <ele>87.620000000000005</ele>
        <time>2026-06-23T10:44:17Z</time>
      </trkpt>
      <trkpt lat="50.3587999753654" lon="-4.742715004831553">
        <ele>88.099999999999994</ele>
        <time>2026-06-23T10:45:10Z</time>
      </trkpt>
      <trkpt lat="50.35879603587091" lon="-4.74271098151803">
        <ele>88.099999999999994</ele>
        <time>2026-06-23T10:45:54Z</time>
      </trkpt>
      <trkpt lat="50.35879603587091" lon="-4.74271098151803">
        <ele>88.099999999999994</ele>
        <time>2026-06-23T10:46:09Z</time>
      </trkpt>
      <trkpt lat="50.3586480114609" lon="-4.742542002350092">
        <ele>85.689999999999998</ele>
        <time>2026-06-23T10:46:17Z</time>
      </trkpt>
      <trkpt lat="50.35851800814271" lon="-4.742431025952101">
        <ele>85.209999999999994</ele>
        <time>2026-06-23T10:46:27Z</time>
      </trkpt>
      <trkpt lat="50.358107965439558" lon="-4.742307979613543">
        <ele>86.180000000000007</ele>
        <time>2026-06-23T10:46:33Z</time>
      </trkpt>
      <trkpt lat="50.358017021790147" lon="-4.74245298653841">
        <ele>86.659999999999997</ele>
        <time>2026-06-23T10:46:36Z</time>
      </trkpt>
      <trkpt lat="50.357980979606509" lon="-4.742509983479977">
        <ele>87.140000000000001</ele>
        <time>2026-06-23T10:46:38Z</time>
      </trkpt>
      <trkpt lat="50.357954995706677" lon="-4.742634035646915">
        <ele>87.140000000000001</ele>
        <time>2026-06-23T10:46:39Z</time>
      </trkpt>
      <trkpt lat="50.357934040948749" lon="-4.742711987346411">
        <ele>87.620000000000005</ele>
        <time>2026-06-23T10:46:40Z</time>
      </trkpt>
      <trkpt lat="50.357890035957098" lon="-4.742871997877955">
        <ele>88.099999999999994</ele>
        <time>2026-06-23T10:46:42Z</time>
      </trkpt>
      <trkpt lat="50.357838990166783" lon="-4.743060003966093">
        <ele>88.099999999999994</ele>
        <time>2026-06-23T10:46:44Z</time>
      </trkpt>
      <trkpt lat="50.35783102735877" lon="-4.74314097315073">
        <ele>88.579999999999998</ele>
        <time>2026-06-23T10:46:45Z</time>
      </trkpt>
      <trkpt lat="50.35783102735877" lon="-4.743261002004147">
        <ele>89.060000000000002</ele>
        <time>2026-06-23T10:46:46Z</time>
      </trkpt>
      <trkpt lat="50.35783102735877" lon="-4.743380025029182">
        <ele>89.540000000000006</ele>
        <time>2026-06-23T10:46:47Z</time>
      </trkpt>
      <trkpt lat="50.35783102735877" lon="-4.743493013083935">
        <ele>90.019999999999996</ele>
        <time>2026-06-23T10:46:48Z</time>
      </trkpt>
      <trkpt lat="50.357836978510022" lon="-4.743595020845532">
        <ele>90.980000000000004</ele>
        <time>2026-06-23T10:46:49Z</time>
      </trkpt>
      <trkpt lat="50.357884000986814" lon="-4.743683030828834">
        <ele>91.459999999999994</ele>
        <time>2026-06-23T10:46:50Z</time>
      </trkpt>
      <trkpt lat="50.357934962958097" lon="-4.743779003620148">
        <ele>91.939999999999998</ele>
        <time>2026-06-23T10:46:51Z</time>
      </trkpt>
      <trkpt lat="50.357985002920032" lon="-4.743874976411462">
        <ele>92.420000000000002</ele>
        <time>2026-06-23T10:46:52Z</time>
      </trkpt>
      <trkpt lat="50.358023978769779" lon="-4.743947982788086">
        <ele>92.420000000000002</ele>
        <time>2026-06-23T10:46:53Z</time>
      </trkpt>
      <trkpt lat="50.358090028166771" lon="-4.744024006649852">
        <ele>92.900000000000006</ele>
        <time>2026-06-23T10:46:54Z</time>
      </trkpt>
      <trkpt lat="50.358149958774447" lon="-4.744093995541334">
        <ele>93.390000000000001</ele>
        <time>2026-06-23T10:46:55Z</time>
      </trkpt>
      <trkpt lat="50.358705008402467" lon="-4.744694977998734">
        <ele>96.269999999999996</ele>
        <time>2026-06-23T10:47:05Z</time>
      </trkpt>
      <trkpt lat="50.358748007565737" lon="-4.744789022952318">
        <ele>97.230000000000004</ele>
        <time>2026-06-23T10:47:06Z</time>
      </trkpt>
      <trkpt lat="50.358788995072246" lon="-4.74490100517869">
        <ele>97.709999999999994</ele>
        <time>2026-06-23T10:47:07Z</time>
      </trkpt>
      <trkpt lat="50.359041960909963" lon="-4.746118979528546">
        <ele>105.88</ele>
        <time>2026-06-23T10:47:18Z</time>
      </trkpt>
      <trkpt lat="50.359087977558374" lon="-4.746357025578618">
        <ele>107.81</ele>
        <time>2026-06-23T10:47:20Z</time>
      </trkpt>
      <trkpt lat="50.359110021963716" lon="-4.746463978663087">
        <ele>108.77</ele>
        <time>2026-06-23T10:47:21Z</time>
      </trkpt>
      <trkpt lat="50.359172970056534" lon="-4.746786011382937">
        <ele>111.17</ele>
        <time>2026-06-23T10:47:24Z</time>
      </trkpt>
      <trkpt lat="50.359219992533326" lon="-4.747023973613977">
        <ele>112.13</ele>
        <time>2026-06-23T10:47:26Z</time>
      </trkpt>
      <trkpt lat="50.359390983358026" lon="-4.74771598353982">
        <ele>110.20999999999999</ele>
        <time>2026-06-23T10:47:32Z</time>
      </trkpt>
      <trkpt lat="50.359424008056521" lon="-4.747810028493404">
        <ele>109.73</ele>
        <time>2026-06-23T10:47:33Z</time>
      </trkpt>
      <trkpt lat="50.359458960592747" lon="-4.747910024598241">
        <ele>109.25</ele>
        <time>2026-06-23T10:47:34Z</time>
      </trkpt>
      <trkpt lat="50.35953096114099" lon="-4.747978001832962">
        <ele>108.77</ele>
        <time>2026-06-23T10:47:35Z</time>
      </trkpt>
      <trkpt lat="50.359594998881221" lon="-4.748033992946148">
        <ele>108.29000000000001</ele>
        <time>2026-06-23T10:47:36Z</time>
      </trkpt>
      <trkpt lat="50.359663981944323" lon="-4.748075986281037">
        <ele>107.81</ele>
        <time>2026-06-23T10:47:37Z</time>
      </trkpt>
      <trkpt lat="50.359735982492566" lon="-4.748096019029617">
        <ele>107.31999999999999</ele>
        <time>2026-06-23T10:47:38Z</time>
      </trkpt>
      <trkpt lat="50.359798008576035" lon="-4.748112028464675">
        <ele>106.36</ele>
        <time>2026-06-23T10:47:39Z</time>
      </trkpt>
      <trkpt lat="50.35985098220408" lon="-4.748127032071352">
        <ele>105.88</ele>
        <time>2026-06-23T10:47:40Z</time>
      </trkpt>
      <trkpt lat="50.359909990802407" lon="-4.74814304150641">
        <ele>105.40000000000001</ele>
        <time>2026-06-23T10:47:41Z</time>
      </trkpt>
      <trkpt lat="50.360510973259807" lon="-4.748305985704064">
        <ele>104.44</ele>
        <time>2026-06-23T10:47:48Z</time>
      </trkpt>
      <trkpt lat="50.360594037920237" lon="-4.748328030109406">
        <ele>103.95999999999999</ele>
        <time>2026-06-23T10:47:49Z</time>
      </trkpt>
      <trkpt lat="50.360694034025073" lon="-4.748309003189206">
        <ele>103.48</ele>
        <time>2026-06-23T10:47:50Z</time>
      </trkpt>
      <trkpt lat="50.360757987946272" lon="-4.748230967670679">
        <ele>103</ele>
        <time>2026-06-23T10:47:51Z</time>
      </trkpt>
      <trkpt lat="50.360823031514883" lon="-4.748152010142803">
        <ele>102.04000000000001</ele>
        <time>2026-06-23T10:47:52Z</time>
      </trkpt>
      <trkpt lat="50.36088103428483" lon="-4.748047990724444">
        <ele>101.56</ele>
        <time>2026-06-23T10:47:53Z</time>
      </trkpt>
      <trkpt lat="50.3609240334481" lon="-4.747935002669692">
        <ele>101.56</ele>
        <time>2026-06-23T10:47:54Z</time>
      </trkpt>
      <trkpt lat="50.361027969047427" lon="-4.747659992426634">
        <ele>100.59999999999999</ele>
        <time>2026-06-23T10:47:56Z</time>
      </trkpt>
      <trkpt lat="50.361073985695839" lon="-4.747591009363532">
        <ele>100.59999999999999</ele>
        <time>2026-06-23T10:47:57Z</time>
      </trkpt>
      <trkpt lat="50.361132994294167" lon="-4.747502999380231">
        <ele>100.59999999999999</ele>
        <time>2026-06-23T10:47:58Z</time>
      </trkpt>
      <trkpt lat="50.361222010105848" lon="-4.74739202298224">
        <ele>100.11</ele>
        <time>2026-06-23T10:47:59Z</time>
      </trkpt>
      <trkpt lat="50.361295016482472" lon="-4.747354974970222">
        <ele>100.11</ele>
        <time>2026-06-23T10:48:00Z</time>
      </trkpt>
      <trkpt lat="50.361375985667109" lon="-4.747314993292093">
        <ele>100.11</ele>
        <time>2026-06-23T10:48:01Z</time>
      </trkpt>
      <trkpt lat="50.361460978165269" lon="-4.747271994128823">
        <ele>100.11</ele>
        <time>2026-06-23T10:48:02Z</time>
      </trkpt>
      <trkpt lat="50.361636998131871" lon="-4.747208962216973">
        <ele>99.629999999999995</ele>
        <time>2026-06-23T10:48:04Z</time>
      </trkpt>
      <trkpt lat="50.362685993313789" lon="-4.746871003881097">
        <ele>102.04000000000001</ele>
        <time>2026-06-23T10:48:14Z</time>
      </trkpt>
      <trkpt lat="50.36300802603364" lon="-4.746656008064747">
        <ele>103</ele>
        <time>2026-06-23T10:48:18Z</time>
      </trkpt>
      <trkpt lat="50.363084971904755" lon="-4.746594987809658">
        <ele>103</ele>
        <time>2026-06-23T10:48:19Z</time>
      </trkpt>
      <trkpt lat="50.363160995766521" lon="-4.74653597921133">
        <ele>103</ele>
        <time>2026-06-23T10:48:20Z</time>
      </trkpt>
      <trkpt lat="50.363259986042976" lon="-4.746459033340216">
        <ele>103</ele>
        <time>2026-06-23T10:48:21Z</time>
      </trkpt>
      <trkpt lat="50.363297034054995" lon="-4.746367000043392">
        <ele>102.52</ele>
        <time>2026-06-23T10:48:22Z</time>
      </trkpt>
      <trkpt lat="50.363341961055994" lon="-4.746253006160259">
        <ele>102.52</ele>
        <time>2026-06-23T10:48:23Z</time>
      </trkpt>
      <trkpt lat="50.363385966047645" lon="-4.746143035590649">
        <ele>102.52</ele>
        <time>2026-06-23T10:48:24Z</time>
      </trkpt>
      <trkpt lat="50.363427959382534" lon="-4.74603901617229">
        <ele>102.04000000000001</ele>
        <time>2026-06-23T10:48:25Z</time>
      </trkpt>
      <trkpt lat="50.363472970202565" lon="-4.745980007573962">
        <ele>102.04000000000001</ele>
        <time>2026-06-23T10:48:26Z</time>
      </trkpt>
      <trkpt lat="50.363520998507738" lon="-4.745922004804015">
        <ele>102.04000000000001</ele>
        <time>2026-06-23T10:48:27Z</time>
      </trkpt>
      <trkpt lat="50.363549999892712" lon="-4.745900966227055">
        <ele>101.56</ele>
        <time>2026-06-23T10:48:28Z</time>
      </trkpt>
      <trkpt lat="50.363585036247969" lon="-4.745900966227055">
        <ele>101.56</ele>
        <time>2026-06-23T10:48:29Z</time>
      </trkpt>
      <trkpt lat="50.3636110201478" lon="-4.745900966227055">
        <ele>101.08</ele>
        <time>2026-06-23T10:48:30Z</time>
      </trkpt>
      <trkpt lat="50.363712022081017" lon="-4.74582402035594">
        <ele>101.08</ele>
        <time>2026-06-23T10:48:33Z</time>
      </trkpt>
      <trkpt lat="50.363713027909398" lon="-4.745757970958948">
        <ele>100.59999999999999</ele>
        <time>2026-06-23T10:48:34Z</time>
      </trkpt>
      <trkpt lat="50.363714033737779" lon="-4.745657974854112">
        <ele>100.59999999999999</ele>
        <time>2026-06-23T10:48:35Z</time>
      </trkpt>
      <trkpt lat="50.363715961575508" lon="-4.745540963485837">
        <ele>100.59999999999999</ele>
        <time>2026-06-23T10:48:36Z</time>
      </trkpt>
      <trkpt lat="50.363717973232269" lon="-4.745408026501536">
        <ele>100.59999999999999</ele>
        <time>2026-06-23T10:48:37Z</time>
      </trkpt>
      <trkpt lat="50.36371998488903" lon="-4.745263019576669">
        <ele>100.59999999999999</ele>
        <time>2026-06-23T10:48:38Z</time>
      </trkpt>
      <trkpt lat="50.363721996545792" lon="-4.745110971853137">
        <ele>100.11</ele>
        <time>2026-06-23T10:48:39Z</time>
      </trkpt>
      <trkpt lat="50.363729037344456" lon="-4.744673017412424">
        <ele>99.629999999999995</ele>
        <time>2026-06-23T10:48:42Z</time>
      </trkpt>
      <trkpt lat="50.363730965182185" lon="-4.744535973295569">
        <ele>99.150000000000006</ele>
        <time>2026-06-23T10:48:43Z</time>
      </trkpt>
      <trkpt lat="50.363770024850965" lon="-4.744386021047831">
        <ele>98.670000000000002</ele>
        <time>2026-06-23T10:48:44Z</time>
      </trkpt>
      <trkpt lat="50.363817969337106" lon="-4.744260963052511">
        <ele>98.189999999999998</ele>
        <time>2026-06-23T10:48:45Z</time>
      </trkpt>
      <trkpt lat="50.36386800929904" lon="-4.744130959734321">
        <ele>98.189999999999998</ele>
        <time>2026-06-23T10:48:46Z</time>
      </trkpt>
      <trkpt lat="50.363916959613562" lon="-4.744004979729652">
        <ele>98.189999999999998</ele>
        <time>2026-06-23T10:48:47Z</time>
      </trkpt>
      <trkpt lat="50.364216025918722" lon="-4.743286985903978">
        <ele>96.75</ele>
        <time>2026-06-23T10:48:54Z</time>
      </trkpt>
      <trkpt lat="50.364353992044926" lon="-4.743067966774106">
        <ele>95.790000000000006</ele>
        <time>2026-06-23T10:48:57Z</time>
      </trkpt>
      <trkpt lat="50.364353992044926" lon="-4.743067966774106">
        <ele>95.310000000000002</ele>
        <time>2026-06-23T10:48:58Z</time>
      </trkpt>
      <trkpt lat="50.364380981773138" lon="-4.743005018681288">
        <ele>94.349999999999994</ele>
        <time>2026-06-23T10:48:59Z</time>
      </trkpt>
      <trkpt lat="50.364399002864957" lon="-4.742964031174779">
        <ele>93.870000000000005</ele>
        <time>2026-06-23T10:49:00Z</time>
      </trkpt>
      <trkpt lat="50.364414006471634" lon="-4.742927988991141">
        <ele>93.390000000000001</ele>
        <time>2026-06-23T10:49:01Z</time>
      </trkpt>
      <trkpt lat="50.364429010078311" lon="-4.742893036454916">
        <ele>92.900000000000006</ele>
        <time>2026-06-23T10:49:02Z</time>
      </trkpt>
      <trkpt lat="50.364465974271297" lon="-4.742807038128376">
        <ele>90.980000000000004</ele>
        <time>2026-06-23T10:49:09Z</time>
      </trkpt>
      <trkpt lat="50.364482989534736" lon="-4.742767978459597">
        <ele>90.5</ele>
        <time>2026-06-23T10:49:10Z</time>
      </trkpt>
      <trkpt lat="50.36445097066462" lon="-4.742739982903004">
        <ele>90.5</ele>
        <time>2026-06-23T10:49:11Z</time>
      </trkpt>
      <trkpt lat="50.364389028400183" lon="-4.742686003446579">
        <ele>90.980000000000004</ele>
        <time>2026-06-23T10:49:12Z</time>
      </trkpt>
      <trkpt lat="50.36432096734643" lon="-4.742625989019871">
        <ele>90.5</ele>
        <time>2026-06-23T10:49:13Z</time>
      </trkpt>
      <trkpt lat="50.363448997959495" lon="-4.741864996030927">
        <ele>92.420000000000002</ele>
        <time>2026-06-23T10:49:22Z</time>
      </trkpt>
      <trkpt lat="50.362459011375904" lon="-4.741050023585558">
        <ele>91.939999999999998</ele>
        <time>2026-06-23T10:49:31Z</time>
      </trkpt>
      <trkpt lat="50.36187001504004" lon="-4.740414004772902">
        <ele>91.459999999999994</ele>
        <time>2026-06-23T10:49:37Z</time>
      </trkpt>
      <trkpt lat="50.361785022541881" lon="-4.740301016718149">
        <ele>91.459999999999994</ele>
        <time>2026-06-23T10:49:38Z</time>
      </trkpt>
      <trkpt lat="50.361574972048402" lon="-4.739893991500139">
        <ele>90.5</ele>
        <time>2026-06-23T10:49:41Z</time>
      </trkpt>
      <trkpt lat="50.361458966508508" lon="-4.739574976265431">
        <ele>90.5</ele>
        <time>2026-06-23T10:49:43Z</time>
      </trkpt>
      <trkpt lat="50.361408004537225" lon="-4.739421000704169">
        <ele>90.5</ele>
        <time>2026-06-23T10:49:44Z</time>
      </trkpt>
      <trkpt lat="50.361345978453755" lon="-4.739283034577966">
        <ele>90.980000000000004</ele>
        <time>2026-06-23T10:49:45Z</time>
      </trkpt>
      <trkpt lat="50.361071974039078" lon="-4.738762015476823">
        <ele>90.5</ele>
        <time>2026-06-23T10:49:49Z</time>
      </trkpt>
      <trkpt lat="50.360987987369299" lon="-4.738646009936929">
        <ele>90.019999999999996</ele>
        <time>2026-06-23T10:49:50Z</time>
      </trkpt>
      <trkpt lat="50.360899977385998" lon="-4.738524975255132">
        <ele>90.019999999999996</ele>
        <time>2026-06-23T10:49:51Z</time>
      </trkpt>
      <trkpt lat="50.359932035207748" lon="-4.737198036164045">
        <ele>87.140000000000001</ele>
        <time>2026-06-23T10:50:02Z</time>
      </trkpt>
      <trkpt lat="50.359831033274531" lon="-4.737113965675235">
        <ele>86.659999999999997</ele>
        <time>2026-06-23T10:50:03Z</time>
      </trkpt>
      <trkpt lat="50.35935502499342" lon="-4.736716998741031">
        <ele>86.659999999999997</ele>
        <time>2026-06-23T10:50:08Z</time>
      </trkpt>
      <trkpt lat="50.359275983646512" lon="-4.736571991816163">
        <ele>86.659999999999997</ele>
        <time>2026-06-23T10:50:09Z</time>
      </trkpt>
      <trkpt lat="50.358782038092613" lon="-4.734984962269664">
        <ele>88.579999999999998</ele>
        <time>2026-06-23T10:50:19Z</time>
      </trkpt>
      <trkpt lat="50.358324972912669" lon="-4.733756007626653">
        <ele>95.790000000000006</ele>
        <time>2026-06-23T10:50:27Z</time>
      </trkpt>
      <trkpt lat="50.358221959322691" lon="-4.733641007915139">
        <ele>97.230000000000004</ele>
        <time>2026-06-23T10:50:28Z</time>
      </trkpt>
      <trkpt lat="50.358123974874616" lon="-4.733531959354878">
        <ele>98.670000000000002</ele>
        <time>2026-06-23T10:50:29Z</time>
      </trkpt>
      <trkpt lat="50.357930017635226" lon="-4.73330195993185">
        <ele>101.08</ele>
        <time>2026-06-23T10:50:31Z</time>
      </trkpt>
      <trkpt lat="50.357843013480306" lon="-4.733164999634028">
        <ele>102.04000000000001</ele>
        <time>2026-06-23T10:50:32Z</time>
      </trkpt>
      <trkpt lat="50.35692997276783" lon="-4.731746027246118">
        <ele>109.73</ele>
        <time>2026-06-23T10:50:41Z</time>
      </trkpt>
      <trkpt lat="50.355885000899434" lon="-4.730554036796093">
        <ele>109.25</ele>
        <time>2026-06-23T10:50:50Z</time>
      </trkpt>
      <trkpt lat="50.354747995734215" lon="-4.729826990514994">
        <ele>100.59999999999999</ele>
        <time>2026-06-23T10:50:58Z</time>
      </trkpt>
      <trkpt lat="50.354052968323231" lon="-4.729375038295984">
        <ele>94.349999999999994</ele>
        <time>2026-06-23T10:51:03Z</time>
      </trkpt>
      <trkpt lat="50.353939980268478" lon="-4.729257021099329">
        <ele>92.900000000000006</ele>
        <time>2026-06-23T10:51:04Z</time>
      </trkpt>
      <trkpt lat="50.35372800193727" lon="-4.729034984484315">
        <ele>90.980000000000004</ele>
        <time>2026-06-23T10:51:06Z</time>
      </trkpt>
      <trkpt lat="50.35362096503377" lon="-4.728926019743085">
        <ele>90.019999999999996</ele>
        <time>2026-06-23T10:51:07Z</time>
      </trkpt>
      <trkpt lat="50.353487022221088" lon="-4.728877991437912">
        <ele>89.060000000000002</ele>
        <time>2026-06-23T10:51:08Z</time>
      </trkpt>
      <trkpt lat="50.351860010996461" lon="-4.728153040632606">
        <ele>76.079999999999998</ele>
        <time>2026-06-23T10:51:19Z</time>
      </trkpt>
      <trkpt lat="50.351734030991793" lon="-4.728130996227264">
        <ele>74.640000000000001</ele>
        <time>2026-06-23T10:51:20Z</time>
      </trkpt>
      <trkpt lat="50.351614002138376" lon="-4.72812001593411">
        <ele>73.680000000000007</ele>
        <time>2026-06-23T10:51:21Z</time>
      </trkpt>
      <trkpt lat="50.351506965234876" lon="-4.728172989562154">
        <ele>72.719999999999999</ele>
        <time>2026-06-23T10:51:22Z</time>
      </trkpt>
      <trkpt lat="50.351405963301659" lon="-4.728224035352469">
        <ele>71.269999999999996</ele>
        <time>2026-06-23T10:51:23Z</time>
      </trkpt>
      <trkpt lat="50.351312002167106" lon="-4.728270974010229">
        <ele>70.310000000000002</ele>
        <time>2026-06-23T10:51:24Z</time>
      </trkpt>
      <trkpt lat="50.351222986355424" lon="-4.72831598483026">
        <ele>69.349999999999994</ele>
        <time>2026-06-23T10:51:25Z</time>
      </trkpt>
      <trkpt lat="50.350965997204185" lon="-4.728407012298703">
        <ele>66.950000000000003</ele>
        <time>2026-06-23T10:51:29Z</time>
      </trkpt>
      <trkpt lat="50.350904976949096" lon="-4.728397959843278">
        <ele>65.510000000000005</ele>
        <time>2026-06-23T10:51:36Z</time>
      </trkpt>
      <trkpt lat="50.350860971957445" lon="-4.728392008692026">
        <ele>65.030000000000001</ele>
        <time>2026-06-23T10:51:49Z</time>
      </trkpt>
      <trkpt lat="50.350828031077981" lon="-4.728502985090017">
        <ele>65.510000000000005</ele>
        <time>2026-06-23T10:51:50Z</time>
      </trkpt>
      <trkpt lat="50.350801963359118" lon="-4.728597030043602">
        <ele>65.510000000000005</ele>
        <time>2026-06-23T10:51:51Z</time>
      </trkpt>
      <trkpt lat="50.350713031366467" lon="-4.728810014203191">
        <ele>65.510000000000005</ele>
        <time>2026-06-23T10:51:53Z</time>
      </trkpt>
      <trkpt lat="50.350648993626237" lon="-4.72891797311604">
        <ele>65.510000000000005</ele>
        <time>2026-06-23T10:51:54Z</time>
      </trkpt>
      <trkpt lat="50.350556960329413" lon="-4.729011012241244">
        <ele>65.989999999999995</ele>
        <time>2026-06-23T10:51:55Z</time>
      </trkpt>
      <trkpt lat="50.349673004820943" lon="-4.72994601354003">
        <ele>60.700000000000003</ele>
        <time>2026-06-23T10:52:05Z</time>
      </trkpt>
      <trkpt lat="50.349607039242983" lon="-4.730067970231175">
        <ele>59.740000000000002</ele>
        <time>2026-06-23T10:52:06Z</time>
      </trkpt>
      <trkpt lat="50.349548030644655" lon="-4.730214988812804">
        <ele>58.780000000000001</ele>
        <time>2026-06-23T10:52:07Z</time>
      </trkpt>
      <trkpt lat="50.349511988461018" lon="-4.73037600517273">
        <ele>57.82</ele>
        <time>2026-06-23T10:52:08Z</time>
      </trkpt>
      <trkpt lat="50.349472006782889" lon="-4.73054800182581">
        <ele>56.859999999999999</ele>
        <time>2026-06-23T10:52:09Z</time>
      </trkpt>
      <trkpt lat="50.349143017083406" lon="-4.732488999143243">
        <ele>44.359999999999999</ele>
        <time>2026-06-23T10:52:19Z</time>
      </trkpt>
      <trkpt lat="50.34885099157691" lon="-4.733838988468051">
        <ele>36.189999999999998</ele>
        <time>2026-06-23T10:52:25Z</time>
      </trkpt>
      <trkpt lat="50.34874496050179" lon="-4.734018025919795">
        <ele>34.740000000000002</ele>
        <time>2026-06-23T10:52:26Z</time>
      </trkpt>
      <trkpt lat="50.348639013245702" lon="-4.734198991209269">
        <ele>33.299999999999997</ele>
        <time>2026-06-23T10:52:27Z</time>
      </trkpt>
      <trkpt lat="50.347790010273457" lon="-4.735671021044254">
        <ele>25.609999999999999</ele>
        <time>2026-06-23T10:52:36Z</time>
      </trkpt>
      <trkpt lat="50.347062963992357" lon="-4.73705998621881">
        <ele>21.289999999999999</ele>
        <time>2026-06-23T10:52:46Z</time>
      </trkpt>
      <trkpt lat="50.346554014831781" lon="-4.738361025229096">
        <ele>20.809999999999999</ele>
        <time>2026-06-23T10:52:54Z</time>
      </trkpt>
      <trkpt lat="50.345986979082227" lon="-4.740466978400946">
        <ele>19.84</ele>
        <time>2026-06-23T10:53:06Z</time>
      </trkpt>
      <trkpt lat="50.345940040424466" lon="-4.740629000589252">
        <ele>19.84</ele>
        <time>2026-06-23T10:53:07Z</time>
      </trkpt>
      <trkpt lat="50.345793021842837" lon="-4.741066033020616">
        <ele>21.289999999999999</ele>
        <time>2026-06-23T10:53:10Z</time>
      </trkpt>
      <trkpt lat="50.345753040164709" lon="-4.741172986105084">
        <ele>21.77</ele>
        <time>2026-06-23T10:53:11Z</time>
      </trkpt>
      <trkpt lat="50.345568973571062" lon="-4.74122797138989">
        <ele>22.73</ele>
        <time>2026-06-23T10:53:13Z</time>
      </trkpt>
      <trkpt lat="50.345556987449527" lon="-4.741398962214589">
        <ele>23.210000000000001</ele>
        <time>2026-06-23T10:53:14Z</time>
      </trkpt>
      <trkpt lat="50.345548018813133" lon="-4.741846974939108">
        <ele>24.649999999999999</ele>
        <time>2026-06-23T10:53:17Z</time>
      </trkpt>
      <trkpt lat="50.345478029921651" lon="-4.7421720251441">
        <ele>24.649999999999999</ele>
        <time>2026-06-23T10:53:19Z</time>
      </trkpt>
      <trkpt lat="50.345443999394774" lon="-4.742337986826897">
        <ele>24.649999999999999</ele>
        <time>2026-06-23T10:53:20Z</time>
      </trkpt>
      <trkpt lat="50.345119033008814" lon="-4.744005985558033">
        <ele>24.170000000000002</ele>
        <time>2026-06-23T10:53:30Z</time>
      </trkpt>
      <trkpt lat="50.344959022477269" lon="-4.744430026039481">
        <ele>22.25</ele>
        <time>2026-06-23T10:53:33Z</time>
      </trkpt>
      <trkpt lat="50.344720976427197" lon="-4.744956996291876">
        <ele>22.25</ele>
        <time>2026-06-23T10:53:37Z</time>
      </trkpt>
      <trkpt lat="50.34414597786963" lon="-4.746075980365276">
        <ele>24.649999999999999</ele>
        <time>2026-06-23T10:53:45Z</time>
      </trkpt>
      <trkpt lat="50.344072971493006" lon="-4.746244037523866">
        <ele>24.649999999999999</ele>
        <time>2026-06-23T10:53:46Z</time>
      </trkpt>
      <trkpt lat="50.344002982601523" lon="-4.746402958407998">
        <ele>25.129999999999999</ele>
        <time>2026-06-23T10:53:47Z</time>
      </trkpt>
      <trkpt lat="50.343941040337086" lon="-4.746572021394968">
        <ele>25.609999999999999</ele>
        <time>2026-06-23T10:53:48Z</time>
      </trkpt>
      <trkpt lat="50.343883959576488" lon="-4.746761033311486">
        <ele>25.609999999999999</ele>
        <time>2026-06-23T10:53:49Z</time>
      </trkpt>
      <trkpt lat="50.34330703318119" lon="-4.748430037871003">
        <ele>26.09</ele>
        <time>2026-06-23T10:53:59Z</time>
      </trkpt>
      <trkpt lat="50.3426209744066" lon="-4.750413028523326">
        <ele>28.98</ele>
        <time>2026-06-23T10:54:13Z</time>
      </trkpt>
      <trkpt lat="50.342373037710786" lon="-4.75126001983881">
        <ele>29.940000000000001</ele>
        <time>2026-06-23T10:54:19Z</time>
      </trkpt>
      <trkpt lat="50.342331966385245" lon="-4.751398991793394">
        <ele>30.420000000000002</ele>
        <time>2026-06-23T10:54:20Z</time>
      </trkpt>
      <trkpt lat="50.341873979195952" lon="-4.752900023013353">
        <ele>33.299999999999997</ele>
        <time>2026-06-23T10:54:31Z</time>
      </trkpt>
      <trkpt lat="50.341850006952882" lon="-4.752978980541229">
        <ele>33.780000000000001</ele>
        <time>2026-06-23T10:54:32Z</time>
      </trkpt>
      <trkpt lat="50.341830980032682" lon="-4.753038994967938">
        <ele>34.740000000000002</ele>
        <time>2026-06-23T10:54:33Z</time>
      </trkpt>
      <trkpt lat="50.341756967827678" lon="-4.753271006047726">
        <ele>37.630000000000003</ele>
        <time>2026-06-23T10:54:38Z</time>
      </trkpt>
      <trkpt lat="50.341731989756227" lon="-4.753346024081111">
        <ele>38.109999999999999</ele>
        <time>2026-06-23T10:54:39Z</time>
      </trkpt>
      <trkpt lat="50.341537026688457" lon="-4.753948012366891">
        <ele>40.030000000000001</ele>
        <time>2026-06-23T10:54:46Z</time>
      </trkpt>
      <trkpt lat="50.341323036700487" lon="-4.754349002614617">
        <ele>40.030000000000001</ele>
        <time>2026-06-23T10:54:50Z</time>
      </trkpt>
      <trkpt lat="50.340521978214383" lon="-4.755705026909709">
        <ele>37.630000000000003</ele>
        <time>2026-06-23T10:55:03Z</time>
      </trkpt>
      <trkpt lat="50.340043036267161" lon="-4.756866004317999">
        <ele>38.109999999999999</ele>
        <time>2026-06-23T10:55:14Z</time>
      </trkpt>
      <trkpt lat="50.339686973020434" lon="-4.75830702111125">
        <ele>40.990000000000002</ele>
        <time>2026-06-23T10:55:28Z</time>
      </trkpt>
      <trkpt lat="50.339671969413757" lon="-4.758367035537958">
        <ele>40.990000000000002</ele>
        <time>2026-06-23T10:55:29Z</time>
      </trkpt>
      <trkpt lat="50.339637016877532" lon="-4.758510030806065">
        <ele>40.990000000000002</ele>
        <time>2026-06-23T10:55:37Z</time>
      </trkpt>
      <trkpt lat="50.339537020772696" lon="-4.758814964443445">
        <ele>42.439999999999998</ele>
        <time>2026-06-23T10:55:48Z</time>
      </trkpt>
      <trkpt lat="50.339153967797756" lon="-4.759954987093806">
        <ele>42.439999999999998</ele>
        <time>2026-06-23T10:55:59Z</time>
      </trkpt>
      <trkpt lat="50.339126978069544" lon="-4.760049032047391">
        <ele>42.439999999999998</ele>
        <time>2026-06-23T10:56:00Z</time>
      </trkpt>
      <trkpt lat="50.339050032198429" lon="-4.760337034240365">
        <ele>42.920000000000002</ele>
        <time>2026-06-23T10:56:03Z</time>
      </trkpt>
      <trkpt lat="50.338990017771721" lon="-4.760747998952866">
        <ele>42.920000000000002</ele>
        <time>2026-06-23T10:56:06Z</time>
      </trkpt>
      <trkpt lat="50.338870994746685" lon="-4.762179963290691">
        <ele>45.799999999999997</ele>
        <time>2026-06-23T10:56:16Z</time>
      </trkpt>
      <trkpt lat="50.338800000026822" lon="-4.763730028644204">
        <ele>48.200000000000003</ele>
        <time>2026-06-23T10:56:25Z</time>
      </trkpt>
      <trkpt lat="50.338735962286592" lon="-4.765967996791005">
        <ele>54.93</ele>
        <time>2026-06-23T10:56:37Z</time>
      </trkpt>
      <trkpt lat="50.338711990043521" lon="-4.766340991482139">
        <ele>56.859999999999999</ele>
        <time>2026-06-23T10:56:39Z</time>
      </trkpt>
      <trkpt lat="50.338711990043521" lon="-4.766523968428373">
        <ele>57.82</ele>
        <time>2026-06-23T10:56:40Z</time>
      </trkpt>
      <trkpt lat="50.338711990043521" lon="-4.766694037243724">
        <ele>58.299999999999997</ele>
        <time>2026-06-23T10:56:41Z</time>
      </trkpt>
      <trkpt lat="50.33871098421514" lon="-4.766840972006321">
        <ele>59.740000000000002</ele>
        <time>2026-06-23T10:56:42Z</time>
      </trkpt>
      <trkpt lat="50.338707966729999" lon="-4.766982961446047">
        <ele>60.700000000000003</ele>
        <time>2026-06-23T10:56:43Z</time>
      </trkpt>
      <trkpt lat="50.338705033063889" lon="-4.767126040533185">
        <ele>61.18</ele>
        <time>2026-06-23T10:56:44Z</time>
      </trkpt>
      <trkpt lat="50.338660022243857" lon="-4.769151024520397">
        <ele>73.200000000000003</ele>
        <time>2026-06-23T10:56:57Z</time>
      </trkpt>
      <trkpt lat="50.338634960353374" lon="-4.769599037244916">
        <ele>75.120000000000005</ele>
        <time>2026-06-23T10:57:00Z</time>
      </trkpt>
      <trkpt lat="50.338625991716981" lon="-4.769697021692991">
        <ele>76.079999999999998</ele>
        <time>2026-06-23T10:57:01Z</time>
      </trkpt>
      <trkpt lat="50.338583998382092" lon="-4.769757958129048">
        <ele>76.560000000000002</ele>
        <time>2026-06-23T10:57:02Z</time>
      </trkpt>
      <trkpt lat="50.33855801448226" lon="-4.769796011969447">
        <ele>77.519999999999996</ele>
        <time>2026-06-23T10:57:03Z</time>
      </trkpt>
      <trkpt lat="50.338528007268906" lon="-4.769836999475956">
        <ele>78</ele>
        <time>2026-06-23T10:57:04Z</time>
      </trkpt>
      <trkpt lat="50.338490959256887" lon="-4.769889973104">
        <ele>78.969999999999999</ele>
        <time>2026-06-23T10:57:05Z</time>
      </trkpt>
      <trkpt lat="50.338447960093617" lon="-4.769924003630877">
        <ele>79.450000000000003</ele>
        <time>2026-06-23T10:57:06Z</time>
      </trkpt>
      <trkpt lat="50.338394986465573" lon="-4.769946970045567">
        <ele>79.930000000000007</ele>
        <time>2026-06-23T10:57:07Z</time>
      </trkpt>
      <trkpt lat="50.338340001180768" lon="-4.769970020279288">
        <ele>80.409999999999997</ele>
        <time>2026-06-23T10:57:08Z</time>
      </trkpt>
      <trkpt lat="50.338285015895963" lon="-4.77005803026259">
        <ele>80.890000000000001</ele>
        <time>2026-06-23T10:57:09Z</time>
      </trkpt>
      <trkpt lat="50.338243022561073" lon="-4.770143022760749">
        <ele>81.849999999999994</ele>
        <time>2026-06-23T10:57:10Z</time>
      </trkpt>
      <trkpt lat="50.3381949942559" lon="-4.770226003602147">
        <ele>82.329999999999998</ele>
        <time>2026-06-23T10:57:11Z</time>
      </trkpt>
      <trkpt lat="50.338147971779108" lon="-4.77029599249363">
        <ele>82.810000000000002</ele>
        <time>2026-06-23T10:57:12Z</time>
      </trkpt>
      <trkpt lat="50.337991984561086" lon="-4.770531021058559">
        <ele>84.25</ele>
        <time>2026-06-23T10:57:19Z</time>
      </trkpt>
      <trkpt lat="50.337811019271612" lon="-4.770688014104962">
        <ele>84.25</ele>
        <time>2026-06-23T10:57:29Z</time>
      </trkpt>
      <trkpt lat="50.337538020685315" lon="-4.770888006314635">
        <ele>82.810000000000002</ele>
        <time>2026-06-23T10:57:41Z</time>
      </trkpt>
      <trkpt lat="50.337020019069314" lon="-4.771337024867535">
        <ele>80.409999999999997</ele>
        <time>2026-06-23T10:57:50Z</time>
      </trkpt>
      <trkpt lat="50.33694801852107" lon="-4.771412964910269">
        <ele>79.930000000000007</ele>
        <time>2026-06-23T10:57:51Z</time>
      </trkpt>
      <trkpt lat="50.336525989696383" lon="-4.772160965949297">
        <ele>76.079999999999998</ele>
        <time>2026-06-23T10:57:58Z</time>
      </trkpt>
      <trkpt lat="50.336069008335471" lon="-4.773537022992969">
        <ele>68.390000000000001</ele>
        <time>2026-06-23T10:58:09Z</time>
      </trkpt>
      <trkpt lat="50.335658965632319" lon="-4.774740999564529">
        <ele>61.18</ele>
        <time>2026-06-23T10:58:19Z</time>
      </trkpt>
      <trkpt lat="50.335395019501448" lon="-4.775419011712074">
        <ele>56.369999999999997</ele>
        <time>2026-06-23T10:58:28Z</time>
      </trkpt>
      <trkpt lat="50.335322013124824" lon="-4.775551026687026">
        <ele>53.969999999999999</ele>
        <time>2026-06-23T10:58:37Z</time>
      </trkpt>
      <trkpt lat="50.335091007873416" lon="-4.775826036930084">
        <ele>53.009999999999998</ele>
        <time>2026-06-23T10:58:46Z</time>
      </trkpt>
      <trkpt lat="50.335095031186938" lon="-4.775944976136088">
        <ele>53.009999999999998</ele>
        <time>2026-06-23T10:58:47Z</time>
      </trkpt>
      <trkpt lat="50.335107017308474" lon="-4.776091994717717">
        <ele>53.009999999999998</ele>
        <time>2026-06-23T10:58:48Z</time>
      </trkpt>
      <trkpt lat="50.335087990388274" lon="-4.776215041056275">
        <ele>53.009999999999998</ele>
        <time>2026-06-23T10:58:49Z</time>
      </trkpt>
      <trkpt lat="50.335066029801965" lon="-4.776350995525718">
        <ele>53.009999999999998</ele>
        <time>2026-06-23T10:58:50Z</time>
      </trkpt>
      <trkpt lat="50.335042979568243" lon="-4.776497008278966">
        <ele>53.490000000000002</ele>
        <time>2026-06-23T10:58:51Z</time>
      </trkpt>
      <trkpt lat="50.335011966526508" lon="-4.77665500715375">
        <ele>53.490000000000002</ele>
        <time>2026-06-23T10:58:52Z</time>
      </trkpt>
      <trkpt lat="50.334474015980959" lon="-4.778240025043488">
        <ele>56.859999999999999</ele>
        <time>2026-06-23T10:59:04Z</time>
      </trkpt>
      <trkpt lat="50.33415399491787" lon="-4.77940795943141">
        <ele>58.780000000000001</ele>
        <time>2026-06-23T10:59:12Z</time>
      </trkpt>
      <trkpt lat="50.334106972441077" lon="-4.779917998239398">
        <ele>57.82</ele>
        <time>2026-06-23T10:59:15Z</time>
      </trkpt>
      <trkpt lat="50.334040001034737" lon="-4.781478960067034">
        <ele>58.299999999999997</ele>
        <time>2026-06-23T10:59:24Z</time>
      </trkpt>
      <trkpt lat="50.334013011306524" lon="-4.783253995701671">
        <ele>55.890000000000001</ele>
        <time>2026-06-23T10:59:34Z</time>
      </trkpt>
      <trkpt lat="50.334013011306524" lon="-4.785015033558011">
        <ele>53.009999999999998</ele>
        <time>2026-06-23T10:59:43Z</time>
      </trkpt>
      <trkpt lat="50.334000019356608" lon="-4.785668989643455">
        <ele>54.93</ele>
        <time>2026-06-23T10:59:49Z</time>
      </trkpt>
      <trkpt lat="50.333993984386325" lon="-4.785808967426419">
        <ele>56.369999999999997</ele>
        <time>2026-06-23T10:59:58Z</time>
      </trkpt>
      <trkpt lat="50.333975963294506" lon="-4.786244994029403">
        <ele>56.859999999999999</ele>
        <time>2026-06-23T11:00:03Z</time>
      </trkpt>
      <trkpt lat="50.333972023800015" lon="-4.786353036761284">
        <ele>56.859999999999999</ele>
        <time>2026-06-23T11:00:04Z</time>
      </trkpt>
      <trkpt lat="50.333970012143254" lon="-4.786465018987656">
        <ele>56.859999999999999</ele>
        <time>2026-06-23T11:00:05Z</time>
      </trkpt>
      <trkpt lat="50.33381000161171" lon="-4.787833029404283">
        <ele>55.890000000000001</ele>
        <time>2026-06-23T11:00:14Z</time>
      </trkpt>
      <trkpt lat="50.33363800495863" lon="-4.789604041725397">
        <ele>53.490000000000002</ele>
        <time>2026-06-23T11:00:23Z</time>
      </trkpt>
      <trkpt lat="50.33372500911355" lon="-4.790813969448209">
        <ele>49.649999999999999</ele>
        <time>2026-06-23T11:00:31Z</time>
      </trkpt>
      <trkpt lat="50.334033966064453" lon="-4.792264960706234">
        <ele>43.880000000000003</ele>
        <time>2026-06-23T11:00:41Z</time>
      </trkpt>
      <trkpt lat="50.33413203433156" lon="-4.792552040889859">
        <ele>42.439999999999998</ele>
        <time>2026-06-23T11:00:43Z</time>
      </trkpt>
      <trkpt lat="50.33434996381402" lon="-4.793366007506847">
        <ele>37.149999999999999</ele>
        <time>2026-06-23T11:00:49Z</time>
      </trkpt>
      <trkpt lat="50.334372008219361" lon="-4.79345896281302">
        <ele>36.670000000000002</ele>
        <time>2026-06-23T11:00:50Z</time>
      </trkpt>
      <trkpt lat="50.334355998784304" lon="-4.793644035235047">
        <ele>36.189999999999998</ele>
        <time>2026-06-23T11:00:51Z</time>
      </trkpt>
      <trkpt lat="50.334355998784304" lon="-4.793644035235047">
        <ele>36.189999999999998</ele>
        <time>2026-06-23T11:00:52Z</time>
      </trkpt>
      <trkpt lat="50.334252985194325" lon="-4.793760040774941">
        <ele>35.710000000000001</ele>
        <time>2026-06-23T11:00:53Z</time>
      </trkpt>
      <trkpt lat="50.334188025444746" lon="-4.793764986097813">
        <ele>35.229999999999997</ele>
        <time>2026-06-23T11:00:54Z</time>
      </trkpt>
      <trkpt lat="50.334099009633064" lon="-4.793773032724857">
        <ele>34.740000000000002</ele>
        <time>2026-06-23T11:00:55Z</time>
      </trkpt>
      <trkpt lat="50.334023991599679" lon="-4.793721986934543">
        <ele>34.740000000000002</ele>
        <time>2026-06-23T11:00:56Z</time>
      </trkpt>
      <trkpt lat="50.333941010758281" lon="-4.793664989992976">
        <ele>34.740000000000002</ele>
        <time>2026-06-23T11:00:57Z</time>
      </trkpt>
      <trkpt lat="50.332901990041137" lon="-4.792932998389006">
        <ele>34.740000000000002</ele>
        <time>2026-06-23T11:01:08Z</time>
      </trkpt>
      <trkpt lat="50.331674963235855" lon="-4.792709033936262">
        <ele>30.420000000000002</ele>
        <time>2026-06-23T11:01:19Z</time>
      </trkpt>
      <trkpt lat="50.330357998609543" lon="-4.792580036446452">
        <ele>27.530000000000001</ele>
        <time>2026-06-23T11:01:29Z</time>
      </trkpt>
      <trkpt lat="50.32899702899158" lon="-4.792710961773992">
        <ele>25.609999999999999</ele>
        <time>2026-06-23T11:01:37Z</time>
      </trkpt>
      <trkpt lat="50.328007964417338" lon="-4.79292000643909">
        <ele>24.649999999999999</ele>
        <time>2026-06-23T11:01:43Z</time>
      </trkpt>
      <trkpt lat="50.327843008562922" lon="-4.792972980067134">
        <ele>24.649999999999999</ele>
        <time>2026-06-23T11:01:44Z</time>
      </trkpt>
      <trkpt lat="50.3276870213449" lon="-4.793044980615377">
        <ele>24.170000000000002</ele>
        <time>2026-06-23T11:01:45Z</time>
      </trkpt>
      <trkpt lat="50.327528016641736" lon="-4.793117986992002">
        <ele>24.170000000000002</ele>
        <time>2026-06-23T11:01:46Z</time>
      </trkpt>
      <trkpt lat="50.327372029423714" lon="-4.793189987540245">
        <ele>24.170000000000002</ele>
        <time>2026-06-23T11:01:47Z</time>
      </trkpt>
      <trkpt lat="50.327230039983988" lon="-4.793285960331559">
        <ele>24.170000000000002</ele>
        <time>2026-06-23T11:01:48Z</time>
      </trkpt>
      <trkpt lat="50.32708696089685" lon="-4.793399032205343">
        <ele>24.649999999999999</ele>
        <time>2026-06-23T11:01:49Z</time>
      </trkpt>
      <trkpt lat="50.326944971457124" lon="-4.793513026088476">
        <ele>24.649999999999999</ele>
        <time>2026-06-23T11:01:50Z</time>
      </trkpt>
      <trkpt lat="50.326815973967314" lon="-4.79365099221468">
        <ele>25.129999999999999</ele>
        <time>2026-06-23T11:01:51Z</time>
      </trkpt>
      <trkpt lat="50.326694017276168" lon="-4.793805973604322">
        <ele>25.129999999999999</ele>
        <time>2026-06-23T11:01:52Z</time>
      </trkpt>
      <trkpt lat="50.32657097093761" lon="-4.793962966650724">
        <ele>25.609999999999999</ele>
        <time>2026-06-23T11:01:53Z</time>
      </trkpt>
      <trkpt lat="50.325742000713944" lon="-4.794982960447669">
        <ele>26.09</ele>
        <time>2026-06-23T11:02:00Z</time>
      </trkpt>
      <trkpt lat="50.324570965021849" lon="-4.795789970085025">
        <ele>23.210000000000001</ele>
        <time>2026-06-23T11:02:08Z</time>
      </trkpt>
      <trkpt lat="50.324427969753742" lon="-4.795908993110061">
        <ele>22.73</ele>
        <time>2026-06-23T11:02:09Z</time>
      </trkpt>
      <trkpt lat="50.323287025094032" lon="-4.79683100245893">
        <ele>18.399999999999999</ele>
        <time>2026-06-23T11:02:17Z</time>
      </trkpt>
      <trkpt lat="50.322238029912114" lon="-4.797414969652891">
        <ele>15.039999999999999</ele>
        <time>2026-06-23T11:02:24Z</time>
      </trkpt>
      <trkpt lat="50.320775974541903" lon="-4.798236982896924">
        <ele>9.75</ele>
        <time>2026-06-23T11:02:34Z</time>
      </trkpt>
      <trkpt lat="50.319464961066842" lon="-4.799072993919253">
        <ele>8.310000000000001</ele>
        <time>2026-06-23T11:02:43Z</time>
      </trkpt>
      <trkpt lat="50.318571031093597" lon="-4.799766009673476">
        <ele>8.310000000000001</ele>
        <time>2026-06-23T11:02:50Z</time>
      </trkpt>
      <trkpt lat="50.317959990352392" lon="-4.800145961344242">
        <ele>7.35</ele>
        <time>2026-06-23T11:02:57Z</time>
      </trkpt>
      <trkpt lat="50.317856976762414" lon="-4.800169011577964">
        <ele>7.83</ele>
        <time>2026-06-23T11:02:58Z</time>
      </trkpt>
      <trkpt lat="50.317755974829197" lon="-4.800186026841402">
        <ele>8.789999999999999</ele>
        <time>2026-06-23T11:02:59Z</time>
      </trkpt>
      <trkpt lat="50.316977966576815" lon="-4.80009600520134">
        <ele>10.23</ele>
        <time>2026-06-23T11:03:06Z</time>
      </trkpt>
      <trkpt lat="50.316863972693682" lon="-4.800145961344242">
        <ele>9.75</ele>
        <time>2026-06-23T11:03:07Z</time>
      </trkpt>
      <trkpt lat="50.315902987495065" lon="-4.80067502707243">
        <ele>9.27</ele>
        <time>2026-06-23T11:03:16Z</time>
      </trkpt>
      <trkpt lat="50.315803997218609" lon="-4.800707967951894">
        <ele>9.27</ele>
        <time>2026-06-23T11:03:17Z</time>
      </trkpt>
      <trkpt lat="50.315596964210272" lon="-4.800777034834027">
        <ele>9.75</ele>
        <time>2026-06-23T11:03:19Z</time>
      </trkpt>
      <trkpt lat="50.315485987812281" lon="-4.800770999863744">
        <ele>10.23</ele>
        <time>2026-06-23T11:03:20Z</time>
      </trkpt>
      <trkpt lat="50.315377023071051" lon="-4.800744010135531">
        <ele>11.19</ele>
        <time>2026-06-23T11:03:21Z</time>
      </trkpt>
      <trkpt lat="50.31526898033917" lon="-4.800705034285784">
        <ele>11.67</ele>
        <time>2026-06-23T11:03:22Z</time>
      </trkpt>
      <trkpt lat="50.315163033083081" lon="-4.800638984888792">
        <ele>12.630000000000001</ele>
        <time>2026-06-23T11:03:23Z</time>
      </trkpt>
      <trkpt lat="50.31505398452282" lon="-4.800572013482451">
        <ele>13.119999999999999</ele>
        <time>2026-06-23T11:03:24Z</time>
      </trkpt>
      <trkpt lat="50.314074978232384" lon="-4.800345031544566">
        <ele>14.56</ele>
        <time>2026-06-23T11:03:32Z</time>
      </trkpt>
      <trkpt lat="50.312997987493873" lon="-4.800171023234725">
        <ele>14.56</ele>
        <time>2026-06-23T11:03:39Z</time>
      </trkpt>
      <trkpt lat="50.312428018078208" lon="-4.800149984657764">
        <ele>15.52</ele>
        <time>2026-06-23T11:03:43Z</time>
      </trkpt>
      <trkpt lat="50.312294997274876" lon="-4.800191977992654">
        <ele>16</ele>
        <time>2026-06-23T11:03:44Z</time>
      </trkpt>
      <trkpt lat="50.312165999785066" lon="-4.800234977155924">
        <ele>16</ele>
        <time>2026-06-23T11:03:45Z</time>
      </trkpt>
      <trkpt lat="50.312041025608778" lon="-4.800351988524199">
        <ele>16</ele>
        <time>2026-06-23T11:03:46Z</time>
      </trkpt>
      <trkpt lat="50.311915967613459" lon="-4.800468999892473">
        <ele>16.48</ele>
        <time>2026-06-23T11:03:47Z</time>
      </trkpt>
      <trkpt lat="50.311791999265552" lon="-4.80059296824038">
        <ele>16</ele>
        <time>2026-06-23T11:03:48Z</time>
      </trkpt>
      <trkpt lat="50.311671970412135" lon="-4.800731018185616">
        <ele>16</ele>
        <time>2026-06-23T11:03:49Z</time>
      </trkpt>
      <trkpt lat="50.31155202537775" lon="-4.800868984311819">
        <ele>16</ele>
        <time>2026-06-23T11:03:50Z</time>
      </trkpt>
      <trkpt lat="50.311434008181095" lon="-4.801006028428674">
        <ele>15.52</ele>
        <time>2026-06-23T11:03:51Z</time>
      </trkpt>
      <trkpt lat="50.311320014297962" lon="-4.801137037575245">
        <ele>15.52</ele>
        <time>2026-06-23T11:03:52Z</time>
      </trkpt>
      <trkpt lat="50.311217000707984" lon="-4.801273997873068">
        <ele>15.039999999999999</ele>
        <time>2026-06-23T11:03:53Z</time>
      </trkpt>
      <trkpt lat="50.31112203374505" lon="-4.801415987312794">
        <ele>15.039999999999999</ele>
        <time>2026-06-23T11:03:54Z</time>
      </trkpt>
      <trkpt lat="50.311032012104988" lon="-4.801551019772887">
        <ele>15.039999999999999</ele>
        <time>2026-06-23T11:03:55Z</time>
      </trkpt>
      <trkpt lat="50.310945007950068" lon="-4.801682028919458">
        <ele>14.56</ele>
        <time>2026-06-23T11:03:56Z</time>
      </trkpt>
      <trkpt lat="50.310862027108669" lon="-4.801805997267366">
        <ele>13.6</ele>
        <time>2026-06-23T11:03:57Z</time>
      </trkpt>
      <trkpt lat="50.31077703461051" lon="-4.801867017522454">
        <ele>12.630000000000001</ele>
        <time>2026-06-23T11:03:58Z</time>
      </trkpt>
      <trkpt lat="50.310685001313686" lon="-4.801903981715441">
        <ele>12.15</ele>
        <time>2026-06-23T11:03:59Z</time>
      </trkpt>
      <trkpt lat="50.31058500520885" lon="-4.801874980330467">
        <ele>11.67</ele>
        <time>2026-06-23T11:04:00Z</time>
      </trkpt>
      <trkpt lat="50.310477968305349" lon="-4.801842961460352">
        <ele>11.19</ele>
        <time>2026-06-23T11:04:01Z</time>
      </trkpt>
      <trkpt lat="50.310359029099345" lon="-4.801808008924127">
        <ele>11.19</ele>
        <time>2026-06-23T11:04:02Z</time>
      </trkpt>
      <trkpt lat="50.309800961986184" lon="-4.801733996719122">
        <ele>10.710000000000001</ele>
        <time>2026-06-23T11:04:06Z</time>
      </trkpt>
      <trkpt lat="50.309655033051968" lon="-4.801715975627303">
        <ele>10.710000000000001</ele>
        <time>2026-06-23T11:04:07Z</time>
      </trkpt>
      <trkpt lat="50.308516016229987" lon="-4.801575997844338">
        <ele>13.119999999999999</ele>
        <time>2026-06-23T11:04:15Z</time>
      </trkpt>
      <trkpt lat="50.308378972113132" lon="-4.801559988409281">
        <ele>13.6</ele>
        <time>2026-06-23T11:04:16Z</time>
      </trkpt>
      <trkpt lat="50.307976976037025" lon="-4.801534004509449">
        <ele>14.08</ele>
        <time>2026-06-23T11:04:19Z</time>
      </trkpt>
      <trkpt lat="50.3078349865973" lon="-4.801564011722803">
        <ele>14.08</ele>
        <time>2026-06-23T11:04:20Z</time>
      </trkpt>
      <trkpt lat="50.307688973844051" lon="-4.801595024764538">
        <ele>13.6</ele>
        <time>2026-06-23T11:04:21Z</time>
      </trkpt>
      <trkpt lat="50.307092014700174" lon="-4.801697032526135">
        <ele>13.119999999999999</ele>
        <time>2026-06-23T11:04:25Z</time>
      </trkpt>
      <trkpt lat="50.306935021653771" lon="-4.801704995334148">
        <ele>13.119999999999999</ele>
        <time>2026-06-23T11:04:26Z</time>
      </trkpt>
      <trkpt lat="50.306772999465466" lon="-4.801710024476051">
        <ele>13.119999999999999</ele>
        <time>2026-06-23T11:04:27Z</time>
      </trkpt>
      <trkpt lat="50.30583799816668" lon="-4.801468038931489">
        <ele>11.67</ele>
        <time>2026-06-23T11:04:33Z</time>
      </trkpt>
      <trkpt lat="50.304789002984762" lon="-4.800960011780262">
        <ele>10.23</ele>
        <time>2026-06-23T11:04:40Z</time>
      </trkpt>
      <trkpt lat="50.303447982296348" lon="-4.800663040950894">
        <ele>10.710000000000001</ele>
        <time>2026-06-23T11:04:49Z</time>
      </trkpt>
      <trkpt lat="50.301988022401929" lon="-4.800232965499163">
        <ele>12.15</ele>
        <time>2026-06-23T11:04:59Z</time>
      </trkpt>
      <trkpt lat="50.30085202306509" lon="-4.799843039363623">
        <ele>11.67</ele>
        <time>2026-06-23T11:05:07Z</time>
      </trkpt>
      <trkpt lat="50.299637988209724" lon="-4.7992829605937">
        <ele>12.15</ele>
        <time>2026-06-23T11:05:16Z</time>
      </trkpt>
      <trkpt lat="50.298315994441509" lon="-4.79837897233665">
        <ele>13.6</ele>
        <time>2026-06-23T11:05:26Z</time>
      </trkpt>
      <trkpt lat="50.298191020265222" lon="-4.798262966796756">
        <ele>13.119999999999999</ele>
        <time>2026-06-23T11:05:27Z</time>
      </trkpt>
      <trkpt lat="50.298068979755044" lon="-4.798135980963707">
        <ele>13.119999999999999</ele>
        <time>2026-06-23T11:05:28Z</time>
      </trkpt>
      <trkpt lat="50.297955991700292" lon="-4.79799197986722">
        <ele>12.630000000000001</ele>
        <time>2026-06-23T11:05:29Z</time>
      </trkpt>
      <trkpt lat="50.2978450153023" lon="-4.797850996255875">
        <ele>12.630000000000001</ele>
        <time>2026-06-23T11:05:30Z</time>
      </trkpt>
      <trkpt lat="50.297736972570419" lon="-4.797714035958052">
        <ele>12.630000000000001</ele>
        <time>2026-06-23T11:05:31Z</time>
      </trkpt>
      <trkpt lat="50.296747991815209" lon="-4.796095993369818">
        <ele>9.75</ele>
        <time>2026-06-23T11:05:41Z</time>
      </trkpt>
      <trkpt lat="50.296468958258629" lon="-4.795657033100724">
        <ele>9.27</ele>
        <time>2026-06-23T11:05:44Z</time>
      </trkpt>
      <trkpt lat="50.296368962153792" lon="-4.795523006469011">
        <ele>8.789999999999999</ele>
        <time>2026-06-23T11:05:45Z</time>
      </trkpt>
      <trkpt lat="50.296267960220575" lon="-4.795387974008918">
        <ele>8.789999999999999</ele>
        <time>2026-06-23T11:05:46Z</time>
      </trkpt>
      <trkpt lat="50.296167964115739" lon="-4.795255037024617">
        <ele>8.310000000000001</ele>
        <time>2026-06-23T11:05:47Z</time>
      </trkpt>
      <trkpt lat="50.296067968010902" lon="-4.795121010392904">
        <ele>8.789999999999999</ele>
        <time>2026-06-23T11:05:48Z</time>
      </trkpt>
      <trkpt lat="50.295969983562827" lon="-4.794991007074714">
        <ele>8.789999999999999</ele>
        <time>2026-06-23T11:05:49Z</time>
      </trkpt>
      <trkpt lat="50.295861018821597" lon="-4.794846000149846">
        <ele>8.789999999999999</ele>
        <time>2026-06-23T11:05:50Z</time>
      </trkpt>
      <trkpt lat="50.295806033536792" lon="-4.794674003496766">
        <ele>9.27</ele>
        <time>2026-06-23T11:05:51Z</time>
      </trkpt>
      <trkpt lat="50.295745013281703" lon="-4.794482979923487">
        <ele>9.75</ele>
        <time>2026-06-23T11:05:52Z</time>
      </trkpt>
      <trkpt lat="50.295667983591557" lon="-4.794245017692447">
        <ele>9.75</ele>
        <time>2026-06-23T11:05:53Z</time>
      </trkpt>
      <trkpt lat="50.295625990256667" lon="-4.794060029089451">
        <ele>9.27</ele>
        <time>2026-06-23T11:05:54Z</time>
      </trkpt>
      <trkpt lat="50.295083010569215" lon="-4.791692979633808">
        <ele>7.35</ele>
        <time>2026-06-23T11:06:05Z</time>
      </trkpt>
      <trkpt lat="50.295036993920803" lon="-4.791491981595755">
        <ele>7.83</ele>
        <time>2026-06-23T11:06:06Z</time>
      </trkpt>
      <trkpt lat="50.294989971444011" lon="-4.79128897190094">
        <ele>7.83</ele>
        <time>2026-06-23T11:06:07Z</time>
      </trkpt>
      <trkpt lat="50.294523015618324" lon="-4.789667995646596">
        <ele>6.39</ele>
        <time>2026-06-23T11:06:15Z</time>
      </trkpt>
      <trkpt lat="50.294461995363235" lon="-4.789468003436923">
        <ele>6.87</ele>
        <time>2026-06-23T11:06:16Z</time>
      </trkpt>
      <trkpt lat="50.293812984600663" lon="-4.787644017487764">
        <ele>7.83</ele>
        <time>2026-06-23T11:06:25Z</time>
      </trkpt>
      <trkpt lat="50.293522970750928" lon="-4.787116041406989">
        <ele>7.35</ele>
        <time>2026-06-23T11:06:28Z</time>
      </trkpt>
      <trkpt lat="50.293215019628406" lon="-4.786730976775289">
        <ele>6.87</ele>
        <time>2026-06-23T11:06:31Z</time>
      </trkpt>
      <trkpt lat="50.293114017695189" lon="-4.786637015640736">
        <ele>6.39</ele>
        <time>2026-06-23T11:06:32Z</time>
      </trkpt>
      <trkpt lat="50.29290497303009" lon="-4.786459989845753">
        <ele>6.39</ele>
        <time>2026-06-23T11:06:34Z</time>
      </trkpt>
      <trkpt lat="50.292781004682183" lon="-4.786401987075806">
        <ele>5.91</ele>
        <time>2026-06-23T11:06:35Z</time>
      </trkpt>
      <trkpt lat="50.292663993313909" lon="-4.786348007619381">
        <ele>5.91</ele>
        <time>2026-06-23T11:06:36Z</time>
      </trkpt>
      <trkpt lat="50.292533989995718" lon="-4.786315988749266">
        <ele>5.42</ele>
        <time>2026-06-23T11:06:37Z</time>
      </trkpt>
      <trkpt lat="50.292417984455824" lon="-4.786286987364292">
        <ele>5.42</ele>
        <time>2026-06-23T11:06:38Z</time>
      </trkpt>
      <trkpt lat="50.292306002229452" lon="-4.786258991807699">
        <ele>5.42</ele>
        <time>2026-06-23T11:06:39Z</time>
      </trkpt>
      <trkpt lat="50.291691021993756" lon="-4.786115996539593">
        <ele>5.91</ele>
        <time>2026-06-23T11:06:45Z</time>
      </trkpt>
      <trkpt lat="50.290745962411165" lon="-4.786244994029403">
        <ele>6.87</ele>
        <time>2026-06-23T11:06:53Z</time>
      </trkpt>
      <trkpt lat="50.289709959179163" lon="-4.786550011485815">
        <ele>7.83</ele>
        <time>2026-06-23T11:07:02Z</time>
      </trkpt>
      <trkpt lat="50.28933797031641" lon="-4.786614971235395">
        <ele>7.35</ele>
        <time>2026-06-23T11:07:05Z</time>
      </trkpt>
      <trkpt lat="50.288406992331147" lon="-4.786530984565616">
        <ele>11.19</ele>
        <time>2026-06-23T11:07:13Z</time>
      </trkpt>
      <trkpt lat="50.287579027935863" lon="-4.786348007619381">
        <ele>19.84</ele>
        <time>2026-06-23T11:07:20Z</time>
      </trkpt>
      <trkpt lat="50.287454975768924" lon="-4.786405004560947">
        <ele>21.77</ele>
        <time>2026-06-23T11:07:21Z</time>
      </trkpt>
      <trkpt lat="50.287346011027694" lon="-4.786454038694501">
        <ele>23.210000000000001</ele>
        <time>2026-06-23T11:07:22Z</time>
      </trkpt>
      <trkpt lat="50.28725003823638" lon="-4.786566020920873">
        <ele>24.649999999999999</ele>
        <time>2026-06-23T11:07:23Z</time>
      </trkpt>
      <trkpt lat="50.287147024646401" lon="-4.78669099509716">
        <ele>25.609999999999999</ele>
        <time>2026-06-23T11:07:24Z</time>
      </trkpt>
      <trkpt lat="50.2870590146631" lon="-4.786843964830041">
        <ele>27.050000000000001</ele>
        <time>2026-06-23T11:07:25Z</time>
      </trkpt>
      <trkpt lat="50.286968993023038" lon="-4.78701202198863">
        <ele>28.02</ele>
        <time>2026-06-23T11:07:26Z</time>
      </trkpt>
      <trkpt lat="50.286683002486825" lon="-4.78746498003602">
        <ele>29.940000000000001</ele>
        <time>2026-06-23T11:07:29Z</time>
      </trkpt>
      <trkpt lat="50.28656498529017" lon="-4.787561036646366">
        <ele>30.420000000000002</ele>
        <time>2026-06-23T11:07:30Z</time>
      </trkpt>
      <trkpt lat="50.286447973921895" lon="-4.7876560036093">
        <ele>30.899999999999999</ele>
        <time>2026-06-23T11:07:31Z</time>
      </trkpt>
      <trkpt lat="50.286330040544271" lon="-4.78767897002399">
        <ele>31.859999999999999</ele>
        <time>2026-06-23T11:07:32Z</time>
      </trkpt>
      <trkpt lat="50.286227026954293" lon="-4.78767897002399">
        <ele>32.82</ele>
        <time>2026-06-23T11:07:33Z</time>
      </trkpt>
      <trkpt lat="50.286110015586019" lon="-4.787619961425662">
        <ele>33.780000000000001</ele>
        <time>2026-06-23T11:07:34Z</time>
      </trkpt>
      <trkpt lat="50.286012031137943" lon="-4.78757101111114">
        <ele>34.259999999999998</ele>
        <time>2026-06-23T11:07:35Z</time>
      </trkpt>
      <trkpt lat="50.285911029204726" lon="-4.78744201362133">
        <ele>35.229999999999997</ele>
        <time>2026-06-23T11:07:36Z</time>
      </trkpt>
      <trkpt lat="50.285810027271509" lon="-4.787314021959901">
        <ele>36.189999999999998</ele>
        <time>2026-06-23T11:07:37Z</time>
      </trkpt>
      <trkpt lat="50.28572503477335" lon="-4.787164991721511">
        <ele>36.670000000000002</ele>
        <time>2026-06-23T11:07:38Z</time>
      </trkpt>
      <trkpt lat="50.285639958456159" lon="-4.786988971754909">
        <ele>37.149999999999999</ele>
        <time>2026-06-23T11:07:39Z</time>
      </trkpt>
      <trkpt lat="50.28525497764349" lon="-4.786189002916217">
        <ele>41.950000000000003</ele>
        <time>2026-06-23T11:07:44Z</time>
      </trkpt>
      <trkpt lat="50.285180965438485" lon="-4.786057993769646">
        <ele>42.920000000000002</ele>
        <time>2026-06-23T11:07:45Z</time>
      </trkpt>
      <trkpt lat="50.285085998475552" lon="-4.785985993221402">
        <ele>43.880000000000003</ele>
        <time>2026-06-23T11:07:46Z</time>
      </trkpt>
      <trkpt lat="50.284982984885573" lon="-4.785908963531256">
        <ele>45.32</ele>
        <time>2026-06-23T11:07:47Z</time>
      </trkpt>
      <trkpt lat="50.28486798517406" lon="-4.785870993509889">
        <ele>46.280000000000001</ele>
        <time>2026-06-23T11:07:48Z</time>
      </trkpt>
      <trkpt lat="50.284748040139675" lon="-4.785863030701876">
        <ele>47.240000000000002</ele>
        <time>2026-06-23T11:07:49Z</time>
      </trkpt>
      <trkpt lat="50.284638991579413" lon="-4.785854984074831">
        <ele>48.200000000000003</ele>
        <time>2026-06-23T11:07:50Z</time>
      </trkpt>
      <trkpt lat="50.28450102545321" lon="-4.785942994058132">
        <ele>49.159999999999997</ele>
        <time>2026-06-23T11:07:51Z</time>
      </trkpt>
      <trkpt lat="50.284376973286271" lon="-4.786042990162969">
        <ele>50.130000000000003</ele>
        <time>2026-06-23T11:07:52Z</time>
      </trkpt>
      <trkpt lat="50.284264991059899" lon="-4.786211969330907">
        <ele>50.609999999999999</ele>
        <time>2026-06-23T11:07:53Z</time>
      </trkpt>
      <trkpt lat="50.284150997176766" lon="-4.786382038146257">
        <ele>51.57</ele>
        <time>2026-06-23T11:07:54Z</time>
      </trkpt>
      <trkpt lat="50.284112021327019" lon="-4.786606002599001">
        <ele>52.530000000000001</ele>
        <time>2026-06-23T11:07:55Z</time>
      </trkpt>
      <trkpt lat="50.284075979143381" lon="-4.786843964830041">
        <ele>53.490000000000002</ele>
        <time>2026-06-23T11:07:56Z</time>
      </trkpt>
      <trkpt lat="50.284054018557072" lon="-4.787079999223352">
        <ele>54.93</ele>
        <time>2026-06-23T11:07:57Z</time>
      </trkpt>
      <trkpt lat="50.284042032435536" lon="-4.787325002253056">
        <ele>55.890000000000001</ele>
        <time>2026-06-23T11:07:58Z</time>
      </trkpt>
      <trkpt lat="50.283928038552403" lon="-4.790054988116026">
        <ele>68.390000000000001</ele>
        <time>2026-06-23T11:08:09Z</time>
      </trkpt>
      <trkpt lat="50.283832987770438" lon="-4.790986971929669">
        <ele>72.719999999999999</ele>
        <time>2026-06-23T11:08:13Z</time>
      </trkpt>
      <trkpt lat="50.283756963908672" lon="-4.791174978017807">
        <ele>73.680000000000007</ele>
        <time>2026-06-23T11:08:14Z</time>
      </trkpt>
      <trkpt lat="50.283666020259261" lon="-4.791347980499268">
        <ele>74.640000000000001</ele>
        <time>2026-06-23T11:08:15Z</time>
      </trkpt>
      <trkpt lat="50.283574992790818" lon="-4.791508996859193">
        <ele>76.079999999999998</ele>
        <time>2026-06-23T11:08:16Z</time>
      </trkpt>
      <trkpt lat="50.283456975594163" lon="-4.791615027934313">
        <ele>77.040000000000006</ele>
        <time>2026-06-23T11:08:17Z</time>
      </trkpt>
      <trkpt lat="50.283345999196172" lon="-4.791715024039149">
        <ele>78.480000000000004</ele>
        <time>2026-06-23T11:08:18Z</time>
      </trkpt>
      <trkpt lat="50.283243991434574" lon="-4.791805967688561">
        <ele>79.450000000000003</ele>
        <time>2026-06-23T11:08:19Z</time>
      </trkpt>
      <trkpt lat="50.282870996743441" lon="-4.792140992358327">
        <ele>82.810000000000002</ele>
        <time>2026-06-23T11:08:25Z</time>
      </trkpt>
      <trkpt lat="50.282807964831591" lon="-4.792197989299893">
        <ele>83.290000000000006</ele>
        <time>2026-06-23T11:08:27Z</time>
      </trkpt>
      <trkpt lat="50.282772006466985" lon="-4.792230008170009">
        <ele>83.769999999999996</ele>
        <time>2026-06-23T11:08:28Z</time>
      </trkpt>
      <trkpt lat="50.282750967890024" lon="-4.792249035090208">
        <ele>83.769999999999996</ele>
        <time>2026-06-23T11:08:29Z</time>
      </trkpt>
      <trkpt lat="50.282772006466985" lon="-4.792270995676518">
        <ele>84.25</ele>
        <time>2026-06-23T11:08:30Z</time>
      </trkpt>
      <trkpt lat="50.282805031165481" lon="-4.792303014546633">
        <ele>84.25</ele>
        <time>2026-06-23T11:08:31Z</time>
      </trkpt>
      <trkpt lat="50.282844007015228" lon="-4.792342996224761">
        <ele>84.730000000000004</ele>
        <time>2026-06-23T11:08:32Z</time>
      </trkpt>
      <trkpt lat="50.282889017835259" lon="-4.792387001216412">
        <ele>84.730000000000004</ele>
        <time>2026-06-23T11:08:33Z</time>
      </trkpt>
      <trkpt lat="50.282939979806542" lon="-4.792438969016075">
        <ele>85.209999999999994</ele>
        <time>2026-06-23T11:08:34Z</time>
      </trkpt>
      <trkpt lat="50.283001000061631" lon="-4.792498983442783">
        <ele>85.209999999999994</ele>
        <time>2026-06-23T11:08:35Z</time>
      </trkpt>
      <trkpt lat="50.283065959811211" lon="-4.792565032839775">
        <ele>85.209999999999994</ele>
        <time>2026-06-23T11:08:36Z</time>
      </trkpt>
      <trkpt lat="50.283684963360429" lon="-4.793443037196994">
        <ele>88.099999999999994</ele>
        <time>2026-06-23T11:08:44Z</time>
      </trkpt>
      <trkpt lat="50.283768028020859" lon="-4.793583014979959">
        <ele>89.060000000000002</ele>
        <time>2026-06-23T11:08:45Z</time>
      </trkpt>
      <trkpt lat="50.283827036619186" lon="-4.79376096278429">
        <ele>90.019999999999996</ele>
        <time>2026-06-23T11:08:46Z</time>
      </trkpt>
      <trkpt lat="50.284412009641528" lon="-4.795503979548812">
        <ele>92.420000000000002</ele>
        <time>2026-06-23T11:08:55Z</time>
      </trkpt>
      <trkpt lat="50.284970998764038" lon="-4.797029988840222">
        <ele>89.540000000000006</ele>
        <time>2026-06-23T11:09:04Z</time>
      </trkpt>
      <trkpt lat="50.285537028685212" lon="-4.798974003642798">
        <ele>84.730000000000004</ele>
        <time>2026-06-23T11:09:14Z</time>
      </trkpt>
      <trkpt lat="50.28559997677803" lon="-4.799125967547298">
        <ele>83.769999999999996</ele>
        <time>2026-06-23T11:09:15Z</time>
      </trkpt>
      <trkpt lat="50.285668959841132" lon="-4.799286983907223">
        <ele>83.290000000000006</ele>
        <time>2026-06-23T11:09:16Z</time>
      </trkpt>
      <trkpt lat="50.285756969824433" lon="-4.799423022195697">
        <ele>82.810000000000002</ele>
        <time>2026-06-23T11:09:17Z</time>
      </trkpt>
      <trkpt lat="50.286738993600011" lon="-4.800880970433354">
        <ele>80.890000000000001</ele>
        <time>2026-06-23T11:09:27Z</time>
      </trkpt>
      <trkpt lat="50.287953028455377" lon="-4.802386024966836">
        <ele>79.930000000000007</ele>
        <time>2026-06-23T11:09:38Z</time>
      </trkpt>
      <trkpt lat="50.288466000929475" lon="-4.803175013512373">
        <ele>81.370000000000005</ele>
        <time>2026-06-23T11:09:43Z</time>
      </trkpt>
      <trkpt lat="50.288549987599254" lon="-4.803360002115369">
        <ele>81.849999999999994</ele>
        <time>2026-06-23T11:09:44Z</time>
      </trkpt>
      <trkpt lat="50.288621988147497" lon="-4.803541973233223">
        <ele>81.849999999999994</ele>
        <time>2026-06-23T11:09:45Z</time>
      </trkpt>
      <trkpt lat="50.288689965382218" lon="-4.803714975714684">
        <ele>82.329999999999998</ele>
        <time>2026-06-23T11:09:46Z</time>
      </trkpt>
      <trkpt lat="50.288750985637307" lon="-4.803904993459582">
        <ele>82.329999999999998</ele>
        <time>2026-06-23T11:09:47Z</time>
      </trkpt>
      <trkpt lat="50.28903697617352" lon="-4.805279038846493">
        <ele>85.209999999999994</ele>
        <time>2026-06-23T11:09:54Z</time>
      </trkpt>
      <trkpt lat="50.289201010018587" lon="-4.806009018793702">
        <ele>87.140000000000001</ele>
        <time>2026-06-23T11:09:58Z</time>
      </trkpt>
      <trkpt lat="50.289257001131773" lon="-4.806158971041441">
        <ele>87.140000000000001</ele>
        <time>2026-06-23T11:09:59Z</time>
      </trkpt>
      <trkpt lat="50.289324978366494" lon="-4.806318981572986">
        <ele>87.140000000000001</ele>
        <time>2026-06-23T11:10:00Z</time>
      </trkpt>
      <trkpt lat="50.289395973086357" lon="-4.806487038731575">
        <ele>87.620000000000005</ele>
        <time>2026-06-23T11:10:01Z</time>
      </trkpt>
      <trkpt lat="50.289446013048291" lon="-4.806603966280818">
        <ele>87.620000000000005</ele>
        <time>2026-06-23T11:10:02Z</time>
      </trkpt>
      <trkpt lat="50.289446013048291" lon="-4.806896997615695">
        <ele>88.579999999999998</ele>
        <time>2026-06-23T11:10:03Z</time>
      </trkpt>
      <trkpt lat="50.289455987513065" lon="-4.807129008695483">
        <ele>89.060000000000002</ele>
        <time>2026-06-23T11:10:04Z</time>
      </trkpt>
      <trkpt lat="50.2894870005548" lon="-4.807344004511833">
        <ele>89.540000000000006</ele>
        <time>2026-06-23T11:10:05Z</time>
      </trkpt>
      <trkpt lat="50.289516001939774" lon="-4.80755003169179">
        <ele>90.019999999999996</ele>
        <time>2026-06-23T11:10:06Z</time>
      </trkpt>
      <trkpt lat="50.289531005546451" lon="-4.807734014466405">
        <ele>90.5</ele>
        <time>2026-06-23T11:10:07Z</time>
      </trkpt>
      <trkpt lat="50.289531005546451" lon="-4.807919003069401">
        <ele>90.980000000000004</ele>
        <time>2026-06-23T11:10:08Z</time>
      </trkpt>
      <trkpt lat="50.289531005546451" lon="-4.808098040521145">
        <ele>91.459999999999994</ele>
        <time>2026-06-23T11:10:09Z</time>
      </trkpt>
      <trkpt lat="50.289531005546451" lon="-4.808273976668716">
        <ele>91.939999999999998</ele>
        <time>2026-06-23T11:10:10Z</time>
      </trkpt>
      <trkpt lat="50.289531005546451" lon="-4.808448990806937">
        <ele>92.420000000000002</ele>
        <time>2026-06-23T11:10:11Z</time>
      </trkpt>
      <trkpt lat="50.289413994178176" lon="-4.810101985931397">
        <ele>95.790000000000006</ele>
        <time>2026-06-23T11:10:19Z</time>
      </trkpt>
      <trkpt lat="50.289270998910069" lon="-4.811583990231156">
        <ele>97.709999999999994</ele>
        <time>2026-06-23T11:10:28Z</time>
      </trkpt>
      <trkpt lat="50.289241997525096" lon="-4.813234973698854">
        <ele>99.629999999999995</ele>
        <time>2026-06-23T11:10:37Z</time>
      </trkpt>
      <trkpt lat="50.289247026666999" lon="-4.813770996406674">
        <ele>99.150000000000006</ele>
        <time>2026-06-23T11:10:40Z</time>
      </trkpt>
      <trkpt lat="50.289248032495379" lon="-4.81395598500967">
        <ele>98.670000000000002</ele>
        <time>2026-06-23T11:10:41Z</time>
      </trkpt>
      <trkpt lat="50.289240991696715" lon="-4.814488990232348">
        <ele>95.790000000000006</ele>
        <time>2026-06-23T11:10:44Z</time>
      </trkpt>
      <trkpt lat="50.289216013625264" lon="-4.814644977450371">
        <ele>94.829999999999998</ele>
        <time>2026-06-23T11:10:45Z</time>
      </trkpt>
      <trkpt lat="50.289188018068671" lon="-4.814823009073734">
        <ele>93.390000000000001</ele>
        <time>2026-06-23T11:10:46Z</time>
      </trkpt>
      <trkpt lat="50.289121968671679" lon="-4.814911019057035">
        <ele>92.420000000000002</ele>
        <time>2026-06-23T11:10:47Z</time>
      </trkpt>
      <trkpt lat="50.289003029465675" lon="-4.814978996291757">
        <ele>91.939999999999998</ele>
        <time>2026-06-23T11:10:48Z</time>
      </trkpt>
      <trkpt lat="50.288919964805245" lon="-4.814955024048686">
        <ele>91.939999999999998</ele>
        <time>2026-06-23T11:10:49Z</time>
      </trkpt>
      <trkpt lat="50.288830026984215" lon="-4.814929040148854">
        <ele>92.420000000000002</ele>
        <time>2026-06-23T11:10:50Z</time>
      </trkpt>
      <trkpt lat="50.288729025050998" lon="-4.814883023500443">
        <ele>92.900000000000006</ele>
        <time>2026-06-23T11:10:51Z</time>
      </trkpt>
      <trkpt lat="50.288650989532471" lon="-4.814816974103451">
        <ele>92.900000000000006</ele>
        <time>2026-06-23T11:10:52Z</time>
      </trkpt>
      <trkpt lat="50.288266008719802" lon="-4.81449100188911">
        <ele>95.310000000000002</ele>
        <time>2026-06-23T11:10:57Z</time>
      </trkpt>
      <trkpt lat="50.288200965151191" lon="-4.814436016604304">
        <ele>95.790000000000006</ele>
        <time>2026-06-23T11:10:58Z</time>
      </trkpt>
      <trkpt lat="50.288130976259708" lon="-4.814436016604304">
        <ele>95.790000000000006</ele>
        <time>2026-06-23T11:10:59Z</time>
      </trkpt>
      <trkpt lat="50.288073979318142" lon="-4.814436016604304">
        <ele>96.269999999999996</ele>
        <time>2026-06-23T11:11:00Z</time>
      </trkpt>
      <trkpt lat="50.288027040660381" lon="-4.814436016604304">
        <ele>96.75</ele>
        <time>2026-06-23T11:11:01Z</time>
      </trkpt>
      <trkpt lat="50.287834005430341" lon="-4.814436016604304">
        <ele>97.230000000000004</ele>
        <time>2026-06-23T11:11:06Z</time>
      </trkpt>
      <trkpt lat="50.287793017923832" lon="-4.814436016604304">
        <ele>97.230000000000004</ele>
        <time>2026-06-23T11:11:07Z</time>
      </trkpt>
      <trkpt lat="50.287744989618659" lon="-4.814498964697123">
        <ele>97.230000000000004</ele>
        <time>2026-06-23T11:11:08Z</time>
      </trkpt>
      <trkpt lat="50.28768002986908" lon="-4.814584041014314">
        <ele>97.230000000000004</ele>
        <time>2026-06-23T11:11:09Z</time>
      </trkpt>
      <trkpt lat="50.287579027935863" lon="-4.814714966341853">
        <ele>97.230000000000004</ele>
        <time>2026-06-23T11:11:10Z</time>
      </trkpt>
      <trkpt lat="50.287537034600973" lon="-4.814810017123818">
        <ele>97.230000000000004</ele>
        <time>2026-06-23T11:11:11Z</time>
      </trkpt>
      <trkpt lat="50.287342993542552" lon="-4.815317038446665">
        <ele>97.230000000000004</ele>
        <time>2026-06-23T11:11:14Z</time>
      </trkpt>
      <trkpt lat="50.287053985521197" lon="-4.816140979528427">
        <ele>95.790000000000006</ele>
        <time>2026-06-23T11:11:18Z</time>
      </trkpt>
      <trkpt lat="50.286959018558264" lon="-4.81633803807199">
        <ele>95.310000000000002</ele>
        <time>2026-06-23T11:11:19Z</time>
      </trkpt>
      <trkpt lat="50.286831026896834" lon="-4.816497964784503">
        <ele>95.310000000000002</ele>
        <time>2026-06-23T11:11:20Z</time>
      </trkpt>
      <trkpt lat="50.28669498860836" lon="-4.81663903221488">
        <ele>94.829999999999998</ele>
        <time>2026-06-23T11:11:21Z</time>
      </trkpt>
      <trkpt lat="50.286557022482157" lon="-4.816782027482987">
        <ele>94.829999999999998</ele>
        <time>2026-06-23T11:11:22Z</time>
      </trkpt>
      <trkpt lat="50.285551026463509" lon="-4.817831022664905">
        <ele>93.390000000000001</ele>
        <time>2026-06-23T11:11:29Z</time>
      </trkpt>
      <trkpt lat="50.285419011488557" lon="-4.817967982962728">
        <ele>92.900000000000006</ele>
        <time>2026-06-23T11:11:30Z</time>
      </trkpt>
      <trkpt lat="50.285315997898579" lon="-4.818156994879246">
        <ele>92.420000000000002</ele>
        <time>2026-06-23T11:11:31Z</time>
      </trkpt>
      <trkpt lat="50.285224970430136" lon="-4.818354975432158">
        <ele>92.420000000000002</ele>
        <time>2026-06-23T11:11:32Z</time>
      </trkpt>
      <trkpt lat="50.285131009295583" lon="-4.818556979298592">
        <ele>92.420000000000002</ele>
        <time>2026-06-23T11:11:33Z</time>
      </trkpt>
      <trkpt lat="50.285035958513618" lon="-4.818762000650168">
        <ele>92.420000000000002</ele>
        <time>2026-06-23T11:11:34Z</time>
      </trkpt>
      <trkpt lat="50.284333974123001" lon="-4.820574000477791">
        <ele>95.790000000000006</ele>
        <time>2026-06-23T11:11:43Z</time>
      </trkpt>
      <trkpt lat="50.284219980239868" lon="-4.820738034322858">
        <ele>95.790000000000006</ele>
        <time>2026-06-23T11:11:44Z</time>
      </trkpt>
      <trkpt lat="50.283383969217539" lon="-4.821871016174555">
        <ele>94.349999999999994</ele>
        <time>2026-06-23T11:11:51Z</time>
      </trkpt>
      <trkpt lat="50.283284978941083" lon="-4.822062039747834">
        <ele>94.349999999999994</ele>
        <time>2026-06-23T11:11:52Z</time>
      </trkpt>
      <trkpt lat="50.28321398422122" lon="-4.822279969230294">
        <ele>94.349999999999994</ele>
        <time>2026-06-23T11:11:53Z</time>
      </trkpt>
      <trkpt lat="50.282709980383515" lon="-4.824364967644215">
        <ele>92.900000000000006</ele>
        <time>2026-06-23T11:12:03Z</time>
      </trkpt>
      <trkpt lat="50.282183010131121" lon="-4.826100021600723">
        <ele>88.579999999999998</ele>
        <time>2026-06-23T11:12:12Z</time>
      </trkpt>
      <trkpt lat="50.282085025683045" lon="-4.826274029910564">
        <ele>88.579999999999998</ele>
        <time>2026-06-23T11:12:13Z</time>
      </trkpt>
      <trkpt lat="50.281981006264687" lon="-4.826457006856799">
        <ele>88.579999999999998</ele>
        <time>2026-06-23T11:12:14Z</time>
      </trkpt>
      <trkpt lat="50.281876986846328" lon="-4.826639983803034">
        <ele>89.060000000000002</ele>
        <time>2026-06-23T11:12:15Z</time>
      </trkpt>
      <trkpt lat="50.281766010448337" lon="-4.826794965192676">
        <ele>89.060000000000002</ele>
        <time>2026-06-23T11:12:16Z</time>
      </trkpt>
      <trkpt lat="50.281033013015985" lon="-4.827655032277107">
        <ele>87.140000000000001</ele>
        <time>2026-06-23T11:12:23Z</time>
      </trkpt>
      <trkpt lat="50.280908960849047" lon="-4.827741030603647">
        <ele>87.140000000000001</ele>
        <time>2026-06-23T11:12:24Z</time>
      </trkpt>
      <trkpt lat="50.279784025624394" lon="-4.828395992517471">
        <ele>89.540000000000006</ele>
        <time>2026-06-23T11:12:32Z</time>
      </trkpt>
      <trkpt lat="50.278797978535295" lon="-4.829047014936805">
        <ele>93.390000000000001</ele>
        <time>2026-06-23T11:12:37Z</time>
      </trkpt>
      <trkpt lat="50.278059029951692" lon="-4.829550012946129">
        <ele>96.269999999999996</ele>
        <time>2026-06-23T11:12:42Z</time>
      </trkpt>
      <trkpt lat="50.277948975563049" lon="-4.829626036807895">
        <ele>97.230000000000004</ele>
        <time>2026-06-23T11:12:43Z</time>
      </trkpt>
      <trkpt lat="50.277830036357045" lon="-4.829644979909062">
        <ele>97.709999999999994</ele>
        <time>2026-06-23T11:12:44Z</time>
      </trkpt>
      <trkpt lat="50.276654977351427" lon="-4.829732989892364">
        <ele>104.44</ele>
        <time>2026-06-23T11:12:53Z</time>
      </trkpt>
      <trkpt lat="50.27571402490139" lon="-4.829678004607558">
        <ele>103.95999999999999</ele>
        <time>2026-06-23T11:12:59Z</time>
      </trkpt>
      <trkpt lat="50.274481968954206" lon="-4.82920803129673">
        <ele>98.670000000000002</ele>
        <time>2026-06-23T11:13:06Z</time>
      </trkpt>
      <trkpt lat="50.273536993190646" lon="-4.828970991075039">
        <ele>97.709999999999994</ele>
        <time>2026-06-23T11:13:14Z</time>
      </trkpt>
      <trkpt lat="50.273036006838083" lon="-4.828755995258689">
        <ele>96.269999999999996</ele>
        <time>2026-06-23T11:13:18Z</time>
      </trkpt>
      <trkpt lat="50.272895023226738" lon="-4.82882397249341">
        <ele>95.790000000000006</ele>
        <time>2026-06-23T11:13:19Z</time>
      </trkpt>
      <trkpt lat="50.27272998355329" lon="-4.828904019668698">
        <ele>95.790000000000006</ele>
        <time>2026-06-23T11:13:20Z</time>
      </trkpt>
      <trkpt lat="50.271661961451173" lon="-4.829374998807907">
        <ele>101.08</ele>
        <time>2026-06-23T11:13:26Z</time>
      </trkpt>
      <trkpt lat="50.270348014310002" lon="-4.829573985189199">
        <ele>106.36</ele>
        <time>2026-06-23T11:13:34Z</time>
      </trkpt>
      <trkpt lat="50.269703026860952" lon="-4.829514976590872">
        <ele>106.84</ele>
        <time>2026-06-23T11:13:38Z</time>
      </trkpt>
      <trkpt lat="50.269466992467642" lon="-4.829557975754142">
        <ele>107.31999999999999</ele>
        <time>2026-06-23T11:13:40Z</time>
      </trkpt>
      <trkpt lat="50.269391974434257" lon="-4.829623019322753">
        <ele>107.81</ele>
        <time>2026-06-23T11:13:41Z</time>
      </trkpt>
      <trkpt lat="50.269327014684677" lon="-4.829717986285687">
        <ele>107.81</ele>
        <time>2026-06-23T11:13:42Z</time>
      </trkpt>
      <trkpt lat="50.269271023571491" lon="-4.829829968512058">
        <ele>107.81</ele>
        <time>2026-06-23T11:13:43Z</time>
      </trkpt>
      <trkpt lat="50.269218971952796" lon="-4.829971035942435">
        <ele>108.29000000000001</ele>
        <time>2026-06-23T11:13:44Z</time>
      </trkpt>
      <trkpt lat="50.269191982224584" lon="-4.830093998461962">
        <ele>108.29000000000001</ele>
        <time>2026-06-23T11:13:45Z</time>
      </trkpt>
      <trkpt lat="50.269078994169831" lon="-4.830491971224546">
        <ele>109.25</ele>
        <time>2026-06-23T11:13:49Z</time>
      </trkpt>
      <trkpt lat="50.268886964768171" lon="-4.830876030027866">
        <ele>110.69</ele>
        <time>2026-06-23T11:13:53Z</time>
      </trkpt>
      <trkpt lat="50.268836002796888" lon="-4.831010978668928">
        <ele>110.69</ele>
        <time>2026-06-23T11:13:54Z</time>
      </trkpt>
      <trkpt lat="50.268575996160507" lon="-4.832267006859183">
        <ele>111.17</ele>
        <time>2026-06-23T11:14:02Z</time>
      </trkpt>
      <trkpt lat="50.268059000372887" lon="-4.83372000977397">
        <ele>111.17</ele>
        <time>2026-06-23T11:14:12Z</time>
      </trkpt>
      <trkpt lat="50.267758006229997" lon="-4.83417103998363">
        <ele>110.69</ele>
        <time>2026-06-23T11:14:17Z</time>
      </trkpt>
      <trkpt lat="50.267695980146527" lon="-4.834233988076448">
        <ele>110.69</ele>
        <time>2026-06-23T11:14:18Z</time>
      </trkpt>
      <trkpt lat="50.267536975443363" lon="-4.834391986951232">
        <ele>110.20999999999999</ele>
        <time>2026-06-23T11:14:21Z</time>
      </trkpt>
      <trkpt lat="50.267495987936854" lon="-4.834465999156237">
        <ele>109.73</ele>
        <time>2026-06-23T11:14:22Z</time>
      </trkpt>
      <trkpt lat="50.267460029572248" lon="-4.834530958905816">
        <ele>109.73</ele>
        <time>2026-06-23T11:14:23Z</time>
      </trkpt>
      <trkpt lat="50.267191976308823" lon="-4.835013002157211">
        <ele>108.77</ele>
        <time>2026-06-23T11:14:29Z</time>
      </trkpt>
      <trkpt lat="50.267143025994301" lon="-4.835248030722141">
        <ele>106.84</ele>
        <time>2026-06-23T11:14:34Z</time>
      </trkpt>
      <trkpt lat="50.267168004065752" lon="-4.835308967158198">
        <ele>106.84</ele>
        <time>2026-06-23T11:14:35Z</time>
      </trkpt>
      <trkpt lat="50.267175966873765" lon="-4.835595041513443">
        <ele>107.31999999999999</ele>
        <time>2026-06-23T11:14:37Z</time>
      </trkpt>
      <trkpt lat="50.267148977145553" lon="-4.835712974891067">
        <ele>107.31999999999999</ele>
        <time>2026-06-23T11:14:38Z</time>
      </trkpt>
      <trkpt lat="50.267119975760579" lon="-4.835839960724115">
        <ele>107.81</ele>
        <time>2026-06-23T11:14:39Z</time>
      </trkpt>
      <trkpt lat="50.267069013789296" lon="-4.835985973477364">
        <ele>107.81</ele>
        <time>2026-06-23T11:14:40Z</time>
      </trkpt>
      <trkpt lat="50.267004976049066" lon="-4.836135003715754">
        <ele>107.81</ele>
        <time>2026-06-23T11:14:41Z</time>
      </trkpt>
      <trkpt lat="50.266400976106524" lon="-4.837682973593473">
        <ele>108.29000000000001</ele>
        <time>2026-06-23T11:14:49Z</time>
      </trkpt>
      <trkpt lat="50.265943994745612" lon="-4.839382991194725">
        <ele>108.29000000000001</ele>
        <time>2026-06-23T11:14:58Z</time>
      </trkpt>
      <trkpt lat="50.265361033380032" lon="-4.840557966381311">
        <ele>106.84</ele>
        <time>2026-06-23T11:15:05Z</time>
      </trkpt>
      <trkpt lat="50.264759967103601" lon="-4.841855987906456">
        <ele>106.84</ele>
        <time>2026-06-23T11:15:12Z</time>
      </trkpt>
      <trkpt lat="50.264387978240848" lon="-4.843058958649635">
        <ele>105.88</ele>
        <time>2026-06-23T11:15:19Z</time>
      </trkpt>
      <trkpt lat="50.264000985771418" lon="-4.844596032053232">
        <ele>105.88</ele>
        <time>2026-06-23T11:15:28Z</time>
      </trkpt>
      <trkpt lat="50.263762017711997" lon="-4.8451710306108">
        <ele>105.88</ele>
        <time>2026-06-23T11:15:32Z</time>
      </trkpt>
      <trkpt lat="50.263697979971766" lon="-4.845292987301946">
        <ele>105.88</ele>
        <time>2026-06-23T11:15:33Z</time>
      </trkpt>
      <trkpt lat="50.263008987531066" lon="-4.846252966672182">
        <ele>104.44</ele>
        <time>2026-06-23T11:15:40Z</time>
      </trkpt>
      <trkpt lat="50.262104999274015" lon="-4.847270026803017">
        <ele>100.59999999999999</ele>
        <time>2026-06-23T11:15:49Z</time>
      </trkpt>
      <trkpt lat="50.260946033522487" lon="-4.848422035574913">
        <ele>97.709999999999994</ele>
        <time>2026-06-23T11:15:59Z</time>
      </trkpt>
      <trkpt lat="50.259956968948245" lon="-4.849612014368177">
        <ele>95.790000000000006</ele>
        <time>2026-06-23T11:16:09Z</time>
      </trkpt>
      <trkpt lat="50.259886980056763" lon="-4.849747968837619">
        <ele>95.310000000000002</ele>
        <time>2026-06-23T11:16:10Z</time>
      </trkpt>
      <trkpt lat="50.259132022038102" lon="-4.851198960095644">
        <ele>88.579999999999998</ele>
        <time>2026-06-23T11:16:19Z</time>
      </trkpt>
      <trkpt lat="50.258471025153995" lon="-4.852363038808107">
        <ele>81.849999999999994</ele>
        <time>2026-06-23T11:16:28Z</time>
      </trkpt>
      <trkpt lat="50.258404975757003" lon="-4.852446019649506">
        <ele>81.370000000000005</ele>
        <time>2026-06-23T11:16:29Z</time>
      </trkpt>
      <trkpt lat="50.258070034906268" lon="-4.852912975475192">
        <ele>79.450000000000003</ele>
        <time>2026-06-23T11:16:34Z</time>
      </trkpt>
      <trkpt lat="50.25801002047956" lon="-4.853027975186706">
        <ele>78.969999999999999</ele>
        <time>2026-06-23T11:16:35Z</time>
      </trkpt>
      <trkpt lat="50.257455976679921" lon="-4.85408702865243">
        <ele>77.040000000000006</ele>
        <time>2026-06-23T11:16:44Z</time>
      </trkpt>
      <trkpt lat="50.256561040878296" lon="-4.855724014341831">
        <ele>73.680000000000007</ele>
        <time>2026-06-23T11:16:55Z</time>
      </trkpt>
      <trkpt lat="50.256486022844911" lon="-4.855904979631305">
        <ele>73.680000000000007</ele>
        <time>2026-06-23T11:16:56Z</time>
      </trkpt>
      <trkpt lat="50.256272032856941" lon="-4.856429016217589">
        <ele>72.239999999999995</ele>
        <time>2026-06-23T11:16:59Z</time>
      </trkpt>
      <trkpt lat="50.256188968196511" lon="-4.856589026749134">
        <ele>71.760000000000005</ele>
        <time>2026-06-23T11:17:00Z</time>
      </trkpt>
      <trkpt lat="50.25586299598217" lon="-4.857186991721392">
        <ele>69.349999999999994</ele>
        <time>2026-06-23T11:17:04Z</time>
      </trkpt>
      <trkpt lat="50.255778003484011" lon="-4.857305008918047">
        <ele>68.870000000000005</ele>
        <time>2026-06-23T11:17:05Z</time>
      </trkpt>
      <trkpt lat="50.255178026854992" lon="-4.858145965263248">
        <ele>62.619999999999997</ele>
        <time>2026-06-23T11:17:13Z</time>
      </trkpt>
      <trkpt lat="50.255166040733457" lon="-4.85817396081984">
        <ele>61.659999999999997</ele>
        <time>2026-06-23T11:17:14Z</time>
      </trkpt>
      <trkpt lat="50.255125975236297" lon="-4.858272029086947">
        <ele>60.219999999999999</ele>
        <time>2026-06-23T11:17:15Z</time>
      </trkpt>
      <trkpt lat="50.255083981901407" lon="-4.858374036848545">
        <ele>59.259999999999998</ele>
        <time>2026-06-23T11:17:16Z</time>
      </trkpt>
      <trkpt lat="50.255041988566518" lon="-4.858477972447872">
        <ele>58.299999999999997</ele>
        <time>2026-06-23T11:17:17Z</time>
      </trkpt>
      <trkpt lat="50.254983985796571" lon="-4.858618034049869">
        <ele>57.82</ele>
        <time>2026-06-23T11:17:18Z</time>
      </trkpt>
      <trkpt lat="50.254956996068358" lon="-4.858656004071236">
        <ele>57.340000000000003</ele>
        <time>2026-06-23T11:17:19Z</time>
      </trkpt>
      <trkpt lat="50.254865968599916" lon="-4.858782989904285">
        <ele>56.369999999999997</ele>
        <time>2026-06-23T11:17:21Z</time>
      </trkpt>
      <trkpt lat="50.254826992750168" lon="-4.85883797518909">
        <ele>56.369999999999997</ele>
        <time>2026-06-23T11:17:22Z</time>
      </trkpt>
      <trkpt lat="50.25472498498857" lon="-4.858926991000772">
        <ele>55.409999999999997</ele>
        <time>2026-06-23T11:17:24Z</time>
      </trkpt>
      <trkpt lat="50.254685003310442" lon="-4.858935037627816">
        <ele>54.93</ele>
        <time>2026-06-23T11:17:25Z</time>
      </trkpt>
      <trkpt lat="50.254625994712114" lon="-4.858884997665882">
        <ele>54.450000000000003</ele>
        <time>2026-06-23T11:17:26Z</time>
      </trkpt>
      <trkpt lat="50.254576960578561" lon="-4.858810985460877">
        <ele>53.969999999999999</ele>
        <time>2026-06-23T11:17:27Z</time>
      </trkpt>
      <trkpt lat="50.254553994163871" lon="-4.858714006841183">
        <ele>53.009999999999998</ele>
        <time>2026-06-23T11:17:28Z</time>
      </trkpt>
      <trkpt lat="50.254496997222304" lon="-4.858476966619492">
        <ele>50.130000000000003</ele>
        <time>2026-06-23T11:17:30Z</time>
      </trkpt>
      <trkpt lat="50.254467995837331" lon="-4.858333971351385">
        <ele>48.68</ele>
        <time>2026-06-23T11:17:31Z</time>
      </trkpt>
      <trkpt lat="50.254457015544176" lon="-4.858167003840208">
        <ele>47.719999999999999</ele>
        <time>2026-06-23T11:17:32Z</time>
      </trkpt>
      <trkpt lat="50.254397001117468" lon="-4.857236025854945">
        <ele>39.549999999999997</ele>
        <time>2026-06-23T11:17:38Z</time>
      </trkpt>
      <trkpt lat="50.254387026652694" lon="-4.857084983959794">
        <ele>38.109999999999999</ele>
        <time>2026-06-23T11:17:39Z</time>
      </trkpt>
      <trkpt lat="50.254372023046017" lon="-4.856944000348449">
        <ele>37.149999999999999</ele>
        <time>2026-06-23T11:17:40Z</time>
      </trkpt>
      <trkpt lat="50.254350984469056" lon="-4.856799999251962">
        <ele>35.710000000000001</ele>
        <time>2026-06-23T11:17:41Z</time>
      </trkpt>
      <trkpt lat="50.254332963377237" lon="-4.856671001762152">
        <ele>34.259999999999998</ele>
        <time>2026-06-23T11:17:42Z</time>
      </trkpt>
      <trkpt lat="50.254298010841012" lon="-4.856419963762164">
        <ele>32.340000000000003</ele>
        <time>2026-06-23T11:17:44Z</time>
      </trkpt>
      <trkpt lat="50.254282001405954" lon="-4.856302030384541">
        <ele>30.899999999999999</ele>
        <time>2026-06-23T11:17:45Z</time>
      </trkpt>
      <trkpt lat="50.254269009456038" lon="-4.856211002916098">
        <ele>29.940000000000001</ele>
        <time>2026-06-23T11:17:46Z</time>
      </trkpt>
      <trkpt lat="50.254245037212968" lon="-4.856042023748159">
        <ele>27.050000000000001</ele>
        <time>2026-06-23T11:17:48Z</time>
      </trkpt>
      <trkpt lat="50.254232967272401" lon="-4.85595703125">
        <ele>26.09</ele>
        <time>2026-06-23T11:17:49Z</time>
      </trkpt>
      <trkpt lat="50.254227016121149" lon="-4.855938004329801">
        <ele>24.649999999999999</ele>
        <time>2026-06-23T11:17:50Z</time>
      </trkpt>
      <trkpt lat="50.254217963665724" lon="-4.855912020429969">
        <ele>23.210000000000001</ele>
        <time>2026-06-23T11:17:51Z</time>
      </trkpt>
      <trkpt lat="50.254190973937511" lon="-4.85582803376019">
        <ele>18.879999999999999</ele>
        <time>2026-06-23T11:17:57Z</time>
      </trkpt>
      <trkpt lat="50.254190973937511" lon="-4.85582803376019">
        <ele>17.440000000000001</ele>
        <time>2026-06-23T11:17:58Z</time>
      </trkpt>
      <trkpt lat="50.254069017246366" lon="-4.855917971581221">
        <ele>16.48</ele>
        <time>2026-06-23T11:17:59Z</time>
      </trkpt>
      <trkpt lat="50.254030041396618" lon="-4.856227012351155">
        <ele>13.6</ele>
        <time>2026-06-23T11:18:02Z</time>
      </trkpt>
      <trkpt lat="50.254015037789941" lon="-4.856345029547811">
        <ele>13.119999999999999</ele>
        <time>2026-06-23T11:18:03Z</time>
      </trkpt>
      <trkpt lat="50.254000034183264" lon="-4.856462040916085">
        <ele>12.630000000000001</ele>
        <time>2026-06-23T11:18:04Z</time>
      </trkpt>
      <trkpt lat="50.25397002696991" lon="-4.856697991490364">
        <ele>11.67</ele>
        <time>2026-06-23T11:18:06Z</time>
      </trkpt>
      <trkpt lat="50.253956029191613" lon="-4.856807962059975">
        <ele>10.710000000000001</ele>
        <time>2026-06-23T11:18:07Z</time>
      </trkpt>
      <trkpt lat="50.253943037241697" lon="-4.856909969821572">
        <ele>10.23</ele>
        <time>2026-06-23T11:18:08Z</time>
      </trkpt>
      <trkpt lat="50.25392996147275" lon="-4.857013989239931">
        <ele>9.75</ele>
        <time>2026-06-23T11:18:09Z</time>
      </trkpt>
      <trkpt lat="50.253912024199963" lon="-4.857158996164799">
        <ele>9.27</ele>
        <time>2026-06-23T11:18:10Z</time>
      </trkpt>
      <trkpt lat="50.253886040300131" lon="-4.857271984219551">
        <ele>8.789999999999999</ele>
        <time>2026-06-23T11:18:11Z</time>
      </trkpt>
      <trkpt lat="50.253856033086777" lon="-4.857401987537742">
        <ele>8.310000000000001</ele>
        <time>2026-06-23T11:18:12Z</time>
      </trkpt>
      <trkpt lat="50.253827031701803" lon="-4.857528973370791">
        <ele>7.35</ele>
        <time>2026-06-23T11:18:13Z</time>
      </trkpt>
      <trkpt lat="50.25379803031683" lon="-4.857658976688981">
        <ele>6.87</ele>
        <time>2026-06-23T11:18:14Z</time>
      </trkpt>
      <trkpt lat="50.253559984266758" lon="-4.858697997406125">
        <ele>2.06</ele>
        <time>2026-06-23T11:18:22Z</time>
      </trkpt>
      <trkpt lat="50.253439033403993" lon="-4.859445998445153">
        <ele>3.02</ele>
        <time>2026-06-23T11:18:28Z</time>
      </trkpt>
      <trkpt lat="50.253430986776948" lon="-4.859551023691893">
        <ele>2.54</ele>
        <time>2026-06-23T11:18:29Z</time>
      </trkpt>
      <trkpt lat="50.253424029797316" lon="-4.85965202562511">
        <ele>2.06</ele>
        <time>2026-06-23T11:18:30Z</time>
      </trkpt>
      <trkpt lat="50.253420006483793" lon="-4.859741041436791">
        <ele>1.58</ele>
        <time>2026-06-23T11:18:31Z</time>
      </trkpt>
      <trkpt lat="50.253443978726864" lon="-4.859838020056486">
        <ele>1.58</ele>
        <time>2026-06-23T11:18:32Z</time>
      </trkpt>
      <trkpt lat="50.253460993990302" lon="-4.859904991462827">
        <ele>1.1</ele>
        <time>2026-06-23T11:18:33Z</time>
      </trkpt>
      <trkpt lat="50.253525031730533" lon="-4.860038012266159">
        <ele>1.1</ele>
        <time>2026-06-23T11:18:34Z</time>
      </trkpt>
      <trkpt lat="50.253621004521847" lon="-4.86023498699069">
        <ele>1.58</ele>
        <time>2026-06-23T11:18:36Z</time>
      </trkpt>
      <trkpt lat="50.253740027546883" lon="-4.860478984192014">
        <ele>3.02</ele>
        <time>2026-06-23T11:18:39Z</time>
      </trkpt>
      <trkpt lat="50.253784032538533" lon="-4.860570011660457">
        <ele>3.98</ele>
        <time>2026-06-23T11:18:40Z</time>
      </trkpt>
      <trkpt lat="50.253827031701803" lon="-4.860660033300519">
        <ele>4.46</ele>
        <time>2026-06-23T11:18:41Z</time>
      </trkpt>
      <trkpt lat="50.253866007551551" lon="-4.860738990828395">
        <ele>4.94</ele>
        <time>2026-06-23T11:18:42Z</time>
      </trkpt>
      <trkpt lat="50.253896014764905" lon="-4.860801016911864">
        <ele>5.42</ele>
        <time>2026-06-23T11:18:43Z</time>
      </trkpt>
      <trkpt lat="50.253915041685104" lon="-4.860839992761612">
        <ele>6.39</ele>
        <time>2026-06-23T11:18:44Z</time>
      </trkpt>
      <trkpt lat="50.253915041685104" lon="-4.860839992761612">
        <ele>6.87</ele>
        <time>2026-06-23T11:18:53Z</time>
      </trkpt>
      <trkpt lat="50.253915041685104" lon="-4.860839992761612">
        <ele>6.87</ele>
        <time>2026-06-23T11:19:12Z</time>
      </trkpt>
      <trkpt lat="50.253915041685104" lon="-4.860839992761612">
        <ele>8.310000000000001</ele>
        <time>2026-06-23T11:19:30Z</time>
      </trkpt>
      <trkpt lat="50.253920992836356" lon="-4.860851978883147">
        <ele>8.310000000000001</ele>
        <time>2026-06-23T11:19:46Z</time>
      </trkpt>
      <trkpt lat="50.253891991451383" lon="-4.860660033300519">
        <ele>15.039999999999999</ele>
        <time>2026-06-23T11:19:55Z</time>
      </trkpt>
      <trkpt lat="50.253796018660069" lon="-4.860594989731908">
        <ele>14.56</ele>
        <time>2026-06-23T11:20:03Z</time>
      </trkpt>
      <trkpt lat="50.253796018660069" lon="-4.860594989731908">
        <ele>14.08</ele>
        <time>2026-06-23T11:20:50Z</time>
      </trkpt>
      <trkpt lat="50.253796018660069" lon="-4.860594989731908">
        <ele>14.56</ele>
        <time>2026-06-23T11:21:39Z</time>
      </trkpt>
      <trkpt lat="50.253796018660069" lon="-4.860594989731908">
        <ele>15.039999999999999</ele>
        <time>2026-06-23T11:22:30Z</time>
      </trkpt>
      <trkpt lat="50.25375897064805" lon="-4.860519971698523">
        <ele>15.52</ele>
        <time>2026-06-23T11:23:07Z</time>
      </trkpt>
      <trkpt lat="50.253531988710165" lon="-4.860052010044456">
        <ele>17.920000000000002</ele>
        <time>2026-06-23T11:23:13Z</time>
      </trkpt>
      <trkpt lat="50.253453031182289" lon="-4.859874984249473">
        <ele>17.440000000000001</ele>
        <time>2026-06-23T11:23:15Z</time>
      </trkpt>
      <trkpt lat="50.253428975120187" lon="-4.859778005629778">
        <ele>17.440000000000001</ele>
        <time>2026-06-23T11:23:16Z</time>
      </trkpt>
      <trkpt lat="50.253422018140554" lon="-4.859681027010083">
        <ele>17.440000000000001</ele>
        <time>2026-06-23T11:23:17Z</time>
      </trkpt>
      <trkpt lat="50.253429980948567" lon="-4.859564015641809">
        <ele>17.440000000000001</ele>
        <time>2026-06-23T11:23:18Z</time>
      </trkpt>
      <trkpt lat="50.253440039232373" lon="-4.859433006495237">
        <ele>17.440000000000001</ele>
        <time>2026-06-23T11:23:19Z</time>
      </trkpt>
      <trkpt lat="50.25362703949213" lon="-4.858405971899629">
        <ele>14.08</ele>
        <time>2026-06-23T11:23:27Z</time>
      </trkpt>
      <trkpt lat="50.253660986199975" lon="-4.858258031308651">
        <ele>13.6</ele>
        <time>2026-06-23T11:23:28Z</time>
      </trkpt>
      <trkpt lat="50.253687975928187" lon="-4.858140014111996">
        <ele>13.119999999999999</ele>
        <time>2026-06-23T11:23:29Z</time>
      </trkpt>
      <trkpt lat="50.25371303781867" lon="-4.858029959723353">
        <ele>13.119999999999999</ele>
        <time>2026-06-23T11:23:30Z</time>
      </trkpt>
      <trkpt lat="50.253740027546883" lon="-4.857910014688969">
        <ele>13.119999999999999</ele>
        <time>2026-06-23T11:23:31Z</time>
      </trkpt>
      <trkpt lat="50.253769028931856" lon="-4.85778302885592">
        <ele>13.6</ele>
        <time>2026-06-23T11:23:32Z</time>
      </trkpt>
      <trkpt lat="50.25379903614521" lon="-4.857651013880968">
        <ele>14.08</ele>
        <time>2026-06-23T11:23:33Z</time>
      </trkpt>
      <trkpt lat="50.253883022814989" lon="-4.857284976169467">
        <ele>16</ele>
        <time>2026-06-23T11:23:36Z</time>
      </trkpt>
      <trkpt lat="50.253909006714821" lon="-4.857167964801192">
        <ele>16</ele>
        <time>2026-06-23T11:23:37Z</time>
      </trkpt>
      <trkpt lat="50.25392702780664" lon="-4.857037039473653">
        <ele>16.48</ele>
        <time>2026-06-23T11:23:38Z</time>
      </trkpt>
      <trkpt lat="50.253945970907807" lon="-4.856891026720405">
        <ele>17.440000000000001</ele>
        <time>2026-06-23T11:23:39Z</time>
      </trkpt>
      <trkpt lat="50.253966003656387" lon="-4.856733027845621">
        <ele>18.399999999999999</ele>
        <time>2026-06-23T11:23:40Z</time>
      </trkpt>
      <trkpt lat="50.25407899171114" lon="-4.855841025710106">
        <ele>23.690000000000001</ele>
        <time>2026-06-23T11:23:47Z</time>
      </trkpt>
      <trkpt lat="50.254083015024662" lon="-4.855686966329813">
        <ele>24.170000000000002</ele>
        <time>2026-06-23T11:23:49Z</time>
      </trkpt>
      <trkpt lat="50.254083015024662" lon="-4.855576995760202">
        <ele>24.649999999999999</ele>
        <time>2026-06-23T11:23:50Z</time>
      </trkpt>
      <trkpt lat="50.254083015024662" lon="-4.854607963934541">
        <ele>26.57</ele>
        <time>2026-06-23T11:23:58Z</time>
      </trkpt>
      <trkpt lat="50.254083015024662" lon="-4.854501010850072">
        <ele>27.050000000000001</ele>
        <time>2026-06-23T11:23:59Z</time>
      </trkpt>
      <trkpt lat="50.254083015024662" lon="-4.85445499420166">
        <ele>27.530000000000001</ele>
        <time>2026-06-23T11:24:00Z</time>
      </trkpt>
      <trkpt lat="50.2541000302881" lon="-4.854319961741567">
        <ele>27.530000000000001</ele>
        <time>2026-06-23T11:24:01Z</time>
      </trkpt>
      <trkpt lat="50.2541000302881" lon="-4.854319961741567">
        <ele>28.02</ele>
        <time>2026-06-23T11:24:02Z</time>
      </trkpt>
      <trkpt lat="50.2541000302881" lon="-4.854319961741567">
        <ele>28.5</ele>
        <time>2026-06-23T11:24:16Z</time>
      </trkpt>
      <trkpt lat="50.2541000302881" lon="-4.854319961741567">
        <ele>28.98</ele>
        <time>2026-06-23T11:24:58Z</time>
      </trkpt>
      <trkpt lat="50.2541000302881" lon="-4.854319961741567">
        <ele>29.460000000000001</ele>
        <time>2026-06-23T11:25:37Z</time>
      </trkpt>
      <trkpt lat="50.2541000302881" lon="-4.854319961741567">
        <ele>30.420000000000002</ele>
        <time>2026-06-23T11:26:07Z</time>
      </trkpt>
      <trkpt lat="50.2541000302881" lon="-4.854319961741567">
        <ele>30.420000000000002</ele>
        <time>2026-06-23T11:26:28Z</time>
      </trkpt>
      <trkpt lat="50.25410296395421" lon="-4.854290038347244">
        <ele>30.899999999999999</ele>
        <time>2026-06-23T11:27:04Z</time>
      </trkpt>
      <trkpt lat="50.254108998924494" lon="-4.854246033355594">
        <ele>33.299999999999997</ele>
        <time>2026-06-23T11:27:05Z</time>
      </trkpt>
      <trkpt lat="50.254116039723158" lon="-4.854189036414027">
        <ele>34.740000000000002</ele>
        <time>2026-06-23T11:27:06Z</time>
      </trkpt>
      <trkpt lat="50.254190973937511" lon="-4.8535739723593">
        <ele>36.670000000000002</ele>
        <time>2026-06-23T11:27:14Z</time>
      </trkpt>
      <trkpt lat="50.254202038049698" lon="-4.853485962375999">
        <ele>36.189999999999998</ele>
        <time>2026-06-23T11:27:15Z</time>
      </trkpt>
      <trkpt lat="50.254211006686091" lon="-4.853410022333264">
        <ele>35.710000000000001</ele>
        <time>2026-06-23T11:27:16Z</time>
      </trkpt>
      <trkpt lat="50.254203965887427" lon="-4.853327963501215">
        <ele>35.229999999999997</ele>
        <time>2026-06-23T11:27:17Z</time>
      </trkpt>
      <trkpt lat="50.254193991422653" lon="-4.853245988488197">
        <ele>34.740000000000002</ele>
        <time>2026-06-23T11:27:18Z</time>
      </trkpt>
      <trkpt lat="50.254190973937511" lon="-4.853211035951972">
        <ele>34.259999999999998</ele>
        <time>2026-06-23T11:27:19Z</time>
      </trkpt>
      <trkpt lat="50.254150992259383" lon="-4.853130988776684">
        <ele>33.780000000000001</ele>
        <time>2026-06-23T11:27:20Z</time>
      </trkpt>
      <trkpt lat="50.254131965339184" lon="-4.853094024583697">
        <ele>32.82</ele>
        <time>2026-06-23T11:27:21Z</time>
      </trkpt>
      <trkpt lat="50.254107993096113" lon="-4.853044990450144">
        <ele>32.340000000000003</ele>
        <time>2026-06-23T11:27:22Z</time>
      </trkpt>
      <trkpt lat="50.254061976447701" lon="-4.852953040972352">
        <ele>31.859999999999999</ele>
        <time>2026-06-23T11:27:23Z</time>
      </trkpt>
      <trkpt lat="50.254061976447701" lon="-4.852953040972352">
        <ele>30.899999999999999</ele>
        <time>2026-06-23T11:27:24Z</time>
      </trkpt>
      <trkpt lat="50.254001040011644" lon="-4.852894032374024">
        <ele>30.420000000000002</ele>
        <time>2026-06-23T11:27:25Z</time>
      </trkpt>
      <trkpt lat="50.253957035019994" lon="-4.852851033210754">
        <ele>29.940000000000001</ele>
        <time>2026-06-23T11:27:26Z</time>
      </trkpt>
      <trkpt lat="50.253920992836356" lon="-4.852815996855497">
        <ele>29.460000000000001</ele>
        <time>2026-06-23T11:27:27Z</time>
      </trkpt>
      <trkpt lat="50.253883022814989" lon="-4.852780038490892">
        <ele>28.5</ele>
        <time>2026-06-23T11:27:28Z</time>
      </trkpt>
      <trkpt lat="50.25384496897459" lon="-4.852742990478873">
        <ele>28.02</ele>
        <time>2026-06-23T11:27:29Z</time>
      </trkpt>
      <trkpt lat="50.253618992865086" lon="-4.85252296552062">
        <ele>24.170000000000002</ele>
        <time>2026-06-23T11:27:34Z</time>
      </trkpt>
      <trkpt lat="50.253571970388293" lon="-4.852478038519621">
        <ele>23.210000000000001</ele>
        <time>2026-06-23T11:27:35Z</time>
      </trkpt>
      <trkpt lat="50.253525031730533" lon="-4.852432021871209">
        <ele>22.25</ele>
        <time>2026-06-23T11:27:36Z</time>
      </trkpt>
      <trkpt lat="50.25347800925374" lon="-4.852387011051178">
        <ele>21.289999999999999</ele>
        <time>2026-06-23T11:27:37Z</time>
      </trkpt>
      <trkpt lat="50.253439033403993" lon="-4.852349041029811">
        <ele>20.32</ele>
        <time>2026-06-23T11:27:38Z</time>
      </trkpt>
      <trkpt lat="50.253397040069103" lon="-4.85230796970427">
        <ele>19.84</ele>
        <time>2026-06-23T11:27:39Z</time>
      </trkpt>
      <trkpt lat="50.253354962915182" lon="-4.852266982197762">
        <ele>18.879999999999999</ele>
        <time>2026-06-23T11:27:40Z</time>
      </trkpt>
      <trkpt lat="50.253321016207337" lon="-4.852224988862872">
        <ele>18.399999999999999</ele>
        <time>2026-06-23T11:27:41Z</time>
      </trkpt>
      <trkpt lat="50.253297965973616" lon="-4.852184001356363">
        <ele>17.440000000000001</ele>
        <time>2026-06-23T11:27:42Z</time>
      </trkpt>
      <trkpt lat="50.253274999558926" lon="-4.852143013849855">
        <ele>16.960000000000001</ele>
        <time>2026-06-23T11:27:43Z</time>
      </trkpt>
      <trkpt lat="50.253224959596992" lon="-4.852051986381412">
        <ele>16</ele>
        <time>2026-06-23T11:27:44Z</time>
      </trkpt>
      <trkpt lat="50.253224037587643" lon="-4.85204896889627">
        <ele>15.52</ele>
        <time>2026-06-23T11:27:45Z</time>
      </trkpt>
      <trkpt lat="50.253214985132217" lon="-4.851796003058553">
        <ele>12.630000000000001</ele>
        <time>2026-06-23T11:27:49Z</time>
      </trkpt>
      <trkpt lat="50.253234012052417" lon="-4.851732971146703">
        <ele>12.15</ele>
        <time>2026-06-23T11:27:50Z</time>
      </trkpt>
      <trkpt lat="50.253273993730545" lon="-4.851601039990783">
        <ele>11.19</ele>
        <time>2026-06-23T11:27:52Z</time>
      </trkpt>
      <trkpt lat="50.253294026479125" lon="-4.851538008078933">
        <ele>10.710000000000001</ele>
        <time>2026-06-23T11:27:53Z</time>
      </trkpt>
      <trkpt lat="50.253354040905833" lon="-4.851343967020512">
        <ele>9.75</ele>
        <time>2026-06-23T11:27:54Z</time>
      </trkpt>
      <trkpt lat="50.253353035077453" lon="-4.851340027526021">
        <ele>9.27</ele>
        <time>2026-06-23T11:27:55Z</time>
      </trkpt>
      <trkpt lat="50.25328204035759" lon="-4.851225027814508">
        <ele>8.789999999999999</ele>
        <time>2026-06-23T11:27:56Z</time>
      </trkpt>
      <trkpt lat="50.253224037587643" lon="-4.851185968145728">
        <ele>8.310000000000001</ele>
        <time>2026-06-23T11:27:57Z</time>
      </trkpt>
      <trkpt lat="50.253204004839063" lon="-4.851171970367432">
        <ele>7.83</ele>
        <time>2026-06-23T11:27:58Z</time>
      </trkpt>
      <trkpt lat="50.253204004839063" lon="-4.851171970367432">
        <ele>7.35</ele>
        <time>2026-06-23T11:27:59Z</time>
      </trkpt>
      <trkpt lat="50.253083975985646" lon="-4.851198038086295">
        <ele>6.39</ele>
        <time>2026-06-23T11:28:01Z</time>
      </trkpt>
      <trkpt lat="50.253052962943912" lon="-4.851204995065928">
        <ele>5.91</ele>
        <time>2026-06-23T11:28:02Z</time>
      </trkpt>
      <trkpt lat="50.253018010407686" lon="-4.851212035864592">
        <ele>5.42</ele>
        <time>2026-06-23T11:28:03Z</time>
      </trkpt>
      <trkpt lat="50.252709975466132" lon="-4.851279007270932">
        <ele>3.02</ele>
        <time>2026-06-23T11:28:08Z</time>
      </trkpt>
      <trkpt lat="50.252715004608035" lon="-4.851278001442552">
        <ele>3.02</ele>
        <time>2026-06-23T11:28:09Z</time>
      </trkpt>
      <trkpt lat="50.252647027373314" lon="-4.851260986179113">
        <ele>2.54</ele>
        <time>2026-06-23T11:28:10Z</time>
      </trkpt>
      <trkpt lat="50.252555999904871" lon="-4.85123198479414">
        <ele>2.54</ele>
        <time>2026-06-23T11:28:11Z</time>
      </trkpt>
      <trkpt lat="50.252520041540265" lon="-4.851189991459251">
        <ele>2.06</ele>
        <time>2026-06-23T11:28:12Z</time>
      </trkpt>
      <trkpt lat="50.25248802267015" lon="-4.851152021437883">
        <ele>1.58</ele>
        <time>2026-06-23T11:28:13Z</time>
      </trkpt>
      <trkpt lat="50.252454997971654" lon="-4.851112961769104">
        <ele>1.58</ele>
        <time>2026-06-23T11:28:14Z</time>
      </trkpt>
      <trkpt lat="50.252323988825083" lon="-4.850956974551082">
        <ele>1.1</ele>
        <time>2026-06-23T11:28:17Z</time>
      </trkpt>
      <trkpt lat="50.252294987440109" lon="-4.850841974839568">
        <ele>2.06</ele>
        <time>2026-06-23T11:28:20Z</time>
      </trkpt>
      <trkpt lat="50.252237990498543" lon="-4.850613987073302">
        <ele>3.98</ele>
        <time>2026-06-23T11:28:23Z</time>
      </trkpt>
      <trkpt lat="50.25223002769053" lon="-4.850555984303355">
        <ele>4.94</ele>
        <time>2026-06-23T11:28:24Z</time>
      </trkpt>
      <trkpt lat="50.252218963578343" lon="-4.850481972098351">
        <ele>5.91</ele>
        <time>2026-06-23T11:28:25Z</time>
      </trkpt>
      <trkpt lat="50.252208989113569" lon="-4.850411983206868">
        <ele>7.35</ele>
        <time>2026-06-23T11:28:26Z</time>
      </trkpt>
      <trkpt lat="50.252199014648795" lon="-4.850341994315386">
        <ele>8.310000000000001</ele>
        <time>2026-06-23T11:28:27Z</time>
      </trkpt>
      <trkpt lat="50.252131037414074" lon="-4.849862968549132">
        <ele>16.48</ele>
        <time>2026-06-23T11:28:33Z</time>
      </trkpt>
      <trkpt lat="50.252143023535609" lon="-4.849633974954486">
        <ele>20.32</ele>
        <time>2026-06-23T11:28:36Z</time>
      </trkpt>
      <trkpt lat="50.252152998000383" lon="-4.849455021321774">
        <ele>21.289999999999999</ele>
        <time>2026-06-23T11:28:38Z</time>
      </trkpt>
      <trkpt lat="50.252158027142286" lon="-4.849368017166853">
        <ele>22.25</ele>
        <time>2026-06-23T11:28:39Z</time>
      </trkpt>
      <trkpt lat="50.252162972465158" lon="-4.849286964163184">
        <ele>22.73</ele>
        <time>2026-06-23T11:28:40Z</time>
      </trkpt>
      <trkpt lat="50.25216699577868" lon="-4.849040033295751">
        <ele>24.170000000000002</ele>
        <time>2026-06-23T11:28:43Z</time>
      </trkpt>
      <trkpt lat="50.25214796885848" lon="-4.848899971693754">
        <ele>25.129999999999999</ele>
        <time>2026-06-23T11:28:45Z</time>
      </trkpt>
      <trkpt lat="50.252131037414074" lon="-4.848768962547183">
        <ele>25.609999999999999</ele>
        <time>2026-06-23T11:28:46Z</time>
      </trkpt>
      <trkpt lat="50.25210103020072" lon="-4.848739039152861">
        <ele>26.09</ele>
        <time>2026-06-23T11:28:47Z</time>
      </trkpt>
      <trkpt lat="50.252049984410405" lon="-4.848687993362546">
        <ele>27.050000000000001</ele>
        <time>2026-06-23T11:28:48Z</time>
      </trkpt>
      <trkpt lat="50.251999022439122" lon="-4.848637031391263">
        <ele>27.530000000000001</ele>
        <time>2026-06-23T11:28:49Z</time>
      </trkpt>
      <trkpt lat="50.251950994133949" lon="-4.84858900308609">
        <ele>28.02</ele>
        <time>2026-06-23T11:28:50Z</time>
      </trkpt>
      <trkpt lat="50.251916041597724" lon="-4.848553966730833">
        <ele>28.98</ele>
        <time>2026-06-23T11:28:51Z</time>
      </trkpt>
      <trkpt lat="50.251878993585706" lon="-4.848504010587931">
        <ele>28.98</ele>
        <time>2026-06-23T11:28:52Z</time>
      </trkpt>
      <trkpt lat="50.251840017735958" lon="-4.848451958969235">
        <ele>29.940000000000001</ele>
        <time>2026-06-23T11:28:53Z</time>
      </trkpt>
      <trkpt lat="50.251612029969692" lon="-4.848143002018333">
        <ele>31.859999999999999</ele>
        <time>2026-06-23T11:28:58Z</time>
      </trkpt>
      <trkpt lat="50.251551009714603" lon="-4.848061027005315">
        <ele>32.340000000000003</ele>
        <time>2026-06-23T11:28:59Z</time>
      </trkpt>
      <trkpt lat="50.251527959480882" lon="-4.847983997315168">
        <ele>32.82</ele>
        <time>2026-06-23T11:29:00Z</time>
      </trkpt>
      <trkpt lat="50.251497030258179" lon="-4.847884001210332">
        <ele>33.299999999999997</ele>
        <time>2026-06-23T11:29:01Z</time>
      </trkpt>
      <trkpt lat="50.251464005559683" lon="-4.847776964306831">
        <ele>33.780000000000001</ele>
        <time>2026-06-23T11:29:02Z</time>
      </trkpt>
      <trkpt lat="50.251431986689568" lon="-4.847672022879124">
        <ele>34.740000000000002</ele>
        <time>2026-06-23T11:29:03Z</time>
      </trkpt>
      <trkpt lat="50.251326039433479" lon="-4.847329035401344">
        <ele>37.149999999999999</ele>
        <time>2026-06-23T11:29:06Z</time>
      </trkpt>
      <trkpt lat="50.251253033056855" lon="-4.847090989351273">
        <ele>38.590000000000003</ele>
        <time>2026-06-23T11:29:08Z</time>
      </trkpt>
      <trkpt lat="50.251215985044837" lon="-4.846971966326237">
        <ele>39.07</ele>
        <time>2026-06-23T11:29:09Z</time>
      </trkpt>
      <trkpt lat="50.25115798227489" lon="-4.846875993534923">
        <ele>39.549999999999997</ele>
        <time>2026-06-23T11:29:10Z</time>
      </trkpt>
      <trkpt lat="50.251066032797098" lon="-4.846748001873493">
        <ele>40.990000000000002</ele>
        <time>2026-06-23T11:29:12Z</time>
      </trkpt>
      <trkpt lat="50.251011969521642" lon="-4.846672983840108">
        <ele>41.469999999999999</ele>
        <time>2026-06-23T11:29:13Z</time>
      </trkpt>
      <trkpt lat="50.250956984236836" lon="-4.846597965806723">
        <ele>41.950000000000003</ele>
        <time>2026-06-23T11:29:14Z</time>
      </trkpt>
      <trkpt lat="50.250680968165398" lon="-4.846257995814085">
        <ele>44.840000000000003</ele>
        <time>2026-06-23T11:29:19Z</time>
      </trkpt>
      <trkpt lat="50.250629000365734" lon="-4.846194041892886">
        <ele>45.799999999999997</ele>
        <time>2026-06-23T11:29:20Z</time>
      </trkpt>
      <trkpt lat="50.250622965395451" lon="-4.846111983060837">
        <ele>46.759999999999998</ele>
        <time>2026-06-23T11:29:21Z</time>
      </trkpt>
      <trkpt lat="50.250617014244199" lon="-4.846009975299239">
        <ele>47.719999999999999</ele>
        <time>2026-06-23T11:29:22Z</time>
      </trkpt>
      <trkpt lat="50.250610979273915" lon="-4.845910985022783">
        <ele>48.200000000000003</ele>
        <time>2026-06-23T11:29:23Z</time>
      </trkpt>
      <trkpt lat="50.250621037557721" lon="-4.845794979482889">
        <ele>48.68</ele>
        <time>2026-06-23T11:29:24Z</time>
      </trkpt>
      <trkpt lat="50.250642998144031" lon="-4.845702024176717">
        <ele>49.159999999999997</ele>
        <time>2026-06-23T11:29:25Z</time>
      </trkpt>
      <trkpt lat="50.250924965366721" lon="-4.844731986522675">
        <ele>50.609999999999999</ele>
        <time>2026-06-23T11:29:34Z</time>
      </trkpt>
      <trkpt lat="50.251083970069885" lon="-4.844265030696988">
        <ele>48.68</ele>
        <time>2026-06-23T11:29:39Z</time>
      </trkpt>
      <trkpt lat="50.251113977283239" lon="-4.844174003228545">
        <ele>48.200000000000003</ele>
        <time>2026-06-23T11:29:40Z</time>
      </trkpt>
      <trkpt lat="50.251145996153355" lon="-4.844079958274961">
        <ele>47.719999999999999</ele>
        <time>2026-06-23T11:29:41Z</time>
      </trkpt>
      <trkpt lat="50.251179020851851" lon="-4.843982979655266">
        <ele>47.240000000000002</ele>
        <time>2026-06-23T11:29:42Z</time>
      </trkpt>
      <trkpt lat="50.251208022236824" lon="-4.843897987157106">
        <ele>46.759999999999998</ele>
        <time>2026-06-23T11:29:43Z</time>
      </trkpt>
      <trkpt lat="50.251265019178391" lon="-4.84381802380085">
        <ele>46.280000000000001</ele>
        <time>2026-06-23T11:29:44Z</time>
      </trkpt>
      <trkpt lat="50.251316986978054" lon="-4.843745017424226">
        <ele>45.799999999999997</ele>
        <time>2026-06-23T11:29:45Z</time>
      </trkpt>
      <trkpt lat="50.251364009454846" lon="-4.843678968027234">
        <ele>45.32</ele>
        <time>2026-06-23T11:29:46Z</time>
      </trkpt>
      <trkpt lat="50.251411031931639" lon="-4.843614008277655">
        <ele>44.840000000000003</ele>
        <time>2026-06-23T11:29:47Z</time>
      </trkpt>
      <trkpt lat="50.251455958932638" lon="-4.843570003286004">
        <ele>43.880000000000003</ele>
        <time>2026-06-23T11:29:48Z</time>
      </trkpt>
      <trkpt lat="50.251511028036475" lon="-4.843525998294354">
        <ele>43.399999999999999</ele>
        <time>2026-06-23T11:29:49Z</time>
      </trkpt>
      <trkpt lat="50.251571964472532" lon="-4.843475958332419">
        <ele>42.439999999999998</ele>
        <time>2026-06-23T11:29:50Z</time>
      </trkpt>
      <trkpt lat="50.251629967242479" lon="-4.843429019674659">
        <ele>41.950000000000003</ele>
        <time>2026-06-23T11:29:51Z</time>
      </trkpt>
      <trkpt lat="50.251751001924276" lon="-4.843332041054964">
        <ele>40.509999999999998</ele>
        <time>2026-06-23T11:29:53Z</time>
      </trkpt>
      <trkpt lat="50.251807998865843" lon="-4.843285018578172">
        <ele>40.030000000000001</ele>
        <time>2026-06-23T11:29:54Z</time>
      </trkpt>
      <trkpt lat="50.251872958615422" lon="-4.843232966959477">
        <ele>39.07</ele>
        <time>2026-06-23T11:29:55Z</time>
      </trkpt>
      <trkpt lat="50.25193297304213" lon="-4.843165995553136">
        <ele>38.590000000000003</ele>
        <time>2026-06-23T11:29:56Z</time>
      </trkpt>
      <trkpt lat="50.251997010782361" lon="-4.843092989176512">
        <ele>37.630000000000003</ele>
        <time>2026-06-23T11:29:57Z</time>
      </trkpt>
      <trkpt lat="50.252062976360321" lon="-4.843019982799888">
        <ele>37.149999999999999</ele>
        <time>2026-06-23T11:29:58Z</time>
      </trkpt>
      <trkpt lat="50.252120979130268" lon="-4.842954017221928">
        <ele>37.149999999999999</ele>
        <time>2026-06-23T11:29:59Z</time>
      </trkpt>
      <trkpt lat="50.252180993556976" lon="-4.842886961996555">
        <ele>37.149999999999999</ele>
        <time>2026-06-23T11:30:00Z</time>
      </trkpt>
      <trkpt lat="50.252242013812065" lon="-4.842817978933454">
        <ele>37.149999999999999</ele>
        <time>2026-06-23T11:30:01Z</time>
      </trkpt>
      <trkpt lat="50.252304961904883" lon="-4.842746984213591">
        <ele>36.670000000000002</ele>
        <time>2026-06-23T11:30:02Z</time>
      </trkpt>
      <trkpt lat="50.252365982159972" lon="-4.842679006978869">
        <ele>36.189999999999998</ele>
        <time>2026-06-23T11:30:03Z</time>
      </trkpt>
      <trkpt lat="50.252429014071822" lon="-4.842607006430626">
        <ele>35.710000000000001</ele>
        <time>2026-06-23T11:30:04Z</time>
      </trkpt>
      <trkpt lat="50.252482993528247" lon="-4.842546992003918">
        <ele>35.229999999999997</ele>
        <time>2026-06-23T11:30:05Z</time>
      </trkpt>
      <trkpt lat="50.252530016005039" lon="-4.842494018375874">
        <ele>34.740000000000002</ele>
        <time>2026-06-23T11:30:06Z</time>
      </trkpt>
      <trkpt lat="50.25257502682507" lon="-4.842442972585559">
        <ele>34.740000000000002</ele>
        <time>2026-06-23T11:30:07Z</time>
      </trkpt>
      <trkpt lat="50.25262095965445" lon="-4.842392010614276">
        <ele>34.259999999999998</ele>
        <time>2026-06-23T11:30:08Z</time>
      </trkpt>
      <trkpt lat="50.25266102515161" lon="-4.842346999794245">
        <ele>33.780000000000001</ele>
        <time>2026-06-23T11:30:09Z</time>
      </trkpt>
      <trkpt lat="50.252731014043093" lon="-4.842267036437988">
        <ele>33.780000000000001</ele>
        <time>2026-06-23T11:30:10Z</time>
      </trkpt>
      <trkpt lat="50.252733025699854" lon="-4.842242980375886">
        <ele>33.299999999999997</ele>
        <time>2026-06-23T11:30:11Z</time>
      </trkpt>
      <trkpt lat="50.25274601764977" lon="-4.842003006488085">
        <ele>33.299999999999997</ele>
        <time>2026-06-23T11:30:12Z</time>
      </trkpt>
      <trkpt lat="50.252712992951274" lon="-4.841969981789589">
        <ele>33.299999999999997</ele>
        <time>2026-06-23T11:30:13Z</time>
      </trkpt>
      <trkpt lat="50.252669993788004" lon="-4.841926982626319">
        <ele>32.82</ele>
        <time>2026-06-23T11:30:14Z</time>
      </trkpt>
      <trkpt lat="50.252625988796353" lon="-4.841882977634668">
        <ele>32.340000000000003</ele>
        <time>2026-06-23T11:30:15Z</time>
      </trkpt>
      <trkpt lat="50.252559017390013" lon="-4.841838972643018">
        <ele>31.859999999999999</ele>
        <time>2026-06-23T11:30:16Z</time>
      </trkpt>
      <trkpt lat="50.252517024055123" lon="-4.84181902371347">
        <ele>31.379999999999999</ele>
        <time>2026-06-23T11:30:17Z</time>
      </trkpt>
      <trkpt lat="50.252476036548615" lon="-4.84179999679327">
        <ele>30.899999999999999</ele>
        <time>2026-06-23T11:30:18Z</time>
      </trkpt>
      <trkpt lat="50.252436976879835" lon="-4.841781975701451">
        <ele>30.420000000000002</ele>
        <time>2026-06-23T11:30:19Z</time>
      </trkpt>
      <trkpt lat="50.252400012686849" lon="-4.841764038428664">
        <ele>29.940000000000001</ele>
        <time>2026-06-23T11:30:20Z</time>
      </trkpt>
      <trkpt lat="50.252357013523579" lon="-4.841744005680084">
        <ele>29.460000000000001</ele>
        <time>2026-06-23T11:30:21Z</time>
      </trkpt>
      <trkpt lat="50.252308985218406" lon="-4.841721961274743">
        <ele>29.460000000000001</ele>
        <time>2026-06-23T11:30:22Z</time>
      </trkpt>
      <trkpt lat="50.252237990498543" lon="-4.841688014566898">
        <ele>29.460000000000001</ele>
        <time>2026-06-23T11:30:23Z</time>
      </trkpt>
      <trkpt lat="50.25223396718502" lon="-4.841677034273744">
        <ele>29.460000000000001</ele>
        <time>2026-06-23T11:30:24Z</time>
      </trkpt>
      <trkpt lat="50.25221100077033" lon="-4.84160696156323">
        <ele>28.98</ele>
        <time>2026-06-23T11:30:25Z</time>
      </trkpt>
      <trkpt lat="50.25218996219337" lon="-4.841543007642031">
        <ele>29.460000000000001</ele>
        <time>2026-06-23T11:30:26Z</time>
      </trkpt>
      <trkpt lat="50.25216800160706" lon="-4.841476958245039">
        <ele>29.460000000000001</ele>
        <time>2026-06-23T11:30:27Z</time>
      </trkpt>
      <trkpt lat="50.252142017707229" lon="-4.841400012373924">
        <ele>28.98</ele>
        <time>2026-06-23T11:30:28Z</time>
      </trkpt>
      <trkpt lat="50.252118967473507" lon="-4.84117696993053">
        <ele>29.460000000000001</ele>
        <time>2026-06-23T11:30:30Z</time>
      </trkpt>
      <trkpt lat="50.252112010493875" lon="-4.841060964390636">
        <ele>29.460000000000001</ele>
        <time>2026-06-23T11:30:31Z</time>
      </trkpt>
      <trkpt lat="50.252088960260153" lon="-4.840701967477799">
        <ele>30.899999999999999</ele>
        <time>2026-06-23T11:30:34Z</time>
      </trkpt>
      <trkpt lat="50.252083009108901" lon="-4.840608006343246">
        <ele>31.859999999999999</ele>
        <time>2026-06-23T11:30:35Z</time>
      </trkpt>
      <trkpt lat="50.252076974138618" lon="-4.840514967218041">
        <ele>32.340000000000003</ele>
        <time>2026-06-23T11:30:36Z</time>
      </trkpt>
      <trkpt lat="50.252071022987366" lon="-4.840410025790334">
        <ele>33.299999999999997</ele>
        <time>2026-06-23T11:30:37Z</time>
      </trkpt>
      <trkpt lat="50.252069011330605" lon="-4.840289996936917">
        <ele>33.780000000000001</ele>
        <time>2026-06-23T11:30:38Z</time>
      </trkpt>
      <trkpt lat="50.252074962481856" lon="-4.840168040245771">
        <ele>34.259999999999998</ele>
        <time>2026-06-23T11:30:39Z</time>
      </trkpt>
      <trkpt lat="50.25208099745214" lon="-4.840055974200368">
        <ele>35.229999999999997</ele>
        <time>2026-06-23T11:30:40Z</time>
      </trkpt>
      <trkpt lat="50.252107987180352" lon="-4.839519029483199">
        <ele>41.469999999999999</ele>
        <time>2026-06-23T11:30:45Z</time>
      </trkpt>
      <trkpt lat="50.252114022150636" lon="-4.839416015893221">
        <ele>42.920000000000002</ele>
        <time>2026-06-23T11:30:46Z</time>
      </trkpt>
      <trkpt lat="50.252185016870499" lon="-4.838034007698298">
        <ele>52.530000000000001</ele>
        <time>2026-06-23T11:30:55Z</time>
      </trkpt>
      <trkpt lat="50.252477964386344" lon="-4.836703967303038">
        <ele>60.219999999999999</ele>
        <time>2026-06-23T11:31:05Z</time>
      </trkpt>
      <trkpt lat="50.252863029018044" lon="-4.835077039897442">
        <ele>69.829999999999998</ele>
        <time>2026-06-23T11:31:17Z</time>
      </trkpt>
      <trkpt lat="50.252866968512535" lon="-4.834948964416981">
        <ele>70.790000000000006</ele>
        <time>2026-06-23T11:31:18Z</time>
      </trkpt>
      <trkpt lat="50.252870991826057" lon="-4.834819966927171">
        <ele>71.760000000000005</ele>
        <time>2026-06-23T11:31:19Z</time>
      </trkpt>
      <trkpt lat="50.25287602096796" lon="-4.834689041599631">
        <ele>72.239999999999995</ele>
        <time>2026-06-23T11:31:20Z</time>
      </trkpt>
      <trkpt lat="50.252874009311199" lon="-4.834399027749896">
        <ele>74.159999999999997</ele>
        <time>2026-06-23T11:31:22Z</time>
      </trkpt>
      <trkpt lat="50.252803014591336" lon="-4.833418009802699">
        <ele>80.409999999999997</ele>
        <time>2026-06-23T11:31:30Z</time>
      </trkpt>
      <trkpt lat="50.25281198322773" lon="-4.833198990672827">
        <ele>81.370000000000005</ele>
        <time>2026-06-23T11:31:32Z</time>
      </trkpt>
      <trkpt lat="50.252840984612703" lon="-4.832991035655141">
        <ele>81.849999999999994</ele>
        <time>2026-06-23T11:31:34Z</time>
      </trkpt>
      <trkpt lat="50.252881972119212" lon="-4.832696998491883">
        <ele>81.849999999999994</ele>
        <time>2026-06-23T11:31:36Z</time>
      </trkpt>
      <trkpt lat="50.252881972119212" lon="-4.832696998491883">
        <ele>81.849999999999994</ele>
        <time>2026-06-23T11:31:37Z</time>
      </trkpt>
      <trkpt lat="50.252933017909527" lon="-4.832565989345312">
        <ele>81.849999999999994</ele>
        <time>2026-06-23T11:31:38Z</time>
      </trkpt>
      <trkpt lat="50.253003006801009" lon="-4.83238996937871">
        <ele>82.329999999999998</ele>
        <time>2026-06-23T11:31:40Z</time>
      </trkpt>
      <trkpt lat="50.253037959337234" lon="-4.832300031557679">
        <ele>82.329999999999998</ele>
        <time>2026-06-23T11:31:41Z</time>
      </trkpt>
      <trkpt lat="50.253072995692492" lon="-4.832211015745997">
        <ele>82.329999999999998</ele>
        <time>2026-06-23T11:31:42Z</time>
      </trkpt>
      <trkpt lat="50.253106020390987" lon="-4.832126023247838">
        <ele>81.849999999999994</ele>
        <time>2026-06-23T11:31:43Z</time>
      </trkpt>
      <trkpt lat="50.253161005675793" lon="-4.831988979130983">
        <ele>81.849999999999994</ele>
        <time>2026-06-23T11:31:44Z</time>
      </trkpt>
      <trkpt lat="50.253173997625709" lon="-4.831976993009448">
        <ele>81.370000000000005</ele>
        <time>2026-06-23T11:31:45Z</time>
      </trkpt>
      <trkpt lat="50.253218002617359" lon="-4.83193701133132">
        <ele>80.890000000000001</ele>
        <time>2026-06-23T11:31:46Z</time>
      </trkpt>
      <trkpt lat="50.253259995952249" lon="-4.831899041309953">
        <ele>79.930000000000007</ele>
        <time>2026-06-23T11:31:47Z</time>
      </trkpt>
      <trkpt lat="50.253304000943899" lon="-4.831858975812793">
        <ele>79.930000000000007</ele>
        <time>2026-06-23T11:31:48Z</time>
      </trkpt>
      <trkpt lat="50.253350017592311" lon="-4.831816982477903">
        <ele>79.450000000000003</ele>
        <time>2026-06-23T11:31:49Z</time>
      </trkpt>
      <trkpt lat="50.253388993442059" lon="-4.831781024113298">
        <ele>78.969999999999999</ele>
        <time>2026-06-23T11:31:50Z</time>
      </trkpt>
      <trkpt lat="50.253393016755581" lon="-4.831721009686589">
        <ele>78.480000000000004</ele>
        <time>2026-06-23T11:31:51Z</time>
      </trkpt>
      <trkpt lat="50.253387987613678" lon="-4.831650014966726">
        <ele>77.519999999999996</ele>
        <time>2026-06-23T11:31:52Z</time>
      </trkpt>
      <trkpt lat="50.253382958471775" lon="-4.831577008590102">
        <ele>77.040000000000006</ele>
        <time>2026-06-23T11:31:53Z</time>
      </trkpt>
      <trkpt lat="50.253377007320523" lon="-4.831493021920323">
        <ele>76.560000000000002</ele>
        <time>2026-06-23T11:31:54Z</time>
      </trkpt>
      <trkpt lat="50.253357980400324" lon="-4.831410963088274">
        <ele>75.599999999999994</ele>
        <time>2026-06-23T11:31:55Z</time>
      </trkpt>
      <trkpt lat="50.253334008157253" lon="-4.831319013610482">
        <ele>74.640000000000001</ele>
        <time>2026-06-23T11:31:56Z</time>
      </trkpt>
      <trkpt lat="50.25330601260066" lon="-4.831216000020504">
        <ele>73.200000000000003</ele>
        <time>2026-06-23T11:31:57Z</time>
      </trkpt>
      <trkpt lat="50.253278017044067" lon="-4.831108963117003">
        <ele>72.239999999999995</ele>
        <time>2026-06-23T11:31:58Z</time>
      </trkpt>
      <trkpt lat="50.253250021487474" lon="-4.831004021689296">
        <ele>71.269999999999996</ele>
        <time>2026-06-23T11:31:59Z</time>
      </trkpt>
      <trkpt lat="50.253223031759262" lon="-4.830902013927698">
        <ele>70.310000000000002</ele>
        <time>2026-06-23T11:32:00Z</time>
      </trkpt>
      <trkpt lat="50.253189001232386" lon="-4.830631026998162">
        <ele>67.430000000000007</ele>
        <time>2026-06-23T11:32:03Z</time>
      </trkpt>
      <trkpt lat="50.253185983747244" lon="-4.830578975379467">
        <ele>66.469999999999999</ele>
        <time>2026-06-23T11:32:04Z</time>
      </trkpt>
      <trkpt lat="50.253181960433722" lon="-4.830533964559436">
        <ele>65.510000000000005</ele>
        <time>2026-06-23T11:32:05Z</time>
      </trkpt>
      <trkpt lat="50.253181960433722" lon="-4.830530025064945">
        <ele>65.030000000000001</ele>
        <time>2026-06-23T11:32:06Z</time>
      </trkpt>
      <trkpt lat="50.253208028152585" lon="-4.830452995374799">
        <ele>64.069999999999993</ele>
        <time>2026-06-23T11:32:07Z</time>
      </trkpt>
      <trkpt lat="50.253232000395656" lon="-4.830379988998175">
        <ele>63.579999999999998</ele>
        <time>2026-06-23T11:32:08Z</time>
      </trkpt>
      <trkpt lat="50.25326200760901" lon="-4.830290973186493">
        <ele>63.579999999999998</ele>
        <time>2026-06-23T11:32:09Z</time>
      </trkpt>
      <trkpt lat="50.253291008993983" lon="-4.830203969031572">
        <ele>63.579999999999998</ele>
        <time>2026-06-23T11:32:10Z</time>
      </trkpt>
      <trkpt lat="50.25334901176393" lon="-4.830029038712382">
        <ele>63.100000000000001</ele>
        <time>2026-06-23T11:32:12Z</time>
      </trkpt>
      <trkpt lat="50.253377007320523" lon="-4.829945974051952">
        <ele>63.100000000000001</ele>
        <time>2026-06-23T11:32:13Z</time>
      </trkpt>
      <trkpt lat="50.253401985391974" lon="-4.829871039837599">
        <ele>62.619999999999997</ele>
        <time>2026-06-23T11:32:14Z</time>
      </trkpt>
      <trkpt lat="50.253472980111837" lon="-4.829655960202217">
        <ele>62.140000000000001</ele>
        <time>2026-06-23T11:32:17Z</time>
      </trkpt>
      <trkpt lat="50.253482032567263" lon="-4.829628970474005">
        <ele>62.140000000000001</ele>
        <time>2026-06-23T11:32:18Z</time>
      </trkpt>
      <trkpt lat="50.253459988161922" lon="-4.829491004347801">
        <ele>61.659999999999997</ele>
        <time>2026-06-23T11:32:19Z</time>
      </trkpt>
      <trkpt lat="50.253444984555244" lon="-4.82940198853612">
        <ele>61.659999999999997</ele>
        <time>2026-06-23T11:32:20Z</time>
      </trkpt>
      <trkpt lat="50.253427969291806" lon="-4.829304004088044">
        <ele>61.659999999999997</ele>
        <time>2026-06-23T11:32:21Z</time>
      </trkpt>
      <trkpt lat="50.2534110378474" lon="-4.829200990498066">
        <ele>61.659999999999997</ele>
        <time>2026-06-23T11:32:22Z</time>
      </trkpt>
      <trkpt lat="50.253394022583961" lon="-4.829097976908088">
        <ele>62.140000000000001</ele>
        <time>2026-06-23T11:32:23Z</time>
      </trkpt>
      <trkpt lat="50.253376001492143" lon="-4.828977026045322">
        <ele>62.140000000000001</ele>
        <time>2026-06-23T11:32:24Z</time>
      </trkpt>
      <trkpt lat="50.253389999270439" lon="-4.82886303216219">
        <ele>62.619999999999997</ele>
        <time>2026-06-23T11:32:25Z</time>
      </trkpt>
      <trkpt lat="50.253402991220355" lon="-4.828750966116786">
        <ele>63.100000000000001</ele>
        <time>2026-06-23T11:32:26Z</time>
      </trkpt>
      <trkpt lat="50.253419000655413" lon="-4.828625991940498">
        <ele>63.100000000000001</ele>
        <time>2026-06-23T11:32:27Z</time>
      </trkpt>
      <trkpt lat="50.253432998433709" lon="-4.828508980572224">
        <ele>63.579999999999998</ele>
        <time>2026-06-23T11:32:28Z</time>
      </trkpt>
      <trkpt lat="50.253446996212006" lon="-4.828391969203949">
        <ele>64.549999999999997</ele>
        <time>2026-06-23T11:32:29Z</time>
      </trkpt>
      <trkpt lat="50.253460993990302" lon="-4.828276969492436">
        <ele>65.030000000000001</ele>
        <time>2026-06-23T11:32:30Z</time>
      </trkpt>
      <trkpt lat="50.253460993990302" lon="-4.828144032508135">
        <ele>65.989999999999995</ele>
        <time>2026-06-23T11:32:31Z</time>
      </trkpt>
      <trkpt lat="50.253460993990302" lon="-4.828025009483099">
        <ele>67.430000000000007</ele>
        <time>2026-06-23T11:32:32Z</time>
      </trkpt>
      <trkpt lat="50.253460993990302" lon="-4.827911015599966">
        <ele>68.390000000000001</ele>
        <time>2026-06-23T11:32:33Z</time>
      </trkpt>
      <trkpt lat="50.253460993990302" lon="-4.827800039201975">
        <ele>69.349999999999994</ele>
        <time>2026-06-23T11:32:34Z</time>
      </trkpt>
      <trkpt lat="50.253448002040386" lon="-4.827722003683448">
        <ele>69.829999999999998</ele>
        <time>2026-06-23T11:32:35Z</time>
      </trkpt>
      <trkpt lat="50.25341497734189" lon="-4.827621001750231">
        <ele>70.790000000000006</ele>
        <time>2026-06-23T11:32:36Z</time>
      </trkpt>
      <trkpt lat="50.253380024805665" lon="-4.82751295901835">
        <ele>71.269999999999996</ele>
        <time>2026-06-23T11:32:37Z</time>
      </trkpt>
      <trkpt lat="50.253342976793647" lon="-4.827399970963597">
        <ele>72.239999999999995</ele>
        <time>2026-06-23T11:32:38Z</time>
      </trkpt>
      <trkpt lat="50.253267958760262" lon="-4.82716997154057">
        <ele>72.239999999999995</ele>
        <time>2026-06-23T11:32:40Z</time>
      </trkpt>
      <trkpt lat="50.253233006224036" lon="-4.827062012627721">
        <ele>72.239999999999995</ele>
        <time>2026-06-23T11:32:41Z</time>
      </trkpt>
      <trkpt lat="50.253165028989315" lon="-4.826852967962623">
        <ele>71.760000000000005</ele>
        <time>2026-06-23T11:32:43Z</time>
      </trkpt>
      <trkpt lat="50.253132004290819" lon="-4.826763030141592">
        <ele>71.760000000000005</ele>
        <time>2026-06-23T11:32:44Z</time>
      </trkpt>
      <trkpt lat="50.253092022612691" lon="-4.826692035421729">
        <ele>72.239999999999995</ele>
        <time>2026-06-23T11:32:45Z</time>
      </trkpt>
      <trkpt lat="50.253055980429053" lon="-4.826627997681499">
        <ele>72.239999999999995</ele>
        <time>2026-06-23T11:32:46Z</time>
      </trkpt>
      <trkpt lat="50.253018010407686" lon="-4.826562032103539">
        <ele>72.239999999999995</ele>
        <time>2026-06-23T11:32:47Z</time>
      </trkpt>
      <trkpt lat="50.252927988767624" lon="-4.826405961066485">
        <ele>72.719999999999999</ele>
        <time>2026-06-23T11:32:49Z</time>
      </trkpt>
      <trkpt lat="50.252888007089496" lon="-4.826335972175002">
        <ele>72.719999999999999</ele>
        <time>2026-06-23T11:32:50Z</time>
      </trkpt>
      <trkpt lat="50.252881972119212" lon="-4.826323986053467">
        <ele>72.719999999999999</ele>
        <time>2026-06-23T11:32:51Z</time>
      </trkpt>
      <trkpt lat="50.252781976014376" lon="-4.826247962191701">
        <ele>72.719999999999999</ele>
        <time>2026-06-23T11:32:52Z</time>
      </trkpt>
      <trkpt lat="50.252736965194345" lon="-4.826213009655476">
        <ele>72.719999999999999</ele>
        <time>2026-06-23T11:32:53Z</time>
      </trkpt>
      <trkpt lat="50.252645015716553" lon="-4.826142014935613">
        <ele>74.640000000000001</ele>
        <time>2026-06-23T11:33:00Z</time>
      </trkpt>
      <trkpt lat="50.252579972147942" lon="-4.826135979965329">
        <ele>75.120000000000005</ele>
        <time>2026-06-23T11:33:03Z</time>
      </trkpt>
      <trkpt lat="50.25253496132791" lon="-4.826186019927263">
        <ele>75.599999999999994</ele>
        <time>2026-06-23T11:33:04Z</time>
      </trkpt>
      <trkpt lat="50.252476036548615" lon="-4.826252991333604">
        <ele>76.079999999999998</ele>
        <time>2026-06-23T11:33:05Z</time>
      </trkpt>
      <trkpt lat="50.252410992980003" lon="-4.826325997710228">
        <ele>76.560000000000002</ele>
        <time>2026-06-23T11:33:06Z</time>
      </trkpt>
      <trkpt lat="50.252337986603379" lon="-4.826409984380007">
        <ele>76.560000000000002</ele>
        <time>2026-06-23T11:33:07Z</time>
      </trkpt>
      <trkpt lat="50.252264980226755" lon="-4.826482990756631">
        <ele>76.560000000000002</ele>
        <time>2026-06-23T11:33:08Z</time>
      </trkpt>
      <trkpt lat="50.252189040184021" lon="-4.826525989919901">
        <ele>76.079999999999998</ele>
        <time>2026-06-23T11:33:09Z</time>
      </trkpt>
      <trkpt lat="50.252118967473507" lon="-4.826564965769649">
        <ele>75.599999999999994</ele>
        <time>2026-06-23T11:33:10Z</time>
      </trkpt>
      <trkpt lat="50.25201796554029" lon="-4.826621040701866">
        <ele>75.120000000000005</ele>
        <time>2026-06-23T11:33:12Z</time>
      </trkpt>
      <trkpt lat="50.251960968598723" lon="-4.82665297575295">
        <ele>74.159999999999997</ele>
        <time>2026-06-23T11:33:19Z</time>
      </trkpt>
      <trkpt lat="50.251869019120932" lon="-4.826704021543264">
        <ele>73.200000000000003</ele>
        <time>2026-06-23T11:33:22Z</time>
      </trkpt>
      <trkpt lat="50.251433998346329" lon="-4.826947012916207">
        <ele>72.239999999999995</ele>
        <time>2026-06-23T11:33:28Z</time>
      </trkpt>
      <trkpt lat="50.250562028959394" lon="-4.827473983168602">
        <ele>76.079999999999998</ele>
        <time>2026-06-23T11:33:36Z</time>
      </trkpt>
      <trkpt lat="50.249759964644909" lon="-4.828236987814307">
        <ele>79.930000000000007</ele>
        <time>2026-06-23T11:33:45Z</time>
      </trkpt>
      <trkpt lat="50.249698022380471" lon="-4.828367996960878">
        <ele>79.930000000000007</ele>
        <time>2026-06-23T11:33:46Z</time>
      </trkpt>
      <trkpt lat="50.249634990468621" lon="-4.828503029420972">
        <ele>79.930000000000007</ele>
        <time>2026-06-23T11:33:47Z</time>
      </trkpt>
      <trkpt lat="50.249368026852608" lon="-4.829070987179875">
        <ele>79.930000000000007</ele>
        <time>2026-06-23T11:33:51Z</time>
      </trkpt>
      <trkpt lat="50.249036019667983" lon="-4.829770959913731">
        <ele>78.480000000000004</ele>
        <time>2026-06-23T11:33:57Z</time>
      </trkpt>
      <trkpt lat="50.248984973877668" lon="-4.829873973503709">
        <ele>78.480000000000004</ele>
        <time>2026-06-23T11:33:58Z</time>
      </trkpt>
      <trkpt lat="50.248776013031602" lon="-4.830300025641918">
        <ele>78</ele>
        <time>2026-06-23T11:34:02Z</time>
      </trkpt>
      <trkpt lat="50.24857803247869" lon="-4.830704033374786">
        <ele>77.040000000000006</ele>
        <time>2026-06-23T11:34:06Z</time>
      </trkpt>
      <trkpt lat="50.248521035537124" lon="-4.830771004781127">
        <ele>76.560000000000002</ele>
        <time>2026-06-23T11:34:07Z</time>
      </trkpt>
      <trkpt lat="50.248482981696725" lon="-4.830808974802494">
        <ele>76.079999999999998</ele>
        <time>2026-06-23T11:34:08Z</time>
      </trkpt>
      <trkpt lat="50.248395977541804" lon="-4.830808974802494">
        <ele>76.079999999999998</ele>
        <time>2026-06-23T11:34:09Z</time>
      </trkpt>
      <trkpt lat="50.24832003749907" lon="-4.830808974802494">
        <ele>75.599999999999994</ele>
        <time>2026-06-23T11:34:10Z</time>
      </trkpt>
      <trkpt lat="50.24823697283864" lon="-4.830808974802494">
        <ele>75.599999999999994</ele>
        <time>2026-06-23T11:34:11Z</time>
      </trkpt>
      <trkpt lat="50.247969003394246" lon="-4.830808974802494">
        <ele>75.120000000000005</ele>
        <time>2026-06-23T11:34:14Z</time>
      </trkpt>
      <trkpt lat="50.24791200645268" lon="-4.83077896758914">
        <ele>75.120000000000005</ele>
        <time>2026-06-23T11:34:15Z</time>
      </trkpt>
      <trkpt lat="50.247852997854352" lon="-4.830726999789476">
        <ele>74.640000000000001</ele>
        <time>2026-06-23T11:34:16Z</time>
      </trkpt>
      <trkpt lat="50.247798012569547" lon="-4.830678971484304">
        <ele>74.159999999999997</ele>
        <time>2026-06-23T11:34:17Z</time>
      </trkpt>
      <trkpt lat="50.247764987871051" lon="-4.830624992027879">
        <ele>73.680000000000007</ele>
        <time>2026-06-23T11:34:18Z</time>
      </trkpt>
      <trkpt lat="50.247739003971219" lon="-4.830532036721706">
        <ele>73.200000000000003</ele>
        <time>2026-06-23T11:34:19Z</time>
      </trkpt>
      <trkpt lat="50.247712014243007" lon="-4.830435980111361">
        <ele>72.719999999999999</ele>
        <time>2026-06-23T11:34:20Z</time>
      </trkpt>
      <trkpt lat="50.247683012858033" lon="-4.830334978178144">
        <ele>72.239999999999995</ele>
        <time>2026-06-23T11:34:21Z</time>
      </trkpt>
      <trkpt lat="50.247650993987918" lon="-4.830221990123391">
        <ele>71.760000000000005</ele>
        <time>2026-06-23T11:34:22Z</time>
      </trkpt>
      <trkpt lat="50.247618975117803" lon="-4.830107996240258">
        <ele>71.269999999999996</ele>
        <time>2026-06-23T11:34:23Z</time>
      </trkpt>
      <trkpt lat="50.24748302064836" lon="-4.829627964645624">
        <ele>68.390000000000001</ele>
        <time>2026-06-23T11:34:27Z</time>
      </trkpt>
      <trkpt lat="50.247443038970232" lon="-4.829516988247633">
        <ele>67.909999999999997</ele>
        <time>2026-06-23T11:34:28Z</time>
      </trkpt>
      <trkpt lat="50.247395010665059" lon="-4.829492010176182">
        <ele>67.430000000000007</ele>
        <time>2026-06-23T11:34:29Z</time>
      </trkpt>
      <trkpt lat="50.247367015108466" lon="-4.829478012397885">
        <ele>66.469999999999999</ele>
        <time>2026-06-23T11:34:30Z</time>
      </trkpt>
      <trkpt lat="50.247330972924829" lon="-4.829563004896045">
        <ele>65.989999999999995</ele>
        <time>2026-06-23T11:34:31Z</time>
      </trkpt>
      <trkpt lat="50.247299959883094" lon="-4.829637017101049">
        <ele>65.030000000000001</ele>
        <time>2026-06-23T11:34:32Z</time>
      </trkpt>
      <trkpt lat="50.247260984033346" lon="-4.829728966578841">
        <ele>64.069999999999993</ele>
        <time>2026-06-23T11:34:33Z</time>
      </trkpt>
      <trkpt lat="50.247215973213315" lon="-4.829838015139103">
        <ele>63.100000000000001</ele>
        <time>2026-06-23T11:34:34Z</time>
      </trkpt>
      <trkpt lat="50.246706018224359" lon="-4.831045009195805">
        <ele>53.009999999999998</ele>
        <time>2026-06-23T11:34:44Z</time>
      </trkpt>
      <trkpt lat="50.246605016291142" lon="-4.831275008618832">
        <ele>51.090000000000003</ele>
        <time>2026-06-23T11:34:46Z</time>
      </trkpt>
      <trkpt lat="50.246307039633393" lon="-4.831698965281248">
        <ele>46.759999999999998</ele>
        <time>2026-06-23T11:34:51Z</time>
      </trkpt>
      <trkpt lat="50.246206037700176" lon="-4.831841038540006">
        <ele>45.32</ele>
        <time>2026-06-23T11:34:53Z</time>
      </trkpt>
      <trkpt lat="50.246147029101849" lon="-4.831907004117966">
        <ele>44.840000000000003</ele>
        <time>2026-06-23T11:34:54Z</time>
      </trkpt>
      <trkpt lat="50.246071005240083" lon="-4.831993002444506">
        <ele>43.880000000000003</ele>
        <time>2026-06-23T11:34:55Z</time>
      </trkpt>
      <trkpt lat="50.245900014415383" lon="-4.832185031846166">
        <ele>41.469999999999999</ele>
        <time>2026-06-23T11:34:57Z</time>
      </trkpt>
      <trkpt lat="50.245819967240095" lon="-4.832296008244157">
        <ele>40.509999999999998</ele>
        <time>2026-06-23T11:34:58Z</time>
      </trkpt>
      <trkpt lat="50.245686024427414" lon="-4.832511004060507">
        <ele>38.109999999999999</ele>
        <time>2026-06-23T11:35:00Z</time>
      </trkpt>
      <trkpt lat="50.245493995025754" lon="-4.83275500126183">
        <ele>33.780000000000001</ele>
        <time>2026-06-23T11:35:03Z</time>
      </trkpt>
      <trkpt lat="50.245402967557311" lon="-4.832782996818423">
        <ele>32.340000000000003</ele>
        <time>2026-06-23T11:35:04Z</time>
      </trkpt>
      <trkpt lat="50.245304983109236" lon="-4.832814009860158">
        <ele>30.420000000000002</ele>
        <time>2026-06-23T11:35:05Z</time>
      </trkpt>
      <trkpt lat="50.245202975347638" lon="-4.832845022901893">
        <ele>28.98</ele>
        <time>2026-06-23T11:35:06Z</time>
      </trkpt>
      <trkpt lat="50.245104990899563" lon="-4.832876035943627">
        <ele>27.530000000000001</ele>
        <time>2026-06-23T11:35:07Z</time>
      </trkpt>
      <trkpt lat="50.245009018108249" lon="-4.832905037328601">
        <ele>26.57</ele>
        <time>2026-06-23T11:35:08Z</time>
      </trkpt>
      <trkpt lat="50.244921008124948" lon="-4.832933032885194">
        <ele>25.129999999999999</ele>
        <time>2026-06-23T11:35:09Z</time>
      </trkpt>
      <trkpt lat="50.24484003894031" lon="-4.832958010956645">
        <ele>24.170000000000002</ele>
        <time>2026-06-23T11:35:10Z</time>
      </trkpt>
      <trkpt lat="50.244758985936642" lon="-4.832981983199716">
        <ele>23.210000000000001</ele>
        <time>2026-06-23T11:35:11Z</time>
      </trkpt>
      <trkpt lat="50.244641974568367" lon="-4.833019031211734">
        <ele>22.25</ele>
        <time>2026-06-23T11:35:12Z</time>
      </trkpt>
      <trkpt lat="50.244593024253845" lon="-4.833082985132933">
        <ele>21.77</ele>
        <time>2026-06-23T11:35:13Z</time>
      </trkpt>
      <trkpt lat="50.244513982906938" lon="-4.83318499289453">
        <ele>20.809999999999999</ele>
        <time>2026-06-23T11:35:14Z</time>
      </trkpt>
      <trkpt lat="50.244442988187075" lon="-4.833278032019734">
        <ele>20.32</ele>
        <time>2026-06-23T11:35:15Z</time>
      </trkpt>
      <trkpt lat="50.244366964325309" lon="-4.833378028124571">
        <ele>19.84</ele>
        <time>2026-06-23T11:35:16Z</time>
      </trkpt>
      <trkpt lat="50.243789032101631" lon="-4.83425703831017">
        <ele>14.08</ele>
        <time>2026-06-23T11:35:24Z</time>
      </trkpt>
      <trkpt lat="50.243718037381768" lon="-4.834372960031033">
        <ele>13.6</ele>
        <time>2026-06-23T11:35:25Z</time>
      </trkpt>
      <trkpt lat="50.243651987984776" lon="-4.834481002762914">
        <ele>13.119999999999999</ele>
        <time>2026-06-23T11:35:26Z</time>
      </trkpt>
      <trkpt lat="50.243586022406816" lon="-4.834555014967918">
        <ele>12.15</ele>
        <time>2026-06-23T11:35:27Z</time>
      </trkpt>
      <trkpt lat="50.243279999122024" lon="-4.834894984960556">
        <ele>10.23</ele>
        <time>2026-06-23T11:35:31Z</time>
      </trkpt>
      <trkpt lat="50.24320799857378" lon="-4.834974026307464">
        <ele>10.710000000000001</ele>
        <time>2026-06-23T11:35:32Z</time>
      </trkpt>
      <trkpt lat="50.243138009682298" lon="-4.835051978006959">
        <ele>10.710000000000001</ele>
        <time>2026-06-23T11:35:33Z</time>
      </trkpt>
      <trkpt lat="50.243026027455926" lon="-4.835177036002278">
        <ele>11.19</ele>
        <time>2026-06-23T11:35:35Z</time>
      </trkpt>
      <trkpt lat="50.242910021916032" lon="-4.835305027663708">
        <ele>12.15</ele>
        <time>2026-06-23T11:35:37Z</time>
      </trkpt>
      <trkpt lat="50.242703994736075" lon="-4.835534021258354">
        <ele>11.67</ele>
        <time>2026-06-23T11:35:40Z</time>
      </trkpt>
      <trkpt lat="50.242636017501354" lon="-4.835609961301088">
        <ele>10.710000000000001</ele>
        <time>2026-06-23T11:35:41Z</time>
      </trkpt>
      <trkpt lat="50.242577008903027" lon="-4.83567601069808">
        <ele>9.75</ele>
        <time>2026-06-23T11:35:42Z</time>
      </trkpt>
      <trkpt lat="50.242535015568137" lon="-4.835722027346492">
        <ele>9.27</ele>
        <time>2026-06-23T11:35:43Z</time>
      </trkpt>
      <trkpt lat="50.242505008354783" lon="-4.835755974054337">
        <ele>8.310000000000001</ele>
        <time>2026-06-23T11:35:44Z</time>
      </trkpt>
      <trkpt lat="50.242473995313048" lon="-4.835790004581213">
        <ele>6.87</ele>
        <time>2026-06-23T11:35:45Z</time>
      </trkpt>
      <trkpt lat="50.242442982271314" lon="-4.83582504093647">
        <ele>6.39</ele>
        <time>2026-06-23T11:35:46Z</time>
      </trkpt>
      <trkpt lat="50.242393026128411" lon="-4.835880026221275">
        <ele>5.91</ele>
        <time>2026-06-23T11:35:47Z</time>
      </trkpt>
      <trkpt lat="50.242303004488349" lon="-4.835980022326112">
        <ele>4.94</ele>
        <time>2026-06-23T11:35:48Z</time>
      </trkpt>
      <trkpt lat="50.242239972576499" lon="-4.836011035367847">
        <ele>4.46</ele>
        <time>2026-06-23T11:35:49Z</time>
      </trkpt>
      <trkpt lat="50.242080967873335" lon="-4.836050011217594">
        <ele>2.54</ele>
        <time>2026-06-23T11:35:51Z</time>
      </trkpt>
      <trkpt lat="50.242010978981853" lon="-4.836054034531117">
        <ele>2.06</ele>
        <time>2026-06-23T11:35:52Z</time>
      </trkpt>
      <trkpt lat="50.241935038939118" lon="-4.836057974025607">
        <ele>1.1</ele>
        <time>2026-06-23T11:35:53Z</time>
      </trkpt>
      <trkpt lat="50.24185398593545" lon="-4.83606300316751">
        <ele>0.62</ele>
        <time>2026-06-23T11:35:54Z</time>
      </trkpt>
      <trkpt lat="50.241773016750813" lon="-4.836067026481032">
        <ele>0.14</ele>
        <time>2026-06-23T11:35:55Z</time>
      </trkpt>
      <trkpt lat="50.241707973182201" lon="-4.836070965975523">
        <ele>0.14</ele>
        <time>2026-06-23T11:35:56Z</time>
      </trkpt>
      <trkpt lat="50.241654999554157" lon="-4.836073983460665">
        <ele>0.14</ele>
        <time>2026-06-23T11:35:57Z</time>
      </trkpt>
      <trkpt lat="50.241614012047648" lon="-4.836075995117426">
        <ele>0.14</ele>
        <time>2026-06-23T11:35:58Z</time>
      </trkpt>
      <trkpt lat="50.241581993177533" lon="-4.836078006774187">
        <ele>0.14</ele>
        <time>2026-06-23T11:35:59Z</time>
      </trkpt>
      <trkpt lat="50.241558020934463" lon="-4.836080018430948">
        <ele>0.14</ele>
        <time>2026-06-23T11:36:00Z</time>
      </trkpt>
      <trkpt lat="50.241422988474369" lon="-4.83610600233078">
        <ele>0.14</ele>
        <time>2026-06-23T11:36:01Z</time>
      </trkpt>
      <trkpt lat="50.241420976817608" lon="-4.836168028414249">
        <ele>0.62</ele>
        <time>2026-06-23T11:36:02Z</time>
      </trkpt>
      <trkpt lat="50.241418965160847" lon="-4.836270036175847">
        <ele>1.1</ele>
        <time>2026-06-23T11:36:03Z</time>
      </trkpt>
      <trkpt lat="50.241416031494737" lon="-4.836389981210232">
        <ele>1.1</ele>
        <time>2026-06-23T11:36:04Z</time>
      </trkpt>
      <trkpt lat="50.241413014009595" lon="-4.836521996185184">
        <ele>1.1</ele>
        <time>2026-06-23T11:36:05Z</time>
      </trkpt>
      <trkpt lat="50.241409996524453" lon="-4.836649987846613">
        <ele>0.14</ele>
        <time>2026-06-23T11:36:06Z</time>
      </trkpt>
      <trkpt lat="50.241406979039311" lon="-4.836779991164804">
        <ele>-0.82</ele>
        <time>2026-06-23T11:36:07Z</time>
      </trkpt>
      <trkpt lat="50.24140396155417" lon="-4.836911000311375">
        <ele>-2.27</ele>
        <time>2026-06-23T11:36:08Z</time>
      </trkpt>
      <trkpt lat="50.241390969604254" lon="-4.837056007236242">
        <ele>-3.23</ele>
        <time>2026-06-23T11:36:09Z</time>
      </trkpt>
      <trkpt lat="50.241357022896409" lon="-4.837203025817871">
        <ele>-4.19</ele>
        <time>2026-06-23T11:36:10Z</time>
      </trkpt>
      <trkpt lat="50.241313017904758" lon="-4.837362030521035">
        <ele>-4.19</ele>
        <time>2026-06-23T11:36:11Z</time>
      </trkpt>
      <trkpt lat="50.241263983771205" lon="-4.837509971112013">
        <ele>-3.23</ele>
        <time>2026-06-23T11:36:12Z</time>
      </trkpt>
      <trkpt lat="50.241220984607935" lon="-4.837637040764093">
        <ele>-2.27</ele>
        <time>2026-06-23T11:36:13Z</time>
      </trkpt>
      <trkpt lat="50.241176979616284" lon="-4.837770983576775">
        <ele>-1.79</ele>
        <time>2026-06-23T11:36:14Z</time>
      </trkpt>
      <trkpt lat="50.241107996553183" lon="-4.837916996330023">
        <ele>-0.82</ele>
        <time>2026-06-23T11:36:15Z</time>
      </trkpt>
      <trkpt lat="50.240960977971554" lon="-4.838112965226173">
        <ele>-0.82</ele>
        <time>2026-06-23T11:36:17Z</time>
      </trkpt>
      <trkpt lat="50.24088503792882" lon="-4.838214972987771">
        <ele>-0.34</ele>
        <time>2026-06-23T11:36:18Z</time>
      </trkpt>
      <trkpt lat="50.240816976875067" lon="-4.838303988799453">
        <ele>-0.34</ele>
        <time>2026-06-23T11:36:19Z</time>
      </trkpt>
      <trkpt lat="50.240744976326823" lon="-4.838400967419148">
        <ele>-0.82</ele>
        <time>2026-06-23T11:36:20Z</time>
      </trkpt>
      <trkpt lat="50.240663001313806" lon="-4.838510015979409">
        <ele>-0.82</ele>
        <time>2026-06-23T11:36:21Z</time>
      </trkpt>
      <trkpt lat="50.24032898247242" lon="-4.838956017047167">
        <ele>-1.3</ele>
        <time>2026-06-23T11:36:25Z</time>
      </trkpt>
      <trkpt lat="50.240252036601305" lon="-4.839058024808765">
        <ele>-1.3</ele>
        <time>2026-06-23T11:36:26Z</time>
      </trkpt>
      <trkpt lat="50.240176012739539" lon="-4.839160032570362">
        <ele>-0.82</ele>
        <time>2026-06-23T11:36:27Z</time>
      </trkpt>
      <trkpt lat="50.240013990551233" lon="-4.839375028386712">
        <ele>-0.82</ele>
        <time>2026-06-23T11:36:29Z</time>
      </trkpt>
      <trkpt lat="50.239680977538228" lon="-4.839819017797709">
        <ele>-1.3</ele>
        <time>2026-06-23T11:36:33Z</time>
      </trkpt>
      <trkpt lat="50.239013023674488" lon="-4.840663997456431">
        <ele>0.14</ele>
        <time>2026-06-23T11:36:40Z</time>
      </trkpt>
      <trkpt lat="50.238897018134594" lon="-4.840743038803339">
        <ele>1.1</ele>
        <time>2026-06-23T11:36:41Z</time>
      </trkpt>
      <trkpt lat="50.238169971853495" lon="-4.841238996013999">
        <ele>4.94</ele>
        <time>2026-06-23T11:36:49Z</time>
      </trkpt>
      <trkpt lat="50.238109035417438" lon="-4.84130596742034">
        <ele>5.42</ele>
        <time>2026-06-23T11:36:50Z</time>
      </trkpt>
      <trkpt lat="50.238053966313601" lon="-4.841387020424008">
        <ele>5.91</ele>
        <time>2026-06-23T11:36:52Z</time>
      </trkpt>
      <trkpt lat="50.238018007948995" lon="-4.841495985165238">
        <ele>5.91</ele>
        <time>2026-06-23T11:36:53Z</time>
      </trkpt>
      <trkpt lat="50.237977020442486" lon="-4.841658007353544">
        <ele>6.39</ele>
        <time>2026-06-23T11:36:55Z</time>
      </trkpt>
      <trkpt lat="50.237909965217113" lon="-4.842062015086412">
        <ele>7.83</ele>
        <time>2026-06-23T11:37:00Z</time>
      </trkpt>
      <trkpt lat="50.237904014065862" lon="-4.842095039784908">
        <ele>7.83</ele>
        <time>2026-06-23T11:37:01Z</time>
      </trkpt>
      <trkpt lat="50.237914994359016" lon="-4.842201992869377">
        <ele>8.310000000000001</ele>
        <time>2026-06-23T11:37:02Z</time>
      </trkpt>
      <trkpt lat="50.237956987693906" lon="-4.84244498424232">
        <ele>8.789999999999999</ele>
        <time>2026-06-23T11:37:05Z</time>
      </trkpt>
      <trkpt lat="50.237978026270866" lon="-4.842531988397241">
        <ele>8.789999999999999</ele>
        <time>2026-06-23T11:37:06Z</time>
      </trkpt>
      <trkpt lat="50.237998981028795" lon="-4.842624021694064">
        <ele>8.789999999999999</ele>
        <time>2026-06-23T11:37:07Z</time>
      </trkpt>
      <trkpt lat="50.238010967150331" lon="-4.842742038890719">
        <ele>9.27</ele>
        <time>2026-06-23T11:37:08Z</time>
      </trkpt>
      <trkpt lat="50.238010967150331" lon="-4.842848991975188">
        <ele>8.789999999999999</ele>
        <time>2026-06-23T11:37:09Z</time>
      </trkpt>
      <trkpt lat="50.238010967150331" lon="-4.842954017221928">
        <ele>9.27</ele>
        <time>2026-06-23T11:37:10Z</time>
      </trkpt>
      <trkpt lat="50.237975008785725" lon="-4.843071028590202">
        <ele>9.75</ele>
        <time>2026-06-23T11:37:11Z</time>
      </trkpt>
      <trkpt lat="50.237946007400751" lon="-4.843163983896375">
        <ele>10.23</ele>
        <time>2026-06-23T11:37:12Z</time>
      </trkpt>
      <trkpt lat="50.237917006015778" lon="-4.84325903467834">
        <ele>11.19</ele>
        <time>2026-06-23T11:37:13Z</time>
      </trkpt>
      <trkpt lat="50.237710978835821" lon="-4.843919025734067">
        <ele>15.039999999999999</ele>
        <time>2026-06-23T11:37:20Z</time>
      </trkpt>
      <trkpt lat="50.237710978835821" lon="-4.843919025734067">
        <ele>15.52</ele>
        <time>2026-06-23T11:37:21Z</time>
      </trkpt>
      <trkpt lat="50.237725982442498" lon="-4.844053974375129">
        <ele>16</ele>
        <time>2026-06-23T11:37:22Z</time>
      </trkpt>
      <trkpt lat="50.23774903267622" lon="-4.844251032918692">
        <ele>17.440000000000001</ele>
        <time>2026-06-23T11:37:25Z</time>
      </trkpt>
      <trkpt lat="50.237755989655852" lon="-4.844316998496652">
        <ele>17.920000000000002</ele>
        <time>2026-06-23T11:37:26Z</time>
      </trkpt>
      <trkpt lat="50.237785996869206" lon="-4.844572981819511">
        <ele>19.84</ele>
        <time>2026-06-23T11:37:30Z</time>
      </trkpt>
      <trkpt lat="50.237793037667871" lon="-4.844634002074599">
        <ele>20.32</ele>
        <time>2026-06-23T11:37:31Z</time>
      </trkpt>
      <trkpt lat="50.237782979384065" lon="-4.844680018723011">
        <ele>20.809999999999999</ele>
        <time>2026-06-23T11:37:32Z</time>
      </trkpt>
      <trkpt lat="50.237735034897923" lon="-4.844712959602475">
        <ele>21.289999999999999</ele>
        <time>2026-06-23T11:37:33Z</time>
      </trkpt>
      <trkpt lat="50.23768600076437" lon="-4.844746990129352">
        <ele>21.77</ele>
        <time>2026-06-23T11:37:34Z</time>
      </trkpt>
      <trkpt lat="50.237635960802436" lon="-4.844781020656228">
        <ele>21.77</ele>
        <time>2026-06-23T11:37:35Z</time>
      </trkpt>
      <trkpt lat="50.237442003563046" lon="-4.844914963468909">
        <ele>23.210000000000001</ele>
        <time>2026-06-23T11:37:38Z</time>
      </trkpt>
      <trkpt lat="50.237180991098285" lon="-4.845096012577415">
        <ele>24.649999999999999</ele>
        <time>2026-06-23T11:37:41Z</time>
      </trkpt>
      <trkpt lat="50.237016035243869" lon="-4.845210006460547">
        <ele>24.649999999999999</ele>
        <time>2026-06-23T11:37:43Z</time>
      </trkpt>
      <trkpt lat="50.236951997503638" lon="-4.845254011452198">
        <ele>24.649999999999999</ele>
        <time>2026-06-23T11:37:44Z</time>
      </trkpt>
      <trkpt lat="50.236845966428518" lon="-4.845327017828822">
        <ele>25.129999999999999</ele>
        <time>2026-06-23T11:37:46Z</time>
      </trkpt>
      <trkpt lat="50.236787963658571" lon="-4.84536699950695">
        <ele>25.129999999999999</ele>
        <time>2026-06-23T11:37:47Z</time>
      </trkpt>
      <trkpt lat="50.236734990030527" lon="-4.845403963699937">
        <ele>25.129999999999999</ele>
        <time>2026-06-23T11:37:48Z</time>
      </trkpt>
      <trkpt lat="50.236694002524018" lon="-4.84543195925653">
        <ele>25.609999999999999</ele>
        <time>2026-06-23T11:37:49Z</time>
      </trkpt>
      <trkpt lat="50.236573973670602" lon="-4.845549976453185">
        <ele>25.609999999999999</ele>
        <time>2026-06-23T11:37:50Z</time>
      </trkpt>
      <trkpt lat="50.236573973670602" lon="-4.845561040565372">
        <ele>25.609999999999999</ele>
        <time>2026-06-23T11:37:51Z</time>
      </trkpt>
      <trkpt lat="50.236591994762421" lon="-4.8457339592278">
        <ele>25.609999999999999</ele>
        <time>2026-06-23T11:37:52Z</time>
      </trkpt>
      <trkpt lat="50.236629964783788" lon="-4.845848036929965">
        <ele>26.09</ele>
        <time>2026-06-23T11:37:53Z</time>
      </trkpt>
      <trkpt lat="50.236671036109328" lon="-4.845970999449492">
        <ele>26.57</ele>
        <time>2026-06-23T11:37:54Z</time>
      </trkpt>
      <trkpt lat="50.236715041100979" lon="-4.846104020252824">
        <ele>27.050000000000001</ele>
        <time>2026-06-23T11:37:55Z</time>
      </trkpt>
      <trkpt lat="50.236810008063912" lon="-4.846386993303895">
        <ele>28.98</ele>
        <time>2026-06-23T11:37:57Z</time>
      </trkpt>
      <trkpt lat="50.236858958378434" lon="-4.846535017713904">
        <ele>29.940000000000001</ele>
        <time>2026-06-23T11:37:58Z</time>
      </trkpt>
      <trkpt lat="50.237025003880262" lon="-4.847030974924564">
        <ele>33.780000000000001</ele>
        <time>2026-06-23T11:38:02Z</time>
      </trkpt>
      <trkpt lat="50.237059034407139" lon="-4.847134994342923">
        <ele>34.740000000000002</ele>
        <time>2026-06-23T11:38:03Z</time>
      </trkpt>
      <trkpt lat="50.237089963629842" lon="-4.847228033468127">
        <ele>35.229999999999997</ele>
        <time>2026-06-23T11:38:04Z</time>
      </trkpt>
      <trkpt lat="50.237116031348705" lon="-4.847305985167623">
        <ele>35.710000000000001</ele>
        <time>2026-06-23T11:38:05Z</time>
      </trkpt>
      <trkpt lat="50.237144026905298" lon="-4.847389971837401">
        <ele>36.670000000000002</ele>
        <time>2026-06-23T11:38:06Z</time>
      </trkpt>
      <trkpt lat="50.237186020240188" lon="-4.847736982628703">
        <ele>37.630000000000003</ele>
        <time>2026-06-23T11:38:08Z</time>
      </trkpt>
      <trkpt lat="50.237169004976749" lon="-4.847838990390301">
        <ele>38.590000000000003</ele>
        <time>2026-06-23T11:38:09Z</time>
      </trkpt>
      <trkpt lat="50.23714997805655" lon="-4.847953990101814">
        <ele>39.549999999999997</ele>
        <time>2026-06-23T11:38:10Z</time>
      </trkpt>
      <trkpt lat="50.23712701164186" lon="-4.848088016733527">
        <ele>40.509999999999998</ele>
        <time>2026-06-23T11:38:11Z</time>
      </trkpt>
      <trkpt lat="50.237103961408138" lon="-4.848226988688111">
        <ele>41.469999999999999</ele>
        <time>2026-06-23T11:38:12Z</time>
      </trkpt>
      <trkpt lat="50.237079989165068" lon="-4.848367972299457">
        <ele>42.439999999999998</ele>
        <time>2026-06-23T11:38:13Z</time>
      </trkpt>
      <trkpt lat="50.237066997215152" lon="-4.848447013646364">
        <ele>43.399999999999999</ele>
        <time>2026-06-23T11:38:14Z</time>
      </trkpt>
      <trkpt lat="50.237074038013816" lon="-4.84865203499794">
        <ele>45.32</ele>
        <time>2026-06-23T11:38:15Z</time>
      </trkpt>
      <trkpt lat="50.237079989165068" lon="-4.848820008337498">
        <ele>47.240000000000002</ele>
        <time>2026-06-23T11:38:16Z</time>
      </trkpt>
      <trkpt lat="50.237085018306971" lon="-4.848986975848675">
        <ele>49.159999999999997</ele>
        <time>2026-06-23T11:38:17Z</time>
      </trkpt>
      <trkpt lat="50.237089963629842" lon="-4.849155033007264">
        <ele>51.090000000000003</ele>
        <time>2026-06-23T11:38:18Z</time>
      </trkpt>
      <trkpt lat="50.237095998600125" lon="-4.849318983033299">
        <ele>53.490000000000002</ele>
        <time>2026-06-23T11:38:19Z</time>
      </trkpt>
      <trkpt lat="50.237136986106634" lon="-4.850054997950792">
        <ele>61.18</ele>
        <time>2026-06-23T11:38:24Z</time>
      </trkpt>
      <trkpt lat="50.237200018018484" lon="-4.850359009578824">
        <ele>63.100000000000001</ele>
        <time>2026-06-23T11:38:26Z</time>
      </trkpt>
      <trkpt lat="50.237379977479577" lon="-4.850752959027886">
        <ele>65.030000000000001</ele>
        <time>2026-06-23T11:38:29Z</time>
      </trkpt>
      <trkpt lat="50.237522972747684" lon="-4.851023023948073">
        <ele>66.469999999999999</ele>
        <time>2026-06-23T11:38:31Z</time>
      </trkpt>
      <trkpt lat="50.237875012680888" lon="-4.851755015552044">
        <ele>72.239999999999995</ele>
        <time>2026-06-23T11:38:36Z</time>
      </trkpt>
      <trkpt lat="50.237934021279216" lon="-4.851918965578079">
        <ele>73.680000000000007</ele>
        <time>2026-06-23T11:38:37Z</time>
      </trkpt>
      <trkpt lat="50.238283965736628" lon="-4.853241965174675">
        <ele>86.659999999999997</ele>
        <time>2026-06-23T11:38:45Z</time>
      </trkpt>
      <trkpt lat="50.238370969891548" lon="-4.853590987622738">
        <ele>89.540000000000006</ele>
        <time>2026-06-23T11:38:47Z</time>
      </trkpt>
      <trkpt lat="50.238413969054818" lon="-4.853768013417721">
        <ele>90.980000000000004</ele>
        <time>2026-06-23T11:38:48Z</time>
      </trkpt>
      <trkpt lat="50.238455962389708" lon="-4.853934980928898">
        <ele>91.939999999999998</ele>
        <time>2026-06-23T11:38:49Z</time>
      </trkpt>
      <trkpt lat="50.238553024828434" lon="-4.85421602614224">
        <ele>93.390000000000001</ele>
        <time>2026-06-23T11:38:51Z</time>
      </trkpt>
      <trkpt lat="50.238613039255142" lon="-4.854361033067107">
        <ele>93.870000000000005</ele>
        <time>2026-06-23T11:38:52Z</time>
      </trkpt>
      <trkpt lat="50.238670958206058" lon="-4.854500005021691">
        <ele>94.349999999999994</ele>
        <time>2026-06-23T11:38:53Z</time>
      </trkpt>
      <trkpt lat="50.238725021481514" lon="-4.854630008339882">
        <ele>94.829999999999998</ele>
        <time>2026-06-23T11:38:54Z</time>
      </trkpt>
      <trkpt lat="50.238767014816403" lon="-4.85477602109313">
        <ele>94.829999999999998</ele>
        <time>2026-06-23T11:38:55Z</time>
      </trkpt>
      <trkpt lat="50.23880498483777" lon="-4.854928990826011">
        <ele>95.310000000000002</ele>
        <time>2026-06-23T11:38:56Z</time>
      </trkpt>
      <trkpt lat="50.238843038678169" lon="-4.855083972215653">
        <ele>95.310000000000002</ele>
        <time>2026-06-23T11:38:57Z</time>
      </trkpt>
      <trkpt lat="50.2392110042274" lon="-4.856285015121102">
        <ele>94.829999999999998</ele>
        <time>2026-06-23T11:39:06Z</time>
      </trkpt>
      <trkpt lat="50.239270012825727" lon="-4.8563870228827">
        <ele>94.829999999999998</ele>
        <time>2026-06-23T11:39:07Z</time>
      </trkpt>
      <trkpt lat="50.239332038909197" lon="-4.85649598762393">
        <ele>94.829999999999998</ele>
        <time>2026-06-23T11:39:08Z</time>
      </trkpt>
      <trkpt lat="50.239395992830396" lon="-4.856605958193541">
        <ele>94.829999999999998</ele>
        <time>2026-06-23T11:39:09Z</time>
      </trkpt>
      <trkpt lat="50.239456007257104" lon="-4.85671098344028">
        <ele>94.349999999999994</ele>
        <time>2026-06-23T11:39:10Z</time>
      </trkpt>
      <trkpt lat="50.239514010027051" lon="-4.856812991201878">
        <ele>94.349999999999994</ele>
        <time>2026-06-23T11:39:11Z</time>
      </trkpt>
      <trkpt lat="50.23957503028214" lon="-4.856918016448617">
        <ele>94.349999999999994</ele>
        <time>2026-06-23T11:39:12Z</time>
      </trkpt>
      <trkpt lat="50.239637978374958" lon="-4.857027987018228">
        <ele>93.870000000000005</ele>
        <time>2026-06-23T11:39:13Z</time>
      </trkpt>
      <trkpt lat="50.239703021943569" lon="-4.857144998386502">
        <ele>93.870000000000005</ele>
        <time>2026-06-23T11:39:14Z</time>
      </trkpt>
      <trkpt lat="50.239838976413012" lon="-4.857396958395839">
        <ele>92.900000000000006</ele>
        <time>2026-06-23T11:39:16Z</time>
      </trkpt>
      <trkpt lat="50.239907959476113" lon="-4.8575250338763">
        <ele>92.420000000000002</ele>
        <time>2026-06-23T11:39:17Z</time>
      </trkpt>
      <trkpt lat="50.240169977769256" lon="-4.857943039387465">
        <ele>89.540000000000006</ele>
        <time>2026-06-23T11:39:23Z</time>
      </trkpt>
      <trkpt lat="50.24022001773119" lon="-4.857994001358748">
        <ele>88.099999999999994</ele>
        <time>2026-06-23T11:39:32Z</time>
      </trkpt>
      <trkpt lat="50.240336023271084" lon="-4.858081005513668">
        <ele>87.620000000000005</ele>
        <time>2026-06-23T11:39:57Z</time>
      </trkpt>
      <trkpt lat="50.240468038246036" lon="-4.858134984970093">
        <ele>87.620000000000005</ele>
        <time>2026-06-23T11:40:07Z</time>
      </trkpt>
      <trkpt lat="50.240468038246036" lon="-4.858134984970093">
        <ele>87.620000000000005</ele>
        <time>2026-06-23T11:40:26Z</time>
      </trkpt>
      <trkpt lat="50.240468038246036" lon="-4.858134984970093">
        <ele>87.620000000000005</ele>
        <time>2026-06-23T11:41:09Z</time>
      </trkpt>
      <trkpt lat="50.240614973008633" lon="-4.858196005225182">
        <ele>87.620000000000005</ele>
        <time>2026-06-23T11:41:24Z</time>
      </trkpt>
      <trkpt lat="50.24065101519227" lon="-4.858210003003478">
        <ele>86.659999999999997</ele>
        <time>2026-06-23T11:41:25Z</time>
      </trkpt>
      <trkpt lat="50.240707006305456" lon="-4.858218971639872">
        <ele>85.689999999999998</ele>
        <time>2026-06-23T11:41:26Z</time>
      </trkpt>
      <trkpt lat="50.240983022376895" lon="-4.858260964974761">
        <ele>81.849999999999994</ele>
        <time>2026-06-23T11:41:38Z</time>
      </trkpt>
      <trkpt lat="50.240983022376895" lon="-4.858260964974761">
        <ele>79.930000000000007</ele>
        <time>2026-06-23T11:41:53Z</time>
      </trkpt>
      <trkpt lat="50.24105996824801" lon="-4.858273034915328">
        <ele>78</ele>
        <time>2026-06-23T11:42:21Z</time>
      </trkpt>
      <trkpt lat="50.24105996824801" lon="-4.858273034915328">
        <ele>77.040000000000006</ele>
        <time>2026-06-23T11:43:01Z</time>
      </trkpt>
      <trkpt lat="50.24105996824801" lon="-4.858273034915328">
        <ele>76.560000000000002</ele>
        <time>2026-06-23T11:43:45Z</time>
      </trkpt>
      <trkpt lat="50.2412089984864" lon="-4.858296001330018">
        <ele>75.599999999999994</ele>
        <time>2026-06-23T11:44:25Z</time>
      </trkpt>
      <trkpt lat="50.241234982386231" lon="-4.858290972188115">
        <ele>75.599999999999994</ele>
        <time>2026-06-23T11:44:26Z</time>
      </trkpt>
      <trkpt lat="50.241435980424285" lon="-4.858251996338368">
        <ele>75.120000000000005</ele>
        <time>2026-06-23T11:44:29Z</time>
      </trkpt>
      <trkpt lat="50.241502029821277" lon="-4.858240010216832">
        <ele>74.640000000000001</ele>
        <time>2026-06-23T11:44:30Z</time>
      </trkpt>
      <trkpt lat="50.241561038419604" lon="-4.858228024095297">
        <ele>74.640000000000001</ele>
        <time>2026-06-23T11:44:31Z</time>
      </trkpt>
      <trkpt lat="50.241619041189551" lon="-4.85821695998311">
        <ele>74.640000000000001</ele>
        <time>2026-06-23T11:44:32Z</time>
      </trkpt>
      <trkpt lat="50.241675032302737" lon="-4.858205979689956">
        <ele>74.159999999999997</ele>
        <time>2026-06-23T11:44:33Z</time>
      </trkpt>
      <trkpt lat="50.241723982617259" lon="-4.858197011053562">
        <ele>74.159999999999997</ele>
        <time>2026-06-23T11:44:34Z</time>
      </trkpt>
      <trkpt lat="50.241821967065334" lon="-4.858177984133363">
        <ele>74.159999999999997</ele>
        <time>2026-06-23T11:44:36Z</time>
      </trkpt>
      <trkpt lat="50.24187502451241" lon="-4.858168009668589">
        <ele>74.640000000000001</ele>
        <time>2026-06-23T11:44:37Z</time>
      </trkpt>
      <trkpt lat="50.241920035332441" lon="-4.858159041032195">
        <ele>75.599999999999994</ele>
        <time>2026-06-23T11:44:38Z</time>
      </trkpt>
      <trkpt lat="50.241959011182189" lon="-4.858152000233531">
        <ele>76.079999999999998</ele>
        <time>2026-06-23T11:44:39Z</time>
      </trkpt>
      <trkpt lat="50.241990024223924" lon="-4.858145965263248">
        <ele>76.079999999999998</ele>
        <time>2026-06-23T11:44:40Z</time>
      </trkpt>
      <trkpt lat="50.242044003680348" lon="-4.858135990798473">
        <ele>78</ele>
        <time>2026-06-23T11:44:50Z</time>
      </trkpt>
      <trkpt lat="50.242266040295362" lon="-4.858092991635203">
        <ele>84.730000000000004</ele>
        <time>2026-06-23T11:45:24Z</time>
      </trkpt>
      <trkpt lat="50.242266040295362" lon="-4.858092991635203">
        <ele>85.209999999999994</ele>
        <time>2026-06-23T11:45:38Z</time>
      </trkpt>
      <trkpt lat="50.242438036948442" lon="-4.858059966936708">
        <ele>84.730000000000004</ele>
        <time>2026-06-23T11:46:06Z</time>
      </trkpt>
      <trkpt lat="50.242549013346434" lon="-4.858038006350398">
        <ele>85.689999999999998</ele>
        <time>2026-06-23T11:46:16Z</time>
      </trkpt>
      <trkpt lat="50.242549013346434" lon="-4.858038006350398">
        <ele>85.209999999999994</ele>
        <time>2026-06-23T11:47:00Z</time>
      </trkpt>
      <trkpt lat="50.242830980569124" lon="-4.857984026893973">
        <ele>86.659999999999997</ele>
        <time>2026-06-23T11:47:19Z</time>
      </trkpt>
      <trkpt lat="50.242938017472625" lon="-4.857955025509">
        <ele>87.620000000000005</ele>
        <time>2026-06-23T11:47:21Z</time>
      </trkpt>
      <trkpt lat="50.24297003634274" lon="-4.857943961396813">
        <ele>87.620000000000005</ele>
        <time>2026-06-23T11:47:22Z</time>
      </trkpt>
      <trkpt lat="50.24297003634274" lon="-4.857943961396813">
        <ele>88.579999999999998</ele>
        <time>2026-06-23T11:47:33Z</time>
      </trkpt>
      <trkpt lat="50.24297003634274" lon="-4.857943961396813">
        <ele>88.099999999999994</ele>
        <time>2026-06-23T11:48:21Z</time>
      </trkpt>
      <trkpt lat="50.242986967787147" lon="-4.857938010245562">
        <ele>88.099999999999994</ele>
        <time>2026-06-23T11:48:24Z</time>
      </trkpt>
      <trkpt lat="50.243057040497661" lon="-4.857914038002491">
        <ele>88.579999999999998</ele>
        <time>2026-06-23T11:48:26Z</time>
      </trkpt>
      <trkpt lat="50.243286034092307" lon="-4.857832984998822">
        <ele>89.540000000000006</ele>
        <time>2026-06-23T11:48:31Z</time>
      </trkpt>
      <trkpt lat="50.243286034092307" lon="-4.857832984998822">
        <ele>89.540000000000006</ele>
        <time>2026-06-23T11:48:40Z</time>
      </trkpt>
      <trkpt lat="50.243286034092307" lon="-4.857832984998822">
        <ele>88.579999999999998</ele>
        <time>2026-06-23T11:49:27Z</time>
      </trkpt>
      <trkpt lat="50.243286034092307" lon="-4.857832984998822">
        <ele>88.099999999999994</ele>
        <time>2026-06-23T11:50:02Z</time>
      </trkpt>
      <trkpt lat="50.243286034092307" lon="-4.857832984998822">
        <ele>88.099999999999994</ele>
        <time>2026-06-23T11:50:17Z</time>
      </trkpt>
      <trkpt lat="50.243322998285294" lon="-4.857820998877287">
        <ele>88.099999999999994</ele>
        <time>2026-06-23T11:50:18Z</time>
      </trkpt>
      <trkpt lat="50.243374966084957" lon="-4.857801971957088">
        <ele>88.099999999999994</ele>
        <time>2026-06-23T11:50:19Z</time>
      </trkpt>
      <trkpt lat="50.24378702044487" lon="-4.857658976688981">
        <ele>89.060000000000002</ele>
        <time>2026-06-23T11:50:26Z</time>
      </trkpt>
      <trkpt lat="50.243862038478255" lon="-4.857641961425543">
        <ele>90.5</ele>
        <time>2026-06-23T11:50:37Z</time>
      </trkpt>
      <trkpt lat="50.243862038478255" lon="-4.857641961425543">
        <ele>90.5</ele>
        <time>2026-06-23T11:50:56Z</time>
      </trkpt>
      <trkpt lat="50.243920963257551" lon="-4.857630981132388">
        <ele>90.5</ele>
        <time>2026-06-23T11:51:04Z</time>
      </trkpt>
      <trkpt lat="50.24398198351264" lon="-4.857620000839233">
        <ele>90.5</ele>
        <time>2026-06-23T11:51:05Z</time>
      </trkpt>
      <trkpt lat="50.244209971278906" lon="-4.857577001675963">
        <ele>90.980000000000004</ele>
        <time>2026-06-23T11:51:10Z</time>
      </trkpt>
      <trkpt lat="50.244221035391092" lon="-4.857574990019202">
        <ele>89.060000000000002</ele>
        <time>2026-06-23T11:51:16Z</time>
      </trkpt>
      <trkpt lat="50.244316002354026" lon="-4.857557974755764">
        <ele>84.730000000000004</ele>
        <time>2026-06-23T11:51:25Z</time>
      </trkpt>
      <trkpt lat="50.24441197514534" lon="-4.857531990855932">
        <ele>82.329999999999998</ele>
        <time>2026-06-23T11:51:35Z</time>
      </trkpt>
      <trkpt lat="50.244498979300261" lon="-4.857491003349423">
        <ele>79.930000000000007</ele>
        <time>2026-06-23T11:51:52Z</time>
      </trkpt>
      <trkpt lat="50.244526974856853" lon="-4.857478011399508">
        <ele>79.930000000000007</ele>
        <time>2026-06-23T11:52:31Z</time>
      </trkpt>
      <trkpt lat="50.244565028697252" lon="-4.857460996136069">
        <ele>80.890000000000001</ele>
        <time>2026-06-23T11:52:32Z</time>
      </trkpt>
      <trkpt lat="50.24492503143847" lon="-4.857292016968131">
        <ele>87.140000000000001</ele>
        <time>2026-06-23T11:52:38Z</time>
      </trkpt>
      <trkpt lat="50.244944980368018" lon="-4.857281958684325">
        <ele>87.140000000000001</ele>
        <time>2026-06-23T11:52:49Z</time>
      </trkpt>
      <trkpt lat="50.244944980368018" lon="-4.857281958684325">
        <ele>86.659999999999997</ele>
        <time>2026-06-23T11:53:30Z</time>
      </trkpt>
      <trkpt lat="50.245082024484873" lon="-4.85722403973341">
        <ele>85.689999999999998</ele>
        <time>2026-06-23T11:53:37Z</time>
      </trkpt>
      <trkpt lat="50.245144972577691" lon="-4.857227979227901">
        <ele>85.209999999999994</ele>
        <time>2026-06-23T11:53:38Z</time>
      </trkpt>
      <trkpt lat="50.245199035853148" lon="-4.857232002541423">
        <ele>84.730000000000004</ele>
        <time>2026-06-23T11:53:39Z</time>
      </trkpt>
      <trkpt lat="50.245294002816081" lon="-4.857238959521055">
        <ele>85.209999999999994</ele>
        <time>2026-06-23T11:53:46Z</time>
      </trkpt>
      <trkpt lat="50.245294002816081" lon="-4.857238959521055">
        <ele>85.689999999999998</ele>
        <time>2026-06-23T11:54:02Z</time>
      </trkpt>
      <trkpt lat="50.245294002816081" lon="-4.857238959521055">
        <ele>85.689999999999998</ele>
        <time>2026-06-23T11:54:47Z</time>
      </trkpt>
      <trkpt lat="50.245629027485847" lon="-4.857266033068299">
        <ele>85.689999999999998</ele>
        <time>2026-06-23T11:54:53Z</time>
      </trkpt>
      <trkpt lat="50.245680995285511" lon="-4.85729000531137">
        <ele>83.769999999999996</ele>
        <time>2026-06-23T11:55:00Z</time>
      </trkpt>
      <trkpt lat="50.245747966691852" lon="-4.857320012524724">
        <ele>83.769999999999996</ele>
        <time>2026-06-23T11:55:35Z</time>
      </trkpt>
      <trkpt lat="50.245773028582335" lon="-4.857330992817879">
        <ele>84.730000000000004</ele>
        <time>2026-06-23T11:55:36Z</time>
      </trkpt>
      <trkpt lat="50.245952988043427" lon="-4.857413973659277">
        <ele>87.140000000000001</ele>
        <time>2026-06-23T11:55:43Z</time>
      </trkpt>
      <trkpt lat="50.246053989976645" lon="-4.857458984479308">
        <ele>83.769999999999996</ele>
        <time>2026-06-23T11:55:58Z</time>
      </trkpt>
      <trkpt lat="50.24614904075861" lon="-4.857520004734397">
        <ele>83.769999999999996</ele>
        <time>2026-06-23T11:56:33Z</time>
      </trkpt>
      <trkpt lat="50.246277032420039" lon="-4.857625029981136">
        <ele>82.810000000000002</ele>
        <time>2026-06-23T11:56:42Z</time>
      </trkpt>
      <trkpt lat="50.246403012424707" lon="-4.857727959752083">
        <ele>74.640000000000001</ele>
        <time>2026-06-23T11:56:54Z</time>
      </trkpt>
      <trkpt lat="50.246427990496159" lon="-4.857748998329043">
        <ele>73.200000000000003</ele>
        <time>2026-06-23T11:57:09Z</time>
      </trkpt>
      <trkpt lat="50.24649403989315" lon="-4.857803983613849">
        <ele>72.719999999999999</ele>
        <time>2026-06-23T11:57:42Z</time>
      </trkpt>
      <trkpt lat="50.246742982417345" lon="-4.857987966388464">
        <ele>73.680000000000007</ele>
        <time>2026-06-23T11:57:50Z</time>
      </trkpt>
      <trkpt lat="50.246742982417345" lon="-4.857987966388464">
        <ele>73.680000000000007</ele>
        <time>2026-06-23T11:57:51Z</time>
      </trkpt>
      <trkpt lat="50.246897963806987" lon="-4.858039012178779">
        <ele>74.159999999999997</ele>
        <time>2026-06-23T11:58:03Z</time>
      </trkpt>
      <trkpt lat="50.246979016810656" lon="-4.858067007735372">
        <ele>77.040000000000006</ele>
        <time>2026-06-23T11:58:44Z</time>
      </trkpt>
      <trkpt lat="50.247087981551886" lon="-4.858102966099978">
        <ele>78</ele>
        <time>2026-06-23T11:58:46Z</time>
      </trkpt>
      <trkpt lat="50.247387969866395" lon="-4.85812702216208">
        <ele>78.480000000000004</ele>
        <time>2026-06-23T11:58:55Z</time>
      </trkpt>
      <trkpt lat="50.247449995949864" lon="-4.858104977756739">
        <ele>75.599999999999994</ele>
        <time>2026-06-23T11:59:10Z</time>
      </trkpt>
      <trkpt lat="50.247531970962882" lon="-4.858066001906991">
        <ele>74.640000000000001</ele>
        <time>2026-06-23T11:59:27Z</time>
      </trkpt>
      <trkpt lat="50.247702039778233" lon="-4.857985032722354">
        <ele>73.200000000000003</ele>
        <time>2026-06-23T11:59:40Z</time>
      </trkpt>
      <trkpt lat="50.247702039778233" lon="-4.857985032722354">
        <ele>73.200000000000003</ele>
        <time>2026-06-23T12:00:27Z</time>
      </trkpt>
      <trkpt lat="50.247993981465697" lon="-4.857843965291977">
        <ele>74.159999999999997</ele>
        <time>2026-06-23T12:00:35Z</time>
      </trkpt>
      <trkpt lat="50.248121973127127" lon="-4.85778302885592">
        <ele>75.120000000000005</ele>
        <time>2026-06-23T12:00:39Z</time>
      </trkpt>
      <trkpt lat="50.248121973127127" lon="-4.85778302885592">
        <ele>75.599999999999994</ele>
        <time>2026-06-23T12:00:53Z</time>
      </trkpt>
      <trkpt lat="50.248121973127127" lon="-4.85778302885592">
        <ele>76.560000000000002</ele>
        <time>2026-06-23T12:01:08Z</time>
      </trkpt>
      <trkpt lat="50.248347027227283" lon="-4.857674986124039">
        <ele>78</ele>
        <time>2026-06-23T12:01:36Z</time>
      </trkpt>
      <trkpt lat="50.24855699390173" lon="-4.857603991404176">
        <ele>68.390000000000001</ele>
        <time>2026-06-23T12:01:51Z</time>
      </trkpt>
      <trkpt lat="50.248880032449961" lon="-4.857647996395826">
        <ele>65.030000000000001</ele>
        <time>2026-06-23T12:02:09Z</time>
      </trkpt>
      <trkpt lat="50.248953038826585" lon="-4.857694013044238">
        <ele>64.549999999999997</ele>
        <time>2026-06-23T12:02:23Z</time>
      </trkpt>
      <trkpt lat="50.249074995517731" lon="-4.857911020517349">
        <ele>64.069999999999993</ele>
        <time>2026-06-23T12:02:36Z</time>
      </trkpt>
      <trkpt lat="50.249074995517731" lon="-4.857911020517349">
        <ele>64.069999999999993</ele>
        <time>2026-06-23T12:02:49Z</time>
      </trkpt>
      <trkpt lat="50.249182032421231" lon="-4.858140014111996">
        <ele>64.549999999999997</ele>
        <time>2026-06-23T12:03:00Z</time>
      </trkpt>
      <trkpt lat="50.249240035191178" lon="-4.858409995213151">
        <ele>65.510000000000005</ele>
        <time>2026-06-23T12:03:18Z</time>
      </trkpt>
      <trkpt lat="50.249338019639254" lon="-4.85885901376605">
        <ele>65.510000000000005</ele>
        <time>2026-06-23T12:03:29Z</time>
      </trkpt>
      <trkpt lat="50.249688969925046" lon="-4.859635010361671">
        <ele>66.469999999999999</ele>
        <time>2026-06-23T12:03:36Z</time>
      </trkpt>
      <trkpt lat="50.250362036749721" lon="-4.861195972189307">
        <ele>68.870000000000005</ele>
        <time>2026-06-23T12:03:45Z</time>
      </trkpt>
      <trkpt lat="50.251087993383408" lon="-4.863545000553131">
        <ele>71.760000000000005</ele>
        <time>2026-06-23T12:03:57Z</time>
      </trkpt>
      <trkpt lat="50.251599038019776" lon="-4.86483003012836">
        <ele>71.269999999999996</ele>
        <time>2026-06-23T12:04:05Z</time>
      </trkpt>
      <trkpt lat="50.25162803940475" lon="-4.864902030676603">
        <ele>70.790000000000006</ele>
        <time>2026-06-23T12:04:06Z</time>
      </trkpt>
      <trkpt lat="50.251647988334298" lon="-4.864952992647886">
        <ele>70.790000000000006</ele>
        <time>2026-06-23T12:04:07Z</time>
      </trkpt>
      <trkpt lat="50.251660980284214" lon="-4.864986017346382">
        <ele>70.790000000000006</ele>
        <time>2026-06-23T12:04:08Z</time>
      </trkpt>
      <trkpt lat="50.251611024141312" lon="-4.865047037601471">
        <ele>70.790000000000006</ele>
        <time>2026-06-23T12:04:09Z</time>
      </trkpt>
      <trkpt lat="50.251570036634803" lon="-4.865056006237865">
        <ele>70.790000000000006</ele>
        <time>2026-06-23T12:04:10Z</time>
      </trkpt>
      <trkpt lat="50.25150197558105" lon="-4.86506899818778">
        <ele>70.790000000000006</ele>
        <time>2026-06-23T12:04:11Z</time>
      </trkpt>
      <trkpt lat="50.251412959769368" lon="-4.865087019279599">
        <ele>70.790000000000006</ele>
        <time>2026-06-23T12:04:12Z</time>
      </trkpt>
      <trkpt lat="50.251315981149673" lon="-4.865105962380767">
        <ele>70.790000000000006</ele>
        <time>2026-06-23T12:04:13Z</time>
      </trkpt>
      <trkpt lat="50.251225959509611" lon="-4.865115014836192">
        <ele>70.790000000000006</ele>
        <time>2026-06-23T12:04:14Z</time>
      </trkpt>
      <trkpt lat="50.251136021688581" lon="-4.865099005401135">
        <ele>70.310000000000002</ele>
        <time>2026-06-23T12:04:15Z</time>
      </trkpt>
      <trkpt lat="50.250531015917659" lon="-4.864993980154395">
        <ele>67.430000000000007</ele>
        <time>2026-06-23T12:04:23Z</time>
      </trkpt>
      <trkpt lat="50.250473013147712" lon="-4.864984005689621">
        <ele>66.469999999999999</ele>
        <time>2026-06-23T12:04:24Z</time>
      </trkpt>
      <trkpt lat="50.250392965972424" lon="-4.864969002082944">
        <ele>66.469999999999999</ele>
        <time>2026-06-23T12:04:25Z</time>
      </trkpt>
      <trkpt lat="50.250222980976105" lon="-4.865117026492953">
        <ele>65.030000000000001</ele>
        <time>2026-06-23T12:04:28Z</time>
      </trkpt>
      <trkpt lat="50.250160032883286" lon="-4.865173017606139">
        <ele>64.549999999999997</ele>
        <time>2026-06-23T12:04:29Z</time>
      </trkpt>
      <trkpt lat="50.250104041770101" lon="-4.86522096209228">
        <ele>64.549999999999997</ele>
        <time>2026-06-23T12:04:30Z</time>
      </trkpt>
      <trkpt lat="50.250050984323025" lon="-4.865267984569073">
        <ele>64.069999999999993</ele>
        <time>2026-06-23T12:04:31Z</time>
      </trkpt>
      <trkpt lat="50.249990969896317" lon="-4.865275025367737">
        <ele>64.069999999999993</ele>
        <time>2026-06-23T12:04:32Z</time>
      </trkpt>
      <trkpt lat="50.24993103928864" lon="-4.865280976518989">
        <ele>63.579999999999998</ele>
        <time>2026-06-23T12:04:33Z</time>
      </trkpt>
      <trkpt lat="50.249871024861932" lon="-4.865287011489272">
        <ele>63.579999999999998</ele>
        <time>2026-06-23T12:04:34Z</time>
      </trkpt>
      <trkpt lat="50.249824002385139" lon="-4.865292040631175">
        <ele>63.579999999999998</ele>
        <time>2026-06-23T12:04:35Z</time>
      </trkpt>
      <trkpt lat="50.249425023794174" lon="-4.865259015932679">
        <ele>63.100000000000001</ele>
        <time>2026-06-23T12:04:44Z</time>
      </trkpt>
      <trkpt lat="50.248533021658659" lon="-4.864815026521683">
        <ele>62.619999999999997</ele>
        <time>2026-06-23T12:04:55Z</time>
      </trkpt>
      <trkpt lat="50.248381979763508" lon="-4.86472399905324">
        <ele>62.140000000000001</ele>
        <time>2026-06-23T12:04:57Z</time>
      </trkpt>
      <trkpt lat="50.248311990872025" lon="-4.86468200571835">
        <ele>62.140000000000001</ele>
        <time>2026-06-23T12:04:58Z</time>
      </trkpt>
      <trkpt lat="50.248232027515769" lon="-4.864662978798151">
        <ele>61.18</ele>
        <time>2026-06-23T12:04:59Z</time>
      </trkpt>
      <trkpt lat="50.248157009482384" lon="-4.864656021818519">
        <ele>60.219999999999999</ele>
        <time>2026-06-23T12:05:00Z</time>
      </trkpt>
      <trkpt lat="50.248076962307096" lon="-4.864647975191474">
        <ele>59.259999999999998</ele>
        <time>2026-06-23T12:05:01Z</time>
      </trkpt>
      <trkpt lat="50.247507998719811" lon="-4.864590978249908">
        <ele>48.68</ele>
        <time>2026-06-23T12:05:08Z</time>
      </trkpt>
      <trkpt lat="50.247435998171568" lon="-4.864584021270275">
        <ele>46.759999999999998</ele>
        <time>2026-06-23T12:05:09Z</time>
      </trkpt>
      <trkpt lat="50.247358968481421" lon="-4.864625008776784">
        <ele>45.32</ele>
        <time>2026-06-23T12:05:10Z</time>
      </trkpt>
      <trkpt lat="50.247140033170581" lon="-4.864748977124691">
        <ele>40.990000000000002</ele>
        <time>2026-06-23T12:05:13Z</time>
      </trkpt>
      <trkpt lat="50.24700902402401" lon="-4.864823995158076">
        <ele>38.109999999999999</ele>
        <time>2026-06-23T12:05:15Z</time>
      </trkpt>
      <trkpt lat="50.246958984062076" lon="-4.864878980442882">
        <ele>37.149999999999999</ele>
        <time>2026-06-23T12:05:16Z</time>
      </trkpt>
      <trkpt lat="50.246812971308827" lon="-4.865139992907643">
        <ele>32.82</ele>
        <time>2026-06-23T12:05:20Z</time>
      </trkpt>
      <trkpt lat="50.246781958267093" lon="-4.865195984020829">
        <ele>31.859999999999999</ele>
        <time>2026-06-23T12:05:21Z</time>
      </trkpt>
      <trkpt lat="50.246753040701151" lon="-4.865247029811144">
        <ele>30.420000000000002</ele>
        <time>2026-06-23T12:05:22Z</time>
      </trkpt>
      <trkpt lat="50.246722027659416" lon="-4.865302015095949">
        <ele>29.460000000000001</ele>
        <time>2026-06-23T12:05:23Z</time>
      </trkpt>
      <trkpt lat="50.246694032102823" lon="-4.865351971238852">
        <ele>28.5</ele>
        <time>2026-06-23T12:05:24Z</time>
      </trkpt>
      <trkpt lat="50.246678022667766" lon="-4.865378038957715">
        <ele>27.530000000000001</ele>
        <time>2026-06-23T12:05:25Z</time>
      </trkpt>
      <trkpt lat="50.246655978262424" lon="-4.86538901925087">
        <ele>26.09</ele>
        <time>2026-06-23T12:05:26Z</time>
      </trkpt>
      <trkpt lat="50.246627982705832" lon="-4.865403017029166">
        <ele>25.129999999999999</ele>
        <time>2026-06-23T12:05:27Z</time>
      </trkpt>
      <trkpt lat="50.246598981320858" lon="-4.865418020635843">
        <ele>23.690000000000001</ele>
        <time>2026-06-23T12:05:28Z</time>
      </trkpt>
      <trkpt lat="50.246551958844066" lon="-4.865440987050533">
        <ele>22.73</ele>
        <time>2026-06-23T12:05:29Z</time>
      </trkpt>
      <trkpt lat="50.246518012136221" lon="-4.865407962352037">
        <ele>21.289999999999999</ele>
        <time>2026-06-23T12:05:30Z</time>
      </trkpt>
      <trkpt lat="50.246479958295822" lon="-4.86536999233067">
        <ele>20.32</ele>
        <time>2026-06-23T12:05:31Z</time>
      </trkpt>
      <trkpt lat="50.246437964960933" lon="-4.865327998995781">
        <ele>18.879999999999999</ele>
        <time>2026-06-23T12:05:32Z</time>
      </trkpt>
      <trkpt lat="50.246392032131553" lon="-4.865281982347369">
        <ele>17.920000000000002</ele>
        <time>2026-06-23T12:05:33Z</time>
      </trkpt>
      <trkpt lat="50.24634400382638" lon="-4.865234037861228">
        <ele>16.48</ele>
        <time>2026-06-23T12:05:34Z</time>
      </trkpt>
      <trkpt lat="50.246252976357937" lon="-4.865142004564405">
        <ele>14.56</ele>
        <time>2026-06-23T12:05:36Z</time>
      </trkpt>
      <trkpt lat="50.246207965537906" lon="-4.865096993744373">
        <ele>13.119999999999999</ele>
        <time>2026-06-23T12:05:37Z</time>
      </trkpt>
      <trkpt lat="50.246160021051764" lon="-4.865049971267581">
        <ele>12.15</ele>
        <time>2026-06-23T12:05:38Z</time>
      </trkpt>
      <trkpt lat="50.246101012453437" lon="-4.864990962669253">
        <ele>11.19</ele>
        <time>2026-06-23T12:05:39Z</time>
      </trkpt>
      <trkpt lat="50.246056001633406" lon="-4.864953998476267">
        <ele>10.23</ele>
        <time>2026-06-23T12:05:40Z</time>
      </trkpt>
      <trkpt lat="50.245994981378317" lon="-4.864903036504984">
        <ele>9.75</ele>
        <time>2026-06-23T12:05:41Z</time>
      </trkpt>
      <trkpt lat="50.245705973356962" lon="-4.86465903930366">
        <ele>7.35</ele>
        <time>2026-06-23T12:05:45Z</time>
      </trkpt>
      <trkpt lat="50.245632966980338" lon="-4.86457304097712">
        <ele>6.39</ele>
        <time>2026-06-23T12:05:46Z</time>
      </trkpt>
      <trkpt lat="50.245564989745617" lon="-4.864492993801832">
        <ele>5.42</ele>
        <time>2026-06-23T12:05:47Z</time>
      </trkpt>
      <trkpt lat="50.245510004460812" lon="-4.864428034052253">
        <ele>4.94</ele>
        <time>2026-06-23T12:05:48Z</time>
      </trkpt>
      <trkpt lat="50.245458958670497" lon="-4.864369025453925">
        <ele>4.46</ele>
        <time>2026-06-23T12:05:49Z</time>
      </trkpt>
      <trkpt lat="50.24540196172893" lon="-4.864300964400172">
        <ele>4.46</ele>
        <time>2026-06-23T12:05:50Z</time>
      </trkpt>
      <trkpt lat="50.245204987004399" lon="-4.864198034629226">
        <ele>2.54</ele>
        <time>2026-06-23T12:05:53Z</time>
      </trkpt>
      <trkpt lat="50.245122006163001" lon="-4.864174984395504">
        <ele>2.06</ele>
        <time>2026-06-23T12:05:54Z</time>
      </trkpt>
      <trkpt lat="50.244656978175044" lon="-4.864239022135735">
        <ele>-1.3</ele>
        <time>2026-06-23T12:05:59Z</time>
      </trkpt>
      <trkpt lat="50.244559999555349" lon="-4.864259976893663">
        <ele>-1.3</ele>
        <time>2026-06-23T12:06:00Z</time>
      </trkpt>
      <trkpt lat="50.244201002642512" lon="-4.86433801241219">
        <ele>-0.82</ele>
        <time>2026-06-23T12:06:04Z</time>
      </trkpt>
      <trkpt lat="50.244126990437508" lon="-4.864354021847248">
        <ele>0.14</ele>
        <time>2026-06-23T12:06:05Z</time>
      </trkpt>
      <trkpt lat="50.244063036516309" lon="-4.864368019625545">
        <ele>0.62</ele>
        <time>2026-06-23T12:06:06Z</time>
      </trkpt>
      <trkpt lat="50.243992041796446" lon="-4.864437002688646">
        <ele>1.1</ele>
        <time>2026-06-23T12:06:07Z</time>
      </trkpt>
      <trkpt lat="50.243915012106299" lon="-4.864512020722032">
        <ele>2.06</ele>
        <time>2026-06-23T12:06:08Z</time>
      </trkpt>
      <trkpt lat="50.243344036862254" lon="-4.865066986531019">
        <ele>9.27</ele>
        <time>2026-06-23T12:06:16Z</time>
      </trkpt>
      <trkpt lat="50.243269018828869" lon="-4.865140998736024">
        <ele>10.710000000000001</ele>
        <time>2026-06-23T12:06:17Z</time>
      </trkpt>
      <trkpt lat="50.243182014673948" lon="-4.865193972364068">
        <ele>11.67</ele>
        <time>2026-06-23T12:06:18Z</time>
      </trkpt>
      <trkpt lat="50.242486987262964" lon="-4.865622036159039">
        <ele>15.52</ele>
        <time>2026-06-23T12:06:25Z</time>
      </trkpt>
      <trkpt lat="50.241943001747131" lon="-4.865956977009773">
        <ele>17.440000000000001</ele>
        <time>2026-06-23T12:06:31Z</time>
      </trkpt>
      <trkpt lat="50.241866977885365" lon="-4.866003999486566">
        <ele>17.920000000000002</ele>
        <time>2026-06-23T12:06:32Z</time>
      </trkpt>
      <trkpt lat="50.241791037842631" lon="-4.866050016134977">
        <ele>17.920000000000002</ele>
        <time>2026-06-23T12:06:33Z</time>
      </trkpt>
      <trkpt lat="50.241633038967848" lon="-4.866146994754672">
        <ele>18.399999999999999</ele>
        <time>2026-06-23T12:06:35Z</time>
      </trkpt>
      <trkpt lat="50.241551985964179" lon="-4.866197034716606">
        <ele>18.879999999999999</ele>
        <time>2026-06-23T12:06:36Z</time>
      </trkpt>
      <trkpt lat="50.241407984867692" lon="-4.866285966709256">
        <ele>18.879999999999999</ele>
        <time>2026-06-23T12:06:38Z</time>
      </trkpt>
      <trkpt lat="50.241135992109776" lon="-4.8663579672575">
        <ele>20.32</ele>
        <time>2026-06-23T12:06:42Z</time>
      </trkpt>
      <trkpt lat="50.241067009046674" lon="-4.866364002227783">
        <ele>20.32</ele>
        <time>2026-06-23T12:06:43Z</time>
      </trkpt>
      <trkpt lat="50.241005988791585" lon="-4.866370037198067">
        <ele>20.32</ele>
        <time>2026-06-23T12:06:44Z</time>
      </trkpt>
      <trkpt lat="50.240943962708116" lon="-4.866374982520938">
        <ele>20.32</ele>
        <time>2026-06-23T12:06:45Z</time>
      </trkpt>
      <trkpt lat="50.240880008786917" lon="-4.866381017491221">
        <ele>20.32</ele>
        <time>2026-06-23T12:06:46Z</time>
      </trkpt>
      <trkpt lat="50.240813959389925" lon="-4.866386968642473">
        <ele>20.32</ele>
        <time>2026-06-23T12:06:47Z</time>
      </trkpt>
      <trkpt lat="50.240751011297107" lon="-4.866391997784376">
        <ele>20.32</ele>
        <time>2026-06-23T12:06:48Z</time>
      </trkpt>
      <trkpt lat="50.240695020183921" lon="-4.866397026926279">
        <ele>20.32</ele>
        <time>2026-06-23T12:06:49Z</time>
      </trkpt>
      <trkpt lat="50.240550013259053" lon="-4.866397026926279">
        <ele>19.84</ele>
        <time>2026-06-23T12:06:52Z</time>
      </trkpt>
      <trkpt lat="50.240506008267403" lon="-4.866384034976363">
        <ele>19.84</ele>
        <time>2026-06-23T12:06:53Z</time>
      </trkpt>
      <trkpt lat="50.240463009104133" lon="-4.866371965035796">
        <ele>19.84</ele>
        <time>2026-06-23T12:06:54Z</time>
      </trkpt>
      <trkpt lat="50.240416992455721" lon="-4.86635897308588">
        <ele>19.84</ele>
        <time>2026-06-23T12:06:55Z</time>
      </trkpt>
      <trkpt lat="50.240369969978929" lon="-4.866344975307584">
        <ele>19.84</ele>
        <time>2026-06-23T12:06:56Z</time>
      </trkpt>
      <trkpt lat="50.240323031321168" lon="-4.866331983357668">
        <ele>20.32</ele>
        <time>2026-06-23T12:06:57Z</time>
      </trkpt>
      <trkpt lat="50.240279026329517" lon="-4.866318991407752">
        <ele>20.809999999999999</ele>
        <time>2026-06-23T12:06:58Z</time>
      </trkpt>
      <trkpt lat="50.240237032994628" lon="-4.866307005286217">
        <ele>21.289999999999999</ele>
        <time>2026-06-23T12:06:59Z</time>
      </trkpt>
      <trkpt lat="50.240182969719172" lon="-4.86629200167954">
        <ele>21.77</ele>
        <time>2026-06-23T12:07:00Z</time>
      </trkpt>
      <trkpt lat="50.23998599499464" lon="-4.866127967834473">
        <ele>23.210000000000001</ele>
        <time>2026-06-23T12:07:03Z</time>
      </trkpt>
      <trkpt lat="50.239634960889816" lon="-4.865617007017136">
        <ele>23.690000000000001</ele>
        <time>2026-06-23T12:07:08Z</time>
      </trkpt>
      <trkpt lat="50.239573018625379" lon="-4.865513993427157">
        <ele>23.690000000000001</ele>
        <time>2026-06-23T12:07:09Z</time>
      </trkpt>
      <trkpt lat="50.239519039168954" lon="-4.865424977615476">
        <ele>24.170000000000002</ele>
        <time>2026-06-23T12:07:10Z</time>
      </trkpt>
      <trkpt lat="50.239472016692162" lon="-4.865348031744361">
        <ele>24.170000000000002</ele>
        <time>2026-06-23T12:07:11Z</time>
      </trkpt>
      <trkpt lat="50.239424994215369" lon="-4.865269996225834">
        <ele>24.649999999999999</ele>
        <time>2026-06-23T12:07:12Z</time>
      </trkpt>
      <trkpt lat="50.239375960081816" lon="-4.865191038697958">
        <ele>25.129999999999999</ele>
        <time>2026-06-23T12:07:13Z</time>
      </trkpt>
      <trkpt lat="50.239328015595675" lon="-4.865109985694289">
        <ele>25.129999999999999</ele>
        <time>2026-06-23T12:07:14Z</time>
      </trkpt>
      <trkpt lat="50.239251991733909" lon="-4.86504603177309">
        <ele>25.609999999999999</ele>
        <time>2026-06-23T12:07:15Z</time>
      </trkpt>
      <trkpt lat="50.239178985357285" lon="-4.864989034831524">
        <ele>25.609999999999999</ele>
        <time>2026-06-23T12:07:16Z</time>
      </trkpt>
      <trkpt lat="50.239030038937926" lon="-4.864880992099643">
        <ele>25.129999999999999</ele>
        <time>2026-06-23T12:07:18Z</time>
      </trkpt>
      <trkpt lat="50.238283965736628" lon="-4.864689968526363">
        <ele>22.25</ele>
        <time>2026-06-23T12:07:26Z</time>
      </trkpt>
      <trkpt lat="50.238192016258836" lon="-4.864667002111673">
        <ele>22.25</ele>
        <time>2026-06-23T12:07:27Z</time>
      </trkpt>
      <trkpt lat="50.238107023760676" lon="-4.864645041525364">
        <ele>22.25</ele>
        <time>2026-06-23T12:07:28Z</time>
      </trkpt>
      <trkpt lat="50.237870989367366" lon="-4.864477990195155">
        <ele>21.77</ele>
        <time>2026-06-23T12:07:31Z</time>
      </trkpt>
      <trkpt lat="50.237707961350679" lon="-4.864328959956765">
        <ele>21.289999999999999</ele>
        <time>2026-06-23T12:07:33Z</time>
      </trkpt>
      <trkpt lat="50.237627997994423" lon="-4.864256037399173">
        <ele>21.289999999999999</ele>
        <time>2026-06-23T12:07:34Z</time>
      </trkpt>
      <trkpt lat="50.237244023010135" lon="-4.863905003294349">
        <ele>21.77</ele>
        <time>2026-06-23T12:07:39Z</time>
      </trkpt>
      <trkpt lat="50.236963983625174" lon="-4.86364901997149">
        <ele>21.77</ele>
        <time>2026-06-23T12:07:43Z</time>
      </trkpt>
      <trkpt lat="50.236806990578771" lon="-4.863506024703383">
        <ele>21.289999999999999</ele>
        <time>2026-06-23T12:07:46Z</time>
      </trkpt>
      <trkpt lat="50.236742030829191" lon="-4.863480962812901">
        <ele>21.289999999999999</ele>
        <time>2026-06-23T12:07:47Z</time>
      </trkpt>
      <trkpt lat="50.236718980595469" lon="-4.863478029146791">
        <ele>20.809999999999999</ele>
        <time>2026-06-23T12:07:48Z</time>
      </trkpt>
      <trkpt lat="50.236713029444218" lon="-4.863416003063321">
        <ele>20.809999999999999</ele>
        <time>2026-06-23T12:07:58Z</time>
      </trkpt>
      <trkpt lat="50.236327964812517" lon="-4.863045020028949">
        <ele>20.32</ele>
        <time>2026-06-23T12:08:05Z</time>
      </trkpt>
      <trkpt lat="50.236178012564778" lon="-4.862722987309098">
        <ele>18.399999999999999</ele>
        <time>2026-06-23T12:08:15Z</time>
      </trkpt>
      <trkpt lat="50.236198967322707" lon="-4.862450994551182">
        <ele>16.960000000000001</ele>
        <time>2026-06-23T12:08:24Z</time>
      </trkpt>
      <trkpt lat="50.236201984807849" lon="-4.862410007044673">
        <ele>16.960000000000001</ele>
        <time>2026-06-23T12:08:25Z</time>
      </trkpt>
      <trkpt lat="50.23620299063623" lon="-4.862397015094757">
        <ele>16.960000000000001</ele>
        <time>2026-06-23T12:08:26Z</time>
      </trkpt>
      <trkpt lat="50.2362269628793" lon="-4.862529030069709">
        <ele>16</ele>
        <time>2026-06-23T12:08:35Z</time>
      </trkpt>
      <trkpt lat="50.236200978979468" lon="-4.862513020634651">
        <ele>15.52</ele>
        <time>2026-06-23T12:08:47Z</time>
      </trkpt>
      <trkpt lat="50.236209025606513" lon="-4.862498017027974">
        <ele>16</ele>
        <time>2026-06-23T12:09:47Z</time>
      </trkpt>
      <trkpt lat="50.236207013949752" lon="-4.862498017027974">
        <ele>16</ele>
        <time>2026-06-23T12:10:44Z</time>
      </trkpt>
      <trkpt lat="50.236208019778132" lon="-4.862500028684735">
        <ele>16</ele>
        <time>2026-06-23T12:11:48Z</time>
      </trkpt>
      <trkpt lat="50.236213970929384" lon="-4.862479995936155">
        <ele>16</ele>
        <time>2026-06-23T12:11:51Z</time>
      </trkpt>
      <trkpt lat="50.236198967322707" lon="-4.862545961514115">
        <ele>6.87</ele>
        <time>2026-06-23T12:16:52Z</time>
      </trkpt>
      <trkpt lat="50.236205002292991" lon="-4.862482007592917">
        <ele>13.119999999999999</ele>
        <time>2026-06-23T12:17:27Z</time>
      </trkpt>
      <trkpt lat="50.236162003129721" lon="-4.862471027299762">
        <ele>13.6</ele>
        <time>2026-06-23T12:17:36Z</time>
      </trkpt>
      <trkpt lat="50.236193016171455" lon="-4.862528024241328">
        <ele>13.119999999999999</ele>
        <time>2026-06-23T12:17:38Z</time>
      </trkpt>
      <trkpt lat="50.236188992857933" lon="-4.862571023404598">
        <ele>12.630000000000001</ele>
        <time>2026-06-23T12:17:39Z</time>
      </trkpt>
      <trkpt lat="50.236184969544411" lon="-4.862625002861023">
        <ele>12.630000000000001</ele>
        <time>2026-06-23T12:17:40Z</time>
      </trkpt>
      <trkpt lat="50.236180024221539" lon="-4.862689040601254">
        <ele>12.630000000000001</ele>
        <time>2026-06-23T12:17:41Z</time>
      </trkpt>
      <trkpt lat="50.236174995079637" lon="-4.862757017835975">
        <ele>12.630000000000001</ele>
        <time>2026-06-23T12:17:42Z</time>
      </trkpt>
      <trkpt lat="50.236170971766114" lon="-4.862822983413935">
        <ele>12.630000000000001</ele>
        <time>2026-06-23T12:17:43Z</time>
      </trkpt>
      <trkpt lat="50.236174995079637" lon="-4.862896995618939">
        <ele>12.630000000000001</ele>
        <time>2026-06-23T12:17:44Z</time>
      </trkpt>
      <trkpt lat="50.236210031434894" lon="-4.862930020317435">
        <ele>12.630000000000001</ele>
        <time>2026-06-23T12:17:45Z</time>
      </trkpt>
      <trkpt lat="50.23624699562788" lon="-4.862965978682041">
        <ele>12.630000000000001</ele>
        <time>2026-06-23T12:17:46Z</time>
      </trkpt>
      <trkpt lat="50.236283959820867" lon="-4.863002020865679">
        <ele>12.630000000000001</ele>
        <time>2026-06-23T12:17:47Z</time>
      </trkpt>
      <trkpt lat="50.236325031146407" lon="-4.863040996715426">
        <ele>12.630000000000001</ele>
        <time>2026-06-23T12:17:48Z</time>
      </trkpt>
      <trkpt lat="50.236364006996155" lon="-4.863078966736794">
        <ele>12.630000000000001</ele>
        <time>2026-06-23T12:17:49Z</time>
      </trkpt>
      <trkpt lat="50.236404994502664" lon="-4.863119032233954">
        <ele>12.630000000000001</ele>
        <time>2026-06-23T12:17:50Z</time>
      </trkpt>
      <trkpt lat="50.236653015017509" lon="-4.863358000293374">
        <ele>16</ele>
        <time>2026-06-23T12:17:57Z</time>
      </trkpt>
      <trkpt lat="50.236615967005491" lon="-4.863462019711733">
        <ele>16.48</ele>
        <time>2026-06-23T12:17:59Z</time>
      </trkpt>
      <trkpt lat="50.236593000590801" lon="-4.863457996398211">
        <ele>16.960000000000001</ele>
        <time>2026-06-23T12:18:00Z</time>
      </trkpt>
      <trkpt lat="50.236552013084292" lon="-4.863451961427927">
        <ele>17.440000000000001</ele>
        <time>2026-06-23T12:18:01Z</time>
      </trkpt>
      <trkpt lat="50.236509013921022" lon="-4.863445004448295">
        <ele>17.440000000000001</ele>
        <time>2026-06-23T12:18:02Z</time>
      </trkpt>
      <trkpt lat="50.23646199144423" lon="-4.863437041640282">
        <ele>17.920000000000002</ele>
        <time>2026-06-23T12:18:03Z</time>
      </trkpt>
      <trkpt lat="50.236410023644567" lon="-4.863428995013237">
        <ele>17.920000000000002</ele>
        <time>2026-06-23T12:18:04Z</time>
      </trkpt>
      <trkpt lat="50.236344980075955" lon="-4.863435029983521">
        <ele>18.399999999999999</ele>
        <time>2026-06-23T12:18:05Z</time>
      </trkpt>
      <trkpt lat="50.236282031983137" lon="-4.863454978913069">
        <ele>18.399999999999999</ele>
        <time>2026-06-23T12:18:06Z</time>
      </trkpt>
      <trkpt lat="50.236071981489658" lon="-4.863521028310061">
        <ele>21.289999999999999</ele>
        <time>2026-06-23T12:18:09Z</time>
      </trkpt>
      <trkpt lat="50.236010039225221" lon="-4.86358598805964">
        <ele>22.25</ele>
        <time>2026-06-23T12:18:10Z</time>
      </trkpt>
      <trkpt lat="50.235959999263287" lon="-4.863685984164476">
        <ele>22.73</ele>
        <time>2026-06-23T12:18:11Z</time>
      </trkpt>
      <trkpt lat="50.235909037292004" lon="-4.863787991926074">
        <ele>23.210000000000001</ele>
        <time>2026-06-23T12:18:12Z</time>
      </trkpt>
      <trkpt lat="50.23585899733007" lon="-4.863888993859291">
        <ele>23.210000000000001</ele>
        <time>2026-06-23T12:18:13Z</time>
      </trkpt>
      <trkpt lat="50.23525700904429" lon="-4.865171005949378">
        <ele>26.09</ele>
        <time>2026-06-23T12:18:24Z</time>
      </trkpt>
      <trkpt lat="50.235103033483028" lon="-4.865588005632162">
        <ele>26.09</ele>
        <time>2026-06-23T12:18:28Z</time>
      </trkpt>
      <trkpt lat="50.235091969370842" lon="-4.865666963160038">
        <ele>26.09</ele>
        <time>2026-06-23T12:18:29Z</time>
      </trkpt>
      <trkpt lat="50.235072020441294" lon="-4.865806018933654">
        <ele>26.09</ele>
        <time>2026-06-23T12:18:30Z</time>
      </trkpt>
      <trkpt lat="50.235076965764165" lon="-4.865833008661866">
        <ele>25.609999999999999</ele>
        <time>2026-06-23T12:18:31Z</time>
      </trkpt>
      <trkpt lat="50.235091969370842" lon="-4.865918001160026">
        <ele>25.609999999999999</ele>
        <time>2026-06-23T12:18:32Z</time>
      </trkpt>
      <trkpt lat="50.235201017931104" lon="-4.866509009152651">
        <ele>22.25</ele>
        <time>2026-06-23T12:18:38Z</time>
      </trkpt>
      <trkpt lat="50.235221972689033" lon="-4.866621997207403">
        <ele>21.77</ele>
        <time>2026-06-23T12:18:39Z</time>
      </trkpt>
      <trkpt lat="50.235195988789201" lon="-4.866707995533943">
        <ele>21.289999999999999</ele>
        <time>2026-06-23T12:18:40Z</time>
      </trkpt>
      <trkpt lat="50.23517201654613" lon="-4.8667879588902">
        <ele>20.809999999999999</ele>
        <time>2026-06-23T12:18:41Z</time>
      </trkpt>
      <trkpt lat="50.235158018767834" lon="-4.866835987195373">
        <ele>20.32</ele>
        <time>2026-06-23T12:18:42Z</time>
      </trkpt>
      <trkpt lat="50.235139997676015" lon="-4.866944029927254">
        <ele>19.359999999999999</ele>
        <time>2026-06-23T12:18:43Z</time>
      </trkpt>
      <trkpt lat="50.23512801155448" lon="-4.867012007161975">
        <ele>18.879999999999999</ele>
        <time>2026-06-23T12:18:44Z</time>
      </trkpt>
      <trkpt lat="50.235116025432944" lon="-4.867084007710218">
        <ele>17.920000000000002</ele>
        <time>2026-06-23T12:18:45Z</time>
      </trkpt>
      <trkpt lat="50.235135974362493" lon="-4.867161037400365">
        <ele>17.440000000000001</ele>
        <time>2026-06-23T12:18:46Z</time>
      </trkpt>
      <trkpt lat="50.235162964090705" lon="-4.867244018241763">
        <ele>16.960000000000001</ele>
        <time>2026-06-23T12:18:47Z</time>
      </trkpt>
      <trkpt lat="50.235191965475678" lon="-4.867336973547936">
        <ele>16</ele>
        <time>2026-06-23T12:18:48Z</time>
      </trkpt>
      <trkpt lat="50.235313000157475" lon="-4.867718014866114">
        <ele>16</ele>
        <time>2026-06-23T12:18:52Z</time>
      </trkpt>
      <trkpt lat="50.23534300737083" lon="-4.867810970172286">
        <ele>16.48</ele>
        <time>2026-06-23T12:18:53Z</time>
      </trkpt>
      <trkpt lat="50.235371002927423" lon="-4.867898980155587">
        <ele>16.960000000000001</ele>
        <time>2026-06-23T12:18:54Z</time>
      </trkpt>
      <trkpt lat="50.235398998484015" lon="-4.867987995967269">
        <ele>17.440000000000001</ele>
        <time>2026-06-23T12:18:55Z</time>
      </trkpt>
      <trkpt lat="50.235418025404215" lon="-4.868068965151906">
        <ele>17.920000000000002</ele>
        <time>2026-06-23T12:18:56Z</time>
      </trkpt>
      <trkpt lat="50.235426994040608" lon="-4.868155969306827">
        <ele>18.399999999999999</ele>
        <time>2026-06-23T12:18:57Z</time>
      </trkpt>
      <trkpt lat="50.235454989597201" lon="-4.868424022570252">
        <ele>19.359999999999999</ele>
        <time>2026-06-23T12:19:00Z</time>
      </trkpt>
      <trkpt lat="50.235464964061975" lon="-4.868519995361567">
        <ele>19.84</ele>
        <time>2026-06-23T12:19:01Z</time>
      </trkpt>
      <trkpt lat="50.23549203760922" lon="-4.868785031139851">
        <ele>20.809999999999999</ele>
        <time>2026-06-23T12:19:04Z</time>
      </trkpt>
      <trkpt lat="50.235501006245613" lon="-4.868874968960881">
        <ele>20.809999999999999</ele>
        <time>2026-06-23T12:19:05Z</time>
      </trkpt>
      <trkpt lat="50.235497988760471" lon="-4.868887960910797">
        <ele>21.289999999999999</ele>
        <time>2026-06-23T12:19:06Z</time>
      </trkpt>
      <trkpt lat="50.235487008467317" lon="-4.868948981165886">
        <ele>21.289999999999999</ele>
        <time>2026-06-23T12:19:07Z</time>
      </trkpt>
      <trkpt lat="50.235474016517401" lon="-4.869026010856032">
        <ele>21.289999999999999</ele>
        <time>2026-06-23T12:19:08Z</time>
      </trkpt>
      <trkpt lat="50.235458007082343" lon="-4.869112009182572">
        <ele>21.77</ele>
        <time>2026-06-23T12:19:09Z</time>
      </trkpt>
      <trkpt lat="50.235437974333763" lon="-4.869221979752183">
        <ele>21.77</ele>
        <time>2026-06-23T12:19:10Z</time>
      </trkpt>
      <trkpt lat="50.235418025404215" lon="-4.869330022484064">
        <ele>21.77</ele>
        <time>2026-06-23T12:19:11Z</time>
      </trkpt>
      <trkpt lat="50.235223984345794" lon="-4.870398966595531">
        <ele>25.609999999999999</ele>
        <time>2026-06-23T12:19:21Z</time>
      </trkpt>
      <trkpt lat="50.235205041244626" lon="-4.870502986013889">
        <ele>26.09</ele>
        <time>2026-06-23T12:19:22Z</time>
      </trkpt>
      <trkpt lat="50.235134968534112" lon="-4.870887966826558">
        <ele>28.02</ele>
        <time>2026-06-23T12:19:26Z</time>
      </trkpt>
      <trkpt lat="50.235091969370842" lon="-4.871308989822865">
        <ele>28.5</ele>
        <time>2026-06-23T12:19:30Z</time>
      </trkpt>
      <trkpt lat="50.235084006562829" lon="-4.87142700701952">
        <ele>28.5</ele>
        <time>2026-06-23T12:19:31Z</time>
      </trkpt>
      <trkpt lat="50.235008988529444" lon="-4.872511960566044">
        <ele>34.740000000000002</ele>
        <time>2026-06-23T12:19:41Z</time>
      </trkpt>
      <trkpt lat="50.235020974650979" lon="-4.872782025486231">
        <ele>37.149999999999999</ele>
        <time>2026-06-23T12:19:44Z</time>
      </trkpt>
      <trkpt lat="50.235023992136121" lon="-4.872871963307262">
        <ele>38.109999999999999</ele>
        <time>2026-06-23T12:19:45Z</time>
      </trkpt>
      <trkpt lat="50.235105967149138" lon="-4.873546035960317">
        <ele>40.990000000000002</ele>
        <time>2026-06-23T12:19:52Z</time>
      </trkpt>
      <trkpt lat="50.235119964927435" lon="-4.873652989044786">
        <ele>40.990000000000002</ele>
        <time>2026-06-23T12:19:53Z</time>
      </trkpt>
      <trkpt lat="50.235156007111073" lon="-4.87391802482307">
        <ele>40.509999999999998</ele>
        <time>2026-06-23T12:19:56Z</time>
      </trkpt>
      <trkpt lat="50.235165981575847" lon="-4.873990025371313">
        <ele>40.509999999999998</ele>
        <time>2026-06-23T12:19:57Z</time>
      </trkpt>
      <trkpt lat="50.235175034031272" lon="-4.874409958720207">
        <ele>41.950000000000003</ele>
        <time>2026-06-23T12:20:02Z</time>
      </trkpt>
      <trkpt lat="50.235191965475678" lon="-4.874524958431721">
        <ele>42.439999999999998</ele>
        <time>2026-06-23T12:20:03Z</time>
      </trkpt>
      <trkpt lat="50.235208980739117" lon="-4.874636018648744">
        <ele>42.920000000000002</ele>
        <time>2026-06-23T12:20:04Z</time>
      </trkpt>
      <trkpt lat="50.235224990174174" lon="-4.874740038067102">
        <ele>43.399999999999999</ele>
        <time>2026-06-23T12:20:05Z</time>
      </trkpt>
      <trkpt lat="50.235240999609232" lon="-4.87484497949481">
        <ele>43.399999999999999</ele>
        <time>2026-06-23T12:20:06Z</time>
      </trkpt>
      <trkpt lat="50.235238987952471" lon="-4.874947993084788">
        <ele>43.880000000000003</ele>
        <time>2026-06-23T12:20:07Z</time>
      </trkpt>
      <trkpt lat="50.235234964638948" lon="-4.875039020553231">
        <ele>43.880000000000003</ele>
        <time>2026-06-23T12:20:08Z</time>
      </trkpt>
      <trkpt lat="50.235231025144458" lon="-4.875120995566249">
        <ele>44.359999999999999</ele>
        <time>2026-06-23T12:20:09Z</time>
      </trkpt>
      <trkpt lat="50.235227001830935" lon="-4.875200036913157">
        <ele>44.840000000000003</ele>
        <time>2026-06-23T12:20:10Z</time>
      </trkpt>
      <trkpt lat="50.235220966860652" lon="-4.875313024967909">
        <ele>45.32</ele>
        <time>2026-06-23T12:20:11Z</time>
      </trkpt>
      <trkpt lat="50.235179979354143" lon="-4.875387037172914">
        <ele>45.799999999999997</ele>
        <time>2026-06-23T12:20:12Z</time>
      </trkpt>
      <trkpt lat="50.235136980190873" lon="-4.875464988872409">
        <ele>46.280000000000001</ele>
        <time>2026-06-23T12:20:13Z</time>
      </trkpt>
      <trkpt lat="50.235100015997887" lon="-4.875550987198949">
        <ele>46.759999999999998</ele>
        <time>2026-06-23T12:20:14Z</time>
      </trkpt>
      <trkpt lat="50.235035978257656" lon="-4.875757014378905">
        <ele>47.240000000000002</ele>
        <time>2026-06-23T12:20:16Z</time>
      </trkpt>
      <trkpt lat="50.235003959387541" lon="-4.875858016312122">
        <ele>48.200000000000003</ele>
        <time>2026-06-23T12:20:17Z</time>
      </trkpt>
      <trkpt lat="50.234903963282704" lon="-4.876176025718451">
        <ele>50.130000000000003</ele>
        <time>2026-06-23T12:20:20Z</time>
      </trkpt>
      <trkpt lat="50.234874039888382" lon="-4.876270992681384">
        <ele>51.090000000000003</ele>
        <time>2026-06-23T12:20:21Z</time>
      </trkpt>
      <trkpt lat="50.234844032675028" lon="-4.876368977129459">
        <ele>52.049999999999997</ele>
        <time>2026-06-23T12:20:22Z</time>
      </trkpt>
      <trkpt lat="50.234813019633293" lon="-4.876465033739805">
        <ele>53.009999999999998</ele>
        <time>2026-06-23T12:20:23Z</time>
      </trkpt>
      <trkpt lat="50.23478401824832" lon="-4.876560000702739">
        <ele>53.969999999999999</ele>
        <time>2026-06-23T12:20:24Z</time>
      </trkpt>
      <trkpt lat="50.234751999378204" lon="-4.876661002635956">
        <ele>54.93</ele>
        <time>2026-06-23T12:20:25Z</time>
      </trkpt>
      <trkpt lat="50.234717968851328" lon="-4.876767033711076">
        <ele>55.890000000000001</ele>
        <time>2026-06-23T12:20:26Z</time>
      </trkpt>
      <trkpt lat="50.234688967466354" lon="-4.876862000674009">
        <ele>56.859999999999999</ele>
        <time>2026-06-23T12:20:27Z</time>
      </trkpt>
      <trkpt lat="50.234660971909761" lon="-4.876950010657311">
        <ele>58.299999999999997</ele>
        <time>2026-06-23T12:20:28Z</time>
      </trkpt>
      <trkpt lat="50.234632976353168" lon="-4.877039026468992">
        <ele>59.259999999999998</ele>
        <time>2026-06-23T12:20:29Z</time>
      </trkpt>
      <trkpt lat="50.234585031867027" lon="-4.877190990373492">
        <ele>61.659999999999997</ele>
        <time>2026-06-23T12:20:31Z</time>
      </trkpt>
      <trkpt lat="50.234557958319783" lon="-4.877276988700032">
        <ele>62.619999999999997</ele>
        <time>2026-06-23T12:20:32Z</time>
      </trkpt>
      <trkpt lat="50.234530968591571" lon="-4.877373967319727">
        <ele>63.579999999999998</ele>
        <time>2026-06-23T12:20:33Z</time>
      </trkpt>
      <trkpt lat="50.234509008005261" lon="-4.877491984516382">
        <ele>64.549999999999997</ele>
        <time>2026-06-23T12:20:34Z</time>
      </trkpt>
      <trkpt lat="50.23448696359992" lon="-4.877608995884657">
        <ele>65.510000000000005</ele>
        <time>2026-06-23T12:20:35Z</time>
      </trkpt>
      <trkpt lat="50.234466008841991" lon="-4.877726007252932">
        <ele>65.989999999999995</ele>
        <time>2026-06-23T12:20:36Z</time>
      </trkpt>
      <trkpt lat="50.23444396443665" lon="-4.877843018621206">
        <ele>66.469999999999999</ele>
        <time>2026-06-23T12:20:37Z</time>
      </trkpt>
      <trkpt lat="50.234422003850341" lon="-4.877961035817862">
        <ele>67.430000000000007</ele>
        <time>2026-06-23T12:20:38Z</time>
      </trkpt>
      <trkpt lat="50.234402976930141" lon="-4.87806698307395">
        <ele>67.430000000000007</ele>
        <time>2026-06-23T12:20:39Z</time>
      </trkpt>
      <trkpt lat="50.234385039657354" lon="-4.878163961693645">
        <ele>67.909999999999997</ele>
        <time>2026-06-23T12:20:40Z</time>
      </trkpt>
      <trkpt lat="50.234366012737155" lon="-4.878263035789132">
        <ele>68.390000000000001</ele>
        <time>2026-06-23T12:20:41Z</time>
      </trkpt>
      <trkpt lat="50.234347991645336" lon="-4.878361020237207">
        <ele>69.349999999999994</ele>
        <time>2026-06-23T12:20:42Z</time>
      </trkpt>
      <trkpt lat="50.234330976381898" lon="-4.87845498137176">
        <ele>69.829999999999998</ele>
        <time>2026-06-23T12:20:43Z</time>
      </trkpt>
      <trkpt lat="50.234309015795588" lon="-4.878551959991455">
        <ele>70.310000000000002</ele>
        <time>2026-06-23T12:20:44Z</time>
      </trkpt>
      <trkpt lat="50.234253024682403" lon="-4.878759998828173">
        <ele>71.269999999999996</ele>
        <time>2026-06-23T12:20:46Z</time>
      </trkpt>
      <trkpt lat="50.23422603495419" lon="-4.87886200658977">
        <ele>71.760000000000005</ele>
        <time>2026-06-23T12:20:47Z</time>
      </trkpt>
      <trkpt lat="50.234078010544181" lon="-4.879181021824479">
        <ele>75.599999999999994</ele>
        <time>2026-06-23T12:20:51Z</time>
      </trkpt>
      <trkpt lat="50.234025036916137" lon="-4.879245981574059">
        <ele>76.560000000000002</ele>
        <time>2026-06-23T12:20:52Z</time>
      </trkpt>
      <trkpt lat="50.23396703414619" lon="-4.879317982122302">
        <ele>78</ele>
        <time>2026-06-23T12:20:53Z</time>
      </trkpt>
      <trkpt lat="50.23390500806272" lon="-4.879394005984068">
        <ele>78.969999999999999</ele>
        <time>2026-06-23T12:20:54Z</time>
      </trkpt>
      <trkpt lat="50.233830995857716" lon="-4.879443040117621">
        <ele>79.930000000000007</ele>
        <time>2026-06-23T12:20:55Z</time>
      </trkpt>
      <trkpt lat="50.233757989481091" lon="-4.879482015967369">
        <ele>80.890000000000001</ele>
        <time>2026-06-23T12:20:56Z</time>
      </trkpt>
      <trkpt lat="50.233683977276087" lon="-4.879523003473878">
        <ele>81.370000000000005</ele>
        <time>2026-06-23T12:20:57Z</time>
      </trkpt>
      <trkpt lat="50.233611976727843" lon="-4.879561979323626">
        <ele>81.849999999999994</ele>
        <time>2026-06-23T12:20:58Z</time>
      </trkpt>
      <trkpt lat="50.233545005321503" lon="-4.879598021507263">
        <ele>82.329999999999998</ele>
        <time>2026-06-23T12:20:59Z</time>
      </trkpt>
      <trkpt lat="50.233107972890139" lon="-4.879833972081542">
        <ele>86.180000000000007</ele>
        <time>2026-06-23T12:21:06Z</time>
      </trkpt>
      <trkpt lat="50.233062040060759" lon="-4.879946038126946">
        <ele>87.140000000000001</ele>
        <time>2026-06-23T12:21:07Z</time>
      </trkpt>
      <trkpt lat="50.233030021190643" lon="-4.88004201091826">
        <ele>87.620000000000005</ele>
        <time>2026-06-23T12:21:08Z</time>
      </trkpt>
      <trkpt lat="50.232933964580297" lon="-4.880235968157649">
        <ele>89.060000000000002</ele>
        <time>2026-06-23T12:21:10Z</time>
      </trkpt>
      <trkpt lat="50.232398025691509" lon="-4.881272977218032">
        <ele>92.900000000000006</ele>
        <time>2026-06-23T12:21:19Z</time>
      </trkpt>
      <trkpt lat="50.232236003503203" lon="-4.881671033799648">
        <ele>90.980000000000004</ele>
        <time>2026-06-23T12:21:22Z</time>
      </trkpt>
      <trkpt lat="50.232129972428083" lon="-4.881931040436029">
        <ele>88.579999999999998</ele>
        <time>2026-06-23T12:21:24Z</time>
      </trkpt>
      <trkpt lat="50.231899973005056" lon="-4.882494974881411">
        <ele>85.209999999999994</ele>
        <time>2026-06-23T12:21:29Z</time>
      </trkpt>
      <trkpt lat="50.231852028518915" lon="-4.882612992078066">
        <ele>84.730000000000004</ele>
        <time>2026-06-23T12:21:30Z</time>
      </trkpt>
      <trkpt lat="50.231611970812082" lon="-4.883101992309094">
        <ele>83.290000000000006</ele>
        <time>2026-06-23T12:21:35Z</time>
      </trkpt>
      <trkpt lat="50.231040995568037" lon="-4.884230028837919">
        <ele>88.099999999999994</ele>
        <time>2026-06-23T12:21:45Z</time>
      </trkpt>
      <trkpt lat="50.230795992538333" lon="-4.88475096412003">
        <ele>90.5</ele>
        <time>2026-06-23T12:21:50Z</time>
      </trkpt>
      <trkpt lat="50.230749975889921" lon="-4.884850038215518">
        <ele>91.459999999999994</ele>
        <time>2026-06-23T12:21:51Z</time>
      </trkpt>
      <trkpt lat="50.23070496506989" lon="-4.884946011006832">
        <ele>91.939999999999998</ele>
        <time>2026-06-23T12:21:52Z</time>
      </trkpt>
      <trkpt lat="50.230256030336022" lon="-4.885903978720307">
        <ele>96.269999999999996</ele>
        <time>2026-06-23T12:22:00Z</time>
      </trkpt>
      <trkpt lat="50.229670973494649" lon="-4.886993039399386">
        <ele>98.670000000000002</ele>
        <time>2026-06-23T12:22:09Z</time>
      </trkpt>
      <trkpt lat="50.229021040722728" lon="-4.888573028147221">
        <ele>102.52</ele>
        <time>2026-06-23T12:22:19Z</time>
      </trkpt>
      <trkpt lat="50.228544026613235" lon="-4.889447009190917">
        <ele>103.95999999999999</ele>
        <time>2026-06-23T12:22:25Z</time>
      </trkpt>
      <trkpt lat="50.228507984429598" lon="-4.889573995023966">
        <ele>103.95999999999999</ele>
        <time>2026-06-23T12:22:26Z</time>
      </trkpt>
      <trkpt lat="50.228514019399881" lon="-4.88969000056386">
        <ele>103.95999999999999</ele>
        <time>2026-06-23T12:22:27Z</time>
      </trkpt>
      <trkpt lat="50.228519970551133" lon="-4.889812963083386">
        <ele>104.44</ele>
        <time>2026-06-23T12:22:28Z</time>
      </trkpt>
      <trkpt lat="50.228526005521417" lon="-4.889941960573196">
        <ele>104.44</ele>
        <time>2026-06-23T12:22:29Z</time>
      </trkpt>
      <trkpt lat="50.228546038269997" lon="-4.890357032418251">
        <ele>104.44</ele>
        <time>2026-06-23T12:22:32Z</time>
      </trkpt>
      <trkpt lat="50.22853396832943" lon="-4.890450993552804">
        <ele>104.44</ele>
        <time>2026-06-23T12:22:33Z</time>
      </trkpt>
      <trkpt lat="50.228505972772837" lon="-4.890517964959145">
        <ele>104.44</ele>
        <time>2026-06-23T12:22:34Z</time>
      </trkpt>
      <trkpt lat="50.228470014408231" lon="-4.890574039891362">
        <ele>104.44</ele>
        <time>2026-06-23T12:22:35Z</time>
      </trkpt>
      <trkpt lat="50.228415029123425" lon="-4.890594994649291">
        <ele>104.44</ele>
        <time>2026-06-23T12:22:36Z</time>
      </trkpt>
      <trkpt lat="50.22791001945734" lon="-4.890790963545442">
        <ele>105.40000000000001</ele>
        <time>2026-06-23T12:22:41Z</time>
      </trkpt>
      <trkpt lat="50.227809017524123" lon="-4.890831029042602">
        <ele>105.88</ele>
        <time>2026-06-23T12:22:42Z</time>
      </trkpt>
      <trkpt lat="50.227702986449003" lon="-4.890886014327407">
        <ele>105.88</ele>
        <time>2026-06-23T12:22:43Z</time>
      </trkpt>
      <trkpt lat="50.22763098590076" lon="-4.891026997938752">
        <ele>105.88</ele>
        <time>2026-06-23T12:22:44Z</time>
      </trkpt>
      <trkpt lat="50.227549010887742" lon="-4.891184996813536">
        <ele>105.88</ele>
        <time>2026-06-23T12:22:45Z</time>
      </trkpt>
      <trkpt lat="50.227461000904441" lon="-4.891356993466616">
        <ele>105.88</ele>
        <time>2026-06-23T12:22:46Z</time>
      </trkpt>
      <trkpt lat="50.227263020351529" lon="-4.891851022839546">
        <ele>105.40000000000001</ele>
        <time>2026-06-23T12:22:49Z</time>
      </trkpt>
      <trkpt lat="50.22724399343133" lon="-4.891992006450892">
        <ele>104.92</ele>
        <time>2026-06-23T12:22:50Z</time>
      </trkpt>
      <trkpt lat="50.227196970954537" lon="-4.892339017242193">
        <ele>104.44</ele>
        <time>2026-06-23T12:22:53Z</time>
      </trkpt>
      <trkpt lat="50.227055987343192" lon="-4.893387006595731">
        <ele>103</ele>
        <time>2026-06-23T12:23:01Z</time>
      </trkpt>
      <trkpt lat="50.22687803953886" lon="-4.894350003451109">
        <ele>103.95999999999999</ele>
        <time>2026-06-23T12:23:08Z</time>
      </trkpt>
      <trkpt lat="50.226824982091784" lon="-4.894940005615354">
        <ele>103</ele>
        <time>2026-06-23T12:23:14Z</time>
      </trkpt>
      <trkpt lat="50.226833028718829" lon="-4.895072020590305">
        <ele>102.52</ele>
        <time>2026-06-23T12:23:15Z</time>
      </trkpt>
      <trkpt lat="50.226861024275422" lon="-4.895572001114488">
        <ele>102.04000000000001</ele>
        <time>2026-06-23T12:23:18Z</time>
      </trkpt>
      <trkpt lat="50.226908968761563" lon="-4.896410023793578">
        <ele>101.56</ele>
        <time>2026-06-23T12:23:23Z</time>
      </trkpt>
      <trkpt lat="50.226995972916484" lon="-4.897036990150809">
        <ele>101.08</ele>
        <time>2026-06-23T12:23:27Z</time>
      </trkpt>
      <trkpt lat="50.226999996230006" lon="-4.89718702621758">
        <ele>100.59999999999999</ele>
        <time>2026-06-23T12:23:28Z</time>
      </trkpt>
      <trkpt lat="50.226993961259723" lon="-4.89733999595046">
        <ele>100.59999999999999</ele>
        <time>2026-06-23T12:23:29Z</time>
      </trkpt>
      <trkpt lat="50.226961020380259" lon="-4.898185981437564">
        <ele>100.59999999999999</ele>
        <time>2026-06-23T12:23:35Z</time>
      </trkpt>
      <trkpt lat="50.2270089648664" lon="-4.898274997249246">
        <ele>100.11</ele>
        <time>2026-06-23T12:23:36Z</time>
      </trkpt>
      <trkpt lat="50.22705296985805" lon="-4.898354038596153">
        <ele>100.11</ele>
        <time>2026-06-23T12:23:37Z</time>
      </trkpt>
      <trkpt lat="50.227103009819984" lon="-4.898426961153746">
        <ele>100.11</ele>
        <time>2026-06-23T12:23:38Z</time>
      </trkpt>
      <trkpt lat="50.227194959297776" lon="-4.898465014994144">
        <ele>100.11</ele>
        <time>2026-06-23T12:23:39Z</time>
      </trkpt>
      <trkpt lat="50.227298978716135" lon="-4.898507008329034">
        <ele>100.11</ele>
        <time>2026-06-23T12:23:40Z</time>
      </trkpt>
      <trkpt lat="50.227486984804273" lon="-4.898584960028529">
        <ele>99.150000000000006</ele>
        <time>2026-06-23T12:23:42Z</time>
      </trkpt>
      <trkpt lat="50.227568037807941" lon="-4.898624019697309">
        <ele>99.150000000000006</ele>
        <time>2026-06-23T12:23:43Z</time>
      </trkpt>
      <trkpt lat="50.227628974243999" lon="-4.89871202968061">
        <ele>98.670000000000002</ele>
        <time>2026-06-23T12:23:44Z</time>
      </trkpt>
      <trkpt lat="50.227682031691074" lon="-4.898786963894963">
        <ele>98.670000000000002</ele>
        <time>2026-06-23T12:23:45Z</time>
      </trkpt>
      <trkpt lat="50.227712038904428" lon="-4.89890699274838">
        <ele>98.670000000000002</ele>
        <time>2026-06-23T12:23:46Z</time>
      </trkpt>
      <trkpt lat="50.227712038904428" lon="-4.899028027430177">
        <ele>98.670000000000002</ele>
        <time>2026-06-23T12:23:47Z</time>
      </trkpt>
      <trkpt lat="50.227712038904428" lon="-4.899161970242858">
        <ele>99.150000000000006</ele>
        <time>2026-06-23T12:23:48Z</time>
      </trkpt>
      <trkpt lat="50.227712038904428" lon="-4.899313012138009">
        <ele>99.150000000000006</ele>
        <time>2026-06-23T12:23:49Z</time>
      </trkpt>
      <trkpt lat="50.227850005030632" lon="-4.900767020881176">
        <ele>98.670000000000002</ele>
        <time>2026-06-23T12:23:58Z</time>
      </trkpt>
      <trkpt lat="50.227862996980548" lon="-4.90086299367249">
        <ele>99.150000000000006</ele>
        <time>2026-06-23T12:23:59Z</time>
      </trkpt>
      <trkpt lat="50.227798037230968" lon="-4.901383006945252">
        <ele>99.629999999999995</ele>
        <time>2026-06-23T12:24:05Z</time>
      </trkpt>
      <trkpt lat="50.227821003645658" lon="-4.901505969464779">
        <ele>99.629999999999995</ele>
        <time>2026-06-23T12:24:06Z</time>
      </trkpt>
      <trkpt lat="50.227853022515774" lon="-4.901668997481465">
        <ele>99.629999999999995</ele>
        <time>2026-06-23T12:24:07Z</time>
      </trkpt>
      <trkpt lat="50.227887975051999" lon="-4.901846023276448">
        <ele>100.11</ele>
        <time>2026-06-23T12:24:08Z</time>
      </trkpt>
      <trkpt lat="50.227920999750495" lon="-4.902020031586289">
        <ele>100.11</ele>
        <time>2026-06-23T12:24:09Z</time>
      </trkpt>
      <trkpt lat="50.227944971993566" lon="-4.902204014360905">
        <ele>100.11</ele>
        <time>2026-06-23T12:24:10Z</time>
      </trkpt>
      <trkpt lat="50.22793198004365" lon="-4.902396965771914">
        <ele>99.629999999999995</ele>
        <time>2026-06-23T12:24:11Z</time>
      </trkpt>
      <trkpt lat="50.227917982265353" lon="-4.902605004608631">
        <ele>99.150000000000006</ele>
        <time>2026-06-23T12:24:12Z</time>
      </trkpt>
      <trkpt lat="50.227713966742158" lon="-4.904111986979842">
        <ele>97.230000000000004</ele>
        <time>2026-06-23T12:24:19Z</time>
      </trkpt>
      <trkpt lat="50.227670967578888" lon="-4.904290018603206">
        <ele>96.75</ele>
        <time>2026-06-23T12:24:20Z</time>
      </trkpt>
      <trkpt lat="50.227594021707773" lon="-4.904424967244268">
        <ele>96.269999999999996</ele>
        <time>2026-06-23T12:24:21Z</time>
      </trkpt>
      <trkpt lat="50.227497965097427" lon="-4.904494034126401">
        <ele>96.269999999999996</ele>
        <time>2026-06-23T12:24:22Z</time>
      </trkpt>
      <trkpt lat="50.227391012012959" lon="-4.904569974169135">
        <ele>95.790000000000006</ele>
        <time>2026-06-23T12:24:23Z</time>
      </trkpt>
      <trkpt lat="50.227271988987923" lon="-4.904654966667295">
        <ele>95.790000000000006</ele>
        <time>2026-06-23T12:24:24Z</time>
      </trkpt>
      <trkpt lat="50.227147014811635" lon="-4.904744988307357">
        <ele>95.790000000000006</ele>
        <time>2026-06-23T12:24:25Z</time>
      </trkpt>
      <trkpt lat="50.227023968473077" lon="-4.904854036867619">
        <ele>96.269999999999996</ele>
        <time>2026-06-23T12:24:26Z</time>
      </trkpt>
      <trkpt lat="50.226919027045369" lon="-4.905027961358428">
        <ele>96.75</ele>
        <time>2026-06-23T12:24:27Z</time>
      </trkpt>
      <trkpt lat="50.226809978485107" lon="-4.905211022123694">
        <ele>97.230000000000004</ele>
        <time>2026-06-23T12:24:28Z</time>
      </trkpt>
      <trkpt lat="50.225713038817048" lon="-4.906870974227786">
        <ele>98.670000000000002</ele>
        <time>2026-06-23T12:24:37Z</time>
      </trkpt>
      <trkpt lat="50.225189002230763" lon="-4.908455992117524">
        <ele>96.75</ele>
        <time>2026-06-23T12:24:44Z</time>
      </trkpt>
      <trkpt lat="50.224761022254825" lon="-4.910417022183538">
        <ele>94.829999999999998</ele>
        <time>2026-06-23T12:24:53Z</time>
      </trkpt>
      <trkpt lat="50.224360032007098" lon="-4.912561029195786">
        <ele>94.349999999999994</ele>
        <time>2026-06-23T12:25:02Z</time>
      </trkpt>
      <trkpt lat="50.224044034257531" lon="-4.914342015981674">
        <ele>89.540000000000006</ele>
        <time>2026-06-23T12:25:11Z</time>
      </trkpt>
      <trkpt lat="50.223715966567397" lon="-4.915506010875106">
        <ele>85.689999999999998</ele>
        <time>2026-06-23T12:25:21Z</time>
      </trkpt>
      <trkpt lat="50.223280023783445" lon="-4.916503038257361">
        <ele>80.409999999999997</ele>
        <time>2026-06-23T12:25:32Z</time>
      </trkpt>
      <trkpt lat="50.222810972481966" lon="-4.917463017627597">
        <ele>75.599999999999994</ele>
        <time>2026-06-23T12:25:42Z</time>
      </trkpt>
      <trkpt lat="50.222578961402178" lon="-4.91807296872139">
        <ele>71.760000000000005</ele>
        <time>2026-06-23T12:25:48Z</time>
      </trkpt>
      <trkpt lat="50.22219599224627" lon="-4.918730026111007">
        <ele>66.469999999999999</ele>
        <time>2026-06-23T12:25:55Z</time>
      </trkpt>
      <trkpt lat="50.222140001133084" lon="-4.918830022215843">
        <ele>65.030000000000001</ele>
        <time>2026-06-23T12:25:56Z</time>
      </trkpt>
      <trkpt lat="50.222085015848279" lon="-4.91893102414906">
        <ele>64.069999999999993</ele>
        <time>2026-06-23T12:25:57Z</time>
      </trkpt>
      <trkpt lat="50.221762983128428" lon="-4.919523959979415">
        <ele>61.18</ele>
        <time>2026-06-23T12:26:03Z</time>
      </trkpt>
      <trkpt lat="50.221703974530101" lon="-4.919642983004451">
        <ele>61.18</ele>
        <time>2026-06-23T12:26:04Z</time>
      </trkpt>
      <trkpt lat="50.221629040315747" lon="-4.919698974117637">
        <ele>60.700000000000003</ele>
        <time>2026-06-23T12:26:05Z</time>
      </trkpt>
      <trkpt lat="50.220868969336152" lon="-4.920308003202081">
        <ele>58.299999999999997</ele>
        <time>2026-06-23T12:26:13Z</time>
      </trkpt>
      <trkpt lat="50.220695966854692" lon="-4.920528028160334">
        <ele>56.859999999999999</ele>
        <time>2026-06-23T12:26:15Z</time>
      </trkpt>
      <trkpt lat="50.220274021849036" lon="-4.921173015609384">
        <ele>51.090000000000003</ele>
        <time>2026-06-23T12:26:21Z</time>
      </trkpt>
      <trkpt lat="50.220228005200624" lon="-4.921264965087175">
        <ele>50.130000000000003</ele>
        <time>2026-06-23T12:26:22Z</time>
      </trkpt>
      <trkpt lat="50.220118034631014" lon="-4.921484990045428">
        <ele>48.68</ele>
        <time>2026-06-23T12:26:24Z</time>
      </trkpt>
      <trkpt lat="50.220019966363907" lon="-4.921734016388655">
        <ele>47.240000000000002</ele>
        <time>2026-06-23T12:26:26Z</time>
      </trkpt>
      <trkpt lat="50.22000596858561" lon="-4.921842981129885">
        <ele>46.759999999999998</ele>
        <time>2026-06-23T12:26:27Z</time>
      </trkpt>
      <trkpt lat="50.219990964978933" lon="-4.921951023861766">
        <ele>46.759999999999998</ele>
        <time>2026-06-23T12:26:28Z</time>
      </trkpt>
      <trkpt lat="50.21996296942234" lon="-4.922165013849735">
        <ele>45.799999999999997</ele>
        <time>2026-06-23T12:26:30Z</time>
      </trkpt>
      <trkpt lat="50.219949977472425" lon="-4.922262998297811">
        <ele>45.32</ele>
        <time>2026-06-23T12:26:31Z</time>
      </trkpt>
      <trkpt lat="50.219931034371257" lon="-4.922336004674435">
        <ele>44.840000000000003</ele>
        <time>2026-06-23T12:26:32Z</time>
      </trkpt>
      <trkpt lat="50.219903038814664" lon="-4.922404987737536">
        <ele>44.840000000000003</ele>
        <time>2026-06-23T12:26:33Z</time>
      </trkpt>
      <trkpt lat="50.21987303160131" lon="-4.922475982457399">
        <ele>44.359999999999999</ele>
        <time>2026-06-23T12:26:34Z</time>
      </trkpt>
      <trkpt lat="50.219844030216336" lon="-4.922547983005643">
        <ele>44.359999999999999</ele>
        <time>2026-06-23T12:26:35Z</time>
      </trkpt>
      <trkpt lat="50.219778986647725" lon="-4.922683015465736">
        <ele>44.359999999999999</ele>
        <time>2026-06-23T12:26:37Z</time>
      </trkpt>
      <trkpt lat="50.219730036333203" lon="-4.922732971608639">
        <ele>43.880000000000003</ele>
        <time>2026-06-23T12:26:38Z</time>
      </trkpt>
      <trkpt lat="50.219671027734876" lon="-4.922775970771909">
        <ele>43.880000000000003</ele>
        <time>2026-06-23T12:26:39Z</time>
      </trkpt>
      <trkpt lat="50.219612019136548" lon="-4.922775970771909">
        <ele>43.399999999999999</ele>
        <time>2026-06-23T12:26:40Z</time>
      </trkpt>
      <trkpt lat="50.219550998881459" lon="-4.922775970771909">
        <ele>43.880000000000003</ele>
        <time>2026-06-23T12:26:41Z</time>
      </trkpt>
      <trkpt lat="50.219483021646738" lon="-4.922775970771909">
        <ele>43.880000000000003</ele>
        <time>2026-06-23T12:26:42Z</time>
      </trkpt>
      <trkpt lat="50.219414960592985" lon="-4.922775970771909">
        <ele>43.880000000000003</ele>
        <time>2026-06-23T12:26:43Z</time>
      </trkpt>
      <trkpt lat="50.219351006671786" lon="-4.922775970771909">
        <ele>44.359999999999999</ele>
        <time>2026-06-23T12:26:44Z</time>
      </trkpt>
      <trkpt lat="50.21916501224041" lon="-4.922806983813644">
        <ele>45.32</ele>
        <time>2026-06-23T12:26:47Z</time>
      </trkpt>
      <trkpt lat="50.219112038612366" lon="-4.922825004905462">
        <ele>45.799999999999997</ele>
        <time>2026-06-23T12:26:48Z</time>
      </trkpt>
      <trkpt lat="50.219057975336909" lon="-4.922843025997281">
        <ele>45.799999999999997</ele>
        <time>2026-06-23T12:26:49Z</time>
      </trkpt>
      <trkpt lat="50.218919003382325" lon="-4.922900022938848">
        <ele>46.280000000000001</ele>
        <time>2026-06-23T12:26:51Z</time>
      </trkpt>
      <trkpt lat="50.218700990080833" lon="-4.923147959634662">
        <ele>47.719999999999999</ele>
        <time>2026-06-23T12:26:55Z</time>
      </trkpt>
      <trkpt lat="50.218625972047448" lon="-4.923266982659698">
        <ele>48.200000000000003</ele>
        <time>2026-06-23T12:26:57Z</time>
      </trkpt>
      <trkpt lat="50.218592025339603" lon="-4.923320962116122">
        <ele>48.200000000000003</ele>
        <time>2026-06-23T12:26:58Z</time>
      </trkpt>
      <trkpt lat="50.218570986762643" lon="-4.923405032604933">
        <ele>48.200000000000003</ele>
        <time>2026-06-23T12:26:59Z</time>
      </trkpt>
      <trkpt lat="50.218570986762643" lon="-4.92348700761795">
        <ele>48.68</ele>
        <time>2026-06-23T12:27:00Z</time>
      </trkpt>
      <trkpt lat="50.218570986762643" lon="-4.923584992066026">
        <ele>49.159999999999997</ele>
        <time>2026-06-23T12:27:01Z</time>
      </trkpt>
      <trkpt lat="50.218570986762643" lon="-4.923698985949159">
        <ele>49.159999999999997</ele>
        <time>2026-06-23T12:27:02Z</time>
      </trkpt>
      <trkpt lat="50.218570986762643" lon="-4.923825971782208">
        <ele>49.159999999999997</ele>
        <time>2026-06-23T12:27:03Z</time>
      </trkpt>
      <trkpt lat="50.218570986762643" lon="-4.923953963443637">
        <ele>48.68</ele>
        <time>2026-06-23T12:27:04Z</time>
      </trkpt>
      <trkpt lat="50.218683974817395" lon="-4.925379976630211">
        <ele>48.68</ele>
        <time>2026-06-23T12:27:14Z</time>
      </trkpt>
      <trkpt lat="50.21888698451221" lon="-4.926596023142338">
        <ele>55.409999999999997</ele>
        <time>2026-06-23T12:27:23Z</time>
      </trkpt>
      <trkpt lat="50.218879021704197" lon="-4.9267309717834">
        <ele>55.409999999999997</ele>
        <time>2026-06-23T12:27:24Z</time>
      </trkpt>
      <trkpt lat="50.218863012269139" lon="-4.927013022825122">
        <ele>55.409999999999997</ele>
        <time>2026-06-23T12:27:26Z</time>
      </trkpt>
      <trkpt lat="50.218770978972316" lon="-4.928639028221369">
        <ele>57.82</ele>
        <time>2026-06-23T12:27:37Z</time>
      </trkpt>
      <trkpt lat="50.218754969537258" lon="-4.92881597019732">
        <ele>58.299999999999997</ele>
        <time>2026-06-23T12:27:38Z</time>
      </trkpt>
      <trkpt lat="50.218401001766324" lon="-4.93074900470674">
        <ele>60.700000000000003</ele>
        <time>2026-06-23T12:27:48Z</time>
      </trkpt>
      <trkpt lat="50.218054996803403" lon="-4.932576008141041">
        <ele>58.299999999999997</ele>
        <time>2026-06-23T12:27:57Z</time>
      </trkpt>
      <trkpt lat="50.217788033187389" lon="-4.933965979143977">
        <ele>52.530000000000001</ele>
        <time>2026-06-23T12:28:05Z</time>
      </trkpt>
      <trkpt lat="50.217736987397075" lon="-4.934114003553987">
        <ele>52.049999999999997</ele>
        <time>2026-06-23T12:28:06Z</time>
      </trkpt>
      <trkpt lat="50.217687031254172" lon="-4.934261022135615">
        <ele>51.090000000000003</ele>
        <time>2026-06-23T12:28:07Z</time>
      </trkpt>
      <trkpt lat="50.217634979635477" lon="-4.934410974383354">
        <ele>50.130000000000003</ele>
        <time>2026-06-23T12:28:08Z</time>
      </trkpt>
      <trkpt lat="50.217589968815446" lon="-4.934541983529925">
        <ele>49.649999999999999</ele>
        <time>2026-06-23T12:28:09Z</time>
      </trkpt>
      <trkpt lat="50.217556022107601" lon="-4.934643991291523">
        <ele>49.159999999999997</ele>
        <time>2026-06-23T12:28:10Z</time>
      </trkpt>
      <trkpt lat="50.217527020722628" lon="-4.934727977961302">
        <ele>48.68</ele>
        <time>2026-06-23T12:28:11Z</time>
      </trkpt>
      <trkpt lat="50.217512017115951" lon="-4.934822022914887">
        <ele>47.719999999999999</ele>
        <time>2026-06-23T12:28:12Z</time>
      </trkpt>
      <trkpt lat="50.217501958832145" lon="-4.934912966564298">
        <ele>47.240000000000002</ele>
        <time>2026-06-23T12:28:13Z</time>
      </trkpt>
      <trkpt lat="50.21749097853899" lon="-4.935014974325895">
        <ele>46.280000000000001</ele>
        <time>2026-06-23T12:28:14Z</time>
      </trkpt>
      <trkpt lat="50.217475974932313" lon="-4.935156963765621">
        <ele>45.32</ele>
        <time>2026-06-23T12:28:15Z</time>
      </trkpt>
      <trkpt lat="50.217445967718959" lon="-4.935207003727555">
        <ele>43.880000000000003</ele>
        <time>2026-06-23T12:28:16Z</time>
      </trkpt>
      <trkpt lat="50.217396011576056" lon="-4.935285961255431">
        <ele>42.439999999999998</ele>
        <time>2026-06-23T12:28:17Z</time>
      </trkpt>
      <trkpt lat="50.217261984944344" lon="-4.935501040890813">
        <ele>39.549999999999997</ele>
        <time>2026-06-23T12:28:19Z</time>
      </trkpt>
      <trkpt lat="50.217158971354365" lon="-4.935567006468773">
        <ele>36.670000000000002</ele>
        <time>2026-06-23T12:28:21Z</time>
      </trkpt>
      <trkpt lat="50.216960990801454" lon="-4.935693992301822">
        <ele>33.780000000000001</ele>
        <time>2026-06-23T12:28:23Z</time>
      </trkpt>
      <trkpt lat="50.216827969998121" lon="-4.935693992301822">
        <ele>30.420000000000002</ele>
        <time>2026-06-23T12:28:25Z</time>
      </trkpt>
      <trkpt lat="50.216747000813484" lon="-4.935693992301822">
        <ele>28.5</ele>
        <time>2026-06-23T12:28:26Z</time>
      </trkpt>
      <trkpt lat="50.216665025800467" lon="-4.935693992301822">
        <ele>26.57</ele>
        <time>2026-06-23T12:28:27Z</time>
      </trkpt>
      <trkpt lat="50.216591013595462" lon="-4.935693992301822">
        <ele>24.649999999999999</ele>
        <time>2026-06-23T12:28:28Z</time>
      </trkpt>
      <trkpt lat="50.216529993340373" lon="-4.935693992301822">
        <ele>22.73</ele>
        <time>2026-06-23T12:28:29Z</time>
      </trkpt>
      <trkpt lat="50.216471990570426" lon="-4.935693992301822">
        <ele>20.809999999999999</ele>
        <time>2026-06-23T12:28:30Z</time>
      </trkpt>
      <trkpt lat="50.21641599945724" lon="-4.935693992301822">
        <ele>19.359999999999999</ele>
        <time>2026-06-23T12:28:31Z</time>
      </trkpt>
      <trkpt lat="50.216357996687293" lon="-4.935693992301822">
        <ele>17.440000000000001</ele>
        <time>2026-06-23T12:28:32Z</time>
      </trkpt>
      <trkpt lat="50.216252971440554" lon="-4.935693992301822">
        <ele>16</ele>
        <time>2026-06-23T12:28:33Z</time>
      </trkpt>
      <trkpt lat="50.216234028339386" lon="-4.935735985636711">
        <ele>14.56</ele>
        <time>2026-06-23T12:28:34Z</time>
      </trkpt>
      <trkpt lat="50.216191029176116" lon="-4.935828018933535">
        <ele>13.119999999999999</ele>
        <time>2026-06-23T12:28:35Z</time>
      </trkpt>
      <trkpt lat="50.216150041669607" lon="-4.935915023088455">
        <ele>11.67</ele>
        <time>2026-06-23T12:28:36Z</time>
      </trkpt>
      <trkpt lat="50.21611399948597" lon="-4.93599196895957">
        <ele>10.710000000000001</ele>
        <time>2026-06-23T12:28:37Z</time>
      </trkpt>
      <trkpt lat="50.216080974787474" lon="-4.936063969507814">
        <ele>9.27</ele>
        <time>2026-06-23T12:28:38Z</time>
      </trkpt>
      <trkpt lat="50.21604803390801" lon="-4.936134964227676">
        <ele>8.310000000000001</ele>
        <time>2026-06-23T12:28:39Z</time>
      </trkpt>
      <trkpt lat="50.216018026694655" lon="-4.936199001967907">
        <ele>6.87</ele>
        <time>2026-06-23T12:28:40Z</time>
      </trkpt>
      <trkpt lat="50.215952983126044" lon="-4.936337973922491">
        <ele>3.5</ele>
        <time>2026-06-23T12:28:43Z</time>
      </trkpt>
      <trkpt lat="50.215973015874624" lon="-4.936445010825992">
        <ele>2.06</ele>
        <time>2026-06-23T12:28:44Z</time>
      </trkpt>
      <trkpt lat="50.215987013652921" lon="-4.936523968353868">
        <ele>0.62</ele>
        <time>2026-06-23T12:28:45Z</time>
      </trkpt>
      <trkpt lat="50.21600503474474" lon="-4.936625976115465">
        <ele>-0.82</ele>
        <time>2026-06-23T12:28:46Z</time>
      </trkpt>
      <trkpt lat="50.216026995331049" lon="-4.93674399331212">
        <ele>-2.27</ele>
        <time>2026-06-23T12:28:47Z</time>
      </trkpt>
      <trkpt lat="50.216054990887642" lon="-4.936981033533812">
        <ele>-4.67</ele>
        <time>2026-06-23T12:28:49Z</time>
      </trkpt>
      <trkpt lat="50.21607200615108" lon="-4.937155963853002">
        <ele>-7.07</ele>
        <time>2026-06-23T12:28:51Z</time>
      </trkpt>
      <trkpt lat="50.216063037514687" lon="-4.937466010451317">
        <ele>-8.51</ele>
        <time>2026-06-23T12:28:54Z</time>
      </trkpt>
      <trkpt lat="50.216053985059261" lon="-4.93755997158587">
        <ele>-9</ele>
        <time>2026-06-23T12:28:55Z</time>
      </trkpt>
      <trkpt lat="50.216046022251248" lon="-4.937650999054313">
        <ele>-9.48</ele>
        <time>2026-06-23T12:28:56Z</time>
      </trkpt>
      <trkpt lat="50.216023977845907" lon="-4.937897007912397">
        <ele>-11.4</ele>
        <time>2026-06-23T12:28:59Z</time>
      </trkpt>
      <trkpt lat="50.216019032523036" lon="-4.937949981540442">
        <ele>-11.880000000000001</ele>
        <time>2026-06-23T12:29:00Z</time>
      </trkpt>
      <trkpt lat="50.216015009209514" lon="-4.937992980703712">
        <ele>-12.359999999999999</ele>
        <time>2026-06-23T12:29:01Z</time>
      </trkpt>
      <trkpt lat="50.216058008372784" lon="-4.938165983185172">
        <ele>-12.359999999999999</ele>
        <time>2026-06-23T12:29:02Z</time>
      </trkpt>
      <trkpt lat="50.216090027242899" lon="-4.938147040084004">
        <ele>-12.84</ele>
        <time>2026-06-23T12:29:03Z</time>
      </trkpt>
      <trkpt lat="50.216132020577788" lon="-4.938120972365141">
        <ele>-13.32</ele>
        <time>2026-06-23T12:29:04Z</time>
      </trkpt>
      <trkpt lat="50.216187005862594" lon="-4.938087025657296">
        <ele>-13.32</ele>
        <time>2026-06-23T12:29:05Z</time>
      </trkpt>
      <trkpt lat="50.216249031946063" lon="-4.938048971816897">
        <ele>-12.84</ele>
        <time>2026-06-23T12:29:06Z</time>
      </trkpt>
      <trkpt lat="50.216296976432204" lon="-4.938037991523743">
        <ele>-11.880000000000001</ele>
        <time>2026-06-23T12:29:07Z</time>
      </trkpt>
      <trkpt lat="50.21635196171701" lon="-4.938049977645278">
        <ele>-10.92</ele>
        <time>2026-06-23T12:29:08Z</time>
      </trkpt>
      <trkpt lat="50.216417005285621" lon="-4.938064981251955">
        <ele>-10.44</ele>
        <time>2026-06-23T12:29:09Z</time>
      </trkpt>
      <trkpt lat="50.216489005833864" lon="-4.938080990687013">
        <ele>-9.960000000000001</ele>
        <time>2026-06-23T12:29:10Z</time>
      </trkpt>
      <trkpt lat="50.216678017750382" lon="-4.938123989850283">
        <ele>-8.029999999999999</ele>
        <time>2026-06-23T12:29:13Z</time>
      </trkpt>
      <trkpt lat="50.216839034110308" lon="-4.938161037862301">
        <ele>-7.55</ele>
        <time>2026-06-23T12:29:16Z</time>
      </trkpt>
      <trkpt lat="50.216990998014808" lon="-4.938194984570146">
        <ele>-6.59</ele>
        <time>2026-06-23T12:29:19Z</time>
      </trkpt>
      <trkpt lat="50.217032991349697" lon="-4.93820495903492">
        <ele>-5.63</ele>
        <time>2026-06-23T12:29:20Z</time>
      </trkpt>
      <trkpt lat="50.217053024098277" lon="-4.938208982348442">
        <ele>-3.23</ele>
        <time>2026-06-23T12:29:21Z</time>
      </trkpt>
      <trkpt lat="50.217053024098277" lon="-4.938208982348442">
        <ele>1.58</ele>
        <time>2026-06-23T12:29:35Z</time>
      </trkpt>
      <trkpt lat="50.217075990512967" lon="-4.938215017318726">
        <ele>4.46</ele>
        <time>2026-06-23T12:29:47Z</time>
      </trkpt>
      <trkpt lat="50.217075990512967" lon="-4.938215017318726">
        <ele>9.75</ele>
        <time>2026-06-23T12:30:01Z</time>
      </trkpt>
      <trkpt lat="50.217237006872892" lon="-4.938277965411544">
        <ele>14.56</ele>
        <time>2026-06-23T12:30:32Z</time>
      </trkpt>
      <trkpt lat="50.217285035178065" lon="-4.938408974558115">
        <ele>18.399999999999999</ele>
        <time>2026-06-23T12:30:34Z</time>
      </trkpt>
      <trkpt lat="50.217287968844175" lon="-4.938484998419881">
        <ele>20.809999999999999</ele>
        <time>2026-06-23T12:30:35Z</time>
      </trkpt>
      <trkpt lat="50.217290986329317" lon="-4.938583988696337">
        <ele>22.73</ele>
        <time>2026-06-23T12:30:36Z</time>
      </trkpt>
      <trkpt lat="50.21729601547122" lon="-4.938701000064611">
        <ele>24.170000000000002</ele>
        <time>2026-06-23T12:30:37Z</time>
      </trkpt>
      <trkpt lat="50.217300960794091" lon="-4.938837038353086">
        <ele>25.609999999999999</ele>
        <time>2026-06-23T12:30:38Z</time>
      </trkpt>
      <trkpt lat="50.217304984107614" lon="-4.938954971730709">
        <ele>26.57</ele>
        <time>2026-06-23T12:30:39Z</time>
      </trkpt>
      <trkpt lat="50.217294003814459" lon="-4.939279016107321">
        <ele>28.5</ele>
        <time>2026-06-23T12:30:41Z</time>
      </trkpt>
      <trkpt lat="50.217284029349685" lon="-4.939599959179759">
        <ele>30.899999999999999</ele>
        <time>2026-06-23T12:30:43Z</time>
      </trkpt>
      <trkpt lat="50.217279000207782" lon="-4.939743038266897">
        <ele>31.859999999999999</ele>
        <time>2026-06-23T12:30:44Z</time>
      </trkpt>
      <trkpt lat="50.217270031571388" lon="-4.940006984397769">
        <ele>35.710000000000001</ele>
        <time>2026-06-23T12:30:46Z</time>
      </trkpt>
      <trkpt lat="50.217256033793092" lon="-4.940307978540659">
        <ele>39.07</ele>
        <time>2026-06-23T12:30:48Z</time>
      </trkpt>
      <trkpt lat="50.217234995216131" lon="-4.940474024042487">
        <ele>41.469999999999999</ele>
        <time>2026-06-23T12:30:49Z</time>
      </trkpt>
      <trkpt lat="50.21716701798141" lon="-4.94099697098136">
        <ele>46.280000000000001</ele>
        <time>2026-06-23T12:30:52Z</time>
      </trkpt>
      <trkpt lat="50.217144973576069" lon="-4.94116896763444">
        <ele>48.200000000000003</ele>
        <time>2026-06-23T12:30:53Z</time>
      </trkpt>
      <trkpt lat="50.217126030474901" lon="-4.941316992044449">
        <ele>49.649999999999999</ele>
        <time>2026-06-23T12:30:54Z</time>
      </trkpt>
      <trkpt lat="50.217111026868224" lon="-4.941452024504542">
        <ele>51.090000000000003</ele>
        <time>2026-06-23T12:30:55Z</time>
      </trkpt>
      <trkpt lat="50.217108009383082" lon="-4.941570041701198">
        <ele>53.009999999999998</ele>
        <time>2026-06-23T12:30:56Z</time>
      </trkpt>
      <trkpt lat="50.217102980241179" lon="-4.941787971183658">
        <ele>55.890000000000001</ele>
        <time>2026-06-23T12:30:58Z</time>
      </trkpt>
      <trkpt lat="50.217100968584418" lon="-4.941886961460114">
        <ele>57.340000000000003</ele>
        <time>2026-06-23T12:30:59Z</time>
      </trkpt>
      <trkpt lat="50.217070961371064" lon="-4.943094039335847">
        <ele>71.269999999999996</ele>
        <time>2026-06-23T12:31:08Z</time>
      </trkpt>
      <trkpt lat="50.217054029926658" lon="-4.943792000412941">
        <ele>74.640000000000001</ele>
        <time>2026-06-23T12:31:14Z</time>
      </trkpt>
      <trkpt lat="50.217053024098277" lon="-4.943861989304423">
        <ele>75.120000000000005</ele>
        <time>2026-06-23T12:31:15Z</time>
      </trkpt>
      <trkpt lat="50.216996027156711" lon="-4.944120990112424">
        <ele>76.560000000000002</ele>
        <time>2026-06-23T12:31:20Z</time>
      </trkpt>
      <trkpt lat="50.216928971931338" lon="-4.944168012589216">
        <ele>76.560000000000002</ele>
        <time>2026-06-23T12:31:21Z</time>
      </trkpt>
      <trkpt lat="50.216858983039856" lon="-4.944217968732119">
        <ele>77.519999999999996</ele>
        <time>2026-06-23T12:31:22Z</time>
      </trkpt>
      <trkpt lat="50.21602900698781" lon="-4.944881983101368">
        <ele>83.769999999999996</ele>
        <time>2026-06-23T12:31:30Z</time>
      </trkpt>
      <trkpt lat="50.214640963822603" lon="-4.946373961865902">
        <ele>87.140000000000001</ele>
        <time>2026-06-23T12:31:41Z</time>
      </trkpt>
      <trkpt lat="50.213096011430025" lon="-4.947996027767658">
        <ele>80.890000000000001</ele>
        <time>2026-06-23T12:31:51Z</time>
      </trkpt>
      <trkpt lat="50.211700005456805" lon="-4.949684981256723">
        <ele>77.519999999999996</ele>
        <time>2026-06-23T12:32:00Z</time>
      </trkpt>
      <trkpt lat="50.211309995502234" lon="-4.950209017843008">
        <ele>78.480000000000004</ele>
        <time>2026-06-23T12:32:03Z</time>
      </trkpt>
      <trkpt lat="50.211206981912255" lon="-4.950346983969212">
        <ele>78.969999999999999</ele>
        <time>2026-06-23T12:32:04Z</time>
      </trkpt>
      <trkpt lat="50.211150990799069" lon="-4.950523003935814">
        <ele>78.969999999999999</ele>
        <time>2026-06-23T12:32:05Z</time>
      </trkpt>
      <trkpt lat="50.211116960272193" lon="-4.950721990317106">
        <ele>79.450000000000003</ele>
        <time>2026-06-23T12:32:06Z</time>
      </trkpt>
      <trkpt lat="50.211099022999406" lon="-4.950941009446979">
        <ele>78.969999999999999</ele>
        <time>2026-06-23T12:32:07Z</time>
      </trkpt>
      <trkpt lat="50.211082007735968" lon="-4.951143013313413">
        <ele>78.969999999999999</ele>
        <time>2026-06-23T12:32:08Z</time>
      </trkpt>
      <trkpt lat="50.211024004966021" lon="-4.951318027451634">
        <ele>78.480000000000004</ele>
        <time>2026-06-23T12:32:09Z</time>
      </trkpt>
      <trkpt lat="50.210946975275874" lon="-4.951450964435935">
        <ele>78.480000000000004</ele>
        <time>2026-06-23T12:32:10Z</time>
      </trkpt>
      <trkpt lat="50.210839016363025" lon="-4.951558001339436">
        <ele>78</ele>
        <time>2026-06-23T12:32:11Z</time>
      </trkpt>
      <trkpt lat="50.210714964196086" lon="-4.951681969687343">
        <ele>78</ele>
        <time>2026-06-23T12:32:12Z</time>
      </trkpt>
      <trkpt lat="50.209623975679278" lon="-4.952649995684624">
        <ele>73.200000000000003</ele>
        <time>2026-06-23T12:32:20Z</time>
      </trkpt>
      <trkpt lat="50.208385968580842" lon="-4.953838968649507">
        <ele>64.549999999999997</ele>
        <time>2026-06-23T12:32:29Z</time>
      </trkpt>
      <trkpt lat="50.207417020574212" lon="-4.954689983278513">
        <ele>57.82</ele>
        <time>2026-06-23T12:32:36Z</time>
      </trkpt>
      <trkpt lat="50.20730696618557" lon="-4.954861979931593">
        <ele>56.859999999999999</ele>
        <time>2026-06-23T12:32:37Z</time>
      </trkpt>
      <trkpt lat="50.207190038636327" lon="-4.955046968534589">
        <ele>55.890000000000001</ele>
        <time>2026-06-23T12:32:38Z</time>
      </trkpt>
      <trkpt lat="50.207080990076065" lon="-4.955270010977984">
        <ele>55.409999999999997</ele>
        <time>2026-06-23T12:32:39Z</time>
      </trkpt>
      <trkpt lat="50.206979988142848" lon="-4.955523982644081">
        <ele>54.450000000000003</ele>
        <time>2026-06-23T12:32:40Z</time>
      </trkpt>
      <trkpt lat="50.206750994548202" lon="-4.956034021452069">
        <ele>53.969999999999999</ele>
        <time>2026-06-23T12:32:42Z</time>
      </trkpt>
      <trkpt lat="50.20661897957325" lon="-4.956278018653393">
        <ele>53.969999999999999</ele>
        <time>2026-06-23T12:32:43Z</time>
      </trkpt>
      <trkpt lat="50.20560703240335" lon="-4.958082977682352">
        <ele>64.549999999999997</ele>
        <time>2026-06-23T12:32:51Z</time>
      </trkpt>
      <trkpt lat="50.204459968954325" lon="-4.959607981145382">
        <ele>69.829999999999998</ele>
        <time>2026-06-23T12:32:59Z</time>
      </trkpt>
      <trkpt lat="50.203892011195421" lon="-4.960611965507269">
        <ele>69.829999999999998</ele>
        <time>2026-06-23T12:33:03Z</time>
      </trkpt>
      <trkpt lat="50.203779023140669" lon="-4.960903991013765">
        <ele>69.829999999999998</ele>
        <time>2026-06-23T12:33:04Z</time>
      </trkpt>
      <trkpt lat="50.203062035143375" lon="-4.963360978290439">
        <ele>77.040000000000006</ele>
        <time>2026-06-23T12:33:12Z</time>
      </trkpt>
      <trkpt lat="50.202483013272285" lon="-4.965370036661625">
        <ele>81.370000000000005</ele>
        <time>2026-06-23T12:33:19Z</time>
      </trkpt>
      <trkpt lat="50.201521022245288" lon="-4.96770397759974">
        <ele>80.409999999999997</ele>
        <time>2026-06-23T12:33:27Z</time>
      </trkpt>
      <trkpt lat="50.200708983466029" lon="-4.969191011041403">
        <ele>81.370000000000005</ele>
        <time>2026-06-23T12:33:34Z</time>
      </trkpt>
      <trkpt lat="50.200330037623644" lon="-4.969743965193629">
        <ele>80.890000000000001</ele>
        <time>2026-06-23T12:33:37Z</time>
      </trkpt>
      <trkpt lat="50.20017497241497" lon="-4.969864999875426">
        <ele>80.409999999999997</ele>
        <time>2026-06-23T12:33:38Z</time>
      </trkpt>
      <trkpt lat="50.20002200268209" lon="-4.969975976273418">
        <ele>79.930000000000007</ele>
        <time>2026-06-23T12:33:39Z</time>
      </trkpt>
      <trkpt lat="50.199864003807306" lon="-4.970047976821661">
        <ele>79.450000000000003</ele>
        <time>2026-06-23T12:33:40Z</time>
      </trkpt>
      <trkpt lat="50.199706004932523" lon="-4.970119977369905">
        <ele>78.969999999999999</ele>
        <time>2026-06-23T12:33:41Z</time>
      </trkpt>
      <trkpt lat="50.199416996911168" lon="-4.970277976244688">
        <ele>78.480000000000004</ele>
        <time>2026-06-23T12:33:43Z</time>
      </trkpt>
      <trkpt lat="50.199289005249739" lon="-4.970381995663047">
        <ele>78</ele>
        <time>2026-06-23T12:33:44Z</time>
      </trkpt>
      <trkpt lat="50.199161013588309" lon="-4.970509987324476">
        <ele>77.519999999999996</ele>
        <time>2026-06-23T12:33:45Z</time>
      </trkpt>
      <trkpt lat="50.199036039412022" lon="-4.970671003684402">
        <ele>77.040000000000006</ele>
        <time>2026-06-23T12:33:46Z</time>
      </trkpt>
      <trkpt lat="50.19890402443707" lon="-4.970851968973875">
        <ele>77.040000000000006</ele>
        <time>2026-06-23T12:33:47Z</time>
      </trkpt>
      <trkpt lat="50.198773015290499" lon="-4.971037041395903">
        <ele>76.560000000000002</ele>
        <time>2026-06-23T12:33:48Z</time>
      </trkpt>
      <trkpt lat="50.198658015578985" lon="-4.971230998635292">
        <ele>76.079999999999998</ele>
        <time>2026-06-23T12:33:49Z</time>
      </trkpt>
      <trkpt lat="50.198263982310891" lon="-4.97189300134778">
        <ele>74.640000000000001</ele>
        <time>2026-06-23T12:33:53Z</time>
      </trkpt>
      <trkpt lat="50.198171027004719" lon="-4.972049994394183">
        <ele>74.640000000000001</ele>
        <time>2026-06-23T12:33:54Z</time>
      </trkpt>
      <trkpt lat="50.198076982051134" lon="-4.972208999097347">
        <ele>74.159999999999997</ele>
        <time>2026-06-23T12:33:55Z</time>
      </trkpt>
      <trkpt lat="50.197781017050147" lon="-4.972638990730047">
        <ele>72.239999999999995</ele>
        <time>2026-06-23T12:33:58Z</time>
      </trkpt>
      <trkpt lat="50.197670962661505" lon="-4.972734041512013">
        <ele>71.269999999999996</ele>
        <time>2026-06-23T12:33:59Z</time>
      </trkpt>
      <trkpt lat="50.197478011250496" lon="-4.97290100902319">
        <ele>69.349999999999994</ele>
        <time>2026-06-23T12:34:01Z</time>
      </trkpt>
      <trkpt lat="50.19740198738873" lon="-4.973067976534367">
        <ele>68.870000000000005</ele>
        <time>2026-06-23T12:34:02Z</time>
      </trkpt>
      <trkpt lat="50.197351025417447" lon="-4.973239973187447">
        <ele>67.909999999999997</ele>
        <time>2026-06-23T12:34:03Z</time>
      </trkpt>
      <trkpt lat="50.197312971577048" lon="-4.973433008417487">
        <ele>67.909999999999997</ele>
        <time>2026-06-23T12:34:04Z</time>
      </trkpt>
      <trkpt lat="50.197276007384062" lon="-4.973627971485257">
        <ele>67.909999999999997</ele>
        <time>2026-06-23T12:34:05Z</time>
      </trkpt>
      <trkpt lat="50.197181040421128" lon="-4.973964001983404">
        <ele>67.909999999999997</ele>
        <time>2026-06-23T12:34:07Z</time>
      </trkpt>
      <trkpt lat="50.196745013818145" lon="-4.975248025730252">
        <ele>70.310000000000002</ele>
        <time>2026-06-23T12:34:16Z</time>
      </trkpt>
      <trkpt lat="50.196721041575074" lon="-4.975376017391682">
        <ele>70.790000000000006</ele>
        <time>2026-06-23T12:34:17Z</time>
      </trkpt>
      <trkpt lat="50.196710983291268" lon="-4.975514989346266">
        <ele>71.269999999999996</ele>
        <time>2026-06-23T12:34:18Z</time>
      </trkpt>
      <trkpt lat="50.196735039353371" lon="-4.975766027346253">
        <ele>72.239999999999995</ele>
        <time>2026-06-23T12:34:20Z</time>
      </trkpt>
      <trkpt lat="50.196706959977746" lon="-4.975932994857431">
        <ele>72.719999999999999</ele>
        <time>2026-06-23T12:34:21Z</time>
      </trkpt>
      <trkpt lat="50.196645017713308" lon="-4.975973982363939">
        <ele>73.200000000000003</ele>
        <time>2026-06-23T12:34:22Z</time>
      </trkpt>
      <trkpt lat="50.196562958881259" lon="-4.976027961820364">
        <ele>73.200000000000003</ele>
        <time>2026-06-23T12:34:23Z</time>
      </trkpt>
      <trkpt lat="50.196462040767074" lon="-4.976095017045736">
        <ele>73.200000000000003</ele>
        <time>2026-06-23T12:34:24Z</time>
      </trkpt>
      <trkpt lat="50.196352992206812" lon="-4.97616701759398">
        <ele>72.719999999999999</ele>
        <time>2026-06-23T12:34:25Z</time>
      </trkpt>
      <trkpt lat="50.196249978616834" lon="-4.976234994828701">
        <ele>72.239999999999995</ele>
        <time>2026-06-23T12:34:26Z</time>
      </trkpt>
      <trkpt lat="50.19542302004993" lon="-4.976783003658056">
        <ele>67.430000000000007</ele>
        <time>2026-06-23T12:34:34Z</time>
      </trkpt>
      <trkpt lat="50.195301985368133" lon="-4.976845029741526">
        <ele>66.469999999999999</ele>
        <time>2026-06-23T12:34:35Z</time>
      </trkpt>
      <trkpt lat="50.1951689645648" lon="-4.976890040561557">
        <ele>65.989999999999995</ele>
        <time>2026-06-23T12:34:36Z</time>
      </trkpt>
      <trkpt lat="50.19400798715651" lon="-4.977277033030987">
        <ele>55.890000000000001</ele>
        <time>2026-06-23T12:34:44Z</time>
      </trkpt>
      <trkpt lat="50.193700036033988" lon="-4.977379040792584">
        <ele>52.530000000000001</ele>
        <time>2026-06-23T12:34:46Z</time>
      </trkpt>
      <trkpt lat="50.193543964996934" lon="-4.977399995550513">
        <ele>51.090000000000003</ele>
        <time>2026-06-23T12:34:47Z</time>
      </trkpt>
      <trkpt lat="50.192045029252768" lon="-4.977249037474394">
        <ele>46.280000000000001</ele>
        <time>2026-06-23T12:34:57Z</time>
      </trkpt>
      <trkpt lat="50.190724041312933" lon="-4.97737099416554">
        <ele>44.840000000000003</ele>
        <time>2026-06-23T12:35:07Z</time>
      </trkpt>
      <trkpt lat="50.19059001468122" lon="-4.977385997772217">
        <ele>45.32</ele>
        <time>2026-06-23T12:35:08Z</time>
      </trkpt>
      <trkpt lat="50.189737994223833" lon="-4.977718004956842">
        <ele>48.200000000000003</ele>
        <time>2026-06-23T12:35:16Z</time>
      </trkpt>
      <trkpt lat="50.188573999330401" lon="-4.978115977719426">
        <ele>49.649999999999999</ele>
        <time>2026-06-23T12:35:25Z</time>
      </trkpt>
      <trkpt lat="50.187474964186549" lon="-4.978115977719426">
        <ele>50.130000000000003</ele>
        <time>2026-06-23T12:35:33Z</time>
      </trkpt>
      <trkpt lat="50.186340976506472" lon="-4.978243969380856">
        <ele>46.280000000000001</ele>
        <time>2026-06-23T12:35:42Z</time>
      </trkpt>
      <trkpt lat="50.185359036549926" lon="-4.978276994079351">
        <ele>43.880000000000003</ele>
        <time>2026-06-23T12:35:52Z</time>
      </trkpt>
      <trkpt lat="50.185294998809695" lon="-4.978284034878016">
        <ele>43.880000000000003</ele>
        <time>2026-06-23T12:35:53Z</time>
      </trkpt>
      <trkpt lat="50.185158038511872" lon="-4.978332985192537">
        <ele>42.439999999999998</ele>
        <time>2026-06-23T12:35:56Z</time>
      </trkpt>
      <trkpt lat="50.185112021863461" lon="-4.978353017941117">
        <ele>41.950000000000003</ele>
        <time>2026-06-23T12:35:57Z</time>
      </trkpt>
      <trkpt lat="50.185069022700191" lon="-4.978370033204556">
        <ele>40.990000000000002</ele>
        <time>2026-06-23T12:35:58Z</time>
      </trkpt>
      <trkpt lat="50.184992998838425" lon="-4.978324016556144">
        <ele>40.030000000000001</ele>
        <time>2026-06-23T12:35:59Z</time>
      </trkpt>
      <trkpt lat="50.184975983574986" lon="-4.978254027664661">
        <ele>39.07</ele>
        <time>2026-06-23T12:36:00Z</time>
      </trkpt>
      <trkpt lat="50.184954022988677" lon="-4.978168029338121">
        <ele>38.109999999999999</ele>
        <time>2026-06-23T12:36:01Z</time>
      </trkpt>
      <trkpt lat="50.184928039088845" lon="-4.978061998263001">
        <ele>37.630000000000003</ele>
        <time>2026-06-23T12:36:02Z</time>
      </trkpt>
      <trkpt lat="50.184898031875491" lon="-4.977940963581204">
        <ele>36.670000000000002</ele>
        <time>2026-06-23T12:36:03Z</time>
      </trkpt>
      <trkpt lat="50.184827959164977" lon="-4.977662013843656">
        <ele>35.710000000000001</ele>
        <time>2026-06-23T12:36:05Z</time>
      </trkpt>
      <trkpt lat="50.18474698998034" lon="-4.977059019729495">
        <ele>37.149999999999999</ele>
        <time>2026-06-23T12:36:09Z</time>
      </trkpt>
      <trkpt lat="50.184726035222411" lon="-4.976909989491105">
        <ele>37.630000000000003</ele>
        <time>2026-06-23T12:36:10Z</time>
      </trkpt>
      <trkpt lat="50.184689993038774" lon="-4.976764982566237">
        <ele>38.109999999999999</ele>
        <time>2026-06-23T12:36:11Z</time>
      </trkpt>
      <trkpt lat="50.184637019410729" lon="-4.976634979248047">
        <ele>38.109999999999999</ele>
        <time>2026-06-23T12:36:12Z</time>
      </trkpt>
      <trkpt lat="50.184569964185357" lon="-4.976541018113494">
        <ele>38.109999999999999</ele>
        <time>2026-06-23T12:36:13Z</time>
      </trkpt>
      <trkpt lat="50.184503998607397" lon="-4.97644898481667">
        <ele>38.590000000000003</ele>
        <time>2026-06-23T12:36:14Z</time>
      </trkpt>
      <trkpt lat="50.184438033029437" lon="-4.976356029510498">
        <ele>38.590000000000003</ele>
        <time>2026-06-23T12:36:15Z</time>
      </trkpt>
      <trkpt lat="50.184292020276189" lon="-4.976193001493812">
        <ele>39.549999999999997</ele>
        <time>2026-06-23T12:36:17Z</time>
      </trkpt>
      <trkpt lat="50.184203004464507" lon="-4.976137010380626">
        <ele>39.549999999999997</ele>
        <time>2026-06-23T12:36:18Z</time>
      </trkpt>
      <trkpt lat="50.184109965339303" lon="-4.976076995953918">
        <ele>39.549999999999997</ele>
        <time>2026-06-23T12:36:19Z</time>
      </trkpt>
      <trkpt lat="50.183187033981085" lon="-4.975926959887147">
        <ele>42.439999999999998</ele>
        <time>2026-06-23T12:36:29Z</time>
      </trkpt>
      <trkpt lat="50.182334007695317" lon="-4.975871974602342">
        <ele>40.030000000000001</ele>
        <time>2026-06-23T12:36:39Z</time>
      </trkpt>
      <trkpt lat="50.181626994162798" lon="-4.976027039811015">
        <ele>36.189999999999998</ele>
        <time>2026-06-23T12:36:49Z</time>
      </trkpt>
      <trkpt lat="50.18120102584362" lon="-4.976102979853749">
        <ele>33.299999999999997</ele>
        <time>2026-06-23T12:36:55Z</time>
      </trkpt>
      <trkpt lat="50.180897014215589" lon="-4.976156037300825">
        <ele>31.379999999999999</ele>
        <time>2026-06-23T12:36:59Z</time>
      </trkpt>
      <trkpt lat="50.179950026795268" lon="-4.976098034530878">
        <ele>31.379999999999999</ele>
        <time>2026-06-23T12:37:11Z</time>
      </trkpt>
      <trkpt lat="50.179668981581926" lon="-4.976184032857418">
        <ele>32.82</ele>
        <time>2026-06-23T12:37:15Z</time>
      </trkpt>
      <trkpt lat="50.179605027660728" lon="-4.976215967908502">
        <ele>32.82</ele>
        <time>2026-06-23T12:37:16Z</time>
      </trkpt>
      <trkpt lat="50.179350972175598" lon="-4.976343037560582">
        <ele>34.259999999999998</ele>
        <time>2026-06-23T12:37:20Z</time>
      </trkpt>
      <trkpt lat="50.179286012426019" lon="-4.976375978440046">
        <ele>34.259999999999998</ele>
        <time>2026-06-23T12:37:21Z</time>
      </trkpt>
      <trkpt lat="50.179239995777607" lon="-4.976460970938206">
        <ele>34.740000000000002</ele>
        <time>2026-06-23T12:37:22Z</time>
      </trkpt>
      <trkpt lat="50.17920495942235" lon="-4.976530959829688">
        <ele>34.740000000000002</ele>
        <time>2026-06-23T12:37:23Z</time>
      </trkpt>
      <trkpt lat="50.179176963865757" lon="-4.976586028933525">
        <ele>34.740000000000002</ele>
        <time>2026-06-23T12:37:24Z</time>
      </trkpt>
      <trkpt lat="50.179155003279448" lon="-4.976631961762905">
        <ele>34.740000000000002</ele>
        <time>2026-06-23T12:37:25Z</time>
      </trkpt>
      <trkpt lat="50.179114015772939" lon="-4.976714020594955">
        <ele>34.259999999999998</ele>
        <time>2026-06-23T12:37:27Z</time>
      </trkpt>
      <trkpt lat="50.179097000509501" lon="-4.976746961474419">
        <ele>34.259999999999998</ele>
        <time>2026-06-23T12:37:28Z</time>
      </trkpt>
      <trkpt lat="50.179089037701488" lon="-4.976699016988277">
        <ele>33.780000000000001</ele>
        <time>2026-06-23T12:37:29Z</time>
      </trkpt>
      <trkpt lat="50.179088031873107" lon="-4.976699016988277">
        <ele>33.299999999999997</ele>
        <time>2026-06-23T12:37:30Z</time>
      </trkpt>
      <trkpt lat="50.179084008559585" lon="-4.976721983402968">
        <ele>33.299999999999997</ele>
        <time>2026-06-23T12:37:31Z</time>
      </trkpt>
      <trkpt lat="50.179094988852739" lon="-4.976668003946543">
        <ele>33.299999999999997</ele>
        <time>2026-06-23T12:37:32Z</time>
      </trkpt>
      <trkpt lat="50.179107980802655" lon="-4.976607989519835">
        <ele>32.340000000000003</ele>
        <time>2026-06-23T12:37:33Z</time>
      </trkpt>
      <trkpt lat="50.179122984409332" lon="-4.976539006456733">
        <ele>32.340000000000003</ele>
        <time>2026-06-23T12:37:34Z</time>
      </trkpt>
      <trkpt lat="50.179137988016009" lon="-4.97646801173687">
        <ele>31.379999999999999</ele>
        <time>2026-06-23T12:37:35Z</time>
      </trkpt>
      <trkpt lat="50.179238989949226" lon="-4.975990997627378">
        <ele>25.609999999999999</ele>
        <time>2026-06-23T12:37:45Z</time>
      </trkpt>
      <trkpt lat="50.179238989949226" lon="-4.975990997627378">
        <ele>24.649999999999999</ele>
        <time>2026-06-23T12:37:47Z</time>
      </trkpt>
      <trkpt lat="50.179230021312833" lon="-4.975886978209019">
        <ele>23.210000000000001</ele>
        <time>2026-06-23T12:37:55Z</time>
      </trkpt>
      <trkpt lat="50.179228009656072" lon="-4.975859988480806">
        <ele>22.73</ele>
        <time>2026-06-23T12:37:56Z</time>
      </trkpt>
      <trkpt lat="50.17922499217093" lon="-4.975724034011364">
        <ele>22.25</ele>
        <time>2026-06-23T12:37:57Z</time>
      </trkpt>
      <trkpt lat="50.17924502491951" lon="-4.975700983777642">
        <ele>21.77</ele>
        <time>2026-06-23T12:37:58Z</time>
      </trkpt>
      <trkpt lat="50.179262040182948" lon="-4.975680029019713">
        <ele>21.289999999999999</ele>
        <time>2026-06-23T12:37:59Z</time>
      </trkpt>
      <trkpt lat="50.179277965798974" lon="-4.975661002099514">
        <ele>20.809999999999999</ele>
        <time>2026-06-23T12:38:00Z</time>
      </trkpt>
      <trkpt lat="50.179324988275766" lon="-4.975605010986328">
        <ele>14.56</ele>
        <time>2026-06-23T12:38:15Z</time>
      </trkpt>
      <trkpt lat="50.179324988275766" lon="-4.975605010986328">
        <ele>14.56</ele>
        <time>2026-06-23T12:38:41Z</time>
      </trkpt>
      <trkpt lat="50.179324988275766" lon="-4.975605010986328">
        <ele>13.6</ele>
        <time>2026-06-23T12:39:34Z</time>
      </trkpt>
      <trkpt lat="50.179379973560572" lon="-4.975422034040093">
        <ele>19.359999999999999</ele>
        <time>2026-06-23T12:52:12Z</time>
      </trkpt>
      <trkpt lat="50.17937402240932" lon="-4.975433014333248">
        <ele>21.289999999999999</ele>
        <time>2026-06-23T12:52:46Z</time>
      </trkpt>
      <trkpt lat="50.179368993267417" lon="-4.975428991019726">
        <ele>22.25</ele>
        <time>2026-06-23T12:53:38Z</time>
      </trkpt>
      <trkpt lat="50.179368993267417" lon="-4.975411975756288">
        <ele>21.289999999999999</ele>
        <time>2026-06-23T12:54:09Z</time>
      </trkpt>
      <trkpt lat="50.179362958297133" lon="-4.975381968542934">
        <ele>21.289999999999999</ele>
        <time>2026-06-23T12:54:15Z</time>
      </trkpt>
      <trkpt lat="50.179422972723842" lon="-4.975037975236774">
        <ele>17.440000000000001</ele>
        <time>2026-06-23T12:54:25Z</time>
      </trkpt>
      <trkpt lat="50.179471001029015" lon="-4.974871007725596">
        <ele>13.6</ele>
        <time>2026-06-23T12:54:39Z</time>
      </trkpt>
      <trkpt lat="50.179471001029015" lon="-4.974871007725596">
        <ele>11.67</ele>
        <time>2026-06-23T12:54:58Z</time>
      </trkpt>
      <trkpt lat="50.179533027112484" lon="-4.974694987758994">
        <ele>11.67</ele>
        <time>2026-06-23T12:55:06Z</time>
      </trkpt>
      <trkpt lat="50.179608967155218" lon="-4.974795989692211">
        <ele>11.19</ele>
        <time>2026-06-23T12:55:13Z</time>
      </trkpt>
      <trkpt lat="50.179608967155218" lon="-4.974795989692211">
        <ele>11.19</ele>
        <time>2026-06-23T12:55:29Z</time>
      </trkpt>
      <trkpt lat="50.179432025179267" lon="-4.974982989951968">
        <ele>10.710000000000001</ele>
        <time>2026-06-23T12:55:33Z</time>
      </trkpt>
      <trkpt lat="50.179432025179267" lon="-4.974982989951968">
        <ele>10.23</ele>
        <time>2026-06-23T12:55:34Z</time>
      </trkpt>
      <trkpt lat="50.17946002073586" lon="-4.974902020767331">
        <ele>10.710000000000001</ele>
        <time>2026-06-23T12:55:35Z</time>
      </trkpt>
      <trkpt lat="50.179443005472422" lon="-4.974952982738614">
        <ele>10.710000000000001</ele>
        <time>2026-06-23T12:55:36Z</time>
      </trkpt>
      <trkpt lat="50.179432025179267" lon="-4.974982989951968">
        <ele>11.19</ele>
        <time>2026-06-23T12:55:37Z</time>
      </trkpt>
      <trkpt lat="50.179432025179267" lon="-4.974982989951968">
        <ele>11.19</ele>
        <time>2026-06-23T12:55:38Z</time>
      </trkpt>
      <trkpt lat="50.179352983832359" lon="-4.975440977141261">
        <ele>12.630000000000001</ele>
        <time>2026-06-23T12:55:44Z</time>
      </trkpt>
      <trkpt lat="50.179339991882443" lon="-4.975518006831408">
        <ele>13.119999999999999</ele>
        <time>2026-06-23T12:55:45Z</time>
      </trkpt>
      <trkpt lat="50.179326999932528" lon="-4.975591013208032">
        <ele>13.6</ele>
        <time>2026-06-23T12:55:46Z</time>
      </trkpt>
      <trkpt lat="50.17922499217093" lon="-4.975826041772962">
        <ele>15.039999999999999</ele>
        <time>2026-06-23T12:55:49Z</time>
      </trkpt>
      <trkpt lat="50.179238989949226" lon="-4.975990997627378">
        <ele>15.52</ele>
        <time>2026-06-23T12:55:50Z</time>
      </trkpt>
      <trkpt lat="50.179238989949226" lon="-4.975990997627378">
        <ele>16</ele>
        <time>2026-06-23T12:55:51Z</time>
      </trkpt>
      <trkpt lat="50.179223986342549" lon="-4.976062998175621">
        <ele>16.48</ele>
        <time>2026-06-23T12:55:52Z</time>
      </trkpt>
      <trkpt lat="50.17920495942235" lon="-4.976148996502161">
        <ele>16.960000000000001</ele>
        <time>2026-06-23T12:55:53Z</time>
      </trkpt>
      <trkpt lat="50.179132036864758" lon="-4.976496007293463">
        <ele>18.879999999999999</ele>
        <time>2026-06-23T12:55:57Z</time>
      </trkpt>
      <trkpt lat="50.1791160274297" lon="-4.976572031155229">
        <ele>19.359999999999999</ele>
        <time>2026-06-23T12:55:58Z</time>
      </trkpt>
      <trkpt lat="50.179066993296146" lon="-4.976806975901127">
        <ele>22.73</ele>
        <time>2026-06-23T12:56:02Z</time>
      </trkpt>
      <trkpt lat="50.179001027718186" lon="-4.976949971169233">
        <ele>24.170000000000002</ele>
        <time>2026-06-23T12:56:04Z</time>
      </trkpt>
      <trkpt lat="50.178586039692163" lon="-4.977848008275032">
        <ele>37.149999999999999</ele>
        <time>2026-06-23T12:56:14Z</time>
      </trkpt>
      <trkpt lat="50.178512027487159" lon="-4.978097034618259">
        <ele>40.030000000000001</ele>
        <time>2026-06-23T12:56:16Z</time>
      </trkpt>
      <trkpt lat="50.178481014445424" lon="-4.978233994916081">
        <ele>41.469999999999999</ele>
        <time>2026-06-23T12:56:17Z</time>
      </trkpt>
      <trkpt lat="50.178465005010366" lon="-4.978366009891033">
        <ele>42.920000000000002</ele>
        <time>2026-06-23T12:56:18Z</time>
      </trkpt>
      <trkpt lat="50.178447989746928" lon="-4.978502970188856">
        <ele>44.359999999999999</ele>
        <time>2026-06-23T12:56:19Z</time>
      </trkpt>
      <trkpt lat="50.178429968655109" lon="-4.978642025962472">
        <ele>45.799999999999997</ele>
        <time>2026-06-23T12:56:20Z</time>
      </trkpt>
      <trkpt lat="50.178413037210703" lon="-4.978778986260295">
        <ele>47.240000000000002</ele>
        <time>2026-06-23T12:56:21Z</time>
      </trkpt>
      <trkpt lat="50.178235005587339" lon="-4.980136016383767">
        <ele>58.299999999999997</ele>
        <time>2026-06-23T12:56:31Z</time>
      </trkpt>
      <trkpt lat="50.178110031411052" lon="-4.980643959715962">
        <ele>61.18</ele>
        <time>2026-06-23T12:56:36Z</time>
      </trkpt>
      <trkpt lat="50.17810701392591" lon="-4.98074303381145">
        <ele>61.659999999999997</ele>
        <time>2026-06-23T12:56:37Z</time>
      </trkpt>
      <trkpt lat="50.178111959248781" lon="-4.98082903213799">
        <ele>62.140000000000001</ele>
        <time>2026-06-23T12:56:38Z</time>
      </trkpt>
      <trkpt lat="50.178117994219065" lon="-4.980912012979388">
        <ele>62.619999999999997</ele>
        <time>2026-06-23T12:56:39Z</time>
      </trkpt>
      <trkpt lat="50.178122017532587" lon="-4.98098099604249">
        <ele>63.100000000000001</ele>
        <time>2026-06-23T12:56:40Z</time>
      </trkpt>
      <trkpt lat="50.17817297950387" lon="-4.98113295994699">
        <ele>64.549999999999997</ele>
        <time>2026-06-23T12:56:46Z</time>
      </trkpt>
      <trkpt lat="50.178211033344269" lon="-4.981121979653835">
        <ele>64.549999999999997</ele>
        <time>2026-06-23T12:56:47Z</time>
      </trkpt>
      <trkpt lat="50.178264006972313" lon="-4.981106976047158">
        <ele>64.549999999999997</ele>
        <time>2026-06-23T12:56:48Z</time>
      </trkpt>
      <trkpt lat="50.17907302826643" lon="-4.980817968025804">
        <ele>63.579999999999998</ele>
        <time>2026-06-23T12:57:00Z</time>
      </trkpt>
      <trkpt lat="50.179143017157912" lon="-4.980798019096255">
        <ele>63.579999999999998</ele>
        <time>2026-06-23T12:57:01Z</time>
      </trkpt>
      <trkpt lat="50.179209988564253" lon="-4.980779998004437">
        <ele>63.579999999999998</ele>
        <time>2026-06-23T12:57:02Z</time>
      </trkpt>
      <trkpt lat="50.179279977455735" lon="-4.980759965255857">
        <ele>63.579999999999998</ele>
        <time>2026-06-23T12:57:03Z</time>
      </trkpt>
      <trkpt lat="50.179350972175598" lon="-4.980740016326308">
        <ele>63.579999999999998</ele>
        <time>2026-06-23T12:57:04Z</time>
      </trkpt>
      <trkpt lat="50.179424984380603" lon="-4.980719983577728">
        <ele>63.100000000000001</ele>
        <time>2026-06-23T12:57:05Z</time>
      </trkpt>
      <trkpt lat="50.179496984928846" lon="-4.98070003464818">
        <ele>63.100000000000001</ele>
        <time>2026-06-23T12:57:06Z</time>
      </trkpt>
      <trkpt lat="50.179776018485427" lon="-4.980623004958034">
        <ele>63.100000000000001</ele>
        <time>2026-06-23T12:57:10Z</time>
      </trkpt>
      <trkpt lat="50.179973999038339" lon="-4.980577994138002">
        <ele>63.579999999999998</ele>
        <time>2026-06-23T12:57:13Z</time>
      </trkpt>
      <trkpt lat="50.18074999563396" lon="-4.980423012748361">
        <ele>62.140000000000001</ele>
        <time>2026-06-23T12:57:23Z</time>
      </trkpt>
      <trkpt lat="50.181770995259285" lon="-4.980260990560055">
        <ele>62.619999999999997</ele>
        <time>2026-06-23T12:57:33Z</time>
      </trkpt>
      <trkpt lat="50.182135021314025" lon="-4.98020701110363">
        <ele>61.18</ele>
        <time>2026-06-23T12:57:37Z</time>
      </trkpt>
      <trkpt lat="50.18223199993372" lon="-4.980189995840192">
        <ele>59.740000000000002</ele>
        <time>2026-06-23T12:57:38Z</time>
      </trkpt>
      <trkpt lat="50.182440960779786" lon="-4.980152025818825">
        <ele>58.299999999999997</ele>
        <time>2026-06-23T12:57:40Z</time>
      </trkpt>
      <trkpt lat="50.182541962713003" lon="-4.980113971978426">
        <ele>57.340000000000003</ele>
        <time>2026-06-23T12:57:41Z</time>
      </trkpt>
      <trkpt lat="50.183249982073903" lon="-4.979836028069258">
        <ele>50.609999999999999</ele>
        <time>2026-06-23T12:57:49Z</time>
      </trkpt>
      <trkpt lat="50.183409992605448" lon="-4.97969001531601">
        <ele>48.68</ele>
        <time>2026-06-23T12:57:51Z</time>
      </trkpt>
      <trkpt lat="50.183495990931988" lon="-4.979610973969102">
        <ele>47.240000000000002</ele>
        <time>2026-06-23T12:57:52Z</time>
      </trkpt>
      <trkpt lat="50.183584000915289" lon="-4.979530004784465">
        <ele>46.280000000000001</ele>
        <time>2026-06-23T12:57:53Z</time>
      </trkpt>
      <trkpt lat="50.184098985046148" lon="-4.979071011766791">
        <ele>39.549999999999997</ele>
        <time>2026-06-23T12:57:59Z</time>
      </trkpt>
      <trkpt lat="50.184182971715927" lon="-4.979021977633238">
        <ele>38.590000000000003</ele>
        <time>2026-06-23T12:58:00Z</time>
      </trkpt>
      <trkpt lat="50.184265030547976" lon="-4.978974033147097">
        <ele>37.630000000000003</ele>
        <time>2026-06-23T12:58:01Z</time>
      </trkpt>
      <trkpt lat="50.184481032192707" lon="-4.978846963495016">
        <ele>34.740000000000002</ele>
        <time>2026-06-23T12:58:04Z</time>
      </trkpt>
      <trkpt lat="50.184629978612065" lon="-4.978759037330747">
        <ele>31.859999999999999</ele>
        <time>2026-06-23T12:58:07Z</time>
      </trkpt>
      <trkpt lat="50.184665014967322" lon="-4.978737998753786">
        <ele>30.899999999999999</ele>
        <time>2026-06-23T12:58:08Z</time>
      </trkpt>
      <trkpt lat="50.184693010523915" lon="-4.978721989318728">
        <ele>29.940000000000001</ele>
        <time>2026-06-23T12:58:09Z</time>
      </trkpt>
      <trkpt lat="50.184722011908889" lon="-4.97870497405529">
        <ele>28.98</ele>
        <time>2026-06-23T12:58:10Z</time>
      </trkpt>
      <trkpt lat="50.184785965830088" lon="-4.978780997917056">
        <ele>27.530000000000001</ele>
        <time>2026-06-23T12:58:11Z</time>
      </trkpt>
      <trkpt lat="50.184793006628752" lon="-4.978843024000526">
        <ele>26.57</ele>
        <time>2026-06-23T12:58:12Z</time>
      </trkpt>
      <trkpt lat="50.184801975265145" lon="-4.978934973478317">
        <ele>25.609999999999999</ele>
        <time>2026-06-23T12:58:13Z</time>
      </trkpt>
      <trkpt lat="50.184813961386681" lon="-4.979041004553437">
        <ele>24.649999999999999</ele>
        <time>2026-06-23T12:58:14Z</time>
      </trkpt>
      <trkpt lat="50.184844974428415" lon="-4.979339987039566">
        <ele>21.289999999999999</ele>
        <time>2026-06-23T12:58:17Z</time>
      </trkpt>
      <trkpt lat="50.184854026883841" lon="-4.979420034214854">
        <ele>20.809999999999999</ele>
        <time>2026-06-23T12:58:18Z</time>
      </trkpt>
      <trkpt lat="50.184856960549951" lon="-4.97949798591435">
        <ele>19.84</ele>
        <time>2026-06-23T12:58:19Z</time>
      </trkpt>
      <trkpt lat="50.184829970821738" lon="-4.979569986462593">
        <ele>19.359999999999999</ele>
        <time>2026-06-23T12:58:20Z</time>
      </trkpt>
      <trkpt lat="50.184799041599035" lon="-4.979650033637881">
        <ele>18.399999999999999</ele>
        <time>2026-06-23T12:58:21Z</time>
      </trkpt>
      <trkpt lat="50.184764005243778" lon="-4.979739971458912">
        <ele>17.920000000000002</ele>
        <time>2026-06-23T12:58:22Z</time>
      </trkpt>
      <trkpt lat="50.184727041050792" lon="-4.979836028069258">
        <ele>17.440000000000001</ele>
        <time>2026-06-23T12:58:23Z</time>
      </trkpt>
      <trkpt lat="50.184687981382012" lon="-4.979939041659236">
        <ele>16.960000000000001</ele>
        <time>2026-06-23T12:58:24Z</time>
      </trkpt>
      <trkpt lat="50.184599971398711" lon="-4.980166023597121">
        <ele>16.48</ele>
        <time>2026-06-23T12:58:26Z</time>
      </trkpt>
      <trkpt lat="50.184558983892202" lon="-4.980273982509971">
        <ele>16</ele>
        <time>2026-06-23T12:58:27Z</time>
      </trkpt>
      <trkpt lat="50.184520008042455" lon="-4.980373978614807">
        <ele>15.52</ele>
        <time>2026-06-23T12:58:28Z</time>
      </trkpt>
      <trkpt lat="50.184485977515578" lon="-4.98046400025487">
        <ele>15.039999999999999</ele>
        <time>2026-06-23T12:58:29Z</time>
      </trkpt>
      <trkpt lat="50.184448007494211" lon="-4.980561984702945">
        <ele>14.56</ele>
        <time>2026-06-23T12:58:30Z</time>
      </trkpt>
      <trkpt lat="50.18442302942276" lon="-4.980674972757697">
        <ele>13.6</ele>
        <time>2026-06-23T12:58:31Z</time>
      </trkpt>
      <trkpt lat="50.184410037472844" lon="-4.98078896664083">
        <ele>12.630000000000001</ele>
        <time>2026-06-23T12:58:32Z</time>
      </trkpt>
      <trkpt lat="50.184396039694548" lon="-4.980905978009105">
        <ele>11.67</ele>
        <time>2026-06-23T12:58:33Z</time>
      </trkpt>
      <trkpt lat="50.184405008330941" lon="-4.981160033494234">
        <ele>9.75</ele>
        <time>2026-06-23T12:58:35Z</time>
      </trkpt>
      <trkpt lat="50.184424035251141" lon="-4.981394978240132">
        <ele>8.789999999999999</ele>
        <time>2026-06-23T12:58:37Z</time>
      </trkpt>
      <trkpt lat="50.184482038021088" lon="-4.981551971286535">
        <ele>7.83</ele>
        <time>2026-06-23T12:58:38Z</time>
      </trkpt>
      <trkpt lat="50.18455202691257" lon="-4.981645010411739">
        <ele>6.87</ele>
        <time>2026-06-23T12:58:39Z</time>
      </trkpt>
      <trkpt lat="50.184625033289194" lon="-4.981741989031434">
        <ele>5.91</ele>
        <time>2026-06-23T12:58:40Z</time>
      </trkpt>
      <trkpt lat="50.184690998867154" lon="-4.981829999014735">
        <ele>5.42</ele>
        <time>2026-06-23T12:58:41Z</time>
      </trkpt>
      <trkpt lat="50.184754030779004" lon="-4.981913985684514">
        <ele>5.42</ele>
        <time>2026-06-23T12:58:42Z</time>
      </trkpt>
      <trkpt lat="50.184773979708552" lon="-4.981981040909886">
        <ele>5.42</ele>
        <time>2026-06-23T12:58:43Z</time>
      </trkpt>
      <trkpt lat="50.184816978871822" lon="-4.982134010642767">
        <ele>5.42</ele>
        <time>2026-06-23T12:58:44Z</time>
      </trkpt>
      <trkpt lat="50.184797029942274" lon="-4.982243981212378">
        <ele>4.94</ele>
        <time>2026-06-23T12:58:45Z</time>
      </trkpt>
      <trkpt lat="50.184775991365314" lon="-4.982358980923891">
        <ele>4.46</ele>
        <time>2026-06-23T12:58:46Z</time>
      </trkpt>
      <trkpt lat="50.184754030779004" lon="-4.982480015605688">
        <ele>3.98</ele>
        <time>2026-06-23T12:58:47Z</time>
      </trkpt>
      <trkpt lat="50.184708014130592" lon="-4.982732981443405">
        <ele>4.46</ele>
        <time>2026-06-23T12:58:49Z</time>
      </trkpt>
      <trkpt lat="50.184655040502548" lon="-4.98302198946476">
        <ele>6.39</ele>
        <time>2026-06-23T12:58:51Z</time>
      </trkpt>
      <trkpt lat="50.184687981382012" lon="-4.984297966584563">
        <ele>14.08</ele>
        <time>2026-06-23T12:58:59Z</time>
      </trkpt>
      <trkpt lat="50.184838017448783" lon="-4.985543014481664">
        <ele>20.809999999999999</ele>
        <time>2026-06-23T12:59:07Z</time>
      </trkpt>
      <trkpt lat="50.184854026883841" lon="-4.985678968951106">
        <ele>21.77</ele>
        <time>2026-06-23T12:59:08Z</time>
      </trkpt>
      <trkpt lat="50.184869030490518" lon="-4.985806960612536">
        <ele>21.77</ele>
        <time>2026-06-23T12:59:09Z</time>
      </trkpt>
      <trkpt lat="50.184885039925575" lon="-4.985938975587487">
        <ele>22.25</ele>
        <time>2026-06-23T12:59:10Z</time>
      </trkpt>
      <trkpt lat="50.184899959713221" lon="-4.986068978905678">
        <ele>22.73</ele>
        <time>2026-06-23T12:59:11Z</time>
      </trkpt>
      <trkpt lat="50.184953017160296" lon="-4.986152965575457">
        <ele>23.210000000000001</ele>
        <time>2026-06-23T12:59:12Z</time>
      </trkpt>
      <trkpt lat="50.185018982738256" lon="-4.986226977780461">
        <ele>23.690000000000001</ele>
        <time>2026-06-23T12:59:13Z</time>
      </trkpt>
      <trkpt lat="50.185089977458119" lon="-4.986306019127369">
        <ele>24.170000000000002</ele>
        <time>2026-06-23T12:59:14Z</time>
      </trkpt>
      <trkpt lat="50.185164995491505" lon="-4.986391011625528">
        <ele>25.129999999999999</ele>
        <time>2026-06-23T12:59:15Z</time>
      </trkpt>
      <trkpt lat="50.185247976332903" lon="-4.986483966931701">
        <ele>26.09</ele>
        <time>2026-06-23T12:59:16Z</time>
      </trkpt>
      <trkpt lat="50.185791961848736" lon="-4.987092996016145">
        <ele>31.859999999999999</ele>
        <time>2026-06-23T12:59:22Z</time>
      </trkpt>
      <trkpt lat="50.185879971832037" lon="-4.98719098046422">
        <ele>32.340000000000003</ele>
        <time>2026-06-23T12:59:23Z</time>
      </trkpt>
      <trkpt lat="50.186054985970259" lon="-4.987354008480907">
        <ele>33.780000000000001</ele>
        <time>2026-06-23T12:59:25Z</time>
      </trkpt>
      <trkpt lat="50.186750013381243" lon="-4.987834962084889">
        <ele>40.990000000000002</ele>
        <time>2026-06-23T12:59:32Z</time>
      </trkpt>
      <trkpt lat="50.186856966465712" lon="-4.987909980118275">
        <ele>41.469999999999999</ele>
        <time>2026-06-23T12:59:33Z</time>
      </trkpt>
      <trkpt lat="50.186978001147509" lon="-4.987992960959673">
        <ele>42.920000000000002</ele>
        <time>2026-06-23T12:59:34Z</time>
      </trkpt>
      <trkpt lat="50.188069995492697" lon="-4.988750014454126">
        <ele>56.859999999999999</ele>
        <time>2026-06-23T12:59:43Z</time>
      </trkpt>
      <trkpt lat="50.188924027606845" lon="-4.989449987187982">
        <ele>61.659999999999997</ele>
        <time>2026-06-23T12:59:51Z</time>
      </trkpt>
      <trkpt lat="50.189817035570741" lon="-4.990341989323497">
        <ele>61.18</ele>
        <time>2026-06-23T12:59:58Z</time>
      </trkpt>
      <trkpt lat="50.190946999937296" lon="-4.990867031738162">
        <ele>57.82</ele>
        <time>2026-06-23T13:00:05Z</time>
      </trkpt>
      <trkpt lat="50.192778026685119" lon="-4.991243965923786">
        <ele>55.890000000000001</ele>
        <time>2026-06-23T13:00:15Z</time>
      </trkpt>
      <trkpt lat="50.194186018779874" lon="-4.991115974262357">
        <ele>54.93</ele>
        <time>2026-06-23T13:00:23Z</time>
      </trkpt>
      <trkpt lat="50.194551972672343" lon="-4.991113962605596">
        <ele>54.450000000000003</ele>
        <time>2026-06-23T13:00:28Z</time>
      </trkpt>
      <trkpt lat="50.194596983492374" lon="-4.991117985919118">
        <ele>54.450000000000003</ele>
        <time>2026-06-23T13:00:37Z</time>
      </trkpt>
      <trkpt lat="50.194804016500711" lon="-4.991006003692746">
        <ele>55.890000000000001</ele>
        <time>2026-06-23T13:00:56Z</time>
      </trkpt>
      <trkpt lat="50.195601973682642" lon="-4.990698974579573">
        <ele>56.859999999999999</ele>
        <time>2026-06-23T13:01:02Z</time>
      </trkpt>
      <trkpt lat="50.196087034419179" lon="-4.99052002094686">
        <ele>56.859999999999999</ele>
        <time>2026-06-23T13:01:05Z</time>
      </trkpt>
      <trkpt lat="50.196235980838537" lon="-4.990405021235347">
        <ele>56.859999999999999</ele>
        <time>2026-06-23T13:01:06Z</time>
      </trkpt>
      <trkpt lat="50.19639297388494" lon="-4.99028398655355">
        <ele>56.859999999999999</ele>
        <time>2026-06-23T13:01:07Z</time>
      </trkpt>
      <trkpt lat="50.196697991341352" lon="-4.990049041807652">
        <ele>57.340000000000003</ele>
        <time>2026-06-23T13:01:09Z</time>
      </trkpt>
      <trkpt lat="50.196858001872897" lon="-4.989947034046054">
        <ele>57.82</ele>
        <time>2026-06-23T13:01:10Z</time>
      </trkpt>
      <trkpt lat="50.197034021839499" lon="-4.989893976598978">
        <ele>58.299999999999997</ele>
        <time>2026-06-23T13:01:11Z</time>
      </trkpt>
      <trkpt lat="50.198072036728263" lon="-4.989580996334553">
        <ele>65.510000000000005</ele>
        <time>2026-06-23T13:01:18Z</time>
      </trkpt>
      <trkpt lat="50.198164992034435" lon="-4.98955300077796">
        <ele>66.469999999999999</ele>
        <time>2026-06-23T13:01:19Z</time>
      </trkpt>
      <trkpt lat="50.198274040594697" lon="-4.989608991891146">
        <ele>67.430000000000007</ele>
        <time>2026-06-23T13:01:20Z</time>
      </trkpt>
      <trkpt lat="50.198378982022405" lon="-4.98966297134757">
        <ele>68.870000000000005</ele>
        <time>2026-06-23T13:01:21Z</time>
      </trkpt>
      <trkpt lat="50.198490964248776" lon="-4.989720974117518">
        <ele>70.310000000000002</ele>
        <time>2026-06-23T13:01:22Z</time>
      </trkpt>
      <trkpt lat="50.198592972010374" lon="-4.989774031564593">
        <ele>71.760000000000005</ele>
        <time>2026-06-23T13:01:23Z</time>
      </trkpt>
      <trkpt lat="50.198676036670804" lon="-4.989816024899483">
        <ele>72.239999999999995</ele>
        <time>2026-06-23T13:01:24Z</time>
      </trkpt>
      <trkpt lat="50.198745019733906" lon="-4.989851983264089">
        <ele>73.200000000000003</ele>
        <time>2026-06-23T13:01:25Z</time>
      </trkpt>
      <trkpt lat="50.198806961998343" lon="-4.989884002134204">
        <ele>74.159999999999997</ele>
        <time>2026-06-23T13:01:26Z</time>
      </trkpt>
      <trkpt lat="50.198838980868459" lon="-4.989922977983952">
        <ele>75.120000000000005</ele>
        <time>2026-06-23T13:01:27Z</time>
      </trkpt>
      <trkpt lat="50.198876028880477" lon="-4.990028003230691">
        <ele>75.599999999999994</ele>
        <time>2026-06-23T13:01:28Z</time>
      </trkpt>
      <trkpt lat="50.198919028043747" lon="-4.990150965750217">
        <ele>76.560000000000002</ele>
        <time>2026-06-23T13:01:29Z</time>
      </trkpt>
      <trkpt lat="50.198964960873127" lon="-4.99028398655355">
        <ele>76.560000000000002</ele>
        <time>2026-06-23T13:01:30Z</time>
      </trkpt>
      <trkpt lat="50.199004020541906" lon="-4.990399992093444">
        <ele>77.040000000000006</ele>
        <time>2026-06-23T13:01:31Z</time>
      </trkpt>
      <trkpt lat="50.19903302192688" lon="-4.990523960441351">
        <ele>77.519999999999996</ele>
        <time>2026-06-23T13:01:32Z</time>
      </trkpt>
      <trkpt lat="50.199063029140234" lon="-4.990653963759542">
        <ele>77.519999999999996</ele>
        <time>2026-06-23T13:01:33Z</time>
      </trkpt>
      <trkpt lat="50.199094964191318" lon="-4.990792013704777">
        <ele>77.519999999999996</ele>
        <time>2026-06-23T13:01:34Z</time>
      </trkpt>
      <trkpt lat="50.199203006923199" lon="-4.991256035864353">
        <ele>78.480000000000004</ele>
        <time>2026-06-23T13:01:37Z</time>
      </trkpt>
      <trkpt lat="50.199226979166269" lon="-4.991418980062008">
        <ele>78.480000000000004</ele>
        <time>2026-06-23T13:01:38Z</time>
      </trkpt>
      <trkpt lat="50.199245000258088" lon="-4.991591982543469">
        <ele>78.480000000000004</ele>
        <time>2026-06-23T13:01:39Z</time>
      </trkpt>
      <trkpt lat="50.199262015521526" lon="-4.991764985024929">
        <ele>78.480000000000004</ele>
        <time>2026-06-23T13:01:40Z</time>
      </trkpt>
      <trkpt lat="50.199280036613345" lon="-4.99193798750639">
        <ele>78.480000000000004</ele>
        <time>2026-06-23T13:01:41Z</time>
      </trkpt>
      <trkpt lat="50.199461001902819" lon="-4.992913976311684">
        <ele>73.200000000000003</ele>
        <time>2026-06-23T13:01:47Z</time>
      </trkpt>
      <trkpt lat="50.199512969702482" lon="-4.992998968809843">
        <ele>71.760000000000005</ele>
        <time>2026-06-23T13:01:48Z</time>
      </trkpt>
      <trkpt lat="50.19957197830081" lon="-4.993052026256919">
        <ele>70.310000000000002</ele>
        <time>2026-06-23T13:01:49Z</time>
      </trkpt>
      <trkpt lat="50.199667029082775" lon="-4.993136012926698">
        <ele>68.870000000000005</ele>
        <time>2026-06-23T13:01:50Z</time>
      </trkpt>
      <trkpt lat="50.199714973568916" lon="-4.993155961856246">
        <ele>67.430000000000007</ele>
        <time>2026-06-23T13:01:51Z</time>
      </trkpt>
      <trkpt lat="50.200071958824992" lon="-4.993304992094636">
        <ele>63.579999999999998</ele>
        <time>2026-06-23T13:01:55Z</time>
      </trkpt>
      <trkpt lat="50.200531035661697" lon="-4.993369029834867">
        <ele>59.740000000000002</ele>
        <time>2026-06-23T13:02:00Z</time>
      </trkpt>
      <trkpt lat="50.200589038431644" lon="-4.993371963500977">
        <ele>59.259999999999998</ele>
        <time>2026-06-23T13:02:01Z</time>
      </trkpt>
      <trkpt lat="50.200636982917786" lon="-4.993431977927685">
        <ele>58.780000000000001</ele>
        <time>2026-06-23T13:02:02Z</time>
      </trkpt>
      <trkpt lat="50.200680987909436" lon="-4.993495009839535">
        <ele>57.82</ele>
        <time>2026-06-23T13:02:03Z</time>
      </trkpt>
      <trkpt lat="50.200720969587564" lon="-4.993604980409145">
        <ele>57.340000000000003</ele>
        <time>2026-06-23T13:02:04Z</time>
      </trkpt>
      <trkpt lat="50.200766986235976" lon="-4.993729032576084">
        <ele>56.859999999999999</ele>
        <time>2026-06-23T13:02:05Z</time>
      </trkpt>
      <trkpt lat="50.200965972617269" lon="-4.994441997259855">
        <ele>58.299999999999997</ele>
        <time>2026-06-23T13:02:10Z</time>
      </trkpt>
      <trkpt lat="50.201239977031946" lon="-4.99561202712357">
        <ele>55.409999999999997</ele>
        <time>2026-06-23T13:02:18Z</time>
      </trkpt>
      <trkpt lat="50.201265960931778" lon="-4.995754016563296">
        <ele>54.93</ele>
        <time>2026-06-23T13:02:19Z</time>
      </trkpt>
      <trkpt lat="50.201331004500389" lon="-4.996234970167279">
        <ele>52.530000000000001</ele>
        <time>2026-06-23T13:02:22Z</time>
      </trkpt>
      <trkpt lat="50.201607020571828" lon="-4.997280025854707">
        <ele>44.359999999999999</ele>
        <time>2026-06-23T13:02:30Z</time>
      </trkpt>
      <trkpt lat="50.201671980321407" lon="-4.997497033327818">
        <ele>41.950000000000003</ele>
        <time>2026-06-23T13:02:32Z</time>
      </trkpt>
      <trkpt lat="50.201758984476328" lon="-4.997943034395576">
        <ele>35.710000000000001</ele>
        <time>2026-06-23T13:02:36Z</time>
      </trkpt>
      <trkpt lat="50.201766025274992" lon="-4.998059961944819">
        <ele>33.780000000000001</ele>
        <time>2026-06-23T13:02:37Z</time>
      </trkpt>
      <trkpt lat="50.201757978647947" lon="-4.998171022161841">
        <ele>31.859999999999999</ele>
        <time>2026-06-23T13:02:38Z</time>
      </trkpt>
      <trkpt lat="50.201611965894699" lon="-4.998902007937431">
        <ele>19.84</ele>
        <time>2026-06-23T13:02:44Z</time>
      </trkpt>
      <trkpt lat="50.201553963124752" lon="-4.999105017632246">
        <ele>15.52</ele>
        <time>2026-06-23T13:02:46Z</time>
      </trkpt>
      <trkpt lat="50.201496966183186" lon="-4.999169977381825">
        <ele>13.6</ele>
        <time>2026-06-23T13:02:47Z</time>
      </trkpt>
      <trkpt lat="50.201386995613575" lon="-4.999294029548764">
        <ele>10.710000000000001</ele>
        <time>2026-06-23T13:02:49Z</time>
      </trkpt>
      <trkpt lat="50.2010109834373" lon="-4.999719997867942">
        <ele>5.42</ele>
        <time>2026-06-23T13:02:54Z</time>
      </trkpt>
      <trkpt lat="50.200929008424282" lon="-4.999816976487637">
        <ele>4.46</ele>
        <time>2026-06-23T13:02:55Z</time>
      </trkpt>
      <trkpt lat="50.200857007876039" lon="-4.99995100311935">
        <ele>4.46</ele>
        <time>2026-06-23T13:02:56Z</time>
      </trkpt>
      <trkpt lat="50.200761035084724" lon="-5.000130962580442">
        <ele>4.46</ele>
        <time>2026-06-23T13:02:57Z</time>
      </trkpt>
      <trkpt lat="50.200719963759184" lon="-5.000286027789116">
        <ele>4.94</ele>
        <time>2026-06-23T13:02:58Z</time>
      </trkpt>
      <trkpt lat="50.200670007616282" lon="-5.000479985028505">
        <ele>5.91</ele>
        <time>2026-06-23T13:02:59Z</time>
      </trkpt>
      <trkpt lat="50.200523994863033" lon="-5.001034028828144">
        <ele>7.83</ele>
        <time>2026-06-23T13:03:02Z</time>
      </trkpt>
      <trkpt lat="50.200484013184905" lon="-5.001186998561025">
        <ele>8.789999999999999</ele>
        <time>2026-06-23T13:03:03Z</time>
      </trkpt>
      <trkpt lat="50.200416035950184" lon="-5.001539038494229">
        <ele>10.710000000000001</ele>
        <time>2026-06-23T13:03:05Z</time>
      </trkpt>
      <trkpt lat="50.200413018465042" lon="-5.001738024875522">
        <ele>11.67</ele>
        <time>2026-06-23T13:03:06Z</time>
      </trkpt>
      <trkpt lat="50.200327020138502" lon="-5.003477018326521">
        <ele>25.129999999999999</ele>
        <time>2026-06-23T13:03:14Z</time>
      </trkpt>
      <trkpt lat="50.200316961854696" lon="-5.003763008862734">
        <ele>28.98</ele>
        <time>2026-06-23T13:03:16Z</time>
      </trkpt>
      <trkpt lat="50.200335988774896" lon="-5.004061991348863">
        <ele>33.780000000000001</ele>
        <time>2026-06-23T13:03:18Z</time>
      </trkpt>
      <trkpt lat="50.200347974896431" lon="-5.004249997437">
        <ele>35.710000000000001</ele>
        <time>2026-06-23T13:03:19Z</time>
      </trkpt>
      <trkpt lat="50.200264994055033" lon="-5.005776006728411">
        <ele>46.759999999999998</ele>
        <time>2026-06-23T13:03:26Z</time>
      </trkpt>
      <trkpt lat="50.200196010991931" lon="-5.006502969190478">
        <ele>50.609999999999999</ele>
        <time>2026-06-23T13:03:30Z</time>
      </trkpt>
      <trkpt lat="50.200092997401953" lon="-5.006975959986448">
        <ele>51.57</ele>
        <time>2026-06-23T13:03:33Z</time>
      </trkpt>
      <trkpt lat="50.200051004067063" lon="-5.007132031023502">
        <ele>52.049999999999997</ele>
        <time>2026-06-23T13:03:34Z</time>
      </trkpt>
      <trkpt lat="50.199832990765572" lon="-5.007926970720291">
        <ele>54.93</ele>
        <time>2026-06-23T13:03:39Z</time>
      </trkpt>
      <trkpt lat="50.199812036007643" lon="-5.008050017058849">
        <ele>55.409999999999997</ele>
        <time>2026-06-23T13:03:40Z</time>
      </trkpt>
      <trkpt lat="50.199794014915824" lon="-5.008292002603412">
        <ele>56.369999999999997</ele>
        <time>2026-06-23T13:03:42Z</time>
      </trkpt>
      <trkpt lat="50.19978697411716" lon="-5.008387975394726">
        <ele>56.859999999999999</ele>
        <time>2026-06-23T13:03:43Z</time>
      </trkpt>
      <trkpt lat="50.199766019359231" lon="-5.008660973981023">
        <ele>58.299999999999997</ele>
        <time>2026-06-23T13:03:47Z</time>
      </trkpt>
      <trkpt lat="50.199752021580935" lon="-5.008843028917909">
        <ele>60.219999999999999</ele>
        <time>2026-06-23T13:03:51Z</time>
      </trkpt>
      <trkpt lat="50.199769958853722" lon="-5.008916035294533">
        <ele>60.700000000000003</ele>
        <time>2026-06-23T13:03:52Z</time>
      </trkpt>
      <trkpt lat="50.199797032400966" lon="-5.009025000035763">
        <ele>60.700000000000003</ele>
        <time>2026-06-23T13:03:53Z</time>
      </trkpt>
      <trkpt lat="50.200081011280417" lon="-5.010228976607323">
        <ele>62.140000000000001</ele>
        <time>2026-06-23T13:04:00Z</time>
      </trkpt>
      <trkpt lat="50.20010800100863" lon="-5.010457970201969">
        <ele>62.619999999999997</ele>
        <time>2026-06-23T13:04:01Z</time>
      </trkpt>
      <trkpt lat="50.20010800100863" lon="-5.010704984888434">
        <ele>63.579999999999998</ele>
        <time>2026-06-23T13:04:02Z</time>
      </trkpt>
      <trkpt lat="50.20008897408843" lon="-5.01159799285233">
        <ele>65.989999999999995</ele>
        <time>2026-06-23T13:04:06Z</time>
      </trkpt>
      <trkpt lat="50.200120992958546" lon="-5.011793961748481">
        <ele>65.989999999999995</ele>
        <time>2026-06-23T13:04:07Z</time>
      </trkpt>
      <trkpt lat="50.200181007385254" lon="-5.011972999200225">
        <ele>66.469999999999999</ele>
        <time>2026-06-23T13:04:08Z</time>
      </trkpt>
      <trkpt lat="50.200255019590259" lon="-5.012123035266995">
        <ele>66.950000000000003</ele>
        <time>2026-06-23T13:04:09Z</time>
      </trkpt>
      <trkpt lat="50.200331965461373" lon="-5.012276004999876">
        <ele>67.430000000000007</ele>
        <time>2026-06-23T13:04:10Z</time>
      </trkpt>
      <trkpt lat="50.200431039556861" lon="-5.012381030246615">
        <ele>67.909999999999997</ele>
        <time>2026-06-23T13:04:11Z</time>
      </trkpt>
      <trkpt lat="50.200546961277723" lon="-5.012501981109381">
        <ele>68.390000000000001</ele>
        <time>2026-06-23T13:04:12Z</time>
      </trkpt>
      <trkpt lat="50.200665984302759" lon="-5.0126270391047">
        <ele>68.390000000000001</ele>
        <time>2026-06-23T13:04:13Z</time>
      </trkpt>
      <trkpt lat="50.201631998643279" lon="-5.013879965990782">
        <ele>66.950000000000003</ele>
        <time>2026-06-23T13:04:22Z</time>
      </trkpt>
      <trkpt lat="50.202157963067293" lon="-5.014735003933311">
        <ele>65.030000000000001</ele>
        <time>2026-06-23T13:04:27Z</time>
      </trkpt>
      <trkpt lat="50.202275980263948" lon="-5.014856960624456">
        <ele>64.549999999999997</ele>
        <time>2026-06-23T13:04:28Z</time>
      </trkpt>
      <trkpt lat="50.202400032430887" lon="-5.014973971992731">
        <ele>64.549999999999997</ele>
        <time>2026-06-23T13:04:29Z</time>
      </trkpt>
      <trkpt lat="50.202530035749078" lon="-5.015080003067851">
        <ele>64.549999999999997</ele>
        <time>2026-06-23T13:04:30Z</time>
      </trkpt>
      <trkpt lat="50.202673031017184" lon="-5.015147980302572">
        <ele>65.030000000000001</ele>
        <time>2026-06-23T13:04:31Z</time>
      </trkpt>
      <trkpt lat="50.202820971608162" lon="-5.015218975022435">
        <ele>65.510000000000005</ele>
        <time>2026-06-23T13:04:32Z</time>
      </trkpt>
      <trkpt lat="50.204378999769688" lon="-5.015963036566973">
        <ele>73.200000000000003</ele>
        <time>2026-06-23T13:04:43Z</time>
      </trkpt>
      <trkpt lat="50.20561097189784" lon="-5.016256989911199">
        <ele>77.519999999999996</ele>
        <time>2026-06-23T13:04:51Z</time>
      </trkpt>
      <trkpt lat="50.207248963415623" lon="-5.016075018793345">
        <ele>82.329999999999998</ele>
        <time>2026-06-23T13:05:02Z</time>
      </trkpt>
      <trkpt lat="50.20868101157248" lon="-5.015188967809081">
        <ele>81.849999999999994</ele>
        <time>2026-06-23T13:05:12Z</time>
      </trkpt>
      <trkpt lat="50.209639985114336" lon="-5.014207027852535">
        <ele>78.969999999999999</ele>
        <time>2026-06-23T13:05:20Z</time>
      </trkpt>
      <trkpt lat="50.209908038377762" lon="-5.013893963769078">
        <ele>78.480000000000004</ele>
        <time>2026-06-23T13:05:23Z</time>
      </trkpt>
      <trkpt lat="50.209980038926005" lon="-5.013808971270919">
        <ele>78</ele>
        <time>2026-06-23T13:05:24Z</time>
      </trkpt>
      <trkpt lat="50.210057990625501" lon="-5.013803020119667">
        <ele>77.519999999999996</ele>
        <time>2026-06-23T13:05:25Z</time>
      </trkpt>
      <trkpt lat="50.210152035579085" lon="-5.013807965442538">
        <ele>77.040000000000006</ele>
        <time>2026-06-23T13:05:26Z</time>
      </trkpt>
      <trkpt lat="50.210258988663554" lon="-5.013812994584441">
        <ele>76.560000000000002</ele>
        <time>2026-06-23T13:05:27Z</time>
      </trkpt>
      <trkpt lat="50.211450979113579" lon="-5.01415497623384">
        <ele>77.519999999999996</ele>
        <time>2026-06-23T13:05:36Z</time>
      </trkpt>
      <trkpt lat="50.212373994290829" lon="-5.01441003754735">
        <ele>80.890000000000001</ele>
        <time>2026-06-23T13:05:43Z</time>
      </trkpt>
      <trkpt lat="50.213740998879075" lon="-5.014407020062208">
        <ele>82.329999999999998</ele>
        <time>2026-06-23T13:05:54Z</time>
      </trkpt>
      <trkpt lat="50.213982984423637" lon="-5.014481032267213">
        <ele>82.329999999999998</ele>
        <time>2026-06-23T13:05:58Z</time>
      </trkpt>
      <trkpt lat="50.214020032435656" lon="-5.014527970924974">
        <ele>82.329999999999998</ele>
        <time>2026-06-23T13:05:59Z</time>
      </trkpt>
      <trkpt lat="50.214032018557191" lon="-5.014588991180062">
        <ele>81.849999999999994</ele>
        <time>2026-06-23T13:06:00Z</time>
      </trkpt>
      <trkpt lat="50.214049033820629" lon="-5.01469099894166">
        <ele>81.849999999999994</ele>
        <time>2026-06-23T13:06:01Z</time>
      </trkpt>
      <trkpt lat="50.214062025770545" lon="-5.014825025573373">
        <ele>81.849999999999994</ele>
        <time>2026-06-23T13:06:02Z</time>
      </trkpt>
      <trkpt lat="50.21405003964901" lon="-5.014982018619776">
        <ele>81.370000000000005</ele>
        <time>2026-06-23T13:06:03Z</time>
      </trkpt>
      <trkpt lat="50.214037969708443" lon="-5.015150997787714">
        <ele>80.890000000000001</ele>
        <time>2026-06-23T13:06:04Z</time>
      </trkpt>
      <trkpt lat="50.21392397582531" lon="-5.016693016514182">
        <ele>73.200000000000003</ele>
        <time>2026-06-23T13:06:12Z</time>
      </trkpt>
      <trkpt lat="50.213961023837328" lon="-5.017272038385272">
        <ele>68.870000000000005</ele>
        <time>2026-06-23T13:06:15Z</time>
      </trkpt>
      <trkpt lat="50.214128997176886" lon="-5.018220031633973">
        <ele>59.259999999999998</ele>
        <time>2026-06-23T13:06:21Z</time>
      </trkpt>
      <trkpt lat="50.214179959148169" lon="-5.01827803440392">
        <ele>57.82</ele>
        <time>2026-06-23T13:06:22Z</time>
      </trkpt>
      <trkpt lat="50.214229999110103" lon="-5.018335031345487">
        <ele>55.890000000000001</ele>
        <time>2026-06-23T13:06:23Z</time>
      </trkpt>
      <trkpt lat="50.214279033243656" lon="-5.018392028287053">
        <ele>54.450000000000003</ele>
        <time>2026-06-23T13:06:24Z</time>
      </trkpt>
      <trkpt lat="50.214339969679713" lon="-5.018378030508757">
        <ele>52.530000000000001</ele>
        <time>2026-06-23T13:06:25Z</time>
      </trkpt>
      <trkpt lat="50.214427979663014" lon="-5.018356991931796">
        <ele>51.090000000000003</ele>
        <time>2026-06-23T13:06:26Z</time>
      </trkpt>
      <trkpt lat="50.214509032666683" lon="-5.018338970839977">
        <ele>49.159999999999997</ele>
        <time>2026-06-23T13:06:27Z</time>
      </trkpt>
      <trkpt lat="50.21458899602294" lon="-5.018341988325119">
        <ele>47.719999999999999</ele>
        <time>2026-06-23T13:06:28Z</time>
      </trkpt>
      <trkpt lat="50.214658984914422" lon="-5.018378030508757">
        <ele>45.799999999999997</ele>
        <time>2026-06-23T13:06:29Z</time>
      </trkpt>
      <trkpt lat="50.214721010997891" lon="-5.018464028835297">
        <ele>44.359999999999999</ele>
        <time>2026-06-23T13:06:30Z</time>
      </trkpt>
      <trkpt lat="50.214766021817923" lon="-5.018563019111753">
        <ele>42.920000000000002</ele>
        <time>2026-06-23T13:06:31Z</time>
      </trkpt>
      <trkpt lat="50.214813966304064" lon="-5.018684975802898">
        <ele>41.469999999999999</ele>
        <time>2026-06-23T13:06:32Z</time>
      </trkpt>
      <trkpt lat="50.21480399183929" lon="-5.018788995221257">
        <ele>40.030000000000001</ele>
        <time>2026-06-23T13:06:33Z</time>
      </trkpt>
      <trkpt lat="50.214793011546135" lon="-5.018892008811235">
        <ele>39.07</ele>
        <time>2026-06-23T13:06:34Z</time>
      </trkpt>
      <trkpt lat="50.214771972969174" lon="-5.018982030451298">
        <ele>38.109999999999999</ele>
        <time>2026-06-23T13:06:35Z</time>
      </trkpt>
      <trkpt lat="50.214750012382865" lon="-5.019080014899373">
        <ele>37.630000000000003</ele>
        <time>2026-06-23T13:06:36Z</time>
      </trkpt>
      <trkpt lat="50.214723022654653" lon="-5.01920398324728">
        <ele>36.670000000000002</ele>
        <time>2026-06-23T13:06:37Z</time>
      </trkpt>
      <trkpt lat="50.214689997956157" lon="-5.019348990172148">
        <ele>35.710000000000001</ele>
        <time>2026-06-23T13:06:38Z</time>
      </trkpt>
      <trkpt lat="50.214603999629617" lon="-5.019849976524711">
        <ele>31.379999999999999</ele>
        <time>2026-06-23T13:06:41Z</time>
      </trkpt>
      <trkpt lat="50.21460902877152" lon="-5.020031025633216">
        <ele>29.940000000000001</ele>
        <time>2026-06-23T13:06:42Z</time>
      </trkpt>
      <trkpt lat="50.21463199518621" lon="-5.020615998655558">
        <ele>24.649999999999999</ele>
        <time>2026-06-23T13:06:45Z</time>
      </trkpt>
      <trkpt lat="50.214775996282697" lon="-5.021490985527635">
        <ele>15.52</ele>
        <time>2026-06-23T13:06:50Z</time>
      </trkpt>
      <trkpt lat="50.214836010709405" lon="-5.021858029067516">
        <ele>11.19</ele>
        <time>2026-06-23T13:06:52Z</time>
      </trkpt>
      <trkpt lat="50.21486702375114" lon="-5.022044023498893">
        <ele>8.789999999999999</ele>
        <time>2026-06-23T13:06:53Z</time>
      </trkpt>
      <trkpt lat="50.214898036792874" lon="-5.02223202958703">
        <ele>6.39</ele>
        <time>2026-06-23T13:06:54Z</time>
      </trkpt>
      <trkpt lat="50.21512501873076" lon="-5.023624012246728">
        <ele>-9</ele>
        <time>2026-06-23T13:07:02Z</time>
      </trkpt>
      <trkpt lat="50.21514798514545" lon="-5.023772036656737">
        <ele>-10.92</ele>
        <time>2026-06-23T13:07:03Z</time>
      </trkpt>
      <trkpt lat="50.21516902372241" lon="-5.023905979469419">
        <ele>-12.359999999999999</ele>
        <time>2026-06-23T13:07:04Z</time>
      </trkpt>
      <trkpt lat="50.215201964601874" lon="-5.024120975285769">
        <ele>-13.800000000000001</ele>
        <time>2026-06-23T13:07:05Z</time>
      </trkpt>
      <trkpt lat="50.215227026492357" lon="-5.024152994155884">
        <ele>-14.76</ele>
        <time>2026-06-23T13:07:06Z</time>
      </trkpt>
      <trkpt lat="50.215268013998866" lon="-5.024205967783928">
        <ele>-15.720000000000001</ele>
        <time>2026-06-23T13:07:07Z</time>
      </trkpt>
      <trkpt lat="50.215352000668645" lon="-5.024314010515809">
        <ele>-17.649999999999999</ele>
        <time>2026-06-23T13:07:09Z</time>
      </trkpt>
      <trkpt lat="50.215352000668645" lon="-5.024314010515809">
        <ele>-18.609999999999999</ele>
        <time>2026-06-23T13:07:23Z</time>
      </trkpt>
      <trkpt lat="50.215352000668645" lon="-5.024314010515809">
        <ele>-19.09</ele>
        <time>2026-06-23T13:08:08Z</time>
      </trkpt>
      <trkpt lat="50.215352000668645" lon="-5.024314010515809">
        <ele>-18.609999999999999</ele>
        <time>2026-06-23T13:09:09Z</time>
      </trkpt>
      <trkpt lat="50.215530032292008" lon="-5.024394979700446">
        <ele>-14.279999999999999</ele>
        <time>2026-06-23T13:09:40Z</time>
      </trkpt>
      <trkpt lat="50.215739998966455" lon="-5.024449964985251">
        <ele>-13.800000000000001</ele>
        <time>2026-06-23T13:09:44Z</time>
      </trkpt>
      <trkpt lat="50.215788027271628" lon="-5.024459017440677">
        <ele>-13.800000000000001</ele>
        <time>2026-06-23T13:09:45Z</time>
      </trkpt>
      <trkpt lat="50.215951977297664" lon="-5.024489024654031">
        <ele>-14.76</ele>
        <time>2026-06-23T13:09:49Z</time>
      </trkpt>
      <trkpt lat="50.21598600782454" lon="-5.024495981633663">
        <ele>-15.720000000000001</ele>
        <time>2026-06-23T13:09:50Z</time>
      </trkpt>
      <trkpt lat="50.216252971440554" lon="-5.024546021595597">
        <ele>-20.050000000000001</ele>
        <time>2026-06-23T13:09:59Z</time>
      </trkpt>
      <trkpt lat="50.216271998360753" lon="-5.024549039080739">
        <ele>-20.050000000000001</ele>
        <time>2026-06-23T13:10:00Z</time>
      </trkpt>
      <trkpt lat="50.216296976432204" lon="-5.024555996060371">
        <ele>-20.530000000000001</ele>
        <time>2026-06-23T13:10:01Z</time>
      </trkpt>
      <trkpt lat="50.216331006959081" lon="-5.024563958868384">
        <ele>-20.530000000000001</ele>
        <time>2026-06-23T13:10:02Z</time>
      </trkpt>
      <trkpt lat="50.216362020000815" lon="-5.024572005495429">
        <ele>-20.050000000000001</ele>
        <time>2026-06-23T13:10:03Z</time>
      </trkpt>
      <trkpt lat="50.216390015557408" lon="-5.024578962475061">
        <ele>-20.530000000000001</ele>
        <time>2026-06-23T13:10:04Z</time>
      </trkpt>
      <trkpt lat="50.216421028599143" lon="-5.024587009102106">
        <ele>-20.530000000000001</ele>
        <time>2026-06-23T13:10:05Z</time>
      </trkpt>
      <trkpt lat="50.216448018327355" lon="-5.024592960253358">
        <ele>-21.010000000000002</ele>
        <time>2026-06-23T13:10:06Z</time>
      </trkpt>
      <trkpt lat="50.216467967256904" lon="-5.024597989395261">
        <ele>-21.010000000000002</ele>
        <time>2026-06-23T13:10:07Z</time>
      </trkpt>
      <trkpt lat="50.216485988348722" lon="-5.024603018537164">
        <ele>-21.010000000000002</ele>
        <time>2026-06-23T13:10:08Z</time>
      </trkpt>
      <trkpt lat="50.216485988348722" lon="-5.024603018537164">
        <ele>-21.969999999999999</ele>
        <time>2026-06-23T13:10:20Z</time>
      </trkpt>
      <trkpt lat="50.216485988348722" lon="-5.024603018537164">
        <ele>-21.489999999999998</ele>
        <time>2026-06-23T13:10:30Z</time>
      </trkpt>
      <trkpt lat="50.216725040227175" lon="-5.025237025693059">
        <ele>-18.609999999999999</ele>
        <time>2026-06-23T13:10:38Z</time>
      </trkpt>
      <trkpt lat="50.216725962236524" lon="-5.025279019027948">
        <ele>-18.129999999999999</ele>
        <time>2026-06-23T13:10:39Z</time>
      </trkpt>
      <trkpt lat="50.216727973893285" lon="-5.02534800209105">
        <ele>-17.649999999999999</ele>
        <time>2026-06-23T13:10:40Z</time>
      </trkpt>
      <trkpt lat="50.216727973893285" lon="-5.025393012911081">
        <ele>-17.649999999999999</ele>
        <time>2026-06-23T13:10:41Z</time>
      </trkpt>
      <trkpt lat="50.216727973893285" lon="-5.025393012911081">
        <ele>-17.170000000000002</ele>
        <time>2026-06-23T13:10:55Z</time>
      </trkpt>
      <trkpt lat="50.216727973893285" lon="-5.025393012911081">
        <ele>-16.210000000000001</ele>
        <time>2026-06-23T13:11:51Z</time>
      </trkpt>
      <trkpt lat="50.216727973893285" lon="-5.025393012911081">
        <ele>-13.32</ele>
        <time>2026-06-23T13:12:50Z</time>
      </trkpt>
      <trkpt lat="50.216727973893285" lon="-5.025393012911081">
        <ele>-11.880000000000001</ele>
        <time>2026-06-23T13:13:35Z</time>
      </trkpt>
      <trkpt lat="50.216727973893285" lon="-5.025393012911081">
        <ele>-11.4</ele>
        <time>2026-06-23T13:14:23Z</time>
      </trkpt>
      <trkpt lat="50.216727973893285" lon="-5.025393012911081">
        <ele>-11.4</ele>
        <time>2026-06-23T13:15:11Z</time>
      </trkpt>
      <trkpt lat="50.216727973893285" lon="-5.025393012911081">
        <ele>-10.92</ele>
        <time>2026-06-23T13:16:00Z</time>
      </trkpt>
      <trkpt lat="50.216756975278258" lon="-5.026855990290642">
        <ele>9.75</ele>
        <time>2026-06-23T13:16:49Z</time>
      </trkpt>
      <trkpt lat="50.216784970834851" lon="-5.028254007920623">
        <ele>5.91</ele>
        <time>2026-06-23T13:17:31Z</time>
      </trkpt>
      <trkpt lat="50.216784970834851" lon="-5.028274040669203">
        <ele>6.39</ele>
        <time>2026-06-23T13:17:59Z</time>
      </trkpt>
      <trkpt lat="50.216785976663232" lon="-5.028322990983725">
        <ele>5.91</ele>
        <time>2026-06-23T13:18:00Z</time>
      </trkpt>
      <trkpt lat="50.216811038553715" lon="-5.028670001775026">
        <ele>7.35</ele>
        <time>2026-06-23T13:18:05Z</time>
      </trkpt>
      <trkpt lat="50.216811038553715" lon="-5.028670001775026">
        <ele>7.35</ele>
        <time>2026-06-23T13:18:06Z</time>
      </trkpt>
      <trkpt lat="50.216811038553715" lon="-5.028670001775026">
        <ele>6.87</ele>
        <time>2026-06-23T13:18:07Z</time>
      </trkpt>
      <trkpt lat="50.216817995533347" lon="-5.02865600399673">
        <ele>6.39</ele>
        <time>2026-06-23T13:18:08Z</time>
      </trkpt>
      <trkpt lat="50.21684599108994" lon="-5.028594983741641">
        <ele>5.91</ele>
        <time>2026-06-23T13:18:09Z</time>
      </trkpt>
      <trkpt lat="50.216879015788436" lon="-5.028521977365017">
        <ele>5.91</ele>
        <time>2026-06-23T13:18:10Z</time>
      </trkpt>
      <trkpt lat="50.21693198941648" lon="-5.028407983481884">
        <ele>4.94</ele>
        <time>2026-06-23T13:18:12Z</time>
      </trkpt>
      <trkpt lat="50.216973982751369" lon="-5.028402032330632">
        <ele>4.94</ele>
        <time>2026-06-23T13:18:13Z</time>
      </trkpt>
      <trkpt lat="50.216998038813472" lon="-5.028409995138645">
        <ele>4.94</ele>
        <time>2026-06-23T13:18:14Z</time>
      </trkpt>
      <trkpt lat="50.216994015499949" lon="-5.02848400734365">
        <ele>4.94</ele>
        <time>2026-06-23T13:18:15Z</time>
      </trkpt>
      <trkpt lat="50.216984041035175" lon="-5.028547961264849">
        <ele>4.46</ele>
        <time>2026-06-23T13:18:16Z</time>
      </trkpt>
      <trkpt lat="50.216971971094608" lon="-5.028628008440137">
        <ele>4.46</ele>
        <time>2026-06-23T13:18:17Z</time>
      </trkpt>
      <trkpt lat="50.216957973316312" lon="-5.028720963746309">
        <ele>4.46</ele>
        <time>2026-06-23T13:18:18Z</time>
      </trkpt>
      <trkpt lat="50.216941963881254" lon="-5.028822971507907">
        <ele>3.98</ele>
        <time>2026-06-23T13:18:19Z</time>
      </trkpt>
      <trkpt lat="50.216926038265228" lon="-5.028931014239788">
        <ele>3.98</ele>
        <time>2026-06-23T13:18:20Z</time>
      </trkpt>
      <trkpt lat="50.216838028281927" lon="-5.029517998918891">
        <ele>4.46</ele>
        <time>2026-06-23T13:18:25Z</time>
      </trkpt>
      <trkpt lat="50.216811038553715" lon="-5.029613971710205">
        <ele>5.42</ele>
        <time>2026-06-23T13:18:26Z</time>
      </trkpt>
      <trkpt lat="50.216789999976754" lon="-5.029699970036745">
        <ele>6.39</ele>
        <time>2026-06-23T13:18:27Z</time>
      </trkpt>
      <trkpt lat="50.216789999976754" lon="-5.029832990840077">
        <ele>7.35</ele>
        <time>2026-06-23T13:18:28Z</time>
      </trkpt>
      <trkpt lat="50.216789999976754" lon="-5.029941033571959">
        <ele>8.310000000000001</ele>
        <time>2026-06-23T13:18:29Z</time>
      </trkpt>
      <trkpt lat="50.216789999976754" lon="-5.030086040496826">
        <ele>9.27</ele>
        <time>2026-06-23T13:18:30Z</time>
      </trkpt>
      <trkpt lat="50.216809026896954" lon="-5.030164998024702">
        <ele>10.23</ele>
        <time>2026-06-23T13:18:31Z</time>
      </trkpt>
      <trkpt lat="50.216840039938688" lon="-5.030285026878119">
        <ele>11.67</ele>
        <time>2026-06-23T13:18:32Z</time>
      </trkpt>
      <trkpt lat="50.216869963333011" lon="-5.030406983569264">
        <ele>12.15</ele>
        <time>2026-06-23T13:18:33Z</time>
      </trkpt>
      <trkpt lat="50.216901982203126" lon="-5.030535981059074">
        <ele>13.119999999999999</ele>
        <time>2026-06-23T13:18:34Z</time>
      </trkpt>
      <trkpt lat="50.216940036043525" lon="-5.030665984377265">
        <ele>14.08</ele>
        <time>2026-06-23T13:18:35Z</time>
      </trkpt>
      <trkpt lat="50.216984041035175" lon="-5.030790958553553">
        <ele>15.039999999999999</ele>
        <time>2026-06-23T13:18:36Z</time>
      </trkpt>
      <trkpt lat="50.217030979692936" lon="-5.030921967700124">
        <ele>16</ele>
        <time>2026-06-23T13:18:37Z</time>
      </trkpt>
      <trkpt lat="50.217066016048193" lon="-5.031064040958881">
        <ele>16.48</ele>
        <time>2026-06-23T13:18:38Z</time>
      </trkpt>
      <trkpt lat="50.217101974412799" lon="-5.031207958236337">
        <ele>17.440000000000001</ele>
        <time>2026-06-23T13:18:39Z</time>
      </trkpt>
      <trkpt lat="50.217131981626153" lon="-5.031349025666714">
        <ele>17.920000000000002</ele>
        <time>2026-06-23T13:18:40Z</time>
      </trkpt>
      <trkpt lat="50.217234995216131" lon="-5.03194103948772">
        <ele>20.809999999999999</ele>
        <time>2026-06-23T13:18:44Z</time>
      </trkpt>
      <trkpt lat="50.217265002429485" lon="-5.032240021973848">
        <ele>21.77</ele>
        <time>2026-06-23T13:18:46Z</time>
      </trkpt>
      <trkpt lat="50.217228960245848" lon="-5.033464031293988">
        <ele>27.050000000000001</ele>
        <time>2026-06-23T13:18:53Z</time>
      </trkpt>
      <trkpt lat="50.217228038236499" lon="-5.033729989081621">
        <ele>28.5</ele>
        <time>2026-06-23T13:18:55Z</time>
      </trkpt>
      <trkpt lat="50.217242036014795" lon="-5.033868039026856">
        <ele>28.98</ele>
        <time>2026-06-23T13:18:56Z</time>
      </trkpt>
      <trkpt lat="50.217257039621472" lon="-5.034012962132692">
        <ele>29.940000000000001</ele>
        <time>2026-06-23T13:18:57Z</time>
      </trkpt>
      <trkpt lat="50.217295009642839" lon="-5.034156041219831">
        <ele>30.420000000000002</ele>
        <time>2026-06-23T13:18:58Z</time>
      </trkpt>
      <trkpt lat="50.217346977442503" lon="-5.034312028437853">
        <ele>30.899999999999999</ele>
        <time>2026-06-23T13:18:59Z</time>
      </trkpt>
      <trkpt lat="50.217402968555689" lon="-5.03447899594903">
        <ele>31.859999999999999</ele>
        <time>2026-06-23T13:19:00Z</time>
      </trkpt>
      <trkpt lat="50.217937985435128" lon="-5.035820016637445">
        <ele>40.030000000000001</ele>
        <time>2026-06-23T13:19:07Z</time>
      </trkpt>
      <trkpt lat="50.218182988464832" lon="-5.036526024341583">
        <ele>43.399999999999999</ele>
        <time>2026-06-23T13:19:11Z</time>
      </trkpt>
      <trkpt lat="50.218212995678186" lon="-5.036716964095831">
        <ele>44.359999999999999</ele>
        <time>2026-06-23T13:19:12Z</time>
      </trkpt>
      <trkpt lat="50.218231016770005" lon="-5.036923997104168">
        <ele>44.359999999999999</ele>
        <time>2026-06-23T13:19:13Z</time>
      </trkpt>
      <trkpt lat="50.218402007594705" lon="-5.039625987410545">
        <ele>51.090000000000003</ele>
        <time>2026-06-23T13:19:24Z</time>
      </trkpt>
      <trkpt lat="50.218405025079846" lon="-5.040337024256587">
        <ele>53.490000000000002</ele>
        <time>2026-06-23T13:19:27Z</time>
      </trkpt>
      <trkpt lat="50.21839396096766" lon="-5.040563000366092">
        <ele>54.450000000000003</ele>
        <time>2026-06-23T13:19:28Z</time>
      </trkpt>
      <trkpt lat="50.218105958774686" lon="-5.042610028758645">
        <ele>55.890000000000001</ele>
        <time>2026-06-23T13:19:37Z</time>
      </trkpt>
      <trkpt lat="50.217754002660513" lon="-5.044837016612291">
        <ele>55.409999999999997</ele>
        <time>2026-06-23T13:19:47Z</time>
      </trkpt>
      <trkpt lat="50.217527020722628" lon="-5.046874992549419">
        <ele>58.780000000000001</ele>
        <time>2026-06-23T13:19:56Z</time>
      </trkpt>
      <trkpt lat="50.217530038207769" lon="-5.048279967159033">
        <ele>64.069999999999993</ele>
        <time>2026-06-23T13:20:03Z</time>
      </trkpt>
      <trkpt lat="50.217535989359021" lon="-5.048413993790746">
        <ele>64.069999999999993</ele>
        <time>2026-06-23T13:20:04Z</time>
      </trkpt>
      <trkpt lat="50.217541018500924" lon="-5.048539973795414">
        <ele>64.549999999999997</ele>
        <time>2026-06-23T13:20:05Z</time>
      </trkpt>
      <trkpt lat="50.217547975480556" lon="-5.048670982941985">
        <ele>64.549999999999997</ele>
        <time>2026-06-23T13:20:06Z</time>
      </trkpt>
      <trkpt lat="50.217572031542659" lon="-5.049097035080195">
        <ele>65.030000000000001</ele>
        <time>2026-06-23T13:20:09Z</time>
      </trkpt>
      <trkpt lat="50.217608995735645" lon="-5.049758031964302">
        <ele>62.140000000000001</ele>
        <time>2026-06-23T13:20:12Z</time>
      </trkpt>
      <trkpt lat="50.217642020434141" lon="-5.050330013036728">
        <ele>58.299999999999997</ele>
        <time>2026-06-23T13:20:14Z</time>
      </trkpt>
      <trkpt lat="50.217742016538978" lon="-5.052085015922785">
        <ele>48.68</ele>
        <time>2026-06-23T13:20:21Z</time>
      </trkpt>
      <trkpt lat="50.217829020693898" lon="-5.053457971662283">
        <ele>43.399999999999999</ele>
        <time>2026-06-23T13:20:28Z</time>
      </trkpt>
      <trkpt lat="50.217842012643814" lon="-5.053657963871956">
        <ele>42.920000000000002</ele>
        <time>2026-06-23T13:20:29Z</time>
      </trkpt>
      <trkpt lat="50.217978972941637" lon="-5.055851005017757">
        <ele>47.240000000000002</ele>
        <time>2026-06-23T13:20:40Z</time>
      </trkpt>
      <trkpt lat="50.218161027878523" lon="-5.057840030640364">
        <ele>52.049999999999997</ele>
        <time>2026-06-23T13:20:51Z</time>
      </trkpt>
      <trkpt lat="50.218183994293213" lon="-5.058009009808302">
        <ele>52.049999999999997</ele>
        <time>2026-06-23T13:20:52Z</time>
      </trkpt>
      <trkpt lat="50.218209978193045" lon="-5.058188969269395">
        <ele>52.530000000000001</ele>
        <time>2026-06-23T13:20:53Z</time>
      </trkpt>
      <trkpt lat="50.218354985117912" lon="-5.059223966673017">
        <ele>51.57</ele>
        <time>2026-06-23T13:20:59Z</time>
      </trkpt>
      <trkpt lat="50.218416005373001" lon="-5.059664016589522">
        <ele>50.609999999999999</ele>
        <time>2026-06-23T13:21:03Z</time>
      </trkpt>
      <trkpt lat="50.218425979837775" lon="-5.059732999652624">
        <ele>49.649999999999999</ele>
        <time>2026-06-23T13:21:08Z</time>
      </trkpt>
      <trkpt lat="50.218441989272833" lon="-5.059847999364138">
        <ele>48.68</ele>
        <time>2026-06-23T13:21:18Z</time>
      </trkpt>
      <trkpt lat="50.218481970950961" lon="-5.059857973828912">
        <ele>48.68</ele>
        <time>2026-06-23T13:21:19Z</time>
      </trkpt>
      <trkpt lat="50.218532010912895" lon="-5.059871971607208">
        <ele>48.68</ele>
        <time>2026-06-23T13:21:20Z</time>
      </trkpt>
      <trkpt lat="50.218598982319236" lon="-5.059888986870647">
        <ele>48.200000000000003</ele>
        <time>2026-06-23T13:21:21Z</time>
      </trkpt>
      <trkpt lat="50.218682968989015" lon="-5.059911031275988">
        <ele>48.68</ele>
        <time>2026-06-23T13:21:22Z</time>
      </trkpt>
      <trkpt lat="50.219556028023362" lon="-5.060141030699015">
        <ele>50.609999999999999</ele>
        <time>2026-06-23T13:21:29Z</time>
      </trkpt>
      <trkpt lat="50.220850026234984" lon="-5.060430960729718">
        <ele>52.049999999999997</ele>
        <time>2026-06-23T13:21:38Z</time>
      </trkpt>
      <trkpt lat="50.221878988668323" lon="-5.060634976252914">
        <ele>59.740000000000002</ele>
        <time>2026-06-23T13:21:46Z</time>
      </trkpt>
      <trkpt lat="50.222134971991181" lon="-5.060686022043228">
        <ele>61.659999999999997</ele>
        <time>2026-06-23T13:21:48Z</time>
      </trkpt>
      <trkpt lat="50.222263969480991" lon="-5.060711000114679">
        <ele>62.619999999999997</ele>
        <time>2026-06-23T13:21:49Z</time>
      </trkpt>
      <trkpt lat="50.223427964374423" lon="-5.061075026169419">
        <ele>69.829999999999998</ele>
        <time>2026-06-23T13:21:57Z</time>
      </trkpt>
      <trkpt lat="50.2237209957093" lon="-5.061212992295623">
        <ele>73.680000000000007</ele>
        <time>2026-06-23T13:22:00Z</time>
      </trkpt>
      <trkpt lat="50.22447201423347" lon="-5.061542987823486">
        <ele>75.120000000000005</ele>
        <time>2026-06-23T13:22:08Z</time>
      </trkpt>
      <trkpt lat="50.224925978109241" lon="-5.061949007213116">
        <ele>76.560000000000002</ele>
        <time>2026-06-23T13:22:13Z</time>
      </trkpt>
      <trkpt lat="50.225377008318901" lon="-5.062370030209422">
        <ele>78.480000000000004</ele>
        <time>2026-06-23T13:22:18Z</time>
      </trkpt>
      <trkpt lat="50.225487984716892" lon="-5.062435995787382">
        <ele>79.450000000000003</ele>
        <time>2026-06-23T13:22:19Z</time>
      </trkpt>
      <trkpt lat="50.226423991844058" lon="-5.062916027382016">
        <ele>88.579999999999998</ele>
        <time>2026-06-23T13:22:27Z</time>
      </trkpt>
      <trkpt lat="50.22760801948607" lon="-5.063940966501832">
        <ele>91.939999999999998</ele>
        <time>2026-06-23T13:22:38Z</time>
      </trkpt>
      <trkpt lat="50.228936970233917" lon="-5.065360022708774">
        <ele>91.459999999999994</ele>
        <time>2026-06-23T13:22:49Z</time>
      </trkpt>
      <trkpt lat="50.22947701625526" lon="-5.066009033471346">
        <ele>91.459999999999994</ele>
        <time>2026-06-23T13:22:54Z</time>
      </trkpt>
      <trkpt lat="50.229566032066941" lon="-5.066186981275678">
        <ele>91.459999999999994</ele>
        <time>2026-06-23T13:22:55Z</time>
      </trkpt>
      <trkpt lat="50.22964901290834" lon="-5.066375993192196">
        <ele>90.980000000000004</ele>
        <time>2026-06-23T13:22:56Z</time>
      </trkpt>
      <trkpt lat="50.23027203977108" lon="-5.067960005253553">
        <ele>87.140000000000001</ele>
        <time>2026-06-23T13:23:05Z</time>
      </trkpt>
      <trkpt lat="50.230922978371382" lon="-5.069611994549632">
        <ele>84.730000000000004</ele>
        <time>2026-06-23T13:23:15Z</time>
      </trkpt>
      <trkpt lat="50.231057005003095" lon="-5.069950958713889">
        <ele>84.25</ele>
        <time>2026-06-23T13:23:17Z</time>
      </trkpt>
      <trkpt lat="50.231531001627445" lon="-5.071199024096131">
        <ele>83.769999999999996</ele>
        <time>2026-06-23T13:23:25Z</time>
      </trkpt>
      <trkpt lat="50.231628986075521" lon="-5.07147797383368">
        <ele>83.769999999999996</ele>
        <time>2026-06-23T13:23:31Z</time>
      </trkpt>
      <trkpt lat="50.231675002723932" lon="-5.071622980758548">
        <ele>83.769999999999996</ele>
        <time>2026-06-23T13:23:41Z</time>
      </trkpt>
      <trkpt lat="50.23169201798737" lon="-5.071675032377243">
        <ele>83.769999999999996</ele>
        <time>2026-06-23T13:23:42Z</time>
      </trkpt>
      <trkpt lat="50.231681037694216" lon="-5.071843005716801">
        <ele>84.25</ele>
        <time>2026-06-23T13:23:43Z</time>
      </trkpt>
      <trkpt lat="50.231681037694216" lon="-5.071877958253026">
        <ele>84.25</ele>
        <time>2026-06-23T13:23:44Z</time>
      </trkpt>
      <trkpt lat="50.231681037694216" lon="-5.071965968236327">
        <ele>84.730000000000004</ele>
        <time>2026-06-23T13:23:45Z</time>
      </trkpt>
      <trkpt lat="50.231696963310242" lon="-5.072046015411615">
        <ele>84.730000000000004</ele>
        <time>2026-06-23T13:23:46Z</time>
      </trkpt>
      <trkpt lat="50.231753038242459" lon="-5.07209999486804">
        <ele>84.730000000000004</ele>
        <time>2026-06-23T13:23:47Z</time>
      </trkpt>
      <trkpt lat="50.231788996607065" lon="-5.07209999486804">
        <ele>85.209999999999994</ele>
        <time>2026-06-23T13:23:48Z</time>
      </trkpt>
      <trkpt lat="50.231839958578348" lon="-5.072015002369881">
        <ele>84.730000000000004</ele>
        <time>2026-06-23T13:23:49Z</time>
      </trkpt>
      <trkpt lat="50.231909025460482" lon="-5.07195096462965">
        <ele>85.209999999999994</ele>
        <time>2026-06-23T13:23:50Z</time>
      </trkpt>
      <trkpt lat="50.231983959674835" lon="-5.071894973516464">
        <ele>85.209999999999994</ele>
        <time>2026-06-23T13:23:51Z</time>
      </trkpt>
      <trkpt lat="50.232063001021743" lon="-5.071834959089756">
        <ele>84.730000000000004</ele>
        <time>2026-06-23T13:23:52Z</time>
      </trkpt>
      <trkpt lat="50.23214397020638" lon="-5.071773016825318">
        <ele>84.730000000000004</ele>
        <time>2026-06-23T13:23:53Z</time>
      </trkpt>
      <trkpt lat="50.232530040666461" lon="-5.07153999991715">
        <ele>83.769999999999996</ele>
        <time>2026-06-23T13:23:58Z</time>
      </trkpt>
      <trkpt lat="50.232607992365956" lon="-5.071504041552544">
        <ele>83.290000000000006</ele>
        <time>2026-06-23T13:23:59Z</time>
      </trkpt>
      <trkpt lat="50.232719974592328" lon="-5.071464981883764">
        <ele>82.810000000000002</ele>
        <time>2026-06-23T13:24:00Z</time>
      </trkpt>
      <trkpt lat="50.232775965705514" lon="-5.07152097299695">
        <ele>82.810000000000002</ele>
        <time>2026-06-23T13:24:01Z</time>
      </trkpt>
      <trkpt lat="50.232861964032054" lon="-5.071499012410641">
        <ele>82.810000000000002</ele>
        <time>2026-06-23T13:24:02Z</time>
      </trkpt>
      <trkpt lat="50.23287596181035" lon="-5.071429023519158">
        <ele>82.329999999999998</ele>
        <time>2026-06-23T13:24:03Z</time>
      </trkpt>
      <trkpt lat="50.232875039801002" lon="-5.07134503684938">
        <ele>82.329999999999998</ele>
        <time>2026-06-23T13:24:04Z</time>
      </trkpt>
      <trkpt lat="50.232860036194324" lon="-5.07126197218895">
        <ele>82.329999999999998</ele>
        <time>2026-06-23T13:24:05Z</time>
      </trkpt>
      <trkpt lat="50.232799015939236" lon="-5.071228025481105">
        <ele>82.329999999999998</ele>
        <time>2026-06-23T13:24:06Z</time>
      </trkpt>
      <trkpt lat="50.232711005955935" lon="-5.071285022422671">
        <ele>82.810000000000002</ele>
        <time>2026-06-23T13:24:07Z</time>
      </trkpt>
      <trkpt lat="50.232659038156271" lon="-5.071307988837361">
        <ele>83.290000000000006</ele>
        <time>2026-06-23T13:24:08Z</time>
      </trkpt>
      <trkpt lat="50.23257203400135" lon="-5.071346964687109">
        <ele>83.769999999999996</ele>
        <time>2026-06-23T13:24:09Z</time>
      </trkpt>
      <trkpt lat="50.232491986826062" lon="-5.07138803601265">
        <ele>83.769999999999996</ele>
        <time>2026-06-23T13:24:10Z</time>
      </trkpt>
      <trkpt lat="50.232425015419722" lon="-5.071432963013649">
        <ele>84.25</ele>
        <time>2026-06-23T13:24:11Z</time>
      </trkpt>
      <trkpt lat="50.232327030971646" lon="-5.071393987163901">
        <ele>84.25</ele>
        <time>2026-06-23T13:24:12Z</time>
      </trkpt>
      <trkpt lat="50.232286965474486" lon="-5.071354005485773">
        <ele>84.25</ele>
        <time>2026-06-23T13:24:13Z</time>
      </trkpt>
      <trkpt lat="50.232254024595022" lon="-5.071320980787277">
        <ele>84.25</ele>
        <time>2026-06-23T13:24:14Z</time>
      </trkpt>
      <trkpt lat="50.232211025431752" lon="-5.071259960532188">
        <ele>84.730000000000004</ele>
        <time>2026-06-23T13:24:15Z</time>
      </trkpt>
      <trkpt lat="50.232199039310217" lon="-5.07121997885406">
        <ele>84.730000000000004</ele>
        <time>2026-06-23T13:24:16Z</time>
      </trkpt>
      <trkpt lat="50.23218797519803" lon="-5.071184020489454">
        <ele>85.209999999999994</ele>
        <time>2026-06-23T13:24:17Z</time>
      </trkpt>
      <trkpt lat="50.232178000733256" lon="-5.071150995790958">
        <ele>85.209999999999994</ele>
        <time>2026-06-23T13:24:18Z</time>
      </trkpt>
      <trkpt lat="50.232178000733256" lon="-5.071150995790958">
        <ele>85.209999999999994</ele>
        <time>2026-06-23T13:24:19Z</time>
      </trkpt>
      <trkpt lat="50.232178000733256" lon="-5.071150995790958">
        <ele>85.689999999999998</ele>
        <time>2026-06-23T13:24:23Z</time>
      </trkpt>
      <trkpt lat="50.232111029326916" lon="-5.070919990539551">
        <ele>85.689999999999998</ele>
        <time>2026-06-23T13:24:24Z</time>
      </trkpt>
      <trkpt lat="50.232217982411385" lon="-5.071285022422671">
        <ele>85.209999999999994</ele>
        <time>2026-06-23T13:24:25Z</time>
      </trkpt>
      <trkpt lat="50.232217982411385" lon="-5.071285022422671">
        <ele>84.730000000000004</ele>
        <time>2026-06-23T13:24:42Z</time>
      </trkpt>
      <trkpt lat="50.232217982411385" lon="-5.071285022422671">
        <ele>85.209999999999994</ele>
        <time>2026-06-23T13:25:30Z</time>
      </trkpt>
      <trkpt lat="50.232217982411385" lon="-5.071285022422671">
        <ele>85.209999999999994</ele>
        <time>2026-06-23T13:26:02Z</time>
      </trkpt>
      <trkpt lat="50.232217982411385" lon="-5.071285022422671">
        <ele>84.730000000000004</ele>
        <time>2026-06-23T13:26:40Z</time>
      </trkpt>
      <trkpt lat="50.232217982411385" lon="-5.071285022422671">
        <ele>84.730000000000004</ele>
        <time>2026-06-23T13:26:44Z</time>
      </trkpt>
      <trkpt lat="50.232174983248115" lon="-5.071138003841043">
        <ele>87.620000000000005</ele>
        <time>2026-06-23T13:26:45Z</time>
      </trkpt>
      <trkpt lat="50.232203984633088" lon="-5.071297008544207">
        <ele>87.620000000000005</ele>
        <time>2026-06-23T13:26:46Z</time>
      </trkpt>
      <trkpt lat="50.232193004339933" lon="-5.0713059771806">
        <ele>87.620000000000005</ele>
        <time>2026-06-23T13:26:47Z</time>
      </trkpt>
      <trkpt lat="50.232193004339933" lon="-5.0713059771806">
        <ele>87.620000000000005</ele>
        <time>2026-06-23T13:27:27Z</time>
      </trkpt>
      <trkpt lat="50.231963004916906" lon="-5.071163987740874">
        <ele>108.77</ele>
        <time>2026-06-23T13:30:46Z</time>
      </trkpt>
      <trkpt lat="50.231983037665486" lon="-5.07111000828445">
        <ele>123.19</ele>
        <time>2026-06-23T13:31:30Z</time>
      </trkpt>
      <trkpt lat="50.231968034058809" lon="-5.071158958598971">
        <ele>121.73999999999999</ele>
        <time>2026-06-23T13:31:41Z</time>
      </trkpt>
      <trkpt lat="50.232065012678504" lon="-5.071440003812313">
        <ele>105.40000000000001</ele>
        <time>2026-06-23T13:31:48Z</time>
      </trkpt>
      <trkpt lat="50.23205897770822" lon="-5.071506975218654">
        <ele>103.95999999999999</ele>
        <time>2026-06-23T13:31:49Z</time>
      </trkpt>
      <trkpt lat="50.232028970494866" lon="-5.071662040427327">
        <ele>94.829999999999998</ele>
        <time>2026-06-23T13:31:55Z</time>
      </trkpt>
      <trkpt lat="50.231974991038442" lon="-5.071699004620314">
        <ele>93.390000000000001</ele>
        <time>2026-06-23T13:31:56Z</time>
      </trkpt>
      <trkpt lat="50.231905002146959" lon="-5.071748038753867">
        <ele>91.939999999999998</ele>
        <time>2026-06-23T13:31:57Z</time>
      </trkpt>
      <trkpt lat="50.231802994385362" lon="-5.071793971583247">
        <ele>90.5</ele>
        <time>2026-06-23T13:31:58Z</time>
      </trkpt>
      <trkpt lat="50.231724036857486" lon="-5.07177796214819">
        <ele>89.540000000000006</ele>
        <time>2026-06-23T13:31:59Z</time>
      </trkpt>
      <trkpt lat="50.231658993288875" lon="-5.071869995445013">
        <ele>89.060000000000002</ele>
        <time>2026-06-23T13:32:00Z</time>
      </trkpt>
      <trkpt lat="50.231582969427109" lon="-5.071965968236327">
        <ele>88.099999999999994</ele>
        <time>2026-06-23T13:32:01Z</time>
      </trkpt>
      <trkpt lat="50.230709994211793" lon="-5.073125017806888">
        <ele>87.140000000000001</ele>
        <time>2026-06-23T13:32:10Z</time>
      </trkpt>
      <trkpt lat="50.229639960452914" lon="-5.074875997379422">
        <ele>94.349999999999994</ele>
        <time>2026-06-23T13:32:19Z</time>
      </trkpt>
      <trkpt lat="50.228589959442616" lon="-5.077307000756264">
        <ele>99.629999999999995</ele>
        <time>2026-06-23T13:32:29Z</time>
      </trkpt>
      <trkpt lat="50.227585975080729" lon="-5.07878003641963">
        <ele>104.44</ele>
        <time>2026-06-23T13:32:37Z</time>
      </trkpt>
      <trkpt lat="50.226312009617686" lon="-5.080345021560788">
        <ele>109.73</ele>
        <time>2026-06-23T13:32:46Z</time>
      </trkpt>
      <trkpt lat="50.225619999691844" lon="-5.081139961257577">
        <ele>108.29000000000001</ele>
        <time>2026-06-23T13:32:52Z</time>
      </trkpt>
      <trkpt lat="50.225499970838428" lon="-5.081217996776104">
        <ele>107.31999999999999</ele>
        <time>2026-06-23T13:32:53Z</time>
      </trkpt>
      <trkpt lat="50.225386982783675" lon="-5.081291003152728">
        <ele>107.31999999999999</ele>
        <time>2026-06-23T13:32:54Z</time>
      </trkpt>
      <trkpt lat="50.225156983360648" lon="-5.08142402395606">
        <ele>106.36</ele>
        <time>2026-06-23T13:32:56Z</time>
      </trkpt>
      <trkpt lat="50.225076014176011" lon="-5.081504993140698">
        <ele>105.88</ele>
        <time>2026-06-23T13:32:57Z</time>
      </trkpt>
      <trkpt lat="50.224822964519262" lon="-5.08172501809895">
        <ele>104.92</ele>
        <time>2026-06-23T13:32:59Z</time>
      </trkpt>
      <trkpt lat="50.224686004221439" lon="-5.081798024475575">
        <ele>103.95999999999999</ele>
        <time>2026-06-23T13:33:00Z</time>
      </trkpt>
      <trkpt lat="50.223178016021848" lon="-5.082530016079545">
        <ele>96.75</ele>
        <time>2026-06-23T13:33:09Z</time>
      </trkpt>
      <trkpt lat="50.221651000902057" lon="-5.083694010972977">
        <ele>88.099999999999994</ele>
        <time>2026-06-23T13:33:17Z</time>
      </trkpt>
      <trkpt lat="50.220307968556881" lon="-5.08559100329876">
        <ele>76.560000000000002</ele>
        <time>2026-06-23T13:33:25Z</time>
      </trkpt>
      <trkpt lat="50.218599988147616" lon="-5.088780988007784">
        <ele>61.659999999999997</ele>
        <time>2026-06-23T13:33:37Z</time>
      </trkpt>
      <trkpt lat="50.217172969132662" lon="-5.090873027220368">
        <ele>49.649999999999999</ele>
        <time>2026-06-23T13:33:46Z</time>
      </trkpt>
      <trkpt lat="50.216003023087978" lon="-5.092599028721452">
        <ele>40.509999999999998</ele>
        <time>2026-06-23T13:33:54Z</time>
      </trkpt>
      <trkpt lat="50.215053018182516" lon="-5.094537008553743">
        <ele>28.5</ele>
        <time>2026-06-23T13:34:03Z</time>
      </trkpt>
      <trkpt lat="50.21461296826601" lon="-5.096605997532606">
        <ele>16.960000000000001</ele>
        <time>2026-06-23T13:34:12Z</time>
      </trkpt>
      <trkpt lat="50.214563012123108" lon="-5.096923001110554">
        <ele>15.52</ele>
        <time>2026-06-23T13:34:14Z</time>
      </trkpt>
      <trkpt lat="50.214543985202909" lon="-5.097045041620731">
        <ele>15.039999999999999</ele>
        <time>2026-06-23T13:34:15Z</time>
      </trkpt>
      <trkpt lat="50.214514983817935" lon="-5.097227012738586">
        <ele>14.56</ele>
        <time>2026-06-23T13:34:16Z</time>
      </trkpt>
      <trkpt lat="50.214447006583214" lon="-5.09728099219501">
        <ele>14.08</ele>
        <time>2026-06-23T13:34:17Z</time>
      </trkpt>
      <trkpt lat="50.214399984106421" lon="-5.097395991906524">
        <ele>13.6</ele>
        <time>2026-06-23T13:34:18Z</time>
      </trkpt>
      <trkpt lat="50.214386992156506" lon="-5.097528006881475">
        <ele>13.119999999999999</ele>
        <time>2026-06-23T13:34:19Z</time>
      </trkpt>
      <trkpt lat="50.214357990771532" lon="-5.0977529771626">
        <ele>12.630000000000001</ele>
        <time>2026-06-23T13:34:20Z</time>
      </trkpt>
      <trkpt lat="50.214290013536811" lon="-5.097866971045733">
        <ele>12.630000000000001</ele>
        <time>2026-06-23T13:34:21Z</time>
      </trkpt>
      <trkpt lat="50.214216001331806" lon="-5.097990017384291">
        <ele>12.15</ele>
        <time>2026-06-23T13:34:22Z</time>
      </trkpt>
      <trkpt lat="50.214126985520124" lon="-5.098111974075437">
        <ele>11.19</ele>
        <time>2026-06-23T13:34:23Z</time>
      </trkpt>
      <trkpt lat="50.214020032435656" lon="-5.09822697378695">
        <ele>10.710000000000001</ele>
        <time>2026-06-23T13:34:24Z</time>
      </trkpt>
      <trkpt lat="50.213016970083117" lon="-5.098943961784244">
        <ele>7.83</ele>
        <time>2026-06-23T13:34:31Z</time>
      </trkpt>
      <trkpt lat="50.212037041783333" lon="-5.100114997476339">
        <ele>6.39</ele>
        <time>2026-06-23T13:34:38Z</time>
      </trkpt>
      <trkpt lat="50.211193989962339" lon="-5.101116970181465">
        <ele>7.35</ele>
        <time>2026-06-23T13:34:44Z</time>
      </trkpt>
      <trkpt lat="50.210296036675572" lon="-5.101818032562733">
        <ele>10.23</ele>
        <time>2026-06-23T13:34:50Z</time>
      </trkpt>
      <trkpt lat="50.210000993683934" lon="-5.1021340303123">
        <ele>11.67</ele>
        <time>2026-06-23T13:34:52Z</time>
      </trkpt>
      <trkpt lat="50.209860010072589" lon="-5.102312983945012">
        <ele>12.15</ele>
        <time>2026-06-23T13:34:53Z</time>
      </trkpt>
      <trkpt lat="50.20913296379149" lon="-5.103937983512878">
        <ele>16.960000000000001</ele>
        <time>2026-06-23T13:35:00Z</time>
      </trkpt>
      <trkpt lat="50.20870297215879" lon="-5.104902992025018">
        <ele>16.48</ele>
        <time>2026-06-23T13:35:04Z</time>
      </trkpt>
      <trkpt lat="50.208584032952785" lon="-5.105141960084438">
        <ele>16</ele>
        <time>2026-06-23T13:35:05Z</time>
      </trkpt>
      <trkpt lat="50.208258982747793" lon="-5.105844028294087">
        <ele>14.56</ele>
        <time>2026-06-23T13:35:08Z</time>
      </trkpt>
      <trkpt lat="50.20807801745832" lon="-5.106304027140141">
        <ele>13.6</ele>
        <time>2026-06-23T13:35:10Z</time>
      </trkpt>
      <trkpt lat="50.208020014688373" lon="-5.106576019898057">
        <ele>12.630000000000001</ele>
        <time>2026-06-23T13:35:11Z</time>
      </trkpt>
      <trkpt lat="50.207739975303411" lon="-5.10787496343255">
        <ele>9.27</ele>
        <time>2026-06-23T13:35:16Z</time>
      </trkpt>
      <trkpt lat="50.207549035549164" lon="-5.109770027920604">
        <ele>7.35</ele>
        <time>2026-06-23T13:35:23Z</time>
      </trkpt>
      <trkpt lat="50.2075229678303" lon="-5.110037997364998">
        <ele>7.35</ele>
        <time>2026-06-23T13:35:24Z</time>
      </trkpt>
      <trkpt lat="50.207496983930469" lon="-5.110307978466153">
        <ele>6.87</ele>
        <time>2026-06-23T13:35:25Z</time>
      </trkpt>
      <trkpt lat="50.207463959231973" lon="-5.110576031729579">
        <ele>6.87</ele>
        <time>2026-06-23T13:35:26Z</time>
      </trkpt>
      <trkpt lat="50.206874962896109" lon="-5.112954983487725">
        <ele>4.94</ele>
        <time>2026-06-23T13:35:35Z</time>
      </trkpt>
      <trkpt lat="50.206574974581599" lon="-5.114157032221556">
        <ele>4.46</ele>
        <time>2026-06-23T13:35:41Z</time>
      </trkpt>
      <trkpt lat="50.206549996510148" lon="-5.114282006397843">
        <ele>4.94</ele>
        <time>2026-06-23T13:35:42Z</time>
      </trkpt>
      <trkpt lat="50.20629895851016" lon="-5.115485982969403">
        <ele>2.06</ele>
        <time>2026-06-23T13:35:51Z</time>
      </trkpt>
      <trkpt lat="50.205991007387638" lon="-5.116330040618777">
        <ele>1.58</ele>
        <time>2026-06-23T13:35:57Z</time>
      </trkpt>
      <trkpt lat="50.20593099296093" lon="-5.116447973996401">
        <ele>1.1</ele>
        <time>2026-06-23T13:35:58Z</time>
      </trkpt>
      <trkpt lat="50.205870978534222" lon="-5.116565991193056">
        <ele>1.58</ele>
        <time>2026-06-23T13:35:59Z</time>
      </trkpt>
      <trkpt lat="50.205135969445109" lon="-5.11786200106144">
        <ele>3.02</ele>
        <time>2026-06-23T13:36:11Z</time>
      </trkpt>
      <trkpt lat="50.204613022506237" lon="-5.118643026798964">
        <ele>4.94</ele>
        <time>2026-06-23T13:36:18Z</time>
      </trkpt>
      <trkpt lat="50.203868038952351" lon="-5.119557995349169">
        <ele>6.87</ele>
        <time>2026-06-23T13:36:27Z</time>
      </trkpt>
      <trkpt lat="50.203273007646203" lon="-5.120133999735117">
        <ele>8.789999999999999</ele>
        <time>2026-06-23T13:36:33Z</time>
      </trkpt>
      <trkpt lat="50.2021489944309" lon="-5.121148964390159">
        <ele>8.310000000000001</ele>
        <time>2026-06-23T13:36:42Z</time>
      </trkpt>
      <trkpt lat="50.201888987794518" lon="-5.12153604067862">
        <ele>7.83</ele>
        <time>2026-06-23T13:36:44Z</time>
      </trkpt>
      <trkpt lat="50.201507024466991" lon="-5.122163007035852">
        <ele>6.39</ele>
        <time>2026-06-23T13:36:47Z</time>
      </trkpt>
      <trkpt lat="50.201394036412239" lon="-5.122382026165724">
        <ele>6.39</ele>
        <time>2026-06-23T13:36:48Z</time>
      </trkpt>
      <trkpt lat="50.201283982023597" lon="-5.122596016153693">
        <ele>6.39</ele>
        <time>2026-06-23T13:36:49Z</time>
      </trkpt>
      <trkpt lat="50.200695991516113" lon="-5.123438984155655">
        <ele>4.94</ele>
        <time>2026-06-23T13:36:54Z</time>
      </trkpt>
      <trkpt lat="50.200567999854684" lon="-5.12357703410089">
        <ele>4.46</ele>
        <time>2026-06-23T13:36:55Z</time>
      </trkpt>
      <trkpt lat="50.199826033785939" lon="-5.124112972989678">
        <ele>3.5</ele>
        <time>2026-06-23T13:37:00Z</time>
      </trkpt>
      <trkpt lat="50.19965898245573" lon="-5.124166030436754">
        <ele>3.02</ele>
        <time>2026-06-23T13:37:01Z</time>
      </trkpt>
      <trkpt lat="50.199497966095805" lon="-5.124187991023064">
        <ele>3.02</ele>
        <time>2026-06-23T13:37:02Z</time>
      </trkpt>
      <trkpt lat="50.199338961392641" lon="-5.124210035428405">
        <ele>3.02</ele>
        <time>2026-06-23T13:37:03Z</time>
      </trkpt>
      <trkpt lat="50.199170988053083" lon="-5.124215986579657">
        <ele>3.02</ele>
        <time>2026-06-23T13:37:04Z</time>
      </trkpt>
      <trkpt lat="50.197801971808076" lon="-5.123820025473833">
        <ele>8.310000000000001</ele>
        <time>2026-06-23T13:37:13Z</time>
      </trkpt>
      <trkpt lat="50.196769991889596" lon="-5.123551972210407">
        <ele>10.710000000000001</ele>
        <time>2026-06-23T13:37:21Z</time>
      </trkpt>
      <trkpt lat="50.196684999391437" lon="-5.123532023280859">
        <ele>10.710000000000001</ele>
        <time>2026-06-23T13:37:22Z</time>
      </trkpt>
      <trkpt lat="50.196619033813477" lon="-5.123517019674182">
        <ele>10.710000000000001</ele>
        <time>2026-06-23T13:37:23Z</time>
      </trkpt>
      <trkpt lat="50.196491964161396" lon="-5.123391961678863">
        <ele>10.710000000000001</ele>
        <time>2026-06-23T13:37:24Z</time>
      </trkpt>
      <trkpt lat="50.196476960554719" lon="-5.123313004150987">
        <ele>10.710000000000001</ele>
        <time>2026-06-23T13:37:25Z</time>
      </trkpt>
      <trkpt lat="50.196457011625171" lon="-5.12321300804615">
        <ele>10.710000000000001</ele>
        <time>2026-06-23T13:37:26Z</time>
      </trkpt>
      <trkpt lat="50.196433961391449" lon="-5.123101025819778">
        <ele>11.19</ele>
        <time>2026-06-23T13:37:27Z</time>
      </trkpt>
      <trkpt lat="50.196414012461901" lon="-5.123000023886561">
        <ele>11.19</ele>
        <time>2026-06-23T13:37:28Z</time>
      </trkpt>
      <trkpt lat="50.19639196805656" lon="-5.122889969497919">
        <ele>12.15</ele>
        <time>2026-06-23T13:37:29Z</time>
      </trkpt>
      <trkpt lat="50.196366989985108" lon="-5.122764995321631">
        <ele>13.119999999999999</ele>
        <time>2026-06-23T13:37:30Z</time>
      </trkpt>
      <trkpt lat="50.196160040795803" lon="-5.121582979336381">
        <ele>22.25</ele>
        <time>2026-06-23T13:37:38Z</time>
      </trkpt>
      <trkpt lat="50.196079993620515" lon="-5.120760966092348">
        <ele>26.57</ele>
        <time>2026-06-23T13:37:43Z</time>
      </trkpt>
      <trkpt lat="50.196073036640882" lon="-5.120578994974494">
        <ele>27.050000000000001</ele>
        <time>2026-06-23T13:37:44Z</time>
      </trkpt>
      <trkpt lat="50.196064990013838" lon="-5.120393000543118">
        <ele>28.02</ele>
        <time>2026-06-23T13:37:45Z</time>
      </trkpt>
      <trkpt lat="50.196042023599148" lon="-5.119812972843647">
        <ele>30.420000000000002</ele>
        <time>2026-06-23T13:37:48Z</time>
      </trkpt>
      <trkpt lat="50.196027019992471" lon="-5.119446013122797">
        <ele>31.379999999999999</ele>
        <time>2026-06-23T13:37:50Z</time>
      </trkpt>
      <trkpt lat="50.196019979193807" lon="-5.119286002591252">
        <ele>32.340000000000003</ele>
        <time>2026-06-23T13:37:51Z</time>
      </trkpt>
      <trkpt lat="50.196014028042555" lon="-5.11913001537323">
        <ele>33.299999999999997</ele>
        <time>2026-06-23T13:37:52Z</time>
      </trkpt>
      <trkpt lat="50.196007993072271" lon="-5.119000012055039">
        <ele>34.259999999999998</ele>
        <time>2026-06-23T13:37:53Z</time>
      </trkpt>
      <trkpt lat="50.19600497558713" lon="-5.118913007900119">
        <ele>35.229999999999997</ele>
        <time>2026-06-23T13:37:54Z</time>
      </trkpt>
      <trkpt lat="50.196001958101988" lon="-5.118841007351875">
        <ele>36.189999999999998</ele>
        <time>2026-06-23T13:37:55Z</time>
      </trkpt>
      <trkpt lat="50.195987960323691" lon="-5.118719972670078">
        <ele>37.149999999999999</ele>
        <time>2026-06-23T13:37:56Z</time>
      </trkpt>
      <trkpt lat="50.195936998352408" lon="-5.118677979335189">
        <ele>38.590000000000003</ele>
        <time>2026-06-23T13:37:57Z</time>
      </trkpt>
      <trkpt lat="50.195739017799497" lon="-5.118512017652392">
        <ele>41.950000000000003</ele>
        <time>2026-06-23T13:38:00Z</time>
      </trkpt>
      <trkpt lat="50.195662993937731" lon="-5.118448985740542">
        <ele>42.920000000000002</ele>
        <time>2026-06-23T13:38:01Z</time>
      </trkpt>
      <trkpt lat="50.195611026138067" lon="-5.118405986577272">
        <ele>43.880000000000003</ele>
        <time>2026-06-23T13:38:02Z</time>
      </trkpt>
      <trkpt lat="50.19551002420485" lon="-5.118411015719175">
        <ele>44.840000000000003</ele>
        <time>2026-06-23T13:38:03Z</time>
      </trkpt>
      <trkpt lat="50.195416985079646" lon="-5.118416966870427">
        <ele>46.280000000000001</ele>
        <time>2026-06-23T13:38:04Z</time>
      </trkpt>
      <trkpt lat="50.195323023945093" lon="-5.11842199601233">
        <ele>47.240000000000002</ele>
        <time>2026-06-23T13:38:05Z</time>
      </trkpt>
      <trkpt lat="50.195225039497018" lon="-5.118427025154233">
        <ele>48.68</ele>
        <time>2026-06-23T13:38:06Z</time>
      </trkpt>
      <trkpt lat="50.19514499232173" lon="-5.118458038195968">
        <ele>49.649999999999999</ele>
        <time>2026-06-23T13:38:07Z</time>
      </trkpt>
      <trkpt lat="50.195063017308712" lon="-5.118488967418671">
        <ele>51.090000000000003</ele>
        <time>2026-06-23T13:38:08Z</time>
      </trkpt>
      <trkpt lat="50.194825977087021" lon="-5.118578989058733">
        <ele>54.93</ele>
        <time>2026-06-23T13:38:11Z</time>
      </trkpt>
      <trkpt lat="50.194774009287357" lon="-5.118599021807313">
        <ele>56.369999999999997</ele>
        <time>2026-06-23T13:38:12Z</time>
      </trkpt>
      <trkpt lat="50.194683987647295" lon="-5.11859399266541">
        <ele>57.82</ele>
        <time>2026-06-23T13:38:13Z</time>
      </trkpt>
      <trkpt lat="50.194601006805897" lon="-5.118589969351888">
        <ele>59.740000000000002</ele>
        <time>2026-06-23T13:38:14Z</time>
      </trkpt>
      <trkpt lat="50.194507967680693" lon="-5.118585024029017">
        <ele>60.700000000000003</ele>
        <time>2026-06-23T13:38:15Z</time>
      </trkpt>
      <trkpt lat="50.194408977404237" lon="-5.118579994887114">
        <ele>61.659999999999997</ele>
        <time>2026-06-23T13:38:16Z</time>
      </trkpt>
      <trkpt lat="50.194315016269684" lon="-5.118551999330521">
        <ele>62.140000000000001</ele>
        <time>2026-06-23T13:38:17Z</time>
      </trkpt>
      <trkpt lat="50.19411301240325" lon="-5.118450997397304">
        <ele>64.069999999999993</ele>
        <time>2026-06-23T13:38:19Z</time>
      </trkpt>
      <trkpt lat="50.194017961621284" lon="-5.118402969092131">
        <ele>64.549999999999997</ele>
        <time>2026-06-23T13:38:20Z</time>
      </trkpt>
      <trkpt lat="50.193536002188921" lon="-5.118161989375949">
        <ele>68.870000000000005</ele>
        <time>2026-06-23T13:38:25Z</time>
      </trkpt>
      <trkpt lat="50.193465007469058" lon="-5.118127036839724">
        <ele>69.349999999999994</ele>
        <time>2026-06-23T13:38:26Z</time>
      </trkpt>
      <trkpt lat="50.193380014970899" lon="-5.118001978844404">
        <ele>69.829999999999998</ele>
        <time>2026-06-23T13:38:27Z</time>
      </trkpt>
      <trkpt lat="50.193226961418986" lon="-5.11777700856328">
        <ele>69.829999999999998</ele>
        <time>2026-06-23T13:38:29Z</time>
      </trkpt>
      <trkpt lat="50.193142974749207" lon="-5.117654968053103">
        <ele>69.349999999999994</ele>
        <time>2026-06-23T13:38:30Z</time>
      </trkpt>
      <trkpt lat="50.193049013614655" lon="-5.117538962513208">
        <ele>69.829999999999998</ele>
        <time>2026-06-23T13:38:31Z</time>
      </trkpt>
      <trkpt lat="50.192836029455066" lon="-5.117312986403704">
        <ele>71.269999999999996</ele>
        <time>2026-06-23T13:38:33Z</time>
      </trkpt>
      <trkpt lat="50.191769013181329" lon="-5.116698006168008">
        <ele>75.599999999999994</ele>
        <time>2026-06-23T13:38:42Z</time>
      </trkpt>
      <trkpt lat="50.190833006054163" lon="-5.116339009255171">
        <ele>76.560000000000002</ele>
        <time>2026-06-23T13:38:50Z</time>
      </trkpt>
      <trkpt lat="50.189933963119984" lon="-5.115927960723639">
        <ele>79.450000000000003</ele>
        <time>2026-06-23T13:38:57Z</time>
      </trkpt>
      <trkpt lat="50.188975995406508" lon="-5.115379029884934">
        <ele>88.099999999999994</ele>
        <time>2026-06-23T13:39:04Z</time>
      </trkpt>
      <trkpt lat="50.18782096914947" lon="-5.114552993327379">
        <ele>94.349999999999994</ele>
        <time>2026-06-23T13:39:12Z</time>
      </trkpt>
      <trkpt lat="50.187664981931448" lon="-5.114462971687317">
        <ele>94.829999999999998</ele>
        <time>2026-06-23T13:39:13Z</time>
      </trkpt>
      <trkpt lat="50.187507988885045" lon="-5.114371022209525">
        <ele>94.829999999999998</ele>
        <time>2026-06-23T13:39:14Z</time>
      </trkpt>
      <trkpt lat="50.187354013323784" lon="-5.114282006397843">
        <ele>94.349999999999994</ele>
        <time>2026-06-23T13:39:15Z</time>
      </trkpt>
      <trkpt lat="50.186835005879402" lon="-5.114095006138086">
        <ele>91.459999999999994</ele>
        <time>2026-06-23T13:39:19Z</time>
      </trkpt>
      <trkpt lat="50.18590897321701" lon="-5.113269975408912">
        <ele>94.349999999999994</ele>
        <time>2026-06-23T13:39:26Z</time>
      </trkpt>
      <trkpt lat="50.185773018747568" lon="-5.113143995404244">
        <ele>94.829999999999998</ele>
        <time>2026-06-23T13:39:27Z</time>
      </trkpt>
      <trkpt lat="50.184821002185345" lon="-5.112115032970905">
        <ele>98.189999999999998</ele>
        <time>2026-06-23T13:39:34Z</time>
      </trkpt>
      <trkpt lat="50.184586979448795" lon="-5.11176098138094">
        <ele>99.150000000000006</ele>
        <time>2026-06-23T13:39:36Z</time>
      </trkpt>
      <trkpt lat="50.184482960030437" lon="-5.111584039404988">
        <ele>99.629999999999995</ele>
        <time>2026-06-23T13:39:37Z</time>
      </trkpt>
      <trkpt lat="50.184378018602729" lon="-5.111407013610005">
        <ele>100.11</ele>
        <time>2026-06-23T13:39:38Z</time>
      </trkpt>
      <trkpt lat="50.184272993355989" lon="-5.111229987815023">
        <ele>100.59999999999999</ele>
        <time>2026-06-23T13:39:39Z</time>
      </trkpt>
      <trkpt lat="50.18416503444314" lon="-5.111048016697168">
        <ele>101.08</ele>
        <time>2026-06-23T13:39:40Z</time>
      </trkpt>
      <trkpt lat="50.184056991711259" lon="-5.110865961760283">
        <ele>101.08</ele>
        <time>2026-06-23T13:39:41Z</time>
      </trkpt>
      <trkpt lat="50.183950960636139" lon="-5.11068700812757">
        <ele>101.56</ele>
        <time>2026-06-23T13:39:42Z</time>
      </trkpt>
      <trkpt lat="50.183102963492274" lon="-5.109330983832479">
        <ele>103</ele>
        <time>2026-06-23T13:39:50Z</time>
      </trkpt>
      <trkpt lat="50.182987963780761" lon="-5.109176002442837">
        <ele>103</ele>
        <time>2026-06-23T13:39:51Z</time>
      </trkpt>
      <trkpt lat="50.182865001261234" lon="-5.109007023274899">
        <ele>103.48</ele>
        <time>2026-06-23T13:39:52Z</time>
      </trkpt>
      <trkpt lat="50.182206016033888" lon="-5.108400005847216">
        <ele>102.52</ele>
        <time>2026-06-23T13:39:57Z</time>
      </trkpt>
      <trkpt lat="50.181248970329762" lon="-5.107792988419533">
        <ele>99.150000000000006</ele>
        <time>2026-06-23T13:40:04Z</time>
      </trkpt>
      <trkpt lat="50.180199975147843" lon="-5.107279010117054">
        <ele>98.670000000000002</ele>
        <time>2026-06-23T13:40:11Z</time>
      </trkpt>
      <trkpt lat="50.179319037124515" lon="-5.107128974050283">
        <ele>97.709999999999994</ele>
        <time>2026-06-23T13:40:17Z</time>
      </trkpt>
      <trkpt lat="50.178821990266442" lon="-5.107118999585509">
        <ele>96.75</ele>
        <time>2026-06-23T13:40:21Z</time>
      </trkpt>
      <trkpt lat="50.177876008674502" lon="-5.106988996267319">
        <ele>90.980000000000004</ele>
        <time>2026-06-23T13:40:29Z</time>
      </trkpt>
      <trkpt lat="50.177612984552979" lon="-5.106974998489022">
        <ele>89.540000000000006</ele>
        <time>2026-06-23T13:40:31Z</time>
      </trkpt>
      <trkpt lat="50.177479963749647" lon="-5.106980027630925">
        <ele>88.579999999999998</ele>
        <time>2026-06-23T13:40:32Z</time>
      </trkpt>
      <trkpt lat="50.177351972088218" lon="-5.106984972953796">
        <ele>88.579999999999998</ele>
        <time>2026-06-23T13:40:33Z</time>
      </trkpt>
      <trkpt lat="50.176984006538987" lon="-5.106998970732093">
        <ele>87.620000000000005</ele>
        <time>2026-06-23T13:40:36Z</time>
      </trkpt>
      <trkpt lat="50.176691981032491" lon="-5.10701104067266">
        <ele>86.180000000000007</ele>
        <time>2026-06-23T13:40:39Z</time>
      </trkpt>
      <trkpt lat="50.176598019897938" lon="-5.107036018744111">
        <ele>85.689999999999998</ele>
        <time>2026-06-23T13:40:40Z</time>
      </trkpt>
      <trkpt lat="50.176036013290286" lon="-5.107241962105036">
        <ele>81.849999999999994</ele>
        <time>2026-06-23T13:40:46Z</time>
      </trkpt>
      <trkpt lat="50.175693025812507" lon="-5.107368025928736">
        <ele>80.409999999999997</ele>
        <time>2026-06-23T13:40:50Z</time>
      </trkpt>
      <trkpt lat="50.175619013607502" lon="-5.107395015656948">
        <ele>79.930000000000007</ele>
        <time>2026-06-23T13:40:51Z</time>
      </trkpt>
      <trkpt lat="50.175482975319028" lon="-5.107444971799851">
        <ele>78.480000000000004</ele>
        <time>2026-06-23T13:40:53Z</time>
      </trkpt>
      <trkpt lat="50.175416003912687" lon="-5.107469027861953">
        <ele>78</ele>
        <time>2026-06-23T13:40:54Z</time>
      </trkpt>
      <trkpt lat="50.175322964787483" lon="-5.107432985678315">
        <ele>77.519999999999996</ele>
        <time>2026-06-23T13:40:55Z</time>
      </trkpt>
      <trkpt lat="50.175204025581479" lon="-5.107340030372143">
        <ele>75.599999999999994</ele>
        <time>2026-06-23T13:40:57Z</time>
      </trkpt>
      <trkpt lat="50.175139987841249" lon="-5.107290996238589">
        <ele>74.640000000000001</ele>
        <time>2026-06-23T13:40:58Z</time>
      </trkpt>
      <trkpt lat="50.175042003393173" lon="-5.107224024832249">
        <ele>73.680000000000007</ele>
        <time>2026-06-23T13:40:59Z</time>
      </trkpt>
      <trkpt lat="50.17495097592473" lon="-5.107161998748779">
        <ele>72.719999999999999</ele>
        <time>2026-06-23T13:41:00Z</time>
      </trkpt>
      <trkpt lat="50.174859026446939" lon="-5.10709997266531">
        <ele>71.760000000000005</ele>
        <time>2026-06-23T13:41:01Z</time>
      </trkpt>
      <trkpt lat="50.174571024253964" lon="-5.106912972405553">
        <ele>68.390000000000001</ele>
        <time>2026-06-23T13:41:04Z</time>
      </trkpt>
      <trkpt lat="50.174170034006238" lon="-5.10675597935915">
        <ele>64.069999999999993</ele>
        <time>2026-06-23T13:41:08Z</time>
      </trkpt>
      <trkpt lat="50.173851018771529" lon="-5.10660401545465">
        <ele>58.780000000000001</ele>
        <time>2026-06-23T13:41:11Z</time>
      </trkpt>
      <trkpt lat="50.173779018223286" lon="-5.106668975204229">
        <ele>56.859999999999999</ele>
        <time>2026-06-23T13:41:12Z</time>
      </trkpt>
      <trkpt lat="50.1737040001899" lon="-5.106737958267331">
        <ele>54.93</ele>
        <time>2026-06-23T13:41:13Z</time>
      </trkpt>
      <trkpt lat="50.173587994650006" lon="-5.106842983514071">
        <ele>51.090000000000003</ele>
        <time>2026-06-23T13:41:15Z</time>
      </trkpt>
      <trkpt lat="50.173543989658356" lon="-5.106882965192199">
        <ele>49.649999999999999</ele>
        <time>2026-06-23T13:41:16Z</time>
      </trkpt>
      <trkpt lat="50.173500990495086" lon="-5.106922024860978">
        <ele>48.200000000000003</ele>
        <time>2026-06-23T13:41:17Z</time>
      </trkpt>
      <trkpt lat="50.173456985503435" lon="-5.106962006539106">
        <ele>46.759999999999998</ele>
        <time>2026-06-23T13:41:18Z</time>
      </trkpt>
      <trkpt lat="50.173395965248346" lon="-5.107009029015899">
        <ele>45.32</ele>
        <time>2026-06-23T13:41:19Z</time>
      </trkpt>
      <trkpt lat="50.17333704046905" lon="-5.106982039287686">
        <ele>44.359999999999999</ele>
        <time>2026-06-23T13:41:20Z</time>
      </trkpt>
      <trkpt lat="50.173266967758536" lon="-5.106949014589191">
        <ele>42.920000000000002</ele>
        <time>2026-06-23T13:41:21Z</time>
      </trkpt>
      <trkpt lat="50.17321097664535" lon="-5.106923030689359">
        <ele>41.469999999999999</ele>
        <time>2026-06-23T13:41:22Z</time>
      </trkpt>
      <trkpt lat="50.173177029937506" lon="-5.106907021254301">
        <ele>40.030000000000001</ele>
        <time>2026-06-23T13:41:23Z</time>
      </trkpt>
      <trkpt lat="50.17308097332716" lon="-5.10686201043427">
        <ele>37.149999999999999</ele>
        <time>2026-06-23T13:41:25Z</time>
      </trkpt>
      <trkpt lat="50.173023976385593" lon="-5.106839966028929">
        <ele>35.710000000000001</ele>
        <time>2026-06-23T13:41:26Z</time>
      </trkpt>
      <trkpt lat="50.172936972230673" lon="-5.106807025149465">
        <ele>34.259999999999998</ele>
        <time>2026-06-23T13:41:27Z</time>
      </trkpt>
      <trkpt lat="50.172756006941199" lon="-5.106713986024261">
        <ele>30.899999999999999</ele>
        <time>2026-06-23T13:41:29Z</time>
      </trkpt>
      <trkpt lat="50.172684006392956" lon="-5.106651959940791">
        <ele>29.460000000000001</ele>
        <time>2026-06-23T13:41:30Z</time>
      </trkpt>
      <trkpt lat="50.17260798253119" lon="-5.106584988534451">
        <ele>28.02</ele>
        <time>2026-06-23T13:41:31Z</time>
      </trkpt>
      <trkpt lat="50.172531036660075" lon="-5.106517011299729">
        <ele>26.57</ele>
        <time>2026-06-23T13:41:32Z</time>
      </trkpt>
      <trkpt lat="50.17243598587811" lon="-5.106412991881371">
        <ele>25.129999999999999</ele>
        <time>2026-06-23T13:41:33Z</time>
      </trkpt>
      <trkpt lat="50.172372031956911" lon="-5.106295980513096">
        <ele>24.170000000000002</ele>
        <time>2026-06-23T13:41:34Z</time>
      </trkpt>
      <trkpt lat="50.172310005873442" lon="-5.106182992458344">
        <ele>23.690000000000001</ele>
        <time>2026-06-23T13:41:35Z</time>
      </trkpt>
      <trkpt lat="50.172253008931875" lon="-5.106079978868365">
        <ele>23.210000000000001</ele>
        <time>2026-06-23T13:41:36Z</time>
      </trkpt>
      <trkpt lat="50.171964000910521" lon="-5.105631966143847">
        <ele>19.359999999999999</ele>
        <time>2026-06-23T13:41:41Z</time>
      </trkpt>
      <trkpt lat="50.171904992312193" lon="-5.105559965595603">
        <ele>18.879999999999999</ele>
        <time>2026-06-23T13:41:42Z</time>
      </trkpt>
      <trkpt lat="50.171845983713865" lon="-5.10548796504736">
        <ele>17.920000000000002</ele>
        <time>2026-06-23T13:41:43Z</time>
      </trkpt>
      <trkpt lat="50.171786975115538" lon="-5.10542300529778">
        <ele>17.440000000000001</ele>
        <time>2026-06-23T13:41:44Z</time>
      </trkpt>
      <trkpt lat="50.171700976788998" lon="-5.105406995862722">
        <ele>16.960000000000001</ele>
        <time>2026-06-23T13:41:45Z</time>
      </trkpt>
      <trkpt lat="50.171612966805696" lon="-5.105390986427665">
        <ele>16</ele>
        <time>2026-06-23T13:41:46Z</time>
      </trkpt>
      <trkpt lat="50.171277020126581" lon="-5.105329966172576">
        <ele>12.630000000000001</ele>
        <time>2026-06-23T13:41:50Z</time>
      </trkpt>
      <trkpt lat="50.171214994043112" lon="-5.105318985879421">
        <ele>11.67</ele>
        <time>2026-06-23T13:41:51Z</time>
      </trkpt>
      <trkpt lat="50.171138970181346" lon="-5.105304988101125">
        <ele>8.789999999999999</ele>
        <time>2026-06-23T13:41:57Z</time>
      </trkpt>
      <trkpt lat="50.171070992946625" lon="-5.105213960632682">
        <ele>6.87</ele>
        <time>2026-06-23T13:42:02Z</time>
      </trkpt>
      <trkpt lat="50.171054983511567" lon="-5.105125028640032">
        <ele>6.39</ele>
        <time>2026-06-23T13:42:03Z</time>
      </trkpt>
      <trkpt lat="50.171036040410399" lon="-5.105017991736531">
        <ele>5.91</ele>
        <time>2026-06-23T13:42:04Z</time>
      </trkpt>
      <trkpt lat="50.170731022953987" lon="-5.104067986831069">
        <ele>3.98</ele>
        <time>2026-06-23T13:42:12Z</time>
      </trkpt>
      <trkpt lat="50.170532958582044" lon="-5.103665990754962">
        <ele>4.46</ele>
        <time>2026-06-23T13:42:20Z</time>
      </trkpt>
      <trkpt lat="50.170532958582044" lon="-5.103665990754962">
        <ele>4.94</ele>
        <time>2026-06-23T13:42:38Z</time>
      </trkpt>
      <trkpt lat="50.170532958582044" lon="-5.103665990754962">
        <ele>5.42</ele>
        <time>2026-06-23T13:43:05Z</time>
      </trkpt>
      <trkpt lat="50.170532958582044" lon="-5.103665990754962">
        <ele>5.91</ele>
        <time>2026-06-23T13:43:50Z</time>
      </trkpt>
      <trkpt lat="50.170433968305588" lon="-5.103463986888528">
        <ele>3.98</ele>
        <time>2026-06-23T13:44:22Z</time>
      </trkpt>
      <trkpt lat="50.17011302523315" lon="-5.102830985561013">
        <ele>2.54</ele>
        <time>2026-06-23T13:44:31Z</time>
      </trkpt>
      <trkpt lat="50.170057034119964" lon="-5.102740963920951">
        <ele>2.06</ele>
        <time>2026-06-23T13:44:32Z</time>
      </trkpt>
      <trkpt lat="50.169986039400101" lon="-5.102661000564694">
        <ele>2.06</ele>
        <time>2026-06-23T13:44:33Z</time>
      </trkpt>
      <trkpt lat="50.1696009747684" lon="-5.10222103446722">
        <ele>3.02</ele>
        <time>2026-06-23T13:44:38Z</time>
      </trkpt>
      <trkpt lat="50.169536015018821" lon="-5.102106034755707">
        <ele>3.5</ele>
        <time>2026-06-23T13:44:39Z</time>
      </trkpt>
      <trkpt lat="50.16947097145021" lon="-5.101990029215813">
        <ele>3.5</ele>
        <time>2026-06-23T13:44:40Z</time>
      </trkpt>
      <trkpt lat="50.169407017529011" lon="-5.101872012019157">
        <ele>3.5</ele>
        <time>2026-06-23T13:44:41Z</time>
      </trkpt>
      <trkpt lat="50.169357983395457" lon="-5.101742008700967">
        <ele>3.5</ele>
        <time>2026-06-23T13:44:42Z</time>
      </trkpt>
      <trkpt lat="50.168827995657921" lon="-5.100252963602543">
        <ele>3.02</ele>
        <time>2026-06-23T13:44:53Z</time>
      </trkpt>
      <trkpt lat="50.168327009305358" lon="-5.099369008094072">
        <ele>3.02</ele>
        <time>2026-06-23T13:45:01Z</time>
      </trkpt>
      <trkpt lat="50.168060967698693" lon="-5.098981009796262">
        <ele>3.98</ele>
        <time>2026-06-23T13:45:05Z</time>
      </trkpt>
      <trkpt lat="50.167993996292353" lon="-5.098883025348187">
        <ele>4.46</ele>
        <time>2026-06-23T13:45:06Z</time>
      </trkpt>
      <trkpt lat="50.167605997994542" lon="-5.098297968506813">
        <ele>5.42</ele>
        <time>2026-06-23T13:45:14Z</time>
      </trkpt>
      <trkpt lat="50.167588982731104" lon="-5.098272990435362">
        <ele>5.42</ele>
        <time>2026-06-23T13:45:22Z</time>
      </trkpt>
      <trkpt lat="50.167436012998223" lon="-5.098083978518844">
        <ele>5.91</ele>
        <time>2026-06-23T13:45:52Z</time>
      </trkpt>
      <trkpt lat="50.167382033541799" lon="-5.098038967698813">
        <ele>5.42</ele>
        <time>2026-06-23T13:45:53Z</time>
      </trkpt>
      <trkpt lat="50.167315984144807" lon="-5.098017007112503">
        <ele>5.42</ele>
        <time>2026-06-23T13:45:54Z</time>
      </trkpt>
      <trkpt lat="50.166506040841341" lon="-5.097697991877794">
        <ele>5.91</ele>
        <time>2026-06-23T13:46:04Z</time>
      </trkpt>
      <trkpt lat="50.166425993666053" lon="-5.097634959965944">
        <ele>5.91</ele>
        <time>2026-06-23T13:46:05Z</time>
      </trkpt>
      <trkpt lat="50.166342006996274" lon="-5.097568994387984">
        <ele>5.91</ele>
        <time>2026-06-23T13:46:06Z</time>
      </trkpt>
      <trkpt lat="50.166294984519482" lon="-5.097453994676471">
        <ele>6.39</ele>
        <time>2026-06-23T13:46:07Z</time>
      </trkpt>
      <trkpt lat="50.166242010891438" lon="-5.097326003015041">
        <ele>6.87</ele>
        <time>2026-06-23T13:46:08Z</time>
      </trkpt>
      <trkpt lat="50.166189037263393" lon="-5.097155012190342">
        <ele>6.87</ele>
        <time>2026-06-23T13:46:09Z</time>
      </trkpt>
      <trkpt lat="50.166177973151207" lon="-5.096983015537262">
        <ele>6.87</ele>
        <time>2026-06-23T13:46:10Z</time>
      </trkpt>
      <trkpt lat="50.166166992858052" lon="-5.096810013055801">
        <ele>6.39</ele>
        <time>2026-06-23T13:46:11Z</time>
      </trkpt>
      <trkpt lat="50.166156012564898" lon="-5.096632987260819">
        <ele>6.39</ele>
        <time>2026-06-23T13:46:12Z</time>
      </trkpt>
      <trkpt lat="50.166149977594614" lon="-5.096447998657823">
        <ele>6.39</ele>
        <time>2026-06-23T13:46:13Z</time>
      </trkpt>
      <trkpt lat="50.166149977594614" lon="-5.096081038936973">
        <ele>5.91</ele>
        <time>2026-06-23T13:46:15Z</time>
      </trkpt>
      <trkpt lat="50.166149977594614" lon="-5.095693040639162">
        <ele>5.42</ele>
        <time>2026-06-23T13:46:17Z</time>
      </trkpt>
      <trkpt lat="50.166145032271743" lon="-5.095295989885926">
        <ele>5.91</ele>
        <time>2026-06-23T13:46:19Z</time>
      </trkpt>
      <trkpt lat="50.165963983163238" lon="-5.093966033309698">
        <ele>5.42</ele>
        <time>2026-06-23T13:46:27Z</time>
      </trkpt>
      <trkpt lat="50.165705988183618" lon="-5.092645967379212">
        <ele>7.83</ele>
        <time>2026-06-23T13:46:35Z</time>
      </trkpt>
      <trkpt lat="50.165500966832042" lon="-5.091645000502467">
        <ele>10.23</ele>
        <time>2026-06-23T13:46:42Z</time>
      </trkpt>
      <trkpt lat="50.165458973497152" lon="-5.091502005234361">
        <ele>10.23</ele>
        <time>2026-06-23T13:46:43Z</time>
      </trkpt>
      <trkpt lat="50.165332993492484" lon="-5.091209979727864">
        <ele>10.23</ele>
        <time>2026-06-23T13:46:45Z</time>
      </trkpt>
      <trkpt lat="50.165098970755935" lon="-5.090805971994996">
        <ele>10.23</ele>
        <time>2026-06-23T13:46:49Z</time>
      </trkpt>
      <trkpt lat="50.164999980479479" lon="-5.09068401530385">
        <ele>10.710000000000001</ele>
        <time>2026-06-23T13:46:51Z</time>
      </trkpt>
      <trkpt lat="50.164965027943254" lon="-5.09064101614058">
        <ele>10.23</ele>
        <time>2026-06-23T13:46:52Z</time>
      </trkpt>
      <trkpt lat="50.164938038215041" lon="-5.090607991442084">
        <ele>10.23</ele>
        <time>2026-06-23T13:46:53Z</time>
      </trkpt>
      <trkpt lat="50.164754977449775" lon="-5.09033901616931">
        <ele>9.27</ele>
        <time>2026-06-23T13:47:00Z</time>
      </trkpt>
      <trkpt lat="50.164624974131584" lon="-5.090288976207376">
        <ele>9.75</ele>
        <time>2026-06-23T13:47:01Z</time>
      </trkpt>
      <trkpt lat="50.164539981633425" lon="-5.090182023122907">
        <ele>10.23</ele>
        <time>2026-06-23T13:47:02Z</time>
      </trkpt>
      <trkpt lat="50.164085011929274" lon="-5.089556984603405">
        <ele>10.23</ele>
        <time>2026-06-23T13:47:07Z</time>
      </trkpt>
      <trkpt lat="50.163940005004406" lon="-5.089265964925289">
        <ele>11.19</ele>
        <time>2026-06-23T13:47:09Z</time>
      </trkpt>
      <trkpt lat="50.163255035877228" lon="-5.088088978081942">
        <ele>16</ele>
        <time>2026-06-23T13:47:19Z</time>
      </trkpt>
      <trkpt lat="50.163161996752024" lon="-5.08795696310699">
        <ele>16</ele>
        <time>2026-06-23T13:47:21Z</time>
      </trkpt>
      <trkpt lat="50.163118997588754" lon="-5.087894015014172">
        <ele>16</ele>
        <time>2026-06-23T13:47:22Z</time>
      </trkpt>
      <trkpt lat="50.163081027567387" lon="-5.087785972282291">
        <ele>16.48</ele>
        <time>2026-06-23T13:47:23Z</time>
      </trkpt>
      <trkpt lat="50.163051020354033" lon="-5.087740961462259">
        <ele>16.48</ele>
        <time>2026-06-23T13:47:24Z</time>
      </trkpt>
      <trkpt lat="50.162953035905957" lon="-5.087721012532711">
        <ele>16.48</ele>
        <time>2026-06-23T13:47:25Z</time>
      </trkpt>
      <trkpt lat="50.162902995944023" lon="-5.087695028632879">
        <ele>16.48</ele>
        <time>2026-06-23T13:47:26Z</time>
      </trkpt>
      <trkpt lat="50.162583980709314" lon="-5.087512973695993">
        <ele>17.440000000000001</ele>
        <time>2026-06-23T13:47:30Z</time>
      </trkpt>
      <trkpt lat="50.161506989970803" lon="-5.086963959038258">
        <ele>19.359999999999999</ele>
        <time>2026-06-23T13:47:40Z</time>
      </trkpt>
      <trkpt lat="50.160950012505054" lon="-5.086662964895368">
        <ele>19.359999999999999</ele>
        <time>2026-06-23T13:47:45Z</time>
      </trkpt>
      <trkpt lat="50.160852028056979" lon="-5.086564980447292">
        <ele>18.879999999999999</ele>
        <time>2026-06-23T13:47:46Z</time>
      </trkpt>
      <trkpt lat="50.15980202704668" lon="-5.085375001654029">
        <ele>19.84</ele>
        <time>2026-06-23T13:47:56Z</time>
      </trkpt>
      <trkpt lat="50.158625962212682" lon="-5.084082009270787">
        <ele>28.5</ele>
        <time>2026-06-23T13:48:07Z</time>
      </trkpt>
      <trkpt lat="50.157732032239437" lon="-5.083526037633419">
        <ele>39.07</ele>
        <time>2026-06-23T13:48:15Z</time>
      </trkpt>
      <trkpt lat="50.157535979524255" lon="-5.083416989073157">
        <ele>41.469999999999999</ele>
        <time>2026-06-23T13:48:17Z</time>
      </trkpt>
      <trkpt lat="50.157433971762657" lon="-5.083339037373662">
        <ele>42.439999999999998</ele>
        <time>2026-06-23T13:48:18Z</time>
      </trkpt>
      <trkpt lat="50.157337998971343" lon="-5.083237029612064">
        <ele>44.359999999999999</ele>
        <time>2026-06-23T13:48:19Z</time>
      </trkpt>
      <trkpt lat="50.156842041760683" lon="-5.082746017724276">
        <ele>52.049999999999997</ele>
        <time>2026-06-23T13:48:24Z</time>
      </trkpt>
      <trkpt lat="50.156745985150337" lon="-5.082658007740974">
        <ele>53.490000000000002</ele>
        <time>2026-06-23T13:48:25Z</time>
      </trkpt>
      <trkpt lat="50.156646994873881" lon="-5.082567986100912">
        <ele>54.450000000000003</ele>
        <time>2026-06-23T13:48:26Z</time>
      </trkpt>
      <trkpt lat="50.156550016254187" lon="-5.08247796446085">
        <ele>55.409999999999997</ele>
        <time>2026-06-23T13:48:27Z</time>
      </trkpt>
      <trkpt lat="50.156455971300602" lon="-5.08239196613431">
        <ele>55.890000000000001</ele>
        <time>2026-06-23T13:48:28Z</time>
      </trkpt>
      <trkpt lat="50.156052969396114" lon="-5.082034980878234">
        <ele>57.82</ele>
        <time>2026-06-23T13:48:35Z</time>
      </trkpt>
      <trkpt lat="50.155748035758734" lon="-5.081796012818813">
        <ele>57.82</ele>
        <time>2026-06-23T13:48:43Z</time>
      </trkpt>
      <trkpt lat="50.155412005260587" lon="-5.081633990630508">
        <ele>55.409999999999997</ele>
        <time>2026-06-23T13:48:54Z</time>
      </trkpt>
      <trkpt lat="50.155187034979463" lon="-5.081605995073915">
        <ele>53.490000000000002</ele>
        <time>2026-06-23T13:49:08Z</time>
      </trkpt>
      <trkpt lat="50.15460398979485" lon="-5.081614041700959">
        <ele>48.68</ele>
        <time>2026-06-23T13:49:18Z</time>
      </trkpt>
      <trkpt lat="50.153608974069357" lon="-5.081581017002463">
        <ele>42.920000000000002</ele>
        <time>2026-06-23T13:49:28Z</time>
      </trkpt>
      <trkpt lat="50.152703979983926" lon="-5.081085981801152">
        <ele>42.439999999999998</ele>
        <time>2026-06-23T13:49:37Z</time>
      </trkpt>
      <trkpt lat="50.152542963624001" lon="-5.080893030390143">
        <ele>43.399999999999999</ele>
        <time>2026-06-23T13:49:39Z</time>
      </trkpt>
      <trkpt lat="50.152484038844705" lon="-5.080774007365108">
        <ele>43.880000000000003</ele>
        <time>2026-06-23T13:49:40Z</time>
      </trkpt>
      <trkpt lat="50.152425030246377" lon="-5.080656995996833">
        <ele>44.359999999999999</ele>
        <time>2026-06-23T13:49:41Z</time>
      </trkpt>
      <trkpt lat="50.152368033304811" lon="-5.080541996285319">
        <ele>44.840000000000003</ele>
        <time>2026-06-23T13:49:42Z</time>
      </trkpt>
      <trkpt lat="50.152315981686115" lon="-5.080408975481987">
        <ele>45.32</ele>
        <time>2026-06-23T13:49:43Z</time>
      </trkpt>
      <trkpt lat="50.152115989476442" lon="-5.079588973894715">
        <ele>49.159999999999997</ele>
        <time>2026-06-23T13:49:49Z</time>
      </trkpt>
      <trkpt lat="50.152063015848398" lon="-5.079451007768512">
        <ele>49.159999999999997</ele>
        <time>2026-06-23T13:49:50Z</time>
      </trkpt>
      <trkpt lat="50.152010964229703" lon="-5.079314969480038">
        <ele>49.159999999999997</ele>
        <time>2026-06-23T13:49:51Z</time>
      </trkpt>
      <trkpt lat="50.151901999488473" lon="-5.079030990600586">
        <ele>49.649999999999999</ele>
        <time>2026-06-23T13:49:53Z</time>
      </trkpt>
      <trkpt lat="50.151755986735225" lon="-5.078812977299094">
        <ele>49.649999999999999</ele>
        <time>2026-06-23T13:49:55Z</time>
      </trkpt>
      <trkpt lat="50.151674011722207" lon="-5.078721027821302">
        <ele>50.130000000000003</ele>
        <time>2026-06-23T13:49:56Z</time>
      </trkpt>
      <trkpt lat="50.151590025052428" lon="-5.078643998131156">
        <ele>50.130000000000003</ele>
        <time>2026-06-23T13:49:57Z</time>
      </trkpt>
      <trkpt lat="50.150862978771329" lon="-5.078218029811978">
        <ele>53.490000000000002</ele>
        <time>2026-06-23T13:50:06Z</time>
      </trkpt>
      <trkpt lat="50.15069299377501" lon="-5.078108981251717">
        <ele>54.450000000000003</ele>
        <time>2026-06-23T13:50:10Z</time>
      </trkpt>
      <trkpt lat="50.150657035410404" lon="-5.078087020665407">
        <ele>54.93</ele>
        <time>2026-06-23T13:50:11Z</time>
      </trkpt>
      <trkpt lat="50.150439022108912" lon="-5.077979983761907">
        <ele>54.450000000000003</ele>
        <time>2026-06-23T13:50:14Z</time>
      </trkpt>
      <trkpt lat="50.150384958833456" lon="-5.07787898182869">
        <ele>54.450000000000003</ele>
        <time>2026-06-23T13:50:15Z</time>
      </trkpt>
      <trkpt lat="50.149849019944668" lon="-5.076594036072493">
        <ele>53.969999999999999</ele>
        <time>2026-06-23T13:50:25Z</time>
      </trkpt>
      <trkpt lat="50.149191040545702" lon="-5.075125023722649">
        <ele>57.82</ele>
        <time>2026-06-23T13:50:36Z</time>
      </trkpt>
      <trkpt lat="50.148831037804484" lon="-5.074535021558404">
        <ele>56.369999999999997</ele>
        <time>2026-06-23T13:50:43Z</time>
      </trkpt>
      <trkpt lat="50.148782003670931" lon="-5.074458997696638">
        <ele>55.890000000000001</ele>
        <time>2026-06-23T13:50:44Z</time>
      </trkpt>
      <trkpt lat="50.148731963708997" lon="-5.074375011026859">
        <ele>55.409999999999997</ele>
        <time>2026-06-23T13:50:45Z</time>
      </trkpt>
      <trkpt lat="50.148487966507673" lon="-5.073960023000836">
        <ele>53.969999999999999</ele>
        <time>2026-06-23T13:50:50Z</time>
      </trkpt>
      <trkpt lat="50.148444967344403" lon="-5.073886010795832">
        <ele>53.490000000000002</ele>
        <time>2026-06-23T13:50:51Z</time>
      </trkpt>
      <trkpt lat="50.148209016770124" lon="-5.073345964774489">
        <ele>48.200000000000003</ele>
        <time>2026-06-23T13:50:58Z</time>
      </trkpt>
      <trkpt lat="50.147959990426898" lon="-5.072340974584222">
        <ele>43.399999999999999</ele>
        <time>2026-06-23T13:51:05Z</time>
      </trkpt>
      <trkpt lat="50.14770501293242" lon="-5.070822006091476">
        <ele>35.710000000000001</ele>
        <time>2026-06-23T13:51:13Z</time>
      </trkpt>
      <trkpt lat="50.147440982982516" lon="-5.069164987653494">
        <ele>29.460000000000001</ele>
        <time>2026-06-23T13:51:22Z</time>
      </trkpt>
      <trkpt lat="50.147225987166166" lon="-5.068063018843532">
        <ele>31.859999999999999</ele>
        <time>2026-06-23T13:51:29Z</time>
      </trkpt>
      <trkpt lat="50.147201009094715" lon="-5.06793100386858">
        <ele>32.340000000000003</ele>
        <time>2026-06-23T13:51:30Z</time>
      </trkpt>
      <trkpt lat="50.147134037688375" lon="-5.066956020891666">
        <ele>34.740000000000002</ele>
        <time>2026-06-23T13:51:38Z</time>
      </trkpt>
      <trkpt lat="50.147131020203233" lon="-5.066846972331405">
        <ele>34.740000000000002</ele>
        <time>2026-06-23T13:51:39Z</time>
      </trkpt>
      <trkpt lat="50.147203020751476" lon="-5.065726982429624">
        <ele>32.340000000000003</ele>
        <time>2026-06-23T13:51:48Z</time>
      </trkpt>
      <trkpt lat="50.147397983819246" lon="-5.064377998933196">
        <ele>28.02</ele>
        <time>2026-06-23T13:51:59Z</time>
      </trkpt>
      <trkpt lat="50.147480964660645" lon="-5.063657993450761">
        <ele>26.57</ele>
        <time>2026-06-23T13:52:05Z</time>
      </trkpt>
      <trkpt lat="50.147494040429592" lon="-5.063540982082486">
        <ele>26.57</ele>
        <time>2026-06-23T13:52:06Z</time>
      </trkpt>
      <trkpt lat="50.147508960217237" lon="-5.063417013734579">
        <ele>26.57</ele>
        <time>2026-06-23T13:52:07Z</time>
      </trkpt>
      <trkpt lat="50.14755598269403" lon="-5.06318299099803">
        <ele>26.09</ele>
        <time>2026-06-23T13:52:09Z</time>
      </trkpt>
      <trkpt lat="50.147605016827583" lon="-5.063028009608388">
        <ele>25.609999999999999</ele>
        <time>2026-06-23T13:52:12Z</time>
      </trkpt>
      <trkpt lat="50.147615997120738" lon="-5.06299196742475">
        <ele>25.129999999999999</ele>
        <time>2026-06-23T13:52:18Z</time>
      </trkpt>
      <trkpt lat="50.147825041785836" lon="-5.062337005510926">
        <ele>24.170000000000002</ele>
        <time>2026-06-23T13:52:25Z</time>
      </trkpt>
      <trkpt lat="50.1478579826653" lon="-5.062228040769696">
        <ele>24.170000000000002</ele>
        <time>2026-06-23T13:52:26Z</time>
      </trkpt>
      <trkpt lat="50.147893019020557" lon="-5.062116980552673">
        <ele>24.170000000000002</ele>
        <time>2026-06-23T13:52:27Z</time>
      </trkpt>
      <trkpt lat="50.148149002343416" lon="-5.061288010329008">
        <ele>23.690000000000001</ele>
        <time>2026-06-23T13:52:34Z</time>
      </trkpt>
      <trkpt lat="50.148184960708022" lon="-5.061172004789114">
        <ele>23.690000000000001</ele>
        <time>2026-06-23T13:52:35Z</time>
      </trkpt>
      <trkpt lat="50.148219997063279" lon="-5.061057005077601">
        <ele>23.210000000000001</ele>
        <time>2026-06-23T13:52:36Z</time>
      </trkpt>
      <trkpt lat="50.148253021761775" lon="-5.0609499681741">
        <ele>22.73</ele>
        <time>2026-06-23T13:52:37Z</time>
      </trkpt>
      <trkpt lat="50.148289985954762" lon="-5.060848966240883">
        <ele>22.73</ele>
        <time>2026-06-23T13:52:38Z</time>
      </trkpt>
      <trkpt lat="50.148468017578125" lon="-5.060402965173125">
        <ele>20.32</ele>
        <time>2026-06-23T13:52:43Z</time>
      </trkpt>
      <trkpt lat="50.148490983992815" lon="-5.060334987938404">
        <ele>19.359999999999999</ele>
        <time>2026-06-23T13:52:44Z</time>
      </trkpt>
      <trkpt lat="50.148511016741395" lon="-5.060277990996838">
        <ele>17.440000000000001</ele>
        <time>2026-06-23T13:52:52Z</time>
      </trkpt>
      <trkpt lat="50.148541023954749" lon="-5.060151005163789">
        <ele>15.52</ele>
        <time>2026-06-23T13:52:54Z</time>
      </trkpt>
      <trkpt lat="50.148557033389807" lon="-5.060083027929068">
        <ele>14.56</ele>
        <time>2026-06-23T13:52:55Z</time>
      </trkpt>
      <trkpt lat="50.148692987859249" lon="-5.059498976916075">
        <ele>11.19</ele>
        <time>2026-06-23T13:53:01Z</time>
      </trkpt>
      <trkpt lat="50.148719977587461" lon="-5.059384983032942">
        <ele>10.710000000000001</ele>
        <time>2026-06-23T13:53:02Z</time>
      </trkpt>
      <trkpt lat="50.148829026147723" lon="-5.05894803442061">
        <ele>9.75</ele>
        <time>2026-06-23T13:53:06Z</time>
      </trkpt>
      <trkpt lat="50.148874958977103" lon="-5.058834962546825">
        <ele>9.27</ele>
        <time>2026-06-23T13:53:07Z</time>
      </trkpt>
      <trkpt lat="50.148924998939037" lon="-5.05871300585568">
        <ele>8.789999999999999</ele>
        <time>2026-06-23T13:53:08Z</time>
      </trkpt>
      <trkpt lat="50.14897302724421" lon="-5.058594988659024">
        <ele>8.310000000000001</ele>
        <time>2026-06-23T13:53:09Z</time>
      </trkpt>
      <trkpt lat="50.149017032235861" lon="-5.058487029746175">
        <ele>8.310000000000001</ele>
        <time>2026-06-23T13:53:10Z</time>
      </trkpt>
      <trkpt lat="50.149060031399131" lon="-5.058383010327816">
        <ele>7.83</ele>
        <time>2026-06-23T13:53:11Z</time>
      </trkpt>
      <trkpt lat="50.149282990023494" lon="-5.057857967913151">
        <ele>5.42</ele>
        <time>2026-06-23T13:53:16Z</time>
      </trkpt>
      <trkpt lat="50.149332024157047" lon="-5.057750009000301">
        <ele>4.94</ele>
        <time>2026-06-23T13:53:17Z</time>
      </trkpt>
      <trkpt lat="50.149524975568056" lon="-5.057313982397318">
        <ele>-1.3</ele>
        <time>2026-06-23T13:53:24Z</time>
      </trkpt>
      <trkpt lat="50.149540985003114" lon="-5.057272994890809">
        <ele>-2.75</ele>
        <time>2026-06-23T13:53:26Z</time>
      </trkpt>
      <trkpt lat="50.149626983329654" lon="-5.057143997400999">
        <ele>-2.75</ele>
        <time>2026-06-23T13:53:27Z</time>
      </trkpt>
      <trkpt lat="50.149626983329654" lon="-5.057143997400999">
        <ele>-3.23</ele>
        <time>2026-06-23T13:53:28Z</time>
      </trkpt>
      <trkpt lat="50.149540985003114" lon="-5.057079959660769">
        <ele>-3.71</ele>
        <time>2026-06-23T13:53:29Z</time>
      </trkpt>
      <trkpt lat="50.149507960304618" lon="-5.05703603848815">
        <ele>-3.71</ele>
        <time>2026-06-23T13:53:30Z</time>
      </trkpt>
      <trkpt lat="50.14944601804018" lon="-5.0569539796561">
        <ele>-4.19</ele>
        <time>2026-06-23T13:53:31Z</time>
      </trkpt>
      <trkpt lat="50.14938198029995" lon="-5.056869992986321">
        <ele>-4.19</ele>
        <time>2026-06-23T13:53:32Z</time>
      </trkpt>
      <trkpt lat="50.149322971701622" lon="-5.056792963296175">
        <ele>-3.23</ele>
        <time>2026-06-23T13:53:33Z</time>
      </trkpt>
      <trkpt lat="50.149264968931675" lon="-5.056717023253441">
        <ele>-2.75</ele>
        <time>2026-06-23T13:53:34Z</time>
      </trkpt>
      <trkpt lat="50.149207971990108" lon="-5.056642005220056">
        <ele>-1.79</ele>
        <time>2026-06-23T13:53:35Z</time>
      </trkpt>
      <trkpt lat="50.149173019453883" lon="-5.056549971923232">
        <ele>-0.82</ele>
        <time>2026-06-23T13:53:36Z</time>
      </trkpt>
      <trkpt lat="50.149147035554051" lon="-5.056465985253453">
        <ele>0.14</ele>
        <time>2026-06-23T13:53:37Z</time>
      </trkpt>
      <trkpt lat="50.149104036390781" lon="-5.056272028014064">
        <ele>1.58</ele>
        <time>2026-06-23T13:53:38Z</time>
      </trkpt>
      <trkpt lat="50.149154998362064" lon="-5.056216958910227">
        <ele>3.02</ele>
        <time>2026-06-23T13:53:39Z</time>
      </trkpt>
      <trkpt lat="50.14920998364687" lon="-5.05615602247417">
        <ele>4.46</ele>
        <time>2026-06-23T13:53:40Z</time>
      </trkpt>
      <trkpt lat="50.149271003901958" lon="-5.056089973077178">
        <ele>5.42</ele>
        <time>2026-06-23T13:53:41Z</time>
      </trkpt>
      <trkpt lat="50.149973994120955" lon="-5.055325962603092">
        <ele>13.6</ele>
        <time>2026-06-23T13:53:50Z</time>
      </trkpt>
      <trkpt lat="50.150681007653475" lon="-5.054594976827502">
        <ele>20.32</ele>
        <time>2026-06-23T13:53:59Z</time>
      </trkpt>
      <trkpt lat="50.150921987369657" lon="-5.054194992408156">
        <ele>23.210000000000001</ele>
        <time>2026-06-23T13:54:03Z</time>
      </trkpt>
      <trkpt lat="50.150965992361307" lon="-5.054080998525024">
        <ele>24.170000000000002</ele>
        <time>2026-06-23T13:54:04Z</time>
      </trkpt>
      <trkpt lat="50.151087027043104" lon="-5.053561991080642">
        <ele>29.460000000000001</ele>
        <time>2026-06-23T13:54:11Z</time>
      </trkpt>
      <trkpt lat="50.151087027043104" lon="-5.053561991080642">
        <ele>29.940000000000001</ele>
        <time>2026-06-23T13:54:21Z</time>
      </trkpt>
      <trkpt lat="50.151087027043104" lon="-5.053561991080642">
        <ele>30.420000000000002</ele>
        <time>2026-06-23T13:55:12Z</time>
      </trkpt>
      <trkpt lat="50.151087027043104" lon="-5.053561991080642">
        <ele>30.899999999999999</ele>
        <time>2026-06-23T13:56:04Z</time>
      </trkpt>
      <trkpt lat="50.151093984022737" lon="-5.053510023280978">
        <ele>30.899999999999999</ele>
        <time>2026-06-23T13:56:28Z</time>
      </trkpt>
      <trkpt lat="50.151089960709214" lon="-5.05353600718081">
        <ele>30.420000000000002</ele>
        <time>2026-06-23T13:56:30Z</time>
      </trkpt>
      <trkpt lat="50.151084009557962" lon="-5.053582023829222">
        <ele>30.420000000000002</ele>
        <time>2026-06-23T13:56:31Z</time>
      </trkpt>
      <trkpt lat="50.151075040921569" lon="-5.053653018549085">
        <ele>30.420000000000002</ele>
        <time>2026-06-23T13:56:32Z</time>
      </trkpt>
      <trkpt lat="50.151061965152621" lon="-5.053744968026876">
        <ele>29.940000000000001</ele>
        <time>2026-06-23T13:56:33Z</time>
      </trkpt>
      <trkpt lat="50.150960041210055" lon="-5.054098013788462">
        <ele>29.460000000000001</ele>
        <time>2026-06-23T13:56:36Z</time>
      </trkpt>
      <trkpt lat="50.150905977934599" lon="-5.054235979914665">
        <ele>28.98</ele>
        <time>2026-06-23T13:56:37Z</time>
      </trkpt>
      <trkpt lat="50.150839006528258" lon="-5.054351985454559">
        <ele>28.5</ele>
        <time>2026-06-23T13:56:38Z</time>
      </trkpt>
      <trkpt lat="50.150763988494873" lon="-5.054467990994453">
        <ele>28.02</ele>
        <time>2026-06-23T13:56:39Z</time>
      </trkpt>
      <trkpt lat="50.150689976289868" lon="-5.054581984877586">
        <ele>27.530000000000001</ele>
        <time>2026-06-23T13:56:40Z</time>
      </trkpt>
      <trkpt lat="50.150616969913244" lon="-5.054693967103958">
        <ele>27.050000000000001</ele>
        <time>2026-06-23T13:56:41Z</time>
      </trkpt>
      <trkpt lat="50.150537006556988" lon="-5.054772002622485">
        <ele>26.57</ele>
        <time>2026-06-23T13:56:42Z</time>
      </trkpt>
      <trkpt lat="50.15045796521008" lon="-5.054848026484251">
        <ele>26.09</ele>
        <time>2026-06-23T13:56:43Z</time>
      </trkpt>
      <trkpt lat="50.150381019338965" lon="-5.054922038689256">
        <ele>26.09</ele>
        <time>2026-06-23T13:56:44Z</time>
      </trkpt>
      <trkpt lat="50.150144984945655" lon="-5.055149020627141">
        <ele>25.129999999999999</ele>
        <time>2026-06-23T13:56:47Z</time>
      </trkpt>
      <trkpt lat="50.149335963651538" lon="-5.056018978357315">
        <ele>21.77</ele>
        <time>2026-06-23T13:56:58Z</time>
      </trkpt>
      <trkpt lat="50.149159021675587" lon="-5.056212013587356">
        <ele>21.289999999999999</ele>
        <time>2026-06-23T13:57:01Z</time>
      </trkpt>
      <trkpt lat="50.149116022512317" lon="-5.056259036064148">
        <ele>21.289999999999999</ele>
        <time>2026-06-23T13:57:02Z</time>
      </trkpt>
      <trkpt lat="50.149120967835188" lon="-5.056381998583674">
        <ele>20.809999999999999</ele>
        <time>2026-06-23T13:57:03Z</time>
      </trkpt>
      <trkpt lat="50.149149969220161" lon="-5.056475959718227">
        <ele>20.809999999999999</ele>
        <time>2026-06-23T13:57:04Z</time>
      </trkpt>
      <trkpt lat="50.149197997525334" lon="-5.05662901327014">
        <ele>19.84</ele>
        <time>2026-06-23T13:57:05Z</time>
      </trkpt>
      <trkpt lat="50.149246025830507" lon="-5.056691961362958">
        <ele>19.359999999999999</ele>
        <time>2026-06-23T13:57:06Z</time>
      </trkpt>
      <trkpt lat="50.149311991408467" lon="-5.056777959689498">
        <ele>18.399999999999999</ele>
        <time>2026-06-23T13:57:07Z</time>
      </trkpt>
      <trkpt lat="50.149373011663556" lon="-5.056858006864786">
        <ele>17.440000000000001</ele>
        <time>2026-06-23T13:57:08Z</time>
      </trkpt>
      <trkpt lat="50.149480970576406" lon="-5.056999996304512">
        <ele>15.52</ele>
        <time>2026-06-23T13:57:10Z</time>
      </trkpt>
      <trkpt lat="50.149540985003114" lon="-5.057079959660769">
        <ele>14.56</ele>
        <time>2026-06-23T13:57:11Z</time>
      </trkpt>
      <trkpt lat="50.149563029408455" lon="-5.057143997400999">
        <ele>13.119999999999999</ele>
        <time>2026-06-23T13:57:12Z</time>
      </trkpt>
      <trkpt lat="50.14955397695303" lon="-5.057195965200663">
        <ele>12.630000000000001</ele>
        <time>2026-06-23T13:57:13Z</time>
      </trkpt>
      <trkpt lat="50.14953201636672" lon="-5.05729696713388">
        <ele>11.67</ele>
        <time>2026-06-23T13:57:14Z</time>
      </trkpt>
      <trkpt lat="50.149494968354702" lon="-5.057387994602323">
        <ele>10.710000000000001</ele>
        <time>2026-06-23T13:57:15Z</time>
      </trkpt>
      <trkpt lat="50.149452975019813" lon="-5.057481033727527">
        <ele>9.27</ele>
        <time>2026-06-23T13:57:16Z</time>
      </trkpt>
      <trkpt lat="50.149405030533671" lon="-5.057586980983615">
        <ele>8.310000000000001</ele>
        <time>2026-06-23T13:57:17Z</time>
      </trkpt>
      <trkpt lat="50.149355996400118" lon="-5.057696029543877">
        <ele>8.310000000000001</ele>
        <time>2026-06-23T13:57:18Z</time>
      </trkpt>
      <trkpt lat="50.149305034428835" lon="-5.057809017598629">
        <ele>8.310000000000001</ele>
        <time>2026-06-23T13:57:19Z</time>
      </trkpt>
      <trkpt lat="50.149248959496617" lon="-5.057933991774917">
        <ele>8.789999999999999</ele>
        <time>2026-06-23T13:57:20Z</time>
      </trkpt>
      <trkpt lat="50.14884302392602" lon="-5.058914003893733">
        <ele>14.56</ele>
        <time>2026-06-23T13:57:27Z</time>
      </trkpt>
      <trkpt lat="50.148794995620847" lon="-5.059063034132123">
        <ele>15.039999999999999</ele>
        <time>2026-06-23T13:57:28Z</time>
      </trkpt>
      <trkpt lat="50.14875803142786" lon="-5.059221033006907">
        <ele>15.52</ele>
        <time>2026-06-23T13:57:29Z</time>
      </trkpt>
      <trkpt lat="50.148544041439891" lon="-5.060138013213873">
        <ele>17.920000000000002</ele>
        <time>2026-06-23T13:57:36Z</time>
      </trkpt>
      <trkpt lat="50.148483021184802" lon="-5.060358038172126">
        <ele>19.359999999999999</ele>
        <time>2026-06-23T13:57:38Z</time>
      </trkpt>
      <trkpt lat="50.148445973172784" lon="-5.060464991256595">
        <ele>20.32</ele>
        <time>2026-06-23T13:57:39Z</time>
      </trkpt>
      <trkpt lat="50.148127041757107" lon="-5.061359005048871">
        <ele>25.129999999999999</ele>
        <time>2026-06-23T13:57:47Z</time>
      </trkpt>
      <trkpt lat="50.14809200540185" lon="-5.061470987275243">
        <ele>23.690000000000001</ele>
        <time>2026-06-23T13:57:48Z</time>
      </trkpt>
      <trkpt lat="50.147915985435247" lon="-5.062042968347669">
        <ele>19.84</ele>
        <time>2026-06-23T13:57:53Z</time>
      </trkpt>
      <trkpt lat="50.147881032899022" lon="-5.062156040221453">
        <ele>19.84</ele>
        <time>2026-06-23T13:57:54Z</time>
      </trkpt>
      <trkpt lat="50.147848008200526" lon="-5.062263999134302">
        <ele>19.359999999999999</ele>
        <time>2026-06-23T13:57:55Z</time>
      </trkpt>
      <trkpt lat="50.147779025137424" lon="-5.062483018264175">
        <ele>19.359999999999999</ele>
        <time>2026-06-23T13:57:57Z</time>
      </trkpt>
      <trkpt lat="50.147739965468645" lon="-5.06260204128921">
        <ele>19.84</ele>
        <time>2026-06-23T13:57:58Z</time>
      </trkpt>
      <trkpt lat="50.147701995447278" lon="-5.062722992151976">
        <ele>19.359999999999999</ele>
        <time>2026-06-23T13:57:59Z</time>
      </trkpt>
      <trkpt lat="50.147591019049287" lon="-5.063073020428419">
        <ele>19.84</ele>
        <time>2026-06-23T13:58:02Z</time>
      </trkpt>
      <trkpt lat="50.147523041814566" lon="-5.06329002790153">
        <ele>20.809999999999999</ele>
        <time>2026-06-23T13:58:04Z</time>
      </trkpt>
      <trkpt lat="50.147365964949131" lon="-5.064635993912816">
        <ele>24.170000000000002</ele>
        <time>2026-06-23T13:58:15Z</time>
      </trkpt>
      <trkpt lat="50.147263035178185" lon="-5.065446021035314">
        <ele>24.170000000000002</ele>
        <time>2026-06-23T13:58:24Z</time>
      </trkpt>
      <trkpt lat="50.147243002429605" lon="-5.065537970513105">
        <ele>25.129999999999999</ele>
        <time>2026-06-23T13:58:33Z</time>
      </trkpt>
      <trkpt lat="50.147164966911077" lon="-5.065959999337792">
        <ele>27.530000000000001</ele>
        <time>2026-06-23T13:58:40Z</time>
      </trkpt>
      <trkpt lat="50.147118028253317" lon="-5.066331988200545">
        <ele>28.5</ele>
        <time>2026-06-23T13:58:44Z</time>
      </trkpt>
      <trkpt lat="50.147182988002896" lon="-5.067707039415836">
        <ele>32.340000000000003</ele>
        <time>2026-06-23T13:58:55Z</time>
      </trkpt>
      <trkpt lat="50.147237973287702" lon="-5.068116998299956">
        <ele>32.82</ele>
        <time>2026-06-23T13:58:58Z</time>
      </trkpt>
      <trkpt lat="50.147265968844295" lon="-5.068241972476244">
        <ele>32.82</ele>
        <time>2026-06-23T13:58:59Z</time>
      </trkpt>
      <trkpt lat="50.147292958572507" lon="-5.068369964137673">
        <ele>31.859999999999999</ele>
        <time>2026-06-23T13:59:00Z</time>
      </trkpt>
      <trkpt lat="50.147542990744114" lon="-5.069808969274163">
        <ele>29.940000000000001</ele>
        <time>2026-06-23T13:59:09Z</time>
      </trkpt>
      <trkpt lat="50.147714987397194" lon="-5.070882020518184">
        <ele>32.340000000000003</ele>
        <time>2026-06-23T13:59:16Z</time>
      </trkpt>
      <trkpt lat="50.147740971297026" lon="-5.071039013564587">
        <ele>32.82</ele>
        <time>2026-06-23T13:59:17Z</time>
      </trkpt>
      <trkpt lat="50.147915985435247" lon="-5.072145005688071">
        <ele>39.549999999999997</ele>
        <time>2026-06-23T13:59:25Z</time>
      </trkpt>
      <trkpt lat="50.148172974586487" lon="-5.073221996426582">
        <ele>51.57</ele>
        <time>2026-06-23T13:59:35Z</time>
      </trkpt>
      <trkpt lat="50.148340025916696" lon="-5.073666991665959">
        <ele>57.340000000000003</ele>
        <time>2026-06-23T13:59:42Z</time>
      </trkpt>
      <trkpt lat="50.14835100620985" lon="-5.073691969737411">
        <ele>57.82</ele>
        <time>2026-06-23T13:59:43Z</time>
      </trkpt>
      <trkpt lat="50.148379001766443" lon="-5.073758019134402">
        <ele>58.299999999999997</ele>
        <time>2026-06-23T13:59:44Z</time>
      </trkpt>
      <trkpt lat="50.148408003151417" lon="-5.073822978883982">
        <ele>59.259999999999998</ele>
        <time>2026-06-23T13:59:45Z</time>
      </trkpt>
      <trkpt lat="50.148446979001164" lon="-5.073889028280973">
        <ele>59.740000000000002</ele>
        <time>2026-06-23T13:59:46Z</time>
      </trkpt>
      <trkpt lat="50.148496013134718" lon="-5.073972009122372">
        <ele>60.700000000000003</ele>
        <time>2026-06-23T13:59:47Z</time>
      </trkpt>
      <trkpt lat="50.148579999804497" lon="-5.074116010218859">
        <ele>60.700000000000003</ele>
        <time>2026-06-23T13:59:49Z</time>
      </trkpt>
      <trkpt lat="50.148601960390806" lon="-5.074152974411845">
        <ele>60.700000000000003</ele>
        <time>2026-06-23T13:59:50Z</time>
      </trkpt>
      <trkpt lat="50.148660968989134" lon="-5.074252970516682">
        <ele>60.219999999999999</ele>
        <time>2026-06-23T13:59:54Z</time>
      </trkpt>
      <trkpt lat="50.148692987859249" lon="-5.074307033792138">
        <ele>60.700000000000003</ele>
        <time>2026-06-23T13:59:55Z</time>
      </trkpt>
      <trkpt lat="50.149151980876923" lon="-5.075068026781082">
        <ele>60.700000000000003</ele>
        <time>2026-06-23T14:00:03Z</time>
      </trkpt>
      <trkpt lat="50.149343004450202" lon="-5.07543096318841">
        <ele>61.659999999999997</ele>
        <time>2026-06-23T14:00:06Z</time>
      </trkpt>
      <trkpt lat="50.149453980848193" lon="-5.075682001188397">
        <ele>62.619999999999997</ele>
        <time>2026-06-23T14:00:08Z</time>
      </trkpt>
      <trkpt lat="50.149513995274901" lon="-5.075818039476872">
        <ele>63.100000000000001</ele>
        <time>2026-06-23T14:00:09Z</time>
      </trkpt>
      <trkpt lat="50.150102991610765" lon="-5.077205998823047">
        <ele>62.619999999999997</ele>
        <time>2026-06-23T14:00:19Z</time>
      </trkpt>
      <trkpt lat="50.150351012125611" lon="-5.077806981280446">
        <ele>60.219999999999999</ele>
        <time>2026-06-23T14:00:24Z</time>
      </trkpt>
      <trkpt lat="50.150524014607072" lon="-5.078081991523504">
        <ele>60.219999999999999</ele>
        <time>2026-06-23T14:00:28Z</time>
      </trkpt>
      <trkpt lat="50.15054396353662" lon="-5.078175030648708">
        <ele>60.219999999999999</ele>
        <time>2026-06-23T14:00:29Z</time>
      </trkpt>
      <trkpt lat="50.150602972134948" lon="-5.078216018155217">
        <ele>60.219999999999999</ele>
        <time>2026-06-23T14:00:30Z</time>
      </trkpt>
      <trkpt lat="50.15067002736032" lon="-5.078218029811978">
        <ele>60.219999999999999</ele>
        <time>2026-06-23T14:00:31Z</time>
      </trkpt>
      <trkpt lat="50.150748984888196" lon="-5.078224986791611">
        <ele>59.740000000000002</ele>
        <time>2026-06-23T14:00:32Z</time>
      </trkpt>
      <trkpt lat="50.151603017002344" lon="-5.078655984252691">
        <ele>58.780000000000001</ele>
        <time>2026-06-23T14:00:41Z</time>
      </trkpt>
      <trkpt lat="50.151779036968946" lon="-5.078847007825971">
        <ele>57.340000000000003</ele>
        <time>2026-06-23T14:00:43Z</time>
      </trkpt>
      <trkpt lat="50.151856988668442" lon="-5.078963013365865">
        <ele>56.859999999999999</ele>
        <time>2026-06-23T14:00:44Z</time>
      </trkpt>
      <trkpt lat="50.151920020580292" lon="-5.079078013077378">
        <ele>56.369999999999997</ele>
        <time>2026-06-23T14:00:45Z</time>
      </trkpt>
      <trkpt lat="50.151969976723194" lon="-5.079209022223949">
        <ele>55.890000000000001</ele>
        <time>2026-06-23T14:00:46Z</time>
      </trkpt>
      <trkpt lat="50.152019010856748" lon="-5.079335002228618">
        <ele>55.890000000000001</ele>
        <time>2026-06-23T14:00:47Z</time>
      </trkpt>
      <trkpt lat="50.152067039161921" lon="-5.079459976404905">
        <ele>55.409999999999997</ele>
        <time>2026-06-23T14:00:48Z</time>
      </trkpt>
      <trkpt lat="50.152115989476442" lon="-5.079588973894715">
        <ele>54.450000000000003</ele>
        <time>2026-06-23T14:00:49Z</time>
      </trkpt>
      <trkpt lat="50.152149014174938" lon="-5.079720988869667">
        <ele>53.490000000000002</ele>
        <time>2026-06-23T14:00:50Z</time>
      </trkpt>
      <trkpt lat="50.152182960882783" lon="-5.079861972481012">
        <ele>52.530000000000001</ele>
        <time>2026-06-23T14:00:51Z</time>
      </trkpt>
      <trkpt lat="50.152455037459731" lon="-5.080717010423541">
        <ele>48.200000000000003</ele>
        <time>2026-06-23T14:00:57Z</time>
      </trkpt>
      <trkpt lat="50.152523014694452" lon="-5.080852964892983">
        <ele>48.200000000000003</ele>
        <time>2026-06-23T14:00:58Z</time>
      </trkpt>
      <trkpt lat="50.152597026899457" lon="-5.0809729937464">
        <ele>47.719999999999999</ele>
        <time>2026-06-23T14:00:59Z</time>
      </trkpt>
      <trkpt lat="50.152688976377249" lon="-5.081069972366095">
        <ele>47.719999999999999</ele>
        <time>2026-06-23T14:01:00Z</time>
      </trkpt>
      <trkpt lat="50.152784027159214" lon="-5.081170974299312">
        <ele>47.719999999999999</ele>
        <time>2026-06-23T14:01:01Z</time>
      </trkpt>
      <trkpt lat="50.152878994122148" lon="-5.081270970404148">
        <ele>47.240000000000002</ele>
        <time>2026-06-23T14:01:02Z</time>
      </trkpt>
      <trkpt lat="50.152978990226984" lon="-5.081356968730688">
        <ele>47.240000000000002</ele>
        <time>2026-06-23T14:01:03Z</time>
      </trkpt>
      <trkpt lat="50.153168002143502" lon="-5.081476997584105">
        <ele>47.240000000000002</ele>
        <time>2026-06-23T14:01:05Z</time>
      </trkpt>
      <trkpt lat="50.153301022946835" lon="-5.081508010625839">
        <ele>47.240000000000002</ele>
        <time>2026-06-23T14:01:06Z</time>
      </trkpt>
      <trkpt lat="50.153407976031303" lon="-5.081533994525671">
        <ele>47.240000000000002</ele>
        <time>2026-06-23T14:01:07Z</time>
      </trkpt>
      <trkpt lat="50.153869986534119" lon="-5.081642037257552">
        <ele>46.280000000000001</ele>
        <time>2026-06-23T14:01:12Z</time>
      </trkpt>
      <trkpt lat="50.154137033969164" lon="-5.081648994237185">
        <ele>46.280000000000001</ele>
        <time>2026-06-23T14:01:19Z</time>
      </trkpt>
      <trkpt lat="50.154137033969164" lon="-5.081648994237185">
        <ele>46.759999999999998</ele>
        <time>2026-06-23T14:01:28Z</time>
      </trkpt>
      <trkpt lat="50.154315987601876" lon="-5.081647988408804">
        <ele>49.159999999999997</ele>
        <time>2026-06-23T14:02:00Z</time>
      </trkpt>
      <trkpt lat="50.154876988381147" lon="-5.081605995073915">
        <ele>51.57</ele>
        <time>2026-06-23T14:02:09Z</time>
      </trkpt>
      <trkpt lat="50.155232967808843" lon="-5.081605995073915">
        <ele>52.049999999999997</ele>
        <time>2026-06-23T14:02:14Z</time>
      </trkpt>
      <trkpt lat="50.155457016080618" lon="-5.081646982580423">
        <ele>53.490000000000002</ele>
        <time>2026-06-23T14:02:17Z</time>
      </trkpt>
      <trkpt lat="50.155536979436874" lon="-5.081670032814145">
        <ele>53.969999999999999</ele>
        <time>2026-06-23T14:02:18Z</time>
      </trkpt>
      <trkpt lat="50.156381959095597" lon="-5.082323988899589">
        <ele>56.859999999999999</ele>
        <time>2026-06-23T14:02:29Z</time>
      </trkpt>
      <trkpt lat="50.156971039250493" lon="-5.082864034920931">
        <ele>55.409999999999997</ele>
        <time>2026-06-23T14:02:36Z</time>
      </trkpt>
      <trkpt lat="50.157072963193059" lon="-5.082957996055484">
        <ele>54.93</ele>
        <time>2026-06-23T14:02:37Z</time>
      </trkpt>
      <trkpt lat="50.157163990661502" lon="-5.083053968846798">
        <ele>54.450000000000003</ele>
        <time>2026-06-23T14:02:38Z</time>
      </trkpt>
      <trkpt lat="50.157261975109577" lon="-5.083156982436776">
        <ele>53.969999999999999</ele>
        <time>2026-06-23T14:02:39Z</time>
      </trkpt>
      <trkpt lat="50.157358031719923" lon="-5.083258990198374">
        <ele>53.490000000000002</ele>
        <time>2026-06-23T14:02:40Z</time>
      </trkpt>
      <trkpt lat="50.157449981197715" lon="-5.083355968818069">
        <ele>52.530000000000001</ele>
        <time>2026-06-23T14:02:41Z</time>
      </trkpt>
      <trkpt lat="50.157548971474171" lon="-5.083425035700202">
        <ele>51.57</ele>
        <time>2026-06-23T14:02:42Z</time>
      </trkpt>
      <trkpt lat="50.157651985064149" lon="-5.083494018763304">
        <ele>51.090000000000003</ele>
        <time>2026-06-23T14:02:43Z</time>
      </trkpt>
      <trkpt lat="50.158300995826721" lon="-5.083779003471136">
        <ele>45.32</ele>
        <time>2026-06-23T14:02:49Z</time>
      </trkpt>
      <trkpt lat="50.158412978053093" lon="-5.083868019282818">
        <ele>43.880000000000003</ele>
        <time>2026-06-23T14:02:50Z</time>
      </trkpt>
      <trkpt lat="50.15932903625071" lon="-5.084836967289448">
        <ele>32.82</ele>
        <time>2026-06-23T14:02:59Z</time>
      </trkpt>
      <trkpt lat="50.159422997385263" lon="-5.084944004192948">
        <ele>32.340000000000003</ele>
        <time>2026-06-23T14:03:00Z</time>
      </trkpt>
      <trkpt lat="50.159518970176578" lon="-5.085052968934178">
        <ele>31.379999999999999</ele>
        <time>2026-06-23T14:03:01Z</time>
      </trkpt>
      <trkpt lat="50.159617038443685" lon="-5.085164029151201">
        <ele>29.940000000000001</ele>
        <time>2026-06-23T14:03:02Z</time>
      </trkpt>
      <trkpt lat="50.16072697006166" lon="-5.086426008492708">
        <ele>24.649999999999999</ele>
        <time>2026-06-23T14:03:13Z</time>
      </trkpt>
      <trkpt lat="50.161119997501373" lon="-5.086790034547448">
        <ele>24.170000000000002</ele>
        <time>2026-06-23T14:03:17Z</time>
      </trkpt>
      <trkpt lat="50.161223011091352" lon="-5.086857005953789">
        <ele>23.210000000000001</ele>
        <time>2026-06-23T14:03:18Z</time>
      </trkpt>
      <trkpt lat="50.162239987403154" lon="-5.087310969829559">
        <ele>21.289999999999999</ele>
        <time>2026-06-23T14:03:29Z</time>
      </trkpt>
      <trkpt lat="50.162580963224173" lon="-5.087511967867613">
        <ele>19.359999999999999</ele>
        <time>2026-06-23T14:03:36Z</time>
      </trkpt>
      <trkpt lat="50.162821020931005" lon="-5.087788989767432">
        <ele>17.440000000000001</ele>
        <time>2026-06-23T14:03:44Z</time>
      </trkpt>
      <trkpt lat="50.162957981228828" lon="-5.088048996403813">
        <ele>17.440000000000001</ele>
        <time>2026-06-23T14:03:47Z</time>
      </trkpt>
      <trkpt lat="50.163052026182413" lon="-5.088076991960406">
        <ele>17.920000000000002</ele>
        <time>2026-06-23T14:03:48Z</time>
      </trkpt>
      <trkpt lat="50.163226034492254" lon="-5.088240019977093">
        <ele>17.920000000000002</ele>
        <time>2026-06-23T14:03:50Z</time>
      </trkpt>
      <trkpt lat="50.163313038647175" lon="-5.08832199499011">
        <ele>18.399999999999999</ele>
        <time>2026-06-23T14:03:51Z</time>
      </trkpt>
      <trkpt lat="50.16339099034667" lon="-5.088401958346367">
        <ele>18.399999999999999</ele>
        <time>2026-06-23T14:03:52Z</time>
      </trkpt>
      <trkpt lat="50.163747975602746" lon="-5.089039988815785">
        <ele>16.960000000000001</ele>
        <time>2026-06-23T14:03:57Z</time>
      </trkpt>
      <trkpt lat="50.163812013342977" lon="-5.089187007397413">
        <ele>16.960000000000001</ele>
        <time>2026-06-23T14:03:58Z</time>
      </trkpt>
      <trkpt lat="50.164022985845804" lon="-5.089616999030113">
        <ele>16.48</ele>
        <time>2026-06-23T14:04:01Z</time>
      </trkpt>
      <trkpt lat="50.164101021364331" lon="-5.089743984863162">
        <ele>16</ele>
        <time>2026-06-23T14:04:02Z</time>
      </trkpt>
      <trkpt lat="50.164388017728925" lon="-5.090212030336261">
        <ele>15.039999999999999</ele>
        <time>2026-06-23T14:04:06Z</time>
      </trkpt>
      <trkpt lat="50.164452977478504" lon="-5.090316971763969">
        <ele>14.56</ele>
        <time>2026-06-23T14:04:07Z</time>
      </trkpt>
      <trkpt lat="50.164513997733593" lon="-5.090417973697186">
        <ele>14.08</ele>
        <time>2026-06-23T14:04:08Z</time>
      </trkpt>
      <trkpt lat="50.164587004110217" lon="-5.090674962848425">
        <ele>14.56</ele>
        <time>2026-06-23T14:04:10Z</time>
      </trkpt>
      <trkpt lat="50.164642995223403" lon="-5.090759033337236">
        <ele>15.039999999999999</ele>
        <time>2026-06-23T14:04:11Z</time>
      </trkpt>
      <trkpt lat="50.164718013256788" lon="-5.090786023065448">
        <ele>15.039999999999999</ele>
        <time>2026-06-23T14:04:12Z</time>
      </trkpt>
      <trkpt lat="50.16480702906847" lon="-5.090771019458771">
        <ele>15.039999999999999</ele>
        <time>2026-06-23T14:04:13Z</time>
      </trkpt>
      <trkpt lat="50.164909036830068" lon="-5.090742018073797">
        <ele>15.039999999999999</ele>
        <time>2026-06-23T14:04:14Z</time>
      </trkpt>
      <trkpt lat="50.165012972429395" lon="-5.090734977275133">
        <ele>15.039999999999999</ele>
        <time>2026-06-23T14:04:15Z</time>
      </trkpt>
      <trkpt lat="50.165110034868121" lon="-5.09076900780201">
        <ele>14.56</ele>
        <time>2026-06-23T14:04:16Z</time>
      </trkpt>
      <trkpt lat="50.165193015709519" lon="-5.090847965329886">
        <ele>14.08</ele>
        <time>2026-06-23T14:04:17Z</time>
      </trkpt>
      <trkpt lat="50.165265016257763" lon="-5.090959025546908">
        <ele>13.6</ele>
        <time>2026-06-23T14:04:18Z</time>
      </trkpt>
      <trkpt lat="50.165331987664104" lon="-5.091083999723196">
        <ele>13.119999999999999</ele>
        <time>2026-06-23T14:04:19Z</time>
      </trkpt>
      <trkpt lat="50.165507001802325" lon="-5.091494964435697">
        <ele>13.6</ele>
        <time>2026-06-23T14:04:22Z</time>
      </trkpt>
      <trkpt lat="50.165546983480453" lon="-5.091645000502467">
        <ele>13.6</ele>
        <time>2026-06-23T14:04:23Z</time>
      </trkpt>
      <trkpt lat="50.165733983740211" lon="-5.092692989856005">
        <ele>13.6</ele>
        <time>2026-06-23T14:04:29Z</time>
      </trkpt>
      <trkpt lat="50.166049981489778" lon="-5.094457967206836">
        <ele>11.67</ele>
        <time>2026-06-23T14:04:40Z</time>
      </trkpt>
      <trkpt lat="50.166131034493446" lon="-5.095175039023161">
        <ele>12.15</ele>
        <time>2026-06-23T14:04:46Z</time>
      </trkpt>
      <trkpt lat="50.166137991473079" lon="-5.095236981287599">
        <ele>12.15</ele>
        <time>2026-06-23T14:04:47Z</time>
      </trkpt>
      <trkpt lat="50.166149977594614" lon="-5.095338989049196">
        <ele>11.67</ele>
        <time>2026-06-23T14:04:49Z</time>
      </trkpt>
      <trkpt lat="50.166149977594614" lon="-5.095338989049196">
        <ele>11.19</ele>
        <time>2026-06-23T14:05:00Z</time>
      </trkpt>
      <trkpt lat="50.166149977594614" lon="-5.095636965706945">
        <ele>10.710000000000001</ele>
        <time>2026-06-23T14:05:11Z</time>
      </trkpt>
      <trkpt lat="50.166149977594614" lon="-5.095888003706932">
        <ele>10.710000000000001</ele>
        <time>2026-06-23T14:05:14Z</time>
      </trkpt>
      <trkpt lat="50.166149977594614" lon="-5.095952041447163">
        <ele>10.710000000000001</ele>
        <time>2026-06-23T14:05:15Z</time>
      </trkpt>
      <trkpt lat="50.166149977594614" lon="-5.096003003418446">
        <ele>11.19</ele>
        <time>2026-06-23T14:05:16Z</time>
      </trkpt>
      <trkpt lat="50.166149977594614" lon="-5.096058994531632">
        <ele>11.19</ele>
        <time>2026-06-23T14:05:17Z</time>
      </trkpt>
      <trkpt lat="50.166149977594614" lon="-5.096124038100243">
        <ele>11.19</ele>
        <time>2026-06-23T14:05:18Z</time>
      </trkpt>
      <trkpt lat="50.166149977594614" lon="-5.096196038648486">
        <ele>11.19</ele>
        <time>2026-06-23T14:05:19Z</time>
      </trkpt>
      <trkpt lat="50.166149977594614" lon="-5.096269967034459">
        <ele>11.19</ele>
        <time>2026-06-23T14:05:20Z</time>
      </trkpt>
      <trkpt lat="50.166149977594614" lon="-5.096354959532619">
        <ele>11.67</ele>
        <time>2026-06-23T14:05:21Z</time>
      </trkpt>
      <trkpt lat="50.166150983422995" lon="-5.096555035561323">
        <ele>12.15</ele>
        <time>2026-06-23T14:05:23Z</time>
      </trkpt>
      <trkpt lat="50.166158024221659" lon="-5.096666011959314">
        <ele>12.15</ele>
        <time>2026-06-23T14:05:24Z</time>
      </trkpt>
      <trkpt lat="50.166170010343194" lon="-5.096854018047452">
        <ele>12.630000000000001</ele>
        <time>2026-06-23T14:05:26Z</time>
      </trkpt>
      <trkpt lat="50.166175039485097" lon="-5.096930041909218">
        <ele>12.15</ele>
        <time>2026-06-23T14:05:27Z</time>
      </trkpt>
      <trkpt lat="50.166179984807968" lon="-5.097003970295191">
        <ele>12.15</ele>
        <time>2026-06-23T14:05:28Z</time>
      </trkpt>
      <trkpt lat="50.16618400812149" lon="-5.097072031348944">
        <ele>12.15</ele>
        <time>2026-06-23T14:05:29Z</time>
      </trkpt>
      <trkpt lat="50.166188031435013" lon="-5.097134979441762">
        <ele>12.15</ele>
        <time>2026-06-23T14:05:30Z</time>
      </trkpt>
      <trkpt lat="50.166343012824655" lon="-5.097570000216365">
        <ele>11.19</ele>
        <time>2026-06-23T14:05:41Z</time>
      </trkpt>
      <trkpt lat="50.166574018076062" lon="-5.097735039889813">
        <ele>11.67</ele>
        <time>2026-06-23T14:05:48Z</time>
      </trkpt>
      <trkpt lat="50.167109034955502" lon="-5.097940983250737">
        <ele>11.19</ele>
        <time>2026-06-23T14:05:58Z</time>
      </trkpt>
      <trkpt lat="50.167163014411926" lon="-5.097963027656078">
        <ele>11.19</ele>
        <time>2026-06-23T14:05:59Z</time>
      </trkpt>
      <trkpt lat="50.167184974998236" lon="-5.098098982125521">
        <ele>11.19</ele>
        <time>2026-06-23T14:06:00Z</time>
      </trkpt>
      <trkpt lat="50.1671729888767" lon="-5.098192021250725">
        <ele>11.19</ele>
        <time>2026-06-23T14:06:01Z</time>
      </trkpt>
      <trkpt lat="50.167157985270023" lon="-5.098305009305477">
        <ele>11.67</ele>
        <time>2026-06-23T14:06:02Z</time>
      </trkpt>
      <trkpt lat="50.167152034118772" lon="-5.098420009016991">
        <ele>12.15</ele>
        <time>2026-06-23T14:06:03Z</time>
      </trkpt>
      <trkpt lat="50.167139964178205" lon="-5.098666017875075">
        <ele>13.119999999999999</ele>
        <time>2026-06-23T14:06:05Z</time>
      </trkpt>
      <trkpt lat="50.167137030512094" lon="-5.098799960687757">
        <ele>13.6</ele>
        <time>2026-06-23T14:06:06Z</time>
      </trkpt>
      <trkpt lat="50.167291006073356" lon="-5.099432962015271">
        <ele>17.920000000000002</ele>
        <time>2026-06-23T14:06:11Z</time>
      </trkpt>
      <trkpt lat="50.167432995513082" lon="-5.09988097473979">
        <ele>21.289999999999999</ele>
        <time>2026-06-23T14:06:15Z</time>
      </trkpt>
      <trkpt lat="50.167460991069674" lon="-5.099988011643291">
        <ele>22.25</ele>
        <time>2026-06-23T14:06:16Z</time>
      </trkpt>
      <trkpt lat="50.167482029646635" lon="-5.100083984434605">
        <ele>23.210000000000001</ele>
        <time>2026-06-23T14:06:17Z</time>
      </trkpt>
      <trkpt lat="50.167553024366498" lon="-5.10063199326396">
        <ele>28.5</ele>
        <time>2026-06-23T14:06:23Z</time>
      </trkpt>
      <trkpt lat="50.167775982990861" lon="-5.10157504118979">
        <ele>34.259999999999998</ele>
        <time>2026-06-23T14:06:33Z</time>
      </trkpt>
      <trkpt lat="50.167888971045613" lon="-5.101969996467233">
        <ele>35.229999999999997</ele>
        <time>2026-06-23T14:06:37Z</time>
      </trkpt>
      <trkpt lat="50.167919984087348" lon="-5.10209103114903">
        <ele>35.229999999999997</ele>
        <time>2026-06-23T14:06:38Z</time>
      </trkpt>
      <trkpt lat="50.167948985472322" lon="-5.102204019203782">
        <ele>35.710000000000001</ele>
        <time>2026-06-23T14:06:39Z</time>
      </trkpt>
      <trkpt lat="50.167975975200534" lon="-5.102308038622141">
        <ele>36.189999999999998</ele>
        <time>2026-06-23T14:06:40Z</time>
      </trkpt>
      <trkpt lat="50.168002964928746" lon="-5.102411974221468">
        <ele>37.149999999999999</ele>
        <time>2026-06-23T14:06:41Z</time>
      </trkpt>
      <trkpt lat="50.168020986020565" lon="-5.102510964497924">
        <ele>37.630000000000003</ele>
        <time>2026-06-23T14:06:42Z</time>
      </trkpt>
      <trkpt lat="50.16803196631372" lon="-5.102616995573044">
        <ele>38.109999999999999</ele>
        <time>2026-06-23T14:06:43Z</time>
      </trkpt>
      <trkpt lat="50.168042024597526" lon="-5.102712968364358">
        <ele>39.549999999999997</ele>
        <time>2026-06-23T14:06:44Z</time>
      </trkpt>
      <trkpt lat="50.168050993233919" lon="-5.102805001661181">
        <ele>40.990000000000002</ele>
        <time>2026-06-23T14:06:45Z</time>
      </trkpt>
      <trkpt lat="50.168059961870313" lon="-5.102898040786386">
        <ele>42.439999999999998</ele>
        <time>2026-06-23T14:06:46Z</time>
      </trkpt>
      <trkpt lat="50.168069014325738" lon="-5.102983033284545">
        <ele>43.880000000000003</ele>
        <time>2026-06-23T14:06:47Z</time>
      </trkpt>
      <trkpt lat="50.16807597130537" lon="-5.103056961670518">
        <ele>45.32</ele>
        <time>2026-06-23T14:06:48Z</time>
      </trkpt>
      <trkpt lat="50.168120982125401" lon="-5.103287966921926">
        <ele>49.649999999999999</ele>
        <time>2026-06-23T14:06:51Z</time>
      </trkpt>
      <trkpt lat="50.168136991560459" lon="-5.103349993005395">
        <ele>51.090000000000003</ele>
        <time>2026-06-23T14:06:52Z</time>
      </trkpt>
      <trkpt lat="50.168242016807199" lon="-5.103711001574993">
        <ele>55.409999999999997</ele>
        <time>2026-06-23T14:06:57Z</time>
      </trkpt>
      <trkpt lat="50.168269006535411" lon="-5.103772021830082">
        <ele>55.890000000000001</ele>
        <time>2026-06-23T14:06:58Z</time>
      </trkpt>
      <trkpt lat="50.168300019577146" lon="-5.103842010721564">
        <ele>56.859999999999999</ele>
        <time>2026-06-23T14:06:59Z</time>
      </trkpt>
      <trkpt lat="50.168539993464947" lon="-5.104598980396986">
        <ele>62.140000000000001</ele>
        <time>2026-06-23T14:07:08Z</time>
      </trkpt>
      <trkpt lat="50.168607970699668" lon="-5.104824034497142">
        <ele>61.659999999999997</ele>
        <time>2026-06-23T14:07:10Z</time>
      </trkpt>
      <trkpt lat="50.168646024540067" lon="-5.104924030601978">
        <ele>62.140000000000001</ele>
        <time>2026-06-23T14:07:11Z</time>
      </trkpt>
      <trkpt lat="50.168681982904673" lon="-5.10501598007977">
        <ele>62.140000000000001</ele>
        <time>2026-06-23T14:07:12Z</time>
      </trkpt>
      <trkpt lat="50.168702015653253" lon="-5.105090998113155">
        <ele>62.140000000000001</ele>
        <time>2026-06-23T14:07:13Z</time>
      </trkpt>
      <trkpt lat="50.168724982067943" lon="-5.105176996439695">
        <ele>62.619999999999997</ele>
        <time>2026-06-23T14:07:14Z</time>
      </trkpt>
      <trkpt lat="50.168748032301664" lon="-5.105264000594616">
        <ele>62.619999999999997</ele>
        <time>2026-06-23T14:07:15Z</time>
      </trkpt>
      <trkpt lat="50.168787008151412" lon="-5.105455024167895">
        <ele>63.579999999999998</ele>
        <time>2026-06-23T14:07:17Z</time>
      </trkpt>
      <trkpt lat="50.168990017846227" lon="-5.106421960517764">
        <ele>66.469999999999999</ele>
        <time>2026-06-23T14:07:25Z</time>
      </trkpt>
      <trkpt lat="50.169250024482608" lon="-5.107736997306347">
        <ele>72.719999999999999</ele>
        <time>2026-06-23T14:07:36Z</time>
      </trkpt>
      <trkpt lat="50.169242983683944" lon="-5.107962973415852">
        <ele>74.640000000000001</ele>
        <time>2026-06-23T14:07:38Z</time>
      </trkpt>
      <trkpt lat="50.169224040582776" lon="-5.108080990612507">
        <ele>75.599999999999994</ele>
        <time>2026-06-23T14:07:39Z</time>
      </trkpt>
      <trkpt lat="50.169205013662577" lon="-5.108200013637543">
        <ele>76.079999999999998</ele>
        <time>2026-06-23T14:07:40Z</time>
      </trkpt>
      <trkpt lat="50.169186992570758" lon="-5.108313001692295">
        <ele>77.040000000000006</ele>
        <time>2026-06-23T14:07:41Z</time>
      </trkpt>
      <trkpt lat="50.169175006449223" lon="-5.108441999182105">
        <ele>77.519999999999996</ele>
        <time>2026-06-23T14:07:42Z</time>
      </trkpt>
      <trkpt lat="50.169201996177435" lon="-5.108870984986424">
        <ele>80.890000000000001</ele>
        <time>2026-06-23T14:07:46Z</time>
      </trkpt>
      <trkpt lat="50.169223034754395" lon="-5.109096961095929">
        <ele>81.849999999999994</ele>
        <time>2026-06-23T14:07:48Z</time>
      </trkpt>
      <trkpt lat="50.169335016980767" lon="-5.109816966578364">
        <ele>82.329999999999998</ele>
        <time>2026-06-23T14:07:55Z</time>
      </trkpt>
      <trkpt lat="50.16934297978878" lon="-5.109877986833453">
        <ele>82.329999999999998</ele>
        <time>2026-06-23T14:07:56Z</time>
      </trkpt>
      <trkpt lat="50.169368041679263" lon="-5.110059035941958">
        <ele>81.370000000000005</ele>
        <time>2026-06-23T14:08:00Z</time>
      </trkpt>
      <trkpt lat="50.169368041679263" lon="-5.110059035941958">
        <ele>81.370000000000005</ele>
        <time>2026-06-23T14:08:01Z</time>
      </trkpt>
      <trkpt lat="50.169347003102303" lon="-5.110208988189697">
        <ele>80.890000000000001</ele>
        <time>2026-06-23T14:08:02Z</time>
      </trkpt>
      <trkpt lat="50.169327976182103" lon="-5.110332034528256">
        <ele>80.890000000000001</ele>
        <time>2026-06-23T14:08:03Z</time>
      </trkpt>
      <trkpt lat="50.169310038909316" lon="-5.110446028411388">
        <ele>80.890000000000001</ele>
        <time>2026-06-23T14:08:04Z</time>
      </trkpt>
      <trkpt lat="50.169301992282271" lon="-5.110949026420713">
        <ele>80.890000000000001</ele>
        <time>2026-06-23T14:08:10Z</time>
      </trkpt>
      <trkpt lat="50.169345997273922" lon="-5.11098699644208">
        <ele>80.409999999999997</ele>
        <time>2026-06-23T14:08:11Z</time>
      </trkpt>
      <trkpt lat="50.169392013922334" lon="-5.111025972291827">
        <ele>80.409999999999997</ele>
        <time>2026-06-23T14:08:12Z</time>
      </trkpt>
      <trkpt lat="50.169496033340693" lon="-5.11111599393189">
        <ele>80.890000000000001</ele>
        <time>2026-06-23T14:08:15Z</time>
      </trkpt>
      <trkpt lat="50.169540038332343" lon="-5.111152958124876">
        <ele>80.409999999999997</ele>
        <time>2026-06-23T14:08:16Z</time>
      </trkpt>
      <trkpt lat="50.169554958119988" lon="-5.111230993643403">
        <ele>80.409999999999997</ele>
        <time>2026-06-23T14:08:17Z</time>
      </trkpt>
      <trkpt lat="50.169569961726665" lon="-5.111315986141563">
        <ele>80.409999999999997</ele>
        <time>2026-06-23T14:08:18Z</time>
      </trkpt>
      <trkpt lat="50.169585971161723" lon="-5.111398966982961">
        <ele>80.409999999999997</ele>
        <time>2026-06-23T14:08:19Z</time>
      </trkpt>
      <trkpt lat="50.169603992253542" lon="-5.111497035250068">
        <ele>80.890000000000001</ele>
        <time>2026-06-23T14:08:20Z</time>
      </trkpt>
      <trkpt lat="50.169603992253542" lon="-5.111549003049731">
        <ele>80.409999999999997</ele>
        <time>2026-06-23T14:08:21Z</time>
      </trkpt>
      <trkpt lat="50.169603992253542" lon="-5.111640030518174">
        <ele>80.409999999999997</ele>
        <time>2026-06-23T14:08:22Z</time>
      </trkpt>
      <trkpt lat="50.169603992253542" lon="-5.111737009137869">
        <ele>80.890000000000001</ele>
        <time>2026-06-23T14:08:23Z</time>
      </trkpt>
      <trkpt lat="50.169624025002122" lon="-5.112409992143512">
        <ele>84.730000000000004</ele>
        <time>2026-06-23T14:08:29Z</time>
      </trkpt>
      <trkpt lat="50.169603992253542" lon="-5.113035030663014">
        <ele>89.060000000000002</ele>
        <time>2026-06-23T14:08:34Z</time>
      </trkpt>
      <trkpt lat="50.169603992253542" lon="-5.113095967099071">
        <ele>90.019999999999996</ele>
        <time>2026-06-23T14:08:35Z</time>
      </trkpt>
      <trkpt lat="50.169603992253542" lon="-5.113153969869018">
        <ele>90.5</ele>
        <time>2026-06-23T14:08:36Z</time>
      </trkpt>
      <trkpt lat="50.169603992253542" lon="-5.113227982074022">
        <ele>90.980000000000004</ele>
        <time>2026-06-23T14:08:37Z</time>
      </trkpt>
      <trkpt lat="50.169603992253542" lon="-5.113311968743801">
        <ele>91.459999999999994</ele>
        <time>2026-06-23T14:08:38Z</time>
      </trkpt>
      <trkpt lat="50.169603992253542" lon="-5.113412970677018">
        <ele>92.420000000000002</ele>
        <time>2026-06-23T14:08:39Z</time>
      </trkpt>
      <trkpt lat="50.169626958668232" lon="-5.11418997310102">
        <ele>97.709999999999994</ele>
        <time>2026-06-23T14:08:46Z</time>
      </trkpt>
      <trkpt lat="50.169712034985423" lon="-5.114836972206831">
        <ele>101.56</ele>
        <time>2026-06-23T14:08:52Z</time>
      </trkpt>
      <trkpt lat="50.16972997225821" lon="-5.114934034645557">
        <ele>102.04000000000001</ele>
        <time>2026-06-23T14:08:53Z</time>
      </trkpt>
      <trkpt lat="50.169885959476233" lon="-5.115793012082577">
        <ele>106.36</ele>
        <time>2026-06-23T14:09:02Z</time>
      </trkpt>
      <trkpt lat="50.169891994446516" lon="-5.116344038397074">
        <ele>105.40000000000001</ele>
        <time>2026-06-23T14:09:07Z</time>
      </trkpt>
      <trkpt lat="50.169888976961374" lon="-5.116451997309923">
        <ele>105.40000000000001</ele>
        <time>2026-06-23T14:09:08Z</time>
      </trkpt>
      <trkpt lat="50.169885959476233" lon="-5.116571020334959">
        <ele>104.92</ele>
        <time>2026-06-23T14:09:09Z</time>
      </trkpt>
      <trkpt lat="50.16987799666822" lon="-5.116689959540963">
        <ele>103.95999999999999</ele>
        <time>2026-06-23T14:09:10Z</time>
      </trkpt>
      <trkpt lat="50.169861987233162" lon="-5.116814011707902">
        <ele>103.48</ele>
        <time>2026-06-23T14:09:11Z</time>
      </trkpt>
      <trkpt lat="50.169759979471564" lon="-5.117920003831387">
        <ele>95.310000000000002</ele>
        <time>2026-06-23T14:09:20Z</time>
      </trkpt>
      <trkpt lat="50.169733995571733" lon="-5.118182022124529">
        <ele>93.390000000000001</ele>
        <time>2026-06-23T14:09:22Z</time>
      </trkpt>
      <trkpt lat="50.169758973643184" lon="-5.118337003514171">
        <ele>92.420000000000002</ele>
        <time>2026-06-23T14:09:23Z</time>
      </trkpt>
      <trkpt lat="50.169865004718304" lon="-5.118946032598615">
        <ele>88.579999999999998</ele>
        <time>2026-06-23T14:09:28Z</time>
      </trkpt>
      <trkpt lat="50.169883025810122" lon="-5.119049968197942">
        <ele>88.099999999999994</ele>
        <time>2026-06-23T14:09:29Z</time>
      </trkpt>
      <trkpt lat="50.169923007488251" lon="-5.119148958474398">
        <ele>87.140000000000001</ele>
        <time>2026-06-23T14:09:30Z</time>
      </trkpt>
      <trkpt lat="50.169962989166379" lon="-5.119248032569885">
        <ele>86.659999999999997</ele>
        <time>2026-06-23T14:09:31Z</time>
      </trkpt>
      <trkpt lat="50.170014034956694" lon="-5.119295977056027">
        <ele>85.689999999999998</ele>
        <time>2026-06-23T14:09:32Z</time>
      </trkpt>
      <trkpt lat="50.170085029676557" lon="-5.119347022846341">
        <ele>84.730000000000004</ele>
        <time>2026-06-23T14:09:33Z</time>
      </trkpt>
      <trkpt lat="50.17013699747622" lon="-5.119360014796257">
        <ele>83.769999999999996</ele>
        <time>2026-06-23T14:09:34Z</time>
      </trkpt>
      <trkpt lat="50.170177984982729" lon="-5.119332019239664">
        <ele>82.810000000000002</ele>
        <time>2026-06-23T14:09:35Z</time>
      </trkpt>
      <trkpt lat="50.170201035216451" lon="-5.119317015632987">
        <ele>81.849999999999994</ele>
        <time>2026-06-23T14:09:36Z</time>
      </trkpt>
      <trkpt lat="50.170293990522623" lon="-5.119233028963208">
        <ele>78.480000000000004</ele>
        <time>2026-06-23T14:09:40Z</time>
      </trkpt>
      <trkpt lat="50.170806962996721" lon="-5.118650989606977">
        <ele>75.120000000000005</ele>
        <time>2026-06-23T14:09:49Z</time>
      </trkpt>
      <trkpt lat="50.171087002381682" lon="-5.118348989635706">
        <ele>72.239999999999995</ele>
        <time>2026-06-23T14:09:54Z</time>
      </trkpt>
      <trkpt lat="50.171132013201714" lon="-5.118300961330533">
        <ele>71.760000000000005</ele>
        <time>2026-06-23T14:09:55Z</time>
      </trkpt>
      <trkpt lat="50.171176018193364" lon="-5.118253016844392">
        <ele>70.790000000000006</ele>
        <time>2026-06-23T14:09:56Z</time>
      </trkpt>
      <trkpt lat="50.171213988214731" lon="-5.118213035166264">
        <ele>70.310000000000002</ele>
        <time>2026-06-23T14:09:57Z</time>
      </trkpt>
      <trkpt lat="50.171278025954962" lon="-5.118169030174613">
        <ele>69.829999999999998</ele>
        <time>2026-06-23T14:09:58Z</time>
      </trkpt>
      <trkpt lat="50.171343991532922" lon="-5.118124019354582">
        <ele>69.349999999999994</ele>
        <time>2026-06-23T14:09:59Z</time>
      </trkpt>
      <trkpt lat="50.17142403870821" lon="-5.118069034069777">
        <ele>68.390000000000001</ele>
        <time>2026-06-23T14:10:00Z</time>
      </trkpt>
      <trkpt lat="50.171507019549608" lon="-5.11801203712821">
        <ele>67.430000000000007</ele>
        <time>2026-06-23T14:10:01Z</time>
      </trkpt>
      <trkpt lat="50.171582959592342" lon="-5.117959985509515">
        <ele>66.950000000000003</ele>
        <time>2026-06-23T14:10:02Z</time>
      </trkpt>
      <trkpt lat="50.171640040352941" lon="-5.117888990789652">
        <ele>66.469999999999999</ele>
        <time>2026-06-23T14:10:03Z</time>
      </trkpt>
      <trkpt lat="50.171723021194339" lon="-5.117694027721882">
        <ele>65.510000000000005</ele>
        <time>2026-06-23T14:10:05Z</time>
      </trkpt>
      <trkpt lat="50.171767026185989" lon="-5.117589002475143">
        <ele>64.549999999999997</ele>
        <time>2026-06-23T14:10:06Z</time>
      </trkpt>
      <trkpt lat="50.171812037006021" lon="-5.117481965571642">
        <ele>64.069999999999993</ele>
        <time>2026-06-23T14:10:07Z</time>
      </trkpt>
      <trkpt lat="50.17198302783072" lon="-5.117058008909226">
        <ele>61.659999999999997</ele>
        <time>2026-06-23T14:10:11Z</time>
      </trkpt>
      <trkpt lat="50.172100039198995" lon="-5.116676967591047">
        <ele>59.740000000000002</ele>
        <time>2026-06-23T14:10:15Z</time>
      </trkpt>
      <trkpt lat="50.172123005613685" lon="-5.116603039205074">
        <ele>59.259999999999998</ele>
        <time>2026-06-23T14:10:16Z</time>
      </trkpt>
      <trkpt lat="50.172135997563601" lon="-5.116560962051153">
        <ele>58.780000000000001</ele>
        <time>2026-06-23T14:10:17Z</time>
      </trkpt>
      <trkpt lat="50.172180002555251" lon="-5.116511005908251">
        <ele>58.780000000000001</ele>
        <time>2026-06-23T14:10:18Z</time>
      </trkpt>
      <trkpt lat="50.172197017818689" lon="-5.116491978988051">
        <ele>58.299999999999997</ele>
        <time>2026-06-23T14:10:19Z</time>
      </trkpt>
      <trkpt lat="50.172209003940225" lon="-5.116477981209755">
        <ele>57.82</ele>
        <time>2026-06-23T14:10:20Z</time>
      </trkpt>
      <trkpt lat="50.172287039458752" lon="-5.116624999791384">
        <ele>57.82</ele>
        <time>2026-06-23T14:10:21Z</time>
      </trkpt>
      <trkpt lat="50.172287039458752" lon="-5.116624999791384">
        <ele>57.82</ele>
        <time>2026-06-23T14:10:22Z</time>
      </trkpt>
      <trkpt lat="50.172295002266765" lon="-5.116652995347977">
        <ele>57.82</ele>
        <time>2026-06-23T14:10:23Z</time>
      </trkpt>
      <trkpt lat="50.172326015308499" lon="-5.116755003109574">
        <ele>57.82</ele>
        <time>2026-06-23T14:10:24Z</time>
      </trkpt>
      <trkpt lat="50.17234998755157" lon="-5.116837983950973">
        <ele>58.299999999999997</ele>
        <time>2026-06-23T14:10:25Z</time>
      </trkpt>
      <trkpt lat="50.172388041391969" lon="-5.116884000599384">
        <ele>58.299999999999997</ele>
        <time>2026-06-23T14:10:26Z</time>
      </trkpt>
      <trkpt lat="50.1724140252918" lon="-5.116915013641119">
        <ele>58.780000000000001</ele>
        <time>2026-06-23T14:10:27Z</time>
      </trkpt>
      <trkpt lat="50.172441015020013" lon="-5.116947032511234">
        <ele>58.780000000000001</ele>
        <time>2026-06-23T14:10:28Z</time>
      </trkpt>
      <trkpt lat="50.172474039718509" lon="-5.116987014189363">
        <ele>58.299999999999997</ele>
        <time>2026-06-23T14:10:29Z</time>
      </trkpt>
      <trkpt lat="50.172622986137867" lon="-5.117117017507553">
        <ele>58.299999999999997</ele>
        <time>2026-06-23T14:10:34Z</time>
      </trkpt>
      <trkpt lat="50.172653999179602" lon="-5.117127997800708">
        <ele>58.299999999999997</ele>
        <time>2026-06-23T14:10:35Z</time>
      </trkpt>
      <trkpt lat="50.172677971422672" lon="-5.117136966437101">
        <ele>58.299999999999997</ele>
        <time>2026-06-23T14:10:36Z</time>
      </trkpt>
      <trkpt lat="50.172964967787266" lon="-5.11730401776731">
        <ele>60.219999999999999</ele>
        <time>2026-06-23T14:10:47Z</time>
      </trkpt>
      <trkpt lat="50.172993969172239" lon="-5.117332013323903">
        <ele>60.219999999999999</ele>
        <time>2026-06-23T14:10:48Z</time>
      </trkpt>
      <trkpt lat="50.173195973038673" lon="-5.117673994973302">
        <ele>61.659999999999997</ele>
        <time>2026-06-23T14:10:57Z</time>
      </trkpt>
      <trkpt lat="50.17323100939393" lon="-5.117740966379643">
        <ele>61.659999999999997</ele>
        <time>2026-06-23T14:10:58Z</time>
      </trkpt>
      <trkpt lat="50.173246013000607" lon="-5.117784971371293">
        <ele>61.18</ele>
        <time>2026-06-23T14:10:59Z</time>
      </trkpt>
      <trkpt lat="50.173268979415298" lon="-5.117849009111524">
        <ele>61.18</ele>
        <time>2026-06-23T14:11:00Z</time>
      </trkpt>
      <trkpt lat="50.173299992457032" lon="-5.117940036579967">
        <ele>61.18</ele>
        <time>2026-06-23T14:11:02Z</time>
      </trkpt>
      <trkpt lat="50.17331600189209" lon="-5.117985969409347">
        <ele>61.18</ele>
        <time>2026-06-23T14:11:03Z</time>
      </trkpt>
      <trkpt lat="50.173329999670386" lon="-5.118025029078126">
        <ele>60.700000000000003</ele>
        <time>2026-06-23T14:11:04Z</time>
      </trkpt>
      <trkpt lat="50.173421027138829" lon="-5.118409004062414">
        <ele>59.740000000000002</ele>
        <time>2026-06-23T14:11:12Z</time>
      </trkpt>
      <trkpt lat="50.173434019088745" lon="-5.118663981556892">
        <ele>58.780000000000001</ele>
        <time>2026-06-23T14:11:16Z</time>
      </trkpt>
      <trkpt lat="50.173410968855023" lon="-5.118885012343526">
        <ele>58.780000000000001</ele>
        <time>2026-06-23T14:11:19Z</time>
      </trkpt>
      <trkpt lat="50.173371993005276" lon="-5.119292037561536">
        <ele>58.299999999999997</ele>
        <time>2026-06-23T14:11:23Z</time>
      </trkpt>
      <trkpt lat="50.173361012712121" lon="-5.119437966495752">
        <ele>57.82</ele>
        <time>2026-06-23T14:11:24Z</time>
      </trkpt>
      <trkpt lat="50.17336000688374" lon="-5.119588002562523">
        <ele>57.340000000000003</ele>
        <time>2026-06-23T14:11:25Z</time>
      </trkpt>
      <trkpt lat="50.17336000688374" lon="-5.119751030579209">
        <ele>57.82</ele>
        <time>2026-06-23T14:11:26Z</time>
      </trkpt>
      <trkpt lat="50.17336000688374" lon="-5.11992696672678">
        <ele>57.82</ele>
        <time>2026-06-23T14:11:27Z</time>
      </trkpt>
      <trkpt lat="50.173362018540502" lon="-5.121294977143407">
        <ele>59.740000000000002</ele>
        <time>2026-06-23T14:11:34Z</time>
      </trkpt>
      <trkpt lat="50.173520017415285" lon="-5.122407004237175">
        <ele>63.100000000000001</ele>
        <time>2026-06-23T14:11:39Z</time>
      </trkpt>
      <trkpt lat="50.173552958294749" lon="-5.122652007266879">
        <ele>64.549999999999997</ele>
        <time>2026-06-23T14:11:40Z</time>
      </trkpt>
      <trkpt lat="50.173552958294749" lon="-5.122889969497919">
        <ele>65.510000000000005</ele>
        <time>2026-06-23T14:11:41Z</time>
      </trkpt>
      <trkpt lat="50.173521023243666" lon="-5.123372012749314">
        <ele>67.909999999999997</ele>
        <time>2026-06-23T14:11:43Z</time>
      </trkpt>
      <trkpt lat="50.173432007431984" lon="-5.12381499633193">
        <ele>70.310000000000002</ele>
        <time>2026-06-23T14:11:45Z</time>
      </trkpt>
      <trkpt lat="50.17336000688374" lon="-5.124034015461803">
        <ele>71.269999999999996</ele>
        <time>2026-06-23T14:11:46Z</time>
      </trkpt>
      <trkpt lat="50.173287000507116" lon="-5.124254962429404">
        <ele>72.239999999999995</ele>
        <time>2026-06-23T14:11:47Z</time>
      </trkpt>
      <trkpt lat="50.173217011615634" lon="-5.124468030408025">
        <ele>73.200000000000003</ele>
        <time>2026-06-23T14:11:48Z</time>
      </trkpt>
      <trkpt lat="50.173146016895771" lon="-5.124685037881136">
        <ele>74.640000000000001</ele>
        <time>2026-06-23T14:11:49Z</time>
      </trkpt>
      <trkpt lat="50.17260798253119" lon="-5.126324035227299">
        <ele>81.370000000000005</ele>
        <time>2026-06-23T14:11:57Z</time>
      </trkpt>
      <trkpt lat="50.172299025580287" lon="-5.127839986234903">
        <ele>93.390000000000001</ele>
        <time>2026-06-23T14:12:05Z</time>
      </trkpt>
      <trkpt lat="50.172248985618353" lon="-5.128083983436227">
        <ele>96.269999999999996</ele>
        <time>2026-06-23T14:12:07Z</time>
      </trkpt>
      <trkpt lat="50.172180002555251" lon="-5.128415990620852">
        <ele>105.88</ele>
        <time>2026-06-23T14:12:13Z</time>
      </trkpt>
      <trkpt lat="50.172142032533884" lon="-5.128593016415834">
        <ele>111.17</ele>
        <time>2026-06-23T14:12:17Z</time>
      </trkpt>
      <trkpt lat="50.17207195982337" lon="-5.128919994458556">
        <ele>114.05</ele>
        <time>2026-06-23T14:12:20Z</time>
      </trkpt>
      <trkpt lat="50.172053016722202" lon="-5.128977997228503">
        <ele>114.53</ele>
        <time>2026-06-23T14:12:21Z</time>
      </trkpt>
      <trkpt lat="50.171995013952255" lon="-5.129073970019817">
        <ele>115.01000000000001</ele>
        <time>2026-06-23T14:12:22Z</time>
      </trkpt>
      <trkpt lat="50.17185403034091" lon="-5.129175977781415">
        <ele>117.42</ele>
        <time>2026-06-23T14:12:29Z</time>
      </trkpt>
      <trkpt lat="50.171739030629396" lon="-5.129259964451194">
        <ele>118.86</ele>
        <time>2026-06-23T14:12:37Z</time>
      </trkpt>
      <trkpt lat="50.171689996495843" lon="-5.129295000806451">
        <ele>118.86</ele>
        <time>2026-06-23T14:12:38Z</time>
      </trkpt>
      <trkpt lat="50.171627970412374" lon="-5.129341017454863">
        <ele>118.38</ele>
        <time>2026-06-23T14:12:39Z</time>
      </trkpt>
      <trkpt lat="50.171562004834414" lon="-5.129388039931655">
        <ele>118.38</ele>
        <time>2026-06-23T14:12:40Z</time>
      </trkpt>
      <trkpt lat="50.171450022608042" lon="-5.129414023831487">
        <ele>118.38</ele>
        <time>2026-06-23T14:12:41Z</time>
      </trkpt>
      <trkpt lat="50.171435019001365" lon="-5.129458028823137">
        <ele>117.90000000000001</ele>
        <time>2026-06-23T14:12:42Z</time>
      </trkpt>
      <trkpt lat="50.171427978202701" lon="-5.129628013819456">
        <ele>118.38</ele>
        <time>2026-06-23T14:12:43Z</time>
      </trkpt>
      <trkpt lat="50.171495033428073" lon="-5.129719041287899">
        <ele>118.38</ele>
        <time>2026-06-23T14:12:44Z</time>
      </trkpt>
      <trkpt lat="50.171509031206369" lon="-5.129848038777709">
        <ele>118.86</ele>
        <time>2026-06-23T14:12:45Z</time>
      </trkpt>
      <trkpt lat="50.171525040641427" lon="-5.129991034045816">
        <ele>118.86</ele>
        <time>2026-06-23T14:12:46Z</time>
      </trkpt>
      <trkpt lat="50.171541972085834" lon="-5.13015003874898">
        <ele>119.34</ele>
        <time>2026-06-23T14:12:47Z</time>
      </trkpt>
      <trkpt lat="50.17155303619802" lon="-5.130308037623763">
        <ele>119.81999999999999</ele>
        <time>2026-06-23T14:12:48Z</time>
      </trkpt>
      <trkpt lat="50.171507019549608" lon="-5.130482967942953">
        <ele>120.3</ele>
        <time>2026-06-23T14:12:49Z</time>
      </trkpt>
      <trkpt lat="50.171457985416055" lon="-5.130668040364981">
        <ele>120.3</ele>
        <time>2026-06-23T14:12:50Z</time>
      </trkpt>
      <trkpt lat="50.171407023444772" lon="-5.13086199760437">
        <ele>120.78</ele>
        <time>2026-06-23T14:12:51Z</time>
      </trkpt>
      <trkpt lat="50.170993041247129" lon="-5.133040035143495">
        <ele>123.67</ele>
        <time>2026-06-23T14:13:00Z</time>
      </trkpt>
      <trkpt lat="50.170965967699885" lon="-5.135315973311663">
        <ele>128.94999999999999</ele>
        <time>2026-06-23T14:13:08Z</time>
      </trkpt>
      <trkpt lat="50.170986000448465" lon="-5.138485003262758">
        <ele>136.16</ele>
        <time>2026-06-23T14:13:20Z</time>
      </trkpt>
      <trkpt lat="50.17099698074162" lon="-5.140362968668342">
        <ele>141.44999999999999</ele>
        <time>2026-06-23T14:13:27Z</time>
      </trkpt>
      <trkpt lat="50.170917017385364" lon="-5.142239006236196">
        <ele>146.74000000000001</ele>
        <time>2026-06-23T14:13:35Z</time>
      </trkpt>
      <trkpt lat="50.170488031581044" lon="-5.144428024068475">
        <ele>154.43000000000001</ele>
        <time>2026-06-23T14:13:45Z</time>
      </trkpt>
      <trkpt lat="50.170119982212782" lon="-5.145466960966587">
        <ele>156.83000000000001</ele>
        <time>2026-06-23T14:13:50Z</time>
      </trkpt>
      <trkpt lat="50.169195039197803" lon="-5.147226992994547">
        <ele>162.59999999999999</ele>
        <time>2026-06-23T14:13:59Z</time>
      </trkpt>
      <trkpt lat="50.167890982702374" lon="-5.149372005835176">
        <ele>165.96000000000001</ele>
        <time>2026-06-23T14:14:09Z</time>
      </trkpt>
      <trkpt lat="50.166759006679058" lon="-5.151270003989339">
        <ele>167.88999999999999</ele>
        <time>2026-06-23T14:14:17Z</time>
      </trkpt>
      <trkpt lat="50.165740018710494" lon="-5.152886034920812">
        <ele>168.37</ele>
        <time>2026-06-23T14:14:26Z</time>
      </trkpt>
      <trkpt lat="50.164565965533257" lon="-5.154705997556448">
        <ele>173.66</ele>
        <time>2026-06-23T14:14:38Z</time>
      </trkpt>
      <trkpt lat="50.164424981921911" lon="-5.155002968385816">
        <ele>174.62</ele>
        <time>2026-06-23T14:14:40Z</time>
      </trkpt>
      <trkpt lat="50.163973029702902" lon="-5.156431999057531">
        <ele>177.02000000000001</ele>
        <time>2026-06-23T14:14:50Z</time>
      </trkpt>
      <trkpt lat="50.163933970034122" lon="-5.157727003097534">
        <ele>181.34999999999999</ele>
        <time>2026-06-23T14:14:59Z</time>
      </trkpt>
      <trkpt lat="50.164064979180694" lon="-5.158843975514174">
        <ele>183.75</ele>
        <time>2026-06-23T14:15:09Z</time>
      </trkpt>
      <trkpt lat="50.164343006908894" lon="-5.160429999232292">
        <ele>187.11000000000001</ele>
        <time>2026-06-23T14:15:19Z</time>
      </trkpt>
      <trkpt lat="50.164728993549943" lon="-5.162182990461588">
        <ele>189.52000000000001</ele>
        <time>2026-06-23T14:15:30Z</time>
      </trkpt>
      <trkpt lat="50.165059994906187" lon="-5.163394007831812">
        <ele>189.52000000000001</ele>
        <time>2026-06-23T14:15:36Z</time>
      </trkpt>
      <trkpt lat="50.165381021797657" lon="-5.165609009563923">
        <ele>186.15000000000001</ele>
        <time>2026-06-23T14:15:45Z</time>
      </trkpt>
      <trkpt lat="50.165590988472104" lon="-5.167326964437962">
        <ele>188.56</ele>
        <time>2026-06-23T14:15:53Z</time>
      </trkpt>
      <trkpt lat="50.165835991501808" lon="-5.169464014470577">
        <ele>193.36000000000001</ele>
        <time>2026-06-23T14:16:03Z</time>
      </trkpt>
      <trkpt lat="50.165855018422008" lon="-5.171923013404012">
        <ele>202.49000000000001</ele>
        <time>2026-06-23T14:16:14Z</time>
      </trkpt>
      <trkpt lat="50.165511025115848" lon="-5.174400033429265">
        <ele>206.81999999999999</ele>
        <time>2026-06-23T14:16:24Z</time>
      </trkpt>
      <trkpt lat="50.165033005177975" lon="-5.1763029769063">
        <ele>201.53</ele>
        <time>2026-06-23T14:16:32Z</time>
      </trkpt>
      <trkpt lat="50.164110995829105" lon="-5.178680000826716">
        <ele>193.84</ele>
        <time>2026-06-23T14:16:43Z</time>
      </trkpt>
      <trkpt lat="50.163233997300267" lon="-5.180776985362172">
        <ele>195.28</ele>
        <time>2026-06-23T14:16:54Z</time>
      </trkpt>
      <trkpt lat="50.162029014900327" lon="-5.183168007060885">
        <ele>206.81999999999999</ele>
        <time>2026-06-23T14:17:07Z</time>
      </trkpt>
      <trkpt lat="50.160787990316749" lon="-5.185043960809708">
        <ele>205.86000000000001</ele>
        <time>2026-06-23T14:17:18Z</time>
      </trkpt>
      <trkpt lat="50.15967596322298" lon="-5.185820963233709">
        <ele>202.49000000000001</ele>
        <time>2026-06-23T14:17:26Z</time>
      </trkpt>
      <trkpt lat="50.158200999721885" lon="-5.186590002849698">
        <ele>202.97999999999999</ele>
        <time>2026-06-23T14:17:36Z</time>
      </trkpt>
      <trkpt lat="50.157315032556653" lon="-5.187769001349807">
        <ele>201.05000000000001</ele>
        <time>2026-06-23T14:17:43Z</time>
      </trkpt>
      <trkpt lat="50.156008964404464" lon="-5.190068995580077">
        <ele>190.96000000000001</ele>
        <time>2026-06-23T14:17:53Z</time>
      </trkpt>
      <trkpt lat="50.153519036248326" lon="-5.193439023569226">
        <ele>188.08000000000001</ele>
        <time>2026-06-23T14:18:10Z</time>
      </trkpt>
      <trkpt lat="50.152465011924505" lon="-5.195541959255934">
        <ele>189.52000000000001</ele>
        <time>2026-06-23T14:18:19Z</time>
      </trkpt>
      <trkpt lat="50.151044027879834" lon="-5.199154978618026">
        <ele>186.63</ele>
        <time>2026-06-23T14:18:33Z</time>
      </trkpt>
      <trkpt lat="50.150333996862173" lon="-5.202339012175798">
        <ele>178.94</ele>
        <time>2026-06-23T14:18:44Z</time>
      </trkpt>
      <trkpt lat="50.149916997179389" lon="-5.205008983612061">
        <ele>162.59999999999999</ele>
        <time>2026-06-23T14:18:54Z</time>
      </trkpt>
      <trkpt lat="50.149512989446521" lon="-5.207976009696722">
        <ele>150.09999999999999</ele>
        <time>2026-06-23T14:19:06Z</time>
      </trkpt>
      <trkpt lat="50.148745039477944" lon="-5.209959000349045">
        <ele>149.13999999999999</ele>
        <time>2026-06-23T14:19:15Z</time>
      </trkpt>
      <trkpt lat="50.147538967430592" lon="-5.211517028510571">
        <ele>146.25999999999999</ele>
        <time>2026-06-23T14:19:24Z</time>
      </trkpt>
      <trkpt lat="50.145984040573239" lon="-5.212627965956926">
        <ele>150.58000000000001</ele>
        <time>2026-06-23T14:19:34Z</time>
      </trkpt>
      <trkpt lat="50.144556015729904" lon="-5.213824985548854">
        <ele>152.99000000000001</ele>
        <time>2026-06-23T14:19:43Z</time>
      </trkpt>
      <trkpt lat="50.142279993742704" lon="-5.216097990050912">
        <ele>162.59999999999999</ele>
        <time>2026-06-23T14:19:57Z</time>
      </trkpt>
      <trkpt lat="50.140222990885377" lon="-5.218231016770005">
        <ele>164.52000000000001</ele>
        <time>2026-06-23T14:20:09Z</time>
      </trkpt>
      <trkpt lat="50.138298003003001" lon="-5.2196179702878">
        <ele>166.44999999999999</ele>
        <time>2026-06-23T14:20:20Z</time>
      </trkpt>
      <trkpt lat="50.137253031134605" lon="-5.220306040719152">
        <ele>163.56</ele>
        <time>2026-06-23T14:20:27Z</time>
      </trkpt>
      <trkpt lat="50.136657999828458" lon="-5.220732009038329">
        <ele>163.56</ele>
        <time>2026-06-23T14:20:33Z</time>
      </trkpt>
      <trkpt lat="50.136574013158679" lon="-5.220796968787909">
        <ele>164.03999999999999</ele>
        <time>2026-06-23T14:20:34Z</time>
      </trkpt>
      <trkpt lat="50.135615039616823" lon="-5.221553016453981">
        <ele>166.93000000000001</ele>
        <time>2026-06-23T14:20:44Z</time>
      </trkpt>
      <trkpt lat="50.134530002251267" lon="-5.222822958603501">
        <ele>168.84999999999999</ele>
        <time>2026-06-23T14:20:53Z</time>
      </trkpt>
      <trkpt lat="50.132998041808605" lon="-5.224526999518275">
        <ele>159.72</ele>
        <time>2026-06-23T14:21:03Z</time>
      </trkpt>
      <trkpt lat="50.131129967048764" lon="-5.226483000442386">
        <ele>153.47</ele>
        <time>2026-06-23T14:21:15Z</time>
      </trkpt>
      <trkpt lat="50.129575040191412" lon="-5.228517036885023">
        <ele>144.81999999999999</ele>
        <time>2026-06-23T14:21:26Z</time>
      </trkpt>
      <trkpt lat="50.128437029197812" lon="-5.229486990720034">
        <ele>136.16</ele>
        <time>2026-06-23T14:21:33Z</time>
      </trkpt>
      <trkpt lat="50.12692803516984" lon="-5.230391984805465">
        <ele>122.22</ele>
        <time>2026-06-23T14:21:41Z</time>
      </trkpt>
      <trkpt lat="50.125951962545514" lon="-5.231754966080189">
        <ele>112.61</ele>
        <time>2026-06-23T14:21:47Z</time>
      </trkpt>
      <trkpt lat="50.125571005046368" lon="-5.232481006532908">
        <ele>112.13</ele>
        <time>2026-06-23T14:21:50Z</time>
      </trkpt>
      <trkpt lat="50.125460028648376" lon="-5.232740007340908">
        <ele>112.61</ele>
        <time>2026-06-23T14:21:51Z</time>
      </trkpt>
      <trkpt lat="50.125384004786611" lon="-5.233030021190643">
        <ele>113.09</ele>
        <time>2026-06-23T14:21:52Z</time>
      </trkpt>
      <trkpt lat="50.125314015895128" lon="-5.23332498036325">
        <ele>114.05</ele>
        <time>2026-06-23T14:21:53Z</time>
      </trkpt>
      <trkpt lat="50.125246038660407" lon="-5.233620023354888">
        <ele>115.01000000000001</ele>
        <time>2026-06-23T14:21:54Z</time>
      </trkpt>
      <trkpt lat="50.125192981213331" lon="-5.233920011669397">
        <ele>116.45999999999999</ele>
        <time>2026-06-23T14:21:55Z</time>
      </trkpt>
      <trkpt lat="50.124796014279127" lon="-5.23572999984026">
        <ele>120.78</ele>
        <time>2026-06-23T14:22:02Z</time>
      </trkpt>
      <trkpt lat="50.124205006286502" lon="-5.23691201582551">
        <ele>119.81999999999999</ele>
        <time>2026-06-23T14:22:08Z</time>
      </trkpt>
      <trkpt lat="50.122893992811441" lon="-5.238747987896204">
        <ele>113.56999999999999</ele>
        <time>2026-06-23T14:22:21Z</time>
      </trkpt>
      <trkpt lat="50.12188003398478" lon="-5.239908965304494">
        <ele>111.17</ele>
        <time>2026-06-23T14:22:30Z</time>
      </trkpt>
      <trkpt lat="50.120708998292685" lon="-5.240495027974248">
        <ele>115.01000000000001</ele>
        <time>2026-06-23T14:22:38Z</time>
      </trkpt>
      <trkpt lat="50.119194975122809" lon="-5.241161976009607">
        <ele>114.05</ele>
        <time>2026-06-23T14:22:46Z</time>
      </trkpt>
      <trkpt lat="50.118082026019692" lon="-5.242237038910389">
        <ele>107.31999999999999</ele>
        <time>2026-06-23T14:22:53Z</time>
      </trkpt>
      <trkpt lat="50.116996988654137" lon="-5.243774028494954">
        <ele>98.189999999999998</ele>
        <time>2026-06-23T14:23:02Z</time>
      </trkpt>
      <trkpt lat="50.116864973679185" lon="-5.243878969922662">
        <ele>96.75</ele>
        <time>2026-06-23T14:23:03Z</time>
      </trkpt>
      <trkpt lat="50.116732036694884" lon="-5.243980977684259">
        <ele>95.790000000000006</ele>
        <time>2026-06-23T14:23:04Z</time>
      </trkpt>
      <trkpt lat="50.116601027548313" lon="-5.244076028466225">
        <ele>94.829999999999998</ele>
        <time>2026-06-23T14:23:05Z</time>
      </trkpt>
      <trkpt lat="50.116469012573361" lon="-5.244149034842849">
        <ele>93.870000000000005</ele>
        <time>2026-06-23T14:23:06Z</time>
      </trkpt>
      <trkpt lat="50.116221997886896" lon="-5.244288006797433">
        <ele>92.900000000000006</ele>
        <time>2026-06-23T14:23:08Z</time>
      </trkpt>
      <trkpt lat="50.116088977083564" lon="-5.244362019002438">
        <ele>92.420000000000002</ele>
        <time>2026-06-23T14:23:09Z</time>
      </trkpt>
      <trkpt lat="50.115571981295943" lon="-5.244801985099912">
        <ele>90.5</ele>
        <time>2026-06-23T14:23:14Z</time>
      </trkpt>
      <trkpt lat="50.115462010726333" lon="-5.244881026446819">
        <ele>90.019999999999996</ele>
        <time>2026-06-23T14:23:15Z</time>
      </trkpt>
      <trkpt lat="50.114238001406193" lon="-5.245558032765985">
        <ele>84.730000000000004</ele>
        <time>2026-06-23T14:23:27Z</time>
      </trkpt>
      <trkpt lat="50.113942036405206" lon="-5.245723994448781">
        <ele>82.810000000000002</ele>
        <time>2026-06-23T14:23:30Z</time>
      </trkpt>
      <trkpt lat="50.11363098397851" lon="-5.245941001921892">
        <ele>80.409999999999997</ele>
        <time>2026-06-23T14:23:33Z</time>
      </trkpt>
      <trkpt lat="50.113528976216912" lon="-5.246042003855109">
        <ele>79.930000000000007</ele>
        <time>2026-06-23T14:23:34Z</time>
      </trkpt>
      <trkpt lat="50.113453036174178" lon="-5.24617301300168">
        <ele>79.450000000000003</ele>
        <time>2026-06-23T14:23:35Z</time>
      </trkpt>
      <trkpt lat="50.113384975120425" lon="-5.246303016319871">
        <ele>78.969999999999999</ele>
        <time>2026-06-23T14:23:36Z</time>
      </trkpt>
      <trkpt lat="50.113318003714085" lon="-5.246428996324539">
        <ele>78.969999999999999</ele>
        <time>2026-06-23T14:23:37Z</time>
      </trkpt>
      <trkpt lat="50.112891029566526" lon="-5.24769801646471">
        <ele>78</ele>
        <time>2026-06-23T14:23:46Z</time>
      </trkpt>
      <trkpt lat="50.112864039838314" lon="-5.24802097119391">
        <ele>78</ele>
        <time>2026-06-23T14:23:48Z</time>
      </trkpt>
      <trkpt lat="50.112849036231637" lon="-5.248203026130796">
        <ele>77.519999999999996</ele>
        <time>2026-06-23T14:23:49Z</time>
      </trkpt>
      <trkpt lat="50.112978033721447" lon="-5.248972987756133">
        <ele>76.079999999999998</ele>
        <time>2026-06-23T14:23:54Z</time>
      </trkpt>
      <trkpt lat="50.112978033721447" lon="-5.249114977195859">
        <ele>75.599999999999994</ele>
        <time>2026-06-23T14:23:55Z</time>
      </trkpt>
      <trkpt lat="50.112978033721447" lon="-5.249257972463965">
        <ele>75.120000000000005</ele>
        <time>2026-06-23T14:23:56Z</time>
      </trkpt>
      <trkpt lat="50.112964035943151" lon="-5.249389987438917">
        <ele>74.640000000000001</ele>
        <time>2026-06-23T14:23:57Z</time>
      </trkpt>
      <trkpt lat="50.112911984324455" lon="-5.249499035999179">
        <ele>74.159999999999997</ele>
        <time>2026-06-23T14:23:58Z</time>
      </trkpt>
      <trkpt lat="50.112860016524792" lon="-5.249604983255267">
        <ele>73.200000000000003</ele>
        <time>2026-06-23T14:23:59Z</time>
      </trkpt>
      <trkpt lat="50.112808970734477" lon="-5.249710008502007">
        <ele>73.200000000000003</ele>
        <time>2026-06-23T14:24:00Z</time>
      </trkpt>
      <trkpt lat="50.112561034038663" lon="-5.250159027054906">
        <ele>71.269999999999996</ele>
        <time>2026-06-23T14:24:05Z</time>
      </trkpt>
      <trkpt lat="50.112511999905109" lon="-5.250227004289627">
        <ele>70.790000000000006</ele>
        <time>2026-06-23T14:24:06Z</time>
      </trkpt>
      <trkpt lat="50.111950999125838" lon="-5.251087993383408">
        <ele>65.030000000000001</ele>
        <time>2026-06-23T14:24:16Z</time>
      </trkpt>
      <trkpt lat="50.111601976677775" lon="-5.251661986112595">
        <ele>64.069999999999993</ele>
        <time>2026-06-23T14:24:21Z</time>
      </trkpt>
      <trkpt lat="50.111525030806661" lon="-5.251783020794392">
        <ele>64.069999999999993</ele>
        <time>2026-06-23T14:24:22Z</time>
      </trkpt>
      <trkpt lat="50.110910972580314" lon="-5.252560023218393">
        <ele>66.950000000000003</ele>
        <time>2026-06-23T14:24:30Z</time>
      </trkpt>
      <trkpt lat="50.11015098541975" lon="-5.25407999753952">
        <ele>72.239999999999995</ele>
        <time>2026-06-23T14:24:43Z</time>
      </trkpt>
      <trkpt lat="50.109714036807418" lon="-5.255739027634263">
        <ele>78.480000000000004</ele>
        <time>2026-06-23T14:24:54Z</time>
      </trkpt>
      <trkpt lat="50.109210032969713" lon="-5.257489001378417">
        <ele>79.450000000000003</ele>
        <time>2026-06-23T14:25:03Z</time>
      </trkpt>
      <trkpt lat="50.108674010261893" lon="-5.258727008476853">
        <ele>76.079999999999998</ele>
        <time>2026-06-23T14:25:11Z</time>
      </trkpt>
      <trkpt lat="50.108599998056889" lon="-5.258889030665159">
        <ele>75.120000000000005</ele>
        <time>2026-06-23T14:25:12Z</time>
      </trkpt>
      <trkpt lat="50.10851601138711" lon="-5.25897997431457">
        <ele>74.640000000000001</ele>
        <time>2026-06-23T14:25:13Z</time>
      </trkpt>
      <trkpt lat="50.10843101888895" lon="-5.259073013439775">
        <ele>74.159999999999997</ele>
        <time>2026-06-23T14:25:14Z</time>
      </trkpt>
      <trkpt lat="50.108343008905649" lon="-5.259167980402708">
        <ele>73.680000000000007</ele>
        <time>2026-06-23T14:25:15Z</time>
      </trkpt>
      <trkpt lat="50.108267990872264" lon="-5.259225983172655">
        <ele>72.719999999999999</ele>
        <time>2026-06-23T14:25:16Z</time>
      </trkpt>
      <trkpt lat="50.108098005875945" lon="-5.259274011477828">
        <ele>72.239999999999995</ele>
        <time>2026-06-23T14:25:17Z</time>
      </trkpt>
      <trkpt lat="50.107999015599489" lon="-5.259190024808049">
        <ele>71.760000000000005</ele>
        <time>2026-06-23T14:25:18Z</time>
      </trkpt>
      <trkpt lat="50.107956016436219" lon="-5.259219026193023">
        <ele>71.269999999999996</ele>
        <time>2026-06-23T14:25:19Z</time>
      </trkpt>
      <trkpt lat="50.10787102393806" lon="-5.259275017306209">
        <ele>70.790000000000006</ele>
        <time>2026-06-23T14:25:20Z</time>
      </trkpt>
      <trkpt lat="50.107728028669953" lon="-5.259392028674483">
        <ele>70.790000000000006</ele>
        <time>2026-06-23T14:25:21Z</time>
      </trkpt>
      <trkpt lat="50.107612023130059" lon="-5.259381970390678">
        <ele>70.310000000000002</ele>
        <time>2026-06-23T14:25:22Z</time>
      </trkpt>
      <trkpt lat="50.107480008155107" lon="-5.259376019239426">
        <ele>69.829999999999998</ele>
        <time>2026-06-23T14:25:23Z</time>
      </trkpt>
      <trkpt lat="50.107338018715382" lon="-5.259368978440762">
        <ele>69.349999999999994</ele>
        <time>2026-06-23T14:25:24Z</time>
      </trkpt>
      <trkpt lat="50.105984006077051" lon="-5.259047029539943">
        <ele>63.100000000000001</ele>
        <time>2026-06-23T14:25:32Z</time>
      </trkpt>
      <trkpt lat="50.104130012914538" lon="-5.258321994915605">
        <ele>57.82</ele>
        <time>2026-06-23T14:25:42Z</time>
      </trkpt>
      <trkpt lat="50.102638034150004" lon="-5.258421991020441">
        <ele>58.299999999999997</ele>
        <time>2026-06-23T14:25:50Z</time>
      </trkpt>
      <trkpt lat="50.101374965161085" lon="-5.259139984846115">
        <ele>62.619999999999997</ele>
        <time>2026-06-23T14:25:58Z</time>
      </trkpt>
      <trkpt lat="50.100560998544097" lon="-5.259891003370285">
        <ele>64.549999999999997</ele>
        <time>2026-06-23T14:26:05Z</time>
      </trkpt>
      <trkpt lat="50.100191021338105" lon="-5.260098036378622">
        <ele>64.549999999999997</ele>
        <time>2026-06-23T14:26:10Z</time>
      </trkpt>
      <trkpt lat="50.100154979154468" lon="-5.260234996676445">
        <ele>65.030000000000001</ele>
        <time>2026-06-23T14:26:11Z</time>
      </trkpt>
      <trkpt lat="50.099796988070011" lon="-5.261295977979899">
        <ele>65.510000000000005</ele>
        <time>2026-06-23T14:26:19Z</time>
      </trkpt>
      <trkpt lat="50.099143031984568" lon="-5.263309981673956">
        <ele>66.469999999999999</ele>
        <time>2026-06-23T14:26:29Z</time>
      </trkpt>
      <trkpt lat="50.098978998139501" lon="-5.26379001326859">
        <ele>68.870000000000005</ele>
        <time>2026-06-23T14:26:34Z</time>
      </trkpt>
      <trkpt lat="50.098906997591257" lon="-5.263916999101639">
        <ele>70.310000000000002</ele>
        <time>2026-06-23T14:26:43Z</time>
      </trkpt>
      <trkpt lat="50.09886902756989" lon="-5.263982964679599">
        <ele>70.790000000000006</ele>
        <time>2026-06-23T14:26:44Z</time>
      </trkpt>
      <trkpt lat="50.098810018971562" lon="-5.264066029340029">
        <ele>71.269999999999996</ele>
        <time>2026-06-23T14:26:45Z</time>
      </trkpt>
      <trkpt lat="50.098536014556885" lon="-5.264297034591436">
        <ele>71.269999999999996</ele>
        <time>2026-06-23T14:26:48Z</time>
      </trkpt>
      <trkpt lat="50.098428977653384" lon="-5.264382027089596">
        <ele>70.790000000000006</ele>
        <time>2026-06-23T14:26:49Z</time>
      </trkpt>
      <trkpt lat="50.098331999033689" lon="-5.264398958534002">
        <ele>70.790000000000006</ele>
        <time>2026-06-23T14:26:50Z</time>
      </trkpt>
      <trkpt lat="50.098228985443711" lon="-5.264398036524653">
        <ele>70.790000000000006</ele>
        <time>2026-06-23T14:26:51Z</time>
      </trkpt>
      <trkpt lat="50.098126977682114" lon="-5.264388984069228">
        <ele>70.790000000000006</ele>
        <time>2026-06-23T14:26:52Z</time>
      </trkpt>
      <trkpt lat="50.097145959734917" lon="-5.264174994081259">
        <ele>68.390000000000001</ele>
        <time>2026-06-23T14:27:03Z</time>
      </trkpt>
      <trkpt lat="50.096301985904574" lon="-5.263775009661913">
        <ele>67.909999999999997</ele>
        <time>2026-06-23T14:27:15Z</time>
      </trkpt>
      <trkpt lat="50.095702009275556" lon="-5.263277040794492">
        <ele>69.829999999999998</ele>
        <time>2026-06-23T14:27:26Z</time>
      </trkpt>
      <trkpt lat="50.094996001571417" lon="-5.262688966467977">
        <ele>71.269999999999996</ele>
        <time>2026-06-23T14:27:36Z</time>
      </trkpt>
      <trkpt lat="50.094352019950747" lon="-5.262424014508724">
        <ele>72.239999999999995</ele>
        <time>2026-06-23T14:27:44Z</time>
      </trkpt>
      <trkpt lat="50.093536963686347" lon="-5.262503977864981">
        <ele>73.200000000000003</ele>
        <time>2026-06-23T14:27:52Z</time>
      </trkpt>
      <trkpt lat="50.092935981228948" lon="-5.262836990877986">
        <ele>72.719999999999999</ele>
        <time>2026-06-23T14:28:00Z</time>
      </trkpt>
      <trkpt lat="50.092657031491399" lon="-5.262902034446597">
        <ele>72.239999999999995</ele>
        <time>2026-06-23T14:28:06Z</time>
      </trkpt>
      <trkpt lat="50.092591987922788" lon="-5.262811006978154">
        <ele>71.760000000000005</ele>
        <time>2026-06-23T14:28:08Z</time>
      </trkpt>
      <trkpt lat="50.092533985152841" lon="-5.26275996118784">
        <ele>71.760000000000005</ele>
        <time>2026-06-23T14:28:09Z</time>
      </trkpt>
      <trkpt lat="50.092485034838319" lon="-5.262816036120057">
        <ele>71.269999999999996</ele>
        <time>2026-06-23T14:28:10Z</time>
      </trkpt>
      <trkpt lat="50.092459972947836" lon="-5.26286699809134">
        <ele>71.269999999999996</ele>
        <time>2026-06-23T14:28:11Z</time>
      </trkpt>
      <trkpt lat="50.092528034001589" lon="-5.263031031936407">
        <ele>71.269999999999996</ele>
        <time>2026-06-23T14:28:12Z</time>
      </trkpt>
      <trkpt lat="50.092503977939487" lon="-5.263122981414199">
        <ele>70.790000000000006</ele>
        <time>2026-06-23T14:28:13Z</time>
      </trkpt>
      <trkpt lat="50.092478999868035" lon="-5.263219038024545">
        <ele>70.790000000000006</ele>
        <time>2026-06-23T14:28:14Z</time>
      </trkpt>
      <trkpt lat="50.092453015968204" lon="-5.263319034129381">
        <ele>71.269999999999996</ele>
        <time>2026-06-23T14:28:15Z</time>
      </trkpt>
      <trkpt lat="50.092420997098088" lon="-5.263437973335385">
        <ele>71.269999999999996</ele>
        <time>2026-06-23T14:28:16Z</time>
      </trkpt>
      <trkpt lat="50.092367017641664" lon="-5.263513997197151">
        <ele>71.269999999999996</ele>
        <time>2026-06-23T14:28:17Z</time>
      </trkpt>
      <trkpt lat="50.092305997386575" lon="-5.263598989695311">
        <ele>71.760000000000005</ele>
        <time>2026-06-23T14:28:18Z</time>
      </trkpt>
      <trkpt lat="50.092012966051698" lon="-5.263975001871586">
        <ele>72.719999999999999</ele>
        <time>2026-06-23T14:28:24Z</time>
      </trkpt>
      <trkpt lat="50.091884974390268" lon="-5.26411397382617">
        <ele>73.200000000000003</ele>
        <time>2026-06-23T14:28:26Z</time>
      </trkpt>
      <trkpt lat="50.091884974390268" lon="-5.264168037101626">
        <ele>73.200000000000003</ele>
        <time>2026-06-23T14:28:27Z</time>
      </trkpt>
      <trkpt lat="50.092012966051698" lon="-5.264188991859555">
        <ele>73.200000000000003</ele>
        <time>2026-06-23T14:28:28Z</time>
      </trkpt>
      <trkpt lat="50.092035010457039" lon="-5.264225034043193">
        <ele>73.200000000000003</ele>
        <time>2026-06-23T14:28:29Z</time>
      </trkpt>
      <trkpt lat="50.09208002127707" lon="-5.264298040419817">
        <ele>73.200000000000003</ele>
        <time>2026-06-23T14:28:30Z</time>
      </trkpt>
      <trkpt lat="50.092272972688079" lon="-5.264568021520972">
        <ele>72.239999999999995</ele>
        <time>2026-06-23T14:28:33Z</time>
      </trkpt>
      <trkpt lat="50.093262959271669" lon="-5.265710977837443">
        <ele>69.349999999999994</ele>
        <time>2026-06-23T14:28:43Z</time>
      </trkpt>
      <trkpt lat="50.094183962792158" lon="-5.266889976337552">
        <ele>70.790000000000006</ele>
        <time>2026-06-23T14:28:53Z</time>
      </trkpt>
      <trkpt lat="50.094279013574123" lon="-5.26701201684773">
        <ele>71.269999999999996</ele>
        <time>2026-06-23T14:28:54Z</time>
      </trkpt>
      <trkpt lat="50.095237987115979" lon="-5.268252035602927">
        <ele>70.310000000000002</ele>
        <time>2026-06-23T14:29:04Z</time>
      </trkpt>
      <trkpt lat="50.096284970641136" lon="-5.269447965547442">
        <ele>74.159999999999997</ele>
        <time>2026-06-23T14:29:15Z</time>
      </trkpt>
      <trkpt lat="50.096748992800713" lon="-5.269937971606851">
        <ele>72.719999999999999</ele>
        <time>2026-06-23T14:29:21Z</time>
      </trkpt>
      <trkpt lat="50.09678696282208" lon="-5.269984994083643">
        <ele>72.239999999999995</ele>
        <time>2026-06-23T14:29:22Z</time>
      </trkpt>
      <trkpt lat="50.096816970035434" lon="-5.270021958276629">
        <ele>71.760000000000005</ele>
        <time>2026-06-23T14:29:23Z</time>
      </trkpt>
      <trkpt lat="50.096823005005717" lon="-5.27004299685359">
        <ele>71.269999999999996</ele>
        <time>2026-06-23T14:29:24Z</time>
      </trkpt>
      <trkpt lat="50.096833985298872" lon="-5.27010896243155">
        <ele>70.790000000000006</ele>
        <time>2026-06-23T14:29:25Z</time>
      </trkpt>
      <trkpt lat="50.096835996955633" lon="-5.270170988515019">
        <ele>70.310000000000002</ele>
        <time>2026-06-23T14:29:26Z</time>
      </trkpt>
      <trkpt lat="50.096800038591027" lon="-5.27027802541852">
        <ele>69.349999999999994</ele>
        <time>2026-06-23T14:29:27Z</time>
      </trkpt>
      <trkpt lat="50.096760978922248" lon="-5.270396964624524">
        <ele>68.870000000000005</ele>
        <time>2026-06-23T14:29:28Z</time>
      </trkpt>
      <trkpt lat="50.096719991415739" lon="-5.270517999306321">
        <ele>68.390000000000001</ele>
        <time>2026-06-23T14:29:29Z</time>
      </trkpt>
      <trkpt lat="50.096432995051146" lon="-5.271343030035496">
        <ele>65.989999999999995</ele>
        <time>2026-06-23T14:29:36Z</time>
      </trkpt>
      <trkpt lat="50.096392007544637" lon="-5.271580992266536">
        <ele>65.510000000000005</ele>
        <time>2026-06-23T14:29:38Z</time>
      </trkpt>
      <trkpt lat="50.096380021423101" lon="-5.271691968664527">
        <ele>64.549999999999997</ele>
        <time>2026-06-23T14:29:39Z</time>
      </trkpt>
      <trkpt lat="50.096355965360999" lon="-5.271909981966019">
        <ele>63.579999999999998</ele>
        <time>2026-06-23T14:29:41Z</time>
      </trkpt>
      <trkpt lat="50.096352025866508" lon="-5.272024981677532">
        <ele>62.619999999999997</ele>
        <time>2026-06-23T14:29:42Z</time>
      </trkpt>
      <trkpt lat="50.096374992281199" lon="-5.272265961393714">
        <ele>62.140000000000001</ele>
        <time>2026-06-23T14:29:44Z</time>
      </trkpt>
      <trkpt lat="50.096411034464836" lon="-5.272508030757308">
        <ele>62.619999999999997</ele>
        <time>2026-06-23T14:29:46Z</time>
      </trkpt>
      <trkpt lat="50.096439030021429" lon="-5.27262101881206">
        <ele>62.619999999999997</ele>
        <time>2026-06-23T14:29:47Z</time>
      </trkpt>
      <trkpt lat="50.096496026962996" lon="-5.272848000749946">
        <ele>61.659999999999997</ele>
        <time>2026-06-23T14:29:49Z</time>
      </trkpt>
      <trkpt lat="50.09652603417635" lon="-5.272960988804698">
        <ele>61.18</ele>
        <time>2026-06-23T14:29:50Z</time>
      </trkpt>
      <trkpt lat="50.096570961177349" lon="-5.273071965202689">
        <ele>60.700000000000003</ele>
        <time>2026-06-23T14:29:51Z</time>
      </trkpt>
      <trkpt lat="50.096621001139283" lon="-5.273197023198009">
        <ele>60.219999999999999</ele>
        <time>2026-06-23T14:29:52Z</time>
      </trkpt>
      <trkpt lat="50.096673974767327" lon="-5.273324009031057">
        <ele>59.740000000000002</ele>
        <time>2026-06-23T14:29:53Z</time>
      </trkpt>
      <trkpt lat="50.096746981143951" lon="-5.273462980985642">
        <ele>58.780000000000001</ele>
        <time>2026-06-23T14:29:54Z</time>
      </trkpt>
      <trkpt lat="50.097582992166281" lon="-5.27461800724268">
        <ele>49.159999999999997</ele>
        <time>2026-06-23T14:30:04Z</time>
      </trkpt>
      <trkpt lat="50.097643006592989" lon="-5.274761002510786">
        <ele>47.719999999999999</ele>
        <time>2026-06-23T14:30:05Z</time>
      </trkpt>
      <trkpt lat="50.09768801741302" lon="-5.274915983900428">
        <ele>46.759999999999998</ele>
        <time>2026-06-23T14:30:06Z</time>
      </trkpt>
      <trkpt lat="50.097733028233051" lon="-5.27507197111845">
        <ele>45.32</ele>
        <time>2026-06-23T14:30:07Z</time>
      </trkpt>
      <trkpt lat="50.097778039053082" lon="-5.275229969993234">
        <ele>44.359999999999999</ele>
        <time>2026-06-23T14:30:08Z</time>
      </trkpt>
      <trkpt lat="50.097822966054082" lon="-5.275386041030288">
        <ele>43.399999999999999</ele>
        <time>2026-06-23T14:30:09Z</time>
      </trkpt>
      <trkpt lat="50.097868982702494" lon="-5.27554496191442">
        <ele>42.439999999999998</ele>
        <time>2026-06-23T14:30:10Z</time>
      </trkpt>
      <trkpt lat="50.097920028492808" lon="-5.275722993537784">
        <ele>40.990000000000002</ele>
        <time>2026-06-23T14:30:11Z</time>
      </trkpt>
      <trkpt lat="50.097966967150569" lon="-5.275915022939444">
        <ele>40.030000000000001</ele>
        <time>2026-06-23T14:30:12Z</time>
      </trkpt>
      <trkpt lat="50.098100993782282" lon="-5.276521034538746">
        <ele>35.229999999999997</ele>
        <time>2026-06-23T14:30:15Z</time>
      </trkpt>
      <trkpt lat="50.098181962966919" lon="-5.276693031191826">
        <ele>33.299999999999997</ele>
        <time>2026-06-23T14:30:16Z</time>
      </trkpt>
      <trkpt lat="50.098262010142207" lon="-5.276844995096326">
        <ele>31.379999999999999</ele>
        <time>2026-06-23T14:30:17Z</time>
      </trkpt>
      <trkpt lat="50.098738018423319" lon="-5.277547985315323">
        <ele>23.210000000000001</ele>
        <time>2026-06-23T14:30:24Z</time>
      </trkpt>
      <trkpt lat="50.099029960110784" lon="-5.277964984998107">
        <ele>20.32</ele>
        <time>2026-06-23T14:30:30Z</time>
      </trkpt>
      <trkpt lat="50.099068013951182" lon="-5.277990968897939">
        <ele>19.359999999999999</ele>
        <time>2026-06-23T14:30:31Z</time>
      </trkpt>
      <trkpt lat="50.099124005064368" lon="-5.277934977784753">
        <ele>19.359999999999999</ele>
        <time>2026-06-23T14:30:32Z</time>
      </trkpt>
      <trkpt lat="50.099136997014284" lon="-5.277901031076908">
        <ele>18.879999999999999</ele>
        <time>2026-06-23T14:30:33Z</time>
      </trkpt>
      <trkpt lat="50.099122999235988" lon="-5.277856020256877">
        <ele>18.399999999999999</ele>
        <time>2026-06-23T14:30:34Z</time>
      </trkpt>
      <trkpt lat="50.099115958437324" lon="-5.277835987508297">
        <ele>17.920000000000002</ele>
        <time>2026-06-23T14:30:35Z</time>
      </trkpt>
      <trkpt lat="50.099057033658028" lon="-5.277797011658549">
        <ele>17.440000000000001</ele>
        <time>2026-06-23T14:30:36Z</time>
      </trkpt>
      <trkpt lat="50.099052004516125" lon="-5.277792988345027">
        <ele>17.440000000000001</ele>
        <time>2026-06-23T14:30:37Z</time>
      </trkpt>
      <trkpt lat="50.09891202673316" lon="-5.277750995010138">
        <ele>17.440000000000001</ele>
        <time>2026-06-23T14:30:38Z</time>
      </trkpt>
      <trkpt lat="50.098841032013297" lon="-5.277672959491611">
        <ele>17.440000000000001</ele>
        <time>2026-06-23T14:30:39Z</time>
      </trkpt>
      <trkpt lat="50.098766013979912" lon="-5.277584027498961">
        <ele>18.399999999999999</ele>
        <time>2026-06-23T14:30:40Z</time>
      </trkpt>
      <trkpt lat="50.098690995946527" lon="-5.277485959231854">
        <ele>18.879999999999999</ele>
        <time>2026-06-23T14:30:41Z</time>
      </trkpt>
      <trkpt lat="50.098612038418651" lon="-5.277382023632526">
        <ele>19.84</ele>
        <time>2026-06-23T14:30:42Z</time>
      </trkpt>
      <trkpt lat="50.098172994330525" lon="-5.276676015928388">
        <ele>23.690000000000001</ele>
        <time>2026-06-23T14:30:48Z</time>
      </trkpt>
      <trkpt lat="50.09811700321734" lon="-5.276567973196507">
        <ele>24.649999999999999</ele>
        <time>2026-06-23T14:30:49Z</time>
      </trkpt>
      <trkpt lat="50.097931008785963" lon="-5.275745037943125">
        <ele>28.02</ele>
        <time>2026-06-23T14:30:55Z</time>
      </trkpt>
      <trkpt lat="50.097807040438056" lon="-5.2749830391258">
        <ele>28.98</ele>
        <time>2026-06-23T14:31:00Z</time>
      </trkpt>
      <trkpt lat="50.097776027396321" lon="-5.274882959201932">
        <ele>29.460000000000001</ele>
        <time>2026-06-23T14:31:01Z</time>
      </trkpt>
      <trkpt lat="50.097695980221033" lon="-5.274632005020976">
        <ele>29.460000000000001</ele>
        <time>2026-06-23T14:31:03Z</time>
      </trkpt>
      <trkpt lat="50.097650969401002" lon="-5.274537960067391">
        <ele>30.420000000000002</ele>
        <time>2026-06-23T14:31:04Z</time>
      </trkpt>
      <trkpt lat="50.097575029358268" lon="-5.274434024468064">
        <ele>30.899999999999999</ele>
        <time>2026-06-23T14:31:05Z</time>
      </trkpt>
      <trkpt lat="50.097503028810024" lon="-5.274335034191608">
        <ele>31.859999999999999</ele>
        <time>2026-06-23T14:31:06Z</time>
      </trkpt>
      <trkpt lat="50.0974300224334" lon="-5.274235960096121">
        <ele>32.82</ele>
        <time>2026-06-23T14:31:07Z</time>
      </trkpt>
      <trkpt lat="50.096695013344288" lon="-5.27313600294292">
        <ele>43.399999999999999</ele>
        <time>2026-06-23T14:31:17Z</time>
      </trkpt>
      <trkpt lat="50.096622006967664" lon="-5.27300700545311">
        <ele>44.359999999999999</ele>
        <time>2026-06-23T14:31:18Z</time>
      </trkpt>
      <trkpt lat="50.096553023904562" lon="-5.272868033498526">
        <ele>45.32</ele>
        <time>2026-06-23T14:31:19Z</time>
      </trkpt>
      <trkpt lat="50.096457973122597" lon="-5.272526973858476">
        <ele>48.200000000000003</ele>
        <time>2026-06-23T14:31:21Z</time>
      </trkpt>
      <trkpt lat="50.096429977566004" lon="-5.272343996912241">
        <ele>49.159999999999997</ele>
        <time>2026-06-23T14:31:22Z</time>
      </trkpt>
      <trkpt lat="50.096401982009411" lon="-5.272159008309245">
        <ele>50.130000000000003</ele>
        <time>2026-06-23T14:31:23Z</time>
      </trkpt>
      <trkpt lat="50.09639997035265" lon="-5.271973013877869">
        <ele>51.57</ele>
        <time>2026-06-23T14:31:24Z</time>
      </trkpt>
      <trkpt lat="50.096415979787707" lon="-5.271786013618112">
        <ele>52.530000000000001</ele>
        <time>2026-06-23T14:31:25Z</time>
      </trkpt>
      <trkpt lat="50.096430983394384" lon="-5.271602030843496">
        <ele>53.969999999999999</ele>
        <time>2026-06-23T14:31:26Z</time>
      </trkpt>
      <trkpt lat="50.09646400809288" lon="-5.271427016705275">
        <ele>55.409999999999997</ele>
        <time>2026-06-23T14:31:27Z</time>
      </trkpt>
      <trkpt lat="50.096498038619757" lon="-5.271262982860208">
        <ele>56.369999999999997</ele>
        <time>2026-06-23T14:31:28Z</time>
      </trkpt>
      <trkpt lat="50.09652997367084" lon="-5.271106995642185">
        <ele>57.340000000000003</ele>
        <time>2026-06-23T14:31:29Z</time>
      </trkpt>
      <trkpt lat="50.096841026097536" lon="-5.270154979079962">
        <ele>62.619999999999997</ele>
        <time>2026-06-23T14:31:38Z</time>
      </trkpt>
      <trkpt lat="50.096905985847116" lon="-5.270090019330382">
        <ele>62.619999999999997</ele>
        <time>2026-06-23T14:31:39Z</time>
      </trkpt>
      <trkpt lat="50.096887964755297" lon="-5.270018018782139">
        <ele>63.100000000000001</ele>
        <time>2026-06-23T14:31:40Z</time>
      </trkpt>
      <trkpt lat="50.096801966428757" lon="-5.270003015175462">
        <ele>63.579999999999998</ele>
        <time>2026-06-23T14:31:41Z</time>
      </trkpt>
      <trkpt lat="50.096740024164319" lon="-5.269925985485315">
        <ele>63.579999999999998</ele>
        <time>2026-06-23T14:31:42Z</time>
      </trkpt>
      <trkpt lat="50.096647990867496" lon="-5.269810985773802">
        <ele>64.069999999999993</ele>
        <time>2026-06-23T14:31:43Z</time>
      </trkpt>
      <trkpt lat="50.096599962562323" lon="-5.269763041287661">
        <ele>64.069999999999993</ele>
        <time>2026-06-23T14:31:44Z</time>
      </trkpt>
      <trkpt lat="50.095855984836817" lon="-5.268994001671672">
        <ele>66.950000000000003</ele>
        <time>2026-06-23T14:31:52Z</time>
      </trkpt>
      <trkpt lat="50.094955014064908" lon="-5.267885997891426">
        <ele>65.510000000000005</ele>
        <time>2026-06-23T14:32:01Z</time>
      </trkpt>
      <trkpt lat="50.093747014179826" lon="-5.26632503606379">
        <ele>67.909999999999997</ele>
        <time>2026-06-23T14:32:13Z</time>
      </trkpt>
      <trkpt lat="50.092700030654669" lon="-5.265054004266858">
        <ele>69.829999999999998</ele>
        <time>2026-06-23T14:32:23Z</time>
      </trkpt>
      <trkpt lat="50.092082032933831" lon="-5.264300974085927">
        <ele>70.790000000000006</ele>
        <time>2026-06-23T14:32:30Z</time>
      </trkpt>
      <trkpt lat="50.092012966051698" lon="-5.264188991859555">
        <ele>72.239999999999995</ele>
        <time>2026-06-23T14:32:34Z</time>
      </trkpt>
      <trkpt lat="50.091884974390268" lon="-5.263996040448546">
        <ele>72.239999999999995</ele>
        <time>2026-06-23T14:32:35Z</time>
      </trkpt>
      <trkpt lat="50.091884974390268" lon="-5.263996040448546">
        <ele>71.760000000000005</ele>
        <time>2026-06-23T14:32:36Z</time>
      </trkpt>
      <trkpt lat="50.091884974390268" lon="-5.264168037101626">
        <ele>72.239999999999995</ele>
        <time>2026-06-23T14:32:37Z</time>
      </trkpt>
      <trkpt lat="50.091839963570237" lon="-5.26424297131598">
        <ele>71.760000000000005</ele>
        <time>2026-06-23T14:32:38Z</time>
      </trkpt>
      <trkpt lat="50.091782966628671" lon="-5.264338022097945">
        <ele>71.760000000000005</ele>
        <time>2026-06-23T14:32:39Z</time>
      </trkpt>
      <trkpt lat="50.091042006388307" lon="-5.265517020598054">
        <ele>70.310000000000002</ele>
        <time>2026-06-23T14:32:48Z</time>
      </trkpt>
      <trkpt lat="50.089569976553321" lon="-5.267821038141847">
        <ele>78.480000000000004</ele>
        <time>2026-06-23T14:33:02Z</time>
      </trkpt>
      <trkpt lat="50.088462978601456" lon="-5.268940022215247">
        <ele>79.930000000000007</ele>
        <time>2026-06-23T14:33:10Z</time>
      </trkpt>
      <trkpt lat="50.08726998232305" lon="-5.269292984157801">
        <ele>79.930000000000007</ele>
        <time>2026-06-23T14:33:16Z</time>
      </trkpt>
      <trkpt lat="50.086608985438943" lon="-5.26911897584796">
        <ele>78.480000000000004</ele>
        <time>2026-06-23T14:33:19Z</time>
      </trkpt>
      <trkpt lat="50.086392983794212" lon="-5.269000958651304">
        <ele>78</ele>
        <time>2026-06-23T14:33:20Z</time>
      </trkpt>
      <trkpt lat="50.086181005463004" lon="-5.268859975039959">
        <ele>77.040000000000006</ele>
        <time>2026-06-23T14:33:21Z</time>
      </trkpt>
      <trkpt lat="50.085985036566854" lon="-5.268699964508414">
        <ele>75.599999999999994</ele>
        <time>2026-06-23T14:33:22Z</time>
      </trkpt>
      <trkpt lat="50.085797030478716" lon="-5.268546994775534">
        <ele>74.640000000000001</ele>
        <time>2026-06-23T14:33:23Z</time>
      </trkpt>
      <trkpt lat="50.084328018128872" lon="-5.266914032399654">
        <ele>69.349999999999994</ele>
        <time>2026-06-23T14:33:32Z</time>
      </trkpt>
      <trkpt lat="50.08294802159071" lon="-5.264863986521959">
        <ele>70.790000000000006</ele>
        <time>2026-06-23T14:33:42Z</time>
      </trkpt>
      <trkpt lat="50.082535967230797" lon="-5.263093980029225">
        <ele>68.390000000000001</ele>
        <time>2026-06-23T14:33:48Z</time>
      </trkpt>
      <trkpt lat="50.082232039421797" lon="-5.26045803911984">
        <ele>63.579999999999998</ele>
        <time>2026-06-23T14:33:57Z</time>
      </trkpt>
      <trkpt lat="50.081671038642526" lon="-5.25871803984046">
        <ele>65.989999999999995</ele>
        <time>2026-06-23T14:34:04Z</time>
      </trkpt>
      <trkpt lat="50.080733019858599" lon="-5.257016010582447">
        <ele>75.599999999999994</ele>
        <time>2026-06-23T14:34:13Z</time>
      </trkpt>
      <trkpt lat="50.080256005749106" lon="-5.256082015112042">
        <ele>77.519999999999996</ele>
        <time>2026-06-23T14:34:18Z</time>
      </trkpt>
      <trkpt lat="50.079744039103389" lon="-5.254533039405942">
        <ele>77.519999999999996</ele>
        <time>2026-06-23T14:34:25Z</time>
      </trkpt>
      <trkpt lat="50.079467017203569" lon="-5.252271015197039">
        <ele>76.560000000000002</ele>
        <time>2026-06-23T14:34:34Z</time>
      </trkpt>
      <trkpt lat="50.079289991408587" lon="-5.248709041625261">
        <ele>71.760000000000005</ele>
        <time>2026-06-23T14:34:47Z</time>
      </trkpt>
      <trkpt lat="50.079077007248998" lon="-5.246843984350562">
        <ele>72.719999999999999</ele>
        <time>2026-06-23T14:34:55Z</time>
      </trkpt>
      <trkpt lat="50.07845900952816" lon="-5.245027039200068">
        <ele>79.930000000000007</ele>
        <time>2026-06-23T14:35:04Z</time>
      </trkpt>
      <trkpt lat="50.077550997957587" lon="-5.243643019348383">
        <ele>83.290000000000006</ele>
        <time>2026-06-23T14:35:14Z</time>
      </trkpt>
      <trkpt lat="50.07603001780808" lon="-5.242007961496711">
        <ele>83.290000000000006</ele>
        <time>2026-06-23T14:35:26Z</time>
      </trkpt>
      <trkpt lat="50.074534015730023" lon="-5.240706000477076">
        <ele>85.689999999999998</ele>
        <time>2026-06-23T14:35:37Z</time>
      </trkpt>
      <trkpt lat="50.073590967804193" lon="-5.240232003852725">
        <ele>86.659999999999997</ele>
        <time>2026-06-23T14:35:45Z</time>
      </trkpt>
      <trkpt lat="50.07336700335145" lon="-5.24013502523303">
        <ele>85.689999999999998</ele>
        <time>2026-06-23T14:35:49Z</time>
      </trkpt>
      <trkpt lat="50.073216967284679" lon="-5.24009202606976">
        <ele>85.689999999999998</ele>
        <time>2026-06-23T14:35:50Z</time>
      </trkpt>
      <trkpt lat="50.073114959523082" lon="-5.240082973614335">
        <ele>85.689999999999998</ele>
        <time>2026-06-23T14:35:51Z</time>
      </trkpt>
      <trkpt lat="50.0727220159024" lon="-5.240042991936207">
        <ele>84.730000000000004</ele>
        <time>2026-06-23T14:35:54Z</time>
      </trkpt>
      <trkpt lat="50.071397004649043" lon="-5.239564971998334">
        <ele>79.930000000000007</ele>
        <time>2026-06-23T14:36:04Z</time>
      </trkpt>
      <trkpt lat="50.070464015007019" lon="-5.239064991474152">
        <ele>78.969999999999999</ele>
        <time>2026-06-23T14:36:11Z</time>
      </trkpt>
      <trkpt lat="50.070049026980996" lon="-5.23873801343143">
        <ele>78.480000000000004</ele>
        <time>2026-06-23T14:36:14Z</time>
      </trkpt>
      <trkpt lat="50.068399971351027" lon="-5.237750038504601">
        <ele>73.680000000000007</ele>
        <time>2026-06-23T14:36:25Z</time>
      </trkpt>
      <trkpt lat="50.066838003695011" lon="-5.236528962850571">
        <ele>75.599999999999994</ele>
        <time>2026-06-23T14:36:36Z</time>
      </trkpt>
      <trkpt lat="50.066114980727434" lon="-5.235762018710375">
        <ele>77.040000000000006</ele>
        <time>2026-06-23T14:36:41Z</time>
      </trkpt>
      <trkpt lat="50.065989000722766" lon="-5.235574012622237">
        <ele>76.560000000000002</ele>
        <time>2026-06-23T14:36:42Z</time>
      </trkpt>
      <trkpt lat="50.065579963847995" lon="-5.234968001022935">
        <ele>75.599999999999994</ele>
        <time>2026-06-23T14:36:45Z</time>
      </trkpt>
      <trkpt lat="50.06543998606503" lon="-5.234831040725112">
        <ele>75.120000000000005</ele>
        <time>2026-06-23T14:36:46Z</time>
      </trkpt>
      <trkpt lat="50.065301014110446" lon="-5.234730038791895">
        <ele>74.640000000000001</ele>
        <time>2026-06-23T14:36:47Z</time>
      </trkpt>
      <trkpt lat="50.065155001357198" lon="-5.234650997444987">
        <ele>73.680000000000007</ele>
        <time>2026-06-23T14:36:48Z</time>
      </trkpt>
      <trkpt lat="50.064995996654034" lon="-5.234563993290067">
        <ele>73.200000000000003</ele>
        <time>2026-06-23T14:36:49Z</time>
      </trkpt>
      <trkpt lat="50.064377998933196" lon="-5.234195021912456">
        <ele>70.790000000000006</ele>
        <time>2026-06-23T14:36:53Z</time>
      </trkpt>
      <trkpt lat="50.064243972301483" lon="-5.234071975573897">
        <ele>69.829999999999998</ele>
        <time>2026-06-23T14:36:54Z</time>
      </trkpt>
      <trkpt lat="50.064121009781957" lon="-5.233902996405959">
        <ele>69.349999999999994</ele>
        <time>2026-06-23T14:36:55Z</time>
      </trkpt>
      <trkpt lat="50.063351970165968" lon="-5.232674041762948">
        <ele>67.430000000000007</ele>
        <time>2026-06-23T14:37:02Z</time>
      </trkpt>
      <trkpt lat="50.063283992931247" lon="-5.23248796351254">
        <ele>66.950000000000003</ele>
        <time>2026-06-23T14:37:03Z</time>
      </trkpt>
      <trkpt lat="50.063217021524906" lon="-5.232305992394686">
        <ele>66.950000000000003</ele>
        <time>2026-06-23T14:37:04Z</time>
      </trkpt>
      <trkpt lat="50.063149966299534" lon="-5.232113040983677">
        <ele>66.469999999999999</ele>
        <time>2026-06-23T14:37:05Z</time>
      </trkpt>
      <trkpt lat="50.06311803124845" lon="-5.231902990490198">
        <ele>65.989999999999995</ele>
        <time>2026-06-23T14:37:06Z</time>
      </trkpt>
      <trkpt lat="50.063085006549954" lon="-5.231690006330609">
        <ele>65.030000000000001</ele>
        <time>2026-06-23T14:37:07Z</time>
      </trkpt>
      <trkpt lat="50.063050976023078" lon="-5.231470987200737">
        <ele>64.549999999999997</ele>
        <time>2026-06-23T14:37:08Z</time>
      </trkpt>
      <trkpt lat="50.062919966876507" lon="-5.229868032038212">
        <ele>60.700000000000003</ele>
        <time>2026-06-23T14:37:16Z</time>
      </trkpt>
      <trkpt lat="50.062621990218759" lon="-5.228106994181871">
        <ele>62.140000000000001</ele>
        <time>2026-06-23T14:37:24Z</time>
      </trkpt>
      <trkpt lat="50.062404982745647" lon="-5.226997984573245">
        <ele>63.579999999999998</ele>
        <time>2026-06-23T14:37:29Z</time>
      </trkpt>
      <trkpt lat="50.062362989410758" lon="-5.22649297490716">
        <ele>64.069999999999993</ele>
        <time>2026-06-23T14:37:31Z</time>
      </trkpt>
      <trkpt lat="50.062326025217772" lon="-5.226242020726204">
        <ele>64.549999999999997</ele>
        <time>2026-06-23T14:37:32Z</time>
      </trkpt>
      <trkpt lat="50.062286965548992" lon="-5.22599802352488">
        <ele>64.549999999999997</ele>
        <time>2026-06-23T14:37:33Z</time>
      </trkpt>
      <trkpt lat="50.062252013012767" lon="-5.225780010223389">
        <ele>64.549999999999997</ele>
        <time>2026-06-23T14:37:34Z</time>
      </trkpt>
      <trkpt lat="50.06217397749424" lon="-5.225564008578658">
        <ele>64.549999999999997</ele>
        <time>2026-06-23T14:37:35Z</time>
      </trkpt>
      <trkpt lat="50.062086973339319" lon="-5.225373990833759">
        <ele>64.549999999999997</ele>
        <time>2026-06-23T14:37:36Z</time>
      </trkpt>
      <trkpt lat="50.061984965577722" lon="-5.225183973088861">
        <ele>65.030000000000001</ele>
        <time>2026-06-23T14:37:37Z</time>
      </trkpt>
      <trkpt lat="50.061630997806787" lon="-5.224630013108254">
        <ele>65.989999999999995</ele>
        <time>2026-06-23T14:37:40Z</time>
      </trkpt>
      <trkpt lat="50.061496971175075" lon="-5.224447036162019">
        <ele>66.950000000000003</ele>
        <time>2026-06-23T14:37:41Z</time>
      </trkpt>
      <trkpt lat="50.061331009492278" lon="-5.224347962066531">
        <ele>67.909999999999997</ele>
        <time>2026-06-23T14:37:42Z</time>
      </trkpt>
      <trkpt lat="50.06116496399045" lon="-5.224247965961695">
        <ele>68.870000000000005</ele>
        <time>2026-06-23T14:37:43Z</time>
      </trkpt>
      <trkpt lat="50.061005037277937" lon="-5.224151993170381">
        <ele>69.829999999999998</ele>
        <time>2026-06-23T14:37:44Z</time>
      </trkpt>
      <trkpt lat="50.059677008539438" lon="-5.223841024562717">
        <ele>73.200000000000003</ele>
        <time>2026-06-23T14:37:52Z</time>
      </trkpt>
      <trkpt lat="50.059012994170189" lon="-5.2237209957093">
        <ele>70.310000000000002</ele>
        <time>2026-06-23T14:37:56Z</time>
      </trkpt>
      <trkpt lat="50.058852983638644" lon="-5.223740022629499">
        <ele>69.349999999999994</ele>
        <time>2026-06-23T14:37:57Z</time>
      </trkpt>
      <trkpt lat="50.057981014251709" lon="-5.223848987370729">
        <ele>65.030000000000001</ele>
        <time>2026-06-23T14:38:02Z</time>
      </trkpt>
      <trkpt lat="50.057012988254428" lon="-5.223709009587765">
        <ele>61.18</ele>
        <time>2026-06-23T14:38:08Z</time>
      </trkpt>
      <trkpt lat="50.056877033784986" lon="-5.223651006817818">
        <ele>60.219999999999999</ele>
        <time>2026-06-23T14:38:09Z</time>
      </trkpt>
      <trkpt lat="50.056743007153273" lon="-5.223594009876251">
        <ele>59.259999999999998</ele>
        <time>2026-06-23T14:38:10Z</time>
      </trkpt>
      <trkpt lat="50.056607974693179" lon="-5.223537012934685">
        <ele>58.299999999999997</ele>
        <time>2026-06-23T14:38:11Z</time>
      </trkpt>
      <trkpt lat="50.056473026052117" lon="-5.223481021821499">
        <ele>56.859999999999999</ele>
        <time>2026-06-23T14:38:12Z</time>
      </trkpt>
      <trkpt lat="50.056340005248785" lon="-5.223424024879932">
        <ele>55.890000000000001</ele>
        <time>2026-06-23T14:38:13Z</time>
      </trkpt>
      <trkpt lat="50.056201033294201" lon="-5.22342000156641">
        <ele>54.93</ele>
        <time>2026-06-23T14:38:14Z</time>
      </trkpt>
      <trkpt lat="50.056061977520585" lon="-5.223456965759397">
        <ele>53.009999999999998</ele>
        <time>2026-06-23T14:38:15Z</time>
      </trkpt>
      <trkpt lat="50.055916970595717" lon="-5.22352896630764">
        <ele>51.57</ele>
        <time>2026-06-23T14:38:16Z</time>
      </trkpt>
      <trkpt lat="50.055773975327611" lon="-5.223650000989437">
        <ele>50.130000000000003</ele>
        <time>2026-06-23T14:38:17Z</time>
      </trkpt>
      <trkpt lat="50.055624023079872" lon="-5.223797019571066">
        <ele>48.68</ele>
        <time>2026-06-23T14:38:18Z</time>
      </trkpt>
      <trkpt lat="50.055005019530654" lon="-5.224344022572041">
        <ele>46.280000000000001</ele>
        <time>2026-06-23T14:38:22Z</time>
      </trkpt>
      <trkpt lat="50.054860012605786" lon="-5.224389033392072">
        <ele>47.240000000000002</ele>
        <time>2026-06-23T14:38:23Z</time>
      </trkpt>
      <trkpt lat="50.054712994024158" lon="-5.224401019513607">
        <ele>48.200000000000003</ele>
        <time>2026-06-23T14:38:24Z</time>
      </trkpt>
      <trkpt lat="50.054554995149374" lon="-5.224388027563691">
        <ele>49.159999999999997</ele>
        <time>2026-06-23T14:38:25Z</time>
      </trkpt>
      <trkpt lat="50.054393978789449" lon="-5.224350979551673">
        <ele>50.130000000000003</ele>
        <time>2026-06-23T14:38:26Z</time>
      </trkpt>
      <trkpt lat="50.052922032773495" lon="-5.223963987082243">
        <ele>61.18</ele>
        <time>2026-06-23T14:38:34Z</time>
      </trkpt>
      <trkpt lat="50.051281023770571" lon="-5.223700040951371">
        <ele>63.579999999999998</ele>
        <time>2026-06-23T14:38:43Z</time>
      </trkpt>
      <trkpt lat="50.049701035022736" lon="-5.223699035122991">
        <ele>61.659999999999997</ele>
        <time>2026-06-23T14:38:51Z</time>
      </trkpt>
      <trkpt lat="50.048307962715626" lon="-5.22432298399508">
        <ele>60.700000000000003</ele>
        <time>2026-06-23T14:38:59Z</time>
      </trkpt>
      <trkpt lat="50.047060986980796" lon="-5.225034020841122">
        <ele>59.259999999999998</ele>
        <time>2026-06-23T14:39:06Z</time>
      </trkpt>
      <trkpt lat="50.046909023076296" lon="-5.225123958662152">
        <ele>59.259999999999998</ele>
        <time>2026-06-23T14:39:07Z</time>
      </trkpt>
      <trkpt lat="50.046755969524384" lon="-5.225107027217746">
        <ele>58.780000000000001</ele>
        <time>2026-06-23T14:39:08Z</time>
      </trkpt>
      <trkpt lat="50.046611968427896" lon="-5.225075008347631">
        <ele>59.259999999999998</ele>
        <time>2026-06-23T14:39:09Z</time>
      </trkpt>
      <trkpt lat="50.046457992866635" lon="-5.225015999749303">
        <ele>59.259999999999998</ele>
        <time>2026-06-23T14:39:10Z</time>
      </trkpt>
      <trkpt lat="50.046314997598529" lon="-5.224901000037789">
        <ele>59.740000000000002</ele>
        <time>2026-06-23T14:39:11Z</time>
      </trkpt>
      <trkpt lat="50.046190023422241" lon="-5.22473000921309">
        <ele>60.219999999999999</ele>
        <time>2026-06-23T14:39:12Z</time>
      </trkpt>
      <trkpt lat="50.046071000397205" lon="-5.224546026438475">
        <ele>60.700000000000003</ele>
        <time>2026-06-23T14:39:13Z</time>
      </trkpt>
      <trkpt lat="50.045960023999214" lon="-5.224360032007098">
        <ele>60.700000000000003</ele>
        <time>2026-06-23T14:39:14Z</time>
      </trkpt>
      <trkpt lat="50.04586698487401" lon="-5.224188035354018">
        <ele>61.18</ele>
        <time>2026-06-23T14:39:15Z</time>
      </trkpt>
      <trkpt lat="50.045778974890709" lon="-5.224026013165712">
        <ele>61.659999999999997</ele>
        <time>2026-06-23T14:39:16Z</time>
      </trkpt>
      <trkpt lat="50.045695994049311" lon="-5.223872037604451">
        <ele>62.140000000000001</ele>
        <time>2026-06-23T14:39:17Z</time>
      </trkpt>
      <trkpt lat="50.04537002183497" lon="-5.22326703183353">
        <ele>63.100000000000001</ele>
        <time>2026-06-23T14:39:21Z</time>
      </trkpt>
      <trkpt lat="50.045131975784898" lon="-5.222825976088643">
        <ele>63.100000000000001</ele>
        <time>2026-06-23T14:39:24Z</time>
      </trkpt>
      <trkpt lat="50.045060981065035" lon="-5.222716005519033">
        <ele>63.579999999999998</ele>
        <time>2026-06-23T14:39:25Z</time>
      </trkpt>
      <trkpt lat="50.044982023537159" lon="-5.222592959180474">
        <ele>64.069999999999993</ele>
        <time>2026-06-23T14:39:26Z</time>
      </trkpt>
      <trkpt lat="50.044905999675393" lon="-5.222476031631231">
        <ele>64.549999999999997</ele>
        <time>2026-06-23T14:39:27Z</time>
      </trkpt>
      <trkpt lat="50.044832993298769" lon="-5.222376035526395">
        <ele>65.030000000000001</ele>
        <time>2026-06-23T14:39:28Z</time>
      </trkpt>
      <trkpt lat="50.044740960001945" lon="-5.222295988351107">
        <ele>65.030000000000001</ele>
        <time>2026-06-23T14:39:29Z</time>
      </trkpt>
      <trkpt lat="50.044644987210631" lon="-5.222213007509708">
        <ele>65.030000000000001</ele>
        <time>2026-06-23T14:39:30Z</time>
      </trkpt>
      <trkpt lat="50.044221030548215" lon="-5.221846969798207">
        <ele>65.510000000000005</ele>
        <time>2026-06-23T14:39:34Z</time>
      </trkpt>
      <trkpt lat="50.043591968715191" lon="-5.221198964864016">
        <ele>65.030000000000001</ele>
        <time>2026-06-23T14:39:40Z</time>
      </trkpt>
      <trkpt lat="50.043145967647433" lon="-5.220481976866722">
        <ele>61.659999999999997</ele>
        <time>2026-06-23T14:39:45Z</time>
      </trkpt>
      <trkpt lat="50.04300800152123" lon="-5.22017695941031">
        <ele>58.780000000000001</ele>
        <time>2026-06-23T14:39:47Z</time>
      </trkpt>
      <trkpt lat="50.042963996529579" lon="-5.220028012990952">
        <ele>57.340000000000003</ele>
        <time>2026-06-23T14:39:48Z</time>
      </trkpt>
      <trkpt lat="50.042919991537929" lon="-5.219883006066084">
        <ele>55.890000000000001</ele>
        <time>2026-06-23T14:39:49Z</time>
      </trkpt>
      <trkpt lat="50.042874980717897" lon="-5.219730958342552">
        <ele>53.490000000000002</ele>
        <time>2026-06-23T14:39:50Z</time>
      </trkpt>
      <trkpt lat="50.042824018746614" lon="-5.219559967517853">
        <ele>51.57</ele>
        <time>2026-06-23T14:39:51Z</time>
      </trkpt>
      <trkpt lat="50.042757969349623" lon="-5.219468018040061">
        <ele>49.649999999999999</ele>
        <time>2026-06-23T14:39:52Z</time>
      </trkpt>
      <trkpt lat="50.042668031528592" lon="-5.219389982521534">
        <ele>47.719999999999999</ele>
        <time>2026-06-23T14:39:53Z</time>
      </trkpt>
      <trkpt lat="50.042572980746627" lon="-5.219308007508516">
        <ele>46.280000000000001</ele>
        <time>2026-06-23T14:39:54Z</time>
      </trkpt>
      <trkpt lat="50.042488994076848" lon="-5.219235001131892">
        <ele>44.359999999999999</ele>
        <time>2026-06-23T14:39:55Z</time>
      </trkpt>
      <trkpt lat="50.042417999356985" lon="-5.219256961718202">
        <ele>42.920000000000002</ele>
        <time>2026-06-23T14:39:56Z</time>
      </trkpt>
      <trkpt lat="50.04232102073729" lon="-5.219285963103175">
        <ele>42.439999999999998</ele>
        <time>2026-06-23T14:39:57Z</time>
      </trkpt>
      <trkpt lat="50.042232004925609" lon="-5.219313036650419">
        <ele>41.950000000000003</ele>
        <time>2026-06-23T14:39:58Z</time>
      </trkpt>
      <trkpt lat="50.042152041569352" lon="-5.219336003065109">
        <ele>41.469999999999999</ele>
        <time>2026-06-23T14:39:59Z</time>
      </trkpt>
      <trkpt lat="50.04197996109724" lon="-5.219387970864773">
        <ele>40.509999999999998</ele>
        <time>2026-06-23T14:40:01Z</time>
      </trkpt>
      <trkpt lat="50.041873008012772" lon="-5.219419989734888">
        <ele>40.030000000000001</ele>
        <time>2026-06-23T14:40:02Z</time>
      </trkpt>
      <trkpt lat="50.041759014129639" lon="-5.219430970028043">
        <ele>40.030000000000001</ele>
        <time>2026-06-23T14:40:03Z</time>
      </trkpt>
      <trkpt lat="50.041274959221482" lon="-5.2194469794631">
        <ele>39.549999999999997</ele>
        <time>2026-06-23T14:40:07Z</time>
      </trkpt>
      <trkpt lat="50.041159959509969" lon="-5.219459971413016">
        <ele>39.549999999999997</ele>
        <time>2026-06-23T14:40:08Z</time>
      </trkpt>
      <trkpt lat="50.041061975061893" lon="-5.21950900554657">
        <ele>39.549999999999997</ele>
        <time>2026-06-23T14:40:09Z</time>
      </trkpt>
      <trkpt lat="50.040972037240863" lon="-5.219586035236716">
        <ele>39.549999999999997</ele>
        <time>2026-06-23T14:40:10Z</time>
      </trkpt>
      <trkpt lat="50.04090397618711" lon="-5.219678990542889">
        <ele>39.549999999999997</ele>
        <time>2026-06-23T14:40:11Z</time>
      </trkpt>
      <trkpt lat="50.040830969810486" lon="-5.21979097276926">
        <ele>39.07</ele>
        <time>2026-06-23T14:40:12Z</time>
      </trkpt>
      <trkpt lat="50.040781013667583" lon="-5.21994000300765">
        <ele>39.07</ele>
        <time>2026-06-23T14:40:13Z</time>
      </trkpt>
      <trkpt lat="50.040728962048888" lon="-5.220096996054053">
        <ele>39.07</ele>
        <time>2026-06-23T14:40:14Z</time>
      </trkpt>
      <trkpt lat="50.040672970935702" lon="-5.220264969393611">
        <ele>40.030000000000001</ele>
        <time>2026-06-23T14:40:15Z</time>
      </trkpt>
      <trkpt lat="50.040556965395808" lon="-5.220517013221979">
        <ele>41.950000000000003</ele>
        <time>2026-06-23T14:40:17Z</time>
      </trkpt>
      <trkpt lat="50.040471972897649" lon="-5.220587002113462">
        <ele>43.399999999999999</ele>
        <time>2026-06-23T14:40:18Z</time>
      </trkpt>
      <trkpt lat="50.040409024804831" lon="-5.22056202404201">
        <ele>44.359999999999999</ele>
        <time>2026-06-23T14:40:19Z</time>
      </trkpt>
      <trkpt lat="50.04032202064991" lon="-5.220504021272063">
        <ele>45.799999999999997</ele>
        <time>2026-06-23T14:40:20Z</time>
      </trkpt>
      <trkpt lat="50.040237028151751" lon="-5.220422968268395">
        <ele>47.240000000000002</ele>
        <time>2026-06-23T14:40:21Z</time>
      </trkpt>
      <trkpt lat="50.040133008733392" lon="-5.220324983820319">
        <ele>47.719999999999999</ele>
        <time>2026-06-23T14:40:22Z</time>
      </trkpt>
      <trkpt lat="50.04002102650702" lon="-5.22021803073585">
        <ele>48.200000000000003</ele>
        <time>2026-06-23T14:40:23Z</time>
      </trkpt>
      <trkpt lat="50.039908960461617" lon="-5.22013396024704">
        <ele>48.68</ele>
        <time>2026-06-23T14:40:24Z</time>
      </trkpt>
      <trkpt lat="50.039780968800187" lon="-5.220120968297124">
        <ele>49.649999999999999</ele>
        <time>2026-06-23T14:40:25Z</time>
      </trkpt>
      <trkpt lat="50.039653982967138" lon="-5.220108982175589">
        <ele>50.609999999999999</ele>
        <time>2026-06-23T14:40:26Z</time>
      </trkpt>
      <trkpt lat="50.039534037932754" lon="-5.220096996054053">
        <ele>51.090000000000003</ele>
        <time>2026-06-23T14:40:27Z</time>
      </trkpt>
      <trkpt lat="50.039413003250957" lon="-5.220085009932518">
        <ele>52.049999999999997</ele>
        <time>2026-06-23T14:40:28Z</time>
      </trkpt>
      <trkpt lat="50.03929196856916" lon="-5.220072017982602">
        <ele>53.009999999999998</ele>
        <time>2026-06-23T14:40:29Z</time>
      </trkpt>
      <trkpt lat="50.039175963029265" lon="-5.220023989677429">
        <ele>53.969999999999999</ele>
        <time>2026-06-23T14:40:30Z</time>
      </trkpt>
      <trkpt lat="50.039061969146132" lon="-5.219975961372256">
        <ele>54.93</ele>
        <time>2026-06-23T14:40:31Z</time>
      </trkpt>
      <trkpt lat="50.038945963606238" lon="-5.219928016886115">
        <ele>55.890000000000001</ele>
        <time>2026-06-23T14:40:32Z</time>
      </trkpt>
      <trkpt lat="50.038823001086712" lon="-5.2198769710958">
        <ele>56.859999999999999</ele>
        <time>2026-06-23T14:40:33Z</time>
      </trkpt>
      <trkpt lat="50.038695009425282" lon="-5.219837995246053">
        <ele>57.82</ele>
        <time>2026-06-23T14:40:34Z</time>
      </trkpt>
      <trkpt lat="50.038566011935472" lon="-5.219806982204318">
        <ele>59.259999999999998</ele>
        <time>2026-06-23T14:40:35Z</time>
      </trkpt>
      <trkpt lat="50.03843299113214" lon="-5.219774963334203">
        <ele>60.700000000000003</ele>
        <time>2026-06-23T14:40:36Z</time>
      </trkpt>
      <trkpt lat="50.038297036662698" lon="-5.219743028283119">
        <ele>61.659999999999997</ele>
        <time>2026-06-23T14:40:37Z</time>
      </trkpt>
      <trkpt lat="50.037172017619014" lon="-5.219111032783985">
        <ele>71.269999999999996</ele>
        <time>2026-06-23T14:40:46Z</time>
      </trkpt>
      <trkpt lat="50.036514038220048" lon="-5.218849014490843">
        <ele>75.120000000000005</ele>
        <time>2026-06-23T14:40:53Z</time>
      </trkpt>
      <trkpt lat="50.035659000277519" lon="-5.218699984252453">
        <ele>76.079999999999998</ele>
        <time>2026-06-23T14:40:59Z</time>
      </trkpt>
      <trkpt lat="50.034360978752375" lon="-5.218507032841444">
        <ele>71.269999999999996</ele>
        <time>2026-06-23T14:41:07Z</time>
      </trkpt>
      <trkpt lat="50.032979976385832" lon="-5.218144012615085">
        <ele>67.430000000000007</ele>
        <time>2026-06-23T14:41:15Z</time>
      </trkpt>
      <trkpt lat="50.032823989167809" lon="-5.218082992359996">
        <ele>67.430000000000007</ele>
        <time>2026-06-23T14:41:16Z</time>
      </trkpt>
      <trkpt lat="50.03179301507771" lon="-5.217671021819115">
        <ele>68.870000000000005</ele>
        <time>2026-06-23T14:41:22Z</time>
      </trkpt>
      <trkpt lat="50.031625963747501" lon="-5.217567002400756">
        <ele>69.349999999999994</ele>
        <time>2026-06-23T14:41:23Z</time>
      </trkpt>
      <trkpt lat="50.030201962217689" lon="-5.216957973316312">
        <ele>75.599999999999994</ele>
        <time>2026-06-23T14:41:31Z</time>
      </trkpt>
      <trkpt lat="50.028964038938284" lon="-5.216362020000815">
        <ele>79.450000000000003</ele>
        <time>2026-06-23T14:41:38Z</time>
      </trkpt>
      <trkpt lat="50.026911981403828" lon="-5.215854998677969">
        <ele>82.810000000000002</ele>
        <time>2026-06-23T14:41:49Z</time>
      </trkpt>
      <trkpt lat="50.025057988241315" lon="-5.215460965409875">
        <ele>85.689999999999998</ele>
        <time>2026-06-23T14:41:59Z</time>
      </trkpt>
      <trkpt lat="50.023443968966603" lon="-5.215117977932096">
        <ele>86.659999999999997</ele>
        <time>2026-06-23T14:42:08Z</time>
      </trkpt>
      <trkpt lat="50.023267026990652" lon="-5.215130969882011">
        <ele>86.659999999999997</ele>
        <time>2026-06-23T14:42:09Z</time>
      </trkpt>
      <trkpt lat="50.02309201285243" lon="-5.215146979317069">
        <ele>86.659999999999997</ele>
        <time>2026-06-23T14:42:10Z</time>
      </trkpt>
      <trkpt lat="50.022922027856112" lon="-5.215173969045281">
        <ele>86.659999999999997</ele>
        <time>2026-06-23T14:42:11Z</time>
      </trkpt>
      <trkpt lat="50.022071013227105" lon="-5.215459037572146">
        <ele>87.140000000000001</ele>
        <time>2026-06-23T14:42:17Z</time>
      </trkpt>
      <trkpt lat="50.021937992423773" lon="-5.215431964024901">
        <ele>87.620000000000005</ele>
        <time>2026-06-23T14:42:18Z</time>
      </trkpt>
      <trkpt lat="50.021810000762343" lon="-5.215398017317057">
        <ele>87.140000000000001</ele>
        <time>2026-06-23T14:42:19Z</time>
      </trkpt>
      <trkpt lat="50.021679997444153" lon="-5.215356023982167">
        <ele>86.659999999999997</ele>
        <time>2026-06-23T14:42:20Z</time>
      </trkpt>
      <trkpt lat="50.021549994125962" lon="-5.21529802121222">
        <ele>86.659999999999997</ele>
        <time>2026-06-23T14:42:21Z</time>
      </trkpt>
      <trkpt lat="50.021146992221475" lon="-5.215119989588857">
        <ele>85.689999999999998</ele>
        <time>2026-06-23T14:42:24Z</time>
      </trkpt>
      <trkpt lat="50.021006008610129" lon="-5.215094005689025">
        <ele>85.689999999999998</ele>
        <time>2026-06-23T14:42:25Z</time>
      </trkpt>
      <trkpt lat="50.020864019170403" lon="-5.215076990425587">
        <ele>85.689999999999998</ele>
        <time>2026-06-23T14:42:26Z</time>
      </trkpt>
      <trkpt lat="50.020715994760394" lon="-5.215115966275334">
        <ele>85.209999999999994</ele>
        <time>2026-06-23T14:42:27Z</time>
      </trkpt>
      <trkpt lat="50.020560007542372" lon="-5.215156031772494">
        <ele>85.209999999999994</ele>
        <time>2026-06-23T14:42:28Z</time>
      </trkpt>
      <trkpt lat="50.019381009042263" lon="-5.215416960418224">
        <ele>83.769999999999996</ele>
        <time>2026-06-23T14:42:35Z</time>
      </trkpt>
      <trkpt lat="50.018788995221257" lon="-5.215479992330074">
        <ele>84.25</ele>
        <time>2026-06-23T14:42:39Z</time>
      </trkpt>
      <trkpt lat="50.018649017438293" lon="-5.215444033965468">
        <ele>84.730000000000004</ele>
        <time>2026-06-23T14:42:40Z</time>
      </trkpt>
      <trkpt lat="50.01849596388638" lon="-5.215379996225238">
        <ele>85.209999999999994</ele>
        <time>2026-06-23T14:42:41Z</time>
      </trkpt>
      <trkpt lat="50.017982991412282" lon="-5.215135999023914">
        <ele>85.689999999999998</ele>
        <time>2026-06-23T14:42:44Z</time>
      </trkpt>
      <trkpt lat="50.017814012244344" lon="-5.21512602455914">
        <ele>86.180000000000007</ele>
        <time>2026-06-23T14:42:45Z</time>
      </trkpt>
      <trkpt lat="50.017641009762883" lon="-5.215115966275334">
        <ele>86.659999999999997</ele>
        <time>2026-06-23T14:42:46Z</time>
      </trkpt>
      <trkpt lat="50.017475970089436" lon="-5.215172963216901">
        <ele>87.140000000000001</ele>
        <time>2026-06-23T14:42:47Z</time>
      </trkpt>
      <trkpt lat="50.017301961779594" lon="-5.21523398347199">
        <ele>87.620000000000005</ele>
        <time>2026-06-23T14:42:48Z</time>
      </trkpt>
      <trkpt lat="50.017120996490121" lon="-5.21529802121222">
        <ele>88.099999999999994</ele>
        <time>2026-06-23T14:42:49Z</time>
      </trkpt>
      <trkpt lat="50.015699006617069" lon="-5.215669004246593">
        <ele>88.579999999999998</ele>
        <time>2026-06-23T14:42:57Z</time>
      </trkpt>
      <trkpt lat="50.013922965154052" lon="-5.216247020289302">
        <ele>84.730000000000004</ele>
        <time>2026-06-23T14:43:07Z</time>
      </trkpt>
      <trkpt lat="50.013404963538051" lon="-5.21637199446559">
        <ele>83.769999999999996</ele>
        <time>2026-06-23T14:43:10Z</time>
      </trkpt>
      <trkpt lat="50.012124963104725" lon="-5.216529993340373">
        <ele>85.689999999999998</ele>
        <time>2026-06-23T14:43:17Z</time>
      </trkpt>
      <trkpt lat="50.010643964633346" lon="-5.216422034427524">
        <ele>90.019999999999996</ele>
        <time>2026-06-23T14:43:25Z</time>
      </trkpt>
      <trkpt lat="50.008778991177678" lon="-5.215732036158443">
        <ele>92.420000000000002</ele>
        <time>2026-06-23T14:43:35Z</time>
      </trkpt>
      <trkpt lat="50.006949976086617" lon="-5.215287040919066">
        <ele>93.390000000000001</ele>
        <time>2026-06-23T14:43:45Z</time>
      </trkpt>
      <trkpt lat="50.005767038092017" lon="-5.215055029839277">
        <ele>92.420000000000002</ele>
        <time>2026-06-23T14:43:52Z</time>
      </trkpt>
      <trkpt lat="50.004003988578916" lon="-5.214686980471015">
        <ele>93.390000000000001</ele>
        <time>2026-06-23T14:44:02Z</time>
      </trkpt>
      <trkpt lat="50.00209903344512" lon="-5.214251959696412">
        <ele>91.939999999999998</ele>
        <time>2026-06-23T14:44:12Z</time>
      </trkpt>
      <trkpt lat="50.000477973371744" lon="-5.213680984452367">
        <ele>90.5</ele>
        <time>2026-06-23T14:44:20Z</time>
      </trkpt>
      <trkpt lat="49.998872000724077" lon="-5.212791999801993">
        <ele>90.980000000000004</ele>
        <time>2026-06-23T14:44:29Z</time>
      </trkpt>
      <trkpt lat="49.99668700620532" lon="-5.211617024615407">
        <ele>91.939999999999998</ele>
        <time>2026-06-23T14:44:40Z</time>
      </trkpt>
      <trkpt lat="49.995829034596682" lon="-5.211124001070857">
        <ele>90.5</ele>
        <time>2026-06-23T14:44:46Z</time>
      </trkpt>
      <trkpt lat="49.994908031076193" lon="-5.210598036646843">
        <ele>89.540000000000006</ele>
        <time>2026-06-23T14:44:53Z</time>
      </trkpt>
      <trkpt lat="49.993108017370105" lon="-5.209592962637544">
        <ele>87.620000000000005</ele>
        <time>2026-06-23T14:45:04Z</time>
      </trkpt>
      <trkpt lat="49.991844026371837" lon="-5.209330022335053">
        <ele>84.730000000000004</ele>
        <time>2026-06-23T14:45:11Z</time>
      </trkpt>
      <trkpt lat="49.989706976339221" lon="-5.209146039560437">
        <ele>82.810000000000002</ele>
        <time>2026-06-23T14:45:21Z</time>
      </trkpt>
      <trkpt lat="49.987650979310274" lon="-5.209318958222866">
        <ele>81.849999999999994</ele>
        <time>2026-06-23T14:45:31Z</time>
      </trkpt>
      <trkpt lat="49.986060010269284" lon="-5.209467988461256">
        <ele>80.409999999999997</ele>
        <time>2026-06-23T14:45:40Z</time>
      </trkpt>
      <trkpt lat="49.983910974115133" lon="-5.209378972649574">
        <ele>80.409999999999997</ele>
        <time>2026-06-23T14:45:50Z</time>
      </trkpt>
      <trkpt lat="49.98246300034225" lon="-5.208972031250596">
        <ele>79.930000000000007</ele>
        <time>2026-06-23T14:45:57Z</time>
      </trkpt>
      <trkpt lat="49.981212001293898" lon="-5.208593001589179">
        <ele>78.480000000000004</ele>
        <time>2026-06-23T14:46:04Z</time>
      </trkpt>
      <trkpt lat="49.98087496496737" lon="-5.208398038521409">
        <ele>78</ele>
        <time>2026-06-23T14:46:06Z</time>
      </trkpt>
      <trkpt lat="49.979250971227884" lon="-5.207136981189251">
        <ele>78.969999999999999</ele>
        <time>2026-06-23T14:46:16Z</time>
      </trkpt>
      <trkpt lat="49.977940963581204" lon="-5.205987989902496">
        <ele>78.969999999999999</ele>
        <time>2026-06-23T14:46:24Z</time>
      </trkpt>
      <trkpt lat="49.977770978584886" lon="-5.205871984362602">
        <ele>78.969999999999999</ele>
        <time>2026-06-23T14:46:25Z</time>
      </trkpt>
      <trkpt lat="49.976123012602329" lon="-5.204827012494206">
        <ele>79.450000000000003</ele>
        <time>2026-06-23T14:46:34Z</time>
      </trkpt>
      <trkpt lat="49.974646959453821" lon="-5.203983960673213">
        <ele>79.930000000000007</ele>
        <time>2026-06-23T14:46:43Z</time>
      </trkpt>
      <trkpt lat="49.973294036462903" lon="-5.203733006492257">
        <ele>80.890000000000001</ele>
        <time>2026-06-23T14:46:51Z</time>
      </trkpt>
      <trkpt lat="49.972520973533392" lon="-5.203661005944014">
        <ele>81.370000000000005</ele>
        <time>2026-06-23T14:46:58Z</time>
      </trkpt>
      <trkpt lat="49.971550013870001" lon="-5.20358900539577">
        <ele>83.290000000000006</ele>
        <time>2026-06-23T14:47:10Z</time>
      </trkpt>
      <trkpt lat="49.970719031989574" lon="-5.2035650331527">
        <ele>81.370000000000005</ele>
        <time>2026-06-23T14:47:20Z</time>
      </trkpt>
      <trkpt lat="49.96985100209713" lon="-5.203643990680575">
        <ele>80.890000000000001</ele>
        <time>2026-06-23T14:47:31Z</time>
      </trkpt>
      <trkpt lat="49.969558976590633" lon="-5.203667962923646">
        <ele>81.370000000000005</ele>
        <time>2026-06-23T14:47:36Z</time>
      </trkpt>
      <trkpt lat="49.969520000740886" lon="-5.203669974580407">
        <ele>81.370000000000005</ele>
        <time>2026-06-23T14:47:37Z</time>
      </trkpt>
      <trkpt lat="49.969489993527532" lon="-5.203670980408788">
        <ele>81.849999999999994</ele>
        <time>2026-06-23T14:47:38Z</time>
      </trkpt>
      <trkpt lat="49.969470966607332" lon="-5.203671986237168">
        <ele>82.329999999999998</ele>
        <time>2026-06-23T14:47:39Z</time>
      </trkpt>
      <trkpt lat="49.969450011849403" lon="-5.203672992065549">
        <ele>82.810000000000002</ele>
        <time>2026-06-23T14:47:40Z</time>
      </trkpt>
      <trkpt lat="49.969417992979288" lon="-5.20367500372231">
        <ele>82.810000000000002</ele>
        <time>2026-06-23T14:47:41Z</time>
      </trkpt>
      <trkpt lat="49.96931598521769" lon="-5.203676009550691">
        <ele>82.810000000000002</ele>
        <time>2026-06-23T14:47:43Z</time>
      </trkpt>
      <trkpt lat="49.969209032133222" lon="-5.203664023429155">
        <ele>83.290000000000006</ele>
        <time>2026-06-23T14:47:45Z</time>
      </trkpt>
      <trkpt lat="49.968838971108198" lon="-5.203621024265885">
        <ele>81.849999999999994</ele>
        <time>2026-06-23T14:47:54Z</time>
      </trkpt>
      <trkpt lat="49.968534959480166" lon="-5.203510969877243">
        <ele>81.370000000000005</ele>
        <time>2026-06-23T14:47:59Z</time>
      </trkpt>
      <trkpt lat="49.96806800365448" lon="-5.203593028709292">
        <ele>79.450000000000003</ele>
        <time>2026-06-23T14:48:07Z</time>
      </trkpt>
      <trkpt lat="49.968003965914249" lon="-5.203613983467221">
        <ele>78.969999999999999</ele>
        <time>2026-06-23T14:48:08Z</time>
      </trkpt>
      <trkpt lat="49.967936994507909" lon="-5.203635022044182">
        <ele>78.480000000000004</ele>
        <time>2026-06-23T14:48:09Z</time>
      </trkpt>
      <trkpt lat="49.967547990381718" lon="-5.203774999827147">
        <ele>77.519999999999996</ele>
        <time>2026-06-23T14:48:15Z</time>
      </trkpt>
      <trkpt lat="49.967486970126629" lon="-5.203808024525642">
        <ele>77.519999999999996</ele>
        <time>2026-06-23T14:48:16Z</time>
      </trkpt>
      <trkpt lat="49.967417987063527" lon="-5.203812969848514">
        <ele>77.519999999999996</ele>
        <time>2026-06-23T14:48:17Z</time>
      </trkpt>
      <trkpt lat="49.967286977916956" lon="-5.20382302813232">
        <ele>77.519999999999996</ele>
        <time>2026-06-23T14:48:19Z</time>
      </trkpt>
      <trkpt lat="49.967211959883571" lon="-5.203822022303939">
        <ele>78</ele>
        <time>2026-06-23T14:48:20Z</time>
      </trkpt>
      <trkpt lat="49.967172984033823" lon="-5.203743986785412">
        <ele>78</ele>
        <time>2026-06-23T14:48:21Z</time>
      </trkpt>
      <trkpt lat="49.967129984870553" lon="-5.203657988458872">
        <ele>78</ele>
        <time>2026-06-23T14:48:22Z</time>
      </trkpt>
      <trkpt lat="49.967080028727651" lon="-5.203581964597106">
        <ele>78</ele>
        <time>2026-06-23T14:48:23Z</time>
      </trkpt>
      <trkpt lat="49.967029988765717" lon="-5.203507030382752">
        <ele>78</ele>
        <time>2026-06-23T14:48:24Z</time>
      </trkpt>
      <trkpt lat="49.966979026794434" lon="-5.203431006520987">
        <ele>77.519999999999996</ele>
        <time>2026-06-23T14:48:25Z</time>
      </trkpt>
      <trkpt lat="49.966917000710964" lon="-5.203382978215814">
        <ele>77.040000000000006</ele>
        <time>2026-06-23T14:48:26Z</time>
      </trkpt>
      <trkpt lat="49.96684298850596" lon="-5.203351965174079">
        <ele>76.079999999999998</ele>
        <time>2026-06-23T14:48:27Z</time>
      </trkpt>
      <trkpt lat="49.966763025149703" lon="-5.203319024294615">
        <ele>75.599999999999994</ele>
        <time>2026-06-23T14:48:28Z</time>
      </trkpt>
      <trkpt lat="49.966104961931705" lon="-5.203081984072924">
        <ele>72.239999999999995</ele>
        <time>2026-06-23T14:48:36Z</time>
      </trkpt>
      <trkpt lat="49.966008989140391" lon="-5.203088019043207">
        <ele>72.239999999999995</ele>
        <time>2026-06-23T14:48:37Z</time>
      </trkpt>
      <trkpt lat="49.965906981378794" lon="-5.203093970194459">
        <ele>71.760000000000005</ele>
        <time>2026-06-23T14:48:38Z</time>
      </trkpt>
      <trkpt lat="49.965810002759099" lon="-5.203104028478265">
        <ele>71.760000000000005</ele>
        <time>2026-06-23T14:48:39Z</time>
      </trkpt>
      <trkpt lat="49.965701038017869" lon="-5.203154990449548">
        <ele>71.269999999999996</ele>
        <time>2026-06-23T14:48:40Z</time>
      </trkpt>
      <trkpt lat="49.965592995285988" lon="-5.203205030411482">
        <ele>71.269999999999996</ele>
        <time>2026-06-23T14:48:41Z</time>
      </trkpt>
      <trkpt lat="49.964834013953805" lon="-5.203507030382752">
        <ele>67.909999999999997</ele>
        <time>2026-06-23T14:48:50Z</time>
      </trkpt>
      <trkpt lat="49.964102022349834" lon="-5.203474005684257">
        <ele>68.390000000000001</ele>
        <time>2026-06-23T14:49:01Z</time>
      </trkpt>
      <trkpt lat="49.96370698325336" lon="-5.203486997634172">
        <ele>68.390000000000001</ele>
        <time>2026-06-23T14:49:07Z</time>
      </trkpt>
      <trkpt lat="49.963430967181921" lon="-5.20354500040412">
        <ele>68.870000000000005</ele>
        <time>2026-06-23T14:49:16Z</time>
      </trkpt>
      <trkpt lat="49.963396014645696" lon="-5.203556986525655">
        <ele>68.870000000000005</ele>
        <time>2026-06-23T14:49:17Z</time>
      </trkpt>
      <trkpt lat="49.963353015482426" lon="-5.203570984303951">
        <ele>68.870000000000005</ele>
        <time>2026-06-23T14:49:18Z</time>
      </trkpt>
      <trkpt lat="49.963024025782943" lon="-5.203868038952351">
        <ele>68.390000000000001</ele>
        <time>2026-06-23T14:49:24Z</time>
      </trkpt>
      <trkpt lat="49.962978009134531" lon="-5.203909026458859">
        <ele>67.909999999999997</ele>
        <time>2026-06-23T14:49:25Z</time>
      </trkpt>
      <trkpt lat="49.962811963632703" lon="-5.204058978706598">
        <ele>66.950000000000003</ele>
        <time>2026-06-23T14:49:33Z</time>
      </trkpt>
      <trkpt lat="49.962690006941557" lon="-5.204173978418112">
        <ele>65.989999999999995</ele>
        <time>2026-06-23T14:49:46Z</time>
      </trkpt>
      <trkpt lat="49.962282981723547" lon="-5.204629031941295">
        <ele>62.140000000000001</ele>
        <time>2026-06-23T14:49:55Z</time>
      </trkpt>
      <trkpt lat="49.962264038622379" lon="-5.204644035547972">
        <ele>60.219999999999999</ele>
        <time>2026-06-23T14:50:04Z</time>
      </trkpt>
      <trkpt lat="49.962227996438742" lon="-5.204860037192702">
        <ele>57.340000000000003</ele>
        <time>2026-06-23T14:50:12Z</time>
      </trkpt>
      <trkpt lat="49.962235959246755" lon="-5.204895995557308">
        <ele>56.859999999999999</ele>
        <time>2026-06-23T14:50:13Z</time>
      </trkpt>
      <trkpt lat="49.962287005037069" lon="-5.204957015812397">
        <ele>55.409999999999997</ele>
        <time>2026-06-23T14:50:26Z</time>
      </trkpt>
      <trkpt lat="49.962287005037069" lon="-5.204957015812397">
        <ele>55.409999999999997</ele>
        <time>2026-06-23T14:50:57Z</time>
      </trkpt>
      <trkpt lat="49.962183991447091" lon="-5.205009989440441">
        <ele>53.969999999999999</ele>
        <time>2026-06-23T14:51:06Z</time>
      </trkpt>
      <trkpt lat="49.962198995053768" lon="-5.204694997519255">
        <ele>53.969999999999999</ele>
        <time>2026-06-23T14:51:10Z</time>
      </trkpt>
      <trkpt lat="49.962302008643746" lon="-5.204614028334618">
        <ele>53.969999999999999</ele>
        <time>2026-06-23T14:51:14Z</time>
      </trkpt>
      <trkpt lat="49.962356993928552" lon="-5.204566000029445">
        <ele>53.969999999999999</ele>
        <time>2026-06-23T14:51:15Z</time>
      </trkpt>
      <trkpt lat="49.96248297393322" lon="-5.204415963962674">
        <ele>53.969999999999999</ele>
        <time>2026-06-23T14:51:17Z</time>
      </trkpt>
      <trkpt lat="49.962624041363597" lon="-5.204251008108258">
        <ele>54.93</ele>
        <time>2026-06-23T14:51:19Z</time>
      </trkpt>
      <trkpt lat="49.962787991389632" lon="-5.204080017283559">
        <ele>58.299999999999997</ele>
        <time>2026-06-23T14:51:23Z</time>
      </trkpt>
      <trkpt lat="49.962692018598318" lon="-5.204112958163023">
        <ele>58.780000000000001</ele>
        <time>2026-06-23T14:51:24Z</time>
      </trkpt>
      <trkpt lat="49.962682966142893" lon="-5.204093009233475">
        <ele>59.740000000000002</ele>
        <time>2026-06-23T14:51:25Z</time>
      </trkpt>
      <trkpt lat="49.962665028870106" lon="-5.204053027555347">
        <ele>60.700000000000003</ele>
        <time>2026-06-23T14:51:26Z</time>
      </trkpt>
      <trkpt lat="49.96263300999999" lon="-5.203984966501594">
        <ele>61.18</ele>
        <time>2026-06-23T14:51:27Z</time>
      </trkpt>
      <trkpt lat="49.962225984781981" lon="-5.203101010993123">
        <ele>63.100000000000001</ele>
        <time>2026-06-23T14:51:33Z</time>
      </trkpt>
      <trkpt lat="49.96203001588583" lon="-5.202674036845565">
        <ele>63.579999999999998</ele>
        <time>2026-06-23T14:51:36Z</time>
      </trkpt>
      <trkpt lat="49.961997997015715" lon="-5.202605975791812">
        <ele>63.579999999999998</ele>
        <time>2026-06-23T14:51:37Z</time>
      </trkpt>
      <trkpt lat="49.961925996467471" lon="-5.202555013820529">
        <ele>64.069999999999993</ele>
        <time>2026-06-23T14:51:38Z</time>
      </trkpt>
      <trkpt lat="49.961891965940595" lon="-5.202593989670277">
        <ele>64.069999999999993</ele>
        <time>2026-06-23T14:51:39Z</time>
      </trkpt>
      <trkpt lat="49.961847960948944" lon="-5.20264201797545">
        <ele>64.069999999999993</ele>
        <time>2026-06-23T14:51:40Z</time>
      </trkpt>
      <trkpt lat="49.961795993149281" lon="-5.202700020745397">
        <ele>64.069999999999993</ele>
        <time>2026-06-23T14:51:41Z</time>
      </trkpt>
      <trkpt lat="49.961733967065811" lon="-5.202769003808498">
        <ele>64.069999999999993</ele>
        <time>2026-06-23T14:51:42Z</time>
      </trkpt>
      <trkpt lat="49.961591977626085" lon="-5.202925996854901">
        <ele>64.069999999999993</ele>
        <time>2026-06-23T14:51:44Z</time>
      </trkpt>
      <trkpt lat="49.961370024830103" lon="-5.203172005712986">
        <ele>64.549999999999997</ele>
        <time>2026-06-23T14:51:47Z</time>
      </trkpt>
      <trkpt lat="49.960899967700243" lon="-5.203881030902267">
        <ele>61.659999999999997</ele>
        <time>2026-06-23T14:51:55Z</time>
      </trkpt>
      <trkpt lat="49.960812041535974" lon="-5.204012962058187">
        <ele>58.780000000000001</ele>
        <time>2026-06-23T14:52:01Z</time>
      </trkpt>
      <trkpt lat="49.960807012394071" lon="-5.204217983409762">
        <ele>54.93</ele>
        <time>2026-06-23T14:52:13Z</time>
      </trkpt>
      <trkpt lat="49.960807012394071" lon="-5.204217983409762">
        <ele>54.93</ele>
        <time>2026-06-23T14:52:44Z</time>
      </trkpt>
      <trkpt lat="49.960807012394071" lon="-5.204217983409762">
        <ele>54.93</ele>
        <time>2026-06-23T14:53:31Z</time>
      </trkpt>
      <trkpt lat="49.960807012394071" lon="-5.204217983409762">
        <ele>54.93</ele>
        <time>2026-06-23T14:54:25Z</time>
      </trkpt>
      <trkpt lat="49.960807012394071" lon="-5.204217983409762">
        <ele>54.93</ele>
        <time>2026-06-23T14:55:17Z</time>
      </trkpt>
      <trkpt lat="49.960807012394071" lon="-5.204217983409762">
        <ele>54.93</ele>
        <time>2026-06-23T14:56:19Z</time>
      </trkpt>
      <trkpt lat="49.960807012394071" lon="-5.204217983409762">
        <ele>54.93</ele>
        <time>2026-06-23T14:57:14Z</time>
      </trkpt>
      <trkpt lat="49.960807012394071" lon="-5.204217983409762">
        <ele>55.409999999999997</ele>
        <time>2026-06-23T14:58:09Z</time>
      </trkpt>
      <trkpt lat="49.960807012394071" lon="-5.204217983409762">
        <ele>55.890000000000001</ele>
        <time>2026-06-23T14:59:04Z</time>
      </trkpt>
      <trkpt lat="49.960821010172367" lon="-5.204242039471865">
        <ele>56.369999999999997</ele>
        <time>2026-06-23T15:12:17Z</time>
      </trkpt>
      <trkpt lat="49.960827967151999" lon="-5.204222006723285">
        <ele>58.780000000000001</ele>
        <time>2026-06-23T15:12:55Z</time>
      </trkpt>
      <trkpt lat="49.960844982415438" lon="-5.204204991459847">
        <ele>55.409999999999997</ele>
        <time>2026-06-23T15:13:46Z</time>
      </trkpt>
      <trkpt lat="49.960814975202084" lon="-5.204228041693568">
        <ele>56.369999999999997</ele>
        <time>2026-06-23T15:14:41Z</time>
      </trkpt>
      <trkpt lat="49.960818998515606" lon="-5.204228041693568">
        <ele>56.369999999999997</ele>
        <time>2026-06-23T15:15:34Z</time>
      </trkpt>
      <trkpt lat="49.960817992687225" lon="-5.204226030036807">
        <ele>56.859999999999999</ele>
        <time>2026-06-23T15:16:26Z</time>
      </trkpt>
      <trkpt lat="49.960821010172367" lon="-5.204224018380046">
        <ele>56.859999999999999</ele>
        <time>2026-06-23T15:17:24Z</time>
      </trkpt>
      <trkpt lat="49.960825033485889" lon="-5.204227035865188">
        <ele>57.340000000000003</ele>
        <time>2026-06-23T15:18:21Z</time>
      </trkpt>
      <trkpt lat="49.960827967151999" lon="-5.204230975359678">
        <ele>57.82</ele>
        <time>2026-06-23T15:20:28Z</time>
      </trkpt>
      <trkpt lat="49.960827967151999" lon="-5.204228041693568">
        <ele>58.299999999999997</ele>
        <time>2026-06-23T15:21:22Z</time>
      </trkpt>
      <trkpt lat="49.960823021829128" lon="-5.204229969531298">
        <ele>58.780000000000001</ele>
        <time>2026-06-23T15:22:22Z</time>
      </trkpt>
      <trkpt lat="49.960822016000748" lon="-5.204229969531298">
        <ele>58.780000000000001</ele>
        <time>2026-06-23T15:23:22Z</time>
      </trkpt>
      <trkpt lat="49.960824027657509" lon="-5.204228963702917">
        <ele>59.259999999999998</ele>
        <time>2026-06-23T15:24:12Z</time>
      </trkpt>
      <trkpt lat="49.960827967151999" lon="-5.204224018380046">
        <ele>58.780000000000001</ele>
        <time>2026-06-23T15:24:54Z</time>
      </trkpt>
      <trkpt lat="49.960830984637141" lon="-5.204224018380046">
        <ele>58.780000000000001</ele>
        <time>2026-06-23T15:25:47Z</time>
      </trkpt>
      <trkpt lat="49.960839031264186" lon="-5.204217983409762">
        <ele>58.299999999999997</ele>
        <time>2026-06-23T15:26:39Z</time>
      </trkpt>
      <trkpt lat="49.960844982415438" lon="-5.204218989238143">
        <ele>58.299999999999997</ele>
        <time>2026-06-23T15:27:31Z</time>
      </trkpt>
      <trkpt lat="49.960846994072199" lon="-5.204222006723285">
        <ele>58.299999999999997</ele>
        <time>2026-06-23T15:28:11Z</time>
      </trkpt>
      <trkpt lat="49.961030976846814" lon="-5.204690974205732">
        <ele>58.299999999999997</ele>
        <time>2026-06-23T15:28:19Z</time>
      </trkpt>
      <trkpt lat="49.961099959909916" lon="-5.204793987795711">
        <ele>57.82</ele>
        <time>2026-06-23T15:28:21Z</time>
      </trkpt>
      <trkpt lat="49.961147988215089" lon="-5.204821983352304">
        <ele>57.82</ele>
        <time>2026-06-23T15:28:22Z</time>
      </trkpt>
      <trkpt lat="49.961184030398726" lon="-5.204843021929264">
        <ele>57.340000000000003</ele>
        <time>2026-06-23T15:28:23Z</time>
      </trkpt>
      <trkpt lat="49.961226023733616" lon="-5.204868000000715">
        <ele>56.859999999999999</ele>
        <time>2026-06-23T15:28:24Z</time>
      </trkpt>
      <trkpt lat="49.961272040382028" lon="-5.204894989728928">
        <ele>56.369999999999997</ele>
        <time>2026-06-23T15:28:25Z</time>
      </trkpt>
      <trkpt lat="49.961317973211408" lon="-5.204920973628759">
        <ele>55.890000000000001</ele>
        <time>2026-06-23T15:28:26Z</time>
      </trkpt>
      <trkpt lat="49.961371030658484" lon="-5.204946035519242">
        <ele>54.93</ele>
        <time>2026-06-23T15:28:27Z</time>
      </trkpt>
      <trkpt lat="49.961420986801386" lon="-5.204949975013733">
        <ele>54.450000000000003</ele>
        <time>2026-06-23T15:28:28Z</time>
      </trkpt>
      <trkpt lat="49.961473038420081" lon="-5.204955004155636">
        <ele>54.450000000000003</ele>
        <time>2026-06-23T15:28:29Z</time>
      </trkpt>
      <trkpt lat="49.96183798648417" lon="-5.204980988055468">
        <ele>50.609999999999999</ele>
        <time>2026-06-23T15:28:39Z</time>
      </trkpt>
      <trkpt lat="49.961875034496188" lon="-5.204951986670494">
        <ele>50.609999999999999</ele>
        <time>2026-06-23T15:28:40Z</time>
      </trkpt>
      <trkpt lat="49.962410973384976" lon="-5.204501962289214">
        <ele>54.450000000000003</ele>
        <time>2026-06-23T15:28:49Z</time>
      </trkpt>
      <trkpt lat="49.962778016924858" lon="-5.204089991748333">
        <ele>59.259999999999998</ele>
        <time>2026-06-23T15:28:55Z</time>
      </trkpt>
      <trkpt lat="49.962841970846057" lon="-5.204031988978386">
        <ele>59.740000000000002</ele>
        <time>2026-06-23T15:28:56Z</time>
      </trkpt>
      <trkpt lat="49.963442031294107" lon="-5.203541982918978">
        <ele>62.619999999999997</ele>
        <time>2026-06-23T15:29:04Z</time>
      </trkpt>
      <trkpt lat="49.963524006307125" lon="-5.203513987362385">
        <ele>62.619999999999997</ele>
        <time>2026-06-23T15:29:05Z</time>
      </trkpt>
      <trkpt lat="49.963602963835001" lon="-5.203499989584088">
        <ele>62.619999999999997</ele>
        <time>2026-06-23T15:29:06Z</time>
      </trkpt>
      <trkpt lat="49.963956009596586" lon="-5.203466964885593">
        <ele>61.18</ele>
        <time>2026-06-23T15:29:13Z</time>
      </trkpt>
      <trkpt lat="49.964148038998246" lon="-5.203476017341018">
        <ele>60.700000000000003</ele>
        <time>2026-06-23T15:29:22Z</time>
      </trkpt>
      <trkpt lat="49.964315006509423" lon="-5.20348297432065">
        <ele>60.700000000000003</ele>
        <time>2026-06-23T15:29:27Z</time>
      </trkpt>
      <trkpt lat="49.964348031207919" lon="-5.203484985977411">
        <ele>60.700000000000003</ele>
        <time>2026-06-23T15:29:28Z</time>
      </trkpt>
      <trkpt lat="49.964392958208919" lon="-5.203486997634172">
        <ele>60.219999999999999</ele>
        <time>2026-06-23T15:29:29Z</time>
      </trkpt>
      <trkpt lat="49.96445900760591" lon="-5.203490015119314">
        <ele>60.219999999999999</ele>
        <time>2026-06-23T15:29:30Z</time>
      </trkpt>
      <trkpt lat="49.964539976790547" lon="-5.203494038432837">
        <ele>60.219999999999999</ele>
        <time>2026-06-23T15:29:31Z</time>
      </trkpt>
      <trkpt lat="49.964820016175508" lon="-5.203506024554372">
        <ele>58.780000000000001</ele>
        <time>2026-06-23T15:29:36Z</time>
      </trkpt>
      <trkpt lat="49.964820016175508" lon="-5.203506024554372">
        <ele>59.259999999999998</ele>
        <time>2026-06-23T15:29:44Z</time>
      </trkpt>
      <trkpt lat="49.96488899923861" lon="-5.203489009290934">
        <ele>59.259999999999998</ele>
        <time>2026-06-23T15:29:45Z</time>
      </trkpt>
      <trkpt lat="49.965300969779491" lon="-5.203340984880924">
        <ele>58.780000000000001</ele>
        <time>2026-06-23T15:29:54Z</time>
      </trkpt>
      <trkpt lat="49.965977976098657" lon="-5.203090030699968">
        <ele>60.700000000000003</ele>
        <time>2026-06-23T15:30:02Z</time>
      </trkpt>
      <trkpt lat="49.966057017445564" lon="-5.203086007386446">
        <ele>61.18</ele>
        <time>2026-06-23T15:30:03Z</time>
      </trkpt>
      <trkpt lat="49.966137986630201" lon="-5.203080978244543">
        <ele>61.18</ele>
        <time>2026-06-23T15:30:04Z</time>
      </trkpt>
      <trkpt lat="49.966223984956741" lon="-5.203093970194459">
        <ele>61.18</ele>
        <time>2026-06-23T15:30:05Z</time>
      </trkpt>
      <trkpt lat="49.966319035738707" lon="-5.203134035691619">
        <ele>61.659999999999997</ele>
        <time>2026-06-23T15:30:06Z</time>
      </trkpt>
      <trkpt lat="49.967019008472562" lon="-5.203491020947695">
        <ele>65.510000000000005</ele>
        <time>2026-06-23T15:30:14Z</time>
      </trkpt>
      <trkpt lat="49.967074999585748" lon="-5.203575007617474">
        <ele>66.469999999999999</ele>
        <time>2026-06-23T15:30:15Z</time>
      </trkpt>
      <trkpt lat="49.967133002355695" lon="-5.203663017600775">
        <ele>66.469999999999999</ele>
        <time>2026-06-23T15:30:16Z</time>
      </trkpt>
      <trkpt lat="49.967179019004107" lon="-5.203755972906947">
        <ele>66.950000000000003</ele>
        <time>2026-06-23T15:30:17Z</time>
      </trkpt>
      <trkpt lat="49.967215983197093" lon="-5.203828979283571">
        <ele>66.469999999999999</ele>
        <time>2026-06-23T15:30:18Z</time>
      </trkpt>
      <trkpt lat="49.967254959046841" lon="-5.20382596179843">
        <ele>66.950000000000003</ele>
        <time>2026-06-23T15:30:19Z</time>
      </trkpt>
      <trkpt lat="49.967309022322297" lon="-5.203822022303939">
        <ele>66.950000000000003</ele>
        <time>2026-06-23T15:30:20Z</time>
      </trkpt>
      <trkpt lat="49.967364007607102" lon="-5.203817998990417">
        <ele>66.950000000000003</ele>
        <time>2026-06-23T15:30:21Z</time>
      </trkpt>
      <trkpt lat="49.967413963750005" lon="-5.203813975676894">
        <ele>66.950000000000003</ele>
        <time>2026-06-23T15:30:22Z</time>
      </trkpt>
      <trkpt lat="49.967495016753674" lon="-5.203807018697262">
        <ele>66.469999999999999</ele>
        <time>2026-06-23T15:30:24Z</time>
      </trkpt>
      <trkpt lat="49.96753198094666" lon="-5.203784974291921">
        <ele>66.469999999999999</ele>
        <time>2026-06-23T15:30:25Z</time>
      </trkpt>
      <trkpt lat="49.967639017850161" lon="-5.203730994835496">
        <ele>66.469999999999999</ele>
        <time>2026-06-23T15:30:27Z</time>
      </trkpt>
      <trkpt lat="49.967687968164682" lon="-5.203714985400438">
        <ele>65.989999999999995</ele>
        <time>2026-06-23T15:30:28Z</time>
      </trkpt>
      <trkpt lat="49.967957027256489" lon="-5.203628987073898">
        <ele>64.069999999999993</ele>
        <time>2026-06-23T15:30:37Z</time>
      </trkpt>
      <trkpt lat="49.967957027256489" lon="-5.203628987073898">
        <ele>63.579999999999998</ele>
        <time>2026-06-23T15:31:22Z</time>
      </trkpt>
      <trkpt lat="49.968087030574679" lon="-5.203586993739009">
        <ele>65.989999999999995</ele>
        <time>2026-06-23T15:32:01Z</time>
      </trkpt>
      <trkpt lat="49.968482991680503" lon="-5.203509964048863">
        <ele>64.549999999999997</ele>
        <time>2026-06-23T15:32:12Z</time>
      </trkpt>
      <trkpt lat="49.968607965856791" lon="-5.203519016504288">
        <ele>62.619999999999997</ele>
        <time>2026-06-23T15:32:17Z</time>
      </trkpt>
      <trkpt lat="49.968629004433751" lon="-5.203521028161049">
        <ele>62.619999999999997</ele>
        <time>2026-06-23T15:32:18Z</time>
      </trkpt>
      <trkpt lat="49.968650965020061" lon="-5.20352303981781">
        <ele>62.619999999999997</ele>
        <time>2026-06-23T15:32:19Z</time>
      </trkpt>
      <trkpt lat="49.969068970531225" lon="-5.203647008165717">
        <ele>64.549999999999997</ele>
        <time>2026-06-23T15:32:28Z</time>
      </trkpt>
      <trkpt lat="49.970026016235352" lon="-5.203615995123982">
        <ele>69.349999999999994</ele>
        <time>2026-06-23T15:32:41Z</time>
      </trkpt>
      <trkpt lat="49.971136031672359" lon="-5.203579030930996">
        <ele>73.200000000000003</ele>
        <time>2026-06-23T15:32:52Z</time>
      </trkpt>
      <trkpt lat="49.972762037068605" lon="-5.203681960701942">
        <ele>72.239999999999995</ele>
        <time>2026-06-23T15:33:07Z</time>
      </trkpt>
      <trkpt lat="49.974272036924958" lon="-5.203896034508944">
        <ele>68.870000000000005</ele>
        <time>2026-06-23T15:33:19Z</time>
      </trkpt>
      <trkpt lat="49.975886978209019" lon="-5.204662978649139">
        <ele>68.870000000000005</ele>
        <time>2026-06-23T15:33:32Z</time>
      </trkpt>
      <trkpt lat="49.977999972179532" lon="-5.206040963530541">
        <ele>68.390000000000001</ele>
        <time>2026-06-23T15:33:49Z</time>
      </trkpt>
      <trkpt lat="49.978132992982864" lon="-5.206163004040718">
        <ele>68.390000000000001</ele>
        <time>2026-06-23T15:33:50Z</time>
      </trkpt>
      <trkpt lat="49.979450041428208" lon="-5.207292968407273">
        <ele>68.870000000000005</ele>
        <time>2026-06-23T15:33:59Z</time>
      </trkpt>
      <trkpt lat="49.981084009632468" lon="-5.208533992990851">
        <ele>68.870000000000005</ele>
        <time>2026-06-23T15:34:10Z</time>
      </trkpt>
      <trkpt lat="49.98123899102211" lon="-5.208599958568811">
        <ele>68.870000000000005</ele>
        <time>2026-06-23T15:34:11Z</time>
      </trkpt>
      <trkpt lat="49.98300296254456" lon="-5.209134975448251">
        <ele>69.349999999999994</ele>
        <time>2026-06-23T15:34:22Z</time>
      </trkpt>
      <trkpt lat="49.984498964622617" lon="-5.209430018439889">
        <ele>68.870000000000005</ele>
        <time>2026-06-23T15:34:31Z</time>
      </trkpt>
      <trkpt lat="49.986894009634852" lon="-5.209417026489973">
        <ele>70.310000000000002</ele>
        <time>2026-06-23T15:34:45Z</time>
      </trkpt>
      <trkpt lat="49.989921972155571" lon="-5.20913003012538">
        <ele>72.719999999999999</ele>
        <time>2026-06-23T15:35:02Z</time>
      </trkpt>
      <trkpt lat="49.991896999999881" lon="-5.209338990971446">
        <ele>74.159999999999997</ele>
        <time>2026-06-23T15:35:13Z</time>
      </trkpt>
      <trkpt lat="49.993604980409145" lon="-5.209869984537363">
        <ele>77.040000000000006</ele>
        <time>2026-06-23T15:35:23Z</time>
      </trkpt>
      <trkpt lat="49.996071020141244" lon="-5.211270013824105">
        <ele>80.409999999999997</ele>
        <time>2026-06-23T15:35:36Z</time>
      </trkpt>
      <trkpt lat="49.998388029634953" lon="-5.212531993165612">
        <ele>80.890000000000001</ele>
        <time>2026-06-23T15:35:48Z</time>
      </trkpt>
      <trkpt lat="50.00132798217237" lon="-5.214017014950514">
        <ele>80.409999999999997</ele>
        <time>2026-06-23T15:36:03Z</time>
      </trkpt>
      <trkpt lat="50.002720970660448" lon="-5.214378023520112">
        <ele>81.370000000000005</ele>
        <time>2026-06-23T15:36:10Z</time>
      </trkpt>
      <trkpt lat="50.005104029551148" lon="-5.21495402790606">
        <ele>82.810000000000002</ele>
        <time>2026-06-23T15:36:22Z</time>
      </trkpt>
      <trkpt lat="50.007657995447516" lon="-5.215445039793849">
        <ele>82.329999999999998</ele>
        <time>2026-06-23T15:36:34Z</time>
      </trkpt>
      <trkpt lat="50.009736958891153" lon="-5.216095978394151">
        <ele>81.370000000000005</ele>
        <time>2026-06-23T15:36:44Z</time>
      </trkpt>
      <trkpt lat="50.011333040893078" lon="-5.216515995562077">
        <ele>80.409999999999997</ele>
        <time>2026-06-23T15:36:52Z</time>
      </trkpt>
      <trkpt lat="50.012986036017537" lon="-5.216428991407156">
        <ele>78.480000000000004</ele>
        <time>2026-06-23T15:37:00Z</time>
      </trkpt>
      <trkpt lat="50.014568958431482" lon="-5.21602900698781">
        <ele>77.519999999999996</ele>
        <time>2026-06-23T15:37:08Z</time>
      </trkpt>
      <trkpt lat="50.016660997644067" lon="-5.215445039793849">
        <ele>78.969999999999999</ele>
        <time>2026-06-23T15:37:19Z</time>
      </trkpt>
      <trkpt lat="50.01772197894752" lon="-5.215119989588857">
        <ele>77.040000000000006</ele>
        <time>2026-06-23T15:37:25Z</time>
      </trkpt>
      <trkpt lat="50.017882995307446" lon="-5.215129964053631">
        <ele>77.040000000000006</ele>
        <time>2026-06-23T15:37:26Z</time>
      </trkpt>
      <trkpt lat="50.018049040809274" lon="-5.215159971266985">
        <ele>76.560000000000002</ele>
        <time>2026-06-23T15:37:27Z</time>
      </trkpt>
      <trkpt lat="50.01821399666369" lon="-5.215247981250286">
        <ele>76.079999999999998</ele>
        <time>2026-06-23T15:37:28Z</time>
      </trkpt>
      <trkpt lat="50.018379958346486" lon="-5.215330962091684">
        <ele>75.599999999999994</ele>
        <time>2026-06-23T15:37:29Z</time>
      </trkpt>
      <trkpt lat="50.018541980534792" lon="-5.215399023145437">
        <ele>75.599999999999994</ele>
        <time>2026-06-23T15:37:30Z</time>
      </trkpt>
      <trkpt lat="50.018702996894717" lon="-5.215467000380158">
        <ele>76.079999999999998</ele>
        <time>2026-06-23T15:37:31Z</time>
      </trkpt>
      <trkpt lat="50.018868958577514" lon="-5.215479992330074">
        <ele>76.079999999999998</ele>
        <time>2026-06-23T15:37:32Z</time>
      </trkpt>
      <trkpt lat="50.020649023354053" lon="-5.215132981538773">
        <ele>77.040000000000006</ele>
        <time>2026-06-23T15:37:42Z</time>
      </trkpt>
      <trkpt lat="50.020926967263222" lon="-5.215080007910729">
        <ele>76.560000000000002</ele>
        <time>2026-06-23T15:37:44Z</time>
      </trkpt>
      <trkpt lat="50.021046996116638" lon="-5.215100040659308">
        <ele>76.560000000000002</ele>
        <time>2026-06-23T15:37:45Z</time>
      </trkpt>
      <trkpt lat="50.021163001656532" lon="-5.21512602455914">
        <ele>76.560000000000002</ele>
        <time>2026-06-23T15:37:46Z</time>
      </trkpt>
      <trkpt lat="50.021279007196426" lon="-5.215177992358804">
        <ele>76.560000000000002</ele>
        <time>2026-06-23T15:37:47Z</time>
      </trkpt>
      <trkpt lat="50.021397024393082" lon="-5.215229960158467">
        <ele>76.560000000000002</ele>
        <time>2026-06-23T15:37:48Z</time>
      </trkpt>
      <trkpt lat="50.021970011293888" lon="-5.215440010651946">
        <ele>78</ele>
        <time>2026-06-23T15:37:53Z</time>
      </trkpt>
      <trkpt lat="50.022093979641795" lon="-5.215459037572146">
        <ele>77.519999999999996</ele>
        <time>2026-06-23T15:37:54Z</time>
      </trkpt>
      <trkpt lat="50.022224988788366" lon="-5.215431964024901">
        <ele>78</ele>
        <time>2026-06-23T15:37:55Z</time>
      </trkpt>
      <trkpt lat="50.022362032905221" lon="-5.215394999831915">
        <ele>78</ele>
        <time>2026-06-23T15:37:56Z</time>
      </trkpt>
      <trkpt lat="50.022501004859805" lon="-5.21534001454711">
        <ele>77.519999999999996</ele>
        <time>2026-06-23T15:37:57Z</time>
      </trkpt>
      <trkpt lat="50.023218998685479" lon="-5.215134993195534">
        <ele>77.519999999999996</ele>
        <time>2026-06-23T15:38:02Z</time>
      </trkpt>
      <trkpt lat="50.023368028923869" lon="-5.215122001245618">
        <ele>77.519999999999996</ele>
        <time>2026-06-23T15:38:03Z</time>
      </trkpt>
      <trkpt lat="50.023518986999989" lon="-5.215132981538773">
        <ele>77.519999999999996</ele>
        <time>2026-06-23T15:38:04Z</time>
      </trkpt>
      <trkpt lat="50.025373985990882" lon="-5.215528020635247">
        <ele>78</ele>
        <time>2026-06-23T15:38:15Z</time>
      </trkpt>
      <trkpt lat="50.027911020442843" lon="-5.216067982837558">
        <ele>73.680000000000007</ele>
        <time>2026-06-23T15:38:28Z</time>
      </trkpt>
      <trkpt lat="50.029916977509856" lon="-5.216828975826502">
        <ele>71.269999999999996</ele>
        <time>2026-06-23T15:38:38Z</time>
      </trkpt>
      <trkpt lat="50.030102971941233" lon="-5.216924026608467">
        <ele>70.790000000000006</ele>
        <time>2026-06-23T15:38:39Z</time>
      </trkpt>
      <trkpt lat="50.030297012999654" lon="-5.216990998014808">
        <ele>70.790000000000006</ele>
        <time>2026-06-23T15:38:40Z</time>
      </trkpt>
      <trkpt lat="50.031649013981223" lon="-5.217581000179052">
        <ele>67.430000000000007</ele>
        <time>2026-06-23T15:38:47Z</time>
      </trkpt>
      <trkpt lat="50.031825033947825" lon="-5.217690970748663">
        <ele>66.950000000000003</ele>
        <time>2026-06-23T15:38:48Z</time>
      </trkpt>
      <trkpt lat="50.032016979530454" lon="-5.217765988782048">
        <ele>65.510000000000005</ele>
        <time>2026-06-23T15:38:49Z</time>
      </trkpt>
      <trkpt lat="50.032975031062961" lon="-5.218142000958324">
        <ele>61.18</ele>
        <time>2026-06-23T15:38:54Z</time>
      </trkpt>
      <trkpt lat="50.033163959160447" lon="-5.218192040920258">
        <ele>61.18</ele>
        <time>2026-06-23T15:38:55Z</time>
      </trkpt>
      <trkpt lat="50.034692985936999" lon="-5.218618009239435">
        <ele>64.069999999999993</ele>
        <time>2026-06-23T15:39:03Z</time>
      </trkpt>
      <trkpt lat="50.036093015223742" lon="-5.218725968152285">
        <ele>69.349999999999994</ele>
        <time>2026-06-23T15:39:11Z</time>
      </trkpt>
      <trkpt lat="50.036946041509509" lon="-5.21899301558733">
        <ele>69.349999999999994</ele>
        <time>2026-06-23T15:39:17Z</time>
      </trkpt>
      <trkpt lat="50.037074033170938" lon="-5.219054035842419">
        <ele>69.349999999999994</ele>
        <time>2026-06-23T15:39:18Z</time>
      </trkpt>
      <trkpt lat="50.037885988131166" lon="-5.219523003324866">
        <ele>65.989999999999995</ele>
        <time>2026-06-23T15:39:24Z</time>
      </trkpt>
      <trkpt lat="50.038024038076401" lon="-5.219603972509503">
        <ele>65.030000000000001</ele>
        <time>2026-06-23T15:39:25Z</time>
      </trkpt>
      <trkpt lat="50.039145033806562" lon="-5.220010997727513">
        <ele>57.82</ele>
        <time>2026-06-23T15:39:33Z</time>
      </trkpt>
      <trkpt lat="50.039263973012567" lon="-5.220061037689447">
        <ele>56.369999999999997</ele>
        <time>2026-06-23T15:39:34Z</time>
      </trkpt>
      <trkpt lat="50.039386013522744" lon="-5.220081992447376">
        <ele>55.409999999999997</ele>
        <time>2026-06-23T15:39:35Z</time>
      </trkpt>
      <trkpt lat="50.039512999355793" lon="-5.220093978568912">
        <ele>54.450000000000003</ele>
        <time>2026-06-23T15:39:36Z</time>
      </trkpt>
      <trkpt lat="50.039633028209209" lon="-5.220105964690447">
        <ele>53.490000000000002</ele>
        <time>2026-06-23T15:39:37Z</time>
      </trkpt>
      <trkpt lat="50.039854981005192" lon="-5.220129014924169">
        <ele>51.57</ele>
        <time>2026-06-23T15:39:39Z</time>
      </trkpt>
      <trkpt lat="50.039961012080312" lon="-5.220161033794284">
        <ele>50.609999999999999</ele>
        <time>2026-06-23T15:39:40Z</time>
      </trkpt>
      <trkpt lat="50.040046004578471" lon="-5.22024099715054">
        <ele>49.649999999999999</ele>
        <time>2026-06-23T15:39:41Z</time>
      </trkpt>
      <trkpt lat="50.040128985419869" lon="-5.220320038497448">
        <ele>48.68</ele>
        <time>2026-06-23T15:39:42Z</time>
      </trkpt>
      <trkpt lat="50.040218001231551" lon="-5.220405030995607">
        <ele>47.240000000000002</ele>
        <time>2026-06-23T15:39:43Z</time>
      </trkpt>
      <trkpt lat="50.040303999558091" lon="-5.220487006008625">
        <ele>45.799999999999997</ele>
        <time>2026-06-23T15:39:44Z</time>
      </trkpt>
      <trkpt lat="50.04036501981318" lon="-5.220544002950192">
        <ele>44.840000000000003</ele>
        <time>2026-06-23T15:39:45Z</time>
      </trkpt>
      <trkpt lat="50.040443977341056" lon="-5.220576021820307">
        <ele>43.399999999999999</ele>
        <time>2026-06-23T15:39:46Z</time>
      </trkpt>
      <trkpt lat="50.040497034788132" lon="-5.220565963536501">
        <ele>42.439999999999998</ele>
        <time>2026-06-23T15:39:47Z</time>
      </trkpt>
      <trkpt lat="50.040565012022853" lon="-5.220509972423315">
        <ele>41.469999999999999</ele>
        <time>2026-06-23T15:39:48Z</time>
      </trkpt>
      <trkpt lat="50.040613962337375" lon="-5.220441995188594">
        <ele>40.509999999999998</ele>
        <time>2026-06-23T15:39:49Z</time>
      </trkpt>
      <trkpt lat="50.040655033662915" lon="-5.220317021012306">
        <ele>39.549999999999997</ele>
        <time>2026-06-23T15:39:50Z</time>
      </trkpt>
      <trkpt lat="50.040699038654566" lon="-5.220187017694116">
        <ele>39.07</ele>
        <time>2026-06-23T15:39:51Z</time>
      </trkpt>
      <trkpt lat="50.040886038914323" lon="-5.21970497444272">
        <ele>36.670000000000002</ele>
        <time>2026-06-23T15:39:55Z</time>
      </trkpt>
      <trkpt lat="50.040940018370748" lon="-5.219630962237716">
        <ele>35.710000000000001</ele>
        <time>2026-06-23T15:39:56Z</time>
      </trkpt>
      <trkpt lat="50.041009001433849" lon="-5.219535995274782">
        <ele>35.229999999999997</ele>
        <time>2026-06-23T15:39:57Z</time>
      </trkpt>
      <trkpt lat="50.041083013638854" lon="-5.219499031081796">
        <ele>34.259999999999998</ele>
        <time>2026-06-23T15:39:58Z</time>
      </trkpt>
      <trkpt lat="50.041188038885593" lon="-5.219449996948242">
        <ele>33.780000000000001</ele>
        <time>2026-06-23T15:39:59Z</time>
      </trkpt>
      <trkpt lat="50.041306978091598" lon="-5.21944597363472">
        <ele>32.82</ele>
        <time>2026-06-23T15:40:00Z</time>
      </trkpt>
      <trkpt lat="50.041436981409788" lon="-5.219442034140229">
        <ele>31.859999999999999</ele>
        <time>2026-06-23T15:40:01Z</time>
      </trkpt>
      <trkpt lat="50.041695982217789" lon="-5.219433987513185">
        <ele>29.940000000000001</ele>
        <time>2026-06-23T15:40:03Z</time>
      </trkpt>
      <trkpt lat="50.042344992980361" lon="-5.219279006123543">
        <ele>23.690000000000001</ele>
        <time>2026-06-23T15:40:09Z</time>
      </trkpt>
      <trkpt lat="50.042488994076848" lon="-5.219235001131892">
        <ele>22.73</ele>
        <time>2026-06-23T15:40:10Z</time>
      </trkpt>
      <trkpt lat="50.042568035423756" lon="-5.219302978366613">
        <ele>21.77</ele>
        <time>2026-06-23T15:40:11Z</time>
      </trkpt>
      <trkpt lat="50.042656967416406" lon="-5.21938101388514">
        <ele>21.77</ele>
        <time>2026-06-23T15:40:12Z</time>
      </trkpt>
      <trkpt lat="50.042744977399707" lon="-5.219457037746906">
        <ele>21.289999999999999</ele>
        <time>2026-06-23T15:40:13Z</time>
      </trkpt>
      <trkpt lat="50.042830975726247" lon="-5.219581006094813">
        <ele>21.289999999999999</ele>
        <time>2026-06-23T15:40:14Z</time>
      </trkpt>
      <trkpt lat="50.042867017909884" lon="-5.21970204077661">
        <ele>20.809999999999999</ele>
        <time>2026-06-23T15:40:15Z</time>
      </trkpt>
      <trkpt lat="50.04290297627449" lon="-5.219825003296137">
        <ele>20.809999999999999</ele>
        <time>2026-06-23T15:40:16Z</time>
      </trkpt>
      <trkpt lat="50.04294304177165" lon="-5.21995902992785">
        <ele>20.809999999999999</ele>
        <time>2026-06-23T15:40:17Z</time>
      </trkpt>
      <trkpt lat="50.042980005964637" lon="-5.220081992447376">
        <ele>20.809999999999999</ele>
        <time>2026-06-23T15:40:18Z</time>
      </trkpt>
      <trkpt lat="50.043044965714216" lon="-5.220300005748868">
        <ele>20.809999999999999</ele>
        <time>2026-06-23T15:40:20Z</time>
      </trkpt>
      <trkpt lat="50.043146973475814" lon="-5.220483988523483">
        <ele>22.25</ele>
        <time>2026-06-23T15:40:22Z</time>
      </trkpt>
      <trkpt lat="50.043216040357947" lon="-5.2206040173769">
        <ele>22.73</ele>
        <time>2026-06-23T15:40:23Z</time>
      </trkpt>
      <trkpt lat="50.04328896291554" lon="-5.220732009038329">
        <ele>23.210000000000001</ele>
        <time>2026-06-23T15:40:24Z</time>
      </trkpt>
      <trkpt lat="50.043475963175297" lon="-5.221058987081051">
        <ele>25.609999999999999</ele>
        <time>2026-06-23T15:40:27Z</time>
      </trkpt>
      <trkpt lat="50.043589035049081" lon="-5.221194019541144">
        <ele>26.57</ele>
        <time>2026-06-23T15:40:28Z</time>
      </trkpt>
      <trkpt lat="50.043763965368271" lon="-5.221403986215591">
        <ele>28.98</ele>
        <time>2026-06-23T15:40:30Z</time>
      </trkpt>
      <trkpt lat="50.043857004493475" lon="-5.221515968441963">
        <ele>29.940000000000001</ele>
        <time>2026-06-23T15:40:31Z</time>
      </trkpt>
      <trkpt lat="50.043970998376608" lon="-5.221631973981857">
        <ele>30.899999999999999</ele>
        <time>2026-06-23T15:40:32Z</time>
      </trkpt>
      <trkpt lat="50.044782031327486" lon="-5.222332030534744">
        <ele>38.590000000000003</ele>
        <time>2026-06-23T15:40:40Z</time>
      </trkpt>
      <trkpt lat="50.044822013005614" lon="-5.222365977242589">
        <ele>40.030000000000001</ele>
        <time>2026-06-23T15:40:41Z</time>
      </trkpt>
      <trkpt lat="50.044850008562207" lon="-5.222390033304691">
        <ele>40.990000000000002</ele>
        <time>2026-06-23T15:40:42Z</time>
      </trkpt>
      <trkpt lat="50.044887978583574" lon="-5.222449041903019">
        <ele>41.950000000000003</ele>
        <time>2026-06-23T15:40:43Z</time>
      </trkpt>
      <trkpt lat="50.04491999745369" lon="-5.222497992217541">
        <ele>42.920000000000002</ele>
        <time>2026-06-23T15:40:44Z</time>
      </trkpt>
      <trkpt lat="50.044958973303437" lon="-5.222558006644249">
        <ele>43.880000000000003</ele>
        <time>2026-06-23T15:40:45Z</time>
      </trkpt>
      <trkpt lat="50.04500700160861" lon="-5.222632018849254">
        <ele>45.32</ele>
        <time>2026-06-23T15:40:46Z</time>
      </trkpt>
      <trkpt lat="50.045066010206938" lon="-5.222722040489316">
        <ele>46.280000000000001</ele>
        <time>2026-06-23T15:40:47Z</time>
      </trkpt>
      <trkpt lat="50.045128036290407" lon="-5.222819019109011">
        <ele>47.719999999999999</ele>
        <time>2026-06-23T15:40:48Z</time>
      </trkpt>
      <trkpt lat="50.045183021575212" lon="-5.222921026870608">
        <ele>48.68</ele>
        <time>2026-06-23T15:40:49Z</time>
      </trkpt>
      <trkpt lat="50.045333979651332" lon="-5.223198970779777">
        <ele>51.57</ele>
        <time>2026-06-23T15:40:52Z</time>
      </trkpt>
      <trkpt lat="50.045720972120762" lon="-5.223916964605451">
        <ele>54.450000000000003</ele>
        <time>2026-06-23T15:41:00Z</time>
      </trkpt>
      <trkpt lat="50.045765982940793" lon="-5.224000029265881">
        <ele>54.93</ele>
        <time>2026-06-23T15:41:01Z</time>
      </trkpt>
      <trkpt lat="50.045906966552138" lon="-5.224262969568372">
        <ele>54.93</ele>
        <time>2026-06-23T15:41:04Z</time>
      </trkpt>
      <trkpt lat="50.046057002618909" lon="-5.224524987861514">
        <ele>55.409999999999997</ele>
        <time>2026-06-23T15:41:07Z</time>
      </trkpt>
      <trkpt lat="50.046323966234922" lon="-5.224908040836453">
        <ele>55.409999999999997</ele>
        <time>2026-06-23T15:41:11Z</time>
      </trkpt>
      <trkpt lat="50.046409964561462" lon="-5.224977023899555">
        <ele>54.93</ele>
        <time>2026-06-23T15:41:12Z</time>
      </trkpt>
      <trkpt lat="50.046497974544764" lon="-5.225048018619418">
        <ele>54.450000000000003</ele>
        <time>2026-06-23T15:41:13Z</time>
      </trkpt>
      <trkpt lat="50.046701990067959" lon="-5.225095041096211">
        <ele>53.490000000000002</ele>
        <time>2026-06-23T15:41:15Z</time>
      </trkpt>
      <trkpt lat="50.046802992001176" lon="-5.22511700168252">
        <ele>53.009999999999998</ele>
        <time>2026-06-23T15:41:16Z</time>
      </trkpt>
      <trkpt lat="50.04691899754107" lon="-5.225118007510901">
        <ele>52.530000000000001</ele>
        <time>2026-06-23T15:41:17Z</time>
      </trkpt>
      <trkpt lat="50.047021005302668" lon="-5.225056987255812">
        <ele>52.049999999999997</ele>
        <time>2026-06-23T15:41:18Z</time>
      </trkpt>
      <trkpt lat="50.047130975872278" lon="-5.224992027506232">
        <ele>51.57</ele>
        <time>2026-06-23T15:41:19Z</time>
      </trkpt>
      <trkpt lat="50.048798974603415" lon="-5.224055014550686">
        <ele>51.57</ele>
        <time>2026-06-23T15:41:33Z</time>
      </trkpt>
      <trkpt lat="50.050132032483816" lon="-5.223674979060888">
        <ele>53.969999999999999</ele>
        <time>2026-06-23T15:41:42Z</time>
      </trkpt>
      <trkpt lat="50.052149975672364" lon="-5.223832977935672">
        <ele>58.780000000000001</ele>
        <time>2026-06-23T15:41:54Z</time>
      </trkpt>
      <trkpt lat="50.053871031850576" lon="-5.224215025082231">
        <ele>56.369999999999997</ele>
        <time>2026-06-23T15:42:06Z</time>
      </trkpt>
      <trkpt lat="50.054703019559383" lon="-5.224402025341988">
        <ele>50.130000000000003</ele>
        <time>2026-06-23T15:42:12Z</time>
      </trkpt>
      <trkpt lat="50.054837968200445" lon="-5.224390961229801">
        <ele>49.159999999999997</ele>
        <time>2026-06-23T15:42:13Z</time>
      </trkpt>
      <trkpt lat="50.054967971518636" lon="-5.224361037835479">
        <ele>48.200000000000003</ele>
        <time>2026-06-23T15:42:14Z</time>
      </trkpt>
      <trkpt lat="50.05510501563549" lon="-5.22430001758039">
        <ele>47.240000000000002</ele>
        <time>2026-06-23T15:42:15Z</time>
      </trkpt>
      <trkpt lat="50.055229989811778" lon="-5.224178982898593">
        <ele>46.280000000000001</ele>
        <time>2026-06-23T15:42:16Z</time>
      </trkpt>
      <trkpt lat="50.055358987301588" lon="-5.224054008722305">
        <ele>45.32</ele>
        <time>2026-06-23T15:42:17Z</time>
      </trkpt>
      <trkpt lat="50.055958963930607" lon="-5.223508011549711">
        <ele>42.920000000000002</ele>
        <time>2026-06-23T15:42:22Z</time>
      </trkpt>
      <trkpt lat="50.056081004440784" lon="-5.223446991294622">
        <ele>43.399999999999999</ele>
        <time>2026-06-23T15:42:23Z</time>
      </trkpt>
      <trkpt lat="50.05620296113193" lon="-5.22342000156641">
        <ele>44.359999999999999</ele>
        <time>2026-06-23T15:42:24Z</time>
      </trkpt>
      <trkpt lat="50.056330030784011" lon="-5.22342000156641">
        <ele>45.32</ele>
        <time>2026-06-23T15:42:25Z</time>
      </trkpt>
      <trkpt lat="50.056452993303537" lon="-5.223471969366074">
        <ele>46.280000000000001</ele>
        <time>2026-06-23T15:42:26Z</time>
      </trkpt>
      <trkpt lat="50.056572016328573" lon="-5.223522009328008">
        <ele>47.240000000000002</ele>
        <time>2026-06-23T15:42:27Z</time>
      </trkpt>
      <trkpt lat="50.057396041229367" lon="-5.223835995420814">
        <ele>54.450000000000003</ele>
        <time>2026-06-23T15:42:35Z</time>
      </trkpt>
      <trkpt lat="50.058531034737825" lon="-5.223780004307628">
        <ele>58.299999999999997</ele>
        <time>2026-06-23T15:42:43Z</time>
      </trkpt>
      <trkpt lat="50.059120031073689" lon="-5.223740022629499">
        <ele>61.18</ele>
        <time>2026-06-23T15:42:47Z</time>
      </trkpt>
      <trkpt lat="50.060647968202829" lon="-5.224006986245513">
        <ele>67.430000000000007</ele>
        <time>2026-06-23T15:42:58Z</time>
      </trkpt>
      <trkpt lat="50.061211986467242" lon="-5.224276967346668">
        <ele>65.989999999999995</ele>
        <time>2026-06-23T15:43:02Z</time>
      </trkpt>
      <trkpt lat="50.061355987563729" lon="-5.224362965673208">
        <ele>65.989999999999995</ele>
        <time>2026-06-23T15:43:03Z</time>
      </trkpt>
      <trkpt lat="50.061494959518313" lon="-5.224447036162019">
        <ele>65.510000000000005</ele>
        <time>2026-06-23T15:43:04Z</time>
      </trkpt>
      <trkpt lat="50.061609037220478" lon="-5.224599000066519">
        <ele>65.030000000000001</ele>
        <time>2026-06-23T15:43:05Z</time>
      </trkpt>
      <trkpt lat="50.061715990304947" lon="-5.224745012819767">
        <ele>64.549999999999997</ele>
        <time>2026-06-23T15:43:06Z</time>
      </trkpt>
      <trkpt lat="50.061825038865209" lon="-5.224895970895886">
        <ele>63.579999999999998</ele>
        <time>2026-06-23T15:43:07Z</time>
      </trkpt>
      <trkpt lat="50.061926040798426" lon="-5.22507400251925">
        <ele>63.100000000000001</ele>
        <time>2026-06-23T15:43:08Z</time>
      </trkpt>
      <trkpt lat="50.062189986929297" lon="-5.225608013570309">
        <ele>60.700000000000003</ele>
        <time>2026-06-23T15:43:11Z</time>
      </trkpt>
      <trkpt lat="50.062257964164019" lon="-5.225816974416375">
        <ele>60.219999999999999</ele>
        <time>2026-06-23T15:43:12Z</time>
      </trkpt>
      <trkpt lat="50.062294006347656" lon="-5.226044040173292">
        <ele>60.219999999999999</ele>
        <time>2026-06-23T15:43:13Z</time>
      </trkpt>
      <trkpt lat="50.062444964423776" lon="-5.227474998682737">
        <ele>60.700000000000003</ele>
        <time>2026-06-23T15:43:19Z</time>
      </trkpt>
      <trkpt lat="50.062503973022103" lon="-5.227684965357184">
        <ele>61.18</ele>
        <time>2026-06-23T15:43:20Z</time>
      </trkpt>
      <trkpt lat="50.062565999105573" lon="-5.227905996143818">
        <ele>61.659999999999997</ele>
        <time>2026-06-23T15:43:21Z</time>
      </trkpt>
      <trkpt lat="50.062885014340281" lon="-5.229393029585481">
        <ele>62.140000000000001</ele>
        <time>2026-06-23T15:43:28Z</time>
      </trkpt>
      <trkpt lat="50.063020968809724" lon="-5.231255991384387">
        <ele>63.579999999999998</ele>
        <time>2026-06-23T15:43:36Z</time>
      </trkpt>
      <trkpt lat="50.063052987679839" lon="-5.231480039656162">
        <ele>63.579999999999998</ele>
        <time>2026-06-23T15:43:37Z</time>
      </trkpt>
      <trkpt lat="50.063119037076831" lon="-5.231911037117243">
        <ele>63.579999999999998</ele>
        <time>2026-06-23T15:43:39Z</time>
      </trkpt>
      <trkpt lat="50.063152983784676" lon="-5.232131984084845">
        <ele>64.069999999999993</ele>
        <time>2026-06-23T15:43:40Z</time>
      </trkpt>
      <trkpt lat="50.063364962115884" lon="-5.232708994299173">
        <ele>64.069999999999993</ele>
        <time>2026-06-23T15:43:43Z</time>
      </trkpt>
      <trkpt lat="50.06346202455461" lon="-5.232891971245408">
        <ele>64.069999999999993</ele>
        <time>2026-06-23T15:43:44Z</time>
      </trkpt>
      <trkpt lat="50.064369030296803" lon="-5.234187981113792">
        <ele>65.030000000000001</ele>
        <time>2026-06-23T15:43:52Z</time>
      </trkpt>
      <trkpt lat="50.064503978937864" lon="-5.234298035502434">
        <ele>65.030000000000001</ele>
        <time>2026-06-23T15:43:53Z</time>
      </trkpt>
      <trkpt lat="50.064653009176254" lon="-5.234379004687071">
        <ele>65.510000000000005</ele>
        <time>2026-06-23T15:43:54Z</time>
      </trkpt>
      <trkpt lat="50.065441997721791" lon="-5.234831962734461">
        <ele>66.950000000000003</ele>
        <time>2026-06-23T15:43:59Z</time>
      </trkpt>
      <trkpt lat="50.065575018525124" lon="-5.234960038214922">
        <ele>67.909999999999997</ele>
        <time>2026-06-23T15:44:00Z</time>
      </trkpt>
      <trkpt lat="50.065688006579876" lon="-5.23512801155448">
        <ele>68.390000000000001</ele>
        <time>2026-06-23T15:44:01Z</time>
      </trkpt>
      <trkpt lat="50.066144987940788" lon="-5.235807029530406">
        <ele>70.310000000000002</ele>
        <time>2026-06-23T15:44:05Z</time>
      </trkpt>
      <trkpt lat="50.066254958510399" lon="-5.235969973728061">
        <ele>70.790000000000006</ele>
        <time>2026-06-23T15:44:06Z</time>
      </trkpt>
      <trkpt lat="50.066378004848957" lon="-5.236101988703013">
        <ele>70.790000000000006</ele>
        <time>2026-06-23T15:44:07Z</time>
      </trkpt>
      <trkpt lat="50.067866966128349" lon="-5.237403027713299">
        <ele>67.909999999999997</ele>
        <time>2026-06-23T15:44:18Z</time>
      </trkpt>
      <trkpt lat="50.069719031453133" lon="-5.238531986251473">
        <ele>68.390000000000001</ele>
        <time>2026-06-23T15:44:30Z</time>
      </trkpt>
      <trkpt lat="50.070863999426365" lon="-5.239328015595675">
        <ele>72.239999999999995</ele>
        <time>2026-06-23T15:44:38Z</time>
      </trkpt>
      <trkpt lat="50.072183981537819" lon="-5.239889016374946">
        <ele>76.079999999999998</ele>
        <time>2026-06-23T15:44:48Z</time>
      </trkpt>
      <trkpt lat="50.072846990078688" lon="-5.240059001371265">
        <ele>77.040000000000006</ele>
        <time>2026-06-23T15:44:58Z</time>
      </trkpt>
      <trkpt lat="50.073105990886688" lon="-5.240081967785955">
        <ele>78.480000000000004</ele>
        <time>2026-06-23T15:45:05Z</time>
      </trkpt>
      <trkpt lat="50.073162987828255" lon="-5.240086996927857">
        <ele>78.969999999999999</ele>
        <time>2026-06-23T15:45:06Z</time>
      </trkpt>
      <trkpt lat="50.073247980326414" lon="-5.240132007747889">
        <ele>78.969999999999999</ele>
        <time>2026-06-23T15:45:07Z</time>
      </trkpt>
      <trkpt lat="50.07336700335145" lon="-5.24013502523303">
        <ele>78.969999999999999</ele>
        <time>2026-06-23T15:45:08Z</time>
      </trkpt>
      <trkpt lat="50.073394998908043" lon="-5.240147011354566">
        <ele>79.450000000000003</ele>
        <time>2026-06-23T15:45:09Z</time>
      </trkpt>
      <trkpt lat="50.073459958657622" lon="-5.240175006911159">
        <ele>79.450000000000003</ele>
        <time>2026-06-23T15:45:10Z</time>
      </trkpt>
      <trkpt lat="50.074318014085293" lon="-5.240573985502124">
        <ele>79.930000000000007</ele>
        <time>2026-06-23T15:45:20Z</time>
      </trkpt>
      <trkpt lat="50.075625004246831" lon="-5.241582999005914">
        <ele>77.519999999999996</ele>
        <time>2026-06-23T15:45:32Z</time>
      </trkpt>
      <trkpt lat="50.077251009643078" lon="-5.243289973586798">
        <ele>76.079999999999998</ele>
        <time>2026-06-23T15:45:45Z</time>
      </trkpt>
      <trkpt lat="50.078506032004952" lon="-5.245137009769678">
        <ele>74.640000000000001</ele>
        <time>2026-06-23T15:45:56Z</time>
      </trkpt>
      <trkpt lat="50.079101985320449" lon="-5.246992008760572">
        <ele>69.349999999999994</ele>
        <time>2026-06-23T15:46:05Z</time>
      </trkpt>
      <trkpt lat="50.079314969480038" lon="-5.249226959422231">
        <ele>67.909999999999997</ele>
        <time>2026-06-23T15:46:14Z</time>
      </trkpt>
      <trkpt lat="50.079551003873348" lon="-5.253388993442059">
        <ele>72.719999999999999</ele>
        <time>2026-06-23T15:46:29Z</time>
      </trkpt>
      <trkpt lat="50.079994993284345" lon="-5.255428981035948">
        <ele>73.200000000000003</ele>
        <time>2026-06-23T15:46:36Z</time>
      </trkpt>
      <trkpt lat="50.080697983503342" lon="-5.256948033347726">
        <ele>73.680000000000007</ele>
        <time>2026-06-23T15:46:43Z</time>
      </trkpt>
      <trkpt lat="50.081543968990445" lon="-5.258464990183711">
        <ele>68.870000000000005</ele>
        <time>2026-06-23T15:46:52Z</time>
      </trkpt>
      <trkpt lat="50.081903971731663" lon="-5.259242998436093">
        <ele>64.549999999999997</ele>
        <time>2026-06-23T15:46:58Z</time>
      </trkpt>
      <trkpt lat="50.082037998363376" lon="-5.259583974257112">
        <ele>61.18</ele>
        <time>2026-06-23T15:47:05Z</time>
      </trkpt>
      <trkpt lat="50.082092983648181" lon="-5.259797964245081">
        <ele>60.219999999999999</ele>
        <time>2026-06-23T15:47:10Z</time>
      </trkpt>
      <trkpt lat="50.082114022225142" lon="-5.259878011420369">
        <ele>59.740000000000002</ele>
        <time>2026-06-23T15:47:11Z</time>
      </trkpt>
      <trkpt lat="50.082273026928306" lon="-5.260816030204296">
        <ele>60.700000000000003</ele>
        <time>2026-06-23T15:47:19Z</time>
      </trkpt>
      <trkpt lat="50.082439994439483" lon="-5.262260986492038">
        <ele>63.100000000000001</ele>
        <time>2026-06-23T15:47:28Z</time>
      </trkpt>
      <trkpt lat="50.082668988034129" lon="-5.263932002708316">
        <ele>68.390000000000001</ele>
        <time>2026-06-23T15:47:40Z</time>
      </trkpt>
      <trkpt lat="50.082732019945979" lon="-5.264229979366064">
        <ele>69.829999999999998</ele>
        <time>2026-06-23T15:47:48Z</time>
      </trkpt>
      <trkpt lat="50.082890018820763" lon="-5.264729959890246">
        <ele>70.790000000000006</ele>
        <time>2026-06-23T15:47:59Z</time>
      </trkpt>
      <trkpt lat="50.083052963018417" lon="-5.265107983723283">
        <ele>71.269999999999996</ele>
        <time>2026-06-23T15:48:11Z</time>
      </trkpt>
      <trkpt lat="50.083259996026754" lon="-5.265532024204731">
        <ele>69.829999999999998</ele>
        <time>2026-06-23T15:48:23Z</time>
      </trkpt>
      <trkpt lat="50.083576999604702" lon="-5.266007026657462">
        <ele>67.909999999999997</ele>
        <time>2026-06-23T15:48:35Z</time>
      </trkpt>
      <trkpt lat="50.084102964028716" lon="-5.266661988571286">
        <ele>65.510000000000005</ele>
        <time>2026-06-23T15:48:46Z</time>
      </trkpt>
      <trkpt lat="50.08464502170682" lon="-5.267266994342208">
        <ele>65.510000000000005</ele>
        <time>2026-06-23T15:48:53Z</time>
      </trkpt>
      <trkpt lat="50.085079958662391" lon="-5.267753982916474">
        <ele>65.989999999999995</ele>
        <time>2026-06-23T15:48:58Z</time>
      </trkpt>
      <trkpt lat="50.085434010252357" lon="-5.268149022012949">
        <ele>69.349999999999994</ele>
        <time>2026-06-23T15:49:05Z</time>
      </trkpt>
      <trkpt lat="50.085988976061344" lon="-5.268702981993556">
        <ele>71.269999999999996</ele>
        <time>2026-06-23T15:49:11Z</time>
      </trkpt>
      <trkpt lat="50.086329029873013" lon="-5.268962988629937">
        <ele>73.680000000000007</ele>
        <time>2026-06-23T15:49:18Z</time>
      </trkpt>
      <trkpt lat="50.086509995162487" lon="-5.269071031361818">
        <ele>75.120000000000005</ele>
        <time>2026-06-23T15:49:22Z</time>
      </trkpt>
      <trkpt lat="50.087093962356448" lon="-5.26926800608635">
        <ele>77.040000000000006</ele>
        <time>2026-06-23T15:49:29Z</time>
      </trkpt>
      <trkpt lat="50.087707014754415" lon="-5.269275968894362">
        <ele>80.890000000000001</ele>
        <time>2026-06-23T15:49:37Z</time>
      </trkpt>
      <trkpt lat="50.088324006646872" lon="-5.269035995006561">
        <ele>79.930000000000007</ele>
        <time>2026-06-23T15:49:45Z</time>
      </trkpt>
      <trkpt lat="50.088496003299952" lon="-5.268917977809906">
        <ele>79.930000000000007</ele>
        <time>2026-06-23T15:49:47Z</time>
      </trkpt>
      <trkpt lat="50.08855601772666" lon="-5.268875984475017">
        <ele>79.450000000000003</ele>
        <time>2026-06-23T15:49:48Z</time>
      </trkpt>
      <trkpt lat="50.088864974677563" lon="-5.268665011972189">
        <ele>78</ele>
        <time>2026-06-23T15:49:54Z</time>
      </trkpt>
      <trkpt lat="50.08939596824348" lon="-5.268046008422971">
        <ele>76.079999999999998</ele>
        <time>2026-06-23T15:50:02Z</time>
      </trkpt>
      <trkpt lat="50.090002985671163" lon="-5.267143025994301">
        <ele>73.680000000000007</ele>
        <time>2026-06-23T15:50:12Z</time>
      </trkpt>
      <trkpt lat="50.090693989768624" lon="-5.266063017770648">
        <ele>69.829999999999998</ele>
        <time>2026-06-23T15:50:22Z</time>
      </trkpt>
      <trkpt lat="50.09141500107944" lon="-5.264931041747332">
        <ele>68.390000000000001</ele>
        <time>2026-06-23T15:50:33Z</time>
      </trkpt>
      <trkpt lat="50.091762011870742" lon="-5.264372974634171">
        <ele>68.390000000000001</ele>
        <time>2026-06-23T15:50:43Z</time>
      </trkpt>
      <trkpt lat="50.091900983825326" lon="-5.264170970767736">
        <ele>68.870000000000005</ele>
        <time>2026-06-23T15:50:51Z</time>
      </trkpt>
      <trkpt lat="50.091936020180583" lon="-5.264175999909639">
        <ele>68.870000000000005</ele>
        <time>2026-06-23T15:50:52Z</time>
      </trkpt>
      <trkpt lat="50.091978013515472" lon="-5.264183040708304">
        <ele>68.870000000000005</ele>
        <time>2026-06-23T15:50:53Z</time>
      </trkpt>
      <trkpt lat="50.092044984921813" lon="-5.264240959659219">
        <ele>68.870000000000005</ele>
        <time>2026-06-23T15:50:54Z</time>
      </trkpt>
      <trkpt lat="50.092072980478406" lon="-5.26428597047925">
        <ele>68.870000000000005</ele>
        <time>2026-06-23T15:50:55Z</time>
      </trkpt>
      <trkpt lat="50.092101981863379" lon="-5.264332992956042">
        <ele>68.870000000000005</ele>
        <time>2026-06-23T15:50:56Z</time>
      </trkpt>
      <trkpt lat="50.092528034001589" lon="-5.264859041199088">
        <ele>68.390000000000001</ele>
        <time>2026-06-23T15:51:03Z</time>
      </trkpt>
      <trkpt lat="50.093301013112068" lon="-5.265755988657475">
        <ele>66.469999999999999</ele>
        <time>2026-06-23T15:51:14Z</time>
      </trkpt>
      <trkpt lat="50.094149010255933" lon="-5.26684395968914">
        <ele>62.140000000000001</ele>
        <time>2026-06-23T15:51:24Z</time>
      </trkpt>
      <trkpt lat="50.095126004889607" lon="-5.26810803450644">
        <ele>58.780000000000001</ele>
        <time>2026-06-23T15:51:36Z</time>
      </trkpt>
      <trkpt lat="50.095708966255188" lon="-5.268830973654985">
        <ele>59.740000000000002</ele>
        <time>2026-06-23T15:51:46Z</time>
      </trkpt>
      <trkpt lat="50.095842992886901" lon="-5.268978998064995">
        <ele>61.18</ele>
        <time>2026-06-23T15:51:56Z</time>
      </trkpt>
      <trkpt lat="50.095918010920286" lon="-5.269061978906393">
        <ele>61.18</ele>
        <time>2026-06-23T15:51:58Z</time>
      </trkpt>
      <trkpt lat="50.096273990347981" lon="-5.269436985254288">
        <ele>62.619999999999997</ele>
        <time>2026-06-23T15:52:09Z</time>
      </trkpt>
      <trkpt lat="50.0962920114398" lon="-5.269455006346107">
        <ele>62.619999999999997</ele>
        <time>2026-06-23T15:52:10Z</time>
      </trkpt>
      <trkpt lat="50.096308020874858" lon="-5.269471015781164">
        <ele>62.619999999999997</ele>
        <time>2026-06-23T15:52:11Z</time>
      </trkpt>
      <trkpt lat="50.096533996984363" lon="-5.269696991890669">
        <ele>61.659999999999997</ele>
        <time>2026-06-23T15:52:25Z</time>
      </trkpt>
      <trkpt lat="50.096702976152301" lon="-5.269878963008523">
        <ele>60.700000000000003</ele>
        <time>2026-06-23T15:52:33Z</time>
      </trkpt>
      <trkpt lat="50.096760978922248" lon="-5.269952975213528">
        <ele>61.18</ele>
        <time>2026-06-23T15:52:38Z</time>
      </trkpt>
      <trkpt lat="50.096819987520576" lon="-5.270025981590152">
        <ele>61.659999999999997</ele>
        <time>2026-06-23T15:52:39Z</time>
      </trkpt>
      <trkpt lat="50.096825016662478" lon="-5.270053977146745">
        <ele>61.659999999999997</ele>
        <time>2026-06-23T15:52:40Z</time>
      </trkpt>
      <trkpt lat="50.096831973642111" lon="-5.270182974636555">
        <ele>61.659999999999997</ele>
        <time>2026-06-23T15:52:41Z</time>
      </trkpt>
      <trkpt lat="50.096803978085518" lon="-5.270266961306334">
        <ele>61.659999999999997</ele>
        <time>2026-06-23T15:52:42Z</time>
      </trkpt>
      <trkpt lat="50.096770031377673" lon="-5.270367963239551">
        <ele>61.18</ele>
        <time>2026-06-23T15:52:43Z</time>
      </trkpt>
      <trkpt lat="50.096737006679177" lon="-5.270467959344387">
        <ele>61.18</ele>
        <time>2026-06-23T15:52:44Z</time>
      </trkpt>
      <trkpt lat="50.096704987809062" lon="-5.270564015954733">
        <ele>61.18</ele>
        <time>2026-06-23T15:52:45Z</time>
      </trkpt>
      <trkpt lat="50.096404999494553" lon="-5.271465992555022">
        <ele>60.700000000000003</ele>
        <time>2026-06-23T15:52:52Z</time>
      </trkpt>
      <trkpt lat="50.096368035301566" lon="-5.271795988082886">
        <ele>60.219999999999999</ele>
        <time>2026-06-23T15:52:54Z</time>
      </trkpt>
      <trkpt lat="50.096351020038128" lon="-5.271953986957669">
        <ele>60.219999999999999</ele>
        <time>2026-06-23T15:52:55Z</time>
      </trkpt>
      <trkpt lat="50.096359988674521" lon="-5.272110980004072">
        <ele>59.740000000000002</ele>
        <time>2026-06-23T15:52:56Z</time>
      </trkpt>
      <trkpt lat="50.096374992281199" lon="-5.272260010242462">
        <ele>59.740000000000002</ele>
        <time>2026-06-23T15:52:57Z</time>
      </trkpt>
      <trkpt lat="50.096388990059495" lon="-5.272409040480852">
        <ele>59.740000000000002</ele>
        <time>2026-06-23T15:52:58Z</time>
      </trkpt>
      <trkpt lat="50.096454033628106" lon="-5.272681033238769">
        <ele>58.299999999999997</ele>
        <time>2026-06-23T15:53:00Z</time>
      </trkpt>
      <trkpt lat="50.096488986164331" lon="-5.272824028506875">
        <ele>57.82</ele>
        <time>2026-06-23T15:53:01Z</time>
      </trkpt>
      <trkpt lat="50.096531985327601" lon="-5.272975992411375">
        <ele>57.340000000000003</ele>
        <time>2026-06-23T15:53:02Z</time>
      </trkpt>
      <trkpt lat="50.096594011411071" lon="-5.273129967972636">
        <ele>56.859999999999999</ele>
        <time>2026-06-23T15:53:03Z</time>
      </trkpt>
      <trkpt lat="50.096659976989031" lon="-5.2732889726758">
        <ele>55.890000000000001</ele>
        <time>2026-06-23T15:53:04Z</time>
      </trkpt>
      <trkpt lat="50.096739018335938" lon="-5.273452000692487">
        <ele>55.409999999999997</ele>
        <time>2026-06-23T15:53:05Z</time>
      </trkpt>
      <trkpt lat="50.09683096781373" lon="-5.273578986525536">
        <ele>54.450000000000003</ele>
        <time>2026-06-23T15:53:06Z</time>
      </trkpt>
      <trkpt lat="50.097572011873126" lon="-5.274601997807622">
        <ele>41.469999999999999</ele>
        <time>2026-06-23T15:53:14Z</time>
      </trkpt>
      <trkpt lat="50.097639989107847" lon="-5.274752033874393">
        <ele>40.030000000000001</ele>
        <time>2026-06-23T15:53:15Z</time>
      </trkpt>
      <trkpt lat="50.097692040726542" lon="-5.274932999163866">
        <ele>38.590000000000003</ele>
        <time>2026-06-23T15:53:16Z</time>
      </trkpt>
      <trkpt lat="50.097744008526206" lon="-5.275112958624959">
        <ele>36.670000000000002</ele>
        <time>2026-06-23T15:53:17Z</time>
      </trkpt>
      <trkpt lat="50.09779698215425" lon="-5.275295013561845">
        <ele>35.229999999999997</ele>
        <time>2026-06-23T15:53:18Z</time>
      </trkpt>
      <trkpt lat="50.097849033772945" lon="-5.275476984679699">
        <ele>33.780000000000001</ele>
        <time>2026-06-23T15:53:19Z</time>
      </trkpt>
      <trkpt lat="50.098134018480778" lon="-5.276599992066622">
        <ele>25.609999999999999</ele>
        <time>2026-06-23T15:53:25Z</time>
      </trkpt>
      <trkpt lat="50.098210964351892" lon="-5.276749022305012">
        <ele>24.649999999999999</ele>
        <time>2026-06-23T15:53:26Z</time>
      </trkpt>
      <trkpt lat="50.098286988213658" lon="-5.27689503505826">
        <ele>23.690000000000001</ele>
        <time>2026-06-23T15:53:27Z</time>
      </trkpt>
      <trkpt lat="50.098359994590282" lon="-5.277035012841225">
        <ele>22.25</ele>
        <time>2026-06-23T15:53:28Z</time>
      </trkpt>
      <trkpt lat="50.098434006795287" lon="-5.277148000895977">
        <ele>20.809999999999999</ele>
        <time>2026-06-23T15:53:29Z</time>
      </trkpt>
      <trkpt lat="50.098874978721142" lon="-5.277711013332009">
        <ele>12.15</ele>
        <time>2026-06-23T15:53:37Z</time>
      </trkpt>
      <trkpt lat="50.098994001746178" lon="-5.277842022478581">
        <ele>10.710000000000001</ele>
        <time>2026-06-23T15:53:39Z</time>
      </trkpt>
      <trkpt lat="50.099029960110784" lon="-5.277964984998107">
        <ele>9.75</ele>
        <time>2026-06-23T15:53:40Z</time>
      </trkpt>
      <trkpt lat="50.099159041419625" lon="-5.278179980814457">
        <ele>7.83</ele>
        <time>2026-06-23T15:53:43Z</time>
      </trkpt>
      <trkpt lat="50.099265994504094" lon="-5.278330016881228">
        <ele>7.35</ele>
        <time>2026-06-23T15:53:44Z</time>
      </trkpt>
      <trkpt lat="50.099392980337143" lon="-5.27855004183948">
        <ele>4.94</ele>
        <time>2026-06-23T15:53:48Z</time>
      </trkpt>
      <trkpt lat="50.099417036399245" lon="-5.27859203517437">
        <ele>4.94</ele>
        <time>2026-06-23T15:53:49Z</time>
      </trkpt>
      <trkpt lat="50.099433967843652" lon="-5.278621036559343">
        <ele>3.98</ele>
        <time>2026-06-23T15:53:50Z</time>
      </trkpt>
      <trkpt lat="50.09945098310709" lon="-5.278650037944317">
        <ele>3.5</ele>
        <time>2026-06-23T15:53:51Z</time>
      </trkpt>
      <trkpt lat="50.099466992542148" lon="-5.27867803350091">
        <ele>3.02</ele>
        <time>2026-06-23T15:53:52Z</time>
      </trkpt>
      <trkpt lat="50.099522983655334" lon="-5.278775012120605">
        <ele>2.06</ele>
        <time>2026-06-23T15:53:55Z</time>
      </trkpt>
      <trkpt lat="50.099561037495732" lon="-5.278840977698565">
        <ele>1.58</ele>
        <time>2026-06-23T15:53:56Z</time>
      </trkpt>
      <trkpt lat="50.099601019173861" lon="-5.278907027095556">
        <ele>1.1</ele>
        <time>2026-06-23T15:53:57Z</time>
      </trkpt>
      <trkpt lat="50.099646029993892" lon="-5.278973998501897">
        <ele>0.62</ele>
        <time>2026-06-23T15:53:58Z</time>
      </trkpt>
      <trkpt lat="50.099691040813923" lon="-5.279041975736618">
        <ele>0.62</ele>
        <time>2026-06-23T15:53:59Z</time>
      </trkpt>
      <trkpt lat="50.099732028320432" lon="-5.279102995991707">
        <ele>0.14</ele>
        <time>2026-06-23T15:54:00Z</time>
      </trkpt>
      <trkpt lat="50.09977200999856" lon="-5.279163010418415">
        <ele>-0.34</ele>
        <time>2026-06-23T15:54:01Z</time>
      </trkpt>
      <trkpt lat="50.099809980019927" lon="-5.279220007359982">
        <ele>-0.82</ele>
        <time>2026-06-23T15:54:02Z</time>
      </trkpt>
      <trkpt lat="50.100128995254636" lon="-5.279669025912881">
        <ele>-1.79</ele>
        <time>2026-06-23T15:54:09Z</time>
      </trkpt>
      <trkpt lat="50.100529985502362" lon="-5.280173029750586">
        <ele>-0.82</ele>
        <time>2026-06-23T15:54:19Z</time>
      </trkpt>
      <trkpt lat="50.100554963573813" lon="-5.280203958973289">
        <ele>-0.34</ele>
        <time>2026-06-23T15:54:20Z</time>
      </trkpt>
      <trkpt lat="50.100448010489345" lon="-5.280070016160607">
        <ele>1.58</ele>
        <time>2026-06-23T15:54:25Z</time>
      </trkpt>
      <trkpt lat="50.100293029099703" lon="-5.279875975102186">
        <ele>5.91</ele>
        <time>2026-06-23T15:54:30Z</time>
      </trkpt>
      <trkpt lat="50.100123966112733" lon="-5.28016297146678">
        <ele>7.35</ele>
        <time>2026-06-23T15:54:39Z</time>
      </trkpt>
      <trkpt lat="50.100122038275003" lon="-5.280157020315528">
        <ele>7.83</ele>
        <time>2026-06-23T15:55:30Z</time>
      </trkpt>
      <trkpt lat="50.100124971941113" lon="-5.280159031972289">
        <ele>7.35</ele>
        <time>2026-06-23T15:56:27Z</time>
      </trkpt>
      <trkpt lat="50.100124971941113" lon="-5.280160959810019">
        <ele>8.310000000000001</ele>
        <time>2026-06-23T15:57:16Z</time>
      </trkpt>
      <trkpt lat="50.100123966112733" lon="-5.28016397729516">
        <ele>8.789999999999999</ele>
        <time>2026-06-23T15:58:13Z</time>
      </trkpt>
      <trkpt lat="50.100120026618242" lon="-5.280174035578966">
        <ele>8.789999999999999</ele>
        <time>2026-06-23T15:59:04Z</time>
      </trkpt>
      <trkpt lat="50.10011600330472" lon="-5.280176969245076">
        <ele>8.310000000000001</ele>
        <time>2026-06-23T15:59:48Z</time>
      </trkpt>
      <trkpt lat="50.100105023011565" lon="-5.280178980901837">
        <ele>8.789999999999999</ele>
        <time>2026-06-23T16:00:42Z</time>
      </trkpt>
      <trkpt lat="50.100103011354804" lon="-5.280175041407347">
        <ele>8.310000000000001</ele>
        <time>2026-06-23T16:01:44Z</time>
      </trkpt>
      <trkpt lat="50.100107034668326" lon="-5.280177975073457">
        <ele>7.83</ele>
        <time>2026-06-23T16:02:50Z</time>
      </trkpt>
      <trkpt lat="50.100105023011565" lon="-5.280179986730218">
        <ele>7.83</ele>
        <time>2026-06-23T16:03:47Z</time>
      </trkpt>
      <trkpt lat="50.100100999698043" lon="-5.280180992558599">
        <ele>7.35</ele>
        <time>2026-06-23T16:04:30Z</time>
      </trkpt>
      <trkpt lat="50.100107034668326" lon="-5.280189961194992">
        <ele>6.87</ele>
        <time>2026-06-23T16:05:14Z</time>
      </trkpt>
      <trkpt lat="50.100088007748127" lon="-5.280250981450081">
        <ele>6.39</ele>
        <time>2026-06-23T16:05:23Z</time>
      </trkpt>
      <trkpt lat="50.100194038823247" lon="-5.280390037223697">
        <ele>5.42</ele>
        <time>2026-06-23T16:05:30Z</time>
      </trkpt>
      <trkpt lat="50.100617995485663" lon="-5.280283000320196">
        <ele>3.98</ele>
        <time>2026-06-23T16:05:37Z</time>
      </trkpt>
      <trkpt lat="50.100617995485663" lon="-5.280283000320196">
        <ele>3.98</ele>
        <time>2026-06-23T16:05:38Z</time>
      </trkpt>
      <trkpt lat="50.100617995485663" lon="-5.280283000320196">
        <ele>3.5</ele>
        <time>2026-06-23T16:05:39Z</time>
      </trkpt>
      <trkpt lat="50.100617995485663" lon="-5.280283000320196">
        <ele>3.5</ele>
        <time>2026-06-23T16:05:40Z</time>
      </trkpt>
      <trkpt lat="50.100617995485663" lon="-5.280283000320196">
        <ele>3.98</ele>
        <time>2026-06-23T16:05:41Z</time>
      </trkpt>
      <trkpt lat="50.100629981607199" lon="-5.280293980613351">
        <ele>4.46</ele>
        <time>2026-06-23T16:05:49Z</time>
      </trkpt>
      <trkpt lat="50.10067599825561" lon="-5.280338991433382">
        <ele>4.46</ele>
        <time>2026-06-23T16:05:50Z</time>
      </trkpt>
      <trkpt lat="50.100740035995841" lon="-5.280402023345232">
        <ele>4.46</ele>
        <time>2026-06-23T16:05:51Z</time>
      </trkpt>
      <trkpt lat="50.101776961237192" lon="-5.281385974958539">
        <ele>4.94</ele>
        <time>2026-06-23T16:06:03Z</time>
      </trkpt>
      <trkpt lat="50.102937016636133" lon="-5.282475035637617">
        <ele>10.710000000000001</ele>
        <time>2026-06-23T16:06:13Z</time>
      </trkpt>
      <trkpt lat="50.103691974654794" lon="-5.283410036936402">
        <ele>15.52</ele>
        <time>2026-06-23T16:06:20Z</time>
      </trkpt>
      <trkpt lat="50.103907976299524" lon="-5.283943964168429">
        <ele>17.440000000000001</ele>
        <time>2026-06-23T16:06:23Z</time>
      </trkpt>
      <trkpt lat="50.103974025696516" lon="-5.284129036590457">
        <ele>17.920000000000002</ele>
        <time>2026-06-23T16:06:24Z</time>
      </trkpt>
      <trkpt lat="50.104149039834738" lon="-5.28469598852098">
        <ele>20.809999999999999</ele>
        <time>2026-06-23T16:06:27Z</time>
      </trkpt>
      <trkpt lat="50.104288011789322" lon="-5.285507021471858">
        <ele>24.170000000000002</ele>
        <time>2026-06-23T16:06:31Z</time>
      </trkpt>
      <trkpt lat="50.104295974597335" lon="-5.28570600785315">
        <ele>24.649999999999999</ele>
        <time>2026-06-23T16:06:32Z</time>
      </trkpt>
      <trkpt lat="50.104303015395999" lon="-5.285889990627766">
        <ele>26.09</ele>
        <time>2026-06-23T16:06:33Z</time>
      </trkpt>
      <trkpt lat="50.104331010952592" lon="-5.286618964746594">
        <ele>29.940000000000001</ele>
        <time>2026-06-23T16:06:39Z</time>
      </trkpt>
      <trkpt lat="50.104376021772623" lon="-5.287774996832013">
        <ele>36.670000000000002</ele>
        <time>2026-06-23T16:06:49Z</time>
      </trkpt>
      <trkpt lat="50.104392031207681" lon="-5.288002984598279">
        <ele>37.149999999999999</ele>
        <time>2026-06-23T16:06:51Z</time>
      </trkpt>
      <trkpt lat="50.104399994015694" lon="-5.28811102733016">
        <ele>37.630000000000003</ele>
        <time>2026-06-23T16:06:52Z</time>
      </trkpt>
      <trkpt lat="50.104509964585304" lon="-5.288881994783878">
        <ele>43.399999999999999</ele>
        <time>2026-06-23T16:07:01Z</time>
      </trkpt>
      <trkpt lat="50.10462798178196" lon="-5.289259012788534">
        <ele>46.280000000000001</ele>
        <time>2026-06-23T16:07:06Z</time>
      </trkpt>
      <trkpt lat="50.105050010606647" lon="-5.290133999660611">
        <ele>51.090000000000003</ele>
        <time>2026-06-23T16:07:17Z</time>
      </trkpt>
      <trkpt lat="50.105401966720819" lon="-5.290934974327683">
        <ele>56.859999999999999</ele>
        <time>2026-06-23T16:07:24Z</time>
      </trkpt>
      <trkpt lat="50.105891972780228" lon="-5.292098969221115">
        <ele>61.18</ele>
        <time>2026-06-23T16:07:34Z</time>
      </trkpt>
      <trkpt lat="50.106035973876715" lon="-5.292441034689546">
        <ele>65.989999999999995</ele>
        <time>2026-06-23T16:07:40Z</time>
      </trkpt>
      <trkpt lat="50.106053994968534" lon="-5.292485039681196">
        <ele>66.950000000000003</ele>
        <time>2026-06-23T16:07:41Z</time>
      </trkpt>
      <trkpt lat="50.106080984696746" lon="-5.292549999430776">
        <ele>67.909999999999997</ele>
        <time>2026-06-23T16:07:42Z</time>
      </trkpt>
      <trkpt lat="50.106115015223622" lon="-5.292629962787032">
        <ele>68.870000000000005</ele>
        <time>2026-06-23T16:07:43Z</time>
      </trkpt>
      <trkpt lat="50.106569984927773" lon="-5.293711982667446">
        <ele>75.599999999999994</ele>
        <time>2026-06-23T16:07:53Z</time>
      </trkpt>
      <trkpt lat="50.106622036546469" lon="-5.293835029006004">
        <ele>76.079999999999998</ele>
        <time>2026-06-23T16:07:54Z</time>
      </trkpt>
      <trkpt lat="50.10690601542592" lon="-5.294513963162899">
        <ele>78.480000000000004</ele>
        <time>2026-06-23T16:08:00Z</time>
      </trkpt>
      <trkpt lat="50.106996037065983" lon="-5.29496599920094">
        <ele>79.930000000000007</ele>
        <time>2026-06-23T16:08:04Z</time>
      </trkpt>
      <trkpt lat="50.10703400708735" lon="-5.296180034056306">
        <ele>83.769999999999996</ele>
        <time>2026-06-23T16:08:11Z</time>
      </trkpt>
      <trkpt lat="50.107053034007549" lon="-5.298787979409099">
        <ele>85.689999999999998</ele>
        <time>2026-06-23T16:08:22Z</time>
      </trkpt>
      <trkpt lat="50.107076000422239" lon="-5.301726004108787">
        <ele>79.450000000000003</ele>
        <time>2026-06-23T16:08:33Z</time>
      </trkpt>
      <trkpt lat="50.106713986024261" lon="-5.30439798720181">
        <ele>69.829999999999998</ele>
        <time>2026-06-23T16:08:43Z</time>
      </trkpt>
      <trkpt lat="50.10619699023664" lon="-5.30727599747479">
        <ele>61.18</ele>
        <time>2026-06-23T16:08:54Z</time>
      </trkpt>
      <trkpt lat="50.106133036315441" lon="-5.308452984318137">
        <ele>58.299999999999997</ele>
        <time>2026-06-23T16:08:59Z</time>
      </trkpt>
      <trkpt lat="50.106076039373875" lon="-5.308659011498094">
        <ele>57.82</ele>
        <time>2026-06-23T16:09:00Z</time>
      </trkpt>
      <trkpt lat="50.10602499358356" lon="-5.308842994272709">
        <ele>57.340000000000003</ele>
        <time>2026-06-23T16:09:01Z</time>
      </trkpt>
      <trkpt lat="50.105947041884065" lon="-5.309046003967524">
        <ele>56.859999999999999</ele>
        <time>2026-06-23T16:09:02Z</time>
      </trkpt>
      <trkpt lat="50.105874035507441" lon="-5.309236021712422">
        <ele>56.369999999999997</ele>
        <time>2026-06-23T16:09:03Z</time>
      </trkpt>
      <trkpt lat="50.105801029130816" lon="-5.30942696146667">
        <ele>55.890000000000001</ele>
        <time>2026-06-23T16:09:04Z</time>
      </trkpt>
      <trkpt lat="50.105719976127148" lon="-5.309637011960149">
        <ele>54.93</ele>
        <time>2026-06-23T16:09:05Z</time>
      </trkpt>
      <trkpt lat="50.104995025321841" lon="-5.311525035649538">
        <ele>43.880000000000003</ele>
        <time>2026-06-23T16:09:14Z</time>
      </trkpt>
      <trkpt lat="50.104787992313504" lon="-5.311954021453857">
        <ele>41.950000000000003</ele>
        <time>2026-06-23T16:09:16Z</time>
      </trkpt>
      <trkpt lat="50.104276025667787" lon="-5.312976026907563">
        <ele>37.630000000000003</ele>
        <time>2026-06-23T16:09:21Z</time>
      </trkpt>
      <trkpt lat="50.103741008788347" lon="-5.314041031524539">
        <ele>32.82</ele>
        <time>2026-06-23T16:09:26Z</time>
      </trkpt>
      <trkpt lat="50.103073976933956" lon="-5.315576009452343">
        <ele>26.09</ele>
        <time>2026-06-23T16:09:33Z</time>
      </trkpt>
      <trkpt lat="50.102708023041487" lon="-5.316500030457974">
        <ele>22.25</ele>
        <time>2026-06-23T16:09:37Z</time>
      </trkpt>
      <trkpt lat="50.102631999179721" lon="-5.316735981032252">
        <ele>21.289999999999999</ele>
        <time>2026-06-23T16:09:38Z</time>
      </trkpt>
      <trkpt lat="50.102228997275233" lon="-5.318529959768057">
        <ele>16.960000000000001</ele>
        <time>2026-06-23T16:09:45Z</time>
      </trkpt>
      <trkpt lat="50.10153598152101" lon="-5.32006099820137">
        <ele>16</ele>
        <time>2026-06-23T16:09:52Z</time>
      </trkpt>
      <trkpt lat="50.100900968536735" lon="-5.320908995345235">
        <ele>19.84</ele>
        <time>2026-06-23T16:09:59Z</time>
      </trkpt>
      <trkpt lat="50.100865010172129" lon="-5.32096004113555">
        <ele>20.32</ele>
        <time>2026-06-23T16:10:00Z</time>
      </trkpt>
      <trkpt lat="50.100745987147093" lon="-5.321126002818346">
        <ele>23.690000000000001</ele>
        <time>2026-06-23T16:10:04Z</time>
      </trkpt>
      <trkpt lat="50.100672980770469" lon="-5.321229016408324">
        <ele>25.129999999999999</ele>
        <time>2026-06-23T16:10:06Z</time>
      </trkpt>
      <trkpt lat="50.100585976615548" lon="-5.32134996727109">
        <ele>26.57</ele>
        <time>2026-06-23T16:10:08Z</time>
      </trkpt>
      <trkpt lat="50.10052403435111" lon="-5.321465972810984">
        <ele>28.02</ele>
        <time>2026-06-23T16:10:10Z</time>
      </trkpt>
      <trkpt lat="50.100496038794518" lon="-5.321533028036356">
        <ele>28.98</ele>
        <time>2026-06-23T16:10:11Z</time>
      </trkpt>
      <trkpt lat="50.100381039083004" lon="-5.321804014965892">
        <ele>31.379999999999999</ele>
        <time>2026-06-23T16:10:14Z</time>
      </trkpt>
      <trkpt lat="50.100336028262973" lon="-5.321909040212631">
        <ele>31.859999999999999</ele>
        <time>2026-06-23T16:10:15Z</time>
      </trkpt>
      <trkpt lat="50.100242989137769" lon="-5.322270970791578">
        <ele>33.780000000000001</ele>
        <time>2026-06-23T16:10:18Z</time>
      </trkpt>
      <trkpt lat="50.10017903521657" lon="-5.322690987959504">
        <ele>36.670000000000002</ele>
        <time>2026-06-23T16:10:22Z</time>
      </trkpt>
      <trkpt lat="50.100166965276003" lon="-5.322814034298062">
        <ele>37.149999999999999</ele>
        <time>2026-06-23T16:10:23Z</time>
      </trkpt>
      <trkpt lat="50.100166965276003" lon="-5.32345499843359">
        <ele>38.590000000000003</ele>
        <time>2026-06-23T16:10:27Z</time>
      </trkpt>
      <trkpt lat="50.100194960832596" lon="-5.323623977601528">
        <ele>39.07</ele>
        <time>2026-06-23T16:10:28Z</time>
      </trkpt>
      <trkpt lat="50.100232008844614" lon="-5.323793962597847">
        <ele>39.549999999999997</ele>
        <time>2026-06-23T16:10:29Z</time>
      </trkpt>
      <trkpt lat="50.100269978865981" lon="-5.323965959250927">
        <ele>40.030000000000001</ele>
        <time>2026-06-23T16:10:30Z</time>
      </trkpt>
      <trkpt lat="50.10030903853476" lon="-5.324146002531052">
        <ele>40.030000000000001</ele>
        <time>2026-06-23T16:10:31Z</time>
      </trkpt>
      <trkpt lat="50.100366035476327" lon="-5.324312970042229">
        <ele>40.509999999999998</ele>
        <time>2026-06-23T16:10:32Z</time>
      </trkpt>
      <trkpt lat="50.100428983569145" lon="-5.324479015544057">
        <ele>40.990000000000002</ele>
        <time>2026-06-23T16:10:33Z</time>
      </trkpt>
      <trkpt lat="50.100493021309376" lon="-5.324642965570092">
        <ele>40.990000000000002</ele>
        <time>2026-06-23T16:10:34Z</time>
      </trkpt>
      <trkpt lat="50.100574996322393" lon="-5.324784033000469">
        <ele>41.469999999999999</ele>
        <time>2026-06-23T16:10:35Z</time>
      </trkpt>
      <trkpt lat="50.101003982126713" lon="-5.32551895827055">
        <ele>44.359999999999999</ele>
        <time>2026-06-23T16:10:40Z</time>
      </trkpt>
      <trkpt lat="50.101224007084966" lon="-5.325780976563692">
        <ele>45.799999999999997</ele>
        <time>2026-06-23T16:10:42Z</time>
      </trkpt>
      <trkpt lat="50.101455012336373" lon="-5.325996978208423">
        <ele>46.280000000000001</ele>
        <time>2026-06-23T16:10:44Z</time>
      </trkpt>
      <trkpt lat="50.101692974567413" lon="-5.326174004003406">
        <ele>46.280000000000001</ele>
        <time>2026-06-23T16:10:46Z</time>
      </trkpt>
      <trkpt lat="50.101945018395782" lon="-5.326361004263163">
        <ele>46.280000000000001</ele>
        <time>2026-06-23T16:10:48Z</time>
      </trkpt>
      <trkpt lat="50.102476011961699" lon="-5.326754031702876">
        <ele>47.240000000000002</ele>
        <time>2026-06-23T16:10:52Z</time>
      </trkpt>
      <trkpt lat="50.102605009451509" lon="-5.326851010322571">
        <ele>48.200000000000003</ele>
        <time>2026-06-23T16:10:53Z</time>
      </trkpt>
      <trkpt lat="50.103621985763311" lon="-5.327767990529537">
        <ele>55.409999999999997</ele>
        <time>2026-06-23T16:11:01Z</time>
      </trkpt>
      <trkpt lat="50.10372499935329" lon="-5.327939987182617">
        <ele>56.369999999999997</ele>
        <time>2026-06-23T16:11:02Z</time>
      </trkpt>
      <trkpt lat="50.104468977078795" lon="-5.329451998695731">
        <ele>65.510000000000005</ele>
        <time>2026-06-23T16:11:10Z</time>
      </trkpt>
      <trkpt lat="50.105282021686435" lon="-5.330883041024208">
        <ele>71.760000000000005</ele>
        <time>2026-06-23T16:11:18Z</time>
      </trkpt>
      <trkpt lat="50.10559500195086" lon="-5.331415040418506">
        <ele>74.159999999999997</ele>
        <time>2026-06-23T16:11:22Z</time>
      </trkpt>
      <trkpt lat="50.105868000537157" lon="-5.331990038976073">
        <ele>75.599999999999994</ele>
        <time>2026-06-23T16:11:26Z</time>
      </trkpt>
      <trkpt lat="50.105930026620626" lon="-5.332150971516967">
        <ele>76.079999999999998</ele>
        <time>2026-06-23T16:11:27Z</time>
      </trkpt>
      <trkpt lat="50.106162037700415" lon="-5.332733010873199">
        <ele>79.450000000000003</ele>
        <time>2026-06-23T16:11:31Z</time>
      </trkpt>
      <trkpt lat="50.106243006885052" lon="-5.332848010584712">
        <ele>80.409999999999997</ele>
        <time>2026-06-23T16:11:32Z</time>
      </trkpt>
      <trkpt lat="50.106332022696733" lon="-5.332955969497562">
        <ele>81.370000000000005</ele>
        <time>2026-06-23T16:11:33Z</time>
      </trkpt>
      <trkpt lat="50.106431012973189" lon="-5.33305898308754">
        <ele>82.329999999999998</ele>
        <time>2026-06-23T16:11:34Z</time>
      </trkpt>
      <trkpt lat="50.106549030169845" lon="-5.333154033869505">
        <ele>83.290000000000006</ele>
        <time>2026-06-23T16:11:35Z</time>
      </trkpt>
      <trkpt lat="50.107012968510389" lon="-5.333527028560638">
        <ele>85.689999999999998</ele>
        <time>2026-06-23T16:11:39Z</time>
      </trkpt>
      <trkpt lat="50.107123022899032" lon="-5.333615960553289">
        <ele>85.689999999999998</ele>
        <time>2026-06-23T16:11:40Z</time>
      </trkpt>
      <trkpt lat="50.107352016493678" lon="-5.333827016875148">
        <ele>86.180000000000007</ele>
        <time>2026-06-23T16:11:42Z</time>
      </trkpt>
      <trkpt lat="50.107470033690333" lon="-5.333937993273139">
        <ele>86.180000000000007</ele>
        <time>2026-06-23T16:11:43Z</time>
      </trkpt>
      <trkpt lat="50.107583021745086" lon="-5.334075959399343">
        <ele>86.180000000000007</ele>
        <time>2026-06-23T16:11:44Z</time>
      </trkpt>
      <trkpt lat="50.107671031728387" lon="-5.33423999324441">
        <ele>86.180000000000007</ele>
        <time>2026-06-23T16:11:45Z</time>
      </trkpt>
      <trkpt lat="50.107759963721037" lon="-5.334406960755587">
        <ele>85.689999999999998</ele>
        <time>2026-06-23T16:11:46Z</time>
      </trkpt>
      <trkpt lat="50.107849985361099" lon="-5.334574012085795">
        <ele>85.689999999999998</ele>
        <time>2026-06-23T16:11:47Z</time>
      </trkpt>
      <trkpt lat="50.107919974252582" lon="-5.33477702178061">
        <ele>85.689999999999998</ele>
        <time>2026-06-23T16:11:48Z</time>
      </trkpt>
      <trkpt lat="50.107982000336051" lon="-5.334981037303805">
        <ele>86.659999999999997</ele>
        <time>2026-06-23T16:11:49Z</time>
      </trkpt>
      <trkpt lat="50.108032040297985" lon="-5.33518698066473">
        <ele>87.140000000000001</ele>
        <time>2026-06-23T16:11:50Z</time>
      </trkpt>
      <trkpt lat="50.108058024197817" lon="-5.335384039208293">
        <ele>88.099999999999994</ele>
        <time>2026-06-23T16:11:51Z</time>
      </trkpt>
      <trkpt lat="50.108083002269268" lon="-5.33557103946805">
        <ele>88.099999999999994</ele>
        <time>2026-06-23T16:11:52Z</time>
      </trkpt>
      <trkpt lat="50.108052995055914" lon="-5.337562998756766">
        <ele>93.390000000000001</ele>
        <time>2026-06-23T16:12:03Z</time>
      </trkpt>
      <trkpt lat="50.107853002846241" lon="-5.339657971635461">
        <ele>97.230000000000004</ele>
        <time>2026-06-23T16:12:14Z</time>
      </trkpt>
      <trkpt lat="50.107482019811869" lon="-5.341543983668089">
        <ele>105.40000000000001</ele>
        <time>2026-06-23T16:12:24Z</time>
      </trkpt>
      <trkpt lat="50.107204997912049" lon="-5.343616995960474">
        <ele>108.77</ele>
        <time>2026-06-23T16:12:35Z</time>
      </trkpt>
      <trkpt lat="50.107204997912049" lon="-5.344140026718378">
        <ele>110.20999999999999</ele>
        <time>2026-06-23T16:12:38Z</time>
      </trkpt>
      <trkpt lat="50.107328966259956" lon="-5.345553969964385">
        <ele>111.65000000000001</ele>
        <time>2026-06-23T16:12:47Z</time>
      </trkpt>
      <trkpt lat="50.107525018975139" lon="-5.347018036991358">
        <ele>113.09</ele>
        <time>2026-06-23T16:12:55Z</time>
      </trkpt>
      <trkpt lat="50.107517978176475" lon="-5.347200008109212">
        <ele>113.09</ele>
        <time>2026-06-23T16:12:56Z</time>
      </trkpt>
      <trkpt lat="50.1075080037117" lon="-5.347381979227066">
        <ele>113.09</ele>
        <time>2026-06-23T16:12:57Z</time>
      </trkpt>
      <trkpt lat="50.107479002326727" lon="-5.347895035520196">
        <ele>112.61</ele>
        <time>2026-06-23T16:13:00Z</time>
      </trkpt>
      <trkpt lat="50.107469027861953" lon="-5.348067032173276">
        <ele>112.61</ele>
        <time>2026-06-23T16:13:01Z</time>
      </trkpt>
      <trkpt lat="50.107462992891669" lon="-5.348426029086113">
        <ele>112.13</ele>
        <time>2026-06-23T16:13:03Z</time>
      </trkpt>
      <trkpt lat="50.107462992891669" lon="-5.350025966763496">
        <ele>111.65000000000001</ele>
        <time>2026-06-23T16:13:13Z</time>
      </trkpt>
      <trkpt lat="50.107462992891669" lon="-5.350158987566829">
        <ele>112.13</ele>
        <time>2026-06-23T16:13:14Z</time>
      </trkpt>
      <trkpt lat="50.107591990381479" lon="-5.350933978334069">
        <ele>112.61</ele>
        <time>2026-06-23T16:13:20Z</time>
      </trkpt>
      <trkpt lat="50.10763599537313" lon="-5.351043026894331">
        <ele>113.09</ele>
        <time>2026-06-23T16:13:21Z</time>
      </trkpt>
      <trkpt lat="50.108242006972432" lon="-5.352575993165374">
        <ele>117.42</ele>
        <time>2026-06-23T16:13:33Z</time>
      </trkpt>
      <trkpt lat="50.108676021918654" lon="-5.354295037686825">
        <ele>118.38</ele>
        <time>2026-06-23T16:13:45Z</time>
      </trkpt>
      <trkpt lat="50.109179019927979" lon="-5.356553038582206">
        <ele>116.94</ele>
        <time>2026-06-23T16:14:00Z</time>
      </trkpt>
      <trkpt lat="50.109562994912267" lon="-5.358087010681629">
        <ele>117.90000000000001</ele>
        <time>2026-06-23T16:14:10Z</time>
      </trkpt>
      <trkpt lat="50.109911011531949" lon="-5.359874032437801">
        <ele>117.90000000000001</ele>
        <time>2026-06-23T16:14:19Z</time>
      </trkpt>
      <trkpt lat="50.110134975984693" lon="-5.36174101755023">
        <ele>115.98</ele>
        <time>2026-06-23T16:14:28Z</time>
      </trkpt>
      <trkpt lat="50.110393976792693" lon="-5.364047968760133">
        <ele>111.17</ele>
        <time>2026-06-23T16:14:37Z</time>
      </trkpt>
      <trkpt lat="50.110814999789" lon="-5.367043996229768">
        <ele>103.95999999999999</ele>
        <time>2026-06-23T16:14:49Z</time>
      </trkpt>
      <trkpt lat="50.111113982275128" lon="-5.369580024853349">
        <ele>100.59999999999999</ele>
        <time>2026-06-23T16:14:59Z</time>
      </trkpt>
      <trkpt lat="50.111337024718523" lon="-5.371824027970433">
        <ele>99.150000000000006</ele>
        <time>2026-06-23T16:15:08Z</time>
      </trkpt>
      <trkpt lat="50.111553026363254" lon="-5.373992007225752">
        <ele>93.390000000000001</ele>
        <time>2026-06-23T16:15:16Z</time>
      </trkpt>
      <trkpt lat="50.111832981929183" lon="-5.376580003648996">
        <ele>87.620000000000005</ele>
        <time>2026-06-23T16:15:26Z</time>
      </trkpt>
      <trkpt lat="50.112304966896772" lon="-5.378534998744726">
        <ele>84.25</ele>
        <time>2026-06-23T16:15:34Z</time>
      </trkpt>
      <trkpt lat="50.112732024863362" lon="-5.380536010488868">
        <ele>77.040000000000006</ele>
        <time>2026-06-23T16:15:42Z</time>
      </trkpt>
      <trkpt lat="50.112780975177884" lon="-5.382594019174576">
        <ele>68.390000000000001</ele>
        <time>2026-06-23T16:15:51Z</time>
      </trkpt>
      <trkpt lat="50.112794972956181" lon="-5.38449302315712">
        <ele>63.100000000000001</ele>
        <time>2026-06-23T16:16:00Z</time>
      </trkpt>
      <trkpt lat="50.112783992663026" lon="-5.386820007115603">
        <ele>63.100000000000001</ele>
        <time>2026-06-23T16:16:11Z</time>
      </trkpt>
      <trkpt lat="50.112807964906096" lon="-5.389252016320825">
        <ele>66.469999999999999</ele>
        <time>2026-06-23T16:16:24Z</time>
      </trkpt>
      <trkpt lat="50.112898992374539" lon="-5.390869975090027">
        <ele>65.510000000000005</ele>
        <time>2026-06-23T16:16:34Z</time>
      </trkpt>
      <trkpt lat="50.112915001809597" lon="-5.39111003279686">
        <ele>64.549999999999997</ele>
        <time>2026-06-23T16:16:40Z</time>
      </trkpt>
      <trkpt lat="50.112919025123119" lon="-5.391170969232917">
        <ele>64.069999999999993</ele>
        <time>2026-06-23T16:16:41Z</time>
      </trkpt>
      <trkpt lat="50.112977027893066" lon="-5.3920369874686">
        <ele>65.030000000000001</ele>
        <time>2026-06-23T16:16:47Z</time>
      </trkpt>
      <trkpt lat="50.113117005676031" lon="-5.393914030864835">
        <ele>65.030000000000001</ele>
        <time>2026-06-23T16:16:55Z</time>
      </trkpt>
      <trkpt lat="50.113170985132456" lon="-5.394850037992001">
        <ele>66.950000000000003</ele>
        <time>2026-06-23T16:16:59Z</time>
      </trkpt>
      <trkpt lat="50.113170985132456" lon="-5.395077019929886">
        <ele>67.909999999999997</ele>
        <time>2026-06-23T16:17:00Z</time>
      </trkpt>
      <trkpt lat="50.113170985132456" lon="-5.395305007696152">
        <ele>68.390000000000001</ele>
        <time>2026-06-23T16:17:01Z</time>
      </trkpt>
      <trkpt lat="50.112840989604592" lon="-5.398000041022897">
        <ele>73.680000000000007</ele>
        <time>2026-06-23T16:17:12Z</time>
      </trkpt>
      <trkpt lat="50.112721966579556" lon="-5.399485984817147">
        <ele>76.560000000000002</ele>
        <time>2026-06-23T16:17:18Z</time>
      </trkpt>
      <trkpt lat="50.112811988219619" lon="-5.401963004842401">
        <ele>78</ele>
        <time>2026-06-23T16:17:28Z</time>
      </trkpt>
      <trkpt lat="50.112958000972867" lon="-5.40438998490572">
        <ele>75.599999999999994</ele>
        <time>2026-06-23T16:17:37Z</time>
      </trkpt>
      <trkpt lat="50.113096972927451" lon="-5.405714996159077">
        <ele>75.120000000000005</ele>
        <time>2026-06-23T16:17:44Z</time>
      </trkpt>
      <trkpt lat="50.113358991220593" lon="-5.407519033178687">
        <ele>72.239999999999995</ele>
        <time>2026-06-23T16:17:56Z</time>
      </trkpt>
      <trkpt lat="50.113735003396869" lon="-5.409600008279085">
        <ele>72.239999999999995</ele>
        <time>2026-06-23T16:18:09Z</time>
      </trkpt>
      <trkpt lat="50.114042032510042" lon="-5.411121994256973">
        <ele>72.719999999999999</ele>
        <time>2026-06-23T16:18:19Z</time>
      </trkpt>
      <trkpt lat="50.114406980574131" lon="-5.412465026602149">
        <ele>76.079999999999998</ele>
        <time>2026-06-23T16:18:29Z</time>
      </trkpt>
      <trkpt lat="50.114561961963773" lon="-5.413008006289601">
        <ele>78.480000000000004</ele>
        <time>2026-06-23T16:18:36Z</time>
      </trkpt>
      <trkpt lat="50.114606972783804" lon="-5.413166005164385">
        <ele>79.450000000000003</ele>
        <time>2026-06-23T16:18:39Z</time>
      </trkpt>
      <trkpt lat="50.114831021055579" lon="-5.413949964568019">
        <ele>82.810000000000002</ele>
        <time>2026-06-23T16:18:50Z</time>
      </trkpt>
      <trkpt lat="50.115060014650226" lon="-5.41474599391222">
        <ele>82.810000000000002</ele>
        <time>2026-06-23T16:18:55Z</time>
      </trkpt>
      <trkpt lat="50.115277022123337" lon="-5.415559960529208">
        <ele>83.769999999999996</ele>
        <time>2026-06-23T16:19:01Z</time>
      </trkpt>
      <trkpt lat="50.11564901098609" lon="-5.417288979515433">
        <ele>83.290000000000006</ele>
        <time>2026-06-23T16:19:17Z</time>
      </trkpt>
      <trkpt lat="50.115726962685585" lon="-5.41764697059989">
        <ele>84.25</ele>
        <time>2026-06-23T16:19:22Z</time>
      </trkpt>
      <trkpt lat="50.115743977949023" lon="-5.417728023603559">
        <ele>84.730000000000004</ele>
        <time>2026-06-23T16:19:23Z</time>
      </trkpt>
      <trkpt lat="50.115781025961041" lon="-5.417901026085019">
        <ele>85.209999999999994</ele>
        <time>2026-06-23T16:19:25Z</time>
      </trkpt>
      <trkpt lat="50.11605896987021" lon="-5.41895697824657">
        <ele>87.140000000000001</ele>
        <time>2026-06-23T16:19:33Z</time>
      </trkpt>
      <trkpt lat="50.116619970649481" lon="-5.421001994982362">
        <ele>83.290000000000006</ele>
        <time>2026-06-23T16:19:46Z</time>
      </trkpt>
      <trkpt lat="50.117010986432433" lon="-5.422461032867432">
        <ele>80.890000000000001</ele>
        <time>2026-06-23T16:19:55Z</time>
      </trkpt>
      <trkpt lat="50.11736897751689" lon="-5.424204971641302">
        <ele>78.969999999999999</ele>
        <time>2026-06-23T16:20:06Z</time>
      </trkpt>
      <trkpt lat="50.117774996906519" lon="-5.42660596780479">
        <ele>79.450000000000003</ele>
        <time>2026-06-23T16:20:20Z</time>
      </trkpt>
      <trkpt lat="50.118113039061427" lon="-5.42896899394691">
        <ele>82.810000000000002</ele>
        <time>2026-06-23T16:20:33Z</time>
      </trkpt>
      <trkpt lat="50.118429036810994" lon="-5.431071007624269">
        <ele>81.849999999999994</ele>
        <time>2026-06-23T16:20:45Z</time>
      </trkpt>
      <trkpt lat="50.11895801872015" lon="-5.43272702023387">
        <ele>80.890000000000001</ele>
        <time>2026-06-23T16:20:55Z</time>
      </trkpt>
      <trkpt lat="50.119626978412271" lon="-5.434530973434448">
        <ele>74.640000000000001</ele>
        <time>2026-06-23T16:21:04Z</time>
      </trkpt>
      <trkpt lat="50.120222009718418" lon="-5.436377003788948">
        <ele>67.909999999999997</ele>
        <time>2026-06-23T16:21:13Z</time>
      </trkpt>
      <trkpt lat="50.120831038802862" lon="-5.438897022977471">
        <ele>62.619999999999997</ele>
        <time>2026-06-23T16:21:25Z</time>
      </trkpt>
      <trkpt lat="50.121549032628536" lon="-5.441916016861796">
        <ele>59.740000000000002</ele>
        <time>2026-06-23T16:21:38Z</time>
      </trkpt>
      <trkpt lat="50.121967038139701" lon="-5.443786019459367">
        <ele>58.299999999999997</ele>
        <time>2026-06-23T16:21:47Z</time>
      </trkpt>
      <trkpt lat="50.122252022847533" lon="-5.445239022374153">
        <ele>55.890000000000001</ele>
        <time>2026-06-23T16:21:56Z</time>
      </trkpt>
      <trkpt lat="50.122638009488583" lon="-5.447419993579388">
        <ele>54.93</ele>
        <time>2026-06-23T16:22:07Z</time>
      </trkpt>
      <trkpt lat="50.122959958389401" lon="-5.44903501868248">
        <ele>53.969999999999999</ele>
        <time>2026-06-23T16:22:16Z</time>
      </trkpt>
      <trkpt lat="50.123305041342974" lon="-5.45015400275588">
        <ele>52.049999999999997</ele>
        <time>2026-06-23T16:22:24Z</time>
      </trkpt>
      <trkpt lat="50.123436972498894" lon="-5.450433036312461">
        <ele>51.57</ele>
        <time>2026-06-23T16:22:27Z</time>
      </trkpt>
      <trkpt lat="50.123492041602731" lon="-5.450549041852355">
        <ele>51.57</ele>
        <time>2026-06-23T16:22:28Z</time>
      </trkpt>
      <trkpt lat="50.123519031330943" lon="-5.450619030743837">
        <ele>51.57</ele>
        <time>2026-06-23T16:22:29Z</time>
      </trkpt>
      <trkpt lat="50.123551972210407" lon="-5.450704023241997">
        <ele>51.090000000000003</ele>
        <time>2026-06-23T16:22:30Z</time>
      </trkpt>
      <trkpt lat="50.123582985252142" lon="-5.450885994359851">
        <ele>50.609999999999999</ele>
        <time>2026-06-23T16:22:31Z</time>
      </trkpt>
      <trkpt lat="50.12355599552393" lon="-5.450978027656674">
        <ele>50.609999999999999</ele>
        <time>2026-06-23T16:22:32Z</time>
      </trkpt>
      <trkpt lat="50.123535040766001" lon="-5.451150024309754">
        <ele>50.609999999999999</ele>
        <time>2026-06-23T16:22:33Z</time>
      </trkpt>
      <trkpt lat="50.123476032167673" lon="-5.45126804150641">
        <ele>50.609999999999999</ele>
        <time>2026-06-23T16:22:34Z</time>
      </trkpt>
      <trkpt lat="50.123425992205739" lon="-5.451397961005569">
        <ele>51.090000000000003</ele>
        <time>2026-06-23T16:22:35Z</time>
      </trkpt>
      <trkpt lat="50.123416017740965" lon="-5.451564006507397">
        <ele>51.090000000000003</ele>
        <time>2026-06-23T16:22:36Z</time>
      </trkpt>
      <trkpt lat="50.12340696528554" lon="-5.451734997332096">
        <ele>51.090000000000003</ele>
        <time>2026-06-23T16:22:37Z</time>
      </trkpt>
      <trkpt lat="50.123429009690881" lon="-5.451921997591853">
        <ele>51.090000000000003</ele>
        <time>2026-06-23T16:22:38Z</time>
      </trkpt>
      <trkpt lat="50.123452981933951" lon="-5.452121989801526">
        <ele>51.57</ele>
        <time>2026-06-23T16:22:39Z</time>
      </trkpt>
      <trkpt lat="50.123688010498881" lon="-5.454210005700588">
        <ele>47.719999999999999</ele>
        <time>2026-06-23T16:22:48Z</time>
      </trkpt>
      <trkpt lat="50.123722041025758" lon="-5.455582961440086">
        <ele>47.240000000000002</ele>
        <time>2026-06-23T16:22:55Z</time>
      </trkpt>
      <trkpt lat="50.123782977461815" lon="-5.457984963431954">
        <ele>43.399999999999999</ele>
        <time>2026-06-23T16:23:09Z</time>
      </trkpt>
      <trkpt lat="50.124052036553621" lon="-5.459994021803141">
        <ele>37.630000000000003</ele>
        <time>2026-06-23T16:23:20Z</time>
      </trkpt>
      <trkpt lat="50.124551011249423" lon="-5.461908029392362">
        <ele>33.299999999999997</ele>
        <time>2026-06-23T16:23:31Z</time>
      </trkpt>
      <trkpt lat="50.124885030090809" lon="-5.463225999847055">
        <ele>33.299999999999997</ele>
        <time>2026-06-23T16:23:41Z</time>
      </trkpt>
      <trkpt lat="50.125074964016676" lon="-5.46377400867641">
        <ele>34.740000000000002</ele>
        <time>2026-06-23T16:23:46Z</time>
      </trkpt>
      <trkpt lat="50.125103965401649" lon="-5.463880961760879">
        <ele>35.229999999999997</ele>
        <time>2026-06-23T16:23:47Z</time>
      </trkpt>
      <trkpt lat="50.125115029513836" lon="-5.463999984785914">
        <ele>35.229999999999997</ele>
        <time>2026-06-23T16:23:48Z</time>
      </trkpt>
      <trkpt lat="50.125126009806991" lon="-5.464124958962202">
        <ele>34.740000000000002</ele>
        <time>2026-06-23T16:23:49Z</time>
      </trkpt>
      <trkpt lat="50.125136990100145" lon="-5.464250016957521">
        <ele>34.259999999999998</ele>
        <time>2026-06-23T16:23:50Z</time>
      </trkpt>
      <trkpt lat="50.125148976221681" lon="-5.464381026104093">
        <ele>34.259999999999998</ele>
        <time>2026-06-23T16:23:51Z</time>
      </trkpt>
      <trkpt lat="50.125160962343216" lon="-5.464513963088393">
        <ele>33.780000000000001</ele>
        <time>2026-06-23T16:23:52Z</time>
      </trkpt>
      <trkpt lat="50.125154005363584" lon="-5.464652013033629">
        <ele>33.780000000000001</ele>
        <time>2026-06-23T16:23:53Z</time>
      </trkpt>
      <trkpt lat="50.125135984271765" lon="-5.46478696167469">
        <ele>33.299999999999997</ele>
        <time>2026-06-23T16:23:54Z</time>
      </trkpt>
      <trkpt lat="50.125117963179946" lon="-5.464918976649642">
        <ele>33.299999999999997</ele>
        <time>2026-06-23T16:23:55Z</time>
      </trkpt>
      <trkpt lat="50.125083010643721" lon="-5.465184012427926">
        <ele>32.82</ele>
        <time>2026-06-23T16:23:57Z</time>
      </trkpt>
      <trkpt lat="50.125065995380282" lon="-5.465312004089356">
        <ele>32.340000000000003</ele>
        <time>2026-06-23T16:23:58Z</time>
      </trkpt>
      <trkpt lat="50.124999023973942" lon="-5.466192020103335">
        <ele>31.859999999999999</ele>
        <time>2026-06-23T16:24:05Z</time>
      </trkpt>
      <trkpt lat="50.125006986781955" lon="-5.466441968455911">
        <ele>31.859999999999999</ele>
        <time>2026-06-23T16:24:07Z</time>
      </trkpt>
      <trkpt lat="50.125010004267097" lon="-5.466563003137708">
        <ele>31.859999999999999</ele>
        <time>2026-06-23T16:24:08Z</time>
      </trkpt>
      <trkpt lat="50.125071024522185" lon="-5.467205978929997">
        <ele>29.460000000000001</ele>
        <time>2026-06-23T16:24:13Z</time>
      </trkpt>
      <trkpt lat="50.125047974288464" lon="-5.467329025268555">
        <ele>29.460000000000001</ele>
        <time>2026-06-23T16:24:14Z</time>
      </trkpt>
      <trkpt lat="50.125022996217012" lon="-5.467453999444842">
        <ele>28.98</ele>
        <time>2026-06-23T16:24:15Z</time>
      </trkpt>
      <trkpt lat="50.124706998467445" lon="-5.468476004898548">
        <ele>22.25</ele>
        <time>2026-06-23T16:24:24Z</time>
      </trkpt>
      <trkpt lat="50.124657964333892" lon="-5.468564014881849">
        <ele>21.289999999999999</ele>
        <time>2026-06-23T16:24:25Z</time>
      </trkpt>
      <trkpt lat="50.124398963525891" lon="-5.468991994857788">
        <ele>15.039999999999999</ele>
        <time>2026-06-23T16:24:33Z</time>
      </trkpt>
      <trkpt lat="50.124352024868131" lon="-5.469085033982992">
        <ele>13.6</ele>
        <time>2026-06-23T16:24:35Z</time>
      </trkpt>
      <trkpt lat="50.124297961592674" lon="-5.469193998724222">
        <ele>12.630000000000001</ele>
        <time>2026-06-23T16:24:37Z</time>
      </trkpt>
      <trkpt lat="50.124194025993347" lon="-5.46940203756094">
        <ele>10.23</ele>
        <time>2026-06-23T16:24:42Z</time>
      </trkpt>
      <trkpt lat="50.124172987416387" lon="-5.469442019239068">
        <ele>9.75</ele>
        <time>2026-06-23T16:24:43Z</time>
      </trkpt>
      <trkpt lat="50.124126970767975" lon="-5.46953497454524">
        <ele>9.27</ele>
        <time>2026-06-23T16:24:45Z</time>
      </trkpt>
      <trkpt lat="50.124100986868143" lon="-5.469587026163936">
        <ele>9.27</ele>
        <time>2026-06-23T16:24:46Z</time>
      </trkpt>
      <trkpt lat="50.124073997139931" lon="-5.469642011448741">
        <ele>9.27</ele>
        <time>2026-06-23T16:24:47Z</time>
      </trkpt>
      <trkpt lat="50.124012976884842" lon="-5.46979196369648">
        <ele>8.789999999999999</ele>
        <time>2026-06-23T16:24:49Z</time>
      </trkpt>
      <trkpt lat="50.123977018520236" lon="-5.469881985336542">
        <ele>8.789999999999999</ele>
        <time>2026-06-23T16:24:50Z</time>
      </trkpt>
      <trkpt lat="50.123853972181678" lon="-5.470191026106477">
        <ele>8.310000000000001</ele>
        <time>2026-06-23T16:24:53Z</time>
      </trkpt>
      <trkpt lat="50.12366496026516" lon="-5.471055032685399">
        <ele>6.39</ele>
        <time>2026-06-23T16:25:01Z</time>
      </trkpt>
      <trkpt lat="50.123653979972005" lon="-5.47127204015851">
        <ele>7.35</ele>
        <time>2026-06-23T16:25:03Z</time>
      </trkpt>
      <trkpt lat="50.123664038255811" lon="-5.472097992897034">
        <ele>10.23</ele>
        <time>2026-06-23T16:25:11Z</time>
      </trkpt>
      <trkpt lat="50.12366303242743" lon="-5.472202012315393">
        <ele>10.710000000000001</ele>
        <time>2026-06-23T16:25:12Z</time>
      </trkpt>
      <trkpt lat="50.123638976365328" lon="-5.472293961793184">
        <ele>10.710000000000001</ele>
        <time>2026-06-23T16:25:13Z</time>
      </trkpt>
      <trkpt lat="50.12351299636066" lon="-5.472784973680973">
        <ele>10.710000000000001</ele>
        <time>2026-06-23T16:25:19Z</time>
      </trkpt>
      <trkpt lat="50.123492041602731" lon="-5.472865020856261">
        <ele>10.710000000000001</ele>
        <time>2026-06-23T16:25:20Z</time>
      </trkpt>
      <trkpt lat="50.123492041602731" lon="-5.472911959514022">
        <ele>11.19</ele>
        <time>2026-06-23T16:25:21Z</time>
      </trkpt>
      <trkpt lat="50.123492041602731" lon="-5.473014973104">
        <ele>11.19</ele>
        <time>2026-06-23T16:25:22Z</time>
      </trkpt>
      <trkpt lat="50.123497992753983" lon="-5.473070964217186">
        <ele>11.67</ele>
        <time>2026-06-23T16:25:23Z</time>
      </trkpt>
      <trkpt lat="50.123506961390376" lon="-5.473156040534377">
        <ele>11.67</ele>
        <time>2026-06-23T16:25:24Z</time>
      </trkpt>
      <trkpt lat="50.123510984703898" lon="-5.473244972527027">
        <ele>12.15</ele>
        <time>2026-06-23T16:25:25Z</time>
      </trkpt>
      <trkpt lat="50.123505033552647" lon="-5.473322002217174">
        <ele>12.15</ele>
        <time>2026-06-23T16:25:26Z</time>
      </trkpt>
      <trkpt lat="50.12349396944046" lon="-5.473481006920338">
        <ele>12.630000000000001</ele>
        <time>2026-06-23T16:25:28Z</time>
      </trkpt>
      <trkpt lat="50.123488018289208" lon="-5.473568011075258">
        <ele>12.630000000000001</ele>
        <time>2026-06-23T16:25:29Z</time>
      </trkpt>
      <trkpt lat="50.123480977490544" lon="-5.473667001351714">
        <ele>13.119999999999999</ele>
        <time>2026-06-23T16:25:30Z</time>
      </trkpt>
      <trkpt lat="50.123457005247474" lon="-5.474012000486255">
        <ele>13.119999999999999</ele>
        <time>2026-06-23T16:25:37Z</time>
      </trkpt>
      <trkpt lat="50.123457005247474" lon="-5.474012000486255">
        <ele>13.119999999999999</ele>
        <time>2026-06-23T16:25:54Z</time>
      </trkpt>
      <trkpt lat="50.123457005247474" lon="-5.474012000486255">
        <ele>12.630000000000001</ele>
        <time>2026-06-23T16:26:41Z</time>
      </trkpt>
      <trkpt lat="50.123457005247474" lon="-5.474012000486255">
        <ele>12.15</ele>
        <time>2026-06-23T16:27:25Z</time>
      </trkpt>
      <trkpt lat="50.123457005247474" lon="-5.474012000486255">
        <ele>12.15</ele>
        <time>2026-06-23T16:27:42Z</time>
      </trkpt>
      <trkpt lat="50.123451976105571" lon="-5.47408701851964">
        <ele>12.15</ele>
        <time>2026-06-23T16:27:43Z</time>
      </trkpt>
      <trkpt lat="50.12344996444881" lon="-5.474133035168052">
        <ele>11.19</ele>
        <time>2026-06-23T16:27:44Z</time>
      </trkpt>
      <trkpt lat="50.123468991369009" lon="-5.474190032109618">
        <ele>10.23</ele>
        <time>2026-06-23T16:27:45Z</time>
      </trkpt>
      <trkpt lat="50.12349103577435" lon="-5.474255997687578">
        <ele>9.75</ele>
        <time>2026-06-23T16:27:46Z</time>
      </trkpt>
      <trkpt lat="50.12351400218904" lon="-5.474326992407441">
        <ele>9.27</ele>
        <time>2026-06-23T16:27:47Z</time>
      </trkpt>
      <trkpt lat="50.123537974432111" lon="-5.474398992955685">
        <ele>8.789999999999999</ele>
        <time>2026-06-23T16:27:48Z</time>
      </trkpt>
      <trkpt lat="50.123567981645465" lon="-5.474473005160689">
        <ele>8.310000000000001</ele>
        <time>2026-06-23T16:27:49Z</time>
      </trkpt>
      <trkpt lat="50.123607963323593" lon="-5.47453997656703">
        <ele>7.35</ele>
        <time>2026-06-23T16:27:50Z</time>
      </trkpt>
      <trkpt lat="50.123650040477514" lon="-5.474608959630132">
        <ele>6.87</ele>
        <time>2026-06-23T16:27:51Z</time>
      </trkpt>
      <trkpt lat="50.123694967478514" lon="-5.474681966006756">
        <ele>6.39</ele>
        <time>2026-06-23T16:27:52Z</time>
      </trkpt>
      <trkpt lat="50.123741989955306" lon="-5.474753966554999">
        <ele>5.91</ele>
        <time>2026-06-23T16:27:53Z</time>
      </trkpt>
      <trkpt lat="50.12379102408886" lon="-5.474824039265513">
        <ele>5.42</ele>
        <time>2026-06-23T16:27:54Z</time>
      </trkpt>
      <trkpt lat="50.123950028792024" lon="-5.475040962919593">
        <ele>3.98</ele>
        <time>2026-06-23T16:27:57Z</time>
      </trkpt>
      <trkpt lat="50.124057987704873" lon="-5.475190998986363">
        <ele>3.02</ele>
        <time>2026-06-23T16:27:59Z</time>
      </trkpt>
      <trkpt lat="50.124883018434048" lon="-5.476440992206335">
        <ele>2.06</ele>
        <time>2026-06-23T16:28:12Z</time>
      </trkpt>
      <trkpt lat="50.125936958938837" lon="-5.477643040940166">
        <ele>0.62</ele>
        <time>2026-06-23T16:28:24Z</time>
      </trkpt>
      <trkpt lat="50.126439034938812" lon="-5.478087030351162">
        <ele>1.58</ele>
        <time>2026-06-23T16:28:31Z</time>
      </trkpt>
      <trkpt lat="50.126744974404573" lon="-5.478473016992211">
        <ele>0.14</ele>
        <time>2026-06-23T16:28:40Z</time>
      </trkpt>
      <trkpt lat="50.127207990735769" lon="-5.479344986379147">
        <ele>1.1</ele>
        <time>2026-06-23T16:28:49Z</time>
      </trkpt>
      <trkpt lat="50.127450982108712" lon="-5.480341007933021">
        <ele>2.06</ele>
        <time>2026-06-23T16:28:58Z</time>
      </trkpt>
      <trkpt lat="50.12770595960319" lon="-5.481610028073192">
        <ele>3.02</ele>
        <time>2026-06-23T16:29:05Z</time>
      </trkpt>
      <trkpt lat="50.128060011193156" lon="-5.483579020947218">
        <ele>4.46</ele>
        <time>2026-06-23T16:29:14Z</time>
      </trkpt>
      <trkpt lat="50.128215998411179" lon="-5.4853880032897">
        <ele>5.42</ele>
        <time>2026-06-23T16:29:24Z</time>
      </trkpt>
      <trkpt lat="50.128396963700652" lon="-5.487494040280581">
        <ele>6.87</ele>
        <time>2026-06-23T16:29:34Z</time>
      </trkpt>
      <trkpt lat="50.128487991169095" lon="-5.488286968320608">
        <ele>6.87</ele>
        <time>2026-06-23T16:29:38Z</time>
      </trkpt>
      <trkpt lat="50.128556974232197" lon="-5.488474974408746">
        <ele>6.87</ele>
        <time>2026-06-23T16:29:39Z</time>
      </trkpt>
      <trkpt lat="50.128900967538357" lon="-5.489245019853115">
        <ele>5.91</ele>
        <time>2026-06-23T16:29:44Z</time>
      </trkpt>
      <trkpt lat="50.129423998296261" lon="-5.490081030875444">
        <ele>6.39</ele>
        <time>2026-06-23T16:29:51Z</time>
      </trkpt>
      <trkpt lat="50.129461968317628" lon="-5.490183038637042">
        <ele>6.39</ele>
        <time>2026-06-23T16:29:52Z</time>
      </trkpt>
      <trkpt lat="50.129500022158027" lon="-5.49028898589313">
        <ele>6.39</ele>
        <time>2026-06-23T16:29:53Z</time>
      </trkpt>
      <trkpt lat="50.129502033814788" lon="-5.490403985604644">
        <ele>6.39</ele>
        <time>2026-06-23T16:29:54Z</time>
      </trkpt>
      <trkpt lat="50.129504967480898" lon="-5.490539018064737">
        <ele>6.39</ele>
        <time>2026-06-23T16:29:55Z</time>
      </trkpt>
      <trkpt lat="50.12950798496604" lon="-5.490683019161224">
        <ele>5.91</ele>
        <time>2026-06-23T16:29:56Z</time>
      </trkpt>
      <trkpt lat="50.129511002451181" lon="-5.490838000550866">
        <ele>5.91</ele>
        <time>2026-06-23T16:29:57Z</time>
      </trkpt>
      <trkpt lat="50.129558024927974" lon="-5.492645977064967">
        <ele>2.54</ele>
        <time>2026-06-23T16:30:07Z</time>
      </trkpt>
      <trkpt lat="50.129682999104261" lon="-5.495498003438115">
        <ele>2.54</ele>
        <time>2026-06-23T16:30:20Z</time>
      </trkpt>
      <trkpt lat="50.129660032689571" lon="-5.497092995792627">
        <ele>4.46</ele>
        <time>2026-06-23T16:30:29Z</time>
      </trkpt>
      <trkpt lat="50.129563976079226" lon="-5.498656975105405">
        <ele>5.42</ele>
        <time>2026-06-23T16:30:41Z</time>
      </trkpt>
      <trkpt lat="50.129543021321297" lon="-5.498954029753804">
        <ele>5.42</ele>
        <time>2026-06-23T16:30:43Z</time>
      </trkpt>
      <trkpt lat="50.129322996363044" lon="-5.499635981395841">
        <ele>8.789999999999999</ele>
        <time>2026-06-23T16:30:51Z</time>
      </trkpt>
      <trkpt lat="50.129322996363044" lon="-5.499635981395841">
        <ele>8.789999999999999</ele>
        <time>2026-06-23T16:31:00Z</time>
      </trkpt>
      <trkpt lat="50.129299024119973" lon="-5.499724997207522">
        <ele>9.75</ele>
        <time>2026-06-23T16:31:36Z</time>
      </trkpt>
      <trkpt lat="50.129276979714632" lon="-5.499809989705682">
        <ele>9.75</ele>
        <time>2026-06-23T16:31:37Z</time>
      </trkpt>
      <trkpt lat="50.129255019128323" lon="-5.499905962496996">
        <ele>10.23</ele>
        <time>2026-06-23T16:31:38Z</time>
      </trkpt>
      <trkpt lat="50.129148988053203" lon="-5.500607024878264">
        <ele>9.27</ele>
        <time>2026-06-23T16:31:45Z</time>
      </trkpt>
      <trkpt lat="50.129134990274906" lon="-5.500701991841197">
        <ele>8.789999999999999</ele>
        <time>2026-06-23T16:31:46Z</time>
      </trkpt>
      <trkpt lat="50.129112023860216" lon="-5.500859990715981">
        <ele>8.789999999999999</ele>
        <time>2026-06-23T16:31:48Z</time>
      </trkpt>
      <trkpt lat="50.129083022475243" lon="-5.50111697986722">
        <ele>8.789999999999999</ele>
        <time>2026-06-23T16:31:51Z</time>
      </trkpt>
      <trkpt lat="50.128880012780428" lon="-5.502478033304215">
        <ele>9.27</ele>
        <time>2026-06-23T16:32:01Z</time>
      </trkpt>
      <trkpt lat="50.128558985888958" lon="-5.50474600866437">
        <ele>8.310000000000001</ele>
        <time>2026-06-23T16:32:15Z</time>
      </trkpt>
      <trkpt lat="50.128566026687622" lon="-5.504909036681056">
        <ele>8.789999999999999</ele>
        <time>2026-06-23T16:32:16Z</time>
      </trkpt>
      <trkpt lat="50.12867096811533" lon="-5.506220972165465">
        <ele>6.39</ele>
        <time>2026-06-23T16:32:26Z</time>
      </trkpt>
      <trkpt lat="50.128813041374087" lon="-5.507712028920651">
        <ele>6.39</ele>
        <time>2026-06-23T16:32:36Z</time>
      </trkpt>
      <trkpt lat="50.12884103693068" lon="-5.50803498364985">
        <ele>6.39</ele>
        <time>2026-06-23T16:32:38Z</time>
      </trkpt>
      <trkpt lat="50.128855034708977" lon="-5.508203962817788">
        <ele>5.91</ele>
        <time>2026-06-23T16:32:39Z</time>
      </trkpt>
      <trkpt lat="50.128958970308304" lon="-5.50975201651454">
        <ele>4.46</ele>
        <time>2026-06-23T16:32:49Z</time>
      </trkpt>
      <trkpt lat="50.128963999450207" lon="-5.509986961260438">
        <ele>3.98</ele>
        <time>2026-06-23T16:32:54Z</time>
      </trkpt>
      <trkpt lat="50.128899039700627" lon="-5.510373031720519">
        <ele>4.46</ele>
        <time>2026-06-23T16:33:00Z</time>
      </trkpt>
      <trkpt lat="50.12888403609395" lon="-5.510446960106492">
        <ele>4.46</ele>
        <time>2026-06-23T16:33:01Z</time>
      </trkpt>
      <trkpt lat="50.128899961709976" lon="-5.510557014495134">
        <ele>3.98</ele>
        <time>2026-06-23T16:33:02Z</time>
      </trkpt>
      <trkpt lat="50.129143036901951" lon="-5.51170801743865">
        <ele>4.46</ele>
        <time>2026-06-23T16:33:13Z</time>
      </trkpt>
      <trkpt lat="50.129195004701614" lon="-5.511980010196567">
        <ele>3.98</ele>
        <time>2026-06-23T16:33:21Z</time>
      </trkpt>
      <trkpt lat="50.12918503023684" lon="-5.512133985757828">
        <ele>3.98</ele>
        <time>2026-06-23T16:33:32Z</time>
      </trkpt>
      <trkpt lat="50.129132978618145" lon="-5.512272035703063">
        <ele>3.98</ele>
        <time>2026-06-23T16:33:34Z</time>
      </trkpt>
      <trkpt lat="50.129045974463224" lon="-5.512320986017585">
        <ele>3.98</ele>
        <time>2026-06-23T16:33:35Z</time>
      </trkpt>
      <trkpt lat="50.128965005278587" lon="-5.512342024594545">
        <ele>3.98</ele>
        <time>2026-06-23T16:33:36Z</time>
      </trkpt>
      <trkpt lat="50.128782028332353" lon="-5.512483008205891">
        <ele>3.98</ele>
        <time>2026-06-23T16:33:38Z</time>
      </trkpt>
      <trkpt lat="50.128674991428852" lon="-5.512574035674334">
        <ele>4.46</ele>
        <time>2026-06-23T16:33:39Z</time>
      </trkpt>
      <trkpt lat="50.12858597561717" lon="-5.512727005407214">
        <ele>4.46</ele>
        <time>2026-06-23T16:33:40Z</time>
      </trkpt>
      <trkpt lat="50.128501988947392" lon="-5.512892967090011">
        <ele>4.46</ele>
        <time>2026-06-23T16:33:41Z</time>
      </trkpt>
      <trkpt lat="50.128436023369431" lon="-5.513075022026897">
        <ele>4.94</ele>
        <time>2026-06-23T16:33:42Z</time>
      </trkpt>
      <trkpt lat="50.128372991457582" lon="-5.513247018679977">
        <ele>4.94</ele>
        <time>2026-06-23T16:33:43Z</time>
      </trkpt>
      <trkpt lat="50.128317000344396" lon="-5.513425972312689">
        <ele>4.94</ele>
        <time>2026-06-23T16:33:44Z</time>
      </trkpt>
      <trkpt lat="50.127903018146753" lon="-5.515299998223782">
        <ele>4.94</ele>
        <time>2026-06-23T16:33:55Z</time>
      </trkpt>
      <trkpt lat="50.127868987619877" lon="-5.515950014814735">
        <ele>5.42</ele>
        <time>2026-06-23T16:33:59Z</time>
      </trkpt>
      <trkpt lat="50.127821965143085" lon="-5.516081023961306">
        <ele>4.94</ele>
        <time>2026-06-23T16:34:00Z</time>
      </trkpt>
      <trkpt lat="50.127777038142085" lon="-5.516202980652452">
        <ele>4.94</ele>
        <time>2026-06-23T16:34:01Z</time>
      </trkpt>
      <trkpt lat="50.12772599235177" lon="-5.516317980363965">
        <ele>4.94</ele>
        <time>2026-06-23T16:34:02Z</time>
      </trkpt>
      <trkpt lat="50.127686010673642" lon="-5.516444966197014">
        <ele>4.94</ele>
        <time>2026-06-23T16:34:03Z</time>
      </trkpt>
      <trkpt lat="50.12765902094543" lon="-5.516596008092165">
        <ele>4.46</ele>
        <time>2026-06-23T16:34:04Z</time>
      </trkpt>
      <trkpt lat="50.127630019560456" lon="-5.516762975603342">
        <ele>4.46</ele>
        <time>2026-06-23T16:34:05Z</time>
      </trkpt>
      <trkpt lat="50.127598000690341" lon="-5.516940001398325">
        <ele>4.46</ele>
        <time>2026-06-23T16:34:06Z</time>
      </trkpt>
      <trkpt lat="50.127254007384181" lon="-5.519488016143441">
        <ele>5.42</ele>
        <time>2026-06-23T16:34:18Z</time>
      </trkpt>
      <trkpt lat="50.126838013529778" lon="-5.522325038909912">
        <ele>5.91</ele>
        <time>2026-06-23T16:34:31Z</time>
      </trkpt>
      <trkpt lat="50.126613965258002" lon="-5.524099990725517">
        <ele>5.42</ele>
        <time>2026-06-23T16:34:40Z</time>
      </trkpt>
      <trkpt lat="50.126570966094732" lon="-5.524443984031677">
        <ele>5.42</ele>
        <time>2026-06-23T16:34:42Z</time>
      </trkpt>
      <trkpt lat="50.126190008595586" lon="-5.525997988879681">
        <ele>5.42</ele>
        <time>2026-06-23T16:34:51Z</time>
      </trkpt>
      <trkpt lat="50.125796981155872" lon="-5.527223004028201">
        <ele>6.87</ele>
        <time>2026-06-23T16:35:02Z</time>
      </trkpt>
      <trkpt lat="50.125461034476757" lon="-5.528181977570057">
        <ele>6.39</ele>
        <time>2026-06-23T16:35:10Z</time>
      </trkpt>
      <trkpt lat="50.125400014221668" lon="-5.528299994766712">
        <ele>5.91</ele>
        <time>2026-06-23T16:35:11Z</time>
      </trkpt>
      <trkpt lat="50.125335976481438" lon="-5.528408037498593">
        <ele>5.91</ele>
        <time>2026-06-23T16:35:12Z</time>
      </trkpt>
      <trkpt lat="50.125260036438704" lon="-5.528499986976385">
        <ele>5.91</ele>
        <time>2026-06-23T16:35:13Z</time>
      </trkpt>
      <trkpt lat="50.125180995091796" lon="-5.528582967817783">
        <ele>5.91</ele>
        <time>2026-06-23T16:35:14Z</time>
      </trkpt>
      <trkpt lat="50.124950995668769" lon="-5.528826965019107">
        <ele>6.39</ele>
        <time>2026-06-23T16:35:17Z</time>
      </trkpt>
      <trkpt lat="50.124895004555583" lon="-5.528964009135962">
        <ele>6.87</ele>
        <time>2026-06-23T16:35:18Z</time>
      </trkpt>
      <trkpt lat="50.124848987907171" lon="-5.529074985533953">
        <ele>6.87</ele>
        <time>2026-06-23T16:35:19Z</time>
      </trkpt>
      <trkpt lat="50.12452200986445" lon="-5.529830027371645">
        <ele>8.310000000000001</ele>
        <time>2026-06-23T16:35:26Z</time>
      </trkpt>
      <trkpt lat="50.124457972124219" lon="-5.529918959364295">
        <ele>8.789999999999999</ele>
        <time>2026-06-23T16:35:27Z</time>
      </trkpt>
      <trkpt lat="50.123713994398713" lon="-5.531011037528515">
        <ele>12.630000000000001</ele>
        <time>2026-06-23T16:35:38Z</time>
      </trkpt>
      <trkpt lat="50.123208984732628" lon="-5.531705981120467">
        <ele>16.48</ele>
        <time>2026-06-23T16:35:48Z</time>
      </trkpt>
      <trkpt lat="50.122672962024808" lon="-5.532275028526783">
        <ele>14.08</ele>
        <time>2026-06-23T16:35:58Z</time>
      </trkpt>
      <trkpt lat="50.12265301309526" lon="-5.532296989113092">
        <ele>14.08</ele>
        <time>2026-06-23T16:36:07Z</time>
      </trkpt>
      <trkpt lat="50.122313965111971" lon="-5.532643999904394">
        <ele>12.630000000000001</ele>
        <time>2026-06-23T16:36:13Z</time>
      </trkpt>
      <trkpt lat="50.121781965717673" lon="-5.533125959336758">
        <ele>8.789999999999999</ele>
        <time>2026-06-23T16:36:23Z</time>
      </trkpt>
      <trkpt lat="50.12175397016108" lon="-5.533140040934086">
        <ele>8.789999999999999</ele>
        <time>2026-06-23T16:36:24Z</time>
      </trkpt>
      <trkpt lat="50.121718011796474" lon="-5.533122019842267">
        <ele>8.789999999999999</ele>
        <time>2026-06-23T16:36:25Z</time>
      </trkpt>
      <trkpt lat="50.12166797183454" lon="-5.533097041770816">
        <ele>8.310000000000001</ele>
        <time>2026-06-23T16:36:26Z</time>
      </trkpt>
      <trkpt lat="50.12164399959147" lon="-5.533040966838598">
        <ele>8.310000000000001</ele>
        <time>2026-06-23T16:36:27Z</time>
      </trkpt>
      <trkpt lat="50.121608041226864" lon="-5.532953962683678">
        <ele>8.310000000000001</ele>
        <time>2026-06-23T16:36:28Z</time>
      </trkpt>
      <trkpt lat="50.121569987386465" lon="-5.532864024862647">
        <ele>8.310000000000001</ele>
        <time>2026-06-23T16:36:29Z</time>
      </trkpt>
      <trkpt lat="50.121444007381797" lon="-5.53259395994246">
        <ele>7.83</ele>
        <time>2026-06-23T16:36:32Z</time>
      </trkpt>
      <trkpt lat="50.121392961591482" lon="-5.532542997971177">
        <ele>7.35</ele>
        <time>2026-06-23T16:36:33Z</time>
      </trkpt>
      <trkpt lat="50.121296988800168" lon="-5.532556995749474">
        <ele>6.87</ele>
        <time>2026-06-23T16:36:34Z</time>
      </trkpt>
      <trkpt lat="50.121235968545079" lon="-5.53261298686266">
        <ele>6.39</ele>
        <time>2026-06-23T16:36:35Z</time>
      </trkpt>
      <trkpt lat="50.121191963553429" lon="-5.532665038481355">
        <ele>6.39</ele>
        <time>2026-06-23T16:36:36Z</time>
      </trkpt>
      <trkpt lat="50.121152987703681" lon="-5.532710971310735">
        <ele>6.39</ele>
        <time>2026-06-23T16:36:37Z</time>
      </trkpt>
      <trkpt lat="50.121138989925385" lon="-5.532838962972164">
        <ele>5.91</ele>
        <time>2026-06-23T16:36:38Z</time>
      </trkpt>
      <trkpt lat="50.121131027117372" lon="-5.532918004319072">
        <ele>5.91</ele>
        <time>2026-06-23T16:36:39Z</time>
      </trkpt>
      <trkpt lat="50.121122980490327" lon="-5.532994028180838">
        <ele>5.42</ele>
        <time>2026-06-23T16:36:40Z</time>
      </trkpt>
      <trkpt lat="50.121073024347425" lon="-5.533472970128059">
        <ele>4.94</ele>
        <time>2026-06-23T16:36:48Z</time>
      </trkpt>
      <trkpt lat="50.121061038225889" lon="-5.533554023131728">
        <ele>4.46</ele>
        <time>2026-06-23T16:36:49Z</time>
      </trkpt>
      <trkpt lat="50.121047962456942" lon="-5.533616971224546">
        <ele>4.94</ele>
        <time>2026-06-23T16:36:50Z</time>
      </trkpt>
      <trkpt lat="50.121104959398508" lon="-5.533657958731055">
        <ele>4.94</ele>
        <time>2026-06-23T16:36:51Z</time>
      </trkpt>
      <trkpt lat="50.121115017682314" lon="-5.533681008964777">
        <ele>4.94</ele>
        <time>2026-06-23T16:36:52Z</time>
      </trkpt>
      <trkpt lat="50.1211519818753" lon="-5.533717973157764">
        <ele>4.94</ele>
        <time>2026-06-23T16:36:53Z</time>
      </trkpt>
      <trkpt lat="50.121196992695332" lon="-5.533760972321034">
        <ele>4.94</ele>
        <time>2026-06-23T16:36:54Z</time>
      </trkpt>
      <trkpt lat="50.121247032657266" lon="-5.533714033663273">
        <ele>4.94</ele>
        <time>2026-06-23T16:36:55Z</time>
      </trkpt>
      <trkpt lat="50.121299000456929" lon="-5.533664999529719">
        <ele>4.94</ele>
        <time>2026-06-23T16:36:56Z</time>
      </trkpt>
      <trkpt lat="50.121349962428212" lon="-5.533617977052927">
        <ele>4.94</ele>
        <time>2026-06-23T16:36:57Z</time>
      </trkpt>
      <trkpt lat="50.121626984328032" lon="-5.533220004290342">
        <ele>4.46</ele>
        <time>2026-06-23T16:37:04Z</time>
      </trkpt>
      <trkpt lat="50.12166797183454" lon="-5.533097041770816">
        <ele>4.46</ele>
        <time>2026-06-23T16:37:05Z</time>
      </trkpt>
      <trkpt lat="50.121662020683289" lon="-5.533082960173488">
        <ele>4.94</ele>
        <time>2026-06-23T16:37:06Z</time>
      </trkpt>
      <trkpt lat="50.121632013469934" lon="-5.533011965453625">
        <ele>5.42</ele>
        <time>2026-06-23T16:37:07Z</time>
      </trkpt>
      <trkpt lat="50.121597982943058" lon="-5.532930996268988">
        <ele>5.42</ele>
        <time>2026-06-23T16:37:08Z</time>
      </trkpt>
      <trkpt lat="50.121563030406833" lon="-5.532847009599209">
        <ele>5.91</ele>
        <time>2026-06-23T16:37:09Z</time>
      </trkpt>
      <trkpt lat="50.121527994051576" lon="-5.532765034586191">
        <ele>6.39</ele>
        <time>2026-06-23T16:37:10Z</time>
      </trkpt>
      <trkpt lat="50.12149304151535" lon="-5.532681969925761">
        <ele>6.39</ele>
        <time>2026-06-23T16:37:11Z</time>
      </trkpt>
      <trkpt lat="50.1214490365237" lon="-5.532598989084363">
        <ele>6.87</ele>
        <time>2026-06-23T16:37:12Z</time>
      </trkpt>
      <trkpt lat="50.121405031532049" lon="-5.532554984092712">
        <ele>7.35</ele>
        <time>2026-06-23T16:37:13Z</time>
      </trkpt>
      <trkpt lat="50.121326996013522" lon="-5.53255096077919">
        <ele>7.35</ele>
        <time>2026-06-23T16:37:14Z</time>
      </trkpt>
      <trkpt lat="50.121281985193491" lon="-5.532560013234615">
        <ele>6.87</ele>
        <time>2026-06-23T16:37:15Z</time>
      </trkpt>
      <trkpt lat="50.121218031272292" lon="-5.532635031268001">
        <ele>6.87</ele>
        <time>2026-06-23T16:37:16Z</time>
      </trkpt>
      <trkpt lat="50.1211710087955" lon="-5.532690016552806">
        <ele>6.87</ele>
        <time>2026-06-23T16:37:17Z</time>
      </trkpt>
      <trkpt lat="50.121117029339075" lon="-5.532739972695708">
        <ele>6.39</ele>
        <time>2026-06-23T16:37:18Z</time>
      </trkpt>
      <trkpt lat="50.120937991887331" lon="-5.532885985448957">
        <ele>5.91</ele>
        <time>2026-06-23T16:37:21Z</time>
      </trkpt>
      <trkpt lat="50.120864985510707" lon="-5.53291498683393">
        <ele>5.42</ele>
        <time>2026-06-23T16:37:22Z</time>
      </trkpt>
      <trkpt lat="50.119866030290723" lon="-5.533179016783834">
        <ele>1.1</ele>
        <time>2026-06-23T16:37:34Z</time>
      </trkpt>
      <trkpt lat="50.119077041745186" lon="-5.533382026478648">
        <ele>0.14</ele>
        <time>2026-06-23T16:37:44Z</time>
      </trkpt>
      <trkpt lat="50.1186169590801" lon="-5.533306002616882">
        <ele>0.62</ele>
        <time>2026-06-23T16:37:53Z</time>
      </trkpt>
      <trkpt lat="50.118600027635694" lon="-5.533300973474979">
        <ele>0.62</ele>
        <time>2026-06-23T16:38:02Z</time>
      </trkpt>
      <trkpt lat="50.118557028472424" lon="-5.533289993181825">
        <ele>1.1</ele>
        <time>2026-06-23T16:38:03Z</time>
      </trkpt>
      <trkpt lat="50.118565997108817" lon="-5.533380014821887">
        <ele>1.1</ele>
        <time>2026-06-23T16:38:04Z</time>
      </trkpt>
      <trkpt lat="50.118569014593959" lon="-5.533416979014874">
        <ele>1.1</ele>
        <time>2026-06-23T16:38:05Z</time>
      </trkpt>
      <trkpt lat="50.11857395991683" lon="-5.533464001491666">
        <ele>1.1</ele>
        <time>2026-06-23T16:38:06Z</time>
      </trkpt>
      <trkpt lat="50.118577983230352" lon="-5.533504988998175">
        <ele>1.1</ele>
        <time>2026-06-23T16:38:07Z</time>
      </trkpt>
      <trkpt lat="50.118582006543875" lon="-5.533546982333064">
        <ele>1.1</ele>
        <time>2026-06-23T16:38:08Z</time>
      </trkpt>
      <trkpt lat="50.118591981008649" lon="-5.533646978437901">
        <ele>2.06</ele>
        <time>2026-06-23T16:38:19Z</time>
      </trkpt>
      <trkpt lat="50.118591981008649" lon="-5.533646978437901">
        <ele>2.06</ele>
        <time>2026-06-23T16:38:22Z</time>
      </trkpt>
      <trkpt lat="50.118620982393622" lon="-5.533827021718025">
        <ele>2.06</ele>
        <time>2026-06-23T16:38:30Z</time>
      </trkpt>
      <trkpt lat="50.118642020970583" lon="-5.533918971195817">
        <ele>2.06</ele>
        <time>2026-06-23T16:38:31Z</time>
      </trkpt>
      <trkpt lat="50.118664987385273" lon="-5.534025002270937">
        <ele>2.06</ele>
        <time>2026-06-23T16:38:32Z</time>
      </trkpt>
      <trkpt lat="50.118686025962234" lon="-5.534120975062251">
        <ele>2.54</ele>
        <time>2026-06-23T16:38:33Z</time>
      </trkpt>
      <trkpt lat="50.118703963235021" lon="-5.534199010580778">
        <ele>2.06</ele>
        <time>2026-06-23T16:38:34Z</time>
      </trkpt>
      <trkpt lat="50.118720978498459" lon="-5.534277968108654">
        <ele>2.06</ele>
        <time>2026-06-23T16:38:35Z</time>
      </trkpt>
      <trkpt lat="50.118784010410309" lon="-5.534561024978757">
        <ele>2.54</ele>
        <time>2026-06-23T16:38:39Z</time>
      </trkpt>
      <trkpt lat="50.118798008188605" lon="-5.534624978899956">
        <ele>2.06</ele>
        <time>2026-06-23T16:38:40Z</time>
      </trkpt>
      <trkpt lat="50.118807982653379" lon="-5.534669989719987">
        <ele>2.54</ele>
        <time>2026-06-23T16:38:41Z</time>
      </trkpt>
      <trkpt lat="50.118832960724831" lon="-5.534781971946359">
        <ele>3.02</ele>
        <time>2026-06-23T16:38:43Z</time>
      </trkpt>
      <trkpt lat="50.118847964331508" lon="-5.534850033000112">
        <ele>3.02</ele>
        <time>2026-06-23T16:38:44Z</time>
      </trkpt>
      <trkpt lat="50.118861962109804" lon="-5.534909963607788">
        <ele>3.02</ele>
        <time>2026-06-23T16:38:45Z</time>
      </trkpt>
      <trkpt lat="50.118906972929835" lon="-5.535114984959364">
        <ele>4.94</ele>
        <time>2026-06-23T16:38:54Z</time>
      </trkpt>
      <trkpt lat="50.118906972929835" lon="-5.535114984959364">
        <ele>4.94</ele>
        <time>2026-06-23T16:39:16Z</time>
      </trkpt>
      <trkpt lat="50.118906972929835" lon="-5.535114984959364">
        <ele>5.42</ele>
        <time>2026-06-23T16:39:52Z</time>
      </trkpt>
      <trkpt lat="50.118906972929835" lon="-5.535114984959364">
        <ele>5.42</ele>
        <time>2026-06-23T16:40:19Z</time>
      </trkpt>
      <trkpt lat="50.118822986260056" lon="-5.534737966954708">
        <ele>4.46</ele>
        <time>2026-06-23T16:40:25Z</time>
      </trkpt>
      <trkpt lat="50.11872299015522" lon="-5.534287020564079">
        <ele>2.54</ele>
        <time>2026-06-23T16:40:29Z</time>
      </trkpt>
      <trkpt lat="50.118631962686777" lon="-5.533874966204166">
        <ele>-1.79</ele>
        <time>2026-06-23T16:40:37Z</time>
      </trkpt>
      <trkpt lat="50.118627017363906" lon="-5.533851999789476">
        <ele>-2.27</ele>
        <time>2026-06-23T16:40:38Z</time>
      </trkpt>
      <trkpt lat="50.118620982393622" lon="-5.533826015889645">
        <ele>-2.75</ele>
        <time>2026-06-23T16:40:39Z</time>
      </trkpt>
      <trkpt lat="50.118620982393622" lon="-5.533826015889645">
        <ele>-3.23</ele>
        <time>2026-06-23T16:40:55Z</time>
      </trkpt>
      <trkpt lat="50.118600027635694" lon="-5.533718978986144">
        <ele>-3.71</ele>
        <time>2026-06-23T16:41:17Z</time>
      </trkpt>
      <trkpt lat="50.118591981008649" lon="-5.533647984266281">
        <ele>-4.19</ele>
        <time>2026-06-23T16:41:18Z</time>
      </trkpt>
      <trkpt lat="50.118584018200636" lon="-5.533567015081644">
        <ele>-4.19</ele>
        <time>2026-06-23T16:41:19Z</time>
      </trkpt>
      <trkpt lat="50.118577983230352" lon="-5.533505994826555">
        <ele>-4.67</ele>
        <time>2026-06-23T16:41:20Z</time>
      </trkpt>
      <trkpt lat="50.118574965745211" lon="-5.533470958471298">
        <ele>-4.67</ele>
        <time>2026-06-23T16:41:21Z</time>
      </trkpt>
      <trkpt lat="50.118572032079101" lon="-5.533442040905356">
        <ele>-4.19</ele>
        <time>2026-06-23T16:41:22Z</time>
      </trkpt>
      <trkpt lat="50.118641015142202" lon="-5.533312037587166">
        <ele>-4.19</ele>
        <time>2026-06-23T16:41:23Z</time>
      </trkpt>
      <trkpt lat="50.118665993213654" lon="-5.533318994566798">
        <ele>-4.19</ele>
        <time>2026-06-23T16:41:24Z</time>
      </trkpt>
      <trkpt lat="50.118709998205304" lon="-5.533329974859953">
        <ele>-4.67</ele>
        <time>2026-06-23T16:41:25Z</time>
      </trkpt>
      <trkpt lat="50.118925999850035" lon="-5.533386971801519">
        <ele>-5.15</ele>
        <time>2026-06-23T16:41:28Z</time>
      </trkpt>
      <trkpt lat="50.119740972295403" lon="-5.533217992633581">
        <ele>-7.07</ele>
        <time>2026-06-23T16:41:38Z</time>
      </trkpt>
      <trkpt lat="50.120604978874326" lon="-5.532972989603877">
        <ele>-10.44</ele>
        <time>2026-06-23T16:41:49Z</time>
      </trkpt>
      <trkpt lat="50.120942015200853" lon="-5.532930996268988">
        <ele>-8.029999999999999</ele>
        <time>2026-06-23T16:41:54Z</time>
      </trkpt>
      <trkpt lat="50.12097897939384" lon="-5.532971983775497">
        <ele>-7.55</ele>
        <time>2026-06-23T16:41:55Z</time>
      </trkpt>
      <trkpt lat="50.121002029627562" lon="-5.532997967675328">
        <ele>-7.07</ele>
        <time>2026-06-23T16:41:56Z</time>
      </trkpt>
      <trkpt lat="50.121024996042252" lon="-5.533023029565811">
        <ele>-6.59</ele>
        <time>2026-06-23T16:41:57Z</time>
      </trkpt>
      <trkpt lat="50.121053997427225" lon="-5.533055970445275">
        <ele>-6.59</ele>
        <time>2026-06-23T16:41:58Z</time>
      </trkpt>
      <trkpt lat="50.121109988540411" lon="-5.533119002357125">
        <ele>-6.11</ele>
        <time>2026-06-23T16:41:59Z</time>
      </trkpt>
      <trkpt lat="50.121102025732398" lon="-5.533195026218891">
        <ele>-5.63</ele>
        <time>2026-06-23T16:42:00Z</time>
      </trkpt>
      <trkpt lat="50.121094984933734" lon="-5.533260991796851">
        <ele>-5.63</ele>
        <time>2026-06-23T16:42:01Z</time>
      </trkpt>
      <trkpt lat="50.121089033782482" lon="-5.533316982910037">
        <ele>-5.15</ele>
        <time>2026-06-23T16:42:02Z</time>
      </trkpt>
      <trkpt lat="50.121084004640579" lon="-5.533370040357113">
        <ele>-4.67</ele>
        <time>2026-06-23T16:42:03Z</time>
      </trkpt>
      <trkpt lat="50.121077969670296" lon="-5.533426031470299">
        <ele>-4.19</ele>
        <time>2026-06-23T16:42:04Z</time>
      </trkpt>
      <trkpt lat="50.121072018519044" lon="-5.533480010926724">
        <ele>-3.71</ele>
        <time>2026-06-23T16:42:05Z</time>
      </trkpt>
      <trkpt lat="50.121066989377141" lon="-5.533526027575135">
        <ele>-3.23</ele>
        <time>2026-06-23T16:42:06Z</time>
      </trkpt>
      <trkpt lat="50.121066989377141" lon="-5.533526027575135">
        <ele>-2.75</ele>
        <time>2026-06-23T16:42:07Z</time>
      </trkpt>
      <trkpt lat="50.121100014075637" lon="-5.533641027286649">
        <ele>-2.27</ele>
        <time>2026-06-23T16:42:08Z</time>
      </trkpt>
      <trkpt lat="50.121118035167456" lon="-5.533685032278299">
        <ele>-2.27</ele>
        <time>2026-06-23T16:42:09Z</time>
      </trkpt>
      <trkpt lat="50.121157011017203" lon="-5.533723002299666">
        <ele>-1.79</ele>
        <time>2026-06-23T16:42:10Z</time>
      </trkpt>
      <trkpt lat="50.121209984645247" lon="-5.533748986199498">
        <ele>-1.3</ele>
        <time>2026-06-23T16:42:11Z</time>
      </trkpt>
      <trkpt lat="50.121252983808517" lon="-5.533707998692989">
        <ele>-0.82</ele>
        <time>2026-06-23T16:42:12Z</time>
      </trkpt>
      <trkpt lat="50.121294977143407" lon="-5.533669022843242">
        <ele>-0.34</ele>
        <time>2026-06-23T16:42:13Z</time>
      </trkpt>
      <trkpt lat="50.121334036812186" lon="-5.533631974831224">
        <ele>0.14</ele>
        <time>2026-06-23T16:42:14Z</time>
      </trkpt>
      <trkpt lat="50.121595971286297" lon="-5.533394012600184">
        <ele>0.62</ele>
        <time>2026-06-23T16:42:20Z</time>
      </trkpt>
      <trkpt lat="50.121631007641554" lon="-5.533368028700352">
        <ele>0.62</ele>
        <time>2026-06-23T16:42:21Z</time>
      </trkpt>
      <trkpt lat="50.121777020394802" lon="-5.533244982361794">
        <ele>0.14</ele>
        <time>2026-06-23T16:42:26Z</time>
      </trkpt>
      <trkpt lat="50.121822031214833" lon="-5.533200977370143">
        <ele>-0.82</ele>
        <time>2026-06-23T16:42:29Z</time>
      </trkpt>
      <trkpt lat="50.121900988742709" lon="-5.533210029825568">
        <ele>-0.82</ele>
        <time>2026-06-23T16:42:30Z</time>
      </trkpt>
      <trkpt lat="50.121919009834528" lon="-5.533278007060289">
        <ele>-0.82</ele>
        <time>2026-06-23T16:42:31Z</time>
      </trkpt>
      <trkpt lat="50.121982041746378" lon="-5.533664999529719">
        <ele>0.14</ele>
        <time>2026-06-23T16:42:37Z</time>
      </trkpt>
      <trkpt lat="50.121970977634192" lon="-5.534173026680946">
        <ele>0.62</ele>
        <time>2026-06-23T16:42:42Z</time>
      </trkpt>
      <trkpt lat="50.122033003717661" lon="-5.534521965309978">
        <ele>2.54</ele>
        <time>2026-06-23T16:42:45Z</time>
      </trkpt>
      <trkpt lat="50.12205496430397" lon="-5.534624978899956">
        <ele>3.02</ele>
        <time>2026-06-23T16:42:46Z</time>
      </trkpt>
      <trkpt lat="50.122090000659227" lon="-5.534793036058545">
        <ele>4.46</ele>
        <time>2026-06-23T16:42:48Z</time>
      </trkpt>
      <trkpt lat="50.122102992609143" lon="-5.534853972494602">
        <ele>4.94</ele>
        <time>2026-06-23T16:42:49Z</time>
      </trkpt>
      <trkpt lat="50.122113972902298" lon="-5.534906024113298">
        <ele>5.42</ele>
        <time>2026-06-23T16:42:50Z</time>
      </trkpt>
      <trkpt lat="50.122123025357723" lon="-5.534952040761709">
        <ele>5.91</ele>
        <time>2026-06-23T16:42:51Z</time>
      </trkpt>
      <trkpt lat="50.122134005650878" lon="-5.535004008561373">
        <ele>5.91</ele>
        <time>2026-06-23T16:42:52Z</time>
      </trkpt>
      <trkpt lat="50.122149009257555" lon="-5.535071985796094">
        <ele>6.39</ele>
        <time>2026-06-23T16:42:53Z</time>
      </trkpt>
      <trkpt lat="50.122166024520993" lon="-5.535156978294253">
        <ele>6.87</ele>
        <time>2026-06-23T16:42:54Z</time>
      </trkpt>
      <trkpt lat="50.122187985107303" lon="-5.535262003540993">
        <ele>7.35</ele>
        <time>2026-06-23T16:42:55Z</time>
      </trkpt>
      <trkpt lat="50.122231990098953" lon="-5.53547197021544">
        <ele>8.789999999999999</ele>
        <time>2026-06-23T16:42:57Z</time>
      </trkpt>
      <trkpt lat="50.122242970392108" lon="-5.535559980198741">
        <ele>9.75</ele>
        <time>2026-06-23T16:42:58Z</time>
      </trkpt>
      <trkpt lat="50.122215980663896" lon="-5.535640027374029">
        <ele>10.23</ele>
        <time>2026-06-23T16:42:59Z</time>
      </trkpt>
      <trkpt lat="50.122174993157387" lon="-5.53568503819406">
        <ele>10.710000000000001</ele>
        <time>2026-06-23T16:43:00Z</time>
      </trkpt>
      <trkpt lat="50.122131993994117" lon="-5.535732982680202">
        <ele>10.710000000000001</ele>
        <time>2026-06-23T16:43:01Z</time>
      </trkpt>
      <trkpt lat="50.122091006487608" lon="-5.535778999328613">
        <ele>11.19</ele>
        <time>2026-06-23T16:43:02Z</time>
      </trkpt>
      <trkpt lat="50.122055970132351" lon="-5.53581696934998">
        <ele>11.67</ele>
        <time>2026-06-23T16:43:03Z</time>
      </trkpt>
      <trkpt lat="50.122033003717661" lon="-5.535843037068844">
        <ele>11.67</ele>
        <time>2026-06-23T16:43:10Z</time>
      </trkpt>
      <trkpt lat="50.121959997341037" lon="-5.535940015688539">
        <ele>12.15</ele>
        <time>2026-06-23T16:43:12Z</time>
      </trkpt>
      <trkpt lat="50.121909035369754" lon="-5.53600799292326">
        <ele>12.630000000000001</ele>
        <time>2026-06-23T16:43:13Z</time>
      </trkpt>
      <trkpt lat="50.121857989579439" lon="-5.536075970157981">
        <ele>12.630000000000001</ele>
        <time>2026-06-23T16:43:14Z</time>
      </trkpt>
      <trkpt lat="50.12181599624455" lon="-5.536131961271167">
        <ele>13.119999999999999</ele>
        <time>2026-06-23T16:43:15Z</time>
      </trkpt>
      <trkpt lat="50.121775008738041" lon="-5.536188036203384">
        <ele>14.08</ele>
        <time>2026-06-23T16:43:16Z</time>
      </trkpt>
      <trkpt lat="50.121743995696306" lon="-5.536285014823079">
        <ele>14.56</ele>
        <time>2026-06-23T16:43:17Z</time>
      </trkpt>
      <trkpt lat="50.121712982654572" lon="-5.536385010927916">
        <ele>15.039999999999999</ele>
        <time>2026-06-23T16:43:18Z</time>
      </trkpt>
      <trkpt lat="50.121680041775107" lon="-5.536490036174655">
        <ele>16</ele>
        <time>2026-06-23T16:43:19Z</time>
      </trkpt>
      <trkpt lat="50.121633019298315" lon="-5.536607969552279">
        <ele>16.48</ele>
        <time>2026-06-23T16:43:20Z</time>
      </trkpt>
      <trkpt lat="50.121565964072943" lon="-5.536675024777651">
        <ele>16.960000000000001</ele>
        <time>2026-06-23T16:43:21Z</time>
      </trkpt>
      <trkpt lat="50.121433027088642" lon="-5.536823971197009">
        <ele>18.399999999999999</ele>
        <time>2026-06-23T16:43:25Z</time>
      </trkpt>
      <trkpt lat="50.12140997685492" lon="-5.536851966753602">
        <ele>18.879999999999999</ele>
        <time>2026-06-23T16:43:26Z</time>
      </trkpt>
      <trkpt lat="50.121368989348412" lon="-5.536965960636735">
        <ele>18.879999999999999</ele>
        <time>2026-06-23T16:43:27Z</time>
      </trkpt>
      <trkpt lat="50.121336970478296" lon="-5.537056988105178">
        <ele>19.84</ele>
        <time>2026-06-23T16:43:28Z</time>
      </trkpt>
      <trkpt lat="50.121306041255593" lon="-5.537141980603337">
        <ele>20.809999999999999</ele>
        <time>2026-06-23T16:43:29Z</time>
      </trkpt>
      <trkpt lat="50.121276034042239" lon="-5.537224039435387">
        <ele>22.25</ele>
        <time>2026-06-23T16:43:30Z</time>
      </trkpt>
      <trkpt lat="50.121053997427225" lon="-5.538228023797274">
        <ele>31.859999999999999</ele>
        <time>2026-06-23T16:43:40Z</time>
      </trkpt>
      <trkpt lat="50.121028013527393" lon="-5.538394991308451">
        <ele>37.149999999999999</ele>
        <time>2026-06-23T16:43:46Z</time>
      </trkpt>
      <trkpt lat="50.120952995494008" lon="-5.538755999878049">
        <ele>40.509999999999998</ele>
        <time>2026-06-23T16:43:56Z</time>
      </trkpt>
      <trkpt lat="50.120852999389172" lon="-5.539297973737121">
        <ele>41.950000000000003</ele>
        <time>2026-06-23T16:44:02Z</time>
      </trkpt>
      <trkpt lat="50.120810000225902" lon="-5.539491008967161">
        <ele>43.399999999999999</ele>
        <time>2026-06-23T16:44:06Z</time>
      </trkpt>
      <trkpt lat="50.120810000225902" lon="-5.539491008967161">
        <ele>43.399999999999999</ele>
        <time>2026-06-23T16:44:07Z</time>
      </trkpt>
      <trkpt lat="50.120830032974482" lon="-5.539526967331767">
        <ele>43.399999999999999</ele>
        <time>2026-06-23T16:44:08Z</time>
      </trkpt>
      <trkpt lat="50.120855011045933" lon="-5.539569966495037">
        <ele>43.399999999999999</ele>
        <time>2026-06-23T16:44:09Z</time>
      </trkpt>
      <trkpt lat="50.120895998552442" lon="-5.539639033377171">
        <ele>43.399999999999999</ele>
        <time>2026-06-23T16:44:10Z</time>
      </trkpt>
      <trkpt lat="50.120946038514376" lon="-5.539725031703711">
        <ele>43.399999999999999</ele>
        <time>2026-06-23T16:44:11Z</time>
      </trkpt>
      <trkpt lat="50.120997000485659" lon="-5.539808012545109">
        <ele>43.399999999999999</ele>
        <time>2026-06-23T16:44:12Z</time>
      </trkpt>
      <trkpt lat="50.121049974113703" lon="-5.539893005043268">
        <ele>43.880000000000003</ele>
        <time>2026-06-23T16:44:13Z</time>
      </trkpt>
      <trkpt lat="50.121102025732398" lon="-5.539976991713047">
        <ele>43.880000000000003</ele>
        <time>2026-06-23T16:44:14Z</time>
      </trkpt>
      <trkpt lat="50.121551966294646" lon="-5.540790036320686">
        <ele>44.840000000000003</ele>
        <time>2026-06-23T16:44:22Z</time>
      </trkpt>
      <trkpt lat="50.121593959629536" lon="-5.540879974141717">
        <ele>44.840000000000003</ele>
        <time>2026-06-23T16:44:23Z</time>
      </trkpt>
      <trkpt lat="50.121914986521006" lon="-5.541642978787422">
        <ele>49.649999999999999</ele>
        <time>2026-06-23T16:44:33Z</time>
      </trkpt>
      <trkpt lat="50.12192496098578" lon="-5.541786979883909">
        <ele>50.130000000000003</ele>
        <time>2026-06-23T16:44:35Z</time>
      </trkpt>
      <trkpt lat="50.121841980144382" lon="-5.541821010410786">
        <ele>50.609999999999999</ele>
        <time>2026-06-23T16:44:36Z</time>
      </trkpt>
      <trkpt lat="50.121780037879944" lon="-5.541844982653856">
        <ele>50.609999999999999</ele>
        <time>2026-06-23T16:44:37Z</time>
      </trkpt>
      <trkpt lat="50.12170703150332" lon="-5.541871972382069">
        <ele>51.090000000000003</ele>
        <time>2026-06-23T16:44:38Z</time>
      </trkpt>
      <trkpt lat="50.121631007641554" lon="-5.541853029280901">
        <ele>51.090000000000003</ele>
        <time>2026-06-23T16:44:39Z</time>
      </trkpt>
      <trkpt lat="50.120993983000517" lon="-5.541794020682573">
        <ele>47.240000000000002</ele>
        <time>2026-06-23T16:44:46Z</time>
      </trkpt>
      <trkpt lat="50.1208929810673" lon="-5.541786979883909">
        <ele>46.280000000000001</ele>
        <time>2026-06-23T16:44:47Z</time>
      </trkpt>
      <trkpt lat="50.120796002447605" lon="-5.541781028732657">
        <ele>44.840000000000003</ele>
        <time>2026-06-23T16:44:48Z</time>
      </trkpt>
      <trkpt lat="50.120700029656291" lon="-5.541773987933993">
        <ele>43.399999999999999</ele>
        <time>2026-06-23T16:44:49Z</time>
      </trkpt>
      <trkpt lat="50.120601961389184" lon="-5.541768036782742">
        <ele>41.950000000000003</ele>
        <time>2026-06-23T16:44:50Z</time>
      </trkpt>
      <trkpt lat="50.119959991425276" lon="-5.541631998494268">
        <ele>36.189999999999998</ele>
        <time>2026-06-23T16:44:56Z</time>
      </trkpt>
      <trkpt lat="50.118866991251707" lon="-5.541137969121337">
        <ele>27.050000000000001</ele>
        <time>2026-06-23T16:45:07Z</time>
      </trkpt>
      <trkpt lat="50.118501037359238" lon="-5.540945017710328">
        <ele>24.170000000000002</ele>
        <time>2026-06-23T16:45:12Z</time>
      </trkpt>
      <trkpt lat="50.11844496242702" lon="-5.540903024375439">
        <ele>23.690000000000001</ele>
        <time>2026-06-23T16:45:13Z</time>
      </trkpt>
      <trkpt lat="50.118394000455737" lon="-5.540851978585124">
        <ele>23.210000000000001</ele>
        <time>2026-06-23T16:45:14Z</time>
      </trkpt>
      <trkpt lat="50.118346977978945" lon="-5.540805039927363">
        <ele>22.25</ele>
        <time>2026-06-23T16:45:15Z</time>
      </trkpt>
      <trkpt lat="50.118257040157914" lon="-5.540806967765093">
        <ele>21.77</ele>
        <time>2026-06-23T16:45:16Z</time>
      </trkpt>
      <trkpt lat="50.118238013237715" lon="-5.540876034647226">
        <ele>21.289999999999999</ele>
        <time>2026-06-23T16:45:17Z</time>
      </trkpt>
      <trkpt lat="50.118216974660754" lon="-5.540979970246553">
        <ele>20.809999999999999</ele>
        <time>2026-06-23T16:45:18Z</time>
      </trkpt>
      <trkpt lat="50.118190990760922" lon="-5.541117014363408">
        <ele>20.809999999999999</ele>
        <time>2026-06-23T16:45:19Z</time>
      </trkpt>
      <trkpt lat="50.118162995204329" lon="-5.541267972439528">
        <ele>20.809999999999999</ele>
        <time>2026-06-23T16:45:20Z</time>
      </trkpt>
      <trkpt lat="50.117879016324878" lon="-5.543087013065815">
        <ele>22.25</ele>
        <time>2026-06-23T16:45:32Z</time>
      </trkpt>
      <trkpt lat="50.1176050119102" lon="-5.544081022962928">
        <ele>22.25</ele>
        <time>2026-06-23T16:45:38Z</time>
      </trkpt>
      <trkpt lat="50.117558995261788" lon="-5.544263999909163">
        <ele>22.25</ele>
        <time>2026-06-23T16:45:39Z</time>
      </trkpt>
      <trkpt lat="50.117515996098518" lon="-5.5444520059973">
        <ele>21.77</ele>
        <time>2026-06-23T16:45:40Z</time>
      </trkpt>
      <trkpt lat="50.117102013900876" lon="-5.545969968661666">
        <ele>21.77</ele>
        <time>2026-06-23T16:45:49Z</time>
      </trkpt>
      <trkpt lat="50.117021966725588" lon="-5.546201979741454">
        <ele>21.289999999999999</ele>
        <time>2026-06-23T16:45:52Z</time>
      </trkpt>
      <trkpt lat="50.116996988654137" lon="-5.546273980289698">
        <ele>21.289999999999999</ele>
        <time>2026-06-23T16:45:53Z</time>
      </trkpt>
      <trkpt lat="50.116990031674504" lon="-5.546293007209897">
        <ele>21.289999999999999</ele>
        <time>2026-06-23T16:45:54Z</time>
      </trkpt>
      <trkpt lat="50.116967987269163" lon="-5.546476989984512">
        <ele>20.809999999999999</ele>
        <time>2026-06-23T16:45:55Z</time>
      </trkpt>
      <trkpt lat="50.116956001147628" lon="-5.546615961939097">
        <ele>20.809999999999999</ele>
        <time>2026-06-23T16:45:56Z</time>
      </trkpt>
      <trkpt lat="50.116835972294211" lon="-5.548112969845533">
        <ele>21.289999999999999</ele>
        <time>2026-06-23T16:46:05Z</time>
      </trkpt>
      <trkpt lat="50.116819962859154" lon="-5.548754017800093">
        <ele>21.289999999999999</ele>
        <time>2026-06-23T16:46:09Z</time>
      </trkpt>
      <trkpt lat="50.116824992001057" lon="-5.548919979482889">
        <ele>21.289999999999999</ele>
        <time>2026-06-23T16:46:10Z</time>
      </trkpt>
      <trkpt lat="50.116849970072508" lon="-5.550193022936583">
        <ele>21.289999999999999</ele>
        <time>2026-06-23T16:46:18Z</time>
      </trkpt>
      <trkpt lat="50.116843013092875" lon="-5.550335012376308">
        <ele>21.289999999999999</ele>
        <time>2026-06-23T16:46:19Z</time>
      </trkpt>
      <trkpt lat="50.116799008101225" lon="-5.550456969067454">
        <ele>21.289999999999999</ele>
        <time>2026-06-23T16:46:20Z</time>
      </trkpt>
      <trkpt lat="50.116727007552981" lon="-5.550572974607348">
        <ele>21.289999999999999</ele>
        <time>2026-06-23T16:46:21Z</time>
      </trkpt>
      <trkpt lat="50.116624999791384" lon="-5.550734996795654">
        <ele>21.289999999999999</ele>
        <time>2026-06-23T16:46:22Z</time>
      </trkpt>
      <trkpt lat="50.116547970101237" lon="-5.550806997343898">
        <ele>21.289999999999999</ele>
        <time>2026-06-23T16:46:23Z</time>
      </trkpt>
      <trkpt lat="50.116445040330291" lon="-5.550901964306831">
        <ele>21.77</ele>
        <time>2026-06-23T16:46:24Z</time>
      </trkpt>
      <trkpt lat="50.116342026740313" lon="-5.550997015088797">
        <ele>21.77</ele>
        <time>2026-06-23T16:46:25Z</time>
      </trkpt>
      <trkpt lat="50.115639036521316" lon="-5.551711991429329">
        <ele>24.170000000000002</ele>
        <time>2026-06-23T16:46:33Z</time>
      </trkpt>
      <trkpt lat="50.115538034588099" lon="-5.551792038604617">
        <ele>24.170000000000002</ele>
        <time>2026-06-23T16:46:34Z</time>
      </trkpt>
      <trkpt lat="50.114358030259609" lon="-5.552593013271689">
        <ele>32.340000000000003</ele>
        <time>2026-06-23T16:46:45Z</time>
      </trkpt>
      <trkpt lat="50.114256022498012" lon="-5.552657973021269">
        <ele>32.82</ele>
        <time>2026-06-23T16:46:46Z</time>
      </trkpt>
      <trkpt lat="50.114179998636246" lon="-5.552765009924769">
        <ele>33.299999999999997</ele>
        <time>2026-06-23T16:46:47Z</time>
      </trkpt>
      <trkpt lat="50.114110009744763" lon="-5.552873974665999">
        <ele>33.780000000000001</ele>
        <time>2026-06-23T16:46:48Z</time>
      </trkpt>
      <trkpt lat="50.114049995318055" lon="-5.552967013791204">
        <ele>34.740000000000002</ele>
        <time>2026-06-23T16:46:49Z</time>
      </trkpt>
      <trkpt lat="50.114029040560126" lon="-5.553111014887691">
        <ele>35.229999999999997</ele>
        <time>2026-06-23T16:46:50Z</time>
      </trkpt>
      <trkpt lat="50.114003978669643" lon="-5.553277982398868">
        <ele>36.189999999999998</ele>
        <time>2026-06-23T16:46:51Z</time>
      </trkpt>
      <trkpt lat="50.113986963406205" lon="-5.553437992930412">
        <ele>36.670000000000002</ele>
        <time>2026-06-23T16:46:52Z</time>
      </trkpt>
      <trkpt lat="50.113990986719728" lon="-5.553616024553776">
        <ele>37.630000000000003</ele>
        <time>2026-06-23T16:46:53Z</time>
      </trkpt>
      <trkpt lat="50.113994004204869" lon="-5.553787015378475">
        <ele>38.109999999999999</ele>
        <time>2026-06-23T16:46:54Z</time>
      </trkpt>
      <trkpt lat="50.113998027518392" lon="-5.553948031738401">
        <ele>39.07</ele>
        <time>2026-06-23T16:46:55Z</time>
      </trkpt>
      <trkpt lat="50.114004984498024" lon="-5.554269980639219">
        <ele>40.990000000000002</ele>
        <time>2026-06-23T16:46:57Z</time>
      </trkpt>
      <trkpt lat="50.113856960088015" lon="-5.555950971320272">
        <ele>44.840000000000003</ele>
        <time>2026-06-23T16:47:07Z</time>
      </trkpt>
      <trkpt lat="50.113870035856962" lon="-5.556211983785033">
        <ele>45.32</ele>
        <time>2026-06-23T16:47:09Z</time>
      </trkpt>
      <trkpt lat="50.113891996443272" lon="-5.556328995153308">
        <ele>45.32</ele>
        <time>2026-06-23T16:47:10Z</time>
      </trkpt>
      <trkpt lat="50.113922003656626" lon="-5.556825958192349">
        <ele>45.32</ele>
        <time>2026-06-23T16:47:14Z</time>
      </trkpt>
      <trkpt lat="50.113917980343103" lon="-5.556950010359287">
        <ele>45.32</ele>
        <time>2026-06-23T16:47:15Z</time>
      </trkpt>
      <trkpt lat="50.113899959251285" lon="-5.557022010907531">
        <ele>45.799999999999997</ele>
        <time>2026-06-23T16:47:16Z</time>
      </trkpt>
      <trkpt lat="50.113808009773493" lon="-5.557134998962283">
        <ele>45.799999999999997</ele>
        <time>2026-06-23T16:47:17Z</time>
      </trkpt>
      <trkpt lat="50.11373802088201" lon="-5.557222003117204">
        <ele>45.32</ele>
        <time>2026-06-23T16:47:18Z</time>
      </trkpt>
      <trkpt lat="50.113657973706722" lon="-5.55732099339366">
        <ele>44.840000000000003</ele>
        <time>2026-06-23T16:47:19Z</time>
      </trkpt>
      <trkpt lat="50.113555965945125" lon="-5.557414032518864">
        <ele>44.359999999999999</ele>
        <time>2026-06-23T16:47:20Z</time>
      </trkpt>
      <trkpt lat="50.11343602091074" lon="-5.557503970339894">
        <ele>43.880000000000003</ele>
        <time>2026-06-23T16:47:21Z</time>
      </trkpt>
      <trkpt lat="50.11330702342093" lon="-5.557601032778621">
        <ele>43.399999999999999</ele>
        <time>2026-06-23T16:47:22Z</time>
      </trkpt>
      <trkpt lat="50.11318095959723" lon="-5.557733969762921">
        <ele>42.920000000000002</ele>
        <time>2026-06-23T16:47:23Z</time>
      </trkpt>
      <trkpt lat="50.113056991249323" lon="-5.557875959202647">
        <ele>41.950000000000003</ele>
        <time>2026-06-23T16:47:24Z</time>
      </trkpt>
      <trkpt lat="50.112272026017308" lon="-5.559179009869695">
        <ele>35.710000000000001</ele>
        <time>2026-06-23T16:47:31Z</time>
      </trkpt>
      <trkpt lat="50.111264018341899" lon="-5.561063010245562">
        <ele>24.649999999999999</ele>
        <time>2026-06-23T16:47:40Z</time>
      </trkpt>
      <trkpt lat="50.110417027026415" lon="-5.5627999920398">
        <ele>21.289999999999999</ele>
        <time>2026-06-23T16:47:48Z</time>
      </trkpt>
      <trkpt lat="50.110335974022746" lon="-5.562966959550977">
        <ele>23.210000000000001</ele>
        <time>2026-06-23T16:47:49Z</time>
      </trkpt>
      <trkpt lat="50.109583027660847" lon="-5.564621966332197">
        <ele>32.82</ele>
        <time>2026-06-23T16:47:57Z</time>
      </trkpt>
      <trkpt lat="50.109546985477209" lon="-5.564842997118831">
        <ele>33.780000000000001</ele>
        <time>2026-06-23T16:47:58Z</time>
      </trkpt>
      <trkpt lat="50.10952603071928" lon="-5.565054975450039">
        <ele>34.259999999999998</ele>
        <time>2026-06-23T16:47:59Z</time>
      </trkpt>
      <trkpt lat="50.109369959682226" lon="-5.566778965294361">
        <ele>35.710000000000001</ele>
        <time>2026-06-23T16:48:07Z</time>
      </trkpt>
      <trkpt lat="50.109316986054182" lon="-5.566948028281331">
        <ele>35.710000000000001</ele>
        <time>2026-06-23T16:48:08Z</time>
      </trkpt>
      <trkpt lat="50.109241968020797" lon="-5.567113989964128">
        <ele>36.189999999999998</ele>
        <time>2026-06-23T16:48:09Z</time>
      </trkpt>
      <trkpt lat="50.109041975811124" lon="-5.567445997148752">
        <ele>37.149999999999999</ele>
        <time>2026-06-23T16:48:11Z</time>
      </trkpt>
      <trkpt lat="50.108911972492933" lon="-5.567580023780465">
        <ele>38.109999999999999</ele>
        <time>2026-06-23T16:48:12Z</time>
      </trkpt>
      <trkpt lat="50.108782975003123" lon="-5.567693011835218">
        <ele>39.07</ele>
        <time>2026-06-23T16:48:13Z</time>
      </trkpt>
      <trkpt lat="50.108494972810149" lon="-5.567944971844554">
        <ele>40.990000000000002</ele>
        <time>2026-06-23T16:48:15Z</time>
      </trkpt>
      <trkpt lat="50.107868006452918" lon="-5.568631030619144">
        <ele>45.32</ele>
        <time>2026-06-23T16:48:20Z</time>
      </trkpt>
      <trkpt lat="50.107783013954759" lon="-5.568790035322309">
        <ele>45.32</ele>
        <time>2026-06-23T16:48:21Z</time>
      </trkpt>
      <trkpt lat="50.1076599676162" lon="-5.569170992821455">
        <ele>46.280000000000001</ele>
        <time>2026-06-23T16:48:23Z</time>
      </trkpt>
      <trkpt lat="50.107604982331395" lon="-5.569376014173031">
        <ele>46.280000000000001</ele>
        <time>2026-06-23T16:48:24Z</time>
      </trkpt>
      <trkpt lat="50.107149006798863" lon="-5.570861035957933">
        <ele>40.030000000000001</ele>
        <time>2026-06-23T16:48:31Z</time>
      </trkpt>
      <trkpt lat="50.106851030141115" lon="-5.572118991985917">
        <ele>38.109999999999999</ele>
        <time>2026-06-23T16:48:36Z</time>
      </trkpt>
      <trkpt lat="50.106697976589203" lon="-5.573910037055612">
        <ele>45.32</ele>
        <time>2026-06-23T16:48:43Z</time>
      </trkpt>
      <trkpt lat="50.106713986024261" lon="-5.574440024793148">
        <ele>49.159999999999997</ele>
        <time>2026-06-23T16:48:45Z</time>
      </trkpt>
      <trkpt lat="50.106726977974176" lon="-5.574688967317343">
        <ele>51.090000000000003</ele>
        <time>2026-06-23T16:48:46Z</time>
      </trkpt>
      <trkpt lat="50.106803001835942" lon="-5.57528299279511">
        <ele>55.409999999999997</ele>
        <time>2026-06-23T16:48:49Z</time>
      </trkpt>
      <trkpt lat="50.106819011271" lon="-5.57539002969861">
        <ele>56.859999999999999</ele>
        <time>2026-06-23T16:48:50Z</time>
      </trkpt>
      <trkpt lat="50.10677601210773" lon="-5.57556202635169">
        <ele>58.299999999999997</ele>
        <time>2026-06-23T16:48:51Z</time>
      </trkpt>
      <trkpt lat="50.106714991852641" lon="-5.575671996921301">
        <ele>59.259999999999998</ele>
        <time>2026-06-23T16:48:52Z</time>
      </trkpt>
      <trkpt lat="50.106638967990875" lon="-5.57577702216804">
        <ele>60.700000000000003</ele>
        <time>2026-06-23T16:48:53Z</time>
      </trkpt>
      <trkpt lat="50.106524974107742" lon="-5.575866037979722">
        <ele>62.140000000000001</ele>
        <time>2026-06-23T16:48:54Z</time>
      </trkpt>
      <trkpt lat="50.105573041364551" lon="-5.576587971299887">
        <ele>67.909999999999997</ele>
        <time>2026-06-23T16:49:01Z</time>
      </trkpt>
      <trkpt lat="50.105447983369231" lon="-5.576645974069834">
        <ele>68.390000000000001</ele>
        <time>2026-06-23T16:49:02Z</time>
      </trkpt>
      <trkpt lat="50.105312028899789" lon="-5.576672041788697">
        <ele>69.349999999999994</ele>
        <time>2026-06-23T16:49:03Z</time>
      </trkpt>
      <trkpt lat="50.104883965104818" lon="-5.576772037893534">
        <ele>71.760000000000005</ele>
        <time>2026-06-23T16:49:06Z</time>
      </trkpt>
      <trkpt lat="50.104744993150234" lon="-5.576833980157971">
        <ele>72.719999999999999</ele>
        <time>2026-06-23T16:49:07Z</time>
      </trkpt>
      <trkpt lat="50.104439975693822" lon="-5.57702299207449">
        <ele>73.680000000000007</ele>
        <time>2026-06-23T16:49:09Z</time>
      </trkpt>
      <trkpt lat="50.10432799346745" lon="-5.577119970694184">
        <ele>73.680000000000007</ele>
        <time>2026-06-23T16:49:10Z</time>
      </trkpt>
      <trkpt lat="50.104217017069459" lon="-5.57723798789084">
        <ele>74.159999999999997</ele>
        <time>2026-06-23T16:49:11Z</time>
      </trkpt>
      <trkpt lat="50.103910993784666" lon="-5.577778033912182">
        <ele>74.159999999999997</ele>
        <time>2026-06-23T16:49:14Z</time>
      </trkpt>
      <trkpt lat="50.103355022147298" lon="-5.578905986621976">
        <ele>71.760000000000005</ele>
        <time>2026-06-23T16:49:19Z</time>
      </trkpt>
      <trkpt lat="50.103240022435784" lon="-5.579137997701764">
        <ele>71.760000000000005</ele>
        <time>2026-06-23T16:49:20Z</time>
      </trkpt>
      <trkpt lat="50.102873984724283" lon="-5.579987000674009">
        <ele>73.680000000000007</ele>
        <time>2026-06-23T16:49:24Z</time>
      </trkpt>
      <trkpt lat="50.102770971134305" lon="-5.580327976495028">
        <ele>74.640000000000001</ele>
        <time>2026-06-23T16:49:26Z</time>
      </trkpt>
      <trkpt lat="50.102638034150004" lon="-5.580778000876308">
        <ele>77.040000000000006</ele>
        <time>2026-06-23T16:49:29Z</time>
      </trkpt>
      <trkpt lat="50.102590005844831" lon="-5.580913033336401">
        <ele>77.519999999999996</ele>
        <time>2026-06-23T16:49:30Z</time>
      </trkpt>
      <trkpt lat="50.102288005873561" lon="-5.581505969166756">
        <ele>81.370000000000005</ele>
        <time>2026-06-23T16:49:35Z</time>
      </trkpt>
      <trkpt lat="50.101901013404131" lon="-5.582050960510969">
        <ele>85.209999999999994</ele>
        <time>2026-06-23T16:49:40Z</time>
      </trkpt>
      <trkpt lat="50.101123005151749" lon="-5.583238005638123">
        <ele>91.939999999999998</ele>
        <time>2026-06-23T16:49:49Z</time>
      </trkpt>
      <trkpt lat="50.100274002179503" lon="-5.58475797995925">
        <ele>96.75</ele>
        <time>2026-06-23T16:49:58Z</time>
      </trkpt>
      <trkpt lat="50.099596995860338" lon="-5.586612978950143">
        <ele>100.11</ele>
        <time>2026-06-23T16:50:06Z</time>
      </trkpt>
      <trkpt lat="50.099255014210939" lon="-5.587801029905677">
        <ele>96.75</ele>
        <time>2026-06-23T16:50:11Z</time>
      </trkpt>
      <trkpt lat="50.099157029762864" lon="-5.587970009073615">
        <ele>95.790000000000006</ele>
        <time>2026-06-23T16:50:12Z</time>
      </trkpt>
      <trkpt lat="50.098947985097766" lon="-5.588334035128355">
        <ele>93.870000000000005</ele>
        <time>2026-06-23T16:50:14Z</time>
      </trkpt>
      <trkpt lat="50.098850000649691" lon="-5.588563028723002">
        <ele>92.900000000000006</ele>
        <time>2026-06-23T16:50:15Z</time>
      </trkpt>
      <trkpt lat="50.098764002323151" lon="-5.588807025924325">
        <ele>91.939999999999998</ele>
        <time>2026-06-23T16:50:16Z</time>
      </trkpt>
      <trkpt lat="50.098584964871407" lon="-5.589434998109937">
        <ele>89.060000000000002</ele>
        <time>2026-06-23T16:50:19Z</time>
      </trkpt>
      <trkpt lat="50.098567027598619" lon="-5.589629039168358">
        <ele>88.579999999999998</ele>
        <time>2026-06-23T16:50:20Z</time>
      </trkpt>
      <trkpt lat="50.098502989858389" lon="-5.590295987203717">
        <ele>86.659999999999997</ele>
        <time>2026-06-23T16:50:23Z</time>
      </trkpt>
      <trkpt lat="50.098451022058725" lon="-5.590525986626744">
        <ele>86.659999999999997</ele>
        <time>2026-06-23T16:50:24Z</time>
      </trkpt>
      <trkpt lat="50.098380027338862" lon="-5.590749029070139">
        <ele>86.180000000000007</ele>
        <time>2026-06-23T16:50:25Z</time>
      </trkpt>
      <trkpt lat="50.098280031234026" lon="-5.590951032936573">
        <ele>85.689999999999998</ele>
        <time>2026-06-23T16:50:26Z</time>
      </trkpt>
      <trkpt lat="50.098166959360242" lon="-5.591158987954259">
        <ele>85.209999999999994</ele>
        <time>2026-06-23T16:50:27Z</time>
      </trkpt>
      <trkpt lat="50.09805103763938" lon="-5.591370966285467">
        <ele>85.209999999999994</ele>
        <time>2026-06-23T16:50:28Z</time>
      </trkpt>
      <trkpt lat="50.097809974104166" lon="-5.591763993725181">
        <ele>84.730000000000004</ele>
        <time>2026-06-23T16:50:30Z</time>
      </trkpt>
      <trkpt lat="50.097663039341569" lon="-5.591921992599964">
        <ele>84.730000000000004</ele>
        <time>2026-06-23T16:50:31Z</time>
      </trkpt>
      <trkpt lat="50.096843037754297" lon="-5.592864034697413">
        <ele>82.329999999999998</ele>
        <time>2026-06-23T16:50:38Z</time>
      </trkpt>
      <trkpt lat="50.096650002524257" lon="-5.593129992485046">
        <ele>81.370000000000005</ele>
        <time>2026-06-23T16:50:40Z</time>
      </trkpt>
      <trkpt lat="50.09656903333962" lon="-5.593262007459998">
        <ele>80.409999999999997</ele>
        <time>2026-06-23T16:50:41Z</time>
      </trkpt>
      <trkpt lat="50.096465013921261" lon="-5.593553027138114">
        <ele>78.969999999999999</ele>
        <time>2026-06-23T16:50:43Z</time>
      </trkpt>
      <trkpt lat="50.096415979787707" lon="-5.593688981607556">
        <ele>78.480000000000004</ele>
        <time>2026-06-23T16:50:44Z</time>
      </trkpt>
      <trkpt lat="50.096322018653154" lon="-5.594156021252275">
        <ele>77.519999999999996</ele>
        <time>2026-06-23T16:50:48Z</time>
      </trkpt>
      <trkpt lat="50.096278013661504" lon="-5.594270015135407">
        <ele>77.519999999999996</ele>
        <time>2026-06-23T16:50:49Z</time>
      </trkpt>
      <trkpt lat="50.096224034205079" lon="-5.594309996813536">
        <ele>77.519999999999996</ele>
        <time>2026-06-23T16:50:50Z</time>
      </trkpt>
      <trkpt lat="50.095866965129972" lon="-5.594562962651253">
        <ele>79.450000000000003</ele>
        <time>2026-06-23T16:50:54Z</time>
      </trkpt>
      <trkpt lat="50.094826016575098" lon="-5.595068978145719">
        <ele>90.019999999999996</ele>
        <time>2026-06-23T16:51:02Z</time>
      </trkpt>
      <trkpt lat="50.094472970813513" lon="-5.595204010605812">
        <ele>92.900000000000006</ele>
        <time>2026-06-23T16:51:05Z</time>
      </trkpt>
      <trkpt lat="50.094365011900663" lon="-5.595278022810817">
        <ele>94.349999999999994</ele>
        <time>2026-06-23T16:51:06Z</time>
      </trkpt>
      <trkpt lat="50.094253029674292" lon="-5.595370978116989">
        <ele>95.310000000000002</ele>
        <time>2026-06-23T16:51:07Z</time>
      </trkpt>
      <trkpt lat="50.094140963628888" lon="-5.595487989485264">
        <ele>96.269999999999996</ele>
        <time>2026-06-23T16:51:08Z</time>
      </trkpt>
      <trkpt lat="50.09403602220118" lon="-5.595638025552034">
        <ele>97.230000000000004</ele>
        <time>2026-06-23T16:51:09Z</time>
      </trkpt>
      <trkpt lat="50.093655986711383" lon="-5.59635803103447">
        <ele>99.629999999999995</ele>
        <time>2026-06-23T16:51:13Z</time>
      </trkpt>
      <trkpt lat="50.09334996342659" lon="-5.597037971019745">
        <ele>100.11</ele>
        <time>2026-06-23T16:51:17Z</time>
      </trkpt>
      <trkpt lat="50.093266982585192" lon="-5.597187001258135">
        <ele>100.11</ele>
        <time>2026-06-23T16:51:18Z</time>
      </trkpt>
      <trkpt lat="50.093171009793878" lon="-5.597295965999365">
        <ele>99.629999999999995</ele>
        <time>2026-06-23T16:51:19Z</time>
      </trkpt>
      <trkpt lat="50.093060033395886" lon="-5.597366960719228">
        <ele>99.150000000000006</ele>
        <time>2026-06-23T16:51:20Z</time>
      </trkpt>
      <trkpt lat="50.092934975400567" lon="-5.59743301011622">
        <ele>98.670000000000002</ele>
        <time>2026-06-23T16:51:21Z</time>
      </trkpt>
      <trkpt lat="50.092797009274364" lon="-5.597505010664463">
        <ele>98.670000000000002</ele>
        <time>2026-06-23T16:51:22Z</time>
      </trkpt>
      <trkpt lat="50.091798976063728" lon="-5.597898960113525">
        <ele>94.349999999999994</ele>
        <time>2026-06-23T16:51:29Z</time>
      </trkpt>
      <trkpt lat="50.091694034636021" lon="-5.598024018108845">
        <ele>93.870000000000005</ele>
        <time>2026-06-23T16:51:30Z</time>
      </trkpt>
      <trkpt lat="50.09160996414721" lon="-5.598125020042062">
        <ele>93.390000000000001</ele>
        <time>2026-06-23T16:51:31Z</time>
      </trkpt>
      <trkpt lat="50.091511979699135" lon="-5.598243037238717">
        <ele>92.900000000000006</ele>
        <time>2026-06-23T16:51:32Z</time>
      </trkpt>
      <trkpt lat="50.091409971937537" lon="-5.598365999758244">
        <ele>92.420000000000002</ele>
        <time>2026-06-23T16:51:33Z</time>
      </trkpt>
      <trkpt lat="50.091293966397643" lon="-5.598445041105151">
        <ele>91.459999999999994</ele>
        <time>2026-06-23T16:51:34Z</time>
      </trkpt>
      <trkpt lat="50.091163041070104" lon="-5.598498014733195">
        <ele>90.5</ele>
        <time>2026-06-23T16:51:35Z</time>
      </trkpt>
      <trkpt lat="50.09102800861001" lon="-5.598553000018001">
        <ele>89.540000000000006</ele>
        <time>2026-06-23T16:51:36Z</time>
      </trkpt>
      <trkpt lat="50.090631963685155" lon="-5.598715022206307">
        <ele>85.689999999999998</ele>
        <time>2026-06-23T16:51:39Z</time>
      </trkpt>
      <trkpt lat="50.090503972023726" lon="-5.59876699000597">
        <ele>83.769999999999996</ele>
        <time>2026-06-23T16:51:40Z</time>
      </trkpt>
      <trkpt lat="50.090246982872486" lon="-5.598902022466064">
        <ele>80.890000000000001</ele>
        <time>2026-06-23T16:51:42Z</time>
      </trkpt>
      <trkpt lat="50.090110022574663" lon="-5.599014004692435">
        <ele>79.450000000000003</ele>
        <time>2026-06-23T16:51:43Z</time>
      </trkpt>
      <trkpt lat="50.089969038963318" lon="-5.59913101606071">
        <ele>78.480000000000004</ele>
        <time>2026-06-23T16:51:44Z</time>
      </trkpt>
      <trkpt lat="50.08903001435101" lon="-5.600068029016256">
        <ele>84.730000000000004</ele>
        <time>2026-06-23T16:51:52Z</time>
      </trkpt>
      <trkpt lat="50.087946988642216" lon="-5.6012780405581">
        <ele>100.59999999999999</ele>
        <time>2026-06-23T16:52:01Z</time>
      </trkpt>
      <trkpt lat="50.087835006415844" lon="-5.601459005847573">
        <ele>102.04000000000001</ele>
        <time>2026-06-23T16:52:02Z</time>
      </trkpt>
      <trkpt lat="50.087723024189472" lon="-5.601647011935711">
        <ele>103.95999999999999</ele>
        <time>2026-06-23T16:52:03Z</time>
      </trkpt>
      <trkpt lat="50.086799003183842" lon="-5.603199005126953">
        <ele>114.53</ele>
        <time>2026-06-23T16:52:12Z</time>
      </trkpt>
      <trkpt lat="50.086665982380509" lon="-5.603333031758666">
        <ele>115.5</ele>
        <time>2026-06-23T16:52:13Z</time>
      </trkpt>
      <trkpt lat="50.086552994325757" lon="-5.603446019813418">
        <ele>115.98</ele>
        <time>2026-06-23T16:52:14Z</time>
      </trkpt>
      <trkpt lat="50.086440006271005" lon="-5.60355800203979">
        <ele>116.45999999999999</ele>
        <time>2026-06-23T16:52:15Z</time>
      </trkpt>
      <trkpt lat="50.086320983245969" lon="-5.603660009801388">
        <ele>116.94</ele>
        <time>2026-06-23T16:52:16Z</time>
      </trkpt>
      <trkpt lat="50.086178993806243" lon="-5.603717006742954">
        <ele>116.94</ele>
        <time>2026-06-23T16:52:17Z</time>
      </trkpt>
      <trkpt lat="50.086035998538136" lon="-5.60377299785614">
        <ele>116.94</ele>
        <time>2026-06-23T16:52:18Z</time>
      </trkpt>
      <trkpt lat="50.085899038240314" lon="-5.603827983140945">
        <ele>116.94</ele>
        <time>2026-06-23T16:52:19Z</time>
      </trkpt>
      <trkpt lat="50.085535012185574" lon="-5.603970978409052">
        <ele>115.98</ele>
        <time>2026-06-23T16:52:22Z</time>
      </trkpt>
      <trkpt lat="50.085433004423976" lon="-5.604011965915561">
        <ele>115.5</ele>
        <time>2026-06-23T16:52:23Z</time>
      </trkpt>
      <trkpt lat="50.085343988612294" lon="-5.604088995605707">
        <ele>115.5</ele>
        <time>2026-06-23T16:52:24Z</time>
      </trkpt>
      <trkpt lat="50.084677040576935" lon="-5.604898016899824">
        <ele>112.61</ele>
        <time>2026-06-23T16:52:34Z</time>
      </trkpt>
      <trkpt lat="50.084016965702176" lon="-5.606163013726473">
        <ele>106.84</ele>
        <time>2026-06-23T16:52:46Z</time>
      </trkpt>
      <trkpt lat="50.083961980417371" lon="-5.606293017044663">
        <ele>106.36</ele>
        <time>2026-06-23T16:52:47Z</time>
      </trkpt>
      <trkpt lat="50.083939014002681" lon="-5.606441041454673">
        <ele>105.88</ele>
        <time>2026-06-23T16:52:48Z</time>
      </trkpt>
      <trkpt lat="50.083929961547256" lon="-5.606595017015934">
        <ele>104.92</ele>
        <time>2026-06-23T16:52:49Z</time>
      </trkpt>
      <trkpt lat="50.083932979032397" lon="-5.606729965656996">
        <ele>104.44</ele>
        <time>2026-06-23T16:52:50Z</time>
      </trkpt>
      <trkpt lat="50.083970027044415" lon="-5.606859968975186">
        <ele>103.95999999999999</ele>
        <time>2026-06-23T16:52:51Z</time>
      </trkpt>
      <trkpt lat="50.084007997065783" lon="-5.606991983950138">
        <ele>103</ele>
        <time>2026-06-23T16:52:52Z</time>
      </trkpt>
      <trkpt lat="50.08404403924942" lon="-5.607118969783187">
        <ele>103</ele>
        <time>2026-06-23T16:52:53Z</time>
      </trkpt>
      <trkpt lat="50.08411000482738" lon="-5.607348969206214">
        <ele>103.48</ele>
        <time>2026-06-23T16:52:55Z</time>
      </trkpt>
      <trkpt lat="50.084139006212354" lon="-5.60744795948267">
        <ele>103.48</ele>
        <time>2026-06-23T16:52:56Z</time>
      </trkpt>
      <trkpt lat="50.084116961807013" lon="-5.607564970850945">
        <ele>103.48</ele>
        <time>2026-06-23T16:52:57Z</time>
      </trkpt>
      <trkpt lat="50.084096007049084" lon="-5.60768399387598">
        <ele>103.48</ele>
        <time>2026-06-23T16:52:58Z</time>
      </trkpt>
      <trkpt lat="50.084073040634394" lon="-5.607732022181153">
        <ele>103.48</ele>
        <time>2026-06-23T16:52:59Z</time>
      </trkpt>
      <trkpt lat="50.084058959037066" lon="-5.607763035222888">
        <ele>103.48</ele>
        <time>2026-06-23T16:53:00Z</time>
      </trkpt>
      <trkpt lat="50.08404697291553" lon="-5.60778901912272">
        <ele>103</ele>
        <time>2026-06-23T16:53:13Z</time>
      </trkpt>
      <trkpt lat="50.083990981802344" lon="-5.607908964157105">
        <ele>102.52</ele>
        <time>2026-06-23T16:53:19Z</time>
      </trkpt>
      <trkpt lat="50.083958962932229" lon="-5.60798498801887">
        <ele>102.52</ele>
        <time>2026-06-23T16:53:20Z</time>
      </trkpt>
      <trkpt lat="50.083925016224384" lon="-5.608078027144074">
        <ele>103</ele>
        <time>2026-06-23T16:53:21Z</time>
      </trkpt>
      <trkpt lat="50.083881011232734" lon="-5.60819897800684">
        <ele>103.48</ele>
        <time>2026-06-23T16:53:22Z</time>
      </trkpt>
      <trkpt lat="50.083869025111198" lon="-5.608268966898322">
        <ele>103.48</ele>
        <time>2026-06-23T16:53:23Z</time>
      </trkpt>
      <trkpt lat="50.083654029294848" lon="-5.609507979825139">
        <ele>108.77</ele>
        <time>2026-06-23T16:53:33Z</time>
      </trkpt>
      <trkpt lat="50.083581022918224" lon="-5.609931014478207">
        <ele>110.20999999999999</ele>
        <time>2026-06-23T16:53:37Z</time>
      </trkpt>
      <trkpt lat="50.083560990169644" lon="-5.610041990876198">
        <ele>110.69</ele>
        <time>2026-06-23T16:53:38Z</time>
      </trkpt>
      <trkpt lat="50.083522014319897" lon="-5.610267966985703">
        <ele>111.17</ele>
        <time>2026-06-23T16:53:40Z</time>
      </trkpt>
      <trkpt lat="50.083498964086175" lon="-5.610376009717584">
        <ele>111.17</ele>
        <time>2026-06-23T16:53:41Z</time>
      </trkpt>
      <trkpt lat="50.083471974357963" lon="-5.610492015257478">
        <ele>111.17</ele>
        <time>2026-06-23T16:53:42Z</time>
      </trkpt>
      <trkpt lat="50.083286985754967" lon="-5.611146977171302">
        <ele>109.73</ele>
        <time>2026-06-23T16:53:48Z</time>
      </trkpt>
      <trkpt lat="50.082846013829112" lon="-5.612276019528508">
        <ele>108.29000000000001</ele>
        <time>2026-06-23T16:53:56Z</time>
      </trkpt>
      <trkpt lat="50.08230697363615" lon="-5.613750983029604">
        <ele>112.61</ele>
        <time>2026-06-23T16:54:06Z</time>
      </trkpt>
      <trkpt lat="50.081821996718645" lon="-5.615205997601152">
        <ele>119.81999999999999</ele>
        <time>2026-06-23T16:54:15Z</time>
      </trkpt>
      <trkpt lat="50.081431986764073" lon="-5.616338979452848">
        <ele>123.67</ele>
        <time>2026-06-23T16:54:23Z</time>
      </trkpt>
      <trkpt lat="50.081365015357733" lon="-5.616442998871207">
        <ele>123.67</ele>
        <time>2026-06-23T16:54:24Z</time>
      </trkpt>
      <trkpt lat="50.081303995102644" lon="-5.616528997197747">
        <ele>124.15000000000001</ele>
        <time>2026-06-23T16:54:25Z</time>
      </trkpt>
      <trkpt lat="50.081250015646219" lon="-5.616589011624456">
        <ele>124.63</ele>
        <time>2026-06-23T16:54:26Z</time>
      </trkpt>
      <trkpt lat="50.081206010654569" lon="-5.616637961938977">
        <ele>125.11</ele>
        <time>2026-06-23T16:54:27Z</time>
      </trkpt>
      <trkpt lat="50.081057986244559" lon="-5.616775006055832">
        <ele>126.06999999999999</ele>
        <time>2026-06-23T16:54:35Z</time>
      </trkpt>
      <trkpt lat="50.080825975164771" lon="-5.616949014365673">
        <ele>126.06999999999999</ele>
        <time>2026-06-23T16:54:53Z</time>
      </trkpt>
      <trkpt lat="50.080048972740769" lon="-5.617533987388015">
        <ele>125.59</ele>
        <time>2026-06-23T16:55:01Z</time>
      </trkpt>
      <trkpt lat="50.078694960102439" lon="-5.618607038632035">
        <ele>124.15000000000001</ele>
        <time>2026-06-23T16:55:12Z</time>
      </trkpt>
      <trkpt lat="50.077230976894498" lon="-5.619920985773206">
        <ele>125.59</ele>
        <time>2026-06-23T16:55:25Z</time>
      </trkpt>
      <trkpt lat="50.076450034976006" lon="-5.620634034276009">
        <ele>125.11</ele>
        <time>2026-06-23T16:55:36Z</time>
      </trkpt>
      <trkpt lat="50.07575299590826" lon="-5.621202997863293">
        <ele>125.11</ele>
        <time>2026-06-23T16:55:47Z</time>
      </trkpt>
      <trkpt lat="50.075707985088229" lon="-5.621230993419886">
        <ele>125.11</ele>
        <time>2026-06-23T16:55:48Z</time>
      </trkpt>
      <trkpt lat="50.075660040602088" lon="-5.621258988976479">
        <ele>125.11</ele>
        <time>2026-06-23T16:55:49Z</time>
      </trkpt>
      <trkpt lat="50.075607988983393" lon="-5.621291007846594">
        <ele>125.11</ele>
        <time>2026-06-23T16:55:50Z</time>
      </trkpt>
      <trkpt lat="50.075547974556684" lon="-5.6213269662112">
        <ele>124.63</ele>
        <time>2026-06-23T16:55:51Z</time>
      </trkpt>
      <trkpt lat="50.075470022857189" lon="-5.621373988687992">
        <ele>124.63</ele>
        <time>2026-06-23T16:55:52Z</time>
      </trkpt>
      <trkpt lat="50.0754090026021" lon="-5.621397960931063">
        <ele>124.15000000000001</ele>
        <time>2026-06-23T16:55:53Z</time>
      </trkpt>
      <trkpt lat="50.075361980125308" lon="-5.621416987851262">
        <ele>123.67</ele>
        <time>2026-06-23T16:55:54Z</time>
      </trkpt>
      <trkpt lat="50.075262989848852" lon="-5.621530981734395">
        <ele>123.19</ele>
        <time>2026-06-23T16:55:55Z</time>
      </trkpt>
      <trkpt lat="50.075189983472228" lon="-5.621615974232554">
        <ele>122.70999999999999</ele>
        <time>2026-06-23T16:55:56Z</time>
      </trkpt>
      <trkpt lat="50.075117982923985" lon="-5.621698033064604">
        <ele>122.22</ele>
        <time>2026-06-23T16:55:57Z</time>
      </trkpt>
      <trkpt lat="50.075052017346025" lon="-5.621782019734383">
        <ele>122.22</ele>
        <time>2026-06-23T16:55:58Z</time>
      </trkpt>
      <trkpt lat="50.074985967949033" lon="-5.621872963383794">
        <ele>122.22</ele>
        <time>2026-06-23T16:55:59Z</time>
      </trkpt>
      <trkpt lat="50.074633006006479" lon="-5.622361041605473">
        <ele>121.73999999999999</ele>
        <time>2026-06-23T16:56:04Z</time>
      </trkpt>
      <trkpt lat="50.074389008805156" lon="-5.622763959690929">
        <ele>120.78</ele>
        <time>2026-06-23T16:56:08Z</time>
      </trkpt>
      <trkpt lat="50.073560038581491" lon="-5.623586978763342">
        <ele>117.90000000000001</ele>
        <time>2026-06-23T16:56:18Z</time>
      </trkpt>
      <trkpt lat="50.072484975680709" lon="-5.624687019735575">
        <ele>115.01000000000001</ele>
        <time>2026-06-23T16:56:29Z</time>
      </trkpt>
      <trkpt lat="50.072393026202917" lon="-5.624837977811694">
        <ele>114.53</ele>
        <time>2026-06-23T16:56:30Z</time>
      </trkpt>
      <trkpt lat="50.071593979373574" lon="-5.626415032893419">
        <ele>110.20999999999999</ele>
        <time>2026-06-23T16:56:38Z</time>
      </trkpt>
      <trkpt lat="50.070312973111868" lon="-5.629114005714655">
        <ele>102.52</ele>
        <time>2026-06-23T16:56:49Z</time>
      </trkpt>
      <trkpt lat="50.068857036530972" lon="-5.631705019623041">
        <ele>103</ele>
        <time>2026-06-23T16:57:00Z</time>
      </trkpt>
      <trkpt lat="50.068720998242497" lon="-5.631841979920864">
        <ele>103.48</ele>
        <time>2026-06-23T16:57:01Z</time>
      </trkpt>
      <trkpt lat="50.068584037944674" lon="-5.631953962147236">
        <ele>103.95999999999999</ele>
        <time>2026-06-23T16:57:02Z</time>
      </trkpt>
      <trkpt lat="50.068439031019807" lon="-5.632029986009002">
        <ele>103.95999999999999</ele>
        <time>2026-06-23T16:57:03Z</time>
      </trkpt>
      <trkpt lat="50.068282037973404" lon="-5.632103998214006">
        <ele>104.44</ele>
        <time>2026-06-23T16:57:04Z</time>
      </trkpt>
      <trkpt lat="50.068113980814815" lon="-5.632182033732534">
        <ele>104.44</ele>
        <time>2026-06-23T16:57:05Z</time>
      </trkpt>
      <trkpt lat="50.067116031423211" lon="-5.633026007562876">
        <ele>102.52</ele>
        <time>2026-06-23T16:57:11Z</time>
      </trkpt>
      <trkpt lat="50.066619990393519" lon="-5.633591031655669">
        <ele>99.150000000000006</ele>
        <time>2026-06-23T16:57:15Z</time>
      </trkpt>
      <trkpt lat="50.066502979025245" lon="-5.633673006668687">
        <ele>98.670000000000002</ele>
        <time>2026-06-23T16:57:16Z</time>
      </trkpt>
      <trkpt lat="50.065815998241305" lon="-5.63408799469471">
        <ele>92.900000000000006</ele>
        <time>2026-06-23T16:57:22Z</time>
      </trkpt>
      <trkpt lat="50.065031033009291" lon="-5.634269965812564">
        <ele>90.019999999999996</ele>
        <time>2026-06-23T16:57:28Z</time>
      </trkpt>
      <trkpt lat="50.06473196670413" lon="-5.634272983297706">
        <ele>90.5</ele>
        <time>2026-06-23T16:57:30Z</time>
      </trkpt>
      <trkpt lat="50.064570028334856" lon="-5.634336015209556">
        <ele>90.980000000000004</ele>
        <time>2026-06-23T16:57:31Z</time>
      </trkpt>
      <trkpt lat="50.063718007877469" lon="-5.634729964658618">
        <ele>96.269999999999996</ele>
        <time>2026-06-23T16:57:37Z</time>
      </trkpt>
      <trkpt lat="50.063609965145588" lon="-5.6348189804703">
        <ele>96.75</ele>
        <time>2026-06-23T16:57:38Z</time>
      </trkpt>
      <trkpt lat="50.063381977379322" lon="-5.635005980730057">
        <ele>97.709999999999994</ele>
        <time>2026-06-23T16:57:40Z</time>
      </trkpt>
      <trkpt lat="50.062959026545286" lon="-5.635414011776447">
        <ele>97.709999999999994</ele>
        <time>2026-06-23T16:57:44Z</time>
      </trkpt>
      <trkpt lat="50.062889037653804" lon="-5.635536974295974">
        <ele>97.709999999999994</ele>
        <time>2026-06-23T16:57:45Z</time>
      </trkpt>
      <trkpt lat="50.062595000490546" lon="-5.636055981740356">
        <ele>97.230000000000004</ele>
        <time>2026-06-23T16:57:49Z</time>
      </trkpt>
      <trkpt lat="50.062429960817099" lon="-5.636237030848861">
        <ele>97.230000000000004</ele>
        <time>2026-06-23T16:57:51Z</time>
      </trkpt>
      <trkpt lat="50.062380004674196" lon="-5.636286986991763">
        <ele>97.230000000000004</ele>
        <time>2026-06-23T16:57:52Z</time>
      </trkpt>
      <trkpt lat="50.062301969155669" lon="-5.636256979778409">
        <ele>97.230000000000004</ele>
        <time>2026-06-23T16:57:53Z</time>
      </trkpt>
      <trkpt lat="50.062234997749329" lon="-5.636232001706958">
        <ele>97.230000000000004</ele>
        <time>2026-06-23T16:57:54Z</time>
      </trkpt>
      <trkpt lat="50.062175989151001" lon="-5.636175004765391">
        <ele>97.230000000000004</ele>
        <time>2026-06-23T16:57:55Z</time>
      </trkpt>
      <trkpt lat="50.062107006087899" lon="-5.636072997003794">
        <ele>97.230000000000004</ele>
        <time>2026-06-23T16:57:56Z</time>
      </trkpt>
      <trkpt lat="50.061745997518301" lon="-5.635546026751399">
        <ele>96.269999999999996</ele>
        <time>2026-06-23T16:58:01Z</time>
      </trkpt>
      <trkpt lat="50.061687994748354" lon="-5.63546103425324">
        <ele>95.790000000000006</ele>
        <time>2026-06-23T16:58:02Z</time>
      </trkpt>
      <trkpt lat="50.061623034998775" lon="-5.635390961542726">
        <ele>95.790000000000006</ele>
        <time>2026-06-23T16:58:03Z</time>
      </trkpt>
      <trkpt lat="50.061547011137009" lon="-5.635347962379456">
        <ele>95.310000000000002</ele>
        <time>2026-06-23T16:58:04Z</time>
      </trkpt>
      <trkpt lat="50.061456989496946" lon="-5.635341005399823">
        <ele>95.310000000000002</ele>
        <time>2026-06-23T16:58:05Z</time>
      </trkpt>
      <trkpt lat="50.061353975906968" lon="-5.635389033704996">
        <ele>94.829999999999998</ele>
        <time>2026-06-23T16:58:06Z</time>
      </trkpt>
      <trkpt lat="50.061221960932016" lon="-5.635449970141053">
        <ele>94.829999999999998</ele>
        <time>2026-06-23T16:58:07Z</time>
      </trkpt>
      <trkpt lat="50.06112003698945" lon="-5.63552800565958">
        <ele>94.349999999999994</ele>
        <time>2026-06-23T16:58:08Z</time>
      </trkpt>
      <trkpt lat="50.061009982600808" lon="-5.635611992329359">
        <ele>94.349999999999994</ele>
        <time>2026-06-23T16:58:09Z</time>
      </trkpt>
      <trkpt lat="50.060358960181475" lon="-5.636108033359051">
        <ele>92.900000000000006</ele>
        <time>2026-06-23T16:58:17Z</time>
      </trkpt>
      <trkpt lat="50.060280002653599" lon="-5.636152038350701">
        <ele>92.900000000000006</ele>
        <time>2026-06-23T16:58:18Z</time>
      </trkpt>
      <trkpt lat="50.060200961306691" lon="-5.636182967573404">
        <ele>92.900000000000006</ele>
        <time>2026-06-23T16:58:19Z</time>
      </trkpt>
      <trkpt lat="50.059360004961491" lon="-5.636520003899932">
        <ele>95.310000000000002</ele>
        <time>2026-06-23T16:58:29Z</time>
      </trkpt>
      <trkpt lat="50.05862700752914" lon="-5.637013027444482">
        <ele>98.189999999999998</ele>
        <time>2026-06-23T16:58:36Z</time>
      </trkpt>
      <trkpt lat="50.058182012289762" lon="-5.63724403269589">
        <ele>99.629999999999995</ele>
        <time>2026-06-23T16:58:39Z</time>
      </trkpt>
      <trkpt lat="50.058020995929837" lon="-5.637261969968677">
        <ele>99.629999999999995</ele>
        <time>2026-06-23T16:58:40Z</time>
      </trkpt>
      <trkpt lat="50.05785402841866" lon="-5.637271022424102">
        <ele>99.629999999999995</ele>
        <time>2026-06-23T16:58:41Z</time>
      </trkpt>
      <trkpt lat="50.057679014280438" lon="-5.637246966362">
        <ele>100.11</ele>
        <time>2026-06-23T16:58:42Z</time>
      </trkpt>
      <trkpt lat="50.057497965171933" lon="-5.637222994118929">
        <ele>100.11</ele>
        <time>2026-06-23T16:58:43Z</time>
      </trkpt>
      <trkpt lat="50.056330030784011" lon="-5.637144036591053">
        <ele>99.629999999999995</ele>
        <time>2026-06-23T16:58:50Z</time>
      </trkpt>
      <trkpt lat="50.056201033294201" lon="-5.63720497302711">
        <ele>99.629999999999995</ele>
        <time>2026-06-23T16:58:51Z</time>
      </trkpt>
      <trkpt lat="50.05596499890089" lon="-5.637317039072514">
        <ele>99.150000000000006</ele>
        <time>2026-06-23T16:58:53Z</time>
      </trkpt>
      <trkpt lat="50.055853016674519" lon="-5.637302035465837">
        <ele>99.150000000000006</ele>
        <time>2026-06-23T16:58:54Z</time>
      </trkpt>
      <trkpt lat="50.055743968114257" lon="-5.63728803768754">
        <ele>98.670000000000002</ele>
        <time>2026-06-23T16:58:55Z</time>
      </trkpt>
      <trkpt lat="50.05564296618104" lon="-5.637274039909244">
        <ele>98.670000000000002</ele>
        <time>2026-06-23T16:58:56Z</time>
      </trkpt>
      <trkpt lat="50.055544981732965" lon="-5.637277979403734">
        <ele>98.189999999999998</ele>
        <time>2026-06-23T16:58:57Z</time>
      </trkpt>
      <trkpt lat="50.055444985628128" lon="-5.637283008545637">
        <ele>98.189999999999998</ele>
        <time>2026-06-23T16:58:58Z</time>
      </trkpt>
      <trkpt lat="50.05534297786653" lon="-5.63728703185916">
        <ele>97.709999999999994</ele>
        <time>2026-06-23T16:58:59Z</time>
      </trkpt>
      <trkpt lat="50.054420968517661" lon="-5.637405971065164">
        <ele>90.5</ele>
        <time>2026-06-23T16:59:08Z</time>
      </trkpt>
      <trkpt lat="50.054203039035201" lon="-5.637475037947297">
        <ele>87.620000000000005</ele>
        <time>2026-06-23T16:59:11Z</time>
      </trkpt>
      <trkpt lat="50.054144030436873" lon="-5.637476965785027">
        <ele>86.659999999999997</ele>
        <time>2026-06-23T16:59:12Z</time>
      </trkpt>
      <trkpt lat="50.054082004353404" lon="-5.63744000159204">
        <ele>85.689999999999998</ele>
        <time>2026-06-23T16:59:13Z</time>
      </trkpt>
      <trkpt lat="50.054030036553741" lon="-5.637368001043797">
        <ele>84.730000000000004</ele>
        <time>2026-06-23T16:59:14Z</time>
      </trkpt>
      <trkpt lat="50.053975973278284" lon="-5.637245960533619">
        <ele>84.25</ele>
        <time>2026-06-23T16:59:15Z</time>
      </trkpt>
      <trkpt lat="50.053912019357085" lon="-5.637100031599402">
        <ele>83.290000000000006</ele>
        <time>2026-06-23T16:59:16Z</time>
      </trkpt>
      <trkpt lat="50.053844964131713" lon="-5.636947983875871">
        <ele>82.810000000000002</ele>
        <time>2026-06-23T16:59:17Z</time>
      </trkpt>
      <trkpt lat="50.053777992725372" lon="-5.636797025799751">
        <ele>82.329999999999998</ele>
        <time>2026-06-23T16:59:18Z</time>
      </trkpt>
      <trkpt lat="50.053475992754102" lon="-5.636111972853541">
        <ele>77.040000000000006</ele>
        <time>2026-06-23T16:59:24Z</time>
      </trkpt>
      <trkpt lat="50.053452020511031" lon="-5.636057993397117">
        <ele>76.079999999999998</ele>
        <time>2026-06-23T16:59:25Z</time>
      </trkpt>
      <trkpt lat="50.053432993590832" lon="-5.636014994233847">
        <ele>75.120000000000005</ele>
        <time>2026-06-23T16:59:26Z</time>
      </trkpt>
      <trkpt lat="50.053413966670632" lon="-5.635970989242196">
        <ele>74.640000000000001</ele>
        <time>2026-06-23T16:59:27Z</time>
      </trkpt>
      <trkpt lat="50.053411033004522" lon="-5.635965038090944">
        <ele>73.680000000000007</ele>
        <time>2026-06-23T16:59:28Z</time>
      </trkpt>
      <trkpt lat="50.053356969729066" lon="-5.635965038090944">
        <ele>72.719999999999999</ele>
        <time>2026-06-23T16:59:29Z</time>
      </trkpt>
      <trkpt lat="50.053325034677982" lon="-5.635965038090944">
        <ele>72.239999999999995</ele>
        <time>2026-06-23T16:59:30Z</time>
      </trkpt>
      <trkpt lat="50.053298966959119" lon="-5.636004013940692">
        <ele>71.269999999999996</ele>
        <time>2026-06-23T16:59:31Z</time>
      </trkpt>
      <trkpt lat="50.053283963352442" lon="-5.636055981740356">
        <ele>69.829999999999998</ele>
        <time>2026-06-23T16:59:32Z</time>
      </trkpt>
      <trkpt lat="50.053288992494345" lon="-5.63614902086556">
        <ele>68.870000000000005</ele>
        <time>2026-06-23T16:59:33Z</time>
      </trkpt>
      <trkpt lat="50.053295027464628" lon="-5.636264020577073">
        <ele>67.430000000000007</ele>
        <time>2026-06-23T16:59:34Z</time>
      </trkpt>
      <trkpt lat="50.053302990272641" lon="-5.636398969218135">
        <ele>66.469999999999999</ele>
        <time>2026-06-23T16:59:35Z</time>
      </trkpt>
      <trkpt lat="50.053307013586164" lon="-5.636541964486241">
        <ele>65.510000000000005</ele>
        <time>2026-06-23T16:59:36Z</time>
      </trkpt>
      <trkpt lat="50.053314976394176" lon="-5.636826027184725">
        <ele>63.100000000000001</ele>
        <time>2026-06-23T16:59:38Z</time>
      </trkpt>
      <trkpt lat="50.053238030523062" lon="-5.638045007362962">
        <ele>53.969999999999999</ele>
        <time>2026-06-23T16:59:47Z</time>
      </trkpt>
      <trkpt lat="50.053224032744765" lon="-5.638175010681152">
        <ele>52.530000000000001</ele>
        <time>2026-06-23T16:59:48Z</time>
      </trkpt>
      <trkpt lat="50.053211040794849" lon="-5.638294033706188">
        <ele>51.57</ele>
        <time>2026-06-23T16:59:49Z</time>
      </trkpt>
      <trkpt lat="50.053199976682663" lon="-5.638396041467786">
        <ele>50.130000000000003</ele>
        <time>2026-06-23T16:59:50Z</time>
      </trkpt>
      <trkpt lat="50.053180027753115" lon="-5.638493020087481">
        <ele>49.159999999999997</ele>
        <time>2026-06-23T16:59:51Z</time>
      </trkpt>
      <trkpt lat="50.053153038024902" lon="-5.638591004535556">
        <ele>48.200000000000003</ele>
        <time>2026-06-23T16:59:52Z</time>
      </trkpt>
      <trkpt lat="50.053122024983168" lon="-5.638700975105166">
        <ele>47.240000000000002</ele>
        <time>2026-06-23T16:59:53Z</time>
      </trkpt>
      <trkpt lat="50.053089000284672" lon="-5.638818992301822">
        <ele>45.799999999999997</ele>
        <time>2026-06-23T16:59:54Z</time>
      </trkpt>
      <trkpt lat="50.053000990301371" lon="-5.638923011720181">
        <ele>43.880000000000003</ele>
        <time>2026-06-23T16:59:56Z</time>
      </trkpt>
      <trkpt lat="50.052937036380172" lon="-5.638999035581946">
        <ele>42.439999999999998</ele>
        <time>2026-06-23T16:59:57Z</time>
      </trkpt>
      <trkpt lat="50.052865035831928" lon="-5.639084028080106">
        <ele>41.469999999999999</ele>
        <time>2026-06-23T16:59:58Z</time>
      </trkpt>
      <trkpt lat="50.052812984213233" lon="-5.639178995043039">
        <ele>40.030000000000001</ele>
        <time>2026-06-23T16:59:59Z</time>
      </trkpt>
      <trkpt lat="50.052763028070331" lon="-5.639277985319495">
        <ele>38.590000000000003</ele>
        <time>2026-06-23T17:00:00Z</time>
      </trkpt>
      <trkpt lat="50.052717011421919" lon="-5.639371024444699">
        <ele>37.149999999999999</ele>
        <time>2026-06-23T17:00:01Z</time>
      </trkpt>
      <trkpt lat="50.052660014480352" lon="-5.639484012499452">
        <ele>35.710000000000001</ele>
        <time>2026-06-23T17:00:02Z</time>
      </trkpt>
      <trkpt lat="50.052642999216914" lon="-5.639538997784257">
        <ele>34.259999999999998</ele>
        <time>2026-06-23T17:00:03Z</time>
      </trkpt>
      <trkpt lat="50.052613997831941" lon="-5.639629019424319">
        <ele>33.299999999999997</ele>
        <time>2026-06-23T17:00:04Z</time>
      </trkpt>
      <trkpt lat="50.052521964535117" lon="-5.639924984425306">
        <ele>31.859999999999999</ele>
        <time>2026-06-23T17:00:07Z</time>
      </trkpt>
      <trkpt lat="50.052410988137126" lon="-5.64034198410809">
        <ele>34.259999999999998</ele>
        <time>2026-06-23T17:00:10Z</time>
      </trkpt>
      <trkpt lat="50.052000023424625" lon="-5.641763973981142">
        <ele>50.609999999999999</ele>
        <time>2026-06-23T17:00:19Z</time>
      </trkpt>
      <trkpt lat="50.051931040361524" lon="-5.641894983127713">
        <ele>52.530000000000001</ele>
        <time>2026-06-23T17:00:20Z</time>
      </trkpt>
      <trkpt lat="50.05181796848774" lon="-5.64212498255074">
        <ele>55.409999999999997</ele>
        <time>2026-06-23T17:00:22Z</time>
      </trkpt>
      <trkpt lat="50.051799025386572" lon="-5.64227401278913">
        <ele>55.890000000000001</ele>
        <time>2026-06-23T17:00:23Z</time>
      </trkpt>
      <trkpt lat="50.051779998466372" lon="-5.642423965036869">
        <ele>56.369999999999997</ele>
        <time>2026-06-23T17:00:24Z</time>
      </trkpt>
      <trkpt lat="50.051830038428307" lon="-5.6425950396806">
        <ele>56.859999999999999</ele>
        <time>2026-06-23T17:00:25Z</time>
      </trkpt>
      <trkpt lat="50.051879994571209" lon="-5.64276703633368">
        <ele>57.340000000000003</ele>
        <time>2026-06-23T17:00:26Z</time>
      </trkpt>
      <trkpt lat="50.051931962370872" lon="-5.642948001623154">
        <ele>58.780000000000001</ele>
        <time>2026-06-23T17:00:27Z</time>
      </trkpt>
      <trkpt lat="50.052016032859683" lon="-5.64323902130127">
        <ele>61.18</ele>
        <time>2026-06-23T17:00:29Z</time>
      </trkpt>
      <trkpt lat="50.052016032859683" lon="-5.643447982147336">
        <ele>62.619999999999997</ele>
        <time>2026-06-23T17:00:30Z</time>
      </trkpt>
      <trkpt lat="50.052016032859683" lon="-5.64362701959908">
        <ele>64.069999999999993</ele>
        <time>2026-06-23T17:00:31Z</time>
      </trkpt>
      <trkpt lat="50.052004968747497" lon="-5.643806979060173">
        <ele>65.510000000000005</ele>
        <time>2026-06-23T17:00:32Z</time>
      </trkpt>
      <trkpt lat="50.051974961534142" lon="-5.643991967663169">
        <ele>66.950000000000003</ele>
        <time>2026-06-23T17:00:33Z</time>
      </trkpt>
      <trkpt lat="50.05194503813982" lon="-5.64418500289321">
        <ele>68.390000000000001</ele>
        <time>2026-06-23T17:00:34Z</time>
      </trkpt>
      <trkpt lat="50.051785027608275" lon="-5.645465003326535">
        <ele>78</ele>
        <time>2026-06-23T17:00:40Z</time>
      </trkpt>
      <trkpt lat="50.051786033436656" lon="-5.64569097943604">
        <ele>79.930000000000007</ele>
        <time>2026-06-23T17:00:41Z</time>
      </trkpt>
      <trkpt lat="50.05179500207305" lon="-5.645908992737532">
        <ele>81.849999999999994</ele>
        <time>2026-06-23T17:00:42Z</time>
      </trkpt>
      <trkpt lat="50.052092978730798" lon="-5.647833980619907">
        <ele>92.900000000000006</ele>
        <time>2026-06-23T17:00:52Z</time>
      </trkpt>
      <trkpt lat="50.052208984270692" lon="-5.648535965010524">
        <ele>94.349999999999994</ele>
        <time>2026-06-23T17:00:58Z</time>
      </trkpt>
      <trkpt lat="50.052231028676033" lon="-5.648664962500334">
        <ele>94.829999999999998</ele>
        <time>2026-06-23T17:01:07Z</time>
      </trkpt>
      <trkpt lat="50.052391039207578" lon="-5.649352027103305">
        <ele>95.790000000000006</ele>
        <time>2026-06-23T17:01:16Z</time>
      </trkpt>
      <trkpt lat="50.052659008651972" lon="-5.650422982871532">
        <ele>93.390000000000001</ele>
        <time>2026-06-23T17:01:26Z</time>
      </trkpt>
      <trkpt lat="50.05282798781991" lon="-5.651000998914242">
        <ele>92.900000000000006</ele>
        <time>2026-06-23T17:01:36Z</time>
      </trkpt>
      <trkpt lat="50.052835028618574" lon="-5.651020025834441">
        <ele>92.420000000000002</ele>
        <time>2026-06-23T17:01:49Z</time>
      </trkpt>
      <trkpt lat="50.052845003083348" lon="-5.651048021391034">
        <ele>92.420000000000002</ele>
        <time>2026-06-23T17:01:50Z</time>
      </trkpt>
      <trkpt lat="50.052978023886681" lon="-5.651417998597026">
        <ele>90.980000000000004</ele>
        <time>2026-06-23T17:01:58Z</time>
      </trkpt>
      <trkpt lat="50.053184973075986" lon="-5.651977993547916">
        <ele>91.459999999999994</ele>
        <time>2026-06-23T17:02:09Z</time>
      </trkpt>
      <trkpt lat="50.053298966959119" lon="-5.652288040146232">
        <ele>91.939999999999998</ele>
        <time>2026-06-23T17:02:17Z</time>
      </trkpt>
      <trkpt lat="50.053354036062956" lon="-5.65239398740232">
        <ele>92.420000000000002</ele>
        <time>2026-06-23T17:02:19Z</time>
      </trkpt>
      <trkpt lat="50.053440034389496" lon="-5.652499012649059">
        <ele>92.420000000000002</ele>
        <time>2026-06-23T17:02:21Z</time>
      </trkpt>
      <trkpt lat="50.053496025502682" lon="-5.652566989883781">
        <ele>92.420000000000002</ele>
        <time>2026-06-23T17:02:22Z</time>
      </trkpt>
      <trkpt lat="50.054273027926683" lon="-5.653516994789243">
        <ele>90.5</ele>
        <time>2026-06-23T17:02:35Z</time>
      </trkpt>
      <trkpt lat="50.054706959053874" lon="-5.654228031635284">
        <ele>88.099999999999994</ele>
        <time>2026-06-23T17:02:42Z</time>
      </trkpt>
      <trkpt lat="50.054746018722653" lon="-5.654364991933107">
        <ele>88.099999999999994</ele>
        <time>2026-06-23T17:02:43Z</time>
      </trkpt>
      <trkpt lat="50.05478398874402" lon="-5.654503963887692">
        <ele>87.620000000000005</ele>
        <time>2026-06-23T17:02:44Z</time>
      </trkpt>
      <trkpt lat="50.055138962343335" lon="-5.65561599098146">
        <ele>88.099999999999994</ele>
        <time>2026-06-23T17:02:53Z</time>
      </trkpt>
      <trkpt lat="50.055481027811766" lon="-5.656531965360045">
        <ele>87.140000000000001</ele>
        <time>2026-06-23T17:03:00Z</time>
      </trkpt>
      <trkpt lat="50.055510029196739" lon="-5.656677978113294">
        <ele>86.659999999999997</ele>
        <time>2026-06-23T17:03:01Z</time>
      </trkpt>
      <trkpt lat="50.055531989783049" lon="-5.656824996694922">
        <ele>86.659999999999997</ele>
        <time>2026-06-23T17:03:02Z</time>
      </trkpt>
      <trkpt lat="50.055733993649483" lon="-5.658152019605041">
        <ele>86.659999999999997</ele>
        <time>2026-06-23T17:03:12Z</time>
      </trkpt>
      <trkpt lat="50.055701974779367" lon="-5.65828001126647">
        <ele>86.659999999999997</ele>
        <time>2026-06-23T17:03:13Z</time>
      </trkpt>
      <trkpt lat="50.055653024464846" lon="-5.658301971852779">
        <ele>86.659999999999997</ele>
        <time>2026-06-23T17:03:14Z</time>
      </trkpt>
      <trkpt lat="50.055584963411093" lon="-5.658331979066134">
        <ele>86.659999999999997</ele>
        <time>2026-06-23T17:03:15Z</time>
      </trkpt>
      <trkpt lat="50.055497037246823" lon="-5.658371038734913">
        <ele>87.140000000000001</ele>
        <time>2026-06-23T17:03:16Z</time>
      </trkpt>
      <trkpt lat="50.055394023656845" lon="-5.658415965735912">
        <ele>87.140000000000001</ele>
        <time>2026-06-23T17:03:17Z</time>
      </trkpt>
      <trkpt lat="50.05527600646019" lon="-5.658468017354608">
        <ele>87.620000000000005</ele>
        <time>2026-06-23T17:03:18Z</time>
      </trkpt>
      <trkpt lat="50.05514700897038" lon="-5.658498024567962">
        <ele>88.099999999999994</ele>
        <time>2026-06-23T17:03:19Z</time>
      </trkpt>
      <trkpt lat="50.055012982338667" lon="-5.658501964062452">
        <ele>88.579999999999998</ele>
        <time>2026-06-23T17:03:20Z</time>
      </trkpt>
      <trkpt lat="50.054881973192096" lon="-5.658505987375975">
        <ele>89.540000000000006</ele>
        <time>2026-06-23T17:03:21Z</time>
      </trkpt>
      <trkpt lat="50.054540997371078" lon="-5.658515961840749">
        <ele>92.420000000000002</ele>
        <time>2026-06-23T17:03:24Z</time>
      </trkpt>
      <trkpt lat="50.054436977952719" lon="-5.658591985702515">
        <ele>92.900000000000006</ele>
        <time>2026-06-23T17:03:25Z</time>
      </trkpt>
      <trkpt lat="50.054336981847882" lon="-5.658676978200674">
        <ele>93.870000000000005</ele>
        <time>2026-06-23T17:03:26Z</time>
      </trkpt>
      <trkpt lat="50.054139001294971" lon="-5.658844029530883">
        <ele>94.829999999999998</ele>
        <time>2026-06-23T17:03:28Z</time>
      </trkpt>
      <trkpt lat="50.054036993533373" lon="-5.658892979845405">
        <ele>95.310000000000002</ele>
        <time>2026-06-23T17:03:29Z</time>
      </trkpt>
      <trkpt lat="50.053933979943395" lon="-5.658934973180294">
        <ele>95.790000000000006</ele>
        <time>2026-06-23T17:03:30Z</time>
      </trkpt>
      <trkpt lat="50.053820991888642" lon="-5.658950982615352">
        <ele>95.310000000000002</ele>
        <time>2026-06-23T17:03:31Z</time>
      </trkpt>
      <trkpt lat="50.053700963035226" lon="-5.658957017585635">
        <ele>95.310000000000002</ele>
        <time>2026-06-23T17:03:32Z</time>
      </trkpt>
      <trkpt lat="50.052769985049963" lon="-5.659120967611671">
        <ele>90.980000000000004</ele>
        <time>2026-06-23T17:03:39Z</time>
      </trkpt>
      <trkpt lat="50.052617015317082" lon="-5.659104036167264">
        <ele>89.540000000000006</ele>
        <time>2026-06-23T17:03:40Z</time>
      </trkpt>
      <trkpt lat="50.052478965371847" lon="-5.659028012305498">
        <ele>88.579999999999998</ele>
        <time>2026-06-23T17:03:41Z</time>
      </trkpt>
      <trkpt lat="50.052023995667696" lon="-5.658776974305511">
        <ele>87.620000000000005</ele>
        <time>2026-06-23T17:03:45Z</time>
      </trkpt>
      <trkpt lat="50.051930034533143" lon="-5.658726012334228">
        <ele>87.620000000000005</ele>
        <time>2026-06-23T17:03:46Z</time>
      </trkpt>
      <trkpt lat="50.051833977922797" lon="-5.658673038706183">
        <ele>87.140000000000001</ele>
        <time>2026-06-23T17:03:47Z</time>
      </trkpt>
      <trkpt lat="50.051720989868045" lon="-5.658731041476131">
        <ele>86.659999999999997</ele>
        <time>2026-06-23T17:03:48Z</time>
      </trkpt>
      <trkpt lat="50.051614958792925" lon="-5.658797007054091">
        <ele>86.180000000000007</ele>
        <time>2026-06-23T17:03:49Z</time>
      </trkpt>
      <trkpt lat="50.051503982394934" lon="-5.658866995945573">
        <ele>85.209999999999994</ele>
        <time>2026-06-23T17:03:50Z</time>
      </trkpt>
      <trkpt lat="50.05138898268342" lon="-5.658938996493816">
        <ele>84.25</ele>
        <time>2026-06-23T17:03:51Z</time>
      </trkpt>
      <trkpt lat="50.051270965486765" lon="-5.659012002870441">
        <ele>83.290000000000006</ele>
        <time>2026-06-23T17:03:52Z</time>
      </trkpt>
      <trkpt lat="50.051153032109141" lon="-5.659086015075445">
        <ele>81.849999999999994</ele>
        <time>2026-06-23T17:03:53Z</time>
      </trkpt>
      <trkpt lat="50.051030991598964" lon="-5.659091966226697">
        <ele>80.409999999999997</ele>
        <time>2026-06-23T17:03:54Z</time>
      </trkpt>
      <trkpt lat="50.05091498605907" lon="-5.659087020903826">
        <ele>78.969999999999999</ele>
        <time>2026-06-23T17:03:55Z</time>
      </trkpt>
      <trkpt lat="50.050820019096136" lon="-5.659082997590303">
        <ele>77.519999999999996</ele>
        <time>2026-06-23T17:03:56Z</time>
      </trkpt>
      <trkpt lat="50.050738966092467" lon="-5.659078974276781">
        <ele>76.560000000000002</ele>
        <time>2026-06-23T17:03:57Z</time>
      </trkpt>
      <trkpt lat="50.050175031647086" lon="-5.658879987895489">
        <ele>71.269999999999996</ele>
        <time>2026-06-23T17:04:04Z</time>
      </trkpt>
      <trkpt lat="50.050079980865121" lon="-5.658876970410347">
        <ele>70.310000000000002</ele>
        <time>2026-06-23T17:04:05Z</time>
      </trkpt>
      <trkpt lat="50.049787033349276" lon="-5.658864984288812">
        <ele>66.950000000000003</ele>
        <time>2026-06-23T17:04:08Z</time>
      </trkpt>
      <trkpt lat="50.049676978960633" lon="-5.658860038965941">
        <ele>65.510000000000005</ele>
        <time>2026-06-23T17:04:09Z</time>
      </trkpt>
      <trkpt lat="50.049330973997712" lon="-5.658745039254427">
        <ele>61.659999999999997</ele>
        <time>2026-06-23T17:04:13Z</time>
      </trkpt>
      <trkpt lat="50.049246987327933" lon="-5.65868997015059">
        <ele>60.700000000000003</ele>
        <time>2026-06-23T17:04:14Z</time>
      </trkpt>
      <trkpt lat="50.049170963466167" lon="-5.658618975430727">
        <ele>59.740000000000002</ele>
        <time>2026-06-23T17:04:15Z</time>
      </trkpt>
      <trkpt lat="50.049091000109911" lon="-5.658544041216373">
        <ele>59.259999999999998</ele>
        <time>2026-06-23T17:04:16Z</time>
      </trkpt>
      <trkpt lat="50.049011036753654" lon="-5.658469023182988">
        <ele>59.259999999999998</ele>
        <time>2026-06-23T17:04:17Z</time>
      </trkpt>
      <trkpt lat="50.048439977690578" lon="-5.657802997156978">
        <ele>57.340000000000003</ele>
        <time>2026-06-23T17:04:25Z</time>
      </trkpt>
      <trkpt lat="50.048367977142334" lon="-5.657716998830438">
        <ele>57.340000000000003</ele>
        <time>2026-06-23T17:04:26Z</time>
      </trkpt>
      <trkpt lat="50.048282984644175" lon="-5.657615996897221">
        <ele>57.340000000000003</ele>
        <time>2026-06-23T17:04:27Z</time>
      </trkpt>
      <trkpt lat="50.047722989693284" lon="-5.657235961407423">
        <ele>54.450000000000003</ele>
        <time>2026-06-23T17:04:35Z</time>
      </trkpt>
      <trkpt lat="50.047524003311992" lon="-5.657106963917613">
        <ele>53.969999999999999</ele>
        <time>2026-06-23T17:04:38Z</time>
      </trkpt>
      <trkpt lat="50.047460971400142" lon="-5.657065976411104">
        <ele>53.969999999999999</ele>
        <time>2026-06-23T17:04:39Z</time>
      </trkpt>
      <trkpt lat="50.047396011650562" lon="-5.657023983076215">
        <ele>53.490000000000002</ele>
        <time>2026-06-23T17:04:40Z</time>
      </trkpt>
      <trkpt lat="50.047334991395473" lon="-5.656960029155016">
        <ele>53.490000000000002</ele>
        <time>2026-06-23T17:04:41Z</time>
      </trkpt>
      <trkpt lat="50.047272965312004" lon="-5.656887022778392">
        <ele>53.009999999999998</ele>
        <time>2026-06-23T17:04:42Z</time>
      </trkpt>
      <trkpt lat="50.047209011390805" lon="-5.656809993088245">
        <ele>52.049999999999997</ele>
        <time>2026-06-23T17:04:43Z</time>
      </trkpt>
      <trkpt lat="50.04700499586761" lon="-5.656568007543683">
        <ele>49.649999999999999</ele>
        <time>2026-06-23T17:04:46Z</time>
      </trkpt>
      <trkpt lat="50.046928972005844" lon="-5.656477985903621">
        <ele>48.68</ele>
        <time>2026-06-23T17:04:47Z</time>
      </trkpt>
      <trkpt lat="50.046619009226561" lon="-5.6561319809407">
        <ele>44.359999999999999</ele>
        <time>2026-06-23T17:04:51Z</time>
      </trkpt>
      <trkpt lat="50.0461679790169" lon="-5.655728979036212">
        <ele>39.07</ele>
        <time>2026-06-23T17:04:57Z</time>
      </trkpt>
      <trkpt lat="50.045751985162497" lon="-5.655321031808853">
        <ele>38.590000000000003</ele>
        <time>2026-06-23T17:05:03Z</time>
      </trkpt>
      <trkpt lat="50.045676967129111" lon="-5.655246013775468">
        <ele>38.590000000000003</ele>
        <time>2026-06-23T17:05:04Z</time>
      </trkpt>
      <trkpt lat="50.045601027086377" lon="-5.655169989913702">
        <ele>38.590000000000003</ele>
        <time>2026-06-23T17:05:05Z</time>
      </trkpt>
      <trkpt lat="50.045531960204244" lon="-5.655092960223556">
        <ele>38.109999999999999</ele>
        <time>2026-06-23T17:05:06Z</time>
      </trkpt>
      <trkpt lat="50.045459037646651" lon="-5.655010985210538">
        <ele>37.630000000000003</ele>
        <time>2026-06-23T17:05:07Z</time>
      </trkpt>
      <trkpt lat="50.045383013784885" lon="-5.654924986883998">
        <ele>37.149999999999999</ele>
        <time>2026-06-23T17:05:08Z</time>
      </trkpt>
      <trkpt lat="50.045310007408261" lon="-5.6548420060426">
        <ele>36.670000000000002</ele>
        <time>2026-06-23T17:05:09Z</time>
      </trkpt>
      <trkpt lat="50.045004989951849" lon="-5.65454101189971">
        <ele>34.259999999999998</ele>
        <time>2026-06-23T17:05:14Z</time>
      </trkpt>
      <trkpt lat="50.044944975525141" lon="-5.654516033828259">
        <ele>34.259999999999998</ele>
        <time>2026-06-23T17:05:15Z</time>
      </trkpt>
      <trkpt lat="50.044879009947181" lon="-5.654488038271666">
        <ele>33.780000000000001</ele>
        <time>2026-06-23T17:05:16Z</time>
      </trkpt>
      <trkpt lat="50.044818995520473" lon="-5.654462976381183">
        <ele>33.780000000000001</ele>
        <time>2026-06-23T17:05:17Z</time>
      </trkpt>
      <trkpt lat="50.044759986922145" lon="-5.654439004138112">
        <ele>33.780000000000001</ele>
        <time>2026-06-23T17:05:18Z</time>
      </trkpt>
      <trkpt lat="50.044398978352547" lon="-5.654311012476683">
        <ele>35.710000000000001</ele>
        <time>2026-06-23T17:05:23Z</time>
      </trkpt>
      <trkpt lat="50.044327983632684" lon="-5.654258960857987">
        <ele>36.670000000000002</ele>
        <time>2026-06-23T17:05:24Z</time>
      </trkpt>
      <trkpt lat="50.044135032221675" lon="-5.654116971418262">
        <ele>39.549999999999997</ele>
        <time>2026-06-23T17:05:27Z</time>
      </trkpt>
      <trkpt lat="50.043472023680806" lon="-5.653692008927465">
        <ele>51.57</ele>
        <time>2026-06-23T17:05:38Z</time>
      </trkpt>
      <trkpt lat="50.043420977890491" lon="-5.653670970350504">
        <ele>52.530000000000001</ele>
        <time>2026-06-23T17:05:39Z</time>
      </trkpt>
      <trkpt lat="50.043365992605686" lon="-5.653701983392239">
        <ele>53.490000000000002</ele>
        <time>2026-06-23T17:05:40Z</time>
      </trkpt>
      <trkpt lat="50.043327016755939" lon="-5.653730984777212">
        <ele>54.93</ele>
        <time>2026-06-23T17:05:41Z</time>
      </trkpt>
      <trkpt lat="50.04333003424108" lon="-5.653809020295739">
        <ele>55.890000000000001</ele>
        <time>2026-06-23T17:05:42Z</time>
      </trkpt>
      <trkpt lat="50.043333973735571" lon="-5.653883032500744">
        <ele>56.859999999999999</ele>
        <time>2026-06-23T17:05:43Z</time>
      </trkpt>
      <trkpt lat="50.043337997049093" lon="-5.653970036655664">
        <ele>57.82</ele>
        <time>2026-06-23T17:05:44Z</time>
      </trkpt>
      <trkpt lat="50.043343026190996" lon="-5.654051005840302">
        <ele>58.780000000000001</ele>
        <time>2026-06-23T17:05:45Z</time>
      </trkpt>
      <trkpt lat="50.043345959857106" lon="-5.654113031923771">
        <ele>60.219999999999999</ele>
        <time>2026-06-23T17:05:46Z</time>
      </trkpt>
      <trkpt lat="50.043327016755939" lon="-5.654156031087041">
        <ele>61.18</ele>
        <time>2026-06-23T17:05:47Z</time>
      </trkpt>
      <trkpt lat="50.04328896291554" lon="-5.654186038300395">
        <ele>62.140000000000001</ele>
        <time>2026-06-23T17:05:48Z</time>
      </trkpt>
      <trkpt lat="50.043240012601018" lon="-5.654225014150143">
        <ele>63.100000000000001</ele>
        <time>2026-06-23T17:05:49Z</time>
      </trkpt>
      <trkpt lat="50.043195001780987" lon="-5.654247980564833">
        <ele>64.549999999999997</ele>
        <time>2026-06-23T17:05:50Z</time>
      </trkpt>
      <trkpt lat="50.043148985132575" lon="-5.654271030798554">
        <ele>65.510000000000005</ele>
        <time>2026-06-23T17:05:51Z</time>
      </trkpt>
      <trkpt lat="50.043058041483164" lon="-5.654316041618586">
        <ele>67.430000000000007</ele>
        <time>2026-06-23T17:05:53Z</time>
      </trkpt>
      <trkpt lat="50.043019987642765" lon="-5.654335990548134">
        <ele>67.909999999999997</ele>
        <time>2026-06-23T17:05:54Z</time>
      </trkpt>
      <trkpt lat="50.04298796877265" lon="-5.654350994154811">
        <ele>68.870000000000005</ele>
        <time>2026-06-23T17:05:55Z</time>
      </trkpt>
      <trkpt lat="50.042959973216057" lon="-5.654364991933107">
        <ele>69.829999999999998</ele>
        <time>2026-06-23T17:05:56Z</time>
      </trkpt>
      <trkpt lat="50.042910017073154" lon="-5.654313024133444">
        <ele>70.310000000000002</ele>
        <time>2026-06-23T17:05:57Z</time>
      </trkpt>
      <trkpt lat="50.042882021516562" lon="-5.654255021363497">
        <ele>71.269999999999996</ele>
        <time>2026-06-23T17:05:58Z</time>
      </trkpt>
      <trkpt lat="50.042847990989685" lon="-5.654183020815253">
        <ele>71.760000000000005</ele>
        <time>2026-06-23T17:05:59Z</time>
      </trkpt>
      <trkpt lat="50.042451024055481" lon="-5.653349021449685">
        <ele>71.269999999999996</ele>
        <time>2026-06-23T17:06:09Z</time>
      </trkpt>
      <trkpt lat="50.04232001490891" lon="-5.653071999549866">
        <ele>70.310000000000002</ele>
        <time>2026-06-23T17:06:13Z</time>
      </trkpt>
      <trkpt lat="50.042283972725272" lon="-5.653047021478415">
        <ele>69.829999999999998</ele>
        <time>2026-06-23T17:06:14Z</time>
      </trkpt>
      <trkpt lat="50.042250026017427" lon="-5.653025982901454">
        <ele>69.349999999999994</ele>
        <time>2026-06-23T17:06:15Z</time>
      </trkpt>
      <trkpt lat="50.042209960520267" lon="-5.653002010658383">
        <ele>69.349999999999994</ele>
        <time>2026-06-23T17:06:16Z</time>
      </trkpt>
      <trkpt lat="50.042177019640803" lon="-5.653023971244693">
        <ele>69.349999999999994</ele>
        <time>2026-06-23T17:06:17Z</time>
      </trkpt>
      <trkpt lat="50.042134020477533" lon="-5.653052972629666">
        <ele>68.870000000000005</ele>
        <time>2026-06-23T17:06:18Z</time>
      </trkpt>
      <trkpt lat="50.042092027142644" lon="-5.653080968186259">
        <ele>68.870000000000005</ele>
        <time>2026-06-23T17:06:19Z</time>
      </trkpt>
      <trkpt lat="50.042057996615767" lon="-5.653104018419981">
        <ele>68.390000000000001</ele>
        <time>2026-06-23T17:06:20Z</time>
      </trkpt>
      <trkpt lat="50.042035030201077" lon="-5.653119022026658">
        <ele>67.909999999999997</ele>
        <time>2026-06-23T17:06:21Z</time>
      </trkpt>
      <trkpt lat="50.042035030201077" lon="-5.653119022026658">
        <ele>67.909999999999997</ele>
        <time>2026-06-23T17:06:22Z</time>
      </trkpt>
      <trkpt lat="50.042007034644485" lon="-5.653122961521149">
        <ele>67.909999999999997</ele>
        <time>2026-06-23T17:06:23Z</time>
      </trkpt>
      <trkpt lat="50.04197996109724" lon="-5.6531030125916">
        <ele>67.909999999999997</ele>
        <time>2026-06-23T17:06:25Z</time>
      </trkpt>
      <trkpt lat="50.04195598885417" lon="-5.653083985671401">
        <ele>67.909999999999997</ele>
        <time>2026-06-23T17:06:26Z</time>
      </trkpt>
      <trkpt lat="50.041690031066537" lon="-5.652877958491445">
        <ele>66.950000000000003</ele>
        <time>2026-06-23T17:06:32Z</time>
      </trkpt>
      <trkpt lat="50.041647031903267" lon="-5.65284501761198">
        <ele>66.950000000000003</ele>
        <time>2026-06-23T17:06:33Z</time>
      </trkpt>
      <trkpt lat="50.041606966406107" lon="-5.652815010398626">
        <ele>66.469999999999999</ele>
        <time>2026-06-23T17:06:34Z</time>
      </trkpt>
      <trkpt lat="50.041573019698262" lon="-5.652789026498795">
        <ele>66.469999999999999</ele>
        <time>2026-06-23T17:06:35Z</time>
      </trkpt>
      <trkpt lat="50.041543012484908" lon="-5.652764970436692">
        <ele>66.469999999999999</ele>
        <time>2026-06-23T17:06:36Z</time>
      </trkpt>
      <trkpt lat="50.041455002501607" lon="-5.652696993201971">
        <ele>65.989999999999995</ele>
        <time>2026-06-23T17:06:47Z</time>
      </trkpt>
      <trkpt lat="50.041455002501607" lon="-5.652696993201971">
        <ele>66.469999999999999</ele>
        <time>2026-06-23T17:07:44Z</time>
      </trkpt>
      <trkpt lat="50.041347965598106" lon="-5.652615018188953">
        <ele>65.510000000000005</ele>
        <time>2026-06-23T17:07:49Z</time>
      </trkpt>
      <trkpt lat="50.041309995576739" lon="-5.65258601680398">
        <ele>65.030000000000001</ele>
        <time>2026-06-23T17:07:50Z</time>
      </trkpt>
      <trkpt lat="50.041250986978412" lon="-5.652590040117502">
        <ele>65.030000000000001</ele>
        <time>2026-06-23T17:07:51Z</time>
      </trkpt>
      <trkpt lat="50.041236989200115" lon="-5.652625998482108">
        <ele>64.549999999999997</ele>
        <time>2026-06-23T17:07:52Z</time>
      </trkpt>
      <trkpt lat="50.041227014735341" lon="-5.652681989595294">
        <ele>64.549999999999997</ele>
        <time>2026-06-23T17:07:53Z</time>
      </trkpt>
      <trkpt lat="50.041232965886593" lon="-5.652720965445042">
        <ele>64.069999999999993</ele>
        <time>2026-06-23T17:07:54Z</time>
      </trkpt>
      <trkpt lat="50.041241012513638" lon="-5.652763964608312">
        <ele>63.579999999999998</ele>
        <time>2026-06-23T17:07:55Z</time>
      </trkpt>
      <trkpt lat="50.041261967271566" lon="-5.652803024277091">
        <ele>63.579999999999998</ele>
        <time>2026-06-23T17:07:56Z</time>
      </trkpt>
      <trkpt lat="50.041289962828159" lon="-5.652828002348542">
        <ele>62.619999999999997</ele>
        <time>2026-06-23T17:07:57Z</time>
      </trkpt>
      <trkpt lat="50.041322987526655" lon="-5.652857003733516">
        <ele>61.659999999999997</ele>
        <time>2026-06-23T17:07:58Z</time>
      </trkpt>
      <trkpt lat="50.041361041367054" lon="-5.652891034260392">
        <ele>61.18</ele>
        <time>2026-06-23T17:07:59Z</time>
      </trkpt>
      <trkpt lat="50.041404040530324" lon="-5.65293001011014">
        <ele>60.700000000000003</ele>
        <time>2026-06-23T17:08:00Z</time>
      </trkpt>
      <trkpt lat="50.041734036058187" lon="-5.653185993432999">
        <ele>59.259999999999998</ele>
        <time>2026-06-23T17:08:07Z</time>
      </trkpt>
      <trkpt lat="50.041803019121289" lon="-5.653237961232662">
        <ele>59.259999999999998</ele>
        <time>2026-06-23T17:08:08Z</time>
      </trkpt>
      <trkpt lat="50.041846018284559" lon="-5.653217006474733">
        <ele>59.259999999999998</ele>
        <time>2026-06-23T17:08:09Z</time>
      </trkpt>
      <trkpt lat="50.041893040761352" lon="-5.653193034231663">
        <ele>59.740000000000002</ele>
        <time>2026-06-23T17:08:10Z</time>
      </trkpt>
      <trkpt lat="50.041936039924622" lon="-5.653171995654702">
        <ele>59.740000000000002</ele>
        <time>2026-06-23T17:08:11Z</time>
      </trkpt>
      <trkpt lat="50.04197996109724" lon="-5.653150035068393">
        <ele>59.740000000000002</ele>
        <time>2026-06-23T17:08:12Z</time>
      </trkpt>
      <trkpt lat="50.042027989402413" lon="-5.653123967349529">
        <ele>60.219999999999999</ele>
        <time>2026-06-23T17:08:13Z</time>
      </trkpt>
      <trkpt lat="50.042074006050825" lon="-5.653093038126826">
        <ele>60.219999999999999</ele>
        <time>2026-06-23T17:08:14Z</time>
      </trkpt>
      <trkpt lat="50.042209960520267" lon="-5.653002010658383">
        <ele>60.700000000000003</ele>
        <time>2026-06-23T17:08:17Z</time>
      </trkpt>
      <trkpt lat="50.042255977168679" lon="-5.653030006214976">
        <ele>61.18</ele>
        <time>2026-06-23T17:08:18Z</time>
      </trkpt>
      <trkpt lat="50.042316997423768" lon="-5.653066970407963">
        <ele>61.18</ele>
        <time>2026-06-23T17:08:19Z</time>
      </trkpt>
      <trkpt lat="50.042341975495219" lon="-5.653119022026658">
        <ele>61.659999999999997</ele>
        <time>2026-06-23T17:08:20Z</time>
      </trkpt>
      <trkpt lat="50.042378017678857" lon="-5.653194962069392">
        <ele>61.659999999999997</ele>
        <time>2026-06-23T17:08:21Z</time>
      </trkpt>
      <trkpt lat="50.042828964069486" lon="-5.654142033308744">
        <ele>67.430000000000007</ele>
        <time>2026-06-23T17:08:31Z</time>
      </trkpt>
      <trkpt lat="50.042917979881167" lon="-5.654330039396882">
        <ele>68.870000000000005</ele>
        <time>2026-06-23T17:08:36Z</time>
      </trkpt>
      <trkpt lat="50.042941030114889" lon="-5.654374966397882">
        <ele>68.870000000000005</ele>
        <time>2026-06-23T17:08:37Z</time>
      </trkpt>
      <trkpt lat="50.042981011793017" lon="-5.654355017468333">
        <ele>68.870000000000005</ele>
        <time>2026-06-23T17:08:38Z</time>
      </trkpt>
      <trkpt lat="50.0430319737643" lon="-5.654330039396882">
        <ele>68.870000000000005</ele>
        <time>2026-06-23T17:08:39Z</time>
      </trkpt>
      <trkpt lat="50.04309399984777" lon="-5.654299026355147">
        <ele>68.870000000000005</ele>
        <time>2026-06-23T17:08:40Z</time>
      </trkpt>
      <trkpt lat="50.043158959597349" lon="-5.654266001656652">
        <ele>68.390000000000001</ele>
        <time>2026-06-23T17:08:41Z</time>
      </trkpt>
      <trkpt lat="50.043220985680819" lon="-5.654234988614917">
        <ele>68.390000000000001</ele>
        <time>2026-06-23T17:08:42Z</time>
      </trkpt>
      <trkpt lat="50.043273037299514" lon="-5.654199030250311">
        <ele>67.909999999999997</ele>
        <time>2026-06-23T17:08:43Z</time>
      </trkpt>
      <trkpt lat="50.043323999270797" lon="-5.65415795892477">
        <ele>67.430000000000007</ele>
        <time>2026-06-23T17:08:44Z</time>
      </trkpt>
      <trkpt lat="50.043345959857106" lon="-5.654115965589881">
        <ele>67.430000000000007</ele>
        <time>2026-06-23T17:08:45Z</time>
      </trkpt>
      <trkpt lat="50.043342020362616" lon="-5.654027033597231">
        <ele>66.950000000000003</ele>
        <time>2026-06-23T17:08:46Z</time>
      </trkpt>
      <trkpt lat="50.043336991220713" lon="-5.653933994472027">
        <ele>66.469999999999999</ele>
        <time>2026-06-23T17:08:47Z</time>
      </trkpt>
      <trkpt lat="50.04333196207881" lon="-5.653849001973867">
        <ele>65.989999999999995</ele>
        <time>2026-06-23T17:08:48Z</time>
      </trkpt>
      <trkpt lat="50.0433290284127" lon="-5.653785970062017">
        <ele>65.030000000000001</ele>
        <time>2026-06-23T17:08:49Z</time>
      </trkpt>
      <trkpt lat="50.043346965685487" lon="-5.653715981170535">
        <ele>64.549999999999997</ele>
        <time>2026-06-23T17:08:50Z</time>
      </trkpt>
      <trkpt lat="50.04337303340435" lon="-5.653697038069367">
        <ele>63.579999999999998</ele>
        <time>2026-06-23T17:08:51Z</time>
      </trkpt>
      <trkpt lat="50.043403962627053" lon="-5.653672982007265">
        <ele>62.619999999999997</ele>
        <time>2026-06-23T17:08:52Z</time>
      </trkpt>
      <trkpt lat="50.043446961790323" lon="-5.65368203446269">
        <ele>62.140000000000001</ele>
        <time>2026-06-23T17:08:53Z</time>
      </trkpt>
      <trkpt lat="50.0434809923172" lon="-5.653696032240987">
        <ele>61.18</ele>
        <time>2026-06-23T17:08:54Z</time>
      </trkpt>
      <trkpt lat="50.043514017015696" lon="-5.653710030019283">
        <ele>60.219999999999999</ele>
        <time>2026-06-23T17:08:55Z</time>
      </trkpt>
      <trkpt lat="50.043541006743908" lon="-5.653721010312438">
        <ele>58.780000000000001</ele>
        <time>2026-06-23T17:08:56Z</time>
      </trkpt>
      <trkpt lat="50.043565984815359" lon="-5.653731990605593">
        <ele>57.82</ele>
        <time>2026-06-23T17:08:57Z</time>
      </trkpt>
      <trkpt lat="50.043736975640059" lon="-5.653824023902416">
        <ele>53.969999999999999</ele>
        <time>2026-06-23T17:09:02Z</time>
      </trkpt>
      <trkpt lat="50.04395398311317" lon="-5.653984034433961">
        <ele>50.130000000000003</ele>
        <time>2026-06-23T17:09:06Z</time>
      </trkpt>
      <trkpt lat="50.044493023306131" lon="-5.654344959184527">
        <ele>39.549999999999997</ele>
        <time>2026-06-23T17:09:13Z</time>
      </trkpt>
      <trkpt lat="50.044972971081734" lon="-5.654527014121413">
        <ele>32.340000000000003</ele>
        <time>2026-06-23T17:09:20Z</time>
      </trkpt>
      <trkpt lat="50.045102974399924" lon="-5.654609994962812">
        <ele>30.899999999999999</ele>
        <time>2026-06-23T17:09:22Z</time>
      </trkpt>
      <trkpt lat="50.045156031847" lon="-5.654669003561139">
        <ele>30.420000000000002</ele>
        <time>2026-06-23T17:09:23Z</time>
      </trkpt>
      <trkpt lat="50.045210011303425" lon="-5.654730023816228">
        <ele>29.940000000000001</ele>
        <time>2026-06-23T17:09:24Z</time>
      </trkpt>
      <trkpt lat="50.045562973245978" lon="-5.655126990750432">
        <ele>30.420000000000002</ele>
        <time>2026-06-23T17:09:32Z</time>
      </trkpt>
      <trkpt lat="50.045601027086377" lon="-5.655169989913702">
        <ele>30.420000000000002</ele>
        <time>2026-06-23T17:09:41Z</time>
      </trkpt>
      <trkpt lat="50.045601027086377" lon="-5.655169989913702">
        <ele>30.899999999999999</ele>
        <time>2026-06-23T17:09:42Z</time>
      </trkpt>
      <trkpt lat="50.045606978237629" lon="-5.655176024883986">
        <ele>30.899999999999999</ele>
        <time>2026-06-23T17:09:43Z</time>
      </trkpt>
      <trkpt lat="50.045750979334116" lon="-5.655184993520379">
        <ele>31.859999999999999</ele>
        <time>2026-06-23T17:09:44Z</time>
      </trkpt>
      <trkpt lat="50.045750979334116" lon="-5.655169989913702">
        <ele>31.859999999999999</ele>
        <time>2026-06-23T17:09:45Z</time>
      </trkpt>
      <trkpt lat="50.045750979334116" lon="-5.655169989913702">
        <ele>32.340000000000003</ele>
        <time>2026-06-23T17:09:46Z</time>
      </trkpt>
      <trkpt lat="50.045750979334116" lon="-5.655169989913702">
        <ele>32.340000000000003</ele>
        <time>2026-06-23T17:09:47Z</time>
      </trkpt>
      <trkpt lat="50.045750979334116" lon="-5.655169989913702">
        <ele>32.82</ele>
        <time>2026-06-23T17:10:02Z</time>
      </trkpt>
      <trkpt lat="50.045750979334116" lon="-5.655169989913702">
        <ele>33.299999999999997</ele>
        <time>2026-06-23T17:10:04Z</time>
      </trkpt>
      <trkpt lat="50.045750979334116" lon="-5.655169989913702">
        <ele>33.299999999999997</ele>
        <time>2026-06-23T17:10:17Z</time>
      </trkpt>
      <trkpt lat="50.045750979334116" lon="-5.655169989913702">
        <ele>33.299999999999997</ele>
        <time>2026-06-23T17:10:34Z</time>
      </trkpt>
      <trkpt lat="50.045750979334116" lon="-5.655169989913702">
        <ele>34.259999999999998</ele>
        <time>2026-06-23T17:10:51Z</time>
      </trkpt>
      <trkpt lat="50.045750979334116" lon="-5.655169989913702">
        <ele>34.740000000000002</ele>
        <time>2026-06-23T17:11:05Z</time>
      </trkpt>
      <trkpt lat="50.045795990154147" lon="-5.655040992423892">
        <ele>47.240000000000002</ele>
        <time>2026-06-23T17:16:28Z</time>
      </trkpt>
      <trkpt lat="50.045784004032612" lon="-5.655047027394176">
        <ele>44.359999999999999</ele>
        <time>2026-06-23T17:17:13Z</time>
      </trkpt>
      <trkpt lat="50.045774029567838" lon="-5.655090026557446">
        <ele>44.359999999999999</ele>
        <time>2026-06-23T17:17:55Z</time>
      </trkpt>
      <trkpt lat="50.045722983777523" lon="-5.65508097410202">
        <ele>43.880000000000003</ele>
        <time>2026-06-23T17:18:33Z</time>
      </trkpt>
      <trkpt lat="50.045671015977859" lon="-5.655239978805184">
        <ele>43.399999999999999</ele>
        <time>2026-06-23T17:19:03Z</time>
      </trkpt>
      <trkpt lat="50.045685013756156" lon="-5.655253976583481">
        <ele>43.399999999999999</ele>
        <time>2026-06-23T17:19:04Z</time>
      </trkpt>
      <trkpt lat="50.045750979334116" lon="-5.655320025980473">
        <ele>43.880000000000003</ele>
        <time>2026-06-23T17:19:10Z</time>
      </trkpt>
      <trkpt lat="50.04578098654747" lon="-5.655350033193827">
        <ele>43.880000000000003</ele>
        <time>2026-06-23T17:19:11Z</time>
      </trkpt>
      <trkpt lat="50.045837983489037" lon="-5.655407030135393">
        <ele>43.880000000000003</ele>
        <time>2026-06-23T17:19:12Z</time>
      </trkpt>
      <trkpt lat="50.046667037531734" lon="-5.65617498010397">
        <ele>44.359999999999999</ele>
        <time>2026-06-23T17:19:23Z</time>
      </trkpt>
      <trkpt lat="50.046739038079977" lon="-5.656252009794116">
        <ele>44.840000000000003</ele>
        <time>2026-06-23T17:19:24Z</time>
      </trkpt>
      <trkpt lat="50.046952022239566" lon="-5.656503969803453">
        <ele>47.240000000000002</ele>
        <time>2026-06-23T17:19:27Z</time>
      </trkpt>
      <trkpt lat="50.047022011131048" lon="-5.656588040292263">
        <ele>48.68</ele>
        <time>2026-06-23T17:19:28Z</time>
      </trkpt>
      <trkpt lat="50.047087976709008" lon="-5.656666997820139">
        <ele>49.159999999999997</ele>
        <time>2026-06-23T17:19:29Z</time>
      </trkpt>
      <trkpt lat="50.047153020277619" lon="-5.656744027510285">
        <ele>50.130000000000003</ele>
        <time>2026-06-23T17:19:30Z</time>
      </trkpt>
      <trkpt lat="50.047214040532708" lon="-5.656816028058529">
        <ele>51.090000000000003</ele>
        <time>2026-06-23T17:19:31Z</time>
      </trkpt>
      <trkpt lat="50.047445967793465" lon="-5.65705600194633">
        <ele>54.450000000000003</ele>
        <time>2026-06-23T17:19:35Z</time>
      </trkpt>
      <trkpt lat="50.047516040503979" lon="-5.657101012766361">
        <ele>55.409999999999997</ele>
        <time>2026-06-23T17:19:36Z</time>
      </trkpt>
      <trkpt lat="50.047588963061571" lon="-5.657148035243154">
        <ele>55.890000000000001</ele>
        <time>2026-06-23T17:19:37Z</time>
      </trkpt>
      <trkpt lat="50.048427991569042" lon="-5.657788999378681">
        <ele>60.700000000000003</ele>
        <time>2026-06-23T17:19:48Z</time>
      </trkpt>
      <trkpt lat="50.049193007871509" lon="-5.658639008179307">
        <ele>64.549999999999997</ele>
        <time>2026-06-23T17:19:58Z</time>
      </trkpt>
      <trkpt lat="50.049259979277849" lon="-5.658702040091157">
        <ele>64.549999999999997</ele>
        <time>2026-06-23T17:19:59Z</time>
      </trkpt>
      <trkpt lat="50.049326028674841" lon="-5.658743027597666">
        <ele>65.030000000000001</ele>
        <time>2026-06-23T17:20:00Z</time>
      </trkpt>
      <trkpt lat="50.049405992031097" lon="-5.658770017325878">
        <ele>65.030000000000001</ele>
        <time>2026-06-23T17:20:01Z</time>
      </trkpt>
      <trkpt lat="50.049486961215734" lon="-5.658797007054091">
        <ele>65.030000000000001</ele>
        <time>2026-06-23T17:20:02Z</time>
      </trkpt>
      <trkpt lat="50.049568014219403" lon="-5.658823996782303">
        <ele>65.030000000000001</ele>
        <time>2026-06-23T17:20:03Z</time>
      </trkpt>
      <trkpt lat="50.049646971747279" lon="-5.658849980682135">
        <ele>65.030000000000001</ele>
        <time>2026-06-23T17:20:04Z</time>
      </trkpt>
      <trkpt lat="50.049790972843766" lon="-5.658864984288812">
        <ele>64.549999999999997</ele>
        <time>2026-06-23T17:20:06Z</time>
      </trkpt>
      <trkpt lat="50.050123985856771" lon="-5.658877976238728">
        <ele>65.510000000000005</ele>
        <time>2026-06-23T17:20:10Z</time>
      </trkpt>
      <trkpt lat="50.050214007496834" lon="-5.65888199955225">
        <ele>65.989999999999995</ele>
        <time>2026-06-23T17:20:11Z</time>
      </trkpt>
      <trkpt lat="50.050381980836391" lon="-5.658957017585635">
        <ele>67.430000000000007</ele>
        <time>2026-06-23T17:20:13Z</time>
      </trkpt>
      <trkpt lat="50.051140962168574" lon="-5.659092972055078">
        <ele>72.239999999999995</ele>
        <time>2026-06-23T17:20:22Z</time>
      </trkpt>
      <trkpt lat="50.051217991858721" lon="-5.659045027568936">
        <ele>73.200000000000003</ele>
        <time>2026-06-23T17:20:23Z</time>
      </trkpt>
      <trkpt lat="50.051290998235345" lon="-5.659000016748905">
        <ele>74.640000000000001</ele>
        <time>2026-06-23T17:20:24Z</time>
      </trkpt>
      <trkpt lat="50.051715038716793" lon="-5.658734980970621">
        <ele>80.409999999999997</ele>
        <time>2026-06-23T17:20:29Z</time>
      </trkpt>
      <trkpt lat="50.051826015114784" lon="-5.658669015392661">
        <ele>81.370000000000005</ele>
        <time>2026-06-23T17:20:30Z</time>
      </trkpt>
      <trkpt lat="50.051921987906098" lon="-5.658720983192325">
        <ele>81.849999999999994</ele>
        <time>2026-06-23T17:20:31Z</time>
      </trkpt>
      <trkpt lat="50.052023995667696" lon="-5.658777980133891">
        <ele>82.810000000000002</ele>
        <time>2026-06-23T17:20:32Z</time>
      </trkpt>
      <trkpt lat="50.052131032571197" lon="-5.658835982903838">
        <ele>83.290000000000006</ele>
        <time>2026-06-23T17:20:33Z</time>
      </trkpt>
      <trkpt lat="50.052710976451635" lon="-5.659133037552238">
        <ele>83.769999999999996</ele>
        <time>2026-06-23T17:20:38Z</time>
      </trkpt>
      <trkpt lat="50.052832011133432" lon="-5.659107975661755">
        <ele>84.730000000000004</ele>
        <time>2026-06-23T17:20:39Z</time>
      </trkpt>
      <trkpt lat="50.052954973652959" lon="-5.659082997590303">
        <ele>85.689999999999998</ele>
        <time>2026-06-23T17:20:40Z</time>
      </trkpt>
      <trkpt lat="50.053576994687319" lon="-5.658963974565268">
        <ele>89.540000000000006</ele>
        <time>2026-06-23T17:20:45Z</time>
      </trkpt>
      <trkpt lat="50.053917970508337" lon="-5.658941008150578">
        <ele>90.980000000000004</ele>
        <time>2026-06-23T17:20:48Z</time>
      </trkpt>
      <trkpt lat="50.054020984098315" lon="-5.658899014815688">
        <ele>90.980000000000004</ele>
        <time>2026-06-23T17:20:49Z</time>
      </trkpt>
      <trkpt lat="50.054125003516674" lon="-5.658855009824038">
        <ele>90.980000000000004</ele>
        <time>2026-06-23T17:20:50Z</time>
      </trkpt>
      <trkpt lat="50.054217036813498" lon="-5.658777980133891">
        <ele>91.459999999999994</ele>
        <time>2026-06-23T17:20:51Z</time>
      </trkpt>
      <trkpt lat="50.054306974634528" lon="-5.658702962100506">
        <ele>90.980000000000004</ele>
        <time>2026-06-23T17:20:52Z</time>
      </trkpt>
      <trkpt lat="50.054392972961068" lon="-5.658630039542913">
        <ele>90.980000000000004</ele>
        <time>2026-06-23T17:20:53Z</time>
      </trkpt>
      <trkpt lat="50.054476959630847" lon="-5.658558961004019">
        <ele>90.5</ele>
        <time>2026-06-23T17:20:54Z</time>
      </trkpt>
      <trkpt lat="50.054569998756051" lon="-5.658515961840749">
        <ele>90.5</ele>
        <time>2026-06-23T17:20:55Z</time>
      </trkpt>
      <trkpt lat="50.054667983204126" lon="-5.658513028174639">
        <ele>90.019999999999996</ele>
        <time>2026-06-23T17:20:56Z</time>
      </trkpt>
      <trkpt lat="50.054773008450866" lon="-5.658509004861116">
        <ele>89.540000000000006</ele>
        <time>2026-06-23T17:20:57Z</time>
      </trkpt>
      <trkpt lat="50.055411038920283" lon="-5.65840900875628">
        <ele>84.25</ele>
        <time>2026-06-23T17:21:03Z</time>
      </trkpt>
      <trkpt lat="50.055627040565014" lon="-5.658314041793346">
        <ele>82.810000000000002</ele>
        <time>2026-06-23T17:21:06Z</time>
      </trkpt>
      <trkpt lat="50.055660987272859" lon="-5.658299038186669">
        <ele>82.329999999999998</ele>
        <time>2026-06-23T17:21:07Z</time>
      </trkpt>
      <trkpt lat="50.05579300224781" lon="-5.658448990434408">
        <ele>80.890000000000001</ele>
        <time>2026-06-23T17:21:14Z</time>
      </trkpt>
      <trkpt lat="50.055817980319262" lon="-5.65855803899467">
        <ele>80.890000000000001</ele>
        <time>2026-06-23T17:21:15Z</time>
      </trkpt>
      <trkpt lat="50.056112017482519" lon="-5.659854970872402">
        <ele>79.930000000000007</ele>
        <time>2026-06-23T17:21:23Z</time>
      </trkpt>
      <trkpt lat="50.056269010528922" lon="-5.660594003275037">
        <ele>80.409999999999997</ele>
        <time>2026-06-23T17:21:27Z</time>
      </trkpt>
      <trkpt lat="50.056279990822077" lon="-5.660779997706413">
        <ele>80.409999999999997</ele>
        <time>2026-06-23T17:21:28Z</time>
      </trkpt>
      <trkpt lat="50.056273033842444" lon="-5.660974960774183">
        <ele>80.890000000000001</ele>
        <time>2026-06-23T17:21:29Z</time>
      </trkpt>
      <trkpt lat="50.056247971951962" lon="-5.661156009882689">
        <ele>80.890000000000001</ele>
        <time>2026-06-23T17:21:30Z</time>
      </trkpt>
      <trkpt lat="50.05622299388051" lon="-5.661340998485684">
        <ele>81.370000000000005</ele>
        <time>2026-06-23T17:21:31Z</time>
      </trkpt>
      <trkpt lat="50.05622198805213" lon="-5.661531016230583">
        <ele>81.370000000000005</ele>
        <time>2026-06-23T17:21:32Z</time>
      </trkpt>
      <trkpt lat="50.05622198805213" lon="-5.66171701066196">
        <ele>81.370000000000005</ele>
        <time>2026-06-23T17:21:33Z</time>
      </trkpt>
      <trkpt lat="50.056250989437103" lon="-5.661881966516376">
        <ele>81.849999999999994</ele>
        <time>2026-06-23T17:21:34Z</time>
      </trkpt>
      <trkpt lat="50.056298011913896" lon="-5.662250015884638">
        <ele>81.370000000000005</ele>
        <time>2026-06-23T17:21:36Z</time>
      </trkpt>
      <trkpt lat="50.056303041055799" lon="-5.662443973124027">
        <ele>81.370000000000005</ele>
        <time>2026-06-23T17:21:37Z</time>
      </trkpt>
      <trkpt lat="50.056279990822077" lon="-5.662634996697307">
        <ele>81.370000000000005</ele>
        <time>2026-06-23T17:21:38Z</time>
      </trkpt>
      <trkpt lat="50.056058960035443" lon="-5.664804987609386">
        <ele>80.409999999999997</ele>
        <time>2026-06-23T17:21:49Z</time>
      </trkpt>
      <trkpt lat="50.05604999139905" lon="-5.666526965796948">
        <ele>78.969999999999999</ele>
        <time>2026-06-23T17:21:59Z</time>
      </trkpt>
      <trkpt lat="50.05604999139905" lon="-5.666623022407293">
        <ele>78.969999999999999</ele>
        <time>2026-06-23T17:22:00Z</time>
      </trkpt>
      <trkpt lat="50.056068012490869" lon="-5.666627967730165">
        <ele>78.969999999999999</ele>
        <time>2026-06-23T17:22:01Z</time>
      </trkpt>
      <trkpt lat="50.056112017482519" lon="-5.666627967730165">
        <ele>78.969999999999999</ele>
        <time>2026-06-23T17:22:02Z</time>
      </trkpt>
      <trkpt lat="50.056169014424086" lon="-5.666627967730165">
        <ele>78.969999999999999</ele>
        <time>2026-06-23T17:22:03Z</time>
      </trkpt>
      <trkpt lat="50.056240009143949" lon="-5.666627967730165">
        <ele>78.480000000000004</ele>
        <time>2026-06-23T17:22:04Z</time>
      </trkpt>
      <trkpt lat="50.056405970826745" lon="-5.666605001315475">
        <ele>78.480000000000004</ele>
        <time>2026-06-23T17:22:06Z</time>
      </trkpt>
      <trkpt lat="50.05675901658833" lon="-5.666455971077085">
        <ele>78.480000000000004</ele>
        <time>2026-06-23T17:22:10Z</time>
      </trkpt>
      <trkpt lat="50.056858006864786" lon="-5.666471980512142">
        <ele>78.969999999999999</ele>
        <time>2026-06-23T17:22:11Z</time>
      </trkpt>
      <trkpt lat="50.056935958564281" lon="-5.666483966633678">
        <ele>78.969999999999999</ele>
        <time>2026-06-23T17:22:12Z</time>
      </trkpt>
      <trkpt lat="50.057018017396331" lon="-5.666496958583593">
        <ele>79.450000000000003</ele>
        <time>2026-06-23T17:22:13Z</time>
      </trkpt>
      <trkpt lat="50.05710200406611" lon="-5.666510034352541">
        <ele>79.930000000000007</ele>
        <time>2026-06-23T17:22:14Z</time>
      </trkpt>
      <trkpt lat="50.057427976280451" lon="-5.666652023792267">
        <ele>80.890000000000001</ele>
        <time>2026-06-23T17:22:18Z</time>
      </trkpt>
      <trkpt lat="50.057501988485456" lon="-5.666720001026988">
        <ele>81.370000000000005</ele>
        <time>2026-06-23T17:22:19Z</time>
      </trkpt>
      <trkpt lat="50.058193998411298" lon="-5.667574033141136">
        <ele>87.620000000000005</ele>
        <time>2026-06-23T17:22:30Z</time>
      </trkpt>
      <trkpt lat="50.058962032198906" lon="-5.66870098002255">
        <ele>88.099999999999994</ele>
        <time>2026-06-23T17:22:39Z</time>
      </trkpt>
      <trkpt lat="50.059923017397523" lon="-5.669828010722995">
        <ele>86.659999999999997</ele>
        <time>2026-06-23T17:22:47Z</time>
      </trkpt>
      <trkpt lat="50.061854962259531" lon="-5.672179972752929">
        <ele>80.409999999999997</ele>
        <time>2026-06-23T17:23:01Z</time>
      </trkpt>
      <trkpt lat="50.0630549993366" lon="-5.673588970676065">
        <ele>74.640000000000001</ele>
        <time>2026-06-23T17:23:10Z</time>
      </trkpt>
      <trkpt lat="50.063135968521237" lon="-5.673753004521132">
        <ele>74.640000000000001</ele>
        <time>2026-06-23T17:23:11Z</time>
      </trkpt>
      <trkpt lat="50.063172010704875" lon="-5.673944028094411">
        <ele>75.120000000000005</ele>
        <time>2026-06-23T17:23:12Z</time>
      </trkpt>
      <trkpt lat="50.063304025679827" lon="-5.674548028036952">
        <ele>75.599999999999994</ele>
        <time>2026-06-23T17:23:15Z</time>
      </trkpt>
      <trkpt lat="50.063367979601026" lon="-5.674740979447961">
        <ele>75.120000000000005</ele>
        <time>2026-06-23T17:23:16Z</time>
      </trkpt>
      <trkpt lat="50.063449032604694" lon="-5.67490803077817">
        <ele>75.120000000000005</ele>
        <time>2026-06-23T17:23:17Z</time>
      </trkpt>
      <trkpt lat="50.063540982082486" lon="-5.675067035481334">
        <ele>74.640000000000001</ele>
        <time>2026-06-23T17:23:18Z</time>
      </trkpt>
      <trkpt lat="50.063625974580646" lon="-5.675213970243931">
        <ele>74.159999999999997</ele>
        <time>2026-06-23T17:23:19Z</time>
      </trkpt>
      <trkpt lat="50.06369998678565" lon="-5.67534196190536">
        <ele>73.680000000000007</ele>
        <time>2026-06-23T17:23:20Z</time>
      </trkpt>
      <trkpt lat="50.063725970685482" lon="-5.675485040992498">
        <ele>73.680000000000007</ele>
        <time>2026-06-23T17:23:21Z</time>
      </trkpt>
      <trkpt lat="50.063708033412695" lon="-5.67559702321887">
        <ele>73.200000000000003</ele>
        <time>2026-06-23T17:23:22Z</time>
      </trkpt>
      <trkpt lat="50.063665034249425" lon="-5.675706993788481">
        <ele>73.200000000000003</ele>
        <time>2026-06-23T17:23:23Z</time>
      </trkpt>
      <trkpt lat="50.063614994287491" lon="-5.675820987671614">
        <ele>73.200000000000003</ele>
        <time>2026-06-23T17:23:24Z</time>
      </trkpt>
      <trkpt lat="50.063522960990667" lon="-5.675902962684631">
        <ele>72.719999999999999</ele>
        <time>2026-06-23T17:23:25Z</time>
      </trkpt>
      <trkpt lat="50.063421037048101" lon="-5.675996001809835">
        <ele>72.239999999999995</ele>
        <time>2026-06-23T17:23:26Z</time>
      </trkpt>
      <trkpt lat="50.063317017629743" lon="-5.67608904093504">
        <ele>71.760000000000005</ele>
        <time>2026-06-23T17:23:27Z</time>
      </trkpt>
      <trkpt lat="50.063221966847777" lon="-5.67617503926158">
        <ele>71.760000000000005</ele>
        <time>2026-06-23T17:23:28Z</time>
      </trkpt>
      <trkpt lat="50.063167987391353" lon="-5.67630797624588">
        <ele>71.269999999999996</ele>
        <time>2026-06-23T17:23:29Z</time>
      </trkpt>
      <trkpt lat="50.063132029026747" lon="-5.676462035626173">
        <ele>70.790000000000006</ele>
        <time>2026-06-23T17:23:30Z</time>
      </trkpt>
      <trkpt lat="50.063138986006379" lon="-5.676645012572408">
        <ele>70.310000000000002</ele>
        <time>2026-06-23T17:23:31Z</time>
      </trkpt>
      <trkpt lat="50.063147032633424" lon="-5.676839975640178">
        <ele>70.310000000000002</ele>
        <time>2026-06-23T17:23:32Z</time>
      </trkpt>
      <trkpt lat="50.063154995441437" lon="-5.677044996991754">
        <ele>70.310000000000002</ele>
        <time>2026-06-23T17:23:33Z</time>
      </trkpt>
      <trkpt lat="50.063221966847777" lon="-5.677833985537291">
        <ele>71.269999999999996</ele>
        <time>2026-06-23T17:23:37Z</time>
      </trkpt>
      <trkpt lat="50.06324996240437" lon="-5.678014028817415">
        <ele>71.760000000000005</ele>
        <time>2026-06-23T17:23:38Z</time>
      </trkpt>
      <trkpt lat="50.063323974609375" lon="-5.678484002128243">
        <ele>72.719999999999999</ele>
        <time>2026-06-23T17:23:41Z</time>
      </trkpt>
      <trkpt lat="50.063345013186336" lon="-5.678617022931576">
        <ele>73.200000000000003</ele>
        <time>2026-06-23T17:23:42Z</time>
      </trkpt>
      <trkpt lat="50.063321962952614" lon="-5.678759012371302">
        <ele>73.680000000000007</ele>
        <time>2026-06-23T17:23:43Z</time>
      </trkpt>
      <trkpt lat="50.063298996537924" lon="-5.678893039003015">
        <ele>73.680000000000007</ele>
        <time>2026-06-23T17:23:44Z</time>
      </trkpt>
      <trkpt lat="50.063274018466473" lon="-5.679031005129218">
        <ele>73.200000000000003</ele>
        <time>2026-06-23T17:23:45Z</time>
      </trkpt>
      <trkpt lat="50.06324996240437" lon="-5.679171988740563">
        <ele>73.200000000000003</ele>
        <time>2026-06-23T17:23:46Z</time>
      </trkpt>
      <trkpt lat="50.063223978504539" lon="-5.679318001493812">
        <ele>73.200000000000003</ele>
        <time>2026-06-23T17:23:47Z</time>
      </trkpt>
      <trkpt lat="50.063123982399702" lon="-5.679944967851043">
        <ele>73.200000000000003</ele>
        <time>2026-06-23T17:23:51Z</time>
      </trkpt>
      <trkpt lat="50.063113002106547" lon="-5.680099027231336">
        <ele>73.200000000000003</ele>
        <time>2026-06-23T17:23:52Z</time>
      </trkpt>
      <trkpt lat="50.063062040135264" lon="-5.682030972093344">
        <ele>75.120000000000005</ele>
        <time>2026-06-23T17:24:04Z</time>
      </trkpt>
      <trkpt lat="50.063038989901543" lon="-5.683831991627812">
        <ele>78</ele>
        <time>2026-06-23T17:24:14Z</time>
      </trkpt>
      <trkpt lat="50.063023986294866" lon="-5.684052016586065">
        <ele>78</ele>
        <time>2026-06-23T17:24:15Z</time>
      </trkpt>
      <trkpt lat="50.062739001587033" lon="-5.686095021665096">
        <ele>77.040000000000006</ele>
        <time>2026-06-23T17:24:26Z</time>
      </trkpt>
      <trkpt lat="50.062723997980356" lon="-5.686735985800624">
        <ele>76.079999999999998</ele>
        <time>2026-06-23T17:24:30Z</time>
      </trkpt>
      <trkpt lat="50.062742019072175" lon="-5.686837993562222">
        <ele>76.079999999999998</ele>
        <time>2026-06-23T17:24:31Z</time>
      </trkpt>
      <trkpt lat="50.062761968001723" lon="-5.686929021030664">
        <ele>76.079999999999998</ele>
        <time>2026-06-23T17:24:32Z</time>
      </trkpt>
      <trkpt lat="50.062799016013741" lon="-5.686961961910129">
        <ele>76.079999999999998</ele>
        <time>2026-06-23T17:24:33Z</time>
      </trkpt>
      <trkpt lat="50.06286296993494" lon="-5.686990041285753">
        <ele>75.599999999999994</ele>
        <time>2026-06-23T17:24:34Z</time>
      </trkpt>
      <trkpt lat="50.062933964654803" lon="-5.687010996043682">
        <ele>75.599999999999994</ele>
        <time>2026-06-23T17:24:35Z</time>
      </trkpt>
      <trkpt lat="50.063027003780007" lon="-5.68700403906405">
        <ele>75.599999999999994</ele>
        <time>2026-06-23T17:24:36Z</time>
      </trkpt>
      <trkpt lat="50.063130017369986" lon="-5.686994986608625">
        <ele>76.079999999999998</ele>
        <time>2026-06-23T17:24:37Z</time>
      </trkpt>
      <trkpt lat="50.063427994027734" lon="-5.686970008537173">
        <ele>76.560000000000002</ele>
        <time>2026-06-23T17:24:40Z</time>
      </trkpt>
      <trkpt lat="50.063521033152938" lon="-5.687014013528824">
        <ele>76.079999999999998</ele>
        <time>2026-06-23T17:24:41Z</time>
      </trkpt>
      <trkpt lat="50.063588004559278" lon="-5.68709397688508">
        <ele>76.079999999999998</ele>
        <time>2026-06-23T17:24:42Z</time>
      </trkpt>
      <trkpt lat="50.063635027036071" lon="-5.687197996303439">
        <ele>76.560000000000002</ele>
        <time>2026-06-23T17:24:43Z</time>
      </trkpt>
      <trkpt lat="50.063678026199341" lon="-5.68730897270143">
        <ele>76.560000000000002</ele>
        <time>2026-06-23T17:24:44Z</time>
      </trkpt>
      <trkpt lat="50.063712978735566" lon="-5.687442999333143">
        <ele>76.560000000000002</ele>
        <time>2026-06-23T17:24:45Z</time>
      </trkpt>
      <trkpt lat="50.063796965405345" lon="-5.687764026224613">
        <ele>76.560000000000002</ele>
        <time>2026-06-23T17:24:47Z</time>
      </trkpt>
      <trkpt lat="50.063839964568615" lon="-5.687851030379534">
        <ele>76.560000000000002</ele>
        <time>2026-06-23T17:24:48Z</time>
      </trkpt>
      <trkpt lat="50.06397801451385" lon="-5.688154958188534">
        <ele>77.040000000000006</ele>
        <time>2026-06-23T17:24:51Z</time>
      </trkpt>
      <trkpt lat="50.064002992585301" lon="-5.688279010355473">
        <ele>77.040000000000006</ele>
        <time>2026-06-23T17:24:52Z</time>
      </trkpt>
      <trkpt lat="50.064028976485133" lon="-5.688410019502044">
        <ele>77.040000000000006</ele>
        <time>2026-06-23T17:24:53Z</time>
      </trkpt>
      <trkpt lat="50.064028976485133" lon="-5.688556032255292">
        <ele>77.519999999999996</ele>
        <time>2026-06-23T17:24:54Z</time>
      </trkpt>
      <trkpt lat="50.064025036990643" lon="-5.688716964796186">
        <ele>77.519999999999996</ele>
        <time>2026-06-23T17:24:55Z</time>
      </trkpt>
      <trkpt lat="50.063973991200328" lon="-5.690744966268539">
        <ele>78</ele>
        <time>2026-06-23T17:25:06Z</time>
      </trkpt>
      <trkpt lat="50.064083961769938" lon="-5.692004011943936">
        <ele>80.890000000000001</ele>
        <time>2026-06-23T17:25:14Z</time>
      </trkpt>
      <trkpt lat="50.06412603892386" lon="-5.692138038575649">
        <ele>80.890000000000001</ele>
        <time>2026-06-23T17:25:15Z</time>
      </trkpt>
      <trkpt lat="50.064168032258749" lon="-5.692255971953273">
        <ele>81.370000000000005</ele>
        <time>2026-06-23T17:25:16Z</time>
      </trkpt>
      <trkpt lat="50.064256964251399" lon="-5.692360997200012">
        <ele>81.849999999999994</ele>
        <time>2026-06-23T17:25:17Z</time>
      </trkpt>
      <trkpt lat="50.064347991719842" lon="-5.692469039931893">
        <ele>81.849999999999994</ele>
        <time>2026-06-23T17:25:18Z</time>
      </trkpt>
      <trkpt lat="50.064442036673427" lon="-5.692555038258433">
        <ele>82.329999999999998</ele>
        <time>2026-06-23T17:25:19Z</time>
      </trkpt>
      <trkpt lat="50.064549995586276" lon="-5.692622009664774">
        <ele>82.329999999999998</ele>
        <time>2026-06-23T17:25:20Z</time>
      </trkpt>
      <trkpt lat="50.064658960327506" lon="-5.692688981071115">
        <ele>82.810000000000002</ele>
        <time>2026-06-23T17:25:21Z</time>
      </trkpt>
      <trkpt lat="50.065166987478733" lon="-5.693079996854067">
        <ele>83.290000000000006</ele>
        <time>2026-06-23T17:25:26Z</time>
      </trkpt>
      <trkpt lat="50.065256003290415" lon="-5.693188039585948">
        <ele>83.290000000000006</ele>
        <time>2026-06-23T17:25:27Z</time>
      </trkpt>
      <trkpt lat="50.065291961655021" lon="-5.693317037075758">
        <ele>83.290000000000006</ele>
        <time>2026-06-23T17:25:28Z</time>
      </trkpt>
      <trkpt lat="50.06530998274684" lon="-5.693444022908807">
        <ele>83.769999999999996</ele>
        <time>2026-06-23T17:25:29Z</time>
      </trkpt>
      <trkpt lat="50.065308976918459" lon="-5.693572014570236">
        <ele>84.25</ele>
        <time>2026-06-23T17:25:30Z</time>
      </trkpt>
      <trkpt lat="50.065280981361866" lon="-5.693708974868059">
        <ele>84.730000000000004</ele>
        <time>2026-06-23T17:25:31Z</time>
      </trkpt>
      <trkpt lat="50.065250974148512" lon="-5.693851970136166">
        <ele>85.209999999999994</ele>
        <time>2026-06-23T17:25:32Z</time>
      </trkpt>
      <trkpt lat="50.065207974985242" lon="-5.693996977061033">
        <ele>85.689999999999998</ele>
        <time>2026-06-23T17:25:33Z</time>
      </trkpt>
      <trkpt lat="50.065053999423981" lon="-5.694646993651986">
        <ele>86.180000000000007</ele>
        <time>2026-06-23T17:25:38Z</time>
      </trkpt>
      <trkpt lat="50.064956014975905" lon="-5.695572020485997">
        <ele>88.099999999999994</ele>
        <time>2026-06-23T17:25:47Z</time>
      </trkpt>
      <trkpt lat="50.064937993884087" lon="-5.69564301520586">
        <ele>88.579999999999998</ele>
        <time>2026-06-23T17:25:48Z</time>
      </trkpt>
      <trkpt lat="50.064918966963887" lon="-5.695719039067626">
        <ele>88.579999999999998</ele>
        <time>2026-06-23T17:25:49Z</time>
      </trkpt>
      <trkpt lat="50.064915027469397" lon="-5.695813000202179">
        <ele>88.579999999999998</ele>
        <time>2026-06-23T17:25:50Z</time>
      </trkpt>
      <trkpt lat="50.064917961135507" lon="-5.695915007963777">
        <ele>89.060000000000002</ele>
        <time>2026-06-23T17:25:51Z</time>
      </trkpt>
      <trkpt lat="50.064921984449029" lon="-5.696019027382135">
        <ele>89.060000000000002</ele>
        <time>2026-06-23T17:25:52Z</time>
      </trkpt>
      <trkpt lat="50.064952997490764" lon="-5.696967020630837">
        <ele>89.540000000000006</ele>
        <time>2026-06-23T17:26:01Z</time>
      </trkpt>
      <trkpt lat="50.064926007762551" lon="-5.697172963991761">
        <ele>90.019999999999996</ele>
        <time>2026-06-23T17:26:03Z</time>
      </trkpt>
      <trkpt lat="50.06490002386272" lon="-5.697373040020466">
        <ele>90.019999999999996</ele>
        <time>2026-06-23T17:26:05Z</time>
      </trkpt>
      <trkpt lat="50.064903041347861" lon="-5.697474963963032">
        <ele>90.5</ele>
        <time>2026-06-23T17:26:06Z</time>
      </trkpt>
      <trkpt lat="50.064937993884087" lon="-5.697570014744997">
        <ele>90.5</ele>
        <time>2026-06-23T17:26:07Z</time>
      </trkpt>
      <trkpt lat="50.064976969733834" lon="-5.697673028334975">
        <ele>90.5</ele>
        <time>2026-06-23T17:26:08Z</time>
      </trkpt>
      <trkpt lat="50.065015023574233" lon="-5.697776963934302">
        <ele>90.980000000000004</ele>
        <time>2026-06-23T17:26:09Z</time>
      </trkpt>
      <trkpt lat="50.065474016591907" lon="-5.699020000174642">
        <ele>90.980000000000004</ele>
        <time>2026-06-23T17:26:19Z</time>
      </trkpt>
      <trkpt lat="50.065929992124438" lon="-5.700217019766569">
        <ele>89.540000000000006</ele>
        <time>2026-06-23T17:26:29Z</time>
      </trkpt>
      <trkpt lat="50.066142976284027" lon="-5.700833005830646">
        <ele>89.060000000000002</ele>
        <time>2026-06-23T17:26:36Z</time>
      </trkpt>
      <trkpt lat="50.066179018467665" lon="-5.700963009148836">
        <ele>88.579999999999998</ele>
        <time>2026-06-23T17:26:39Z</time>
      </trkpt>
      <trkpt lat="50.066184969618917" lon="-5.701662981882691">
        <ele>88.579999999999998</ele>
        <time>2026-06-23T17:26:44Z</time>
      </trkpt>
      <trkpt lat="50.066188992932439" lon="-5.702148964628577">
        <ele>88.579999999999998</ele>
        <time>2026-06-23T17:26:46Z</time>
      </trkpt>
      <trkpt lat="50.066179018467665" lon="-5.70438701659441">
        <ele>84.730000000000004</ele>
        <time>2026-06-23T17:26:53Z</time>
      </trkpt>
      <trkpt lat="50.066116992384195" lon="-5.707732988521457">
        <ele>73.200000000000003</ele>
        <time>2026-06-23T17:27:04Z</time>
      </trkpt>
      <trkpt lat="50.066070975735784" lon="-5.708691040053964">
        <ele>72.719999999999999</ele>
        <time>2026-06-23T17:27:09Z</time>
      </trkpt>
      <trkpt lat="50.065991012379527" lon="-5.710231969133019">
        <ele>72.719999999999999</ele>
        <time>2026-06-23T17:27:22Z</time>
      </trkpt>
      <trkpt lat="50.065926974639297" lon="-5.71100402623415">
        <ele>73.200000000000003</ele>
        <time>2026-06-23T17:27:33Z</time>
      </trkpt>
      <trkpt lat="50.065900990739465" lon="-5.711251040920615">
        <ele>73.680000000000007</ele>
        <time>2026-06-23T17:27:45Z</time>
      </trkpt>
      <trkpt lat="50.065878024324775" lon="-5.711409039795399">
        <ele>73.680000000000007</ele>
        <time>2026-06-23T17:27:49Z</time>
      </trkpt>
      <trkpt lat="50.065878024324775" lon="-5.711409961804748">
        <ele>73.200000000000003</ele>
        <time>2026-06-23T17:27:50Z</time>
      </trkpt>
      <trkpt lat="50.065823039039969" lon="-5.711409961804748">
        <ele>73.200000000000003</ele>
        <time>2026-06-23T17:27:51Z</time>
      </trkpt>
      <trkpt lat="50.06586997769773" lon="-5.711511969566345">
        <ele>73.200000000000003</ele>
        <time>2026-06-23T17:27:52Z</time>
      </trkpt>
      <trkpt lat="50.065865032374859" lon="-5.711584975942969">
        <ele>73.200000000000003</ele>
        <time>2026-06-23T17:27:53Z</time>
      </trkpt>
      <trkpt lat="50.065856985747814" lon="-5.711682038381696">
        <ele>73.680000000000007</ele>
        <time>2026-06-23T17:27:54Z</time>
      </trkpt>
      <trkpt lat="50.065848017111421" lon="-5.711797960102558">
        <ele>73.680000000000007</ele>
        <time>2026-06-23T17:27:55Z</time>
      </trkpt>
      <trkpt lat="50.065838964655995" lon="-5.711915977299213">
        <ele>73.680000000000007</ele>
        <time>2026-06-23T17:27:56Z</time>
      </trkpt>
      <trkpt lat="50.065799988806248" lon="-5.712426016107202">
        <ele>73.680000000000007</ele>
        <time>2026-06-23T17:28:04Z</time>
      </trkpt>
      <trkpt lat="50.065799988806248" lon="-5.712426016107202">
        <ele>73.200000000000003</ele>
        <time>2026-06-23T17:28:08Z</time>
      </trkpt>
      <trkpt lat="50.065663028508425" lon="-5.712526012212038">
        <ele>73.680000000000007</ele>
        <time>2026-06-23T17:28:09Z</time>
      </trkpt>
      <trkpt lat="50.065663028508425" lon="-5.712526012212038">
        <ele>73.680000000000007</ele>
        <time>2026-06-23T17:28:10Z</time>
      </trkpt>
      <trkpt lat="50.065663028508425" lon="-5.712526012212038">
        <ele>73.680000000000007</ele>
        <time>2026-06-23T17:28:11Z</time>
      </trkpt>
      <trkpt lat="50.065663028508425" lon="-5.712526012212038">
        <ele>73.680000000000007</ele>
        <time>2026-06-23T17:28:12Z</time>
      </trkpt>
      <trkpt lat="50.065663028508425" lon="-5.712526012212038">
        <ele>73.680000000000007</ele>
        <time>2026-06-23T17:28:13Z</time>
      </trkpt>
      <trkpt lat="50.065663028508425" lon="-5.712526012212038">
        <ele>73.680000000000007</ele>
        <time>2026-06-23T17:28:14Z</time>
      </trkpt>
      <trkpt lat="50.065663028508425" lon="-5.712526012212038">
        <ele>73.680000000000007</ele>
        <time>2026-06-23T17:28:15Z</time>
      </trkpt>
      <trkpt lat="50.065663028508425" lon="-5.712526012212038">
        <ele>73.680000000000007</ele>
        <time>2026-06-23T17:28:16Z</time>
      </trkpt>
      <trkpt lat="50.065663028508425" lon="-5.712526012212038">
        <ele>73.680000000000007</ele>
        <time>2026-06-23T17:28:17Z</time>
      </trkpt>
      <trkpt lat="50.065299002453685" lon="-5.71227396838367">
        <ele>74.159999999999997</ele>
        <time>2026-06-23T17:28:27Z</time>
      </trkpt>
      <trkpt lat="50.065308976918459" lon="-5.712197022512555">
        <ele>73.680000000000007</ele>
        <time>2026-06-23T17:28:42Z</time>
      </trkpt>
      <trkpt lat="50.065320963039994" lon="-5.712181013077498">
        <ele>66.950000000000003</ele>
        <time>2026-06-23T17:39:51Z</time>
      </trkpt>
      <trkpt lat="50.065289027988911" lon="-5.712206996977329">
        <ele>71.269999999999996</ele>
        <time>2026-06-23T17:40:37Z</time>
      </trkpt>
      <trkpt lat="50.065305037423968" lon="-5.712169026955962">
        <ele>72.239999999999995</ele>
        <time>2026-06-23T17:41:42Z</time>
      </trkpt>
      <trkpt lat="50.065303025767207" lon="-5.712161986157298">
        <ele>72.239999999999995</ele>
        <time>2026-06-23T17:42:35Z</time>
      </trkpt>
      <trkpt lat="50.065299002453685" lon="-5.712168021127582">
        <ele>72.239999999999995</ele>
        <time>2026-06-23T17:42:59Z</time>
      </trkpt>
      <trkpt lat="50.065290033817291" lon="-5.712162991985679">
        <ele>72.239999999999995</ele>
        <time>2026-06-23T17:43:24Z</time>
      </trkpt>
      <trkpt lat="50.065249968320131" lon="-5.711970962584019">
        <ele>72.239999999999995</ele>
        <time>2026-06-23T17:43:35Z</time>
      </trkpt>
      <trkpt lat="50.065256003290415" lon="-5.71190700866282">
        <ele>71.760000000000005</ele>
        <time>2026-06-23T17:43:36Z</time>
      </trkpt>
      <trkpt lat="50.065422970801592" lon="-5.711495038121939">
        <ele>70.790000000000006</ele>
        <time>2026-06-23T17:43:45Z</time>
      </trkpt>
      <trkpt lat="50.065770987421274" lon="-5.711409961804748">
        <ele>71.269999999999996</ele>
        <time>2026-06-23T17:43:56Z</time>
      </trkpt>
      <trkpt lat="50.065780039876699" lon="-5.711409961804748">
        <ele>71.269999999999996</ele>
        <time>2026-06-23T17:43:58Z</time>
      </trkpt>
      <trkpt lat="50.065792025998235" lon="-5.711006037890911">
        <ele>70.790000000000006</ele>
        <time>2026-06-23T17:44:03Z</time>
      </trkpt>
      <trkpt lat="50.065778028219938" lon="-5.710775032639504">
        <ele>71.269999999999996</ele>
        <time>2026-06-23T17:44:11Z</time>
      </trkpt>
      <trkpt lat="50.065656993538141" lon="-5.711010983213782">
        <ele>71.269999999999996</ele>
        <time>2026-06-23T17:44:19Z</time>
      </trkpt>
      <trkpt lat="50.065770987421274" lon="-5.711409961804748">
        <ele>71.269999999999996</ele>
        <time>2026-06-23T17:44:23Z</time>
      </trkpt>
      <trkpt lat="50.065853968262672" lon="-5.711722020059824">
        <ele>71.760000000000005</ele>
        <time>2026-06-23T17:44:31Z</time>
      </trkpt>
      <trkpt lat="50.065817004069686" lon="-5.712203979492188">
        <ele>72.239999999999995</ele>
        <time>2026-06-23T17:44:36Z</time>
      </trkpt>
      <trkpt lat="50.065706027671695" lon="-5.712589966133237">
        <ele>72.239999999999995</ele>
        <time>2026-06-23T17:44:42Z</time>
      </trkpt>
      <trkpt lat="50.065788002684712" lon="-5.712574040517211">
        <ele>71.760000000000005</ele>
        <time>2026-06-23T17:44:43Z</time>
      </trkpt>
      <trkpt lat="50.065820021554828" lon="-5.712570017203689">
        <ele>71.760000000000005</ele>
        <time>2026-06-23T17:44:44Z</time>
      </trkpt>
      <trkpt lat="50.065848017111421" lon="-5.71257596835494">
        <ele>71.760000000000005</ele>
        <time>2026-06-23T17:44:45Z</time>
      </trkpt>
      <trkpt lat="50.06589001044631" lon="-5.712584014981985">
        <ele>71.760000000000005</ele>
        <time>2026-06-23T17:44:46Z</time>
      </trkpt>
      <trkpt lat="50.065921023488045" lon="-5.712589966133237">
        <ele>71.760000000000005</ele>
        <time>2026-06-23T17:44:47Z</time>
      </trkpt>
      <trkpt lat="50.065971985459328" lon="-5.71255199611187">
        <ele>71.760000000000005</ele>
        <time>2026-06-23T17:44:48Z</time>
      </trkpt>
      <trkpt lat="50.066007021814585" lon="-5.712526012212038">
        <ele>71.269999999999996</ele>
        <time>2026-06-23T17:44:49Z</time>
      </trkpt>
      <trkpt lat="50.066007021814585" lon="-5.712502039968967">
        <ele>71.760000000000005</ele>
        <time>2026-06-23T17:44:50Z</time>
      </trkpt>
      <trkpt lat="50.066009033471346" lon="-5.712418975308538">
        <ele>71.760000000000005</ele>
        <time>2026-06-23T17:44:51Z</time>
      </trkpt>
      <trkpt lat="50.066010961309075" lon="-5.712328031659126">
        <ele>71.760000000000005</ele>
        <time>2026-06-23T17:44:52Z</time>
      </trkpt>
      <trkpt lat="50.066023031249642" lon="-5.711728977039456">
        <ele>72.719999999999999</ele>
        <time>2026-06-23T17:44:59Z</time>
      </trkpt>
      <trkpt lat="50.066024959087372" lon="-5.711635015904903">
        <ele>72.719999999999999</ele>
        <time>2026-06-23T17:45:00Z</time>
      </trkpt>
      <trkpt lat="50.066027976572514" lon="-5.711473999544978">
        <ele>72.719999999999999</ele>
        <time>2026-06-23T17:45:01Z</time>
      </trkpt>
      <trkpt lat="50.066052032634616" lon="-5.711411973461509">
        <ele>73.200000000000003</ele>
        <time>2026-06-23T17:45:02Z</time>
      </trkpt>
      <trkpt lat="50.066087990999222" lon="-5.711319018155336">
        <ele>73.200000000000003</ele>
        <time>2026-06-23T17:45:03Z</time>
      </trkpt>
      <trkpt lat="50.066136019304395" lon="-5.711195971816778">
        <ele>73.200000000000003</ele>
        <time>2026-06-23T17:45:04Z</time>
      </trkpt>
      <trkpt lat="50.066139958798885" lon="-5.711121959611774">
        <ele>73.680000000000007</ele>
        <time>2026-06-23T17:45:05Z</time>
      </trkpt>
      <trkpt lat="50.066189998760819" lon="-5.710665984079242">
        <ele>74.159999999999997</ele>
        <time>2026-06-23T17:45:10Z</time>
      </trkpt>
      <trkpt lat="50.066203996539116" lon="-5.710584009066224">
        <ele>74.159999999999997</ele>
        <time>2026-06-23T17:45:11Z</time>
      </trkpt>
      <trkpt lat="50.066227968782187" lon="-5.710477977991104">
        <ele>74.159999999999997</ele>
        <time>2026-06-23T17:45:12Z</time>
      </trkpt>
      <trkpt lat="50.06627700291574" lon="-5.710403965786099">
        <ele>74.159999999999997</ele>
        <time>2026-06-23T17:45:13Z</time>
      </trkpt>
      <trkpt lat="50.066329976543784" lon="-5.710324002429843">
        <ele>74.159999999999997</ele>
        <time>2026-06-23T17:45:14Z</time>
      </trkpt>
      <trkpt lat="50.066546984016895" lon="-5.709999036043882">
        <ele>75.120000000000005</ele>
        <time>2026-06-23T17:45:18Z</time>
      </trkpt>
      <trkpt lat="50.066590989008546" lon="-5.709904991090298">
        <ele>75.120000000000005</ele>
        <time>2026-06-23T17:45:19Z</time>
      </trkpt>
      <trkpt lat="50.066629964858294" lon="-5.7098029833287">
        <ele>75.120000000000005</ele>
        <time>2026-06-23T17:45:20Z</time>
      </trkpt>
      <trkpt lat="50.066670030355453" lon="-5.709698041900992">
        <ele>75.599999999999994</ele>
        <time>2026-06-23T17:45:21Z</time>
      </trkpt>
      <trkpt lat="50.066680004820228" lon="-5.709570972248912">
        <ele>76.079999999999998</ele>
        <time>2026-06-23T17:45:22Z</time>
      </trkpt>
      <trkpt lat="50.066687967628241" lon="-5.709439041092992">
        <ele>76.079999999999998</ele>
        <time>2026-06-23T17:45:23Z</time>
      </trkpt>
      <trkpt lat="50.066697020083666" lon="-5.709301996976137">
        <ele>76.079999999999998</ele>
        <time>2026-06-23T17:45:24Z</time>
      </trkpt>
      <trkpt lat="50.066705988720059" lon="-5.709166964516044">
        <ele>76.079999999999998</ele>
        <time>2026-06-23T17:45:25Z</time>
      </trkpt>
      <trkpt lat="50.066714035347104" lon="-5.709042996168137">
        <ele>75.599999999999994</ele>
        <time>2026-06-23T17:45:26Z</time>
      </trkpt>
      <trkpt lat="50.066689979285002" lon="-5.708927996456623">
        <ele>75.599999999999994</ele>
        <time>2026-06-23T17:45:27Z</time>
      </trkpt>
      <trkpt lat="50.066671958193183" lon="-5.70885700173676">
        <ele>75.599999999999994</ele>
        <time>2026-06-23T17:45:28Z</time>
      </trkpt>
      <trkpt lat="50.066609010100365" lon="-5.708818025887013">
        <ele>76.079999999999998</ele>
        <time>2026-06-23T17:45:29Z</time>
      </trkpt>
      <trkpt lat="50.06655796431005" lon="-5.708786007016897">
        <ele>76.079999999999998</ele>
        <time>2026-06-23T17:45:30Z</time>
      </trkpt>
      <trkpt lat="50.066499961540103" lon="-5.708748959004879">
        <ele>76.079999999999998</ele>
        <time>2026-06-23T17:45:31Z</time>
      </trkpt>
      <trkpt lat="50.06644899956882" lon="-5.70866103284061">
        <ele>76.079999999999998</ele>
        <time>2026-06-23T17:45:32Z</time>
      </trkpt>
      <trkpt lat="50.066401977092028" lon="-5.708580985665321">
        <ele>76.079999999999998</ele>
        <time>2026-06-23T17:45:33Z</time>
      </trkpt>
      <trkpt lat="50.066350009292364" lon="-5.70849196985364">
        <ele>76.079999999999998</ele>
        <time>2026-06-23T17:45:34Z</time>
      </trkpt>
      <trkpt lat="50.066338023170829" lon="-5.708380993455648">
        <ele>76.079999999999998</ele>
        <time>2026-06-23T17:45:35Z</time>
      </trkpt>
      <trkpt lat="50.066325031220913" lon="-5.708259958773851">
        <ele>75.599999999999994</ele>
        <time>2026-06-23T17:45:36Z</time>
      </trkpt>
      <trkpt lat="50.066312039270997" lon="-5.708139007911086">
        <ele>75.120000000000005</ele>
        <time>2026-06-23T17:45:37Z</time>
      </trkpt>
      <trkpt lat="50.066167032346129" lon="-5.707181040197611">
        <ele>74.640000000000001</ele>
        <time>2026-06-23T17:45:46Z</time>
      </trkpt>
      <trkpt lat="50.066156974062324" lon="-5.707049025222659">
        <ele>74.640000000000001</ele>
        <time>2026-06-23T17:45:47Z</time>
      </trkpt>
      <trkpt lat="50.066156974062324" lon="-5.70690100081265">
        <ele>74.640000000000001</ele>
        <time>2026-06-23T17:45:48Z</time>
      </trkpt>
      <trkpt lat="50.066167032346129" lon="-5.705000991001725">
        <ele>80.409999999999997</ele>
        <time>2026-06-23T17:45:58Z</time>
      </trkpt>
      <trkpt lat="50.066196033731103" lon="-5.702866036444902">
        <ele>86.659999999999997</ele>
        <time>2026-06-23T17:46:06Z</time>
      </trkpt>
      <trkpt lat="50.066180024296045" lon="-5.701072979718447">
        <ele>89.060000000000002</ele>
        <time>2026-06-23T17:46:13Z</time>
      </trkpt>
      <trkpt lat="50.066397031769156" lon="-5.698961997404695">
        <ele>90.019999999999996</ele>
        <time>2026-06-23T17:46:22Z</time>
      </trkpt>
      <trkpt lat="50.06664396263659" lon="-5.696959979832172">
        <ele>91.459999999999994</ele>
        <time>2026-06-23T17:46:31Z</time>
      </trkpt>
      <trkpt lat="50.066696014255285" lon="-5.696784965693951">
        <ele>91.459999999999994</ele>
        <time>2026-06-23T17:46:32Z</time>
      </trkpt>
      <trkpt lat="50.066761979833245" lon="-5.69661196321249">
        <ele>91.459999999999994</ele>
        <time>2026-06-23T17:46:33Z</time>
      </trkpt>
      <trkpt lat="50.066857030615211" lon="-5.69648296572268">
        <ele>91.459999999999994</ele>
        <time>2026-06-23T17:46:34Z</time>
      </trkpt>
      <trkpt lat="50.066954009234905" lon="-5.696352040395141">
        <ele>91.459999999999994</ele>
        <time>2026-06-23T17:46:35Z</time>
      </trkpt>
      <trkpt lat="50.067064985632896" lon="-5.696222959086299">
        <ele>91.459999999999994</ele>
        <time>2026-06-23T17:46:36Z</time>
      </trkpt>
      <trkpt lat="50.067190965637565" lon="-5.696151964366436">
        <ele>91.459999999999994</ele>
        <time>2026-06-23T17:46:37Z</time>
      </trkpt>
      <trkpt lat="50.067318035289645" lon="-5.696079963818193">
        <ele>91.939999999999998</ele>
        <time>2026-06-23T17:46:38Z</time>
      </trkpt>
      <trkpt lat="50.06868302822113" lon="-5.695392983034253">
        <ele>97.709999999999994</ele>
        <time>2026-06-23T17:46:49Z</time>
      </trkpt>
      <trkpt lat="50.069271018728614" lon="-5.695190979167819">
        <ele>100.59999999999999</ele>
        <time>2026-06-23T17:46:55Z</time>
      </trkpt>
      <trkpt lat="50.069372020661831" lon="-5.695196008309722">
        <ele>101.08</ele>
        <time>2026-06-23T17:46:56Z</time>
      </trkpt>
      <trkpt lat="50.069468999281526" lon="-5.695201959460974">
        <ele>101.08</ele>
        <time>2026-06-23T17:46:57Z</time>
      </trkpt>
      <trkpt lat="50.070048021152616" lon="-5.695293992757797">
        <ele>102.52</ele>
        <time>2026-06-23T17:47:03Z</time>
      </trkpt>
      <trkpt lat="50.070634000003338" lon="-5.69532198831439">
        <ele>105.40000000000001</ele>
        <time>2026-06-23T17:47:09Z</time>
      </trkpt>
      <trkpt lat="50.070732990279794" lon="-5.695302039384842">
        <ele>105.88</ele>
        <time>2026-06-23T17:47:10Z</time>
      </trkpt>
      <trkpt lat="50.070830974727869" lon="-5.695246970281005">
        <ele>105.88</ele>
        <time>2026-06-23T17:47:11Z</time>
      </trkpt>
      <trkpt lat="50.071316035464406" lon="-5.694971960037947">
        <ele>104.92</ele>
        <time>2026-06-23T17:47:16Z</time>
      </trkpt>
      <trkpt lat="50.072607016190886" lon="-5.6943320017308">
        <ele>106.84</ele>
        <time>2026-06-23T17:47:29Z</time>
      </trkpt>
      <trkpt lat="50.073402039706707" lon="-5.693956995382905">
        <ele>105.88</ele>
        <time>2026-06-23T17:47:37Z</time>
      </trkpt>
      <trkpt lat="50.073486026376486" lon="-5.693880971521139">
        <ele>105.88</ele>
        <time>2026-06-23T17:47:38Z</time>
      </trkpt>
      <trkpt lat="50.073915012180805" lon="-5.693377973511815">
        <ele>103.48</ele>
        <time>2026-06-23T17:47:46Z</time>
      </trkpt>
      <trkpt lat="50.074273003265262" lon="-5.69295996800065">
        <ele>102.52</ele>
        <time>2026-06-23T17:47:53Z</time>
      </trkpt>
      <trkpt lat="50.074339974671602" lon="-5.692897019907832">
        <ele>102.04000000000001</ele>
        <time>2026-06-23T17:47:54Z</time>
      </trkpt>
      <trkpt lat="50.074920002371073" lon="-5.692178020253778">
        <ele>98.670000000000002</ele>
        <time>2026-06-23T17:48:03Z</time>
      </trkpt>
      <trkpt lat="50.075500030070543" lon="-5.690970020368695">
        <ele>98.189999999999998</ele>
        <time>2026-06-23T17:48:12Z</time>
      </trkpt>
      <trkpt lat="50.075919963419437" lon="-5.689331023022533">
        <ele>97.230000000000004</ele>
        <time>2026-06-23T17:48:22Z</time>
      </trkpt>
      <trkpt lat="50.076155997812748" lon="-5.688385041430593">
        <ele>93.870000000000005</ele>
        <time>2026-06-23T17:48:30Z</time>
      </trkpt>
      <trkpt lat="50.076336041092873" lon="-5.687623964622617">
        <ele>92.420000000000002</ele>
        <time>2026-06-23T17:48:37Z</time>
      </trkpt>
      <trkpt lat="50.076767038553953" lon="-5.686193006113172">
        <ele>90.980000000000004</ele>
        <time>2026-06-23T17:48:47Z</time>
      </trkpt>
      <trkpt lat="50.077232988551259" lon="-5.68505197763443">
        <ele>89.540000000000006</ele>
        <time>2026-06-23T17:48:56Z</time>
      </trkpt>
      <trkpt lat="50.077305994927883" lon="-5.684939995408058">
        <ele>89.540000000000006</ele>
        <time>2026-06-23T17:48:57Z</time>
      </trkpt>
      <trkpt lat="50.077391993254423" lon="-5.684853997081518">
        <ele>89.060000000000002</ele>
        <time>2026-06-23T17:48:58Z</time>
      </trkpt>
      <trkpt lat="50.078262034803629" lon="-5.683970963582397">
        <ele>92.420000000000002</ele>
        <time>2026-06-23T17:49:08Z</time>
      </trkpt>
      <trkpt lat="50.079460982233286" lon="-5.68264402449131">
        <ele>105.40000000000001</ele>
        <time>2026-06-23T17:49:22Z</time>
      </trkpt>
      <trkpt lat="50.080584995448589" lon="-5.681410962715745">
        <ele>108.77</ele>
        <time>2026-06-23T17:49:34Z</time>
      </trkpt>
      <trkpt lat="50.081974966451526" lon="-5.68064896389842">
        <ele>109.73</ele>
        <time>2026-06-23T17:49:45Z</time>
      </trkpt>
      <trkpt lat="50.082107987254858" lon="-5.68058199249208">
        <ele>110.20999999999999</ele>
        <time>2026-06-23T17:49:46Z</time>
      </trkpt>
      <trkpt lat="50.082234973087907" lon="-5.680489037185907">
        <ele>110.20999999999999</ele>
        <time>2026-06-23T17:49:47Z</time>
      </trkpt>
      <trkpt lat="50.082360031083226" lon="-5.680391974747181">
        <ele>110.20999999999999</ele>
        <time>2026-06-23T17:49:48Z</time>
      </trkpt>
      <trkpt lat="50.082462038844824" lon="-5.680253002792597">
        <ele>110.20999999999999</ele>
        <time>2026-06-23T17:49:49Z</time>
      </trkpt>
      <trkpt lat="50.082546025514603" lon="-5.680106990039349">
        <ele>110.20999999999999</ele>
        <time>2026-06-23T17:49:50Z</time>
      </trkpt>
      <trkpt lat="50.082629006356001" lon="-5.679961983114481">
        <ele>110.20999999999999</ele>
        <time>2026-06-23T17:49:51Z</time>
      </trkpt>
      <trkpt lat="50.08269103243947" lon="-5.679780011996627">
        <ele>110.69</ele>
        <time>2026-06-23T17:49:52Z</time>
      </trkpt>
      <trkpt lat="50.082744006067514" lon="-5.679574990645051">
        <ele>110.69</ele>
        <time>2026-06-23T17:49:53Z</time>
      </trkpt>
      <trkpt lat="50.08329201489687" lon="-5.677599962800741">
        <ele>111.65000000000001</ele>
        <time>2026-06-23T17:50:03Z</time>
      </trkpt>
      <trkpt lat="50.083534000441432" lon="-5.676938965916634">
        <ele>110.69</ele>
        <time>2026-06-23T17:50:07Z</time>
      </trkpt>
      <trkpt lat="50.08361304178834" lon="-5.676803011447191">
        <ele>110.69</ele>
        <time>2026-06-23T17:50:08Z</time>
      </trkpt>
      <trkpt lat="50.083705997094512" lon="-5.676699997857213">
        <ele>110.20999999999999</ele>
        <time>2026-06-23T17:50:09Z</time>
      </trkpt>
      <trkpt lat="50.083815967664123" lon="-5.676663033664227">
        <ele>110.20999999999999</ele>
        <time>2026-06-23T17:50:10Z</time>
      </trkpt>
      <trkpt lat="50.083935996517539" lon="-5.67662900313735">
        <ele>109.73</ele>
        <time>2026-06-23T17:50:11Z</time>
      </trkpt>
      <trkpt lat="50.084061976522207" lon="-5.676644006744027">
        <ele>109.73</ele>
        <time>2026-06-23T17:50:12Z</time>
      </trkpt>
      <trkpt lat="50.084197008982301" lon="-5.676661022007465">
        <ele>109.25</ele>
        <time>2026-06-23T17:50:13Z</time>
      </trkpt>
      <trkpt lat="50.08447595871985" lon="-5.676677031442523">
        <ele>108.77</ele>
        <time>2026-06-23T17:50:15Z</time>
      </trkpt>
      <trkpt lat="50.084615014493465" lon="-5.676621962338686">
        <ele>108.77</ele>
        <time>2026-06-23T17:50:16Z</time>
      </trkpt>
      <trkpt lat="50.084761027246714" lon="-5.67656303755939">
        <ele>109.25</ele>
        <time>2026-06-23T17:50:17Z</time>
      </trkpt>
      <trkpt lat="50.084899999201298" lon="-5.676469998434186">
        <ele>109.25</ele>
        <time>2026-06-23T17:50:18Z</time>
      </trkpt>
      <trkpt lat="50.085038971155882" lon="-5.676364973187447">
        <ele>109.25</ele>
        <time>2026-06-23T17:50:19Z</time>
      </trkpt>
      <trkpt lat="50.08516201749444" lon="-5.676214015111327">
        <ele>109.25</ele>
        <time>2026-06-23T17:50:20Z</time>
      </trkpt>
      <trkpt lat="50.085285985842347" lon="-5.676060961559415">
        <ele>109.73</ele>
        <time>2026-06-23T17:50:21Z</time>
      </trkpt>
      <trkpt lat="50.085406014695764" lon="-5.675902040675283">
        <ele>109.73</ele>
        <time>2026-06-23T17:50:22Z</time>
      </trkpt>
      <trkpt lat="50.085513973608613" lon="-5.675717974081636">
        <ele>110.20999999999999</ele>
        <time>2026-06-23T17:50:23Z</time>
      </trkpt>
      <trkpt lat="50.086457021534443" lon="-5.673904968425632">
        <ele>114.53</ele>
        <time>2026-06-23T17:50:33Z</time>
      </trkpt>
      <trkpt lat="50.087087005376816" lon="-5.671604974195361">
        <ele>120.3</ele>
        <time>2026-06-23T17:50:44Z</time>
      </trkpt>
      <trkpt lat="50.087313987314701" lon="-5.670646000653505">
        <ele>122.70999999999999</ele>
        <time>2026-06-23T17:50:50Z</time>
      </trkpt>
      <trkpt lat="50.087347012013197" lon="-5.67052798345685">
        <ele>123.19</ele>
        <time>2026-06-23T17:50:51Z</time>
      </trkpt>
      <trkpt lat="50.087380958721042" lon="-5.670408038422465">
        <ele>123.67</ele>
        <time>2026-06-23T17:50:52Z</time>
      </trkpt>
      <trkpt lat="50.087550021708012" lon="-5.670339977368712">
        <ele>124.15000000000001</ele>
        <time>2026-06-23T17:50:53Z</time>
      </trkpt>
      <trkpt lat="50.087586985900998" lon="-5.670261019840837">
        <ele>124.15000000000001</ele>
        <time>2026-06-23T17:50:54Z</time>
      </trkpt>
      <trkpt lat="50.087644988670945" lon="-5.670135039836168">
        <ele>124.15000000000001</ele>
        <time>2026-06-23T17:50:55Z</time>
      </trkpt>
      <trkpt lat="50.087711960077286" lon="-5.669994978234172">
        <ele>124.15000000000001</ele>
        <time>2026-06-23T17:50:56Z</time>
      </trkpt>
      <trkpt lat="50.088414028286934" lon="-5.668795024976134">
        <ele>125.11</ele>
        <time>2026-06-23T17:51:03Z</time>
      </trkpt>
      <trkpt lat="50.089685982093215" lon="-5.666858972981572">
        <ele>124.63</ele>
        <time>2026-06-23T17:51:14Z</time>
      </trkpt>
      <trkpt lat="50.090845031663775" lon="-5.665432037785649">
        <ele>118.38</ele>
        <time>2026-06-23T17:51:23Z</time>
      </trkpt>
      <trkpt lat="50.091682970523834" lon="-5.664866007864475">
        <ele>117.90000000000001</ele>
        <time>2026-06-23T17:51:29Z</time>
      </trkpt>
      <trkpt lat="50.091809034347534" lon="-5.664846980944276">
        <ele>118.38</ele>
        <time>2026-06-23T17:51:30Z</time>
      </trkpt>
      <trkpt lat="50.091934008523822" lon="-5.664846980944276">
        <ele>118.38</ele>
        <time>2026-06-23T17:51:31Z</time>
      </trkpt>
      <trkpt lat="50.092070968821645" lon="-5.664859972894192">
        <ele>118.86</ele>
        <time>2026-06-23T17:51:32Z</time>
      </trkpt>
      <trkpt lat="50.092186974361539" lon="-5.664960974827409">
        <ele>119.34</ele>
        <time>2026-06-23T17:51:33Z</time>
      </trkpt>
      <trkpt lat="50.092309014871716" lon="-5.665068011730909">
        <ele>119.34</ele>
        <time>2026-06-23T17:51:34Z</time>
      </trkpt>
      <trkpt lat="50.092436000704765" lon="-5.665178988128901">
        <ele>119.81999999999999</ele>
        <time>2026-06-23T17:51:35Z</time>
      </trkpt>
      <trkpt lat="50.09270497597754" lon="-5.665415022522211">
        <ele>120.3</ele>
        <time>2026-06-23T17:51:37Z</time>
      </trkpt>
      <trkpt lat="50.092851994559169" lon="-5.665490040555596">
        <ele>120.78</ele>
        <time>2026-06-23T17:51:38Z</time>
      </trkpt>
      <trkpt lat="50.093411989510059" lon="-5.665640998631716">
        <ele>123.19</ele>
        <time>2026-06-23T17:51:42Z</time>
      </trkpt>
      <trkpt lat="50.093652969226241" lon="-5.665640998631716">
        <ele>125.11</ele>
        <time>2026-06-23T17:51:44Z</time>
      </trkpt>
      <trkpt lat="50.0937569886446" lon="-5.665658013895154">
        <ele>125.59</ele>
        <time>2026-06-23T17:51:45Z</time>
      </trkpt>
      <trkpt lat="50.093851033598185" lon="-5.665715010836721">
        <ele>126.06999999999999</ele>
        <time>2026-06-23T17:51:46Z</time>
      </trkpt>
      <trkpt lat="50.094044990837574" lon="-5.665835961699486">
        <ele>126.06999999999999</ele>
        <time>2026-06-23T17:51:48Z</time>
      </trkpt>
      <trkpt lat="50.094139035791159" lon="-5.665893964469433">
        <ele>126.55</ele>
        <time>2026-06-23T17:51:49Z</time>
      </trkpt>
      <trkpt lat="50.094234002754092" lon="-5.665897987782955">
        <ele>126.55</ele>
        <time>2026-06-23T17:51:50Z</time>
      </trkpt>
      <trkpt lat="50.094333998858929" lon="-5.665855994448066">
        <ele>126.55</ele>
        <time>2026-06-23T17:51:51Z</time>
      </trkpt>
      <trkpt lat="50.094440029934049" lon="-5.665810983628035">
        <ele>127.03</ele>
        <time>2026-06-23T17:51:52Z</time>
      </trkpt>
      <trkpt lat="50.094525022432208" lon="-5.665695983916521">
        <ele>127.51000000000001</ele>
        <time>2026-06-23T17:51:53Z</time>
      </trkpt>
      <trkpt lat="50.09461403824389" lon="-5.665575033053756">
        <ele>127.98999999999999</ele>
        <time>2026-06-23T17:51:54Z</time>
      </trkpt>
      <trkpt lat="50.09470297023654" lon="-5.665455004200339">
        <ele>127.98999999999999</ele>
        <time>2026-06-23T17:51:55Z</time>
      </trkpt>
      <trkpt lat="50.094863986596465" lon="-5.665237996727228">
        <ele>128.94999999999999</ele>
        <time>2026-06-23T17:51:57Z</time>
      </trkpt>
      <trkpt lat="50.094957025721669" lon="-5.665182005614042">
        <ele>129.43000000000001</ele>
        <time>2026-06-23T17:51:58Z</time>
      </trkpt>
      <trkpt lat="50.095050986856222" lon="-5.665156021714211">
        <ele>129.91999999999999</ele>
        <time>2026-06-23T17:51:59Z</time>
      </trkpt>
      <trkpt lat="50.095149977132678" lon="-5.665180999785662">
        <ele>129.91999999999999</ele>
        <time>2026-06-23T17:52:00Z</time>
      </trkpt>
      <trkpt lat="50.095261037349701" lon="-5.665208995342255">
        <ele>130.40000000000001</ele>
        <time>2026-06-23T17:52:01Z</time>
      </trkpt>
      <trkpt lat="50.095377964898944" lon="-5.665239002555609">
        <ele>130.40000000000001</ele>
        <time>2026-06-23T17:52:02Z</time>
      </trkpt>
      <trkpt lat="50.09626803919673" lon="-5.665388032793999">
        <ele>130.88</ele>
        <time>2026-06-23T17:52:09Z</time>
      </trkpt>
      <trkpt lat="50.096360994502902" lon="-5.665345033630729">
        <ele>130.88</ele>
        <time>2026-06-23T17:52:10Z</time>
      </trkpt>
      <trkpt lat="50.096446992829442" lon="-5.665249982848764">
        <ele>130.88</ele>
        <time>2026-06-23T17:52:11Z</time>
      </trkpt>
      <trkpt lat="50.097103966400027" lon="-5.664541041478515">
        <ele>131.36000000000001</ele>
        <time>2026-06-23T17:52:17Z</time>
      </trkpt>
      <trkpt lat="50.097201028838754" lon="-5.664455965161324">
        <ele>131.36000000000001</ele>
        <time>2026-06-23T17:52:18Z</time>
      </trkpt>
      <trkpt lat="50.09730102494359" lon="-5.664428975433111">
        <ele>131.36000000000001</ele>
        <time>2026-06-23T17:52:19Z</time>
      </trkpt>
      <trkpt lat="50.097403032705188" lon="-5.664400979876518">
        <ele>131.36000000000001</ele>
        <time>2026-06-23T17:52:20Z</time>
      </trkpt>
      <trkpt lat="50.098585970699787" lon="-5.664315987378359">
        <ele>131.84</ele>
        <time>2026-06-23T17:52:31Z</time>
      </trkpt>
      <trkpt lat="50.09889199398458" lon="-5.664385976269841">
        <ele>131.84</ele>
        <time>2026-06-23T17:52:34Z</time>
      </trkpt>
      <trkpt lat="50.098994001746178" lon="-5.664420006796718">
        <ele>131.84</ele>
        <time>2026-06-23T17:52:35Z</time>
      </trkpt>
      <trkpt lat="50.099095003679395" lon="-5.664483038708568">
        <ele>131.36000000000001</ele>
        <time>2026-06-23T17:52:36Z</time>
      </trkpt>
      <trkpt lat="50.099194999784231" lon="-5.664583034813404">
        <ele>131.36000000000001</ele>
        <time>2026-06-23T17:52:37Z</time>
      </trkpt>
      <trkpt lat="50.099302036687732" lon="-5.664689987897873">
        <ele>131.36000000000001</ele>
        <time>2026-06-23T17:52:38Z</time>
      </trkpt>
      <trkpt lat="50.100322030484676" lon="-5.665593976154923">
        <ele>129.91999999999999</ele>
        <time>2026-06-23T17:52:47Z</time>
      </trkpt>
      <trkpt lat="50.101720970124006" lon="-5.666929967701435">
        <ele>128.47</ele>
        <time>2026-06-23T17:53:00Z</time>
      </trkpt>
      <trkpt lat="50.103067019954324" lon="-5.668299989774823">
        <ele>127.03</ele>
        <time>2026-06-23T17:53:12Z</time>
      </trkpt>
      <trkpt lat="50.104748010635376" lon="-5.669766990467906">
        <ele>124.15000000000001</ele>
        <time>2026-06-23T17:53:25Z</time>
      </trkpt>
      <trkpt lat="50.106577025726438" lon="-5.671626012772322">
        <ele>123.67</ele>
        <time>2026-06-23T17:53:39Z</time>
      </trkpt>
      <trkpt lat="50.107758035883307" lon="-5.672842981293798">
        <ele>120.3</ele>
        <time>2026-06-23T17:53:48Z</time>
      </trkpt>
      <trkpt lat="50.109006017446518" lon="-5.673940004780889">
        <ele>116.45999999999999</ele>
        <time>2026-06-23T17:53:58Z</time>
      </trkpt>
      <trkpt lat="50.109120011329651" lon="-5.674040000885725">
        <ele>116.45999999999999</ele>
        <time>2026-06-23T17:53:59Z</time>
      </trkpt>
      <trkpt lat="50.109210032969713" lon="-5.674182996153832">
        <ele>115.98</ele>
        <time>2026-06-23T17:54:00Z</time>
      </trkpt>
      <trkpt lat="50.109295025467873" lon="-5.674362033605576">
        <ele>115.98</ele>
        <time>2026-06-23T17:54:01Z</time>
      </trkpt>
      <trkpt lat="50.110053000971675" lon="-5.675960965454578">
        <ele>116.45999999999999</ele>
        <time>2026-06-23T17:54:09Z</time>
      </trkpt>
      <trkpt lat="50.110636968165636" lon="-5.677260998636484">
        <ele>113.56999999999999</ele>
        <time>2026-06-23T17:54:16Z</time>
      </trkpt>
      <trkpt lat="50.110781975090504" lon="-5.677659977227449">
        <ele>111.65000000000001</ele>
        <time>2026-06-23T17:54:19Z</time>
      </trkpt>
      <trkpt lat="50.110848024487495" lon="-5.677734995260835">
        <ele>111.17</ele>
        <time>2026-06-23T17:54:20Z</time>
      </trkpt>
      <trkpt lat="50.110927987843752" lon="-5.677813030779362">
        <ele>110.20999999999999</ele>
        <time>2026-06-23T17:54:21Z</time>
      </trkpt>
      <trkpt lat="50.111015997827053" lon="-5.677897017449141">
        <ele>109.25</ele>
        <time>2026-06-23T17:54:22Z</time>
      </trkpt>
      <trkpt lat="50.111106019467115" lon="-5.677984021604061">
        <ele>108.77</ele>
        <time>2026-06-23T17:54:23Z</time>
      </trkpt>
      <trkpt lat="50.111372983083129" lon="-5.678242016583681">
        <ele>106.84</ele>
        <time>2026-06-23T17:54:26Z</time>
      </trkpt>
      <trkpt lat="50.111472979187965" lon="-5.678278980776668">
        <ele>106.36</ele>
        <time>2026-06-23T17:54:27Z</time>
      </trkpt>
      <trkpt lat="50.111582027748227" lon="-5.678298007696867">
        <ele>105.40000000000001</ele>
        <time>2026-06-23T17:54:28Z</time>
      </trkpt>
      <trkpt lat="50.111699961125851" lon="-5.678278980776668">
        <ele>104.44</ele>
        <time>2026-06-23T17:54:29Z</time>
      </trkpt>
      <trkpt lat="50.111823007464409" lon="-5.678259031847119">
        <ele>103.48</ele>
        <time>2026-06-23T17:54:30Z</time>
      </trkpt>
      <trkpt lat="50.112187033519149" lon="-5.678182002156973">
        <ele>101.08</ele>
        <time>2026-06-23T17:54:33Z</time>
      </trkpt>
      <trkpt lat="50.112302033230662" lon="-5.678120981901884">
        <ele>99.629999999999995</ele>
        <time>2026-06-23T17:54:34Z</time>
      </trkpt>
      <trkpt lat="50.112412003800273" lon="-5.678019979968667">
        <ele>98.189999999999998</ele>
        <time>2026-06-23T17:54:35Z</time>
      </trkpt>
      <trkpt lat="50.112990019842982" lon="-5.67750901915133">
        <ele>95.310000000000002</ele>
        <time>2026-06-23T17:54:40Z</time>
      </trkpt>
      <trkpt lat="50.113107031211257" lon="-5.67744598723948">
        <ele>95.310000000000002</ele>
        <time>2026-06-23T17:54:41Z</time>
      </trkpt>
      <trkpt lat="50.113225970417261" lon="-5.677395025268197">
        <ele>95.310000000000002</ele>
        <time>2026-06-23T17:54:42Z</time>
      </trkpt>
      <trkpt lat="50.113347005099058" lon="-5.677375998347998">
        <ele>95.790000000000006</ele>
        <time>2026-06-23T17:54:43Z</time>
      </trkpt>
      <trkpt lat="50.113466028124094" lon="-5.677357977256179">
        <ele>96.75</ele>
        <time>2026-06-23T17:54:44Z</time>
      </trkpt>
      <trkpt lat="50.113582033663988" lon="-5.677408017218113">
        <ele>98.189999999999998</ele>
        <time>2026-06-23T17:54:45Z</time>
      </trkpt>
      <trkpt lat="50.113702984526753" lon="-5.677465014159679">
        <ele>99.629999999999995</ele>
        <time>2026-06-23T17:54:46Z</time>
      </trkpt>
      <trkpt lat="50.11382301338017" lon="-5.677540032193065">
        <ele>101.56</ele>
        <time>2026-06-23T17:54:47Z</time>
      </trkpt>
      <trkpt lat="50.113936001434922" lon="-5.677662994712591">
        <ele>103</ele>
        <time>2026-06-23T17:54:48Z</time>
      </trkpt>
      <trkpt lat="50.114054018631577" lon="-5.677792998030782">
        <ele>104.92</ele>
        <time>2026-06-23T17:54:49Z</time>
      </trkpt>
      <trkpt lat="50.1143619697541" lon="-5.678193988278508">
        <ele>109.25</ele>
        <time>2026-06-23T17:54:52Z</time>
      </trkpt>
      <trkpt lat="50.114433970302343" lon="-5.678344024345279">
        <ele>110.20999999999999</ele>
        <time>2026-06-23T17:54:53Z</time>
      </trkpt>
      <trkpt lat="50.114485016092658" lon="-5.678523983806372">
        <ele>110.69</ele>
        <time>2026-06-23T17:54:54Z</time>
      </trkpt>
      <trkpt lat="50.114522986114025" lon="-5.678739985451102">
        <ele>111.17</ele>
        <time>2026-06-23T17:54:55Z</time>
      </trkpt>
      <trkpt lat="50.114556010812521" lon="-5.678978031501174">
        <ele>111.17</ele>
        <time>2026-06-23T17:54:56Z</time>
      </trkpt>
      <trkpt lat="50.114708980545402" lon="-5.679928036406636">
        <ele>110.69</ele>
        <time>2026-06-23T17:55:00Z</time>
      </trkpt>
      <trkpt lat="50.114762960001826" lon="-5.680078994482756">
        <ele>110.20999999999999</ele>
        <time>2026-06-23T17:55:01Z</time>
      </trkpt>
      <trkpt lat="50.114823980256915" lon="-5.68019500002265">
        <ele>110.69</ele>
        <time>2026-06-23T17:55:02Z</time>
      </trkpt>
      <trkpt lat="50.11492196470499" lon="-5.68021897226572">
        <ele>111.17</ele>
        <time>2026-06-23T17:55:03Z</time>
      </trkpt>
      <trkpt lat="50.115037970244884" lon="-5.680225007236004">
        <ele>111.65000000000001</ele>
        <time>2026-06-23T17:55:04Z</time>
      </trkpt>
      <trkpt lat="50.115170991048217" lon="-5.680208997800946">
        <ele>112.13</ele>
        <time>2026-06-23T17:55:05Z</time>
      </trkpt>
      <trkpt lat="50.115596959367394" lon="-5.680138003081083">
        <ele>114.53</ele>
        <time>2026-06-23T17:55:08Z</time>
      </trkpt>
      <trkpt lat="50.115739032626152" lon="-5.680072959512472">
        <ele>115.98</ele>
        <time>2026-06-23T17:55:09Z</time>
      </trkpt>
      <trkpt lat="50.116897998377681" lon="-5.679574990645051">
        <ele>124.15000000000001</ele>
        <time>2026-06-23T17:55:17Z</time>
      </trkpt>
      <trkpt lat="50.117034036666155" lon="-5.679555963724852">
        <ele>124.63</ele>
        <time>2026-06-23T17:55:18Z</time>
      </trkpt>
      <trkpt lat="50.117480959743261" lon="-5.679494021460414">
        <ele>127.51000000000001</ele>
        <time>2026-06-23T17:55:21Z</time>
      </trkpt>
      <trkpt lat="50.117630995810032" lon="-5.679434007033706">
        <ele>128.47</ele>
        <time>2026-06-23T17:55:22Z</time>
      </trkpt>
      <trkpt lat="50.117778014391661" lon="-5.679323030635715">
        <ele>129.91999999999999</ele>
        <time>2026-06-23T17:55:23Z</time>
      </trkpt>
      <trkpt lat="50.118612013757229" lon="-5.678707966580987">
        <ele>140.49000000000001</ele>
        <time>2026-06-23T17:55:29Z</time>
      </trkpt>
      <trkpt lat="50.118694994598627" lon="-5.678602019324899">
        <ele>141.93000000000001</ele>
        <time>2026-06-23T17:55:30Z</time>
      </trkpt>
      <trkpt lat="50.118744028732181" lon="-5.678473021835089">
        <ele>143.84999999999999</ele>
        <time>2026-06-23T17:55:31Z</time>
      </trkpt>
      <trkpt lat="50.118771018460393" lon="-5.678321979939938">
        <ele>144.81999999999999</ele>
        <time>2026-06-23T17:55:32Z</time>
      </trkpt>
      <trkpt lat="50.118780992925167" lon="-5.678127016872168">
        <ele>146.25999999999999</ele>
        <time>2026-06-23T17:55:33Z</time>
      </trkpt>
      <trkpt lat="50.118791973218322" lon="-5.677926018834114">
        <ele>147.22</ele>
        <time>2026-06-23T17:55:34Z</time>
      </trkpt>
      <trkpt lat="50.118914013728499" lon="-5.676880041137338">
        <ele>152.99000000000001</ele>
        <time>2026-06-23T17:55:40Z</time>
      </trkpt>
      <trkpt lat="50.118962964043021" lon="-5.676726987585425">
        <ele>153.47</ele>
        <time>2026-06-23T17:55:41Z</time>
      </trkpt>
      <trkpt lat="50.119014009833336" lon="-5.676566977053881">
        <ele>153.94999999999999</ele>
        <time>2026-06-23T17:55:42Z</time>
      </trkpt>
      <trkpt lat="50.119078969582915" lon="-5.676419958472252">
        <ele>153.94999999999999</ele>
        <time>2026-06-23T17:55:43Z</time>
      </trkpt>
      <trkpt lat="50.119151975959539" lon="-5.676274029538035">
        <ele>154.43000000000001</ele>
        <time>2026-06-23T17:55:44Z</time>
      </trkpt>
      <trkpt lat="50.119221964851022" lon="-5.676133967936039">
        <ele>154.43000000000001</ele>
        <time>2026-06-23T17:55:45Z</time>
      </trkpt>
      <trkpt lat="50.119317015632987" lon="-5.676030032336712">
        <ele>154.43000000000001</ele>
        <time>2026-06-23T17:55:46Z</time>
      </trkpt>
      <trkpt lat="50.120467012748122" lon="-5.674996040761471">
        <ele>154.43000000000001</ele>
        <time>2026-06-23T17:55:57Z</time>
      </trkpt>
      <trkpt lat="50.12078502215445" lon="-5.674678031355143">
        <ele>152.50999999999999</ele>
        <time>2026-06-23T17:56:03Z</time>
      </trkpt>
      <trkpt lat="50.120819974690676" lon="-5.674642994999886">
        <ele>152.03</ele>
        <time>2026-06-23T17:56:05Z</time>
      </trkpt>
      <trkpt lat="50.120895998552442" lon="-5.67465003579855">
        <ele>151.53999999999999</ele>
        <time>2026-06-23T17:56:11Z</time>
      </trkpt>
      <trkpt lat="50.120918964967132" lon="-5.674718013033271">
        <ele>151.53999999999999</ele>
        <time>2026-06-23T17:56:12Z</time>
      </trkpt>
      <trkpt lat="50.120955007150769" lon="-5.674820020794869">
        <ele>151.06</ele>
        <time>2026-06-23T17:56:13Z</time>
      </trkpt>
      <trkpt lat="50.121134966611862" lon="-5.675332993268967">
        <ele>149.62</ele>
        <time>2026-06-23T17:56:17Z</time>
      </trkpt>
      <trkpt lat="50.121177965775132" lon="-5.675456039607525">
        <ele>149.62</ele>
        <time>2026-06-23T17:56:18Z</time>
      </trkpt>
      <trkpt lat="50.121569987386465" lon="-5.676511991769075">
        <ele>146.25999999999999</ele>
        <time>2026-06-23T17:56:28Z</time>
      </trkpt>
      <trkpt lat="50.121867964044213" lon="-5.677942028269172">
        <ele>145.30000000000001</ele>
        <time>2026-06-23T17:56:39Z</time>
      </trkpt>
      <trkpt lat="50.122060999274254" lon="-5.67899202927947">
        <ele>141.44999999999999</ele>
        <time>2026-06-23T17:56:48Z</time>
      </trkpt>
      <trkpt lat="50.122111039236188" lon="-5.679075010120869">
        <ele>140.97</ele>
        <time>2026-06-23T17:56:49Z</time>
      </trkpt>
      <trkpt lat="50.12216099537909" lon="-5.679158996790648">
        <ele>140.49000000000001</ele>
        <time>2026-06-23T17:56:50Z</time>
      </trkpt>
      <trkpt lat="50.122222015634179" lon="-5.679219011217356">
        <ele>140.49000000000001</ele>
        <time>2026-06-23T17:56:51Z</time>
      </trkpt>
      <trkpt lat="50.122284041717649" lon="-5.679281959310174">
        <ele>139.53</ele>
        <time>2026-06-23T17:56:52Z</time>
      </trkpt>
      <trkpt lat="50.122671034187078" lon="-5.679509025067091">
        <ele>135.19999999999999</ele>
        <time>2026-06-23T17:56:58Z</time>
      </trkpt>
      <trkpt lat="50.122910002246499" lon="-5.679635005071759">
        <ele>132.80000000000001</ele>
        <time>2026-06-23T17:57:02Z</time>
      </trkpt>
      <trkpt lat="50.122972028329968" lon="-5.679649002850056">
        <ele>132.31999999999999</ele>
        <time>2026-06-23T17:57:03Z</time>
      </trkpt>
      <trkpt lat="50.123492041602731" lon="-5.679759979248047">
        <ele>132.31999999999999</ele>
        <time>2026-06-23T17:57:10Z</time>
      </trkpt>
      <trkpt lat="50.123565969988704" lon="-5.679753022268415">
        <ele>131.84</ele>
        <time>2026-06-23T17:57:11Z</time>
      </trkpt>
      <trkpt lat="50.124150021001697" lon="-5.679699964821339">
        <ele>131.84</ele>
        <time>2026-06-23T17:57:20Z</time>
      </trkpt>
      <trkpt lat="50.124199977144599" lon="-5.679696025326848">
        <ele>131.84</ele>
        <time>2026-06-23T17:57:21Z</time>
      </trkpt>
      <trkpt lat="50.124465012922883" lon="-5.679940022528172">
        <ele>133.28</ele>
        <time>2026-06-23T17:57:28Z</time>
      </trkpt>
      <trkpt lat="50.124568026512861" lon="-5.680081006139517">
        <ele>134.24000000000001</ele>
        <time>2026-06-23T17:57:30Z</time>
      </trkpt>
      <trkpt lat="50.124777993187308" lon="-5.6803909689188">
        <ele>134.72</ele>
        <time>2026-06-23T17:57:34Z</time>
      </trkpt>
      <trkpt lat="50.124845970422029" lon="-5.680457018315792">
        <ele>134.72</ele>
        <time>2026-06-23T17:57:35Z</time>
      </trkpt>
      <trkpt lat="50.125487018376589" lon="-5.680896984413266">
        <ele>131.84</ele>
        <time>2026-06-23T17:57:44Z</time>
      </trkpt>
      <trkpt lat="50.126181039959192" lon="-5.681378021836281">
        <ele>126.06999999999999</ele>
        <time>2026-06-23T17:57:53Z</time>
      </trkpt>
      <trkpt lat="50.126268966123462" lon="-5.681404005736113">
        <ele>125.11</ele>
        <time>2026-06-23T17:57:54Z</time>
      </trkpt>
      <trkpt lat="50.126359993591905" lon="-5.681432001292706">
        <ele>124.63</ele>
        <time>2026-06-23T17:57:55Z</time>
      </trkpt>
      <trkpt lat="50.126454038545489" lon="-5.681421020999551">
        <ele>123.67</ele>
        <time>2026-06-23T17:57:56Z</time>
      </trkpt>
      <trkpt lat="50.126557974144816" lon="-5.681404005736113">
        <ele>123.19</ele>
        <time>2026-06-23T17:57:57Z</time>
      </trkpt>
      <trkpt lat="50.12774501927197" lon="-5.681092031300068">
        <ele>111.65000000000001</ele>
        <time>2026-06-23T17:58:08Z</time>
      </trkpt>
      <trkpt lat="50.127825988456607" lon="-5.681030005216599">
        <ele>110.20999999999999</ele>
        <time>2026-06-23T17:58:09Z</time>
      </trkpt>
      <trkpt lat="50.127892037853599" lon="-5.680910982191563">
        <ele>108.77</ele>
        <time>2026-06-23T17:58:10Z</time>
      </trkpt>
      <trkpt lat="50.127955991774797" lon="-5.680794976651669">
        <ele>107.31999999999999</ele>
        <time>2026-06-23T17:58:11Z</time>
      </trkpt>
      <trkpt lat="50.128018017858267" lon="-5.680680982768536">
        <ele>106.36</ele>
        <time>2026-06-23T17:58:12Z</time>
      </trkpt>
      <trkpt lat="50.128093035891652" lon="-5.680588027462363">
        <ele>104.92</ele>
        <time>2026-06-23T17:58:13Z</time>
      </trkpt>
      <trkpt lat="50.128177022561431" lon="-5.680504040792584">
        <ele>103</ele>
        <time>2026-06-23T17:58:14Z</time>
      </trkpt>
      <trkpt lat="50.128272995352745" lon="-5.680472021922469">
        <ele>101.08</ele>
        <time>2026-06-23T17:58:15Z</time>
      </trkpt>
      <trkpt lat="50.128367962315679" lon="-5.680451989173889">
        <ele>99.150000000000006</ele>
        <time>2026-06-23T17:58:16Z</time>
      </trkpt>
      <trkpt lat="50.128457983955741" lon="-5.68043296225369">
        <ele>97.230000000000004</ele>
        <time>2026-06-23T17:58:17Z</time>
      </trkpt>
      <trkpt lat="50.128641966730356" lon="-5.680424999445677">
        <ele>94.349999999999994</ele>
        <time>2026-06-23T17:58:19Z</time>
      </trkpt>
      <trkpt lat="50.128736011683941" lon="-5.68043396808207">
        <ele>93.390000000000001</ele>
        <time>2026-06-23T17:58:20Z</time>
      </trkpt>
      <trkpt lat="50.128801977261901" lon="-5.680500017479062">
        <ele>92.900000000000006</ele>
        <time>2026-06-23T17:58:21Z</time>
      </trkpt>
      <trkpt lat="50.128866015002131" lon="-5.680563971400261">
        <ele>92.900000000000006</ele>
        <time>2026-06-23T17:58:22Z</time>
      </trkpt>
      <trkpt lat="50.128930974751711" lon="-5.680658016353846">
        <ele>92.900000000000006</ele>
        <time>2026-06-23T17:58:23Z</time>
      </trkpt>
      <trkpt lat="50.128995012491941" lon="-5.680779973044992">
        <ele>92.900000000000006</ele>
        <time>2026-06-23T17:58:24Z</time>
      </trkpt>
      <trkpt lat="50.129603035748005" lon="-5.681942962110043">
        <ele>98.670000000000002</ele>
        <time>2026-06-23T17:58:31Z</time>
      </trkpt>
      <trkpt lat="50.129716023802757" lon="-5.682075982913375">
        <ele>100.11</ele>
        <time>2026-06-23T17:58:32Z</time>
      </trkpt>
      <trkpt lat="50.129846027120948" lon="-5.682201040908694">
        <ele>101.56</ele>
        <time>2026-06-23T17:58:33Z</time>
      </trkpt>
      <trkpt lat="50.130915977060795" lon="-5.683070998638868">
        <ele>111.17</ele>
        <time>2026-06-23T17:58:41Z</time>
      </trkpt>
      <trkpt lat="50.132593028247356" lon="-5.684026032686234">
        <ele>115.01000000000001</ele>
        <time>2026-06-23T17:58:52Z</time>
      </trkpt>
      <trkpt lat="50.133104994893074" lon="-5.684258965775371">
        <ele>117.42</ele>
        <time>2026-06-23T17:58:56Z</time>
      </trkpt>
      <trkpt lat="50.133226029574871" lon="-5.684285033494234">
        <ele>117.42</ele>
        <time>2026-06-23T17:58:57Z</time>
      </trkpt>
      <trkpt lat="50.133343040943146" lon="-5.68427799269557">
        <ele>117.90000000000001</ele>
        <time>2026-06-23T17:58:58Z</time>
      </trkpt>
      <trkpt lat="50.133766997605562" lon="-5.684228036552668">
        <ele>117.42</ele>
        <time>2026-06-23T17:59:02Z</time>
      </trkpt>
      <trkpt lat="50.13386900536716" lon="-5.684213032945991">
        <ele>116.94</ele>
        <time>2026-06-23T17:59:03Z</time>
      </trkpt>
      <trkpt lat="50.134199000895023" lon="-5.684158969670534">
        <ele>116.45999999999999</ele>
        <time>2026-06-23T17:59:06Z</time>
      </trkpt>
      <trkpt lat="50.135456034913659" lon="-5.683798966929317">
        <ele>113.09</ele>
        <time>2026-06-23T17:59:17Z</time>
      </trkpt>
      <trkpt lat="50.135925002396107" lon="-5.683661000803113">
        <ele>113.56999999999999</ele>
        <time>2026-06-23T17:59:21Z</time>
      </trkpt>
      <trkpt lat="50.13603899627924" lon="-5.683604003861547">
        <ele>114.05</ele>
        <time>2026-06-23T17:59:22Z</time>
      </trkpt>
      <trkpt lat="50.13614896684885" lon="-5.683533009141684">
        <ele>114.05</ele>
        <time>2026-06-23T17:59:23Z</time>
      </trkpt>
      <trkpt lat="50.137571040540934" lon="-5.68236499093473">
        <ele>117.42</ele>
        <time>2026-06-23T17:59:36Z</time>
      </trkpt>
      <trkpt lat="50.137652009725571" lon="-5.682229036465287">
        <ele>117.90000000000001</ele>
        <time>2026-06-23T17:59:37Z</time>
      </trkpt>
      <trkpt lat="50.137732978910208" lon="-5.682090986520052">
        <ele>118.38</ele>
        <time>2026-06-23T17:59:38Z</time>
      </trkpt>
      <trkpt lat="50.137810008600354" lon="-5.681947991251946">
        <ele>118.86</ele>
        <time>2026-06-23T17:59:39Z</time>
      </trkpt>
      <trkpt lat="50.137857031077147" lon="-5.681769959628582">
        <ele>119.34</ele>
        <time>2026-06-23T17:59:40Z</time>
      </trkpt>
      <trkpt lat="50.137904975563288" lon="-5.681586982682347">
        <ele>119.81999999999999</ele>
        <time>2026-06-23T17:59:41Z</time>
      </trkpt>
      <trkpt lat="50.137944035232067" lon="-5.681401994079351">
        <ele>119.81999999999999</ele>
        <time>2026-06-23T17:59:42Z</time>
      </trkpt>
      <trkpt lat="50.137980999425054" lon="-5.681214993819594">
        <ele>120.3</ele>
        <time>2026-06-23T17:59:43Z</time>
      </trkpt>
      <trkpt lat="50.138018969446421" lon="-5.681025981903076">
        <ele>120.78</ele>
        <time>2026-06-23T17:59:44Z</time>
      </trkpt>
      <trkpt lat="50.138022992759943" lon="-5.680834958329797">
        <ele>120.78</ele>
        <time>2026-06-23T17:59:45Z</time>
      </trkpt>
      <trkpt lat="50.137924002483487" lon="-5.679047014564276">
        <ele>125.59</ele>
        <time>2026-06-23T17:59:54Z</time>
      </trkpt>
      <trkpt lat="50.137361995875835" lon="-5.676848022267222">
        <ele>134.24000000000001</ele>
        <time>2026-06-23T18:00:06Z</time>
      </trkpt>
      <trkpt lat="50.137361995875835" lon="-5.676703015342355">
        <ele>135.19999999999999</ele>
        <time>2026-06-23T18:00:07Z</time>
      </trkpt>
      <trkpt lat="50.13737197034061" lon="-5.676580974832177">
        <ele>135.68000000000001</ele>
        <time>2026-06-23T18:00:08Z</time>
      </trkpt>
      <trkpt lat="50.137404995039105" lon="-5.676506962627173">
        <ele>136.63999999999999</ele>
        <time>2026-06-23T18:00:09Z</time>
      </trkpt>
      <trkpt lat="50.137473978102207" lon="-5.676430016756058">
        <ele>137.61000000000001</ele>
        <time>2026-06-23T18:00:10Z</time>
      </trkpt>
      <trkpt lat="50.137559976428747" lon="-5.676343012601137">
        <ele>138.09</ele>
        <time>2026-06-23T18:00:11Z</time>
      </trkpt>
      <trkpt lat="50.137670030817389" lon="-5.676298001781106">
        <ele>138.56999999999999</ele>
        <time>2026-06-23T18:00:12Z</time>
      </trkpt>
      <trkpt lat="50.138264978304505" lon="-5.67611200734973">
        <ele>140.00999999999999</ele>
        <time>2026-06-23T18:00:17Z</time>
      </trkpt>
      <trkpt lat="50.138490032404661" lon="-5.676058027893305">
        <ele>140.00999999999999</ele>
        <time>2026-06-23T18:00:19Z</time>
      </trkpt>
      <trkpt lat="50.138620035722852" lon="-5.67602600902319">
        <ele>140.00999999999999</ele>
        <time>2026-06-23T18:00:20Z</time>
      </trkpt>
      <trkpt lat="50.138721037656069" lon="-5.676060961559415">
        <ele>140.49000000000001</ele>
        <time>2026-06-23T18:00:21Z</time>
      </trkpt>
      <trkpt lat="50.139397960156202" lon="-5.67628400400281">
        <ele>139.05000000000001</ele>
        <time>2026-06-23T18:00:27Z</time>
      </trkpt>
      <trkpt lat="50.139498962089419" lon="-5.67628400400281">
        <ele>139.05000000000001</ele>
        <time>2026-06-23T18:00:28Z</time>
      </trkpt>
      <trkpt lat="50.139607004821301" lon="-5.67628400400281">
        <ele>139.05000000000001</ele>
        <time>2026-06-23T18:00:29Z</time>
      </trkpt>
      <trkpt lat="50.139699038118124" lon="-5.676202028989792">
        <ele>138.56999999999999</ele>
        <time>2026-06-23T18:00:30Z</time>
      </trkpt>
      <trkpt lat="50.139802973717451" lon="-5.676109995692968">
        <ele>138.09</ele>
        <time>2026-06-23T18:00:31Z</time>
      </trkpt>
      <trkpt lat="50.139910010620952" lon="-5.676015028730035">
        <ele>137.61000000000001</ele>
        <time>2026-06-23T18:00:32Z</time>
      </trkpt>
      <trkpt lat="50.14001403003931" lon="-5.675921989604831">
        <ele>137.61000000000001</ele>
        <time>2026-06-23T18:00:33Z</time>
      </trkpt>
      <trkpt lat="50.140114026144147" lon="-5.675832973793149">
        <ele>137.61000000000001</ele>
        <time>2026-06-23T18:00:34Z</time>
      </trkpt>
      <trkpt lat="50.140211004763842" lon="-5.675755022093654">
        <ele>137.13</ele>
        <time>2026-06-23T18:00:35Z</time>
      </trkpt>
      <trkpt lat="50.140307983383536" lon="-5.675700958818197">
        <ele>137.13</ele>
        <time>2026-06-23T18:00:36Z</time>
      </trkpt>
      <trkpt lat="50.141467032954097" lon="-5.675456961616874">
        <ele>134.24000000000001</ele>
        <time>2026-06-23T18:00:47Z</time>
      </trkpt>
      <trkpt lat="50.141569040715694" lon="-5.675437012687326">
        <ele>134.24000000000001</ele>
        <time>2026-06-23T18:00:48Z</time>
      </trkpt>
      <trkpt lat="50.141649004071951" lon="-5.675379009917378">
        <ele>134.24000000000001</ele>
        <time>2026-06-23T18:00:49Z</time>
      </trkpt>
      <trkpt lat="50.141724022105336" lon="-5.675303991883993">
        <ele>134.72</ele>
        <time>2026-06-23T18:00:50Z</time>
      </trkpt>
      <trkpt lat="50.141786970198154" lon="-5.67521003074944">
        <ele>135.68000000000001</ele>
        <time>2026-06-23T18:00:51Z</time>
      </trkpt>
      <trkpt lat="50.141845978796482" lon="-5.675098970532417">
        <ele>136.16</ele>
        <time>2026-06-23T18:00:52Z</time>
      </trkpt>
      <trkpt lat="50.142073966562748" lon="-5.67467300221324">
        <ele>139.05000000000001</ele>
        <time>2026-06-23T18:00:56Z</time>
      </trkpt>
      <trkpt lat="50.142123000696301" lon="-5.674635032191873">
        <ele>139.53</ele>
        <time>2026-06-23T18:00:57Z</time>
      </trkpt>
      <trkpt lat="50.142170023173094" lon="-5.674640983343124">
        <ele>140.00999999999999</ele>
        <time>2026-06-23T18:00:58Z</time>
      </trkpt>
      <trkpt lat="50.14222702011466" lon="-5.674649029970169">
        <ele>140.97</ele>
        <time>2026-06-23T18:00:59Z</time>
      </trkpt>
      <trkpt lat="50.142282005399466" lon="-5.674655986949801">
        <ele>140.49000000000001</ele>
        <time>2026-06-23T18:01:00Z</time>
      </trkpt>
      <trkpt lat="50.142342019826174" lon="-5.674664033576846">
        <ele>140.00999999999999</ele>
        <time>2026-06-23T18:01:01Z</time>
      </trkpt>
      <trkpt lat="50.142417959868908" lon="-5.674675013870001">
        <ele>139.53</ele>
        <time>2026-06-23T18:01:02Z</time>
      </trkpt>
      <trkpt lat="50.142481997609138" lon="-5.67460997030139">
        <ele>139.53</ele>
        <time>2026-06-23T18:01:03Z</time>
      </trkpt>
      <trkpt lat="50.142556009814143" lon="-5.674535958096385">
        <ele>140.00999999999999</ele>
        <time>2026-06-23T18:01:04Z</time>
      </trkpt>
      <trkpt lat="50.142629016190767" lon="-5.674464041367173">
        <ele>141.44999999999999</ele>
        <time>2026-06-23T18:01:05Z</time>
      </trkpt>
      <trkpt lat="50.142693975940347" lon="-5.674397991970182">
        <ele>142.41</ele>
        <time>2026-06-23T18:01:06Z</time>
      </trkpt>
      <trkpt lat="50.142815010622144" lon="-5.674314005300403">
        <ele>144.81999999999999</ele>
        <time>2026-06-23T18:01:08Z</time>
      </trkpt>
      <trkpt lat="50.142908971756697" lon="-5.674326997250319">
        <ele>145.78</ele>
        <time>2026-06-23T18:01:09Z</time>
      </trkpt>
      <trkpt lat="50.143898036330938" lon="-5.674460018053651">
        <ele>145.78</ele>
        <time>2026-06-23T18:01:18Z</time>
      </trkpt>
      <trkpt lat="50.144011024385691" lon="-5.674440991133452">
        <ele>145.78</ele>
        <time>2026-06-23T18:01:19Z</time>
      </trkpt>
      <trkpt lat="50.144102973863482" lon="-5.674363039433956">
        <ele>145.78</ele>
        <time>2026-06-23T18:01:20Z</time>
      </trkpt>
      <trkpt lat="50.144480997696519" lon="-5.674064978957176">
        <ele>145.30000000000001</ele>
        <time>2026-06-23T18:01:24Z</time>
      </trkpt>
      <trkpt lat="50.144572025164962" lon="-5.674016028642654">
        <ele>145.30000000000001</ele>
        <time>2026-06-23T18:01:25Z</time>
      </trkpt>
      <trkpt lat="50.145183987915516" lon="-5.673805978149176">
        <ele>146.25999999999999</ele>
        <time>2026-06-23T18:01:33Z</time>
      </trkpt>
      <trkpt lat="50.146001977846026" lon="-5.673373974859715">
        <ele>142.88999999999999</ele>
        <time>2026-06-23T18:01:43Z</time>
      </trkpt>
      <trkpt lat="50.146090993657708" lon="-5.673290994018316">
        <ele>142.41</ele>
        <time>2026-06-23T18:01:47Z</time>
      </trkpt>
      <trkpt lat="50.146117983385921" lon="-5.673265010118485">
        <ele>142.41</ele>
        <time>2026-06-23T18:01:48Z</time>
      </trkpt>
      <trkpt lat="50.146157965064049" lon="-5.673227962106466">
        <ele>142.41</ele>
        <time>2026-06-23T18:01:49Z</time>
      </trkpt>
      <trkpt lat="50.146215967833996" lon="-5.673177000135183">
        <ele>141.93000000000001</ele>
        <time>2026-06-23T18:01:50Z</time>
      </trkpt>
      <trkpt lat="50.146281011402607" lon="-5.6731260381639">
        <ele>141.93000000000001</ele>
        <time>2026-06-23T18:01:51Z</time>
      </trkpt>
      <trkpt lat="50.147050973027945" lon="-5.672562019899488">
        <ele>138.09</ele>
        <time>2026-06-23T18:02:00Z</time>
      </trkpt>
      <trkpt lat="50.147968959063292" lon="-5.671703964471817">
        <ele>138.09</ele>
        <time>2026-06-23T18:02:10Z</time>
      </trkpt>
      <trkpt lat="50.148740010336041" lon="-5.670924028381705">
        <ele>136.63999999999999</ele>
        <time>2026-06-23T18:02:18Z</time>
      </trkpt>
      <trkpt lat="50.149461021646857" lon="-5.669727008789778">
        <ele>133.75999999999999</ele>
        <time>2026-06-23T18:02:28Z</time>
      </trkpt>
      <trkpt lat="50.150195024907589" lon="-5.668511968106031">
        <ele>132.80000000000001</ele>
        <time>2026-06-23T18:02:40Z</time>
      </trkpt>
      <trkpt lat="50.150599032640457" lon="-5.667708981782198">
        <ele>133.28</ele>
        <time>2026-06-23T18:02:47Z</time>
      </trkpt>
      <trkpt lat="50.151107981801033" lon="-5.66650902852416">
        <ele>134.24000000000001</ele>
        <time>2026-06-23T18:02:58Z</time>
      </trkpt>
      <trkpt lat="50.151577033102512" lon="-5.665119979530573">
        <ele>135.68000000000001</ele>
        <time>2026-06-23T18:03:09Z</time>
      </trkpt>
      <trkpt lat="50.151609973981977" lon="-5.664985030889511">
        <ele>135.68000000000001</ele>
        <time>2026-06-23T18:03:10Z</time>
      </trkpt>
      <trkpt lat="50.151905016973615" lon="-5.663376962766051">
        <ele>138.09</ele>
        <time>2026-06-23T18:03:22Z</time>
      </trkpt>
      <trkpt lat="50.151944998651743" lon="-5.663106981664896">
        <ele>138.56999999999999</ele>
        <time>2026-06-23T18:03:24Z</time>
      </trkpt>
      <trkpt lat="50.151961008086801" lon="-5.662971027195454">
        <ele>139.05000000000001</ele>
        <time>2026-06-23T18:03:25Z</time>
      </trkpt>
      <trkpt lat="50.152139961719513" lon="-5.661193979904056">
        <ele>142.41</ele>
        <time>2026-06-23T18:03:38Z</time>
      </trkpt>
      <trkpt lat="50.152201987802982" lon="-5.659663025289774">
        <ele>143.84999999999999</ele>
        <time>2026-06-23T18:03:49Z</time>
      </trkpt>
      <trkpt lat="50.152276000007987" lon="-5.659100012853742">
        <ele>143.84999999999999</ele>
        <time>2026-06-23T18:03:53Z</time>
      </trkpt>
      <trkpt lat="50.152311958372593" lon="-5.658962968736887">
        <ele>143.84999999999999</ele>
        <time>2026-06-23T18:03:54Z</time>
      </trkpt>
      <trkpt lat="50.152365015819669" lon="-5.658840006217361">
        <ele>143.37</ele>
        <time>2026-06-23T18:03:55Z</time>
      </trkpt>
      <trkpt lat="50.152973961085081" lon="-5.657324977219105">
        <ele>143.37</ele>
        <time>2026-06-23T18:04:07Z</time>
      </trkpt>
      <trkpt lat="50.153649039566517" lon="-5.655479030683637">
        <ele>139.53</ele>
        <time>2026-06-23T18:04:20Z</time>
      </trkpt>
      <trkpt lat="50.15372003428638" lon="-5.655360007658601">
        <ele>139.05000000000001</ele>
        <time>2026-06-23T18:04:21Z</time>
      </trkpt>
      <trkpt lat="50.153891025111079" lon="-5.655158003792167">
        <ele>137.13</ele>
        <time>2026-06-23T18:04:23Z</time>
      </trkpt>
      <trkpt lat="50.154212974011898" lon="-5.654904032126069">
        <ele>133.28</ele>
        <time>2026-06-23T18:04:26Z</time>
      </trkpt>
      <trkpt lat="50.154673978686333" lon="-5.654605971649289">
        <ele>129.43000000000001</ele>
        <time>2026-06-23T18:04:30Z</time>
      </trkpt>
      <trkpt lat="50.154776992276311" lon="-5.654506981372833">
        <ele>129.43000000000001</ele>
        <time>2026-06-23T18:04:31Z</time>
      </trkpt>
      <trkpt lat="50.154867013916373" lon="-5.654376978054643">
        <ele>129.43000000000001</ele>
        <time>2026-06-23T18:04:32Z</time>
      </trkpt>
      <trkpt lat="50.154937002807856" lon="-5.654237000271678">
        <ele>128.94999999999999</ele>
        <time>2026-06-23T18:04:33Z</time>
      </trkpt>
      <trkpt lat="50.15496801584959" lon="-5.654065003618598">
        <ele>128.94999999999999</ele>
        <time>2026-06-23T18:04:34Z</time>
      </trkpt>
      <trkpt lat="50.155000034719706" lon="-5.653890995308757">
        <ele>129.43000000000001</ele>
        <time>2026-06-23T18:04:35Z</time>
      </trkpt>
      <trkpt lat="50.155029958114028" lon="-5.65372402779758">
        <ele>129.91999999999999</ele>
        <time>2026-06-23T18:04:36Z</time>
      </trkpt>
      <trkpt lat="50.155081003904343" lon="-5.653266962617636">
        <ele>131.36000000000001</ele>
        <time>2026-06-23T18:04:39Z</time>
      </trkpt>
      <trkpt lat="50.155258029699326" lon="-5.651759980246425">
        <ele>133.75999999999999</ele>
        <time>2026-06-23T18:04:49Z</time>
      </trkpt>
      <trkpt lat="50.155286025255919" lon="-5.651624025776982">
        <ele>133.75999999999999</ele>
        <time>2026-06-23T18:04:50Z</time>
      </trkpt>
      <trkpt lat="50.155315026640892" lon="-5.651488993316889">
        <ele>133.75999999999999</ele>
        <time>2026-06-23T18:04:51Z</time>
      </trkpt>
      <trkpt lat="50.155344028025866" lon="-5.651350021362305">
        <ele>133.75999999999999</ele>
        <time>2026-06-23T18:04:52Z</time>
      </trkpt>
      <trkpt lat="50.15537403523922" lon="-5.651209037750959">
        <ele>133.28</ele>
        <time>2026-06-23T18:04:53Z</time>
      </trkpt>
      <trkpt lat="50.155403036624193" lon="-5.651068976148963">
        <ele>133.28</ele>
        <time>2026-06-23T18:04:54Z</time>
      </trkpt>
      <trkpt lat="50.155429020524025" lon="-5.650931010022759">
        <ele>133.75999999999999</ele>
        <time>2026-06-23T18:04:55Z</time>
      </trkpt>
      <trkpt lat="50.155448969453573" lon="-5.650784997269511">
        <ele>133.75999999999999</ele>
        <time>2026-06-23T18:04:56Z</time>
      </trkpt>
      <trkpt lat="50.15550697222352" lon="-5.648813992738724">
        <ele>137.61000000000001</ele>
        <time>2026-06-23T18:05:08Z</time>
      </trkpt>
      <trkpt lat="50.15550697222352" lon="-5.646526990458369">
        <ele>140.00999999999999</ele>
        <time>2026-06-23T18:05:19Z</time>
      </trkpt>
      <trkpt lat="50.155517030507326" lon="-5.646114014089108">
        <ele>139.53</ele>
        <time>2026-06-23T18:05:21Z</time>
      </trkpt>
      <trkpt lat="50.155556006357074" lon="-5.645960960537195">
        <ele>139.53</ele>
        <time>2026-06-23T18:05:22Z</time>
      </trkpt>
      <trkpt lat="50.155617026612163" lon="-5.645842021331191">
        <ele>139.05000000000001</ele>
        <time>2026-06-23T18:05:23Z</time>
      </trkpt>
      <trkpt lat="50.155700007453561" lon="-5.645771026611328">
        <ele>138.56999999999999</ele>
        <time>2026-06-23T18:05:24Z</time>
      </trkpt>
      <trkpt lat="50.155793968588114" lon="-5.645724004134536">
        <ele>138.09</ele>
        <time>2026-06-23T18:05:25Z</time>
      </trkpt>
      <trkpt lat="50.155901005491614" lon="-5.645671030506492">
        <ele>137.61000000000001</ele>
        <time>2026-06-23T18:05:26Z</time>
      </trkpt>
      <trkpt lat="50.156014999374747" lon="-5.645613027736545">
        <ele>137.13</ele>
        <time>2026-06-23T18:05:27Z</time>
      </trkpt>
      <trkpt lat="50.156126981601119" lon="-5.645557036623359">
        <ele>136.63999999999999</ele>
        <time>2026-06-23T18:05:28Z</time>
      </trkpt>
      <trkpt lat="50.156238041818142" lon="-5.645501967519522">
        <ele>136.16</ele>
        <time>2026-06-23T18:05:29Z</time>
      </trkpt>
      <trkpt lat="50.156355975195765" lon="-5.645456034690142">
        <ele>135.19999999999999</ele>
        <time>2026-06-23T18:05:30Z</time>
      </trkpt>
      <trkpt lat="50.156479021534324" lon="-5.645423009991646">
        <ele>134.72</ele>
        <time>2026-06-23T18:05:31Z</time>
      </trkpt>
      <trkpt lat="50.15660198405385" lon="-5.64538998529315">
        <ele>133.75999999999999</ele>
        <time>2026-06-23T18:05:32Z</time>
      </trkpt>
      <trkpt lat="50.156721007078886" lon="-5.645357966423035">
        <ele>132.80000000000001</ele>
        <time>2026-06-23T18:05:33Z</time>
      </trkpt>
      <trkpt lat="50.15685897320509" lon="-5.645319996401668">
        <ele>131.36000000000001</ele>
        <time>2026-06-23T18:05:34Z</time>
      </trkpt>
      <trkpt lat="50.15692301094532" lon="-5.645241960883141">
        <ele>130.40000000000001</ele>
        <time>2026-06-23T18:05:35Z</time>
      </trkpt>
      <trkpt lat="50.157732032239437" lon="-5.644253985956311">
        <ele>124.63</ele>
        <time>2026-06-23T18:05:42Z</time>
      </trkpt>
      <trkpt lat="50.159177994355559" lon="-5.64300399273634">
        <ele>119.81999999999999</ele>
        <time>2026-06-23T18:05:52Z</time>
      </trkpt>
      <trkpt lat="50.159584013745189" lon="-5.64274599775672">
        <ele>119.81999999999999</ele>
        <time>2026-06-23T18:05:55Z</time>
      </trkpt>
      <trkpt lat="50.159701025113463" lon="-5.642595961689949">
        <ele>120.3</ele>
        <time>2026-06-23T18:05:56Z</time>
      </trkpt>
      <trkpt lat="50.159819964319468" lon="-5.64244500361383">
        <ele>120.78</ele>
        <time>2026-06-23T18:05:57Z</time>
      </trkpt>
      <trkpt lat="50.16051197424531" lon="-5.641213031485677">
        <ele>128.47</ele>
        <time>2026-06-23T18:06:05Z</time>
      </trkpt>
      <trkpt lat="50.160621022805572" lon="-5.641099959611893">
        <ele>129.91999999999999</ele>
        <time>2026-06-23T18:06:06Z</time>
      </trkpt>
      <trkpt lat="50.160844987258315" lon="-5.640868032351136">
        <ele>130.88</ele>
        <time>2026-06-23T18:06:08Z</time>
      </trkpt>
      <trkpt lat="50.160956969484687" lon="-5.640752026811242">
        <ele>130.88</ele>
        <time>2026-06-23T18:06:09Z</time>
      </trkpt>
      <trkpt lat="50.161051014438272" lon="-5.640597967430949">
        <ele>131.36000000000001</ele>
        <time>2026-06-23T18:06:10Z</time>
      </trkpt>
      <trkpt lat="50.161207001656294" lon="-5.640263026580215">
        <ele>131.36000000000001</ele>
        <time>2026-06-23T18:06:12Z</time>
      </trkpt>
      <trkpt lat="50.161276990547776" lon="-5.640112990513444">
        <ele>130.88</ele>
        <time>2026-06-23T18:06:13Z</time>
      </trkpt>
      <trkpt lat="50.161317978054285" lon="-5.639941999688745">
        <ele>130.40000000000001</ele>
        <time>2026-06-23T18:06:14Z</time>
      </trkpt>
      <trkpt lat="50.161343961954117" lon="-5.639771008864045">
        <ele>129.91999999999999</ele>
        <time>2026-06-23T18:06:15Z</time>
      </trkpt>
      <trkpt lat="50.161365000531077" lon="-5.63958995975554">
        <ele>129.43000000000001</ele>
        <time>2026-06-23T18:06:16Z</time>
      </trkpt>
      <trkpt lat="50.161365000531077" lon="-5.639410000294447">
        <ele>129.43000000000001</ele>
        <time>2026-06-23T18:06:17Z</time>
      </trkpt>
      <trkpt lat="50.161365000531077" lon="-5.639232974499464">
        <ele>129.43000000000001</ele>
        <time>2026-06-23T18:06:18Z</time>
      </trkpt>
      <trkpt lat="50.161357037723064" lon="-5.639058966189623">
        <ele>129.43000000000001</ele>
        <time>2026-06-23T18:06:19Z</time>
      </trkpt>
      <trkpt lat="50.161337004974484" lon="-5.638891998678446">
        <ele>129.91999999999999</ele>
        <time>2026-06-23T18:06:20Z</time>
      </trkpt>
      <trkpt lat="50.161316972225904" lon="-5.638717990368605">
        <ele>129.91999999999999</ele>
        <time>2026-06-23T18:06:21Z</time>
      </trkpt>
      <trkpt lat="50.161285037174821" lon="-5.638536019250751">
        <ele>129.91999999999999</ele>
        <time>2026-06-23T18:06:22Z</time>
      </trkpt>
      <trkpt lat="50.161231979727745" lon="-5.638368967920542">
        <ele>129.91999999999999</ele>
        <time>2026-06-23T18:06:23Z</time>
      </trkpt>
      <trkpt lat="50.161175988614559" lon="-5.638194959610701">
        <ele>129.91999999999999</ele>
        <time>2026-06-23T18:06:24Z</time>
      </trkpt>
      <trkpt lat="50.16102897003293" lon="-5.637863958254457">
        <ele>129.91999999999999</ele>
        <time>2026-06-23T18:06:26Z</time>
      </trkpt>
      <trkpt lat="50.160936014726758" lon="-5.637724986299872">
        <ele>129.91999999999999</ele>
        <time>2026-06-23T18:06:27Z</time>
      </trkpt>
      <trkpt lat="50.160777010023594" lon="-5.637453999370337">
        <ele>130.40000000000001</ele>
        <time>2026-06-23T18:06:29Z</time>
      </trkpt>
      <trkpt lat="50.160723030567169" lon="-5.637313015758991">
        <ele>130.40000000000001</ele>
        <time>2026-06-23T18:06:30Z</time>
      </trkpt>
      <trkpt lat="50.160698974505067" lon="-5.637190975248814">
        <ele>130.88</ele>
        <time>2026-06-23T18:06:31Z</time>
      </trkpt>
      <trkpt lat="50.160698974505067" lon="-5.637066001072526">
        <ele>131.36000000000001</ele>
        <time>2026-06-23T18:06:32Z</time>
      </trkpt>
      <trkpt lat="50.160698974505067" lon="-5.636909008026123">
        <ele>131.84</ele>
        <time>2026-06-23T18:06:33Z</time>
      </trkpt>
      <trkpt lat="50.160712972283363" lon="-5.636809011921287">
        <ele>131.84</ele>
        <time>2026-06-23T18:06:34Z</time>
      </trkpt>
      <trkpt lat="50.160778015851974" lon="-5.636314982548356">
        <ele>133.28</ele>
        <time>2026-06-23T18:06:37Z</time>
      </trkpt>
      <trkpt lat="50.160799976438284" lon="-5.636147009208798">
        <ele>133.28</ele>
        <time>2026-06-23T18:06:38Z</time>
      </trkpt>
      <trkpt lat="50.160807017236948" lon="-5.635992027819157">
        <ele>133.75999999999999</ele>
        <time>2026-06-23T18:06:39Z</time>
      </trkpt>
      <trkpt lat="50.160807017236948" lon="-5.635690027847886">
        <ele>134.24000000000001</ele>
        <time>2026-06-23T18:06:41Z</time>
      </trkpt>
      <trkpt lat="50.160807017236948" lon="-5.635535968467593">
        <ele>134.72</ele>
        <time>2026-06-23T18:06:42Z</time>
      </trkpt>
      <trkpt lat="50.16083400696516" lon="-5.635392973199487">
        <ele>134.72</ele>
        <time>2026-06-23T18:06:43Z</time>
      </trkpt>
      <trkpt lat="50.160980019718409" lon="-5.634895004332066">
        <ele>135.19999999999999</ele>
        <time>2026-06-23T18:06:46Z</time>
      </trkpt>
      <trkpt lat="50.161044979467988" lon="-5.634718984365463">
        <ele>135.68000000000001</ele>
        <time>2026-06-23T18:06:47Z</time>
      </trkpt>
      <trkpt lat="50.161183029413223" lon="-5.634343978017569">
        <ele>135.68000000000001</ele>
        <time>2026-06-23T18:06:49Z</time>
      </trkpt>
      <trkpt lat="50.161750987172127" lon="-5.632316982373595">
        <ele>135.19999999999999</ele>
        <time>2026-06-23T18:06:58Z</time>
      </trkpt>
      <trkpt lat="50.1617799885571" lon="-5.632105004042387">
        <ele>135.19999999999999</ele>
        <time>2026-06-23T18:06:59Z</time>
      </trkpt>
      <trkpt lat="50.161807984113693" lon="-5.631904006004334">
        <ele>135.68000000000001</ele>
        <time>2026-06-23T18:07:00Z</time>
      </trkpt>
      <trkpt lat="50.161836985498667" lon="-5.631694961339235">
        <ele>135.68000000000001</ele>
        <time>2026-06-23T18:07:01Z</time>
      </trkpt>
      <trkpt lat="50.161932036280632" lon="-5.630402974784374">
        <ele>137.13</ele>
        <time>2026-06-23T18:07:08Z</time>
      </trkpt>
      <trkpt lat="50.161976041272283" lon="-5.630278000608087">
        <ele>137.13</ele>
        <time>2026-06-23T18:07:09Z</time>
      </trkpt>
      <trkpt lat="50.162019962444901" lon="-5.630150008946657">
        <ele>136.63999999999999</ele>
        <time>2026-06-23T18:07:10Z</time>
      </trkpt>
      <trkpt lat="50.162632009014487" lon="-5.629181982949376">
        <ele>130.40000000000001</ele>
        <time>2026-06-23T18:07:18Z</time>
      </trkpt>
      <trkpt lat="50.162709960713983" lon="-5.629085004329681">
        <ele>129.43000000000001</ele>
        <time>2026-06-23T18:07:19Z</time>
      </trkpt>
      <trkpt lat="50.162793025374413" lon="-5.629077041521668">
        <ele>128.94999999999999</ele>
        <time>2026-06-23T18:07:20Z</time>
      </trkpt>
      <trkpt lat="50.162887992337346" lon="-5.629077041521668">
        <ele>128.47</ele>
        <time>2026-06-23T18:07:21Z</time>
      </trkpt>
      <trkpt lat="50.162974996492267" lon="-5.629137977957726">
        <ele>127.51000000000001</ele>
        <time>2026-06-23T18:07:22Z</time>
      </trkpt>
      <trkpt lat="50.163082033395767" lon="-5.629214001819491">
        <ele>127.03</ele>
        <time>2026-06-23T18:07:23Z</time>
      </trkpt>
      <trkpt lat="50.163198038935661" lon="-5.629295976832509">
        <ele>126.55</ele>
        <time>2026-06-23T18:07:24Z</time>
      </trkpt>
      <trkpt lat="50.163314966484904" lon="-5.629350962117314">
        <ele>126.06999999999999</ele>
        <time>2026-06-23T18:07:25Z</time>
      </trkpt>
      <trkpt lat="50.163424015045166" lon="-5.629380969330668">
        <ele>126.06999999999999</ele>
        <time>2026-06-23T18:07:26Z</time>
      </trkpt>
      <trkpt lat="50.163513030856848" lon="-5.629388010129333">
        <ele>126.06999999999999</ele>
        <time>2026-06-23T18:07:27Z</time>
      </trkpt>
      <trkpt lat="50.163609003648162" lon="-5.629344005137682">
        <ele>126.06999999999999</ele>
        <time>2026-06-23T18:07:28Z</time>
      </trkpt>
      <trkpt lat="50.163714028894901" lon="-5.62929698266089">
        <ele>126.55</ele>
        <time>2026-06-23T18:07:29Z</time>
      </trkpt>
      <trkpt lat="50.163826011121273" lon="-5.629246020689607">
        <ele>126.55</ele>
        <time>2026-06-23T18:07:30Z</time>
      </trkpt>
      <trkpt lat="50.163960959762335" lon="-5.629183994606137">
        <ele>126.55</ele>
        <time>2026-06-23T18:07:31Z</time>
      </trkpt>
      <trkpt lat="50.164090963080525" lon="-5.629190029576421">
        <ele>126.55</ele>
        <time>2026-06-23T18:07:32Z</time>
      </trkpt>
      <trkpt lat="50.164532018825412" lon="-5.629177959635854">
        <ele>126.55</ele>
        <time>2026-06-23T18:07:35Z</time>
      </trkpt>
      <trkpt lat="50.164679959416389" lon="-5.629144012928009">
        <ele>126.55</ele>
        <time>2026-06-23T18:07:36Z</time>
      </trkpt>
      <trkpt lat="50.16480996273458" lon="-5.629072012379766">
        <ele>126.55</ele>
        <time>2026-06-23T18:07:37Z</time>
      </trkpt>
      <trkpt lat="50.165077010169625" lon="-5.628918958827853">
        <ele>127.03</ele>
        <time>2026-06-23T18:07:39Z</time>
      </trkpt>
      <trkpt lat="50.165201984345913" lon="-5.628846036270261">
        <ele>127.03</ele>
        <time>2026-06-23T18:07:40Z</time>
      </trkpt>
      <trkpt lat="50.16532301902771" lon="-5.628832038491964">
        <ele>127.03</ele>
        <time>2026-06-23T18:07:41Z</time>
      </trkpt>
      <trkpt lat="50.165425026789308" lon="-5.628875959664583">
        <ele>127.03</ele>
        <time>2026-06-23T18:07:42Z</time>
      </trkpt>
      <trkpt lat="50.165516976267099" lon="-5.628943014889956">
        <ele>126.55</ele>
        <time>2026-06-23T18:07:43Z</time>
      </trkpt>
      <trkpt lat="50.165606997907162" lon="-5.629007974639535">
        <ele>126.55</ele>
        <time>2026-06-23T18:07:44Z</time>
      </trkpt>
      <trkpt lat="50.165698025375605" lon="-5.628971010446549">
        <ele>126.55</ele>
        <time>2026-06-23T18:07:45Z</time>
      </trkpt>
      <trkpt lat="50.165787963196635" lon="-5.628920970484614">
        <ele>126.06999999999999</ele>
        <time>2026-06-23T18:07:46Z</time>
      </trkpt>
      <trkpt lat="50.165868010371923" lon="-5.628789039328694">
        <ele>126.06999999999999</ele>
        <time>2026-06-23T18:07:47Z</time>
      </trkpt>
      <trkpt lat="50.165959037840366" lon="-5.628637997433543">
        <ele>126.55</ele>
        <time>2026-06-23T18:07:48Z</time>
      </trkpt>
      <trkpt lat="50.166716007515788" lon="-5.627278033643961">
        <ele>129.43000000000001</ele>
        <time>2026-06-23T18:07:56Z</time>
      </trkpt>
      <trkpt lat="50.16676302999258" lon="-5.627136966213584">
        <ele>130.40000000000001</ele>
        <time>2026-06-23T18:07:57Z</time>
      </trkpt>
      <trkpt lat="50.167191009968519" lon="-5.625367965549231">
        <ele>138.09</ele>
        <time>2026-06-23T18:08:06Z</time>
      </trkpt>
      <trkpt lat="50.16773097217083" lon="-5.623163022100925">
        <ele>144.81999999999999</ele>
        <time>2026-06-23T18:08:16Z</time>
      </trkpt>
      <trkpt lat="50.167808001860976" lon="-5.622989013791084">
        <ele>144.81999999999999</ele>
        <time>2026-06-23T18:08:17Z</time>
      </trkpt>
      <trkpt lat="50.168420970439911" lon="-5.621492005884647">
        <ele>144.34</ele>
        <time>2026-06-23T18:08:24Z</time>
      </trkpt>
      <trkpt lat="50.169124966487288" lon="-5.619470039382577">
        <ele>144.81999999999999</ele>
        <time>2026-06-23T18:08:33Z</time>
      </trkpt>
      <trkpt lat="50.169206019490957" lon="-5.619286978617311">
        <ele>145.30000000000001</ele>
        <time>2026-06-23T18:08:34Z</time>
      </trkpt>
      <trkpt lat="50.169284977018833" lon="-5.619131997227669">
        <ele>145.30000000000001</ele>
        <time>2026-06-23T18:08:35Z</time>
      </trkpt>
      <trkpt lat="50.169386984780431" lon="-5.619000988081098">
        <ele>145.30000000000001</ele>
        <time>2026-06-23T18:08:36Z</time>
      </trkpt>
      <trkpt lat="50.16959996894002" lon="-5.618719020858407">
        <ele>144.81999999999999</ele>
        <time>2026-06-23T18:08:38Z</time>
      </trkpt>
      <trkpt lat="50.16996399499476" lon="-5.618195990100503">
        <ele>143.84999999999999</ele>
        <time>2026-06-23T18:08:42Z</time>
      </trkpt>
      <trkpt lat="50.170052004978061" lon="-5.618096999824047">
        <ele>143.37</ele>
        <time>2026-06-23T18:08:43Z</time>
      </trkpt>
      <trkpt lat="50.170139009132981" lon="-5.617999015375972">
        <ele>142.41</ele>
        <time>2026-06-23T18:08:44Z</time>
      </trkpt>
      <trkpt lat="50.170227019116282" lon="-5.617900025099516">
        <ele>141.93000000000001</ele>
        <time>2026-06-23T18:08:45Z</time>
      </trkpt>
      <trkpt lat="50.170299019664526" lon="-5.617769015952945">
        <ele>141.44999999999999</ele>
        <time>2026-06-23T18:08:46Z</time>
      </trkpt>
      <trkpt lat="50.170360039919615" lon="-5.617641024291515">
        <ele>140.97</ele>
        <time>2026-06-23T18:08:47Z</time>
      </trkpt>
      <trkpt lat="50.170462969690561" lon="-5.617426028475165">
        <ele>140.00999999999999</ele>
        <time>2026-06-23T18:08:49Z</time>
      </trkpt>
      <trkpt lat="50.170474033802748" lon="-5.617303987964988">
        <ele>140.00999999999999</ele>
        <time>2026-06-23T18:08:50Z</time>
      </trkpt>
      <trkpt lat="50.170484008267522" lon="-5.617188988253474">
        <ele>140.00999999999999</ele>
        <time>2026-06-23T18:08:51Z</time>
      </trkpt>
      <trkpt lat="50.170450983569026" lon="-5.61707298271358">
        <ele>140.00999999999999</ele>
        <time>2026-06-23T18:08:52Z</time>
      </trkpt>
      <trkpt lat="50.17041401937604" lon="-5.61694398522377">
        <ele>140.49000000000001</ele>
        <time>2026-06-23T18:08:53Z</time>
      </trkpt>
      <trkpt lat="50.17039398662746" lon="-5.616819011047483">
        <ele>140.97</ele>
        <time>2026-06-23T18:08:54Z</time>
      </trkpt>
      <trkpt lat="50.170386023819447" lon="-5.616707028821111">
        <ele>141.44999999999999</ele>
        <time>2026-06-23T18:08:55Z</time>
      </trkpt>
      <trkpt lat="50.170388035476208" lon="-5.616484992206097">
        <ele>141.93000000000001</ele>
        <time>2026-06-23T18:08:57Z</time>
      </trkpt>
      <trkpt lat="50.170402033254504" lon="-5.616378039121628">
        <ele>141.93000000000001</ele>
        <time>2026-06-23T18:08:58Z</time>
      </trkpt>
      <trkpt lat="50.170417036861181" lon="-5.616271002218127">
        <ele>142.41</ele>
        <time>2026-06-23T18:08:59Z</time>
      </trkpt>
      <trkpt lat="50.170448971912265" lon="-5.616033961996436">
        <ele>142.41</ele>
        <time>2026-06-23T18:09:01Z</time>
      </trkpt>
      <trkpt lat="50.170465987175703" lon="-5.615906976163387">
        <ele>141.93000000000001</ele>
        <time>2026-06-23T18:09:02Z</time>
      </trkpt>
      <trkpt lat="50.170700009912252" lon="-5.614359006285667">
        <ele>140.00999999999999</ele>
        <time>2026-06-23T18:09:13Z</time>
      </trkpt>
      <trkpt lat="50.170756001025438" lon="-5.614098999649286">
        <ele>140.49000000000001</ele>
        <time>2026-06-23T18:09:15Z</time>
      </trkpt>
      <trkpt lat="50.170783996582031" lon="-5.613965978845954">
        <ele>140.49000000000001</ele>
        <time>2026-06-23T18:09:16Z</time>
      </trkpt>
      <trkpt lat="50.170818027108908" lon="-5.613837987184525">
        <ele>140.97</ele>
        <time>2026-06-23T18:09:17Z</time>
      </trkpt>
      <trkpt lat="50.171470977365971" lon="-5.612811958417296">
        <ele>145.30000000000001</ele>
        <time>2026-06-23T18:09:28Z</time>
      </trkpt>
      <trkpt lat="50.171625958755612" lon="-5.612665023654699">
        <ele>146.74000000000001</ele>
        <time>2026-06-23T18:09:31Z</time>
      </trkpt>
      <trkpt lat="50.171659989282489" lon="-5.612633004784584">
        <ele>146.74000000000001</ele>
        <time>2026-06-23T18:09:32Z</time>
      </trkpt>
      <trkpt lat="50.171683039516211" lon="-5.612611966207624">
        <ele>147.22</ele>
        <time>2026-06-23T18:09:33Z</time>
      </trkpt>
      <trkpt lat="50.171701982617378" lon="-5.612593023106456">
        <ele>147.22</ele>
        <time>2026-06-23T18:09:34Z</time>
      </trkpt>
      <trkpt lat="50.171724027022719" lon="-5.612571984529495">
        <ele>147.69999999999999</ele>
        <time>2026-06-23T18:09:35Z</time>
      </trkpt>
      <trkpt lat="50.171750010922551" lon="-5.612548012286425">
        <ele>147.69999999999999</ele>
        <time>2026-06-23T18:09:36Z</time>
      </trkpt>
      <trkpt lat="50.17177096568048" lon="-5.612527979537845">
        <ele>147.69999999999999</ele>
        <time>2026-06-23T18:09:37Z</time>
      </trkpt>
      <trkpt lat="50.171787980943918" lon="-5.612510964274406">
        <ele>147.69999999999999</ele>
        <time>2026-06-23T18:09:38Z</time>
      </trkpt>
      <trkpt lat="50.171802984550595" lon="-5.61249696649611">
        <ele>147.69999999999999</ele>
        <time>2026-06-23T18:09:39Z</time>
      </trkpt>
      <trkpt lat="50.171818993985653" lon="-5.612481962889433">
        <ele>147.69999999999999</ele>
        <time>2026-06-23T18:09:40Z</time>
      </trkpt>
      <trkpt lat="50.171818993985653" lon="-5.612481962889433">
        <ele>147.69999999999999</ele>
        <time>2026-06-23T18:09:52Z</time>
      </trkpt>
      <trkpt lat="50.171818993985653" lon="-5.612481962889433">
        <ele>147.69999999999999</ele>
        <time>2026-06-23T18:10:41Z</time>
      </trkpt>
      <trkpt lat="50.171818993985653" lon="-5.612481962889433">
        <ele>147.69999999999999</ele>
        <time>2026-06-23T18:11:40Z</time>
      </trkpt>
      <trkpt lat="50.171818993985653" lon="-5.612481962889433">
        <ele>146.74000000000001</ele>
        <time>2026-06-23T18:12:34Z</time>
      </trkpt>
      <trkpt lat="50.171818993985653" lon="-5.612481962889433">
        <ele>149.62</ele>
        <time>2026-06-23T18:13:02Z</time>
      </trkpt>
      <trkpt lat="50.171818993985653" lon="-5.612481962889433">
        <ele>143.37</ele>
        <time>2026-06-23T18:13:58Z</time>
      </trkpt>
      <trkpt lat="50.171818993985653" lon="-5.612481962889433">
        <ele>139.05000000000001</ele>
        <time>2026-06-23T18:14:46Z</time>
      </trkpt>
      <trkpt lat="50.171841038390994" lon="-5.612461008131504">
        <ele>139.53</ele>
        <time>2026-06-23T18:15:31Z</time>
      </trkpt>
      <trkpt lat="50.17189996317029" lon="-5.612404011189938">
        <ele>142.41</ele>
        <time>2026-06-23T18:15:36Z</time>
      </trkpt>
      <trkpt lat="50.17189996317029" lon="-5.612404011189938">
        <ele>142.41</ele>
        <time>2026-06-23T18:15:37Z</time>
      </trkpt>
      <trkpt lat="50.171971041709185" lon="-5.612369980663061">
        <ele>142.88999999999999</ele>
        <time>2026-06-23T18:15:38Z</time>
      </trkpt>
      <trkpt lat="50.172023009508848" lon="-5.612343996763229">
        <ele>142.88999999999999</ele>
        <time>2026-06-23T18:15:39Z</time>
      </trkpt>
      <trkpt lat="50.172097021713853" lon="-5.612308038398624">
        <ele>142.88999999999999</ele>
        <time>2026-06-23T18:15:40Z</time>
      </trkpt>
      <trkpt lat="50.172188971191645" lon="-5.612262021750212">
        <ele>142.88999999999999</ele>
        <time>2026-06-23T18:15:41Z</time>
      </trkpt>
      <trkpt lat="50.173107963055372" lon="-5.61180897988379">
        <ele>141.44999999999999</ele>
        <time>2026-06-23T18:15:49Z</time>
      </trkpt>
      <trkpt lat="50.173423960804939" lon="-5.611652992665768">
        <ele>140.00999999999999</ele>
        <time>2026-06-23T18:15:53Z</time>
      </trkpt>
      <trkpt lat="50.173692014068365" lon="-5.611414024606347">
        <ele>138.56999999999999</ele>
        <time>2026-06-23T18:15:57Z</time>
      </trkpt>
      <trkpt lat="50.173748005181551" lon="-5.611320985481143">
        <ele>138.56999999999999</ele>
        <time>2026-06-23T18:15:58Z</time>
      </trkpt>
      <trkpt lat="50.173803996294737" lon="-5.61122702434659">
        <ele>138.56999999999999</ele>
        <time>2026-06-23T18:15:59Z</time>
      </trkpt>
      <trkpt lat="50.17385495826602" lon="-5.611114958301187">
        <ele>138.56999999999999</ele>
        <time>2026-06-23T18:16:00Z</time>
      </trkpt>
      <trkpt lat="50.173899969086051" lon="-5.610982021316886">
        <ele>138.09</ele>
        <time>2026-06-23T18:16:01Z</time>
      </trkpt>
      <trkpt lat="50.173951014876366" lon="-5.610836008563638">
        <ele>138.56999999999999</ele>
        <time>2026-06-23T18:16:02Z</time>
      </trkpt>
      <trkpt lat="50.174450995400548" lon="-5.609112018719316">
        <ele>139.53</ele>
        <time>2026-06-23T18:16:11Z</time>
      </trkpt>
      <trkpt lat="50.174557026475668" lon="-5.60837097465992">
        <ele>140.49000000000001</ele>
        <time>2026-06-23T18:16:14Z</time>
      </trkpt>
      <trkpt lat="50.17473598010838" lon="-5.606265021488071">
        <ele>140.97</ele>
        <time>2026-06-23T18:16:23Z</time>
      </trkpt>
      <trkpt lat="50.175049966201186" lon="-5.603844998404384">
        <ele>136.63999999999999</ele>
        <time>2026-06-23T18:16:33Z</time>
      </trkpt>
      <trkpt lat="50.175340985879302" lon="-5.602022018283606">
        <ele>131.36000000000001</ele>
        <time>2026-06-23T18:16:41Z</time>
      </trkpt>
      <trkpt lat="50.175394965335727" lon="-5.601833006367087">
        <ele>130.40000000000001</ele>
        <time>2026-06-23T18:16:42Z</time>
      </trkpt>
      <trkpt lat="50.175612978637218" lon="-5.601062038913369">
        <ele>127.03</ele>
        <time>2026-06-23T18:16:48Z</time>
      </trkpt>
      <trkpt lat="50.175638040527701" lon="-5.600952990353108">
        <ele>126.55</ele>
        <time>2026-06-23T18:16:49Z</time>
      </trkpt>
      <trkpt lat="50.17567802220583" lon="-5.600576978176832">
        <ele>123.19</ele>
        <time>2026-06-23T18:16:55Z</time>
      </trkpt>
      <trkpt lat="50.175756979733706" lon="-5.599915981292725">
        <ele>120.78</ele>
        <time>2026-06-23T18:17:01Z</time>
      </trkpt>
      <trkpt lat="50.175790004432201" lon="-5.599784972146154">
        <ele>120.3</ele>
        <time>2026-06-23T18:17:02Z</time>
      </trkpt>
      <trkpt lat="50.175826968625188" lon="-5.599637031555176">
        <ele>120.3</ele>
        <time>2026-06-23T18:17:03Z</time>
      </trkpt>
      <trkpt lat="50.175882959738374" lon="-5.599533012136817">
        <ele>119.81999999999999</ele>
        <time>2026-06-23T18:17:04Z</time>
      </trkpt>
      <trkpt lat="50.175949009135365" lon="-5.59941197745502">
        <ele>119.34</ele>
        <time>2026-06-23T18:17:05Z</time>
      </trkpt>
      <trkpt lat="50.176032995805144" lon="-5.599312987178564">
        <ele>118.86</ele>
        <time>2026-06-23T18:17:06Z</time>
      </trkpt>
      <trkpt lat="50.176129974424839" lon="-5.599233023822308">
        <ele>118.38</ele>
        <time>2026-06-23T18:17:07Z</time>
      </trkpt>
      <trkpt lat="50.176232988014817" lon="-5.599160017445684">
        <ele>117.90000000000001</ele>
        <time>2026-06-23T18:17:08Z</time>
      </trkpt>
      <trkpt lat="50.17634597606957" lon="-5.599132021889091">
        <ele>116.94</ele>
        <time>2026-06-23T18:17:09Z</time>
      </trkpt>
      <trkpt lat="50.176457958295941" lon="-5.599140990525484">
        <ele>116.45999999999999</ele>
        <time>2026-06-23T18:17:10Z</time>
      </trkpt>
      <trkpt lat="50.176559966057539" lon="-5.599167980253696">
        <ele>115.5</ele>
        <time>2026-06-23T18:17:11Z</time>
      </trkpt>
      <trkpt lat="50.176656022667885" lon="-5.599192958325148">
        <ele>114.53</ele>
        <time>2026-06-23T18:17:12Z</time>
      </trkpt>
      <trkpt lat="50.176748977974057" lon="-5.59921701438725">
        <ele>114.05</ele>
        <time>2026-06-23T18:17:13Z</time>
      </trkpt>
      <trkpt lat="50.176835982128978" lon="-5.59923998080194">
        <ele>113.09</ele>
        <time>2026-06-23T18:17:14Z</time>
      </trkpt>
      <trkpt lat="50.176914017647505" lon="-5.599227994680405">
        <ele>112.61</ele>
        <time>2026-06-23T18:17:15Z</time>
      </trkpt>
      <trkpt lat="50.176988029852509" lon="-5.599180972203612">
        <ele>112.13</ele>
        <time>2026-06-23T18:17:16Z</time>
      </trkpt>
      <trkpt lat="50.177070004865527" lon="-5.599126992747188">
        <ele>112.13</ele>
        <time>2026-06-23T18:17:17Z</time>
      </trkpt>
      <trkpt lat="50.177158014848828" lon="-5.599071001634002">
        <ele>112.61</ele>
        <time>2026-06-23T18:17:18Z</time>
      </trkpt>
      <trkpt lat="50.177432019263506" lon="-5.598893975839019">
        <ele>112.61</ele>
        <time>2026-06-23T18:17:21Z</time>
      </trkpt>
      <trkpt lat="50.177518017590046" lon="-5.598837984725833">
        <ele>112.61</ele>
        <time>2026-06-23T18:17:22Z</time>
      </trkpt>
      <trkpt lat="50.177599992603064" lon="-5.598805965855718">
        <ele>112.61</ele>
        <time>2026-06-23T18:17:23Z</time>
      </trkpt>
      <trkpt lat="50.177684985101223" lon="-5.598782999441028">
        <ele>113.09</ele>
        <time>2026-06-23T18:17:24Z</time>
      </trkpt>
      <trkpt lat="50.177771989256144" lon="-5.598760033026338">
        <ele>113.09</ele>
        <time>2026-06-23T18:17:25Z</time>
      </trkpt>
      <trkpt lat="50.177853964269161" lon="-5.598780987784267">
        <ele>113.56999999999999</ele>
        <time>2026-06-23T18:17:26Z</time>
      </trkpt>
      <trkpt lat="50.177942980080843" lon="-5.598808983340859">
        <ele>113.56999999999999</ele>
        <time>2026-06-23T18:17:27Z</time>
      </trkpt>
      <trkpt lat="50.178035013377666" lon="-5.598838990554214">
        <ele>113.56999999999999</ele>
        <time>2026-06-23T18:17:28Z</time>
      </trkpt>
      <trkpt lat="50.178130986168981" lon="-5.598868997767568">
        <ele>113.56999999999999</ele>
        <time>2026-06-23T18:17:29Z</time>
      </trkpt>
      <trkpt lat="50.178225031122565" lon="-5.598899004980922">
        <ele>114.05</ele>
        <time>2026-06-23T18:17:30Z</time>
      </trkpt>
      <trkpt lat="50.178313963115215" lon="-5.598890036344528">
        <ele>114.05</ele>
        <time>2026-06-23T18:17:31Z</time>
      </trkpt>
      <trkpt lat="50.178390992805362" lon="-5.598867991939187">
        <ele>114.53</ele>
        <time>2026-06-23T18:17:32Z</time>
      </trkpt>
      <trkpt lat="50.178434997797012" lon="-5.598782999441028">
        <ele>115.01000000000001</ele>
        <time>2026-06-23T18:17:33Z</time>
      </trkpt>
      <trkpt lat="50.17847397364676" lon="-5.598687026649714">
        <ele>115.98</ele>
        <time>2026-06-23T18:17:34Z</time>
      </trkpt>
      <trkpt lat="50.178515966981649" lon="-5.598585018888116">
        <ele>117.42</ele>
        <time>2026-06-23T18:17:35Z</time>
      </trkpt>
      <trkpt lat="50.178601965308189" lon="-5.598373962566257">
        <ele>118.86</ele>
        <time>2026-06-23T18:17:37Z</time>
      </trkpt>
      <trkpt lat="50.17864303663373" lon="-5.598283018916845">
        <ele>120.3</ele>
        <time>2026-06-23T18:17:38Z</time>
      </trkpt>
      <trkpt lat="50.178710008040071" lon="-5.598248988389969">
        <ele>120.78</ele>
        <time>2026-06-23T18:17:39Z</time>
      </trkpt>
      <trkpt lat="50.178782008588314" lon="-5.598213030025363">
        <ele>121.73999999999999</ele>
        <time>2026-06-23T18:17:40Z</time>
      </trkpt>
      <trkpt lat="50.178851997479796" lon="-5.598177993670106">
        <ele>122.22</ele>
        <time>2026-06-23T18:17:41Z</time>
      </trkpt>
      <trkpt lat="50.178917041048408" lon="-5.598145974799991">
        <ele>122.70999999999999</ele>
        <time>2026-06-23T18:17:42Z</time>
      </trkpt>
      <trkpt lat="50.178989963606" lon="-5.59810096397996">
        <ele>123.19</ele>
        <time>2026-06-23T18:17:43Z</time>
      </trkpt>
      <trkpt lat="50.179054001346231" lon="-5.598011026158929">
        <ele>123.67</ele>
        <time>2026-06-23T18:17:44Z</time>
      </trkpt>
      <trkpt lat="50.179190039634705" lon="-5.597818996757269">
        <ele>125.11</ele>
        <time>2026-06-23T18:17:46Z</time>
      </trkpt>
      <trkpt lat="50.179258016869426" lon="-5.597739033401012">
        <ele>125.11</ele>
        <time>2026-06-23T18:17:47Z</time>
      </trkpt>
      <trkpt lat="50.179323982447386" lon="-5.597706008702517">
        <ele>125.59</ele>
        <time>2026-06-23T18:17:48Z</time>
      </trkpt>
      <trkpt lat="50.179378967732191" lon="-5.597679018974304">
        <ele>126.06999999999999</ele>
        <time>2026-06-23T18:17:49Z</time>
      </trkpt>
      <trkpt lat="50.179424984380603" lon="-5.597631996497512">
        <ele>126.55</ele>
        <time>2026-06-23T18:17:50Z</time>
      </trkpt>
      <trkpt lat="50.179459014907479" lon="-5.597556978464127">
        <ele>126.55</ele>
        <time>2026-06-23T18:17:51Z</time>
      </trkpt>
      <trkpt lat="50.17950402572751" lon="-5.597459999844432">
        <ele>127.03</ele>
        <time>2026-06-23T18:17:52Z</time>
      </trkpt>
      <trkpt lat="50.179552976042032" lon="-5.597352962940931">
        <ele>127.51000000000001</ele>
        <time>2026-06-23T18:17:53Z</time>
      </trkpt>
      <trkpt lat="50.179607039317489" lon="-5.597235029563308">
        <ele>127.98999999999999</ele>
        <time>2026-06-23T18:17:54Z</time>
      </trkpt>
      <trkpt lat="50.179679039865732" lon="-5.59713302180171">
        <ele>127.98999999999999</ele>
        <time>2026-06-23T18:17:55Z</time>
      </trkpt>
      <trkpt lat="50.179786998778582" lon="-5.597081976011396">
        <ele>128.47</ele>
        <time>2026-06-23T18:17:56Z</time>
      </trkpt>
      <trkpt lat="50.179896969348192" lon="-5.597029002383351">
        <ele>128.47</ele>
        <time>2026-06-23T18:17:57Z</time>
      </trkpt>
      <trkpt lat="50.180000988766551" lon="-5.596979968249798">
        <ele>128.47</ele>
        <time>2026-06-23T18:17:58Z</time>
      </trkpt>
      <trkpt lat="50.180096039548516" lon="-5.596909979358316">
        <ele>128.47</ele>
        <time>2026-06-23T18:17:59Z</time>
      </trkpt>
      <trkpt lat="50.180186983197927" lon="-5.59681199491024">
        <ele>128.47</ele>
        <time>2026-06-23T18:18:00Z</time>
      </trkpt>
      <trkpt lat="50.180279016494751" lon="-5.596713004633784">
        <ele>128.94999999999999</ele>
        <time>2026-06-23T18:18:01Z</time>
      </trkpt>
      <trkpt lat="50.180375995114446" lon="-5.596622982993722">
        <ele>128.94999999999999</ele>
        <time>2026-06-23T18:18:02Z</time>
      </trkpt>
      <trkpt lat="50.181285012513399" lon="-5.595860984176397">
        <ele>127.51000000000001</ele>
        <time>2026-06-23T18:18:12Z</time>
      </trkpt>
      <trkpt lat="50.181646021082997" lon="-5.595430992543697">
        <ele>126.55</ele>
        <time>2026-06-23T18:18:16Z</time>
      </trkpt>
      <trkpt lat="50.181703018024564" lon="-5.595281040295959">
        <ele>126.55</ele>
        <time>2026-06-23T18:18:17Z</time>
      </trkpt>
      <trkpt lat="50.181750962510705" lon="-5.595121029764414">
        <ele>126.55</ele>
        <time>2026-06-23T18:18:18Z</time>
      </trkpt>
      <trkpt lat="50.182296959683299" lon="-5.593514973297715">
        <ele>125.59</ele>
        <time>2026-06-23T18:18:28Z</time>
      </trkpt>
      <trkpt lat="50.182358985766768" lon="-5.593398967757821">
        <ele>125.59</ele>
        <time>2026-06-23T18:18:29Z</time>
      </trkpt>
      <trkpt lat="50.182464011013508" lon="-5.593200987204909">
        <ele>125.11</ele>
        <time>2026-06-23T18:18:31Z</time>
      </trkpt>
      <trkpt lat="50.182522013783455" lon="-5.59309302829206">
        <ele>125.11</ele>
        <time>2026-06-23T18:18:32Z</time>
      </trkpt>
      <trkpt lat="50.182522013783455" lon="-5.593025973066688">
        <ele>124.63</ele>
        <time>2026-06-23T18:18:33Z</time>
      </trkpt>
      <trkpt lat="50.182493012398481" lon="-5.592926982790232">
        <ele>124.63</ele>
        <time>2026-06-23T18:18:34Z</time>
      </trkpt>
      <trkpt lat="50.182440038770437" lon="-5.592859005555511">
        <ele>124.63</ele>
        <time>2026-06-23T18:18:35Z</time>
      </trkpt>
      <trkpt lat="50.182378012686968" lon="-5.592778036370874">
        <ele>124.63</ele>
        <time>2026-06-23T18:18:36Z</time>
      </trkpt>
      <trkpt lat="50.182304000481963" lon="-5.592690026387572">
        <ele>124.63</ele>
        <time>2026-06-23T18:18:37Z</time>
      </trkpt>
      <trkpt lat="50.182224037125707" lon="-5.592595981433988">
        <ele>124.63</ele>
        <time>2026-06-23T18:18:38Z</time>
      </trkpt>
      <trkpt lat="50.182139966636896" lon="-5.592495985329151">
        <ele>125.11</ele>
        <time>2026-06-23T18:18:39Z</time>
      </trkpt>
      <trkpt lat="50.18199697136879" lon="-5.592272020876408">
        <ele>125.59</ele>
        <time>2026-06-23T18:18:41Z</time>
      </trkpt>
      <trkpt lat="50.181950032711029" lon="-5.592133970931172">
        <ele>126.06999999999999</ele>
        <time>2026-06-23T18:18:42Z</time>
      </trkpt>
      <trkpt lat="50.181899992749095" lon="-5.591986030340195">
        <ele>126.06999999999999</ele>
        <time>2026-06-23T18:18:43Z</time>
      </trkpt>
      <trkpt lat="50.181792033836246" lon="-5.591671960428357">
        <ele>126.55</ele>
        <time>2026-06-23T18:18:45Z</time>
      </trkpt>
      <trkpt lat="50.181735036894679" lon="-5.5915039870888">
        <ele>127.03</ele>
        <time>2026-06-23T18:18:46Z</time>
      </trkpt>
      <trkpt lat="50.18165398389101" lon="-5.591349005699158">
        <ele>127.03</ele>
        <time>2026-06-23T18:18:47Z</time>
      </trkpt>
      <trkpt lat="50.18107202835381" lon="-5.590372011065483">
        <ele>129.43000000000001</ele>
        <time>2026-06-23T18:18:54Z</time>
      </trkpt>
      <trkpt lat="50.181020982563496" lon="-5.590244019404054">
        <ele>129.43000000000001</ele>
        <time>2026-06-23T18:18:55Z</time>
      </trkpt>
      <trkpt lat="50.180990975350142" lon="-5.590122984722257">
        <ele>129.91999999999999</ele>
        <time>2026-06-23T18:18:56Z</time>
      </trkpt>
      <trkpt lat="50.180982006713748" lon="-5.590052995830774">
        <ele>130.40000000000001</ele>
        <time>2026-06-23T18:18:57Z</time>
      </trkpt>
      <trkpt lat="50.181005978956819" lon="-5.58997998945415">
        <ele>130.88</ele>
        <time>2026-06-23T18:18:58Z</time>
      </trkpt>
      <trkpt lat="50.181041015312076" lon="-5.58987395837903">
        <ele>130.88</ele>
        <time>2026-06-23T18:18:59Z</time>
      </trkpt>
      <trkpt lat="50.181088959798217" lon="-5.589838000014424">
        <ele>130.88</ele>
        <time>2026-06-23T18:19:00Z</time>
      </trkpt>
      <trkpt lat="50.181347038596869" lon="-5.589676983654499">
        <ele>129.91999999999999</ele>
        <time>2026-06-23T18:19:03Z</time>
      </trkpt>
      <trkpt lat="50.181449968367815" lon="-5.589668015018106">
        <ele>128.94999999999999</ele>
        <time>2026-06-23T18:19:04Z</time>
      </trkpt>
      <trkpt lat="50.182191012427211" lon="-5.589604983106256">
        <ele>124.15000000000001</ele>
        <time>2026-06-23T18:19:10Z</time>
      </trkpt>
      <trkpt lat="50.182311963289976" lon="-5.58959199115634">
        <ele>123.19</ele>
        <time>2026-06-23T18:19:11Z</time>
      </trkpt>
      <trkpt lat="50.182432997971773" lon="-5.589517978951335">
        <ele>122.22</ele>
        <time>2026-06-23T18:19:12Z</time>
      </trkpt>
      <trkpt lat="50.182557972148061" lon="-5.58944103308022">
        <ele>121.26000000000001</ele>
        <time>2026-06-23T18:19:13Z</time>
      </trkpt>
      <trkpt lat="50.182665009051561" lon="-5.589325027540326">
        <ele>120.3</ele>
        <time>2026-06-23T18:19:14Z</time>
      </trkpt>
      <trkpt lat="50.182761987671256" lon="-5.589197035878897">
        <ele>119.81999999999999</ele>
        <time>2026-06-23T18:19:15Z</time>
      </trkpt>
      <trkpt lat="50.182818984612823" lon="-5.589031996205449">
        <ele>119.34</ele>
        <time>2026-06-23T18:19:16Z</time>
      </trkpt>
      <trkpt lat="50.18287698738277" lon="-5.588864022865892">
        <ele>119.34</ele>
        <time>2026-06-23T18:19:17Z</time>
      </trkpt>
      <trkpt lat="50.182935995981097" lon="-5.588695965707302">
        <ele>119.81999999999999</ele>
        <time>2026-06-23T18:19:18Z</time>
      </trkpt>
      <trkpt lat="50.182992992922664" lon="-5.588528998196125">
        <ele>119.81999999999999</ele>
        <time>2026-06-23T18:19:19Z</time>
      </trkpt>
      <trkpt lat="50.183108998462558" lon="-5.588193973526359">
        <ele>120.3</ele>
        <time>2026-06-23T18:19:21Z</time>
      </trkpt>
      <trkpt lat="50.183162977918983" lon="-5.588014014065266">
        <ele>120.78</ele>
        <time>2026-06-23T18:19:22Z</time>
      </trkpt>
      <trkpt lat="50.183508982881904" lon="-5.586737031117082">
        <ele>122.70999999999999</ele>
        <time>2026-06-23T18:19:30Z</time>
      </trkpt>
      <trkpt lat="50.183618031442165" lon="-5.586485993117094">
        <ele>122.70999999999999</ele>
        <time>2026-06-23T18:19:32Z</time>
      </trkpt>
      <trkpt lat="50.183653989806771" lon="-5.586339980363846">
        <ele>122.70999999999999</ele>
        <time>2026-06-23T18:19:33Z</time>
      </trkpt>
      <trkpt lat="50.183678967878222" lon="-5.586183993145824">
        <ele>122.70999999999999</ele>
        <time>2026-06-23T18:19:34Z</time>
      </trkpt>
      <trkpt lat="50.183793967589736" lon="-5.585477985441685">
        <ele>123.67</ele>
        <time>2026-06-23T18:19:39Z</time>
      </trkpt>
      <trkpt lat="50.183831015601754" lon="-5.585361979901791">
        <ele>123.67</ele>
        <time>2026-06-23T18:19:40Z</time>
      </trkpt>
      <trkpt lat="50.184063026681542" lon="-5.584737025201321">
        <ele>127.03</ele>
        <time>2026-06-23T18:19:48Z</time>
      </trkpt>
      <trkpt lat="50.184063026681542" lon="-5.584737025201321">
        <ele>127.03</ele>
        <time>2026-06-23T18:20:20Z</time>
      </trkpt>
      <trkpt lat="50.184063026681542" lon="-5.584737025201321">
        <ele>127.03</ele>
        <time>2026-06-23T18:20:34Z</time>
      </trkpt>
      <trkpt lat="50.184123041108251" lon="-5.584619008004665">
        <ele>126.55</ele>
        <time>2026-06-23T18:20:40Z</time>
      </trkpt>
      <trkpt lat="50.184139972552657" lon="-5.58458598330617">
        <ele>126.55</ele>
        <time>2026-06-23T18:20:41Z</time>
      </trkpt>
      <trkpt lat="50.18416796810925" lon="-5.584532003849745">
        <ele>126.55</ele>
        <time>2026-06-23T18:20:42Z</time>
      </trkpt>
      <trkpt lat="50.184206021949649" lon="-5.58445799164474">
        <ele>126.55</ele>
        <time>2026-06-23T18:20:43Z</time>
      </trkpt>
      <trkpt lat="50.184249021112919" lon="-5.584372999146581">
        <ele>126.55</ele>
        <time>2026-06-23T18:20:44Z</time>
      </trkpt>
      <trkpt lat="50.184414982795715" lon="-5.584058007225394">
        <ele>125.59</ele>
        <time>2026-06-23T18:20:48Z</time>
      </trkpt>
      <trkpt lat="50.18446896225214" lon="-5.584043003618717">
        <ele>125.11</ele>
        <time>2026-06-23T18:20:49Z</time>
      </trkpt>
      <trkpt lat="50.184535011649132" lon="-5.584024982526898">
        <ele>124.63</ele>
        <time>2026-06-23T18:20:50Z</time>
      </trkpt>
      <trkpt lat="50.184611035510898" lon="-5.58400402776897">
        <ele>124.15000000000001</ele>
        <time>2026-06-23T18:20:51Z</time>
      </trkpt>
      <trkpt lat="50.184695022180676" lon="-5.583980977535248">
        <ele>123.67</ele>
        <time>2026-06-23T18:20:52Z</time>
      </trkpt>
      <trkpt lat="50.184780014678836" lon="-5.583958011120558">
        <ele>123.19</ele>
        <time>2026-06-23T18:20:53Z</time>
      </trkpt>
      <trkpt lat="50.184862995520234" lon="-5.583934960886836">
        <ele>122.70999999999999</ele>
        <time>2026-06-23T18:20:54Z</time>
      </trkpt>
      <trkpt lat="50.184927033260465" lon="-5.583880981430411">
        <ele>122.70999999999999</ele>
        <time>2026-06-23T18:20:55Z</time>
      </trkpt>
      <trkpt lat="50.185000039637089" lon="-5.583800012245774">
        <ele>122.70999999999999</ele>
        <time>2026-06-23T18:20:56Z</time>
      </trkpt>
      <trkpt lat="50.185097018256783" lon="-5.583693981170654">
        <ele>122.70999999999999</ele>
        <time>2026-06-23T18:20:57Z</time>
      </trkpt>
      <trkpt lat="50.185143034905195" lon="-5.583592979237437">
        <ele>122.70999999999999</ele>
        <time>2026-06-23T18:20:58Z</time>
      </trkpt>
      <trkpt lat="50.185202965512872" lon="-5.583460964262486">
        <ele>123.19</ele>
        <time>2026-06-23T18:20:59Z</time>
      </trkpt>
      <trkpt lat="50.185236996039748" lon="-5.583304977044463">
        <ele>123.67</ele>
        <time>2026-06-23T18:21:00Z</time>
      </trkpt>
      <trkpt lat="50.185272032395005" lon="-5.583145972341299">
        <ele>124.15000000000001</ele>
        <time>2026-06-23T18:21:01Z</time>
      </trkpt>
      <trkpt lat="50.18530597910285" lon="-5.582985039800406">
        <ele>125.11</ele>
        <time>2026-06-23T18:21:02Z</time>
      </trkpt>
      <trkpt lat="50.185340009629726" lon="-5.582828968763351">
        <ele>125.59</ele>
        <time>2026-06-23T18:21:03Z</time>
      </trkpt>
      <trkpt lat="50.185375967994332" lon="-5.582664012908936">
        <ele>126.06999999999999</ele>
        <time>2026-06-23T18:21:04Z</time>
      </trkpt>
      <trkpt lat="50.185893969610333" lon="-5.581502029672265">
        <ele>127.03</ele>
        <time>2026-06-23T18:21:12Z</time>
      </trkpt>
      <trkpt lat="50.185957001522183" lon="-5.581360962241888">
        <ele>127.51000000000001</ele>
        <time>2026-06-23T18:21:13Z</time>
      </trkpt>
      <trkpt lat="50.186019027605653" lon="-5.581221990287304">
        <ele>127.03</ele>
        <time>2026-06-23T18:21:14Z</time>
      </trkpt>
      <trkpt lat="50.1860770303756" lon="-5.581091986969113">
        <ele>127.51000000000001</ele>
        <time>2026-06-23T18:21:15Z</time>
      </trkpt>
      <trkpt lat="50.18607803620398" lon="-5.58095502667129">
        <ele>127.51000000000001</ele>
        <time>2026-06-23T18:21:16Z</time>
      </trkpt>
      <trkpt lat="50.186069989576936" lon="-5.580788981169462">
        <ele>127.51000000000001</ele>
        <time>2026-06-23T18:21:17Z</time>
      </trkpt>
      <trkpt lat="50.186061020940542" lon="-5.580614972859621">
        <ele>127.51000000000001</ele>
        <time>2026-06-23T18:21:18Z</time>
      </trkpt>
      <trkpt lat="50.186026990413666" lon="-5.580429984256625">
        <ele>127.51000000000001</ele>
        <time>2026-06-23T18:21:19Z</time>
      </trkpt>
      <trkpt lat="50.185880977660418" lon="-5.579615011811256">
        <ele>128.94999999999999</ele>
        <time>2026-06-23T18:21:23Z</time>
      </trkpt>
      <trkpt lat="50.1857990026474" lon="-5.579428011551499">
        <ele>129.43000000000001</ele>
        <time>2026-06-23T18:21:24Z</time>
      </trkpt>
      <trkpt lat="50.185701018199325" lon="-5.579255009070039">
        <ele>129.91999999999999</ele>
        <time>2026-06-23T18:21:25Z</time>
      </trkpt>
      <trkpt lat="50.185601022094488" lon="-5.579078989103437">
        <ele>129.91999999999999</ele>
        <time>2026-06-23T18:21:26Z</time>
      </trkpt>
      <trkpt lat="50.185504965484142" lon="-5.578909004107118">
        <ele>130.40000000000001</ele>
        <time>2026-06-23T18:21:27Z</time>
      </trkpt>
      <trkpt lat="50.185406981036067" lon="-5.578710017725825">
        <ele>130.88</ele>
        <time>2026-06-23T18:21:28Z</time>
      </trkpt>
      <trkpt lat="50.184529982507229" lon="-5.576921990141273">
        <ele>136.63999999999999</ele>
        <time>2026-06-23T18:21:38Z</time>
      </trkpt>
      <trkpt lat="50.184383969753981" lon="-5.576585959643126">
        <ele>138.09</ele>
        <time>2026-06-23T18:21:40Z</time>
      </trkpt>
      <trkpt lat="50.184036958962679" lon="-5.575673002749682">
        <ele>140.97</ele>
        <time>2026-06-23T18:21:45Z</time>
      </trkpt>
      <trkpt lat="50.183955989778042" lon="-5.575510980561376">
        <ele>141.93000000000001</ele>
        <time>2026-06-23T18:21:46Z</time>
      </trkpt>
      <trkpt lat="50.183531027287245" lon="-5.574607998132706">
        <ele>147.22</ele>
        <time>2026-06-23T18:21:52Z</time>
      </trkpt>
      <trkpt lat="50.183508982881904" lon="-5.57451001368463">
        <ele>147.69999999999999</ele>
        <time>2026-06-23T18:21:53Z</time>
      </trkpt>
      <trkpt lat="50.183519963175058" lon="-5.574351008981466">
        <ele>148.18000000000001</ele>
        <time>2026-06-23T18:21:54Z</time>
      </trkpt>
      <trkpt lat="50.183530021458864" lon="-5.574210025370121">
        <ele>148.66</ele>
        <time>2026-06-23T18:21:55Z</time>
      </trkpt>
      <trkpt lat="50.183571008965373" lon="-5.574098965153098">
        <ele>148.66</ele>
        <time>2026-06-23T18:21:56Z</time>
      </trkpt>
      <trkpt lat="50.183623982593417" lon="-5.573955969884992">
        <ele>148.66</ele>
        <time>2026-06-23T18:21:57Z</time>
      </trkpt>
      <trkpt lat="50.183765972033143" lon="-5.573695963248611">
        <ele>149.62</ele>
        <time>2026-06-23T18:21:59Z</time>
      </trkpt>
      <trkpt lat="50.183853982016444" lon="-5.573585992679">
        <ele>150.09999999999999</ele>
        <time>2026-06-23T18:22:00Z</time>
      </trkpt>
      <trkpt lat="50.183948026970029" lon="-5.573476022109389">
        <ele>150.58000000000001</ele>
        <time>2026-06-23T18:22:01Z</time>
      </trkpt>
      <trkpt lat="50.184056991711259" lon="-5.573421036824584">
        <ele>151.06</ele>
        <time>2026-06-23T18:22:02Z</time>
      </trkpt>
      <trkpt lat="50.184164028614759" lon="-5.573366973549128">
        <ele>151.53999999999999</ele>
        <time>2026-06-23T18:22:03Z</time>
      </trkpt>
      <trkpt lat="50.184262013062835" lon="-5.573319029062986">
        <ele>152.03</ele>
        <time>2026-06-23T18:22:04Z</time>
      </trkpt>
      <trkpt lat="50.184347005560994" lon="-5.573276029899716">
        <ele>152.03</ele>
        <time>2026-06-23T18:22:05Z</time>
      </trkpt>
      <trkpt lat="50.18442596308887" lon="-5.573235964402556">
        <ele>152.03</ele>
        <time>2026-06-23T18:22:06Z</time>
      </trkpt>
      <trkpt lat="50.184497963637114" lon="-5.573177039623261">
        <ele>152.50999999999999</ele>
        <time>2026-06-23T18:22:07Z</time>
      </trkpt>
      <trkpt lat="50.18457499332726" lon="-5.573101015761495">
        <ele>152.99000000000001</ele>
        <time>2026-06-23T18:22:08Z</time>
      </trkpt>
      <trkpt lat="50.184658979997039" lon="-5.573016023263335">
        <ele>153.94999999999999</ele>
        <time>2026-06-23T18:22:09Z</time>
      </trkpt>
      <trkpt lat="50.184754030779004" lon="-5.572921978309751">
        <ele>155.38999999999999</ele>
        <time>2026-06-23T18:22:10Z</time>
      </trkpt>
      <trkpt lat="50.184858972206712" lon="-5.572848971933126">
        <ele>156.34999999999999</ele>
        <time>2026-06-23T18:22:11Z</time>
      </trkpt>
      <trkpt lat="50.184970032423735" lon="-5.572772026062012">
        <ele>157.31</ele>
        <time>2026-06-23T18:22:12Z</time>
      </trkpt>
      <trkpt lat="50.185189973562956" lon="-5.572617966681719">
        <ele>159.24000000000001</ele>
        <time>2026-06-23T18:22:14Z</time>
      </trkpt>
      <trkpt lat="50.185396000742912" lon="-5.572474971413612">
        <ele>160.68000000000001</ele>
        <time>2026-06-23T18:22:16Z</time>
      </trkpt>
      <trkpt lat="50.185502031818032" lon="-5.572412023320794">
        <ele>161.16</ele>
        <time>2026-06-23T18:22:17Z</time>
      </trkpt>
      <trkpt lat="50.186372995376587" lon="-5.572049003094435">
        <ele>157.31</ele>
        <time>2026-06-23T18:22:24Z</time>
      </trkpt>
      <trkpt lat="50.186492018401623" lon="-5.571998963132501">
        <ele>156.34999999999999</ele>
        <time>2026-06-23T18:22:25Z</time>
      </trkpt>
      <trkpt lat="50.186933996155858" lon="-5.571647007018328">
        <ele>151.06</ele>
        <time>2026-06-23T18:22:29Z</time>
      </trkpt>
      <trkpt lat="50.187042038887739" lon="-5.571507029235363">
        <ele>149.62</ele>
        <time>2026-06-23T18:22:30Z</time>
      </trkpt>
      <trkpt lat="50.187419978901744" lon="-5.570970000699163">
        <ele>145.30000000000001</ele>
        <time>2026-06-23T18:22:34Z</time>
      </trkpt>
      <trkpt lat="50.187478987500072" lon="-5.570884002372623">
        <ele>144.34</ele>
        <time>2026-06-23T18:22:35Z</time>
      </trkpt>
      <trkpt lat="50.187549982219934" lon="-5.57090001180768">
        <ele>143.37</ele>
        <time>2026-06-23T18:22:36Z</time>
      </trkpt>
      <trkpt lat="50.187634974718094" lon="-5.570918032899499">
        <ele>141.93000000000001</ele>
        <time>2026-06-23T18:22:37Z</time>
      </trkpt>
      <trkpt lat="50.187723990529776" lon="-5.570959020406008">
        <ele>140.97</ele>
        <time>2026-06-23T18:22:38Z</time>
      </trkpt>
      <trkpt lat="50.187813006341457" lon="-5.571012999862433">
        <ele>139.53</ele>
        <time>2026-06-23T18:22:39Z</time>
      </trkpt>
      <trkpt lat="50.187892969697714" lon="-5.571063039824367">
        <ele>138.56999999999999</ele>
        <time>2026-06-23T18:22:40Z</time>
      </trkpt>
      <trkpt lat="50.187974022701383" lon="-5.571075025945902">
        <ele>137.61000000000001</ele>
        <time>2026-06-23T18:22:41Z</time>
      </trkpt>
      <trkpt lat="50.188019033521414" lon="-5.571010988205671">
        <ele>137.13</ele>
        <time>2026-06-23T18:22:42Z</time>
      </trkpt>
      <trkpt lat="50.188066978007555" lon="-5.570923984050751">
        <ele>136.16</ele>
        <time>2026-06-23T18:22:43Z</time>
      </trkpt>
      <trkpt lat="50.188127998262644" lon="-5.570816025137901">
        <ele>135.19999999999999</ele>
        <time>2026-06-23T18:22:44Z</time>
      </trkpt>
      <trkpt lat="50.188708025962114" lon="-5.569816986098886">
        <ele>131.84</ele>
        <time>2026-06-23T18:22:51Z</time>
      </trkpt>
      <trkpt lat="50.188809027895331" lon="-5.569757977500558">
        <ele>131.36000000000001</ele>
        <time>2026-06-23T18:22:52Z</time>
      </trkpt>
      <trkpt lat="50.188912963494658" lon="-5.56969796307385">
        <ele>130.88</ele>
        <time>2026-06-23T18:22:53Z</time>
      </trkpt>
      <trkpt lat="50.189015977084637" lon="-5.569638032466173">
        <ele>129.91999999999999</ele>
        <time>2026-06-23T18:22:54Z</time>
      </trkpt>
      <trkpt lat="50.189119996502995" lon="-5.56956703774631">
        <ele>129.43000000000001</ele>
        <time>2026-06-23T18:22:55Z</time>
      </trkpt>
      <trkpt lat="50.189217980951071" lon="-5.569473998621106">
        <ele>128.47</ele>
        <time>2026-06-23T18:22:56Z</time>
      </trkpt>
      <trkpt lat="50.189316971227527" lon="-5.569380037486553">
        <ele>127.51000000000001</ele>
        <time>2026-06-23T18:22:57Z</time>
      </trkpt>
      <trkpt lat="50.189931029453874" lon="-5.568565987050533">
        <ele>118.38</ele>
        <time>2026-06-23T18:23:04Z</time>
      </trkpt>
      <trkpt lat="50.1900730188936" lon="-5.568356020376086">
        <ele>117.42</ele>
        <time>2026-06-23T18:23:06Z</time>
      </trkpt>
      <trkpt lat="50.190135966986418" lon="-5.568260969594121">
        <ele>116.94</ele>
        <time>2026-06-23T18:23:07Z</time>
      </trkpt>
      <trkpt lat="50.190172009170055" lon="-5.568156028166413">
        <ele>116.45999999999999</ele>
        <time>2026-06-23T18:23:08Z</time>
      </trkpt>
      <trkpt lat="50.190196987241507" lon="-5.568014960736036">
        <ele>115.5</ele>
        <time>2026-06-23T18:23:09Z</time>
      </trkpt>
      <trkpt lat="50.1902249827981" lon="-5.567855034023523">
        <ele>114.53</ele>
        <time>2026-06-23T18:23:10Z</time>
      </trkpt>
      <trkpt lat="50.190245015546679" lon="-5.567683959379792">
        <ele>113.09</ele>
        <time>2026-06-23T18:23:11Z</time>
      </trkpt>
      <trkpt lat="50.190238980576396" lon="-5.567482961341739">
        <ele>112.13</ele>
        <time>2026-06-23T18:23:12Z</time>
      </trkpt>
      <trkpt lat="50.190232023596764" lon="-5.567266959697008">
        <ele>111.65000000000001</ele>
        <time>2026-06-23T18:23:13Z</time>
      </trkpt>
      <trkpt lat="50.1902249827981" lon="-5.567044001072645">
        <ele>111.17</ele>
        <time>2026-06-23T18:23:14Z</time>
      </trkpt>
      <trkpt lat="50.190211990848184" lon="-5.5666249897331">
        <ele>110.69</ele>
        <time>2026-06-23T18:23:16Z</time>
      </trkpt>
      <trkpt lat="50.190206039696932" lon="-5.566448969766498">
        <ele>110.20999999999999</ele>
        <time>2026-06-23T18:23:17Z</time>
      </trkpt>
      <trkpt lat="50.190220037475228" lon="-5.566278984770179">
        <ele>110.20999999999999</ele>
        <time>2026-06-23T18:23:18Z</time>
      </trkpt>
      <trkpt lat="50.190506028011441" lon="-5.564860012382269">
        <ele>115.01000000000001</ele>
        <time>2026-06-23T18:23:26Z</time>
      </trkpt>
      <trkpt lat="50.190554978325963" lon="-5.564715005457401">
        <ele>116.94</ele>
        <time>2026-06-23T18:23:27Z</time>
      </trkpt>
      <trkpt lat="50.190636031329632" lon="-5.564608974382281">
        <ele>118.86</ele>
        <time>2026-06-23T18:23:28Z</time>
      </trkpt>
      <trkpt lat="50.190720017999411" lon="-5.564499003812671">
        <ele>120.78</ele>
        <time>2026-06-23T18:23:29Z</time>
      </trkpt>
      <trkpt lat="50.190825965255499" lon="-5.564361037686467">
        <ele>122.70999999999999</ele>
        <time>2026-06-23T18:23:30Z</time>
      </trkpt>
      <trkpt lat="50.190909029915929" lon="-5.564289959147573">
        <ele>124.15000000000001</ele>
        <time>2026-06-23T18:23:31Z</time>
      </trkpt>
      <trkpt lat="50.191422002390027" lon="-5.563849993050098">
        <ele>130.40000000000001</ele>
        <time>2026-06-23T18:23:36Z</time>
      </trkpt>
      <trkpt lat="50.191534990444779" lon="-5.563797019422054">
        <ele>130.88</ele>
        <time>2026-06-23T18:23:37Z</time>
      </trkpt>
      <trkpt lat="50.191647978499532" lon="-5.56374697946012">
        <ele>131.84</ele>
        <time>2026-06-23T18:23:38Z</time>
      </trkpt>
      <trkpt lat="50.191763984039426" lon="-5.563694005832076">
        <ele>132.31999999999999</ele>
        <time>2026-06-23T18:23:39Z</time>
      </trkpt>
      <trkpt lat="50.191886024549603" lon="-5.563640026375651">
        <ele>132.80000000000001</ele>
        <time>2026-06-23T18:23:40Z</time>
      </trkpt>
      <trkpt lat="50.192048968747258" lon="-5.563567019999027">
        <ele>133.75999999999999</ele>
        <time>2026-06-23T18:23:41Z</time>
      </trkpt>
      <trkpt lat="50.192146031185985" lon="-5.563476998358965">
        <ele>135.19999999999999</ele>
        <time>2026-06-23T18:23:42Z</time>
      </trkpt>
      <trkpt lat="50.193392001092434" lon="-5.562205966562033">
        <ele>142.41</ele>
        <time>2026-06-23T18:23:51Z</time>
      </trkpt>
      <trkpt lat="50.193754015490413" lon="-5.561788966879249">
        <ele>141.93000000000001</ele>
        <time>2026-06-23T18:23:54Z</time>
      </trkpt>
      <trkpt lat="50.193851999938488" lon="-5.561635997146368">
        <ele>141.44999999999999</ele>
        <time>2026-06-23T18:23:55Z</time>
      </trkpt>
      <trkpt lat="50.193925006315112" lon="-5.561464000493288">
        <ele>141.44999999999999</ele>
        <time>2026-06-23T18:23:56Z</time>
      </trkpt>
      <trkpt lat="50.194430015981197" lon="-5.559879988431931">
        <ele>139.53</ele>
        <time>2026-06-23T18:24:03Z</time>
      </trkpt>
      <trkpt lat="50.194445019587874" lon="-5.559630040079355">
        <ele>139.05000000000001</ele>
        <time>2026-06-23T18:24:04Z</time>
      </trkpt>
      <trkpt lat="50.194459017366171" lon="-5.559391994029284">
        <ele>139.05000000000001</ele>
        <time>2026-06-23T18:24:05Z</time>
      </trkpt>
      <trkpt lat="50.194471003487706" lon="-5.559178004041314">
        <ele>139.53</ele>
        <time>2026-06-23T18:24:06Z</time>
      </trkpt>
      <trkpt lat="50.194447031244636" lon="-5.558983962982893">
        <ele>140.00999999999999</ele>
        <time>2026-06-23T18:24:07Z</time>
      </trkpt>
      <trkpt lat="50.194407971575856" lon="-5.558781959116459">
        <ele>140.97</ele>
        <time>2026-06-23T18:24:08Z</time>
      </trkpt>
      <trkpt lat="50.194366984069347" lon="-5.55856796912849">
        <ele>141.93000000000001</ele>
        <time>2026-06-23T18:24:09Z</time>
      </trkpt>
      <trkpt lat="50.193959958851337" lon="-5.556223969906569">
        <ele>156.34999999999999</ele>
        <time>2026-06-23T18:24:19Z</time>
      </trkpt>
      <trkpt lat="50.193786034360528" lon="-5.554570974782109">
        <ele>163.08000000000001</ele>
        <time>2026-06-23T18:24:26Z</time>
      </trkpt>
      <trkpt lat="50.193729037418962" lon="-5.55440098978579">
        <ele>164.03999999999999</ele>
        <time>2026-06-23T18:24:27Z</time>
      </trkpt>
      <trkpt lat="50.193646978586912" lon="-5.554266963154078">
        <ele>165</ele>
        <time>2026-06-23T18:24:28Z</time>
      </trkpt>
      <trkpt lat="50.193559974431992" lon="-5.554132014513016">
        <ele>166.44999999999999</ele>
        <time>2026-06-23T18:24:29Z</time>
      </trkpt>
      <trkpt lat="50.193465007469058" lon="-5.553987007588148">
        <ele>167.88999999999999</ele>
        <time>2026-06-23T18:24:30Z</time>
      </trkpt>
      <trkpt lat="50.193381020799279" lon="-5.553809981793165">
        <ele>169.33000000000001</ele>
        <time>2026-06-23T18:24:31Z</time>
      </trkpt>
      <trkpt lat="50.19329602830112" lon="-5.553618036210537">
        <ele>170.77000000000001</ele>
        <time>2026-06-23T18:24:32Z</time>
      </trkpt>
      <trkpt lat="50.193163007497787" lon="-5.553248981013894">
        <ele>173.16999999999999</ele>
        <time>2026-06-23T18:24:34Z</time>
      </trkpt>
      <trkpt lat="50.193121014162898" lon="-5.553072961047292">
        <ele>174.13999999999999</ele>
        <time>2026-06-23T18:24:35Z</time>
      </trkpt>
      <trkpt lat="50.193109028041363" lon="-5.552900964394212">
        <ele>174.62</ele>
        <time>2026-06-23T18:24:36Z</time>
      </trkpt>
      <trkpt lat="50.193108022212982" lon="-5.552747994661331">
        <ele>175.58000000000001</ele>
        <time>2026-06-23T18:24:37Z</time>
      </trkpt>
      <trkpt lat="50.193141968920827" lon="-5.552622014656663">
        <ele>175.58000000000001</ele>
        <time>2026-06-23T18:24:38Z</time>
      </trkpt>
      <trkpt lat="50.193180022761226" lon="-5.55248798802495">
        <ele>176.06</ele>
        <time>2026-06-23T18:24:39Z</time>
      </trkpt>
      <trkpt lat="50.193220004439354" lon="-5.552343986928463">
        <ele>176.06</ele>
        <time>2026-06-23T18:24:40Z</time>
      </trkpt>
      <trkpt lat="50.193265015259385" lon="-5.552180036902428">
        <ele>176.53999999999999</ele>
        <time>2026-06-23T18:24:41Z</time>
      </trkpt>
      <trkpt lat="50.193314971402287" lon="-5.551998987793922">
        <ele>177.02000000000001</ele>
        <time>2026-06-23T18:24:42Z</time>
      </trkpt>
      <trkpt lat="50.193801959976554" lon="-5.550239039584994">
        <ele>187.11000000000001</ele>
        <time>2026-06-23T18:24:50Z</time>
      </trkpt>
      <trkpt lat="50.193935986608267" lon="-5.549834026023746">
        <ele>190.96000000000001</ele>
        <time>2026-06-23T18:24:53Z</time>
      </trkpt>
      <trkpt lat="50.193974040448666" lon="-5.549742998555303">
        <ele>191.91999999999999</ele>
        <time>2026-06-23T18:24:54Z</time>
      </trkpt>
      <trkpt lat="50.194380981847644" lon="-5.548772038891912">
        <ele>199.61000000000001</ele>
        <time>2026-06-23T18:25:04Z</time>
      </trkpt>
      <trkpt lat="50.194578962400556" lon="-5.548222018405795">
        <ele>199.61000000000001</ele>
        <time>2026-06-23T18:25:09Z</time>
      </trkpt>
      <trkpt lat="50.194611987099051" lon="-5.54808204062283">
        <ele>198.65000000000001</ele>
        <time>2026-06-23T18:25:10Z</time>
      </trkpt>
      <trkpt lat="50.19463000819087" lon="-5.547926975414157">
        <ele>197.69</ele>
        <time>2026-06-23T18:25:11Z</time>
      </trkpt>
      <trkpt lat="50.194680970162153" lon="-5.546954004094005">
        <ele>192.40000000000001</ele>
        <time>2026-06-23T18:25:18Z</time>
      </trkpt>
      <trkpt lat="50.194682981818914" lon="-5.54677396081388">
        <ele>191.44</ele>
        <time>2026-06-23T18:25:19Z</time>
      </trkpt>
      <trkpt lat="50.194595977663994" lon="-5.546201979741454">
        <ele>188.56</ele>
        <time>2026-06-23T18:25:22Z</time>
      </trkpt>
      <trkpt lat="50.19456697627902" lon="-5.546013973653317">
        <ele>188.08000000000001</ele>
        <time>2026-06-23T18:25:23Z</time>
      </trkpt>
      <trkpt lat="50.194517020136118" lon="-5.545681966468692">
        <ele>188.08000000000001</ele>
        <time>2026-06-23T18:25:25Z</time>
      </trkpt>
      <trkpt lat="50.194493969902396" lon="-5.545501001179218">
        <ele>187.59</ele>
        <time>2026-06-23T18:25:26Z</time>
      </trkpt>
      <trkpt lat="50.194488018751144" lon="-5.545286005362868">
        <ele>187.59</ele>
        <time>2026-06-23T18:25:27Z</time>
      </trkpt>
      <trkpt lat="50.19448097795248" lon="-5.5450529884547">
        <ele>188.08000000000001</ele>
        <time>2026-06-23T18:25:28Z</time>
      </trkpt>
      <trkpt lat="50.194474020972848" lon="-5.544790970161557">
        <ele>188.08000000000001</ele>
        <time>2026-06-23T18:25:29Z</time>
      </trkpt>
      <trkpt lat="50.194481983780861" lon="-5.544616961851716">
        <ele>188.56</ele>
        <time>2026-06-23T18:25:30Z</time>
      </trkpt>
      <trkpt lat="50.194490030407906" lon="-5.544425016269088">
        <ele>188.56</ele>
        <time>2026-06-23T18:25:31Z</time>
      </trkpt>
      <trkpt lat="50.1946060359478" lon="-5.543874995782971">
        <ele>188.56</ele>
        <time>2026-06-23T18:25:34Z</time>
      </trkpt>
      <trkpt lat="50.194646017625928" lon="-5.543718002736569">
        <ele>188.56</ele>
        <time>2026-06-23T18:25:35Z</time>
      </trkpt>
      <trkpt lat="50.194707959890366" lon="-5.543569978326559">
        <ele>188.56</ele>
        <time>2026-06-23T18:25:36Z</time>
      </trkpt>
      <trkpt lat="50.195092018693686" lon="-5.542867993935943">
        <ele>188.08000000000001</ele>
        <time>2026-06-23T18:25:42Z</time>
      </trkpt>
      <trkpt lat="50.195186985656619" lon="-5.542794987559319">
        <ele>187.59</ele>
        <time>2026-06-23T18:25:43Z</time>
      </trkpt>
      <trkpt lat="50.195292010903358" lon="-5.542714018374682">
        <ele>187.59</ele>
        <time>2026-06-23T18:25:44Z</time>
      </trkpt>
      <trkpt lat="50.195412961766124" lon="-5.542636988684535">
        <ele>187.11000000000001</ele>
        <time>2026-06-23T18:25:45Z</time>
      </trkpt>
      <trkpt lat="50.195554029196501" lon="-5.542566999793053">
        <ele>187.11000000000001</ele>
        <time>2026-06-23T18:25:46Z</time>
      </trkpt>
      <trkpt lat="50.19570498727262" lon="-5.542490975931287">
        <ele>186.63</ele>
        <time>2026-06-23T18:25:47Z</time>
      </trkpt>
      <trkpt lat="50.196503028273582" lon="-5.542205991223455">
        <ele>185.19</ele>
        <time>2026-06-23T18:25:52Z</time>
      </trkpt>
      <trkpt lat="50.19664702937007" lon="-5.542202973738313">
        <ele>184.71000000000001</ele>
        <time>2026-06-23T18:25:53Z</time>
      </trkpt>
      <trkpt lat="50.196792958304286" lon="-5.542213032022119">
        <ele>184.22999999999999</ele>
        <time>2026-06-23T18:25:54Z</time>
      </trkpt>
      <trkpt lat="50.198172032833099" lon="-5.542161986231804">
        <ele>175.09999999999999</ele>
        <time>2026-06-23T18:26:04Z</time>
      </trkpt>
      <trkpt lat="50.198820037767291" lon="-5.542091997340322">
        <ele>170.77000000000001</ele>
        <time>2026-06-23T18:26:09Z</time>
      </trkpt>
      <trkpt lat="50.198943000286818" lon="-5.542103983461857">
        <ele>169.33000000000001</ele>
        <time>2026-06-23T18:26:10Z</time>
      </trkpt>
      <trkpt lat="50.199067974463105" lon="-5.542144970968366">
        <ele>167.41</ele>
        <time>2026-06-23T18:26:11Z</time>
      </trkpt>
      <trkpt lat="50.199467958882451" lon="-5.542244967073202">
        <ele>161.63999999999999</ele>
        <time>2026-06-23T18:26:14Z</time>
      </trkpt>
      <trkpt lat="50.199603997170925" lon="-5.542253013700247">
        <ele>159.72</ele>
        <time>2026-06-23T18:26:15Z</time>
      </trkpt>
      <trkpt lat="50.199737017974257" lon="-5.542253013700247">
        <ele>157.78999999999999</ele>
        <time>2026-06-23T18:26:16Z</time>
      </trkpt>
      <trkpt lat="50.199867021292448" lon="-5.542223006486893">
        <ele>155.87</ele>
        <time>2026-06-23T18:26:17Z</time>
      </trkpt>
      <trkpt lat="50.199987972155213" lon="-5.5421950109303">
        <ele>153.94999999999999</ele>
        <time>2026-06-23T18:26:18Z</time>
      </trkpt>
      <trkpt lat="50.200095009058714" lon="-5.542104989290237">
        <ele>152.03</ele>
        <time>2026-06-23T18:26:19Z</time>
      </trkpt>
      <trkpt lat="50.200188970193267" lon="-5.542025025933981">
        <ele>150.09999999999999</ele>
        <time>2026-06-23T18:26:20Z</time>
      </trkpt>
      <trkpt lat="50.200267005711794" lon="-5.541958976536989">
        <ele>148.66</ele>
        <time>2026-06-23T18:26:21Z</time>
      </trkpt>
      <trkpt lat="50.200330959632993" lon="-5.541816987097263">
        <ele>147.22</ele>
        <time>2026-06-23T18:26:22Z</time>
      </trkpt>
      <trkpt lat="50.200390974059701" lon="-5.541684972122312">
        <ele>146.25999999999999</ele>
        <time>2026-06-23T18:26:23Z</time>
      </trkpt>
      <trkpt lat="50.200460962951183" lon="-5.54152999073267">
        <ele>144.81999999999999</ele>
        <time>2026-06-23T18:26:24Z</time>
      </trkpt>
      <trkpt lat="50.200490970164537" lon="-5.541396969929338">
        <ele>143.37</ele>
        <time>2026-06-23T18:26:25Z</time>
      </trkpt>
      <trkpt lat="50.200527012348175" lon="-5.541237965226173">
        <ele>141.93000000000001</ele>
        <time>2026-06-23T18:26:26Z</time>
      </trkpt>
      <trkpt lat="50.2005619648844" lon="-5.541083989664912">
        <ele>140.97</ele>
        <time>2026-06-23T18:26:27Z</time>
      </trkpt>
      <trkpt lat="50.200572023168206" lon="-5.540935965254903">
        <ele>140.00999999999999</ele>
        <time>2026-06-23T18:26:28Z</time>
      </trkpt>
      <trkpt lat="50.200589960440993" lon="-5.539665017277002">
        <ele>137.61000000000001</ele>
        <time>2026-06-23T18:26:38Z</time>
      </trkpt>
      <trkpt lat="50.200533969327807" lon="-5.539257992058992">
        <ele>135.68000000000001</ele>
        <time>2026-06-23T18:26:43Z</time>
      </trkpt>
      <trkpt lat="50.200525000691414" lon="-5.539192026481032">
        <ele>135.68000000000001</ele>
        <time>2026-06-23T18:26:44Z</time>
      </trkpt>
      <trkpt lat="50.200507985427976" lon="-5.539122959598899">
        <ele>135.19999999999999</ele>
        <time>2026-06-23T18:26:45Z</time>
      </trkpt>
      <trkpt lat="50.200488958507776" lon="-5.539050959050655">
        <ele>135.19999999999999</ele>
        <time>2026-06-23T18:26:46Z</time>
      </trkpt>
      <trkpt lat="50.200470015406609" lon="-5.538975019007921">
        <ele>134.72</ele>
        <time>2026-06-23T18:26:47Z</time>
      </trkpt>
      <trkpt lat="50.200373036786914" lon="-5.538589032366872">
        <ele>135.19999999999999</ele>
        <time>2026-06-23T18:26:52Z</time>
      </trkpt>
      <trkpt lat="50.200250996276736" lon="-5.538106989115477">
        <ele>136.63999999999999</ele>
        <time>2026-06-23T18:26:58Z</time>
      </trkpt>
      <trkpt lat="50.200230041518807" lon="-5.53802601993084">
        <ele>136.63999999999999</ele>
        <time>2026-06-23T18:26:59Z</time>
      </trkpt>
      <trkpt lat="50.200166003778577" lon="-5.5377690307796">
        <ele>137.13</ele>
        <time>2026-06-23T18:27:02Z</time>
      </trkpt>
      <trkpt lat="50.200133984908462" lon="-5.537643972784281">
        <ele>137.13</ele>
        <time>2026-06-23T18:27:03Z</time>
      </trkpt>
      <trkpt lat="50.200099032372236" lon="-5.537503995001316">
        <ele>137.13</ele>
        <time>2026-06-23T18:27:04Z</time>
      </trkpt>
      <trkpt lat="50.199942961335182" lon="-5.535798026248813">
        <ele>138.56999999999999</ele>
        <time>2026-06-23T18:27:14Z</time>
      </trkpt>
      <trkpt lat="50.199675997719169" lon="-5.534087028354406">
        <ele>140.97</ele>
        <time>2026-06-23T18:27:23Z</time>
      </trkpt>
      <trkpt lat="50.199238965287805" lon="-5.532893026247621">
        <ele>141.93000000000001</ele>
        <time>2026-06-23T18:27:29Z</time>
      </trkpt>
      <trkpt lat="50.199137041345239" lon="-5.532723963260651">
        <ele>141.44999999999999</ele>
        <time>2026-06-23T18:27:30Z</time>
      </trkpt>
      <trkpt lat="50.198734039440751" lon="-5.532023990526795">
        <ele>140.97</ele>
        <time>2026-06-23T18:27:34Z</time>
      </trkpt>
      <trkpt lat="50.198652986437082" lon="-5.531800026074052">
        <ele>140.00999999999999</ele>
        <time>2026-06-23T18:27:35Z</time>
      </trkpt>
      <trkpt lat="50.198466992005706" lon="-5.531322006136179">
        <ele>138.56999999999999</ele>
        <time>2026-06-23T18:27:37Z</time>
      </trkpt>
      <trkpt lat="50.197782022878528" lon="-5.529690971598029">
        <ele>136.16</ele>
        <time>2026-06-23T18:27:44Z</time>
      </trkpt>
      <trkpt lat="50.197743969038129" lon="-5.529458038508892">
        <ele>135.68000000000001</ele>
        <time>2026-06-23T18:27:45Z</time>
      </trkpt>
      <trkpt lat="50.197725025936961" lon="-5.529211023822427">
        <ele>136.16</ele>
        <time>2026-06-23T18:27:46Z</time>
      </trkpt>
      <trkpt lat="50.197707004845142" lon="-5.528974989429116">
        <ele>136.16</ele>
        <time>2026-06-23T18:27:47Z</time>
      </trkpt>
      <trkpt lat="50.197693007066846" lon="-5.528783965855837">
        <ele>136.16</ele>
        <time>2026-06-23T18:27:48Z</time>
      </trkpt>
      <trkpt lat="50.197721002623439" lon="-5.528583973646164">
        <ele>136.16</ele>
        <time>2026-06-23T18:27:49Z</time>
      </trkpt>
      <trkpt lat="50.197759978473186" lon="-5.528416000306606">
        <ele>136.16</ele>
        <time>2026-06-23T18:27:50Z</time>
      </trkpt>
      <trkpt lat="50.197814041748643" lon="-5.528266970068216">
        <ele>136.16</ele>
        <time>2026-06-23T18:27:51Z</time>
      </trkpt>
      <trkpt lat="50.197866009548306" lon="-5.528120035305619">
        <ele>135.68000000000001</ele>
        <time>2026-06-23T18:27:52Z</time>
      </trkpt>
      <trkpt lat="50.19791797734797" lon="-5.527976034209132">
        <ele>135.68000000000001</ele>
        <time>2026-06-23T18:27:53Z</time>
      </trkpt>
      <trkpt lat="50.197923006489873" lon="-5.527819963172078">
        <ele>136.16</ele>
        <time>2026-06-23T18:27:54Z</time>
      </trkpt>
      <trkpt lat="50.197915965691209" lon="-5.527657018974423">
        <ele>137.13</ele>
        <time>2026-06-23T18:27:55Z</time>
      </trkpt>
      <trkpt lat="50.197908002883196" lon="-5.527491979300976">
        <ele>137.61000000000001</ele>
        <time>2026-06-23T18:27:56Z</time>
      </trkpt>
      <trkpt lat="50.197900962084532" lon="-5.52732702344656">
        <ele>138.09</ele>
        <time>2026-06-23T18:27:57Z</time>
      </trkpt>
      <trkpt lat="50.197914037853479" lon="-5.526757976040244">
        <ele>143.84999999999999</ele>
        <time>2026-06-23T18:28:03Z</time>
      </trkpt>
      <trkpt lat="50.197918983176351" lon="-5.526714976876974">
        <ele>144.81999999999999</ele>
        <time>2026-06-23T18:28:04Z</time>
      </trkpt>
      <trkpt lat="50.197872966527939" lon="-5.526608023792505">
        <ele>145.78</ele>
        <time>2026-06-23T18:28:05Z</time>
      </trkpt>
      <trkpt lat="50.197812030091882" lon="-5.526574999094009">
        <ele>146.25999999999999</ele>
        <time>2026-06-23T18:28:06Z</time>
      </trkpt>
      <trkpt lat="50.197731982916594" lon="-5.526530994102359">
        <ele>146.74000000000001</ele>
        <time>2026-06-23T18:28:07Z</time>
      </trkpt>
      <trkpt lat="50.197640033438802" lon="-5.526481037959456">
        <ele>147.22</ele>
        <time>2026-06-23T18:28:08Z</time>
      </trkpt>
      <trkpt lat="50.197537019848824" lon="-5.526424963027239">
        <ele>147.22</ele>
        <time>2026-06-23T18:28:09Z</time>
      </trkpt>
      <trkpt lat="50.197304002940655" lon="-5.52629797719419">
        <ele>147.69999999999999</ele>
        <time>2026-06-23T18:28:11Z</time>
      </trkpt>
      <trkpt lat="50.196077981963754" lon="-5.525631029158831">
        <ele>148.66</ele>
        <time>2026-06-23T18:28:20Z</time>
      </trkpt>
      <trkpt lat="50.194152994081378" lon="-5.524413976818323">
        <ele>151.53999999999999</ele>
        <time>2026-06-23T18:28:35Z</time>
      </trkpt>
      <trkpt lat="50.193789973855019" lon="-5.524179032072425">
        <ele>153.47</ele>
        <time>2026-06-23T18:28:38Z</time>
      </trkpt>
      <trkpt lat="50.19366399385035" lon="-5.524055985733867">
        <ele>154.43000000000001</ele>
        <time>2026-06-23T18:28:39Z</time>
      </trkpt>
      <trkpt lat="50.192578034475446" lon="-5.522604994475842">
        <ele>159.72</ele>
        <time>2026-06-23T18:28:47Z</time>
      </trkpt>
      <trkpt lat="50.191548988223076" lon="-5.521384002640843">
        <ele>165.96000000000001</ele>
        <time>2026-06-23T18:28:55Z</time>
      </trkpt>
      <trkpt lat="50.191508000716567" lon="-5.521323988214135">
        <ele>166.44999999999999</ele>
        <time>2026-06-23T18:28:56Z</time>
      </trkpt>
      <trkpt lat="50.191482016816735" lon="-5.521286018192768">
        <ele>167.41</ele>
        <time>2026-06-23T18:29:03Z</time>
      </trkpt>
      <trkpt lat="50.19129803404212" lon="-5.521016037091613">
        <ele>168.84999999999999</ele>
        <time>2026-06-23T18:29:12Z</time>
      </trkpt>
      <trkpt lat="50.191228967159986" lon="-5.520955016836524">
        <ele>168.84999999999999</ele>
        <time>2026-06-23T18:29:13Z</time>
      </trkpt>
      <trkpt lat="50.191164007410407" lon="-5.520897014066577">
        <ele>169.33000000000001</ele>
        <time>2026-06-23T18:29:14Z</time>
      </trkpt>
      <trkpt lat="50.191084966063499" lon="-5.520835993811488">
        <ele>169.33000000000001</ele>
        <time>2026-06-23T18:29:15Z</time>
      </trkpt>
      <trkpt lat="50.19039697945118" lon="-5.520511027425528">
        <ele>167.41</ele>
        <time>2026-06-23T18:29:23Z</time>
      </trkpt>
      <trkpt lat="50.19031198695302" lon="-5.520445983856916">
        <ele>167.41</ele>
        <time>2026-06-23T18:29:24Z</time>
      </trkpt>
      <trkpt lat="50.1902249827981" lon="-5.520379012450576">
        <ele>166.93000000000001</ele>
        <time>2026-06-23T18:29:25Z</time>
      </trkpt>
      <trkpt lat="50.190134039148688" lon="-5.520310029387474">
        <ele>166.44999999999999</ele>
        <time>2026-06-23T18:29:26Z</time>
      </trkpt>
      <trkpt lat="50.190037982538342" lon="-5.520236017182469">
        <ele>165.96000000000001</ele>
        <time>2026-06-23T18:29:27Z</time>
      </trkpt>
      <trkpt lat="50.189332980662584" lon="-5.519607039168477">
        <ele>163.56</ele>
        <time>2026-06-23T18:29:36Z</time>
      </trkpt>
      <trkpt lat="50.188470985740423" lon="-5.518873035907745">
        <ele>161.63999999999999</ele>
        <time>2026-06-23T18:29:44Z</time>
      </trkpt>
      <trkpt lat="50.187917025759816" lon="-5.518554020673037">
        <ele>160.19999999999999</ele>
        <time>2026-06-23T18:29:48Z</time>
      </trkpt>
      <trkpt lat="50.18779800273478" lon="-5.518485959619284">
        <ele>159.72</ele>
        <time>2026-06-23T18:29:49Z</time>
      </trkpt>
      <trkpt lat="50.187693983316422" lon="-5.518380012363195">
        <ele>159.72</ele>
        <time>2026-06-23T18:29:50Z</time>
      </trkpt>
      <trkpt lat="50.187488039955497" lon="-5.518113970756531">
        <ele>159.24000000000001</ele>
        <time>2026-06-23T18:29:52Z</time>
      </trkpt>
      <trkpt lat="50.186969032511115" lon="-5.517322970554233">
        <ele>157.31</ele>
        <time>2026-06-23T18:29:58Z</time>
      </trkpt>
      <trkpt lat="50.186902983114123" lon="-5.517218029126525">
        <ele>156.83000000000001</ele>
        <time>2026-06-23T18:29:59Z</time>
      </trkpt>
      <trkpt lat="50.186835005879402" lon="-5.517102023586631">
        <ele>156.34999999999999</ele>
        <time>2026-06-23T18:30:00Z</time>
      </trkpt>
      <trkpt lat="50.186828970909119" lon="-5.516966991126537">
        <ele>155.87</ele>
        <time>2026-06-23T18:30:01Z</time>
      </trkpt>
      <trkpt lat="50.186823019757867" lon="-5.516815027222037">
        <ele>155.38999999999999</ele>
        <time>2026-06-23T18:30:02Z</time>
      </trkpt>
      <trkpt lat="50.186815978959203" lon="-5.516648981720209">
        <ele>155.38999999999999</ele>
        <time>2026-06-23T18:30:03Z</time>
      </trkpt>
      <trkpt lat="50.186843974515796" lon="-5.516472039744258">
        <ele>155.38999999999999</ele>
        <time>2026-06-23T18:30:04Z</time>
      </trkpt>
      <trkpt lat="50.186884040012956" lon="-5.516315968707204">
        <ele>154.91</ele>
        <time>2026-06-23T18:30:05Z</time>
      </trkpt>
      <trkpt lat="50.186939025297761" lon="-5.516170039772987">
        <ele>154.91</ele>
        <time>2026-06-23T18:30:06Z</time>
      </trkpt>
      <trkpt lat="50.18700398504734" lon="-5.516032995656133">
        <ele>155.38999999999999</ele>
        <time>2026-06-23T18:30:07Z</time>
      </trkpt>
      <trkpt lat="50.187072968110442" lon="-5.515888994559646">
        <ele>155.87</ele>
        <time>2026-06-23T18:30:08Z</time>
      </trkpt>
      <trkpt lat="50.187588036060333" lon="-5.514542022719979">
        <ele>159.72</ele>
        <time>2026-06-23T18:30:15Z</time>
      </trkpt>
      <trkpt lat="50.187962958589196" lon="-5.513219023123384">
        <ele>163.08000000000001</ele>
        <time>2026-06-23T18:30:21Z</time>
      </trkpt>
      <trkpt lat="50.187993971630931" lon="-5.513008972629905">
        <ele>163.56</ele>
        <time>2026-06-23T18:30:22Z</time>
      </trkpt>
      <trkpt lat="50.188135039061308" lon="-5.511262016370893">
        <ele>166.44999999999999</ele>
        <time>2026-06-23T18:30:29Z</time>
      </trkpt>
      <trkpt lat="50.188106037676334" lon="-5.510643012821674">
        <ele>167.88999999999999</ele>
        <time>2026-06-23T18:30:32Z</time>
      </trkpt>
      <trkpt lat="50.188074018806219" lon="-5.510489959269762">
        <ele>168.37</ele>
        <time>2026-06-23T18:30:33Z</time>
      </trkpt>
      <trkpt lat="50.188009981065989" lon="-5.510413013398647">
        <ele>168.84999999999999</ele>
        <time>2026-06-23T18:30:34Z</time>
      </trkpt>
      <trkpt lat="50.187939992174506" lon="-5.510328020900488">
        <ele>168.84999999999999</ele>
        <time>2026-06-23T18:30:35Z</time>
      </trkpt>
      <trkpt lat="50.187864974141121" lon="-5.510237999260426">
        <ele>168.84999999999999</ele>
        <time>2026-06-23T18:30:36Z</time>
      </trkpt>
      <trkpt lat="50.187802026048303" lon="-5.510160969570279">
        <ele>168.84999999999999</ele>
        <time>2026-06-23T18:30:37Z</time>
      </trkpt>
      <trkpt lat="50.187761960551143" lon="-5.510113025084138">
        <ele>169.33000000000001</ele>
        <time>2026-06-23T18:30:38Z</time>
      </trkpt>
      <trkpt lat="50.187736982479692" lon="-5.510082012042403">
        <ele>169.33000000000001</ele>
        <time>2026-06-23T18:30:39Z</time>
      </trkpt>
      <trkpt lat="50.187717033550143" lon="-5.510058961808682">
        <ele>169.33000000000001</ele>
        <time>2026-06-23T18:30:40Z</time>
      </trkpt>
      <trkpt lat="50.187717033550143" lon="-5.510058961808682">
        <ele>169.81</ele>
        <time>2026-06-23T18:30:41Z</time>
      </trkpt>
      <trkpt lat="50.187717033550143" lon="-5.510058961808682">
        <ele>169.81</ele>
        <time>2026-06-23T18:30:56Z</time>
      </trkpt>
      <trkpt lat="50.187692977488041" lon="-5.510029960423708">
        <ele>169.81</ele>
        <time>2026-06-23T18:31:01Z</time>
      </trkpt>
      <trkpt lat="50.187692977488041" lon="-5.510029960423708">
        <ele>169.81</ele>
        <time>2026-06-23T18:31:02Z</time>
      </trkpt>
      <trkpt lat="50.187683003023267" lon="-5.509957959875464">
        <ele>169.33000000000001</ele>
        <time>2026-06-23T18:31:03Z</time>
      </trkpt>
      <trkpt lat="50.187628017738461" lon="-5.509570967406035">
        <ele>168.84999999999999</ele>
        <time>2026-06-23T18:31:06Z</time>
      </trkpt>
      <trkpt lat="50.187607984989882" lon="-5.509407017379999">
        <ele>168.84999999999999</ele>
        <time>2026-06-23T18:31:07Z</time>
      </trkpt>
      <trkpt lat="50.187627011910081" lon="-5.5083570163697">
        <ele>167.41</ele>
        <time>2026-06-23T18:31:13Z</time>
      </trkpt>
      <trkpt lat="50.187632963061333" lon="-5.506836036220193">
        <ele>163.56</ele>
        <time>2026-06-23T18:31:21Z</time>
      </trkpt>
      <trkpt lat="50.187760032713413" lon="-5.505423014983535">
        <ele>156.83000000000001</ele>
        <time>2026-06-23T18:31:28Z</time>
      </trkpt>
      <trkpt lat="50.187790039926767" lon="-5.504879029467702">
        <ele>153.47</ele>
        <time>2026-06-23T18:31:31Z</time>
      </trkpt>
      <trkpt lat="50.187770007178187" lon="-5.504717007279396">
        <ele>152.50999999999999</ele>
        <time>2026-06-23T18:31:32Z</time>
      </trkpt>
      <trkpt lat="50.187749974429607" lon="-5.504548028111458">
        <ele>152.03</ele>
        <time>2026-06-23T18:31:33Z</time>
      </trkpt>
      <trkpt lat="50.187589041888714" lon="-5.502701997756958">
        <ele>153.94999999999999</ele>
        <time>2026-06-23T18:31:43Z</time>
      </trkpt>
      <trkpt lat="50.187601028010249" lon="-5.502543998882175">
        <ele>154.43000000000001</ele>
        <time>2026-06-23T18:31:44Z</time>
      </trkpt>
      <trkpt lat="50.187650984153152" lon="-5.502402009442449">
        <ele>154.91</ele>
        <time>2026-06-23T18:31:45Z</time>
      </trkpt>
      <trkpt lat="50.188156999647617" lon="-5.501000974327326">
        <ele>158.27000000000001</ele>
        <time>2026-06-23T18:31:53Z</time>
      </trkpt>
      <trkpt lat="50.188208967447281" lon="-5.500855967402458">
        <ele>158.75</ele>
        <time>2026-06-23T18:31:57Z</time>
      </trkpt>
      <trkpt lat="50.188349029049277" lon="-5.500479033216834">
        <ele>159.72</ele>
        <time>2026-06-23T18:32:05Z</time>
      </trkpt>
      <trkpt lat="50.18859101459384" lon="-5.499831028282642">
        <ele>160.19999999999999</ele>
        <time>2026-06-23T18:32:13Z</time>
      </trkpt>
      <trkpt lat="50.188637031242251" lon="-5.499708987772465">
        <ele>160.19999999999999</ele>
        <time>2026-06-23T18:32:20Z</time>
      </trkpt>
      <trkpt lat="50.188684975728393" lon="-5.499657019972801">
        <ele>159.72</ele>
        <time>2026-06-23T18:32:21Z</time>
      </trkpt>
      <trkpt lat="50.189036009833217" lon="-5.499278996139765">
        <ele>157.31</ele>
        <time>2026-06-23T18:32:27Z</time>
      </trkpt>
      <trkpt lat="50.189187973737717" lon="-5.499079003930092">
        <ele>154.91</ele>
        <time>2026-06-23T18:32:31Z</time>
      </trkpt>
      <trkpt lat="50.189171964302659" lon="-5.499013038352132">
        <ele>154.43000000000001</ele>
        <time>2026-06-23T18:32:32Z</time>
      </trkpt>
      <trkpt lat="50.18915100954473" lon="-5.498926034197211">
        <ele>154.43000000000001</ele>
        <time>2026-06-23T18:32:33Z</time>
      </trkpt>
      <trkpt lat="50.189127959311008" lon="-5.498826960101724">
        <ele>153.94999999999999</ele>
        <time>2026-06-23T18:32:34Z</time>
      </trkpt>
      <trkpt lat="50.189101975411177" lon="-5.498720007017255">
        <ele>153.47</ele>
        <time>2026-06-23T18:32:35Z</time>
      </trkpt>
      <trkpt lat="50.189073979854584" lon="-5.498605007305741">
        <ele>153.47</ele>
        <time>2026-06-23T18:32:36Z</time>
      </trkpt>
      <trkpt lat="50.18904497846961" lon="-5.498479027301073">
        <ele>153.47</ele>
        <time>2026-06-23T18:32:37Z</time>
      </trkpt>
      <trkpt lat="50.189068028703332" lon="-5.496828965842724">
        <ele>152.03</ele>
        <time>2026-06-23T18:32:47Z</time>
      </trkpt>
      <trkpt lat="50.189007008448243" lon="-5.494659980759025">
        <ele>149.13999999999999</ele>
        <time>2026-06-23T18:32:56Z</time>
      </trkpt>
      <trkpt lat="50.18895898014307" lon="-5.49441397190094">
        <ele>148.18000000000001</ele>
        <time>2026-06-23T18:32:57Z</time>
      </trkpt>
      <trkpt lat="50.188883040100336" lon="-5.494199981912971">
        <ele>147.69999999999999</ele>
        <time>2026-06-23T18:32:58Z</time>
      </trkpt>
      <trkpt lat="50.188808022066951" lon="-5.493992026895285">
        <ele>146.74000000000001</ele>
        <time>2026-06-23T18:32:59Z</time>
      </trkpt>
      <trkpt lat="50.188734009861946" lon="-5.493787005543709">
        <ele>146.25999999999999</ele>
        <time>2026-06-23T18:33:00Z</time>
      </trkpt>
      <trkpt lat="50.188647005707026" lon="-5.493582990020514">
        <ele>145.78</ele>
        <time>2026-06-23T18:33:01Z</time>
      </trkpt>
      <trkpt lat="50.188539968803525" lon="-5.493411999195814">
        <ele>145.30000000000001</ele>
        <time>2026-06-23T18:33:02Z</time>
      </trkpt>
      <trkpt lat="50.188437039032578" lon="-5.493246959522367">
        <ele>144.34</ele>
        <time>2026-06-23T18:33:03Z</time>
      </trkpt>
      <trkpt lat="50.187764978036284" lon="-5.492383036762476">
        <ele>140.49000000000001</ele>
        <time>2026-06-23T18:33:09Z</time>
      </trkpt>
      <trkpt lat="50.186919998377562" lon="-5.491638975217938">
        <ele>136.63999999999999</ele>
        <time>2026-06-23T18:33:15Z</time>
      </trkpt>
      <trkpt lat="50.186795024201274" lon="-5.49144702963531">
        <ele>135.68000000000001</ele>
        <time>2026-06-23T18:33:16Z</time>
      </trkpt>
      <trkpt lat="50.185935040935874" lon="-5.489731002599001">
        <ele>127.98999999999999</ele>
        <time>2026-06-23T18:33:24Z</time>
      </trkpt>
      <trkpt lat="50.185715015977621" lon="-5.489331018179655">
        <ele>126.06999999999999</ele>
        <time>2026-06-23T18:33:26Z</time>
      </trkpt>
      <trkpt lat="50.185483004897833" lon="-5.488989958539605">
        <ele>123.67</ele>
        <time>2026-06-23T18:33:28Z</time>
      </trkpt>
      <trkpt lat="50.185116967186332" lon="-5.488451002165675">
        <ele>118.86</ele>
        <time>2026-06-23T18:33:31Z</time>
      </trkpt>
      <trkpt lat="50.185010014101863" lon="-5.48824698664248">
        <ele>116.94</ele>
        <time>2026-06-23T18:33:32Z</time>
      </trkpt>
      <trkpt lat="50.184922004118562" lon="-5.488026039674878">
        <ele>115.5</ele>
        <time>2026-06-23T18:33:33Z</time>
      </trkpt>
      <trkpt lat="50.184388998895884" lon="-5.486477985978127">
        <ele>108.29000000000001</ele>
        <time>2026-06-23T18:33:40Z</time>
      </trkpt>
      <trkpt lat="50.184051040560007" lon="-5.484611000865698">
        <ele>103</ele>
        <time>2026-06-23T18:33:48Z</time>
      </trkpt>
      <trkpt lat="50.183961018919945" lon="-5.483845984563232">
        <ele>101.08</ele>
        <time>2026-06-23T18:33:51Z</time>
      </trkpt>
      <trkpt lat="50.183347966521978" lon="-5.481673981994391">
        <ele>98.670000000000002</ele>
        <time>2026-06-23T18:34:01Z</time>
      </trkpt>
      <trkpt lat="50.18287698738277" lon="-5.480795977637172">
        <ele>98.670000000000002</ele>
        <time>2026-06-23T18:34:07Z</time>
      </trkpt>
      <trkpt lat="50.18277196213603" lon="-5.480693969875574">
        <ele>98.670000000000002</ele>
        <time>2026-06-23T18:34:08Z</time>
      </trkpt>
      <trkpt lat="50.1826629973948" lon="-5.480588022619486">
        <ele>98.670000000000002</ele>
        <time>2026-06-23T18:34:09Z</time>
      </trkpt>
      <trkpt lat="50.182042988017201" lon="-5.479884026572108">
        <ele>97.230000000000004</ele>
        <time>2026-06-23T18:34:15Z</time>
      </trkpt>
      <trkpt lat="50.181961013004184" lon="-5.479730973020196">
        <ele>97.230000000000004</ele>
        <time>2026-06-23T18:34:16Z</time>
      </trkpt>
      <trkpt lat="50.181880965828896" lon="-5.479581020772457">
        <ele>96.75</ele>
        <time>2026-06-23T18:34:17Z</time>
      </trkpt>
      <trkpt lat="50.181816006079316" lon="-5.479425033554435">
        <ele>96.269999999999996</ele>
        <time>2026-06-23T18:34:18Z</time>
      </trkpt>
      <trkpt lat="50.181769989430904" lon="-5.479255970567465">
        <ele>95.790000000000006</ele>
        <time>2026-06-23T18:34:19Z</time>
      </trkpt>
      <trkpt lat="50.181707041338086" lon="-5.479023959487677">
        <ele>95.790000000000006</ele>
        <time>2026-06-23T18:34:20Z</time>
      </trkpt>
      <trkpt lat="50.1816959772259" lon="-5.478895967826247">
        <ele>95.310000000000002</ele>
        <time>2026-06-23T18:34:21Z</time>
      </trkpt>
      <trkpt lat="50.181681979447603" lon="-5.47870796173811">
        <ele>94.829999999999998</ele>
        <time>2026-06-23T18:34:22Z</time>
      </trkpt>
      <trkpt lat="50.181665970012546" lon="-5.47851299867034">
        <ele>93.870000000000005</ele>
        <time>2026-06-23T18:34:23Z</time>
      </trkpt>
      <trkpt lat="50.181649960577488" lon="-5.478310994803906">
        <ele>92.900000000000006</ele>
        <time>2026-06-23T18:34:24Z</time>
      </trkpt>
      <trkpt lat="50.181619031354785" lon="-5.478094993159175">
        <ele>92.420000000000002</ele>
        <time>2026-06-23T18:34:25Z</time>
      </trkpt>
      <trkpt lat="50.181575026363134" lon="-5.477884020656347">
        <ele>91.459999999999994</ele>
        <time>2026-06-23T18:34:26Z</time>
      </trkpt>
      <trkpt lat="50.181345026940107" lon="-5.476918006315827">
        <ele>89.060000000000002</ele>
        <time>2026-06-23T18:34:32Z</time>
      </trkpt>
      <trkpt lat="50.181319965049624" lon="-5.476837959140539">
        <ele>89.060000000000002</ele>
        <time>2026-06-23T18:34:33Z</time>
      </trkpt>
      <trkpt lat="50.181333040818572" lon="-5.476713990792632">
        <ele>89.060000000000002</ele>
        <time>2026-06-23T18:34:34Z</time>
      </trkpt>
      <trkpt lat="50.1813730224967" lon="-5.476647019386292">
        <ele>88.579999999999998</ele>
        <time>2026-06-23T18:34:35Z</time>
      </trkpt>
      <trkpt lat="50.181427001953125" lon="-5.47655900940299">
        <ele>88.579999999999998</ele>
        <time>2026-06-23T18:34:36Z</time>
      </trkpt>
      <trkpt lat="50.181490033864975" lon="-5.476453984156251">
        <ele>88.579999999999998</ele>
        <time>2026-06-23T18:34:37Z</time>
      </trkpt>
      <trkpt lat="50.182118006050587" lon="-5.475411023944616">
        <ele>94.829999999999998</ele>
        <time>2026-06-23T18:34:44Z</time>
      </trkpt>
      <trkpt lat="50.183174964040518" lon="-5.472944984212518">
        <ele>112.13</ele>
        <time>2026-06-23T18:34:57Z</time>
      </trkpt>
      <trkpt lat="50.183300022035837" lon="-5.472652958706021">
        <ele>117.90000000000001</ele>
        <time>2026-06-23T18:35:01Z</time>
      </trkpt>
      <trkpt lat="50.183335980400443" lon="-5.472566960379481">
        <ele>120.3</ele>
        <time>2026-06-23T18:35:03Z</time>
      </trkpt>
      <trkpt lat="50.183496996760368" lon="-5.472192959859967">
        <ele>127.03</ele>
        <time>2026-06-23T18:35:11Z</time>
      </trkpt>
      <trkpt lat="50.183636974543333" lon="-5.471965977922082">
        <ele>129.43000000000001</ele>
        <time>2026-06-23T18:35:14Z</time>
      </trkpt>
      <trkpt lat="50.183701012283564" lon="-5.471876040101051">
        <ele>129.91999999999999</ele>
        <time>2026-06-23T18:35:15Z</time>
      </trkpt>
      <trkpt lat="50.184048023074865" lon="-5.471393996849656">
        <ele>130.88</ele>
        <time>2026-06-23T18:35:20Z</time>
      </trkpt>
      <trkpt lat="50.184116000309587" lon="-5.471299029886723">
        <ele>130.88</ele>
        <time>2026-06-23T18:35:21Z</time>
      </trkpt>
      <trkpt lat="50.184153970330954" lon="-5.471142958849669">
        <ele>130.40000000000001</ele>
        <time>2026-06-23T18:35:22Z</time>
      </trkpt>
      <trkpt lat="50.184180038049817" lon="-5.470986971631646">
        <ele>129.91999999999999</ele>
        <time>2026-06-23T18:35:23Z</time>
      </trkpt>
      <trkpt lat="50.184205016121268" lon="-5.470837019383907">
        <ele>129.91999999999999</ele>
        <time>2026-06-23T18:35:24Z</time>
      </trkpt>
      <trkpt lat="50.184227982535958" lon="-5.470699975267053">
        <ele>129.43000000000001</ele>
        <time>2026-06-23T18:35:25Z</time>
      </trkpt>
      <trkpt lat="50.184310963377357" lon="-5.47019999474287">
        <ele>128.47</ele>
        <time>2026-06-23T18:35:29Z</time>
      </trkpt>
      <trkpt lat="50.184388998895884" lon="-5.469732033088803">
        <ele>123.67</ele>
        <time>2026-06-23T18:35:34Z</time>
      </trkpt>
      <trkpt lat="50.184487989172339" lon="-5.469599012285471">
        <ele>122.70999999999999</ele>
        <time>2026-06-23T18:35:35Z</time>
      </trkpt>
      <trkpt lat="50.18455202691257" lon="-5.46951200813055">
        <ele>122.22</ele>
        <time>2026-06-23T18:35:36Z</time>
      </trkpt>
      <trkpt lat="50.184622015804052" lon="-5.469417963176966">
        <ele>121.73999999999999</ele>
        <time>2026-06-23T18:35:37Z</time>
      </trkpt>
      <trkpt lat="50.184697033837438" lon="-5.469316961243749">
        <ele>121.26000000000001</ele>
        <time>2026-06-23T18:35:38Z</time>
      </trkpt>
      <trkpt lat="50.185542013496161" lon="-5.468227984383702">
        <ele>115.5</ele>
        <time>2026-06-23T18:35:49Z</time>
      </trkpt>
      <trkpt lat="50.186168979853392" lon="-5.467311004176736">
        <ele>109.73</ele>
        <time>2026-06-23T18:35:59Z</time>
      </trkpt>
      <trkpt lat="50.186825031414628" lon="-5.466095041483641">
        <ele>108.77</ele>
        <time>2026-06-23T18:36:07Z</time>
      </trkpt>
      <trkpt lat="50.187685014680028" lon="-5.46452603302896">
        <ele>102.52</ele>
        <time>2026-06-23T18:36:18Z</time>
      </trkpt>
      <trkpt lat="50.187854999676347" lon="-5.46435697004199">
        <ele>102.52</ele>
        <time>2026-06-23T18:36:20Z</time>
      </trkpt>
      <trkpt lat="50.188019033521414" lon="-5.464192014187574">
        <ele>102.04000000000001</ele>
        <time>2026-06-23T18:36:22Z</time>
      </trkpt>
      <trkpt lat="50.188363026827574" lon="-5.463751964271069">
        <ele>100.59999999999999</ele>
        <time>2026-06-23T18:36:27Z</time>
      </trkpt>
      <trkpt lat="50.188537035137415" lon="-5.463429009541869">
        <ele>99.629999999999995</ele>
        <time>2026-06-23T18:36:30Z</time>
      </trkpt>
      <trkpt lat="50.188584979623556" lon="-5.463174032047391">
        <ele>99.150000000000006</ele>
        <time>2026-06-23T18:36:32Z</time>
      </trkpt>
      <trkpt lat="50.188736021518707" lon="-5.462491996586323">
        <ele>97.709999999999994</ele>
        <time>2026-06-23T18:36:37Z</time>
      </trkpt>
      <trkpt lat="50.188777009025216" lon="-5.462396023795009">
        <ele>97.709999999999994</ele>
        <time>2026-06-23T18:36:38Z</time>
      </trkpt>
      <trkpt lat="50.188811961561441" lon="-5.462328968569636">
        <ele>97.709999999999994</ele>
        <time>2026-06-23T18:36:39Z</time>
      </trkpt>
      <trkpt lat="50.188830988481641" lon="-5.462295021861792">
        <ele>97.709999999999994</ele>
        <time>2026-06-23T18:36:40Z</time>
      </trkpt>
      <trkpt lat="50.188844986259937" lon="-5.462269959971309">
        <ele>97.709999999999994</ele>
        <time>2026-06-23T18:36:41Z</time>
      </trkpt>
      <trkpt lat="50.188844986259937" lon="-5.462269959971309">
        <ele>97.230000000000004</ele>
        <time>2026-06-23T18:36:42Z</time>
      </trkpt>
      <trkpt lat="50.188866024836898" lon="-5.462231989949942">
        <ele>97.230000000000004</ele>
        <time>2026-06-23T18:36:43Z</time>
      </trkpt>
      <trkpt lat="50.188883040100336" lon="-5.462201982736588">
        <ele>97.230000000000004</ele>
        <time>2026-06-23T18:36:44Z</time>
      </trkpt>
      <trkpt lat="50.1889159809798" lon="-5.46214297413826">
        <ele>97.230000000000004</ele>
        <time>2026-06-23T18:36:45Z</time>
      </trkpt>
      <trkpt lat="50.188961997628212" lon="-5.462060999125242">
        <ele>97.709999999999994</ele>
        <time>2026-06-23T18:36:46Z</time>
      </trkpt>
      <trkpt lat="50.189013965427876" lon="-5.461967960000038">
        <ele>97.709999999999994</ele>
        <time>2026-06-23T18:36:47Z</time>
      </trkpt>
      <trkpt lat="50.189069034531713" lon="-5.461868969723582">
        <ele>97.709999999999994</ele>
        <time>2026-06-23T18:36:48Z</time>
      </trkpt>
      <trkpt lat="50.189157966524363" lon="-5.461708959192038">
        <ele>99.150000000000006</ele>
        <time>2026-06-23T18:36:50Z</time>
      </trkpt>
      <trkpt lat="50.189195014536381" lon="-5.461642993614078">
        <ele>99.629999999999995</ele>
        <time>2026-06-23T18:36:51Z</time>
      </trkpt>
      <trkpt lat="50.189199037849903" lon="-5.461624972522259">
        <ele>100.11</ele>
        <time>2026-06-23T18:36:52Z</time>
      </trkpt>
      <trkpt lat="50.189204989001155" lon="-5.461590019986033">
        <ele>100.59999999999999</ele>
        <time>2026-06-23T18:36:53Z</time>
      </trkpt>
      <trkpt lat="50.189220998436213" lon="-5.461499998345971">
        <ele>100.59999999999999</ele>
        <time>2026-06-23T18:36:54Z</time>
      </trkpt>
      <trkpt lat="50.189242959022522" lon="-5.461376029998064">
        <ele>100.59999999999999</ele>
        <time>2026-06-23T18:36:55Z</time>
      </trkpt>
      <trkpt lat="50.189260980114341" lon="-5.461277039721608">
        <ele>100.59999999999999</ele>
        <time>2026-06-23T18:36:56Z</time>
      </trkpt>
      <trkpt lat="50.18928000703454" lon="-5.461175031960011">
        <ele>100.11</ele>
        <time>2026-06-23T18:36:57Z</time>
      </trkpt>
      <trkpt lat="50.189295010641217" lon="-5.461091967299581">
        <ele>99.150000000000006</ele>
        <time>2026-06-23T18:36:58Z</time>
      </trkpt>
      <trkpt lat="50.189306996762753" lon="-5.46102499589324">
        <ele>97.709999999999994</ele>
        <time>2026-06-23T18:36:59Z</time>
      </trkpt>
      <trkpt lat="50.18932200036943" lon="-5.460940003395081">
        <ele>96.269999999999996</ele>
        <time>2026-06-23T18:37:00Z</time>
      </trkpt>
      <trkpt lat="50.189401963725686" lon="-5.460495008155704">
        <ele>90.5</ele>
        <time>2026-06-23T18:37:04Z</time>
      </trkpt>
      <trkpt lat="50.18943096511066" lon="-5.460333991795778">
        <ele>89.060000000000002</ele>
        <time>2026-06-23T18:37:05Z</time>
      </trkpt>
      <trkpt lat="50.189462983980775" lon="-5.460166018456221">
        <ele>87.620000000000005</ele>
        <time>2026-06-23T18:37:06Z</time>
      </trkpt>
      <trkpt lat="50.189497014507651" lon="-5.459983041509986">
        <ele>86.180000000000007</ele>
        <time>2026-06-23T18:37:07Z</time>
      </trkpt>
      <trkpt lat="50.189531967043877" lon="-5.459795035421848">
        <ele>84.730000000000004</ele>
        <time>2026-06-23T18:37:08Z</time>
      </trkpt>
      <trkpt lat="50.189567003399134" lon="-5.459604011848569">
        <ele>83.769999999999996</ele>
        <time>2026-06-23T18:37:09Z</time>
      </trkpt>
      <trkpt lat="50.18970899283886" lon="-5.45907000079751">
        <ele>81.370000000000005</ele>
        <time>2026-06-23T18:37:12Z</time>
      </trkpt>
      <trkpt lat="50.189756015315652" lon="-5.45891703106463">
        <ele>80.890000000000001</ele>
        <time>2026-06-23T18:37:13Z</time>
      </trkpt>
      <trkpt lat="50.189798008650541" lon="-5.458779986947775">
        <ele>80.409999999999997</ele>
        <time>2026-06-23T18:37:14Z</time>
      </trkpt>
      <trkpt lat="50.18983799032867" lon="-5.458651995286346">
        <ele>79.450000000000003</ele>
        <time>2026-06-23T18:37:15Z</time>
      </trkpt>
      <trkpt lat="50.18988199532032" lon="-5.45851000584662">
        <ele>78.969999999999999</ele>
        <time>2026-06-23T18:37:16Z</time>
      </trkpt>
      <trkpt lat="50.189953995868564" lon="-5.458384025841951">
        <ele>78.969999999999999</ele>
        <time>2026-06-23T18:37:17Z</time>
      </trkpt>
      <trkpt lat="50.190033037215471" lon="-5.458244970068336">
        <ele>78.480000000000004</ele>
        <time>2026-06-23T18:37:18Z</time>
      </trkpt>
      <trkpt lat="50.190115012228489" lon="-5.45810298062861">
        <ele>78.969999999999999</ele>
        <time>2026-06-23T18:37:19Z</time>
      </trkpt>
      <trkpt lat="50.190179971978068" lon="-5.457955962046981">
        <ele>78.969999999999999</ele>
        <time>2026-06-23T18:37:20Z</time>
      </trkpt>
      <trkpt lat="50.190238980576396" lon="-5.457805003970861">
        <ele>78.969999999999999</ele>
        <time>2026-06-23T18:37:21Z</time>
      </trkpt>
      <trkpt lat="50.190481971949339" lon="-5.4573730006814">
        <ele>77.040000000000006</ele>
        <time>2026-06-23T18:37:25Z</time>
      </trkpt>
      <trkpt lat="50.190537963062525" lon="-5.457299994304776">
        <ele>76.560000000000002</ele>
        <time>2026-06-23T18:37:26Z</time>
      </trkpt>
      <trkpt lat="50.190644999966025" lon="-5.457162028178573">
        <ele>75.120000000000005</ele>
        <time>2026-06-23T18:37:32Z</time>
      </trkpt>
      <trkpt lat="50.190644999966025" lon="-5.457162028178573">
        <ele>75.120000000000005</ele>
        <time>2026-06-23T18:37:44Z</time>
      </trkpt>
      <trkpt lat="50.190663021057844" lon="-5.457138977944851">
        <ele>74.640000000000001</ele>
        <time>2026-06-23T18:37:45Z</time>
      </trkpt>
      <trkpt lat="50.190677018836141" lon="-5.457014003768563">
        <ele>74.159999999999997</ele>
        <time>2026-06-23T18:37:46Z</time>
      </trkpt>
      <trkpt lat="50.19065598025918" lon="-5.456933034583926">
        <ele>73.680000000000007</ele>
        <time>2026-06-23T18:37:47Z</time>
      </trkpt>
      <trkpt lat="50.190628990530968" lon="-5.456827003508806">
        <ele>72.719999999999999</ele>
        <time>2026-06-23T18:37:48Z</time>
      </trkpt>
      <trkpt lat="50.190596971660852" lon="-5.45670404098928">
        <ele>72.239999999999995</ele>
        <time>2026-06-23T18:37:49Z</time>
      </trkpt>
      <trkpt lat="50.19031098112464" lon="-5.455468967556953">
        <ele>65.989999999999995</ele>
        <time>2026-06-23T18:37:56Z</time>
      </trkpt>
      <trkpt lat="50.190124986693263" lon="-5.453420011326671">
        <ele>60.700000000000003</ele>
        <time>2026-06-23T18:38:06Z</time>
      </trkpt>
      <trkpt lat="50.190029013901949" lon="-5.452845012769103">
        <ele>60.700000000000003</ele>
        <time>2026-06-23T18:38:09Z</time>
      </trkpt>
      <trkpt lat="50.189962964504957" lon="-5.45266698114574">
        <ele>60.219999999999999</ele>
        <time>2026-06-23T18:38:10Z</time>
      </trkpt>
      <trkpt lat="50.189876966178417" lon="-5.452498001977801">
        <ele>59.740000000000002</ele>
        <time>2026-06-23T18:38:11Z</time>
      </trkpt>
      <trkpt lat="50.18977303057909" lon="-5.452347965911031">
        <ele>59.740000000000002</ele>
        <time>2026-06-23T18:38:12Z</time>
      </trkpt>
      <trkpt lat="50.189656019210815" lon="-5.452209999784827">
        <ele>58.780000000000001</ele>
        <time>2026-06-23T18:38:13Z</time>
      </trkpt>
      <trkpt lat="50.189530961215496" lon="-5.452079996466637">
        <ele>57.82</ele>
        <time>2026-06-23T18:38:14Z</time>
      </trkpt>
      <trkpt lat="50.188929978758097" lon="-5.451422017067671">
        <ele>52.530000000000001</ele>
        <time>2026-06-23T18:38:19Z</time>
      </trkpt>
      <trkpt lat="50.188440978527069" lon="-5.45071299187839">
        <ele>47.719999999999999</ele>
        <time>2026-06-23T18:38:24Z</time>
      </trkpt>
      <trkpt lat="50.188368977978826" lon="-5.450544012710452">
        <ele>47.240000000000002</ele>
        <time>2026-06-23T18:38:25Z</time>
      </trkpt>
      <trkpt lat="50.188314998522401" lon="-5.450352989137173">
        <ele>46.759999999999998</ele>
        <time>2026-06-23T18:38:26Z</time>
      </trkpt>
      <trkpt lat="50.188264958560467" lon="-5.450157020241022">
        <ele>46.280000000000001</ele>
        <time>2026-06-23T18:38:27Z</time>
      </trkpt>
      <trkpt lat="50.188235035166144" lon="-5.449945963919163">
        <ele>45.799999999999997</ele>
        <time>2026-06-23T18:38:28Z</time>
      </trkpt>
      <trkpt lat="50.188203016296029" lon="-5.449729962274432">
        <ele>45.32</ele>
        <time>2026-06-23T18:38:29Z</time>
      </trkpt>
      <trkpt lat="50.187771013006568" lon="-5.448181992396712">
        <ele>45.799999999999997</ele>
        <time>2026-06-23T18:38:36Z</time>
      </trkpt>
      <trkpt lat="50.18766799941659" lon="-5.447986023500562">
        <ele>45.799999999999997</ele>
        <time>2026-06-23T18:38:37Z</time>
      </trkpt>
      <trkpt lat="50.18755903467536" lon="-5.447792988270521">
        <ele>46.280000000000001</ele>
        <time>2026-06-23T18:38:38Z</time>
      </trkpt>
      <trkpt lat="50.187085960060358" lon="-5.447159986943007">
        <ele>47.719999999999999</ele>
        <time>2026-06-23T18:38:42Z</time>
      </trkpt>
      <trkpt lat="50.186964003369212" lon="-5.447030989453197">
        <ele>48.200000000000003</ele>
        <time>2026-06-23T18:38:43Z</time>
      </trkpt>
      <trkpt lat="50.186828970909119" lon="-5.446941973641515">
        <ele>48.68</ele>
        <time>2026-06-23T18:38:44Z</time>
      </trkpt>
      <trkpt lat="50.186033025383949" lon="-5.446433024480939">
        <ele>50.130000000000003</ele>
        <time>2026-06-23T18:38:50Z</time>
      </trkpt>
      <trkpt lat="50.185924982652068" lon="-5.446312995627523">
        <ele>50.130000000000003</ele>
        <time>2026-06-23T18:38:51Z</time>
      </trkpt>
      <trkpt lat="50.185818029567599" lon="-5.446191960945725">
        <ele>50.609999999999999</ele>
        <time>2026-06-23T18:38:52Z</time>
      </trkpt>
      <trkpt lat="50.185727002099156" lon="-5.446039997041225">
        <ele>50.609999999999999</ele>
        <time>2026-06-23T18:38:53Z</time>
      </trkpt>
      <trkpt lat="50.185661036521196" lon="-5.445875963196158">
        <ele>50.609999999999999</ele>
        <time>2026-06-23T18:38:54Z</time>
      </trkpt>
      <trkpt lat="50.185599010437727" lon="-5.445719975978136">
        <ele>50.609999999999999</ele>
        <time>2026-06-23T18:38:55Z</time>
      </trkpt>
      <trkpt lat="50.185546958819032" lon="-5.445591984316707">
        <ele>50.609999999999999</ele>
        <time>2026-06-23T18:38:56Z</time>
      </trkpt>
      <trkpt lat="50.185515023767948" lon="-5.445414036512375">
        <ele>50.609999999999999</ele>
        <time>2026-06-23T18:38:57Z</time>
      </trkpt>
      <trkpt lat="50.185487028211355" lon="-5.44525402598083">
        <ele>50.130000000000003</ele>
        <time>2026-06-23T18:38:58Z</time>
      </trkpt>
      <trkpt lat="50.185458026826382" lon="-5.445098038762808">
        <ele>50.130000000000003</ele>
        <time>2026-06-23T18:38:59Z</time>
      </trkpt>
      <trkpt lat="50.185431959107518" lon="-5.444950014352799">
        <ele>49.649999999999999</ele>
        <time>2026-06-23T18:39:00Z</time>
      </trkpt>
      <trkpt lat="50.185354007408023" lon="-5.444520022720099">
        <ele>49.159999999999997</ele>
        <time>2026-06-23T18:39:04Z</time>
      </trkpt>
      <trkpt lat="50.185382002964616" lon="-5.444409968331456">
        <ele>49.159999999999997</ele>
        <time>2026-06-23T18:39:05Z</time>
      </trkpt>
      <trkpt lat="50.185398012399673" lon="-5.444346014410257">
        <ele>49.159999999999997</ele>
        <time>2026-06-23T18:39:06Z</time>
      </trkpt>
      <trkpt lat="50.185569003224373" lon="-5.443700021132827">
        <ele>48.68</ele>
        <time>2026-06-23T18:39:17Z</time>
      </trkpt>
      <trkpt lat="50.185997989028692" lon="-5.443275980651379">
        <ele>49.649999999999999</ele>
        <time>2026-06-23T18:39:26Z</time>
      </trkpt>
      <trkpt lat="50.185997989028692" lon="-5.44321496039629">
        <ele>49.649999999999999</ele>
        <time>2026-06-23T18:39:27Z</time>
      </trkpt>
      <trkpt lat="50.185997989028692" lon="-5.443155029788613">
        <ele>49.649999999999999</ele>
        <time>2026-06-23T18:39:28Z</time>
      </trkpt>
      <trkpt lat="50.185955995693803" lon="-5.443070959299803">
        <ele>49.649999999999999</ele>
        <time>2026-06-23T18:39:29Z</time>
      </trkpt>
      <trkpt lat="50.185932023450732" lon="-5.443027038127184">
        <ele>49.159999999999997</ele>
        <time>2026-06-23T18:39:30Z</time>
      </trkpt>
      <trkpt lat="50.18590897321701" lon="-5.442986972630024">
        <ele>49.159999999999997</ele>
        <time>2026-06-23T18:39:31Z</time>
      </trkpt>
      <trkpt lat="50.185891035944223" lon="-5.442953025922179">
        <ele>49.159999999999997</ele>
        <time>2026-06-23T18:39:32Z</time>
      </trkpt>
      <trkpt lat="50.185836972668767" lon="-5.442937016487122">
        <ele>48.68</ele>
        <time>2026-06-23T18:39:33Z</time>
      </trkpt>
      <trkpt lat="50.185806965455413" lon="-5.442927964031696">
        <ele>48.200000000000003</ele>
        <time>2026-06-23T18:39:34Z</time>
      </trkpt>
      <trkpt lat="50.185770001262426" lon="-5.442916983738542">
        <ele>47.719999999999999</ele>
        <time>2026-06-23T18:39:35Z</time>
      </trkpt>
      <trkpt lat="50.185731025412679" lon="-5.442904997617006">
        <ele>47.240000000000002</ele>
        <time>2026-06-23T18:39:36Z</time>
      </trkpt>
      <trkpt lat="50.185690959915519" lon="-5.442893011495471">
        <ele>46.280000000000001</ele>
        <time>2026-06-23T18:39:37Z</time>
      </trkpt>
      <trkpt lat="50.185674028471112" lon="-5.442884964868426">
        <ele>46.280000000000001</ele>
        <time>2026-06-23T18:39:38Z</time>
      </trkpt>
      <trkpt lat="50.185647960752249" lon="-5.442843977361918">
        <ele>45.32</ele>
        <time>2026-06-23T18:39:39Z</time>
      </trkpt>
      <trkpt lat="50.185620971024036" lon="-5.442798966541886">
        <ele>44.840000000000003</ele>
        <time>2026-06-23T18:39:40Z</time>
      </trkpt>
      <trkpt lat="50.185590963810682" lon="-5.442751022055745">
        <ele>44.359999999999999</ele>
        <time>2026-06-23T18:39:41Z</time>
      </trkpt>
      <trkpt lat="50.185562968254089" lon="-5.442705005407333">
        <ele>43.880000000000003</ele>
        <time>2026-06-23T18:39:42Z</time>
      </trkpt>
      <trkpt lat="50.185534972697496" lon="-5.442658988758922">
        <ele>42.920000000000002</ele>
        <time>2026-06-23T18:39:43Z</time>
      </trkpt>
      <trkpt lat="50.185504965484142" lon="-5.4426100384444">
        <ele>42.439999999999998</ele>
        <time>2026-06-23T18:39:44Z</time>
      </trkpt>
      <trkpt lat="50.185495996847749" lon="-5.442566033452749">
        <ele>41.950000000000003</ele>
        <time>2026-06-23T18:39:45Z</time>
      </trkpt>
      <trkpt lat="50.185484010726213" lon="-5.44250400736928">
        <ele>41.469999999999999</ele>
        <time>2026-06-23T18:39:46Z</time>
      </trkpt>
      <trkpt lat="50.185472024604678" lon="-5.442441981285811">
        <ele>40.990000000000002</ele>
        <time>2026-06-23T18:39:47Z</time>
      </trkpt>
      <trkpt lat="50.185446962714195" lon="-5.442312983796001">
        <ele>40.509999999999998</ele>
        <time>2026-06-23T18:39:49Z</time>
      </trkpt>
      <trkpt lat="50.185433970764279" lon="-5.44224601238966">
        <ele>40.509999999999998</ele>
        <time>2026-06-23T18:39:50Z</time>
      </trkpt>
      <trkpt lat="50.185342021286488" lon="-5.441610999405384">
        <ele>38.109999999999999</ele>
        <time>2026-06-23T18:40:01Z</time>
      </trkpt>
      <trkpt lat="50.185333974659443" lon="-5.441446965560317">
        <ele>36.670000000000002</ele>
        <time>2026-06-23T18:40:04Z</time>
      </trkpt>
      <trkpt lat="50.185332968831062" lon="-5.441430034115911">
        <ele>36.189999999999998</ele>
        <time>2026-06-23T18:40:05Z</time>
      </trkpt>
      <trkpt lat="50.185332968831062" lon="-5.441430034115911">
        <ele>36.189999999999998</ele>
        <time>2026-06-23T18:40:07Z</time>
      </trkpt>
      <trkpt lat="50.185333974659443" lon="-5.441447971388698">
        <ele>36.189999999999998</ele>
        <time>2026-06-23T18:40:08Z</time>
      </trkpt>
      <trkpt lat="50.185335986316204" lon="-5.441488036885858">
        <ele>36.670000000000002</ele>
        <time>2026-06-23T18:40:10Z</time>
      </trkpt>
      <trkpt lat="50.185335986316204" lon="-5.441488036885858">
        <ele>37.149999999999999</ele>
        <time>2026-06-23T18:40:22Z</time>
      </trkpt>
      <trkpt lat="50.185335986316204" lon="-5.441488036885858">
        <ele>38.109999999999999</ele>
        <time>2026-06-23T18:41:26Z</time>
      </trkpt>
      <trkpt lat="50.185346966609359" lon="-5.441692974418402">
        <ele>41.469999999999999</ele>
        <time>2026-06-23T18:41:53Z</time>
      </trkpt>
      <trkpt lat="50.185350989922881" lon="-5.441778972744942">
        <ele>42.439999999999998</ele>
        <time>2026-06-23T18:41:54Z</time>
      </trkpt>
      <trkpt lat="50.185557017102838" lon="-5.442695030942559">
        <ele>44.359999999999999</ele>
        <time>2026-06-23T18:42:06Z</time>
      </trkpt>
      <trkpt lat="50.185593981295824" lon="-5.442755967378616">
        <ele>44.359999999999999</ele>
        <time>2026-06-23T18:42:07Z</time>
      </trkpt>
      <trkpt lat="50.185632035136223" lon="-5.442815981805325">
        <ele>44.840000000000003</ele>
        <time>2026-06-23T18:42:08Z</time>
      </trkpt>
      <trkpt lat="50.18567000515759" lon="-5.442879013717175">
        <ele>44.840000000000003</ele>
        <time>2026-06-23T18:42:09Z</time>
      </trkpt>
      <trkpt lat="50.185715015977621" lon="-5.442899968475103">
        <ele>45.32</ele>
        <time>2026-06-23T18:42:10Z</time>
      </trkpt>
      <trkpt lat="50.185762038454413" lon="-5.44291497208178">
        <ele>45.799999999999997</ele>
        <time>2026-06-23T18:42:11Z</time>
      </trkpt>
      <trkpt lat="50.185811994597316" lon="-5.442929975688458">
        <ele>46.280000000000001</ele>
        <time>2026-06-23T18:42:12Z</time>
      </trkpt>
      <trkpt lat="50.185863962396979" lon="-5.442944979295135">
        <ele>46.759999999999998</ele>
        <time>2026-06-23T18:42:13Z</time>
      </trkpt>
      <trkpt lat="50.185891035944223" lon="-5.442953025922179">
        <ele>46.759999999999998</ele>
        <time>2026-06-23T18:42:14Z</time>
      </trkpt>
      <trkpt lat="50.185943003743887" lon="-5.443047992885113">
        <ele>47.240000000000002</ele>
        <time>2026-06-23T18:42:15Z</time>
      </trkpt>
      <trkpt lat="50.185997989028692" lon="-5.443145977333188">
        <ele>47.240000000000002</ele>
        <time>2026-06-23T18:42:16Z</time>
      </trkpt>
      <trkpt lat="50.185997989028692" lon="-5.443198028951883">
        <ele>47.240000000000002</ele>
        <time>2026-06-23T18:42:17Z</time>
      </trkpt>
      <trkpt lat="50.185980973765254" lon="-5.443354016169906">
        <ele>47.240000000000002</ele>
        <time>2026-06-23T18:42:18Z</time>
      </trkpt>
      <trkpt lat="50.18592800013721" lon="-5.443398021161556">
        <ele>47.240000000000002</ele>
        <time>2026-06-23T18:42:19Z</time>
      </trkpt>
      <trkpt lat="50.185865974053741" lon="-5.4434509947896">
        <ele>47.240000000000002</ele>
        <time>2026-06-23T18:42:20Z</time>
      </trkpt>
      <trkpt lat="50.185802020132542" lon="-5.443503968417645">
        <ele>47.240000000000002</ele>
        <time>2026-06-23T18:42:21Z</time>
      </trkpt>
      <trkpt lat="50.185445034876466" lon="-5.443749977275729">
        <ele>47.240000000000002</ele>
        <time>2026-06-23T18:42:29Z</time>
      </trkpt>
      <trkpt lat="50.185425002127886" lon="-5.443703960627317">
        <ele>47.240000000000002</ele>
        <time>2026-06-23T18:42:30Z</time>
      </trkpt>
      <trkpt lat="50.185393989086151" lon="-5.443632965907455">
        <ele>47.240000000000002</ele>
        <time>2026-06-23T18:42:31Z</time>
      </trkpt>
      <trkpt lat="50.185260968282819" lon="-5.443329960107803">
        <ele>47.240000000000002</ele>
        <time>2026-06-23T18:42:38Z</time>
      </trkpt>
      <trkpt lat="50.185226015746593" lon="-5.443287966772914">
        <ele>46.759999999999998</ele>
        <time>2026-06-23T18:42:40Z</time>
      </trkpt>
      <trkpt lat="50.185160972177982" lon="-5.443211020901799">
        <ele>46.759999999999998</ele>
        <time>2026-06-23T18:42:41Z</time>
      </trkpt>
      <trkpt lat="50.185140017420053" lon="-5.443137008696795">
        <ele>46.759999999999998</ele>
        <time>2026-06-23T18:42:42Z</time>
      </trkpt>
      <trkpt lat="50.184731986373663" lon="-5.44185901992023">
        <ele>44.840000000000003</ele>
        <time>2026-06-23T18:42:53Z</time>
      </trkpt>
      <trkpt lat="50.184257989749312" lon="-5.440659988671541">
        <ele>39.549999999999997</ele>
        <time>2026-06-23T18:43:04Z</time>
      </trkpt>
      <trkpt lat="50.184217002242804" lon="-5.44054901227355">
        <ele>39.07</ele>
        <time>2026-06-23T18:43:05Z</time>
      </trkpt>
      <trkpt lat="50.184071995317936" lon="-5.43999002315104">
        <ele>36.670000000000002</ele>
        <time>2026-06-23T18:43:10Z</time>
      </trkpt>
      <trkpt lat="50.184026984497905" lon="-5.439910981804133">
        <ele>36.189999999999998</ele>
        <time>2026-06-23T18:43:11Z</time>
      </trkpt>
      <trkpt lat="50.183980967849493" lon="-5.439841998741031">
        <ele>35.710000000000001</ele>
        <time>2026-06-23T18:43:12Z</time>
      </trkpt>
      <trkpt lat="50.183907961472869" lon="-5.439826995134354">
        <ele>35.710000000000001</ele>
        <time>2026-06-23T18:43:13Z</time>
      </trkpt>
      <trkpt lat="50.183835038915277" lon="-5.439845016226172">
        <ele>35.229999999999997</ele>
        <time>2026-06-23T18:43:14Z</time>
      </trkpt>
      <trkpt lat="50.183763960376382" lon="-5.439890027046204">
        <ele>35.229999999999997</ele>
        <time>2026-06-23T18:43:15Z</time>
      </trkpt>
      <trkpt lat="50.183688020333648" lon="-5.439938977360725">
        <ele>34.740000000000002</ele>
        <time>2026-06-23T18:43:16Z</time>
      </trkpt>
      <trkpt lat="50.183132970705628" lon="-5.44039998203516">
        <ele>34.740000000000002</ele>
        <time>2026-06-23T18:43:24Z</time>
      </trkpt>
      <trkpt lat="50.182325039058924" lon="-5.441055027768016">
        <ele>34.259999999999998</ele>
        <time>2026-06-23T18:43:34Z</time>
      </trkpt>
      <trkpt lat="50.181495985016227" lon="-5.441975025460124">
        <ele>28.5</ele>
        <time>2026-06-23T18:43:43Z</time>
      </trkpt>
      <trkpt lat="50.180936995893717" lon="-5.44329802505672">
        <ele>21.289999999999999</ele>
        <time>2026-06-23T18:43:52Z</time>
      </trkpt>
      <trkpt lat="50.18085996620357" lon="-5.443420987576246">
        <ele>19.84</ele>
        <time>2026-06-23T18:43:53Z</time>
      </trkpt>
      <trkpt lat="50.180767010897398" lon="-5.443525006994605">
        <ele>18.399999999999999</ele>
        <time>2026-06-23T18:43:54Z</time>
      </trkpt>
      <trkpt lat="50.180659973993897" lon="-5.443601030856371">
        <ele>16.960000000000001</ele>
        <time>2026-06-23T18:43:55Z</time>
      </trkpt>
      <trkpt lat="50.180550003424287" lon="-5.44366498477757">
        <ele>15.52</ele>
        <time>2026-06-23T18:43:56Z</time>
      </trkpt>
      <trkpt lat="50.180437015369534" lon="-5.443697003647685">
        <ele>14.08</ele>
        <time>2026-06-23T18:43:57Z</time>
      </trkpt>
      <trkpt lat="50.180324027314782" lon="-5.443680994212627">
        <ele>13.119999999999999</ele>
        <time>2026-06-23T18:43:58Z</time>
      </trkpt>
      <trkpt lat="50.180210033431649" lon="-5.443663978949189">
        <ele>12.15</ele>
        <time>2026-06-23T18:43:59Z</time>
      </trkpt>
      <trkpt lat="50.180093022063375" lon="-5.443646041676402">
        <ele>11.67</ele>
        <time>2026-06-23T18:44:00Z</time>
      </trkpt>
      <trkpt lat="50.179529003798962" lon="-5.443561971187592">
        <ele>11.67</ele>
        <time>2026-06-23T18:44:05Z</time>
      </trkpt>
      <trkpt lat="50.179415009915829" lon="-5.443559037521482">
        <ele>12.15</ele>
        <time>2026-06-23T18:44:06Z</time>
      </trkpt>
      <trkpt lat="50.179293975234032" lon="-5.443568006157875">
        <ele>12.630000000000001</ele>
        <time>2026-06-23T18:44:07Z</time>
      </trkpt>
      <trkpt lat="50.179172018542886" lon="-5.443586027249694">
        <ele>13.6</ele>
        <time>2026-06-23T18:44:08Z</time>
      </trkpt>
      <trkpt lat="50.179054001346231" lon="-5.443641012534499">
        <ele>14.08</ele>
        <time>2026-06-23T18:44:09Z</time>
      </trkpt>
      <trkpt lat="50.178926009684801" lon="-5.443700021132827">
        <ele>15.039999999999999</ele>
        <time>2026-06-23T18:44:10Z</time>
      </trkpt>
      <trkpt lat="50.178806986659765" lon="-5.443769004195929">
        <ele>15.52</ele>
        <time>2026-06-23T18:44:11Z</time>
      </trkpt>
      <trkpt lat="50.178692992776632" lon="-5.44383698143065">
        <ele>15.52</ele>
        <time>2026-06-23T18:44:12Z</time>
      </trkpt>
      <trkpt lat="50.177819011732936" lon="-5.444403011351824">
        <ele>13.119999999999999</ele>
        <time>2026-06-23T18:44:20Z</time>
      </trkpt>
      <trkpt lat="50.177372004836798" lon="-5.444669974967837">
        <ele>9.75</ele>
        <time>2026-06-23T18:44:26Z</time>
      </trkpt>
      <trkpt lat="50.177307967096567" lon="-5.444777011871338">
        <ele>9.27</ele>
        <time>2026-06-23T18:44:27Z</time>
      </trkpt>
      <trkpt lat="50.177273014560342" lon="-5.444839959964156">
        <ele>8.789999999999999</ele>
        <time>2026-06-23T18:44:28Z</time>
      </trkpt>
      <trkpt lat="50.177072016522288" lon="-5.445205997675657">
        <ele>8.310000000000001</ele>
        <time>2026-06-23T18:44:31Z</time>
      </trkpt>
      <trkpt lat="50.177028011530638" lon="-5.445250002667308">
        <ele>7.83</ele>
        <time>2026-06-23T18:44:32Z</time>
      </trkpt>
      <trkpt lat="50.17694503068924" lon="-5.445332983508706">
        <ele>7.83</ele>
        <time>2026-06-23T18:44:33Z</time>
      </trkpt>
      <trkpt lat="50.176185965538025" lon="-5.446022981777787">
        <ele>12.15</ele>
        <time>2026-06-23T18:44:41Z</time>
      </trkpt>
      <trkpt lat="50.175436036661267" lon="-5.446747010573745">
        <ele>18.879999999999999</ele>
        <time>2026-06-23T18:44:48Z</time>
      </trkpt>
      <trkpt lat="50.17537702806294" lon="-5.446837032213807">
        <ele>20.32</ele>
        <time>2026-06-23T18:44:49Z</time>
      </trkpt>
      <trkpt lat="50.175350038334727" lon="-5.447007017210126">
        <ele>21.77</ele>
        <time>2026-06-23T18:44:50Z</time>
      </trkpt>
      <trkpt lat="50.17533696256578" lon="-5.447139032185078">
        <ele>23.210000000000001</ele>
        <time>2026-06-23T18:44:51Z</time>
      </trkpt>
      <trkpt lat="50.17535800114274" lon="-5.447296025231481">
        <ele>24.649999999999999</ele>
        <time>2026-06-23T18:44:52Z</time>
      </trkpt>
      <trkpt lat="50.17538096755743" lon="-5.447465004399419">
        <ele>25.609999999999999</ele>
        <time>2026-06-23T18:44:53Z</time>
      </trkpt>
      <trkpt lat="50.175456991419196" lon="-5.448017958551645">
        <ele>28.5</ele>
        <time>2026-06-23T18:44:56Z</time>
      </trkpt>
      <trkpt lat="50.175439976155758" lon="-5.448213005438447">
        <ele>28.98</ele>
        <time>2026-06-23T18:44:57Z</time>
      </trkpt>
      <trkpt lat="50.175411980599165" lon="-5.448404029011726">
        <ele>29.460000000000001</ele>
        <time>2026-06-23T18:44:58Z</time>
      </trkpt>
      <trkpt lat="50.175381973385811" lon="-5.448607038706541">
        <ele>28.98</ele>
        <time>2026-06-23T18:44:59Z</time>
      </trkpt>
      <trkpt lat="50.175350960344076" lon="-5.448823962360621">
        <ele>28.98</ele>
        <time>2026-06-23T18:45:00Z</time>
      </trkpt>
      <trkpt lat="50.174980983138084" lon="-5.450299009680748">
        <ele>33.299999999999997</ele>
        <time>2026-06-23T18:45:07Z</time>
      </trkpt>
      <trkpt lat="50.174793982878327" lon="-5.451023038476706">
        <ele>35.710000000000001</ele>
        <time>2026-06-23T18:45:10Z</time>
      </trkpt>
      <trkpt lat="50.174363991245627" lon="-5.452952971681953">
        <ele>41.950000000000003</ele>
        <time>2026-06-23T18:45:18Z</time>
      </trkpt>
      <trkpt lat="50.17383299767971" lon="-5.455107036978006">
        <ele>52.049999999999997</ele>
        <time>2026-06-23T18:45:27Z</time>
      </trkpt>
      <trkpt lat="50.173321031033993" lon="-5.456827003508806">
        <ele>58.780000000000001</ele>
        <time>2026-06-23T18:45:35Z</time>
      </trkpt>
      <trkpt lat="50.172771010547876" lon="-5.458990959450603">
        <ele>62.619999999999997</ele>
        <time>2026-06-23T18:45:45Z</time>
      </trkpt>
      <trkpt lat="50.172621980309486" lon="-5.459728986024857">
        <ele>63.579999999999998</ele>
        <time>2026-06-23T18:45:49Z</time>
      </trkpt>
      <trkpt lat="50.172559032216668" lon="-5.461614998057485">
        <ele>66.950000000000003</ele>
        <time>2026-06-23T18:45:58Z</time>
      </trkpt>
      <trkpt lat="50.172555008903146" lon="-5.461839968338609">
        <ele>67.430000000000007</ele>
        <time>2026-06-23T18:45:59Z</time>
      </trkpt>
      <trkpt lat="50.17265098169446" lon="-5.463118962943554">
        <ele>70.790000000000006</ele>
        <time>2026-06-23T18:46:05Z</time>
      </trkpt>
      <trkpt lat="50.172699009999633" lon="-5.463286014273763">
        <ele>70.790000000000006</ele>
        <time>2026-06-23T18:46:06Z</time>
      </trkpt>
      <trkpt lat="50.172747038304806" lon="-5.463448958471417">
        <ele>71.269999999999996</ele>
        <time>2026-06-23T18:46:07Z</time>
      </trkpt>
      <trkpt lat="50.172818033024669" lon="-5.463578961789608">
        <ele>71.760000000000005</ele>
        <time>2026-06-23T18:46:08Z</time>
      </trkpt>
      <trkpt lat="50.172902019694448" lon="-5.463707959279418">
        <ele>72.239999999999995</ele>
        <time>2026-06-23T18:46:09Z</time>
      </trkpt>
      <trkpt lat="50.172989023849368" lon="-5.46384098008275">
        <ele>72.239999999999995</ele>
        <time>2026-06-23T18:46:10Z</time>
      </trkpt>
      <trkpt lat="50.173078961670399" lon="-5.463979030027986">
        <ele>72.719999999999999</ele>
        <time>2026-06-23T18:46:11Z</time>
      </trkpt>
      <trkpt lat="50.173179963603616" lon="-5.464085983112454">
        <ele>72.719999999999999</ele>
        <time>2026-06-23T18:46:12Z</time>
      </trkpt>
      <trkpt lat="50.173696037381887" lon="-5.464604990556836">
        <ele>70.790000000000006</ele>
        <time>2026-06-23T18:46:17Z</time>
      </trkpt>
      <trkpt lat="50.173781029880047" lon="-5.464685037732124">
        <ele>69.829999999999998</ele>
        <time>2026-06-23T18:46:18Z</time>
      </trkpt>
      <trkpt lat="50.173857975751162" lon="-5.464757038280368">
        <ele>69.349999999999994</ele>
        <time>2026-06-23T18:46:19Z</time>
      </trkpt>
      <trkpt lat="50.173925030976534" lon="-5.464818980544806">
        <ele>68.870000000000005</ele>
        <time>2026-06-23T18:46:20Z</time>
      </trkpt>
      <trkpt lat="50.173973981291056" lon="-5.464864997193217">
        <ele>68.390000000000001</ele>
        <time>2026-06-23T18:46:21Z</time>
      </trkpt>
      <trkpt lat="50.174010023474693" lon="-5.464898021891713">
        <ele>67.909999999999997</ele>
        <time>2026-06-23T18:46:22Z</time>
      </trkpt>
      <trkpt lat="50.174131980165839" lon="-5.465012015774846">
        <ele>66.469999999999999</ele>
        <time>2026-06-23T18:46:25Z</time>
      </trkpt>
      <trkpt lat="50.174140026792884" lon="-5.464990977197886">
        <ele>65.989999999999995</ele>
        <time>2026-06-23T18:46:26Z</time>
      </trkpt>
      <trkpt lat="50.174155030399561" lon="-5.464948983862996">
        <ele>65.510000000000005</ele>
        <time>2026-06-23T18:46:27Z</time>
      </trkpt>
      <trkpt lat="50.174171039834619" lon="-5.464905984699726">
        <ele>65.510000000000005</ele>
        <time>2026-06-23T18:46:28Z</time>
      </trkpt>
      <trkpt lat="50.174187971279025" lon="-5.464860973879695">
        <ele>65.030000000000001</ele>
        <time>2026-06-23T18:46:29Z</time>
      </trkpt>
      <trkpt lat="50.174208004027605" lon="-5.46480598859489">
        <ele>64.549999999999997</ele>
        <time>2026-06-23T18:46:30Z</time>
      </trkpt>
      <trkpt lat="50.17436801455915" lon="-5.46437700279057">
        <ele>64.069999999999993</ele>
        <time>2026-06-23T18:46:36Z</time>
      </trkpt>
      <trkpt lat="50.174393998458982" lon="-5.464305002242327">
        <ele>64.069999999999993</ele>
        <time>2026-06-23T18:46:37Z</time>
      </trkpt>
      <trkpt lat="50.174446972087026" lon="-5.464260997250676">
        <ele>64.069999999999993</ele>
        <time>2026-06-23T18:46:38Z</time>
      </trkpt>
      <trkpt lat="50.174502963200212" lon="-5.464260997250676">
        <ele>64.069999999999993</ele>
        <time>2026-06-23T18:46:39Z</time>
      </trkpt>
      <trkpt lat="50.174559960141778" lon="-5.464229984208942">
        <ele>64.069999999999993</ele>
        <time>2026-06-23T18:46:40Z</time>
      </trkpt>
      <trkpt lat="50.1745830103755" lon="-5.464196037501097">
        <ele>64.549999999999997</ele>
        <time>2026-06-23T18:46:41Z</time>
      </trkpt>
      <trkpt lat="50.1745830103755" lon="-5.464101992547512">
        <ele>65.030000000000001</ele>
        <time>2026-06-23T18:46:42Z</time>
      </trkpt>
      <trkpt lat="50.1745830103755" lon="-5.464028986170888">
        <ele>65.030000000000001</ele>
        <time>2026-06-23T18:46:43Z</time>
      </trkpt>
      <trkpt lat="50.1745830103755" lon="-5.463960003107786">
        <ele>65.510000000000005</ele>
        <time>2026-06-23T18:46:44Z</time>
      </trkpt>
      <trkpt lat="50.174633972346783" lon="-5.463857995346189">
        <ele>65.030000000000001</ele>
        <time>2026-06-23T18:46:45Z</time>
      </trkpt>
      <trkpt lat="50.174668002873659" lon="-5.463790018111467">
        <ele>65.030000000000001</ele>
        <time>2026-06-23T18:46:46Z</time>
      </trkpt>
      <trkpt lat="50.174729023128748" lon="-5.463666971772909">
        <ele>64.549999999999997</ele>
        <time>2026-06-23T18:46:48Z</time>
      </trkpt>
      <trkpt lat="50.174775961786509" lon="-5.463574016466737">
        <ele>64.069999999999993</ele>
        <time>2026-06-23T18:46:49Z</time>
      </trkpt>
      <trkpt lat="50.174802029505372" lon="-5.463553983718157">
        <ele>63.579999999999998</ele>
        <time>2026-06-23T18:46:50Z</time>
      </trkpt>
      <trkpt lat="50.174845028668642" lon="-5.463520959019661">
        <ele>63.100000000000001</ele>
        <time>2026-06-23T18:46:51Z</time>
      </trkpt>
      <trkpt lat="50.174876963719726" lon="-5.46349598094821">
        <ele>62.619999999999997</ele>
        <time>2026-06-23T18:46:52Z</time>
      </trkpt>
      <trkpt lat="50.174944018945098" lon="-5.463445018976927">
        <ele>62.140000000000001</ele>
        <time>2026-06-23T18:46:54Z</time>
      </trkpt>
      <trkpt lat="50.174984000623226" lon="-5.463415011763573">
        <ele>61.659999999999997</ele>
        <time>2026-06-23T18:46:55Z</time>
      </trkpt>
      <trkpt lat="50.175139987841249" lon="-5.463294982910156">
        <ele>60.219999999999999</ele>
        <time>2026-06-23T18:47:03Z</time>
      </trkpt>
      <trkpt lat="50.175181981176138" lon="-5.463190041482449">
        <ele>59.740000000000002</ele>
        <time>2026-06-23T18:47:06Z</time>
      </trkpt>
      <trkpt lat="50.175198996439576" lon="-5.463147964328528">
        <ele>59.259999999999998</ele>
        <time>2026-06-23T18:47:07Z</time>
      </trkpt>
      <trkpt lat="50.175222968682647" lon="-5.463089039549232">
        <ele>58.780000000000001</ele>
        <time>2026-06-23T18:47:08Z</time>
      </trkpt>
      <trkpt lat="50.175247024744749" lon="-5.463030030950904">
        <ele>58.780000000000001</ele>
        <time>2026-06-23T18:47:09Z</time>
      </trkpt>
      <trkpt lat="50.175268985331059" lon="-5.462973034009337">
        <ele>58.299999999999997</ele>
        <time>2026-06-23T18:47:10Z</time>
      </trkpt>
      <trkpt lat="50.175307039171457" lon="-5.462920982390642">
        <ele>58.299999999999997</ele>
        <time>2026-06-23T18:47:11Z</time>
      </trkpt>
      <trkpt lat="50.17533696256578" lon="-5.462878989055753">
        <ele>58.299999999999997</ele>
        <time>2026-06-23T18:47:12Z</time>
      </trkpt>
      <trkpt lat="50.175367975607514" lon="-5.462834984064102">
        <ele>57.82</ele>
        <time>2026-06-23T18:47:13Z</time>
      </trkpt>
      <trkpt lat="50.17542296089232" lon="-5.462821992114186">
        <ele>57.82</ele>
        <time>2026-06-23T18:47:14Z</time>
      </trkpt>
      <trkpt lat="50.175471995025873" lon="-5.462819980457425">
        <ele>57.82</ele>
        <time>2026-06-23T18:47:15Z</time>
      </trkpt>
      <trkpt lat="50.175523040816188" lon="-5.462817968800664">
        <ele>57.340000000000003</ele>
        <time>2026-06-23T18:47:16Z</time>
      </trkpt>
      <trkpt lat="50.175568973645568" lon="-5.462816962972283">
        <ele>56.859999999999999</ele>
        <time>2026-06-23T18:47:17Z</time>
      </trkpt>
      <trkpt lat="50.175601998344064" lon="-5.462816040962935">
        <ele>56.369999999999997</ele>
        <time>2026-06-23T18:47:18Z</time>
      </trkpt>
      <trkpt lat="50.175627982243896" lon="-5.462815035134554">
        <ele>56.369999999999997</ele>
        <time>2026-06-23T18:47:19Z</time>
      </trkpt>
      <trkpt lat="50.175663018599153" lon="-5.462814029306173">
        <ele>55.890000000000001</ele>
        <time>2026-06-23T18:47:20Z</time>
      </trkpt>
      <trkpt lat="50.17570098862052" lon="-5.462813023477793">
        <ele>55.890000000000001</ele>
        <time>2026-06-23T18:47:21Z</time>
      </trkpt>
      <trkpt lat="50.175748011097312" lon="-5.462811011821032">
        <ele>55.409999999999997</ele>
        <time>2026-06-23T18:47:22Z</time>
      </trkpt>
      <trkpt lat="50.175798973068595" lon="-5.462810005992651">
        <ele>55.409999999999997</ele>
        <time>2026-06-23T18:47:23Z</time>
      </trkpt>
      <trkpt lat="50.175912966951728" lon="-5.462805982679129">
        <ele>54.93</ele>
        <time>2026-06-23T18:47:26Z</time>
      </trkpt>
      <trkpt lat="50.175954960286617" lon="-5.462804976850748">
        <ele>55.409999999999997</ele>
        <time>2026-06-23T18:47:27Z</time>
      </trkpt>
      <trkpt lat="50.175986979156733" lon="-5.462803971022368">
        <ele>55.890000000000001</ele>
        <time>2026-06-23T18:47:28Z</time>
      </trkpt>
      <trkpt lat="50.176224019378424" lon="-5.463103037327528">
        <ele>55.409999999999997</ele>
        <time>2026-06-23T18:47:37Z</time>
      </trkpt>
      <trkpt lat="50.17625997774303" lon="-5.463224994018674">
        <ele>55.890000000000001</ele>
        <time>2026-06-23T18:47:40Z</time>
      </trkpt>
      <trkpt lat="50.176270036026835" lon="-5.463545015081763">
        <ele>54.93</ele>
        <time>2026-06-23T18:47:44Z</time>
      </trkpt>
      <trkpt lat="50.176262995228171" lon="-5.46381700783968">
        <ele>53.490000000000002</ele>
        <time>2026-06-23T18:47:53Z</time>
      </trkpt>
      <trkpt lat="50.176262995228171" lon="-5.46381700783968">
        <ele>53.490000000000002</ele>
        <time>2026-06-23T18:47:57Z</time>
      </trkpt>
      <trkpt lat="50.176264001056552" lon="-5.463862018659711">
        <ele>53.490000000000002</ele>
        <time>2026-06-23T18:48:14Z</time>
      </trkpt>
      <trkpt lat="50.176264001056552" lon="-5.463862018659711">
        <ele>53.490000000000002</ele>
        <time>2026-06-23T18:48:23Z</time>
      </trkpt>
      <trkpt lat="50.176265006884933" lon="-5.463936030864716">
        <ele>55.409999999999997</ele>
        <time>2026-06-23T18:48:35Z</time>
      </trkpt>
      <trkpt lat="50.176266012713313" lon="-5.463928990066052">
        <ele>54.93</ele>
        <time>2026-06-23T18:48:49Z</time>
      </trkpt>
      <trkpt lat="50.176243968307972" lon="-5.463854977861047">
        <ele>55.409999999999997</ele>
        <time>2026-06-23T18:48:53Z</time>
      </trkpt>
      <trkpt lat="50.176221001893282" lon="-5.463223988190293">
        <ele>55.409999999999997</ele>
        <time>2026-06-23T18:49:04Z</time>
      </trkpt>
      <trkpt lat="50.176014974713326" lon="-5.462801959365606">
        <ele>52.049999999999997</ele>
        <time>2026-06-23T18:49:16Z</time>
      </trkpt>
      <trkpt lat="50.175862004980445" lon="-5.462806988507509">
        <ele>51.57</ele>
        <time>2026-06-23T18:49:28Z</time>
      </trkpt>
      <trkpt lat="50.175835015252233" lon="-5.46280799433589">
        <ele>51.57</ele>
        <time>2026-06-23T18:49:39Z</time>
      </trkpt>
      <trkpt lat="50.175815988332033" lon="-5.46280900016427">
        <ele>51.57</ele>
        <time>2026-06-23T18:49:40Z</time>
      </trkpt>
      <trkpt lat="50.175788998603821" lon="-5.462810005992651">
        <ele>51.090000000000003</ele>
        <time>2026-06-23T18:49:41Z</time>
      </trkpt>
      <trkpt lat="50.175758991390467" lon="-5.462810005992651">
        <ele>51.090000000000003</ele>
        <time>2026-06-23T18:49:42Z</time>
      </trkpt>
      <trkpt lat="50.175727978348732" lon="-5.462812017649412">
        <ele>51.090000000000003</ele>
        <time>2026-06-23T18:49:43Z</time>
      </trkpt>
      <trkpt lat="50.175698976963758" lon="-5.462813023477793">
        <ele>50.609999999999999</ele>
        <time>2026-06-23T18:49:44Z</time>
      </trkpt>
      <trkpt lat="50.175672993063927" lon="-5.462813023477793">
        <ele>50.609999999999999</ele>
        <time>2026-06-23T18:49:45Z</time>
      </trkpt>
      <trkpt lat="50.175650026649237" lon="-5.462814029306173">
        <ele>50.130000000000003</ele>
        <time>2026-06-23T18:49:46Z</time>
      </trkpt>
      <trkpt lat="50.175632005557418" lon="-5.462815035134554">
        <ele>50.130000000000003</ele>
        <time>2026-06-23T18:49:47Z</time>
      </trkpt>
      <trkpt lat="50.175632005557418" lon="-5.462815035134554">
        <ele>50.130000000000003</ele>
        <time>2026-06-23T18:49:48Z</time>
      </trkpt>
      <trkpt lat="50.175480041652918" lon="-5.462819980457425">
        <ele>51.090000000000003</ele>
        <time>2026-06-23T18:49:55Z</time>
      </trkpt>
      <trkpt lat="50.17535800114274" lon="-5.462848981842399">
        <ele>49.159999999999997</ele>
        <time>2026-06-23T18:50:05Z</time>
      </trkpt>
      <trkpt lat="50.175301004201174" lon="-5.462928023189306">
        <ele>49.159999999999997</ele>
        <time>2026-06-23T18:50:15Z</time>
      </trkpt>
      <trkpt lat="50.175182987004519" lon="-5.463189035654068">
        <ele>49.649999999999999</ele>
        <time>2026-06-23T18:50:24Z</time>
      </trkpt>
      <trkpt lat="50.175169995054603" lon="-5.463219964876771">
        <ele>49.159999999999997</ele>
        <time>2026-06-23T18:50:35Z</time>
      </trkpt>
      <trkpt lat="50.174908982589841" lon="-5.463472008705139">
        <ele>50.609999999999999</ele>
        <time>2026-06-23T18:50:41Z</time>
      </trkpt>
      <trkpt lat="50.174775961786509" lon="-5.463574016466737">
        <ele>52.049999999999997</ele>
        <time>2026-06-23T18:50:44Z</time>
      </trkpt>
      <trkpt lat="50.174775961786509" lon="-5.463574016466737">
        <ele>52.530000000000001</ele>
        <time>2026-06-23T18:50:45Z</time>
      </trkpt>
      <trkpt lat="50.174767998978496" lon="-5.463590025901794">
        <ele>53.009999999999998</ele>
        <time>2026-06-23T18:50:46Z</time>
      </trkpt>
      <trkpt lat="50.174744026735425" lon="-5.463636964559555">
        <ele>53.490000000000002</ele>
        <time>2026-06-23T18:50:47Z</time>
      </trkpt>
      <trkpt lat="50.174718964844942" lon="-5.463687004521489">
        <ele>53.490000000000002</ele>
        <time>2026-06-23T18:50:48Z</time>
      </trkpt>
      <trkpt lat="50.17468904145062" lon="-5.463746013119817">
        <ele>53.969999999999999</ele>
        <time>2026-06-23T18:50:49Z</time>
      </trkpt>
      <trkpt lat="50.174632966518402" lon="-5.463859001174569">
        <ele>54.93</ele>
        <time>2026-06-23T18:50:51Z</time>
      </trkpt>
      <trkpt lat="50.174542022868991" lon="-5.463920021429658">
        <ele>55.409999999999997</ele>
        <time>2026-06-23T18:50:52Z</time>
      </trkpt>
      <trkpt lat="50.174511009827256" lon="-5.463889008387923">
        <ele>55.890000000000001</ele>
        <time>2026-06-23T18:50:53Z</time>
      </trkpt>
      <trkpt lat="50.174469016492367" lon="-5.463857995346189">
        <ele>56.369999999999997</ele>
        <time>2026-06-23T18:50:54Z</time>
      </trkpt>
      <trkpt lat="50.174430962651968" lon="-5.463890014216304">
        <ele>56.859999999999999</ele>
        <time>2026-06-23T18:50:55Z</time>
      </trkpt>
      <trkpt lat="50.174398021772504" lon="-5.463918009772897">
        <ele>56.859999999999999</ele>
        <time>2026-06-23T18:50:56Z</time>
      </trkpt>
      <trkpt lat="50.174343958497047" lon="-5.463957991451025">
        <ele>57.340000000000003</ele>
        <time>2026-06-23T18:50:57Z</time>
      </trkpt>
      <trkpt lat="50.174353010952473" lon="-5.463954973965883">
        <ele>57.82</ele>
        <time>2026-06-23T18:50:58Z</time>
      </trkpt>
      <trkpt lat="50.17430598847568" lon="-5.46392597258091">
        <ele>58.299999999999997</ele>
        <time>2026-06-23T18:50:59Z</time>
      </trkpt>
      <trkpt lat="50.174346975982189" lon="-5.463960003107786">
        <ele>58.299999999999997</ele>
        <time>2026-06-23T18:51:00Z</time>
      </trkpt>
      <trkpt lat="50.174346975982189" lon="-5.463960003107786">
        <ele>58.780000000000001</ele>
        <time>2026-06-23T18:51:01Z</time>
      </trkpt>
      <trkpt lat="50.174346975982189" lon="-5.463960003107786">
        <ele>59.259999999999998</ele>
        <time>2026-06-23T18:51:12Z</time>
      </trkpt>
      <trkpt lat="50.174346975982189" lon="-5.463960003107786">
        <ele>60.219999999999999</ele>
        <time>2026-06-23T18:52:10Z</time>
      </trkpt>
      <trkpt lat="50.174346975982189" lon="-5.463960003107786">
        <ele>61.18</ele>
        <time>2026-06-23T18:53:14Z</time>
      </trkpt>
      <trkpt lat="50.174346975982189" lon="-5.463960003107786">
        <ele>61.659999999999997</ele>
        <time>2026-06-23T18:54:17Z</time>
      </trkpt>
      <trkpt lat="50.174346975982189" lon="-5.463960003107786">
        <ele>62.140000000000001</ele>
        <time>2026-06-23T18:55:16Z</time>
      </trkpt>
      <trkpt lat="50.174346975982189" lon="-5.463960003107786">
        <ele>63.100000000000001</ele>
        <time>2026-06-23T18:56:14Z</time>
      </trkpt>
      <trkpt lat="50.174346975982189" lon="-5.463960003107786">
        <ele>64.069999999999993</ele>
        <time>2026-06-23T18:56:40Z</time>
      </trkpt>
      <trkpt lat="50.174346975982189" lon="-5.463960003107786">
        <ele>65.989999999999995</ele>
        <time>2026-06-23T18:56:41Z</time>
      </trkpt>
      <trkpt lat="50.174234993755817" lon="-5.463865958154202">
        <ele>67.909999999999997</ele>
        <time>2026-06-23T18:56:43Z</time>
      </trkpt>
      <trkpt lat="50.174251003190875" lon="-5.46388003975153">
        <ele>68.870000000000005</ele>
        <time>2026-06-23T18:56:44Z</time>
      </trkpt>
      <trkpt lat="50.174281010404229" lon="-5.463905017822981">
        <ele>69.349999999999994</ele>
        <time>2026-06-23T18:56:45Z</time>
      </trkpt>
      <trkpt lat="50.17432501539588" lon="-5.464089000597596">
        <ele>69.829999999999998</ele>
        <time>2026-06-23T18:56:46Z</time>
      </trkpt>
      <trkpt lat="50.17432501539588" lon="-5.464089000597596">
        <ele>69.829999999999998</ele>
        <time>2026-06-23T18:56:47Z</time>
      </trkpt>
      <trkpt lat="50.174343958497047" lon="-5.464125964790583">
        <ele>69.829999999999998</ele>
        <time>2026-06-23T18:56:48Z</time>
      </trkpt>
      <trkpt lat="50.174458958208561" lon="-5.464260997250676">
        <ele>70.790000000000006</ele>
        <time>2026-06-23T18:56:52Z</time>
      </trkpt>
      <trkpt lat="50.174502963200212" lon="-5.464260997250676">
        <ele>71.269999999999996</ele>
        <time>2026-06-23T18:56:53Z</time>
      </trkpt>
      <trkpt lat="50.174570018425584" lon="-5.464214980602264">
        <ele>71.269999999999996</ele>
        <time>2026-06-23T18:56:54Z</time>
      </trkpt>
      <trkpt lat="50.1745830103755" lon="-5.464196037501097">
        <ele>71.269999999999996</ele>
        <time>2026-06-23T18:56:55Z</time>
      </trkpt>
      <trkpt lat="50.1745830103755" lon="-5.464050024747849">
        <ele>71.760000000000005</ele>
        <time>2026-06-23T18:56:56Z</time>
      </trkpt>
      <trkpt lat="50.174585022032261" lon="-5.463954973965883">
        <ele>71.760000000000005</ele>
        <time>2026-06-23T18:56:57Z</time>
      </trkpt>
      <trkpt lat="50.174617040902376" lon="-5.463892025873065">
        <ele>72.239999999999995</ele>
        <time>2026-06-23T18:56:58Z</time>
      </trkpt>
      <trkpt lat="50.174654005095363" lon="-5.46381801366806">
        <ele>72.239999999999995</ele>
        <time>2026-06-23T18:56:59Z</time>
      </trkpt>
      <trkpt lat="50.174688035622239" lon="-5.463749030604959">
        <ele>72.239999999999995</ele>
        <time>2026-06-23T18:57:00Z</time>
      </trkpt>
      <trkpt lat="50.174719970673323" lon="-5.463685998693109">
        <ele>72.239999999999995</ele>
        <time>2026-06-23T18:57:01Z</time>
      </trkpt>
      <trkpt lat="50.174775961786509" lon="-5.463574016466737">
        <ele>72.239999999999995</ele>
        <time>2026-06-23T18:57:02Z</time>
      </trkpt>
      <trkpt lat="50.174775961786509" lon="-5.463574016466737">
        <ele>72.239999999999995</ele>
        <time>2026-06-23T18:57:03Z</time>
      </trkpt>
      <trkpt lat="50.174823990091681" lon="-5.463536968454719">
        <ele>72.239999999999995</ele>
        <time>2026-06-23T18:57:04Z</time>
      </trkpt>
      <trkpt lat="50.174875035881996" lon="-5.463497992604971">
        <ele>72.239999999999995</ele>
        <time>2026-06-23T18:57:05Z</time>
      </trkpt>
      <trkpt lat="50.174925997853279" lon="-5.463459016755223">
        <ele>72.239999999999995</ele>
        <time>2026-06-23T18:57:06Z</time>
      </trkpt>
      <trkpt lat="50.174977965652943" lon="-5.463420040905476">
        <ele>72.239999999999995</ele>
        <time>2026-06-23T18:57:07Z</time>
      </trkpt>
      <trkpt lat="50.17503404058516" lon="-5.463377041742206">
        <ele>72.239999999999995</ele>
        <time>2026-06-23T18:57:08Z</time>
      </trkpt>
      <trkpt lat="50.175139987841249" lon="-5.463294982910156">
        <ele>72.239999999999995</ele>
        <time>2026-06-23T18:57:10Z</time>
      </trkpt>
      <trkpt lat="50.175163960084319" lon="-5.463236980140209">
        <ele>71.760000000000005</ele>
        <time>2026-06-23T18:57:11Z</time>
      </trkpt>
      <trkpt lat="50.175196984782815" lon="-5.463153999298811">
        <ele>71.760000000000005</ele>
        <time>2026-06-23T18:57:12Z</time>
      </trkpt>
      <trkpt lat="50.175231015309691" lon="-5.463069006800652">
        <ele>71.269999999999996</ele>
        <time>2026-06-23T18:57:13Z</time>
      </trkpt>
      <trkpt lat="50.17525096423924" lon="-5.463018966838718">
        <ele>70.790000000000006</ele>
        <time>2026-06-23T18:57:14Z</time>
      </trkpt>
      <trkpt lat="50.175265967845917" lon="-5.462982002645731">
        <ele>70.310000000000002</ele>
        <time>2026-06-23T18:57:15Z</time>
      </trkpt>
      <trkpt lat="50.175290023908019" lon="-5.462944032624364">
        <ele>70.310000000000002</ele>
        <time>2026-06-23T18:57:16Z</time>
      </trkpt>
      <trkpt lat="50.17531399615109" lon="-5.462910002097487">
        <ele>69.829999999999998</ele>
        <time>2026-06-23T18:57:17Z</time>
      </trkpt>
      <trkpt lat="50.17533503472805" lon="-5.462882006540895">
        <ele>69.829999999999998</ele>
        <time>2026-06-23T18:57:18Z</time>
      </trkpt>
      <trkpt lat="50.175490016117692" lon="-5.462818974629045">
        <ele>69.349999999999994</ele>
        <time>2026-06-23T18:57:25Z</time>
      </trkpt>
      <trkpt lat="50.175523962825537" lon="-5.462817968800664">
        <ele>69.349999999999994</ele>
        <time>2026-06-23T18:57:26Z</time>
      </trkpt>
      <trkpt lat="50.175561010837555" lon="-5.462816962972283">
        <ele>68.870000000000005</ele>
        <time>2026-06-23T18:57:27Z</time>
      </trkpt>
      <trkpt lat="50.175595041364431" lon="-5.462816040962935">
        <ele>68.870000000000005</ele>
        <time>2026-06-23T18:57:28Z</time>
      </trkpt>
      <trkpt lat="50.175628988072276" lon="-5.462815035134554">
        <ele>67.909999999999997</ele>
        <time>2026-06-23T18:57:29Z</time>
      </trkpt>
      <trkpt lat="50.17565899528563" lon="-5.462814029306173">
        <ele>67.430000000000007</ele>
        <time>2026-06-23T18:57:30Z</time>
      </trkpt>
      <trkpt lat="50.17567802220583" lon="-5.462814029306173">
        <ele>66.950000000000003</ele>
        <time>2026-06-23T18:57:31Z</time>
      </trkpt>
      <trkpt lat="50.175689002498984" lon="-5.462813023477793">
        <ele>65.989999999999995</ele>
        <time>2026-06-23T18:57:32Z</time>
      </trkpt>
      <trkpt lat="50.175689002498984" lon="-5.462813023477793">
        <ele>63.579999999999998</ele>
        <time>2026-06-23T18:57:45Z</time>
      </trkpt>
      <trkpt lat="50.175689002498984" lon="-5.462813023477793">
        <ele>63.579999999999998</ele>
        <time>2026-06-23T18:58:00Z</time>
      </trkpt>
      <trkpt lat="50.175689002498984" lon="-5.462813023477793">
        <ele>63.579999999999998</ele>
        <time>2026-06-23T18:58:22Z</time>
      </trkpt>
      <trkpt lat="50.175689002498984" lon="-5.462813023477793">
        <ele>64.549999999999997</ele>
        <time>2026-06-23T18:58:48Z</time>
      </trkpt>
      <trkpt lat="50.175689002498984" lon="-5.462813023477793">
        <ele>64.549999999999997</ele>
        <time>2026-06-23T18:59:37Z</time>
      </trkpt>
    </trkseg>
  </trk>

</gpx>